<?xml version="1.0" encoding="UTF-8" standalone="no" ?>
<gpx xmlns="http://www.topografix.com/GPX/1/1" xmlns:xsi="http://www.w3.org/2001/XMLSchema-instance" xsi:schemaLocation="http://www.topografix.com/GPX/1/1 http://www.topografix.com/GPX/1/1/gpx.xsd" version="1.1" creator="VisuGPX - https://www.visugpx.com">
  <metadata>
    <name>cap de la passade des Agneres </name>
    <desc><![CDATA[Trace AlpineQuest 21/03/2021 9:11:51 AM]]></desc>
  </metadata>
  <trk>
    <name><![CDATA[cap de la passade des Agneres _1]]></name>
    <trkseg>
      <trkpt lat="42.82953" lon="0.55089">
        <ele>1142.849</ele>
        <time>2021-03-21T08:11:51Z</time>
      </trkpt>
      <trkpt lat="42.82951" lon="0.55099">
        <ele>1146.2</ele>
        <time>2021-03-21T08:11:52Z</time>
      </trkpt>
      <trkpt lat="42.82949" lon="0.55096">
        <ele>1149.428</ele>
        <time>2021-03-21T08:11:54Z</time>
      </trkpt>
      <trkpt lat="42.82951" lon="0.55094">
        <ele>1153.991</ele>
        <time>2021-03-21T08:11:56Z</time>
      </trkpt>
      <trkpt lat="42.82951" lon="0.55091">
        <ele>1152.732</ele>
        <time>2021-03-21T08:11:59Z</time>
      </trkpt>
      <trkpt lat="42.82952" lon="0.55089">
        <ele>1149.27</ele>
        <time>2021-03-21T08:12:01Z</time>
      </trkpt>
      <trkpt lat="42.82952" lon="0.55089">
        <ele>1147.175</ele>
        <time>2021-03-21T08:12:03Z</time>
      </trkpt>
      <trkpt lat="42.82953" lon="0.55089">
        <ele>1145.152</ele>
        <time>2021-03-21T08:12:05Z</time>
      </trkpt>
      <trkpt lat="42.82953" lon="0.5509">
        <ele>1143.758</ele>
        <time>2021-03-21T08:12:07Z</time>
      </trkpt>
      <trkpt lat="42.82953" lon="0.5509">
        <ele>1143.617</ele>
        <time>2021-03-21T08:12:09Z</time>
      </trkpt>
      <trkpt lat="42.82953" lon="0.5509">
        <ele>1143.561</ele>
        <time>2021-03-21T08:12:11Z</time>
      </trkpt>
      <trkpt lat="42.82953" lon="0.5509">
        <ele>1143.555</ele>
        <time>2021-03-21T08:12:13Z</time>
      </trkpt>
      <trkpt lat="42.82953" lon="0.5509">
        <ele>1143.55</ele>
        <time>2021-03-21T08:12:15Z</time>
      </trkpt>
      <trkpt lat="42.82953" lon="0.5509">
        <ele>1143.549</ele>
        <time>2021-03-21T08:12:17Z</time>
      </trkpt>
      <trkpt lat="42.82953" lon="0.5509">
        <ele>1143.533</ele>
        <time>2021-03-21T08:12:19Z</time>
      </trkpt>
      <trkpt lat="42.82953" lon="0.5509">
        <ele>1143.489</ele>
        <time>2021-03-21T08:12:21Z</time>
      </trkpt>
      <trkpt lat="42.82953" lon="0.55089">
        <ele>1141.562</ele>
        <time>2021-03-21T08:12:23Z</time>
      </trkpt>
      <trkpt lat="42.82954" lon="0.55088">
        <ele>1139.983</ele>
        <time>2021-03-21T08:12:25Z</time>
      </trkpt>
      <trkpt lat="42.82954" lon="0.55089">
        <ele>1139.469</ele>
        <time>2021-03-21T08:12:27Z</time>
      </trkpt>
      <trkpt lat="42.82954" lon="0.55089">
        <ele>1139.116</ele>
        <time>2021-03-21T08:12:29Z</time>
      </trkpt>
      <trkpt lat="42.82953" lon="0.55089">
        <ele>1138.707</ele>
        <time>2021-03-21T08:12:31Z</time>
      </trkpt>
      <trkpt lat="42.82953" lon="0.5509">
        <ele>1138.243</ele>
        <time>2021-03-21T08:12:33Z</time>
      </trkpt>
      <trkpt lat="42.82953" lon="0.5509">
        <ele>1138.266</ele>
        <time>2021-03-21T08:12:35Z</time>
      </trkpt>
      <trkpt lat="42.82953" lon="0.5509">
        <ele>1138.085</ele>
        <time>2021-03-21T08:12:37Z</time>
      </trkpt>
      <trkpt lat="42.82953" lon="0.5509">
        <ele>1138.075</ele>
        <time>2021-03-21T08:12:39Z</time>
      </trkpt>
      <trkpt lat="42.82955" lon="0.55089">
        <ele>1136.443</ele>
        <time>2021-03-21T08:12:41Z</time>
      </trkpt>
      <trkpt lat="42.82954" lon="0.5509">
        <ele>1133.948</ele>
        <time>2021-03-21T08:12:43Z</time>
      </trkpt>
      <trkpt lat="42.82955" lon="0.55091">
        <ele>1133.042</ele>
        <time>2021-03-21T08:12:45Z</time>
      </trkpt>
      <trkpt lat="42.82955" lon="0.55091">
        <ele>1132.247</ele>
        <time>2021-03-21T08:12:47Z</time>
      </trkpt>
      <trkpt lat="42.82956" lon="0.55091">
        <ele>1131.377</ele>
        <time>2021-03-21T08:12:49Z</time>
      </trkpt>
      <trkpt lat="42.82956" lon="0.55091">
        <ele>1130.723</ele>
        <time>2021-03-21T08:12:51Z</time>
      </trkpt>
      <trkpt lat="42.82956" lon="0.55091">
        <ele>1130.789</ele>
        <time>2021-03-21T08:12:53Z</time>
      </trkpt>
      <trkpt lat="42.82957" lon="0.55092">
        <ele>1130.647</ele>
        <time>2021-03-21T08:12:55Z</time>
      </trkpt>
      <trkpt lat="42.82957" lon="0.55092">
        <ele>1130.61</ele>
        <time>2021-03-21T08:12:57Z</time>
      </trkpt>
      <trkpt lat="42.82957" lon="0.55092">
        <ele>1130.602</ele>
        <time>2021-03-21T08:12:59Z</time>
      </trkpt>
      <trkpt lat="42.82957" lon="0.55092">
        <ele>1130.603</ele>
        <time>2021-03-21T08:13:01Z</time>
      </trkpt>
      <trkpt lat="42.82957" lon="0.55092">
        <ele>1130.592</ele>
        <time>2021-03-21T08:13:03Z</time>
      </trkpt>
      <trkpt lat="42.82957" lon="0.55092">
        <ele>1130.586</ele>
        <time>2021-03-21T08:13:05Z</time>
      </trkpt>
      <trkpt lat="42.82957" lon="0.55092">
        <ele>1129.949</ele>
        <time>2021-03-21T08:13:07Z</time>
      </trkpt>
      <trkpt lat="42.82957" lon="0.55093">
        <ele>1129.288</ele>
        <time>2021-03-21T08:13:09Z</time>
      </trkpt>
      <trkpt lat="42.82957" lon="0.55093">
        <ele>1129.282</ele>
        <time>2021-03-21T08:13:11Z</time>
      </trkpt>
      <trkpt lat="42.82958" lon="0.55094">
        <ele>1129.489</ele>
        <time>2021-03-21T08:13:13Z</time>
      </trkpt>
      <trkpt lat="42.82958" lon="0.55094">
        <ele>1129.412</ele>
        <time>2021-03-21T08:13:15Z</time>
      </trkpt>
      <trkpt lat="42.82957" lon="0.55094">
        <ele>1128.932</ele>
        <time>2021-03-21T08:13:17Z</time>
      </trkpt>
      <trkpt lat="42.82958" lon="0.55094">
        <ele>1128.988</ele>
        <time>2021-03-21T08:13:19Z</time>
      </trkpt>
      <trkpt lat="42.82958" lon="0.55094">
        <ele>1128.636</ele>
        <time>2021-03-21T08:13:21Z</time>
      </trkpt>
      <trkpt lat="42.82958" lon="0.55095">
        <ele>1127.839</ele>
        <time>2021-03-21T08:13:23Z</time>
      </trkpt>
      <trkpt lat="42.82958" lon="0.55095">
        <ele>1128.484</ele>
        <time>2021-03-21T08:13:25Z</time>
      </trkpt>
      <trkpt lat="42.82958" lon="0.55095">
        <ele>1128.599</ele>
        <time>2021-03-21T08:13:27Z</time>
      </trkpt>
      <trkpt lat="42.82958" lon="0.55096">
        <ele>1128.485</ele>
        <time>2021-03-21T08:13:29Z</time>
      </trkpt>
      <trkpt lat="42.82958" lon="0.55095">
        <ele>1128.518</ele>
        <time>2021-03-21T08:13:31Z</time>
      </trkpt>
      <trkpt lat="42.82958" lon="0.55095">
        <ele>1128.18</ele>
        <time>2021-03-21T08:13:33Z</time>
      </trkpt>
      <trkpt lat="42.82958" lon="0.55095">
        <ele>1128.184</ele>
        <time>2021-03-21T08:13:35Z</time>
      </trkpt>
      <trkpt lat="42.82958" lon="0.55095">
        <ele>1128.182</ele>
        <time>2021-03-21T08:13:37Z</time>
      </trkpt>
      <trkpt lat="42.82958" lon="0.55095">
        <ele>1128.181</ele>
        <time>2021-03-21T08:13:39Z</time>
      </trkpt>
      <trkpt lat="42.82958" lon="0.55095">
        <ele>1128.181</ele>
        <time>2021-03-21T08:13:41Z</time>
      </trkpt>
      <trkpt lat="42.82958" lon="0.55095">
        <ele>1128.185</ele>
        <time>2021-03-21T08:13:43Z</time>
      </trkpt>
      <trkpt lat="42.82958" lon="0.55095">
        <ele>1128.183</ele>
        <time>2021-03-21T08:13:45Z</time>
      </trkpt>
      <trkpt lat="42.82958" lon="0.55095">
        <ele>1128.187</ele>
        <time>2021-03-21T08:13:47Z</time>
      </trkpt>
      <trkpt lat="42.82958" lon="0.55095">
        <ele>1128.19</ele>
        <time>2021-03-21T08:13:49Z</time>
      </trkpt>
      <trkpt lat="42.82958" lon="0.55095">
        <ele>1128.188</ele>
        <time>2021-03-21T08:13:51Z</time>
      </trkpt>
      <trkpt lat="42.82958" lon="0.55095">
        <ele>1128.178</ele>
        <time>2021-03-21T08:13:53Z</time>
      </trkpt>
      <trkpt lat="42.82958" lon="0.55095">
        <ele>1128.179</ele>
        <time>2021-03-21T08:13:55Z</time>
      </trkpt>
      <trkpt lat="42.82958" lon="0.55095">
        <ele>1128.178</ele>
        <time>2021-03-21T08:13:57Z</time>
      </trkpt>
      <trkpt lat="42.82958" lon="0.55095">
        <ele>1128.173</ele>
        <time>2021-03-21T08:13:59Z</time>
      </trkpt>
      <trkpt lat="42.82958" lon="0.55095">
        <ele>1128.175</ele>
        <time>2021-03-21T08:14:01Z</time>
      </trkpt>
      <trkpt lat="42.82957" lon="0.55096">
        <ele>1127.617</ele>
        <time>2021-03-21T08:14:03Z</time>
      </trkpt>
      <trkpt lat="42.82957" lon="0.55096">
        <ele>1126.721</ele>
        <time>2021-03-21T08:14:05Z</time>
      </trkpt>
      <trkpt lat="42.82957" lon="0.55096">
        <ele>1126.749</ele>
        <time>2021-03-21T08:14:06Z</time>
      </trkpt>
      <trkpt lat="42.82957" lon="0.55095">
        <ele>1127.969</ele>
        <time>2021-03-21T08:14:09Z</time>
      </trkpt>
      <trkpt lat="42.82957" lon="0.55095">
        <ele>1128.648</ele>
        <time>2021-03-21T08:14:11Z</time>
      </trkpt>
      <trkpt lat="42.82957" lon="0.55094">
        <ele>1128.582</ele>
        <time>2021-03-21T08:14:13Z</time>
      </trkpt>
      <trkpt lat="42.82957" lon="0.55092">
        <ele>1128.131</ele>
        <time>2021-03-21T08:14:15Z</time>
      </trkpt>
      <trkpt lat="42.82958" lon="0.5509">
        <ele>1128.028</ele>
        <time>2021-03-21T08:14:17Z</time>
      </trkpt>
      <trkpt lat="42.82959" lon="0.55088">
        <ele>1127.496</ele>
        <time>2021-03-21T08:14:19Z</time>
      </trkpt>
      <trkpt lat="42.82961" lon="0.55086">
        <ele>1127.581</ele>
        <time>2021-03-21T08:14:21Z</time>
      </trkpt>
      <trkpt lat="42.82963" lon="0.55086">
        <ele>1126.256</ele>
        <time>2021-03-21T08:14:23Z</time>
      </trkpt>
      <trkpt lat="42.82965" lon="0.55087">
        <ele>1126.266</ele>
        <time>2021-03-21T08:14:25Z</time>
      </trkpt>
      <trkpt lat="42.82966" lon="0.55086">
        <ele>1126.632</ele>
        <time>2021-03-21T08:14:27Z</time>
      </trkpt>
      <trkpt lat="42.82968" lon="0.55087">
        <ele>1126.454</ele>
        <time>2021-03-21T08:14:29Z</time>
      </trkpt>
      <trkpt lat="42.82968" lon="0.55086">
        <ele>1125.762</ele>
        <time>2021-03-21T08:14:31Z</time>
      </trkpt>
      <trkpt lat="42.82966" lon="0.55088">
        <ele>1125.741</ele>
        <time>2021-03-21T08:14:33Z</time>
      </trkpt>
      <trkpt lat="42.82964" lon="0.55087">
        <ele>1125.021</ele>
        <time>2021-03-21T08:14:35Z</time>
      </trkpt>
      <trkpt lat="42.82961" lon="0.55087">
        <ele>1125.308</ele>
        <time>2021-03-21T08:14:37Z</time>
      </trkpt>
      <trkpt lat="42.82959" lon="0.55085">
        <ele>1124.793</ele>
        <time>2021-03-21T08:14:39Z</time>
      </trkpt>
      <trkpt lat="42.82957" lon="0.55084">
        <ele>1123.462</ele>
        <time>2021-03-21T08:14:41Z</time>
      </trkpt>
      <trkpt lat="42.82954" lon="0.55084">
        <ele>1123.217</ele>
        <time>2021-03-21T08:14:43Z</time>
      </trkpt>
      <trkpt lat="42.82952" lon="0.55083">
        <ele>1122.628</ele>
        <time>2021-03-21T08:14:45Z</time>
      </trkpt>
      <trkpt lat="42.8295" lon="0.55083">
        <ele>1122.459</ele>
        <time>2021-03-21T08:14:47Z</time>
      </trkpt>
      <trkpt lat="42.82948" lon="0.55082">
        <ele>1122.411</ele>
        <time>2021-03-21T08:14:49Z</time>
      </trkpt>
      <trkpt lat="42.82946" lon="0.55082">
        <ele>1122.211</ele>
        <time>2021-03-21T08:14:51Z</time>
      </trkpt>
      <trkpt lat="42.82944" lon="0.55081">
        <ele>1121.535</ele>
        <time>2021-03-21T08:14:53Z</time>
      </trkpt>
      <trkpt lat="42.82941" lon="0.5508">
        <ele>1121.133</ele>
        <time>2021-03-21T08:14:55Z</time>
      </trkpt>
      <trkpt lat="42.8294" lon="0.55079">
        <ele>1120.123</ele>
        <time>2021-03-21T08:14:57Z</time>
      </trkpt>
      <trkpt lat="42.82939" lon="0.55076">
        <ele>1120.146</ele>
        <time>2021-03-21T08:14:59Z</time>
      </trkpt>
      <trkpt lat="42.8294" lon="0.55073">
        <ele>1120.443</ele>
        <time>2021-03-21T08:15:01Z</time>
      </trkpt>
      <trkpt lat="42.82942" lon="0.5507">
        <ele>1119.904</ele>
        <time>2021-03-21T08:15:03Z</time>
      </trkpt>
      <trkpt lat="42.82944" lon="0.55069">
        <ele>1120.333</ele>
        <time>2021-03-21T08:15:05Z</time>
      </trkpt>
      <trkpt lat="42.82946" lon="0.5507">
        <ele>1119.748</ele>
        <time>2021-03-21T08:15:07Z</time>
      </trkpt>
      <trkpt lat="42.82948" lon="0.55071">
        <ele>1119.542</ele>
        <time>2021-03-21T08:15:09Z</time>
      </trkpt>
      <trkpt lat="42.82951" lon="0.55071">
        <ele>1119.395</ele>
        <time>2021-03-21T08:15:11Z</time>
      </trkpt>
      <trkpt lat="42.82953" lon="0.55072">
        <ele>1119.22</ele>
        <time>2021-03-21T08:15:13Z</time>
      </trkpt>
      <trkpt lat="42.82955" lon="0.55073">
        <ele>1119.263</ele>
        <time>2021-03-21T08:15:15Z</time>
      </trkpt>
      <trkpt lat="42.82957" lon="0.55074">
        <ele>1120.052</ele>
        <time>2021-03-21T08:15:17Z</time>
      </trkpt>
      <trkpt lat="42.82959" lon="0.55074">
        <ele>1119.519</ele>
        <time>2021-03-21T08:15:19Z</time>
      </trkpt>
      <trkpt lat="42.82961" lon="0.55075">
        <ele>1120.318</ele>
        <time>2021-03-21T08:15:21Z</time>
      </trkpt>
      <trkpt lat="42.82963" lon="0.55076">
        <ele>1121.745</ele>
        <time>2021-03-21T08:15:23Z</time>
      </trkpt>
      <trkpt lat="42.82965" lon="0.55078">
        <ele>1121.784</ele>
        <time>2021-03-21T08:15:25Z</time>
      </trkpt>
      <trkpt lat="42.82967" lon="0.5508">
        <ele>1123.337</ele>
        <time>2021-03-21T08:15:27Z</time>
      </trkpt>
      <trkpt lat="42.82968" lon="0.55081">
        <ele>1123.404</ele>
        <time>2021-03-21T08:15:29Z</time>
      </trkpt>
      <trkpt lat="42.8297" lon="0.55082">
        <ele>1123.692</ele>
        <time>2021-03-21T08:15:31Z</time>
      </trkpt>
      <trkpt lat="42.82972" lon="0.55083">
        <ele>1125.406</ele>
        <time>2021-03-21T08:15:33Z</time>
      </trkpt>
      <trkpt lat="42.82974" lon="0.55084">
        <ele>1125.775</ele>
        <time>2021-03-21T08:15:35Z</time>
      </trkpt>
      <trkpt lat="42.82976" lon="0.55085">
        <ele>1125.032</ele>
        <time>2021-03-21T08:15:37Z</time>
      </trkpt>
      <trkpt lat="42.82977" lon="0.55087">
        <ele>1125.531</ele>
        <time>2021-03-21T08:15:39Z</time>
      </trkpt>
      <trkpt lat="42.82979" lon="0.55088">
        <ele>1125.9</ele>
        <time>2021-03-21T08:15:41Z</time>
      </trkpt>
      <trkpt lat="42.82981" lon="0.5509">
        <ele>1125.627</ele>
        <time>2021-03-21T08:15:43Z</time>
      </trkpt>
      <trkpt lat="42.82983" lon="0.55091">
        <ele>1125.669</ele>
        <time>2021-03-21T08:15:45Z</time>
      </trkpt>
      <trkpt lat="42.82985" lon="0.55092">
        <ele>1125.454</ele>
        <time>2021-03-21T08:15:47Z</time>
      </trkpt>
      <trkpt lat="42.82987" lon="0.55092">
        <ele>1125.897</ele>
        <time>2021-03-21T08:15:49Z</time>
      </trkpt>
      <trkpt lat="42.82988" lon="0.55094">
        <ele>1124.963</ele>
        <time>2021-03-21T08:15:51Z</time>
      </trkpt>
      <trkpt lat="42.8299" lon="0.55094">
        <ele>1125.18</ele>
        <time>2021-03-21T08:15:53Z</time>
      </trkpt>
      <trkpt lat="42.82992" lon="0.55095">
        <ele>1124.63</ele>
        <time>2021-03-21T08:15:55Z</time>
      </trkpt>
      <trkpt lat="42.82994" lon="0.55096">
        <ele>1124.814</ele>
        <time>2021-03-21T08:15:57Z</time>
      </trkpt>
      <trkpt lat="42.82996" lon="0.55096">
        <ele>1125.218</ele>
        <time>2021-03-21T08:15:59Z</time>
      </trkpt>
      <trkpt lat="42.82998" lon="0.55096">
        <ele>1125.516</ele>
        <time>2021-03-21T08:16:01Z</time>
      </trkpt>
      <trkpt lat="42.83" lon="0.55096">
        <ele>1126.124</ele>
        <time>2021-03-21T08:16:03Z</time>
      </trkpt>
      <trkpt lat="42.83001" lon="0.55095">
        <ele>1126.613</ele>
        <time>2021-03-21T08:16:05Z</time>
      </trkpt>
      <trkpt lat="42.83003" lon="0.55094">
        <ele>1127.308</ele>
        <time>2021-03-21T08:16:07Z</time>
      </trkpt>
      <trkpt lat="42.83003" lon="0.5509">
        <ele>1130.011</ele>
        <time>2021-03-21T08:16:09Z</time>
      </trkpt>
      <trkpt lat="42.83007" lon="0.5509">
        <ele>1130.418</ele>
        <time>2021-03-21T08:16:11Z</time>
      </trkpt>
      <trkpt lat="42.83008" lon="0.55093">
        <ele>1130.452</ele>
        <time>2021-03-21T08:16:13Z</time>
      </trkpt>
      <trkpt lat="42.8301" lon="0.55092">
        <ele>1130.44</ele>
        <time>2021-03-21T08:16:15Z</time>
      </trkpt>
      <trkpt lat="42.83012" lon="0.55092">
        <ele>1131.02</ele>
        <time>2021-03-21T08:16:17Z</time>
      </trkpt>
      <trkpt lat="42.83014" lon="0.55094">
        <ele>1131.909</ele>
        <time>2021-03-21T08:16:19Z</time>
      </trkpt>
      <trkpt lat="42.83016" lon="0.55095">
        <ele>1132.753</ele>
        <time>2021-03-21T08:16:21Z</time>
      </trkpt>
      <trkpt lat="42.83017" lon="0.55096">
        <ele>1132.771</ele>
        <time>2021-03-21T08:16:23Z</time>
      </trkpt>
      <trkpt lat="42.83019" lon="0.55097">
        <ele>1134.118</ele>
        <time>2021-03-21T08:16:25Z</time>
      </trkpt>
      <trkpt lat="42.8302" lon="0.55098">
        <ele>1134.418</ele>
        <time>2021-03-21T08:16:27Z</time>
      </trkpt>
      <trkpt lat="42.83022" lon="0.55099">
        <ele>1134.772</ele>
        <time>2021-03-21T08:16:29Z</time>
      </trkpt>
      <trkpt lat="42.83024" lon="0.551">
        <ele>1134.889</ele>
        <time>2021-03-21T08:16:31Z</time>
      </trkpt>
      <trkpt lat="42.83025" lon="0.55101">
        <ele>1135.641</ele>
        <time>2021-03-21T08:16:33Z</time>
      </trkpt>
      <trkpt lat="42.83027" lon="0.55102">
        <ele>1134.279</ele>
        <time>2021-03-21T08:16:35Z</time>
      </trkpt>
      <trkpt lat="42.83028" lon="0.55103">
        <ele>1134.58</ele>
        <time>2021-03-21T08:16:37Z</time>
      </trkpt>
      <trkpt lat="42.8303" lon="0.55105">
        <ele>1134.578</ele>
        <time>2021-03-21T08:16:39Z</time>
      </trkpt>
      <trkpt lat="42.83031" lon="0.55107">
        <ele>1134.753</ele>
        <time>2021-03-21T08:16:41Z</time>
      </trkpt>
      <trkpt lat="42.83033" lon="0.55109">
        <ele>1133.694</ele>
        <time>2021-03-21T08:16:43Z</time>
      </trkpt>
      <trkpt lat="42.83035" lon="0.55111">
        <ele>1133.532</ele>
        <time>2021-03-21T08:16:45Z</time>
      </trkpt>
      <trkpt lat="42.83036" lon="0.55112">
        <ele>1133.344</ele>
        <time>2021-03-21T08:16:47Z</time>
      </trkpt>
      <trkpt lat="42.83038" lon="0.55114">
        <ele>1132.77</ele>
        <time>2021-03-21T08:16:49Z</time>
      </trkpt>
      <trkpt lat="42.83039" lon="0.55115">
        <ele>1133.569</ele>
        <time>2021-03-21T08:16:51Z</time>
      </trkpt>
      <trkpt lat="42.83041" lon="0.55116">
        <ele>1133.866</ele>
        <time>2021-03-21T08:16:53Z</time>
      </trkpt>
      <trkpt lat="42.83043" lon="0.55118">
        <ele>1133.778</ele>
        <time>2021-03-21T08:16:55Z</time>
      </trkpt>
      <trkpt lat="42.83044" lon="0.5512">
        <ele>1134.081</ele>
        <time>2021-03-21T08:16:57Z</time>
      </trkpt>
      <trkpt lat="42.83046" lon="0.55122">
        <ele>1134.501</ele>
        <time>2021-03-21T08:16:59Z</time>
      </trkpt>
      <trkpt lat="42.83047" lon="0.55124">
        <ele>1134.138</ele>
        <time>2021-03-21T08:17:01Z</time>
      </trkpt>
      <trkpt lat="42.83048" lon="0.55126">
        <ele>1133.226</ele>
        <time>2021-03-21T08:17:03Z</time>
      </trkpt>
      <trkpt lat="42.83049" lon="0.55128">
        <ele>1132.712</ele>
        <time>2021-03-21T08:17:05Z</time>
      </trkpt>
      <trkpt lat="42.83051" lon="0.55129">
        <ele>1132.941</ele>
        <time>2021-03-21T08:17:07Z</time>
      </trkpt>
      <trkpt lat="42.83052" lon="0.55131">
        <ele>1133.342</ele>
        <time>2021-03-21T08:17:09Z</time>
      </trkpt>
      <trkpt lat="42.83054" lon="0.55132">
        <ele>1133.921</ele>
        <time>2021-03-21T08:17:11Z</time>
      </trkpt>
      <trkpt lat="42.83055" lon="0.55134">
        <ele>1133.666</ele>
        <time>2021-03-21T08:17:13Z</time>
      </trkpt>
      <trkpt lat="42.83057" lon="0.55136">
        <ele>1133.348</ele>
        <time>2021-03-21T08:17:15Z</time>
      </trkpt>
      <trkpt lat="42.83058" lon="0.55137">
        <ele>1133.099</ele>
        <time>2021-03-21T08:17:17Z</time>
      </trkpt>
      <trkpt lat="42.83059" lon="0.55139">
        <ele>1133.403</ele>
        <time>2021-03-21T08:17:19Z</time>
      </trkpt>
      <trkpt lat="42.83061" lon="0.5514">
        <ele>1134.292</ele>
        <time>2021-03-21T08:17:21Z</time>
      </trkpt>
      <trkpt lat="42.83062" lon="0.55141">
        <ele>1135.549</ele>
        <time>2021-03-21T08:17:23Z</time>
      </trkpt>
      <trkpt lat="42.83064" lon="0.55142">
        <ele>1135.966</ele>
        <time>2021-03-21T08:17:25Z</time>
      </trkpt>
      <trkpt lat="42.83065" lon="0.55143">
        <ele>1136.403</ele>
        <time>2021-03-21T08:17:27Z</time>
      </trkpt>
      <trkpt lat="42.83066" lon="0.55145">
        <ele>1137.003</ele>
        <time>2021-03-21T08:17:29Z</time>
      </trkpt>
      <trkpt lat="42.83067" lon="0.55148">
        <ele>1137.248</ele>
        <time>2021-03-21T08:17:31Z</time>
      </trkpt>
      <trkpt lat="42.83067" lon="0.5515">
        <ele>1137.048</ele>
        <time>2021-03-21T08:17:33Z</time>
      </trkpt>
      <trkpt lat="42.83068" lon="0.55152">
        <ele>1138.141</ele>
        <time>2021-03-21T08:17:35Z</time>
      </trkpt>
      <trkpt lat="42.83069" lon="0.55154">
        <ele>1139.129</ele>
        <time>2021-03-21T08:17:37Z</time>
      </trkpt>
      <trkpt lat="42.83069" lon="0.55157">
        <ele>1140.406</ele>
        <time>2021-03-21T08:17:39Z</time>
      </trkpt>
      <trkpt lat="42.83069" lon="0.55159">
        <ele>1142.041</ele>
        <time>2021-03-21T08:17:41Z</time>
      </trkpt>
      <trkpt lat="42.83069" lon="0.55161">
        <ele>1143.446</ele>
        <time>2021-03-21T08:17:43Z</time>
      </trkpt>
      <trkpt lat="42.83069" lon="0.55163">
        <ele>1143.974</ele>
        <time>2021-03-21T08:17:45Z</time>
      </trkpt>
      <trkpt lat="42.83067" lon="0.55165">
        <ele>1143.304</ele>
        <time>2021-03-21T08:17:47Z</time>
      </trkpt>
      <trkpt lat="42.83066" lon="0.55167">
        <ele>1142.987</ele>
        <time>2021-03-21T08:17:49Z</time>
      </trkpt>
      <trkpt lat="42.83065" lon="0.55169">
        <ele>1143.641</ele>
        <time>2021-03-21T08:17:51Z</time>
      </trkpt>
      <trkpt lat="42.83064" lon="0.5517">
        <ele>1143.518</ele>
        <time>2021-03-21T08:17:53Z</time>
      </trkpt>
      <trkpt lat="42.83063" lon="0.55172">
        <ele>1144.357</ele>
        <time>2021-03-21T08:17:55Z</time>
      </trkpt>
      <trkpt lat="42.83061" lon="0.55173">
        <ele>1144.672</ele>
        <time>2021-03-21T08:17:57Z</time>
      </trkpt>
      <trkpt lat="42.8306" lon="0.55174">
        <ele>1145.311</ele>
        <time>2021-03-21T08:17:59Z</time>
      </trkpt>
      <trkpt lat="42.83058" lon="0.55175">
        <ele>1145.808</ele>
        <time>2021-03-21T08:18:01Z</time>
      </trkpt>
      <trkpt lat="42.83056" lon="0.55176">
        <ele>1146.727</ele>
        <time>2021-03-21T08:18:03Z</time>
      </trkpt>
      <trkpt lat="42.83055" lon="0.55177">
        <ele>1148.134</ele>
        <time>2021-03-21T08:18:05Z</time>
      </trkpt>
      <trkpt lat="42.83053" lon="0.55177">
        <ele>1148.212</ele>
        <time>2021-03-21T08:18:07Z</time>
      </trkpt>
      <trkpt lat="42.83051" lon="0.55178">
        <ele>1147.185</ele>
        <time>2021-03-21T08:18:09Z</time>
      </trkpt>
      <trkpt lat="42.8305" lon="0.55179">
        <ele>1147.121</ele>
        <time>2021-03-21T08:18:11Z</time>
      </trkpt>
      <trkpt lat="42.83048" lon="0.55179">
        <ele>1148.342</ele>
        <time>2021-03-21T08:18:13Z</time>
      </trkpt>
      <trkpt lat="42.83046" lon="0.5518">
        <ele>1148.861</ele>
        <time>2021-03-21T08:18:15Z</time>
      </trkpt>
      <trkpt lat="42.83045" lon="0.5518">
        <ele>1149.517</ele>
        <time>2021-03-21T08:18:17Z</time>
      </trkpt>
      <trkpt lat="42.83043" lon="0.5518">
        <ele>1149.632</ele>
        <time>2021-03-21T08:18:19Z</time>
      </trkpt>
      <trkpt lat="42.83041" lon="0.55181">
        <ele>1149.145</ele>
        <time>2021-03-21T08:18:21Z</time>
      </trkpt>
      <trkpt lat="42.83039" lon="0.55181">
        <ele>1149.746</ele>
        <time>2021-03-21T08:18:23Z</time>
      </trkpt>
      <trkpt lat="42.83038" lon="0.55181">
        <ele>1151.38</ele>
        <time>2021-03-21T08:18:25Z</time>
      </trkpt>
      <trkpt lat="42.83036" lon="0.55181">
        <ele>1151.598</ele>
        <time>2021-03-21T08:18:27Z</time>
      </trkpt>
      <trkpt lat="42.83035" lon="0.55182">
        <ele>1151.191</ele>
        <time>2021-03-21T08:18:29Z</time>
      </trkpt>
      <trkpt lat="42.83033" lon="0.55182">
        <ele>1151.492</ele>
        <time>2021-03-21T08:18:31Z</time>
      </trkpt>
      <trkpt lat="42.83031" lon="0.55183">
        <ele>1151.894</ele>
        <time>2021-03-21T08:18:33Z</time>
      </trkpt>
      <trkpt lat="42.8303" lon="0.55185">
        <ele>1152.055</ele>
        <time>2021-03-21T08:18:35Z</time>
      </trkpt>
      <trkpt lat="42.8303" lon="0.55187">
        <ele>1152.433</ele>
        <time>2021-03-21T08:18:37Z</time>
      </trkpt>
      <trkpt lat="42.8303" lon="0.55189">
        <ele>1153.142</ele>
        <time>2021-03-21T08:18:39Z</time>
      </trkpt>
      <trkpt lat="42.83031" lon="0.5519">
        <ele>1154.036</ele>
        <time>2021-03-21T08:18:41Z</time>
      </trkpt>
      <trkpt lat="42.83032" lon="0.55192">
        <ele>1154.298</ele>
        <time>2021-03-21T08:18:43Z</time>
      </trkpt>
      <trkpt lat="42.83034" lon="0.55192">
        <ele>1154.622</ele>
        <time>2021-03-21T08:18:45Z</time>
      </trkpt>
      <trkpt lat="42.83035" lon="0.55192">
        <ele>1154.429</ele>
        <time>2021-03-21T08:18:47Z</time>
      </trkpt>
      <trkpt lat="42.83037" lon="0.55193">
        <ele>1154.623</ele>
        <time>2021-03-21T08:18:49Z</time>
      </trkpt>
      <trkpt lat="42.83038" lon="0.55193">
        <ele>1154.059</ele>
        <time>2021-03-21T08:18:51Z</time>
      </trkpt>
      <trkpt lat="42.8304" lon="0.55193">
        <ele>1153.922</ele>
        <time>2021-03-21T08:18:53Z</time>
      </trkpt>
      <trkpt lat="42.83042" lon="0.55194">
        <ele>1154.391</ele>
        <time>2021-03-21T08:18:55Z</time>
      </trkpt>
      <trkpt lat="42.83043" lon="0.55194">
        <ele>1154.051</ele>
        <time>2021-03-21T08:18:57Z</time>
      </trkpt>
      <trkpt lat="42.83044" lon="0.55194">
        <ele>1154.511</ele>
        <time>2021-03-21T08:18:59Z</time>
      </trkpt>
      <trkpt lat="42.83046" lon="0.55194">
        <ele>1154.582</ele>
        <time>2021-03-21T08:19:01Z</time>
      </trkpt>
      <trkpt lat="42.83048" lon="0.55194">
        <ele>1154.275</ele>
        <time>2021-03-21T08:19:03Z</time>
      </trkpt>
      <trkpt lat="42.83049" lon="0.55195">
        <ele>1153.902</ele>
        <time>2021-03-21T08:19:05Z</time>
      </trkpt>
      <trkpt lat="42.83051" lon="0.55195">
        <ele>1154.346</ele>
        <time>2021-03-21T08:19:07Z</time>
      </trkpt>
      <trkpt lat="42.83053" lon="0.55195">
        <ele>1154.852</ele>
        <time>2021-03-21T08:19:09Z</time>
      </trkpt>
      <trkpt lat="42.83055" lon="0.55195">
        <ele>1155.114</ele>
        <time>2021-03-21T08:19:11Z</time>
      </trkpt>
      <trkpt lat="42.83057" lon="0.55195">
        <ele>1155.66</ele>
        <time>2021-03-21T08:19:13Z</time>
      </trkpt>
      <trkpt lat="42.83058" lon="0.55196">
        <ele>1156.013</ele>
        <time>2021-03-21T08:19:15Z</time>
      </trkpt>
      <trkpt lat="42.8306" lon="0.55197">
        <ele>1156.05</ele>
        <time>2021-03-21T08:19:17Z</time>
      </trkpt>
      <trkpt lat="42.83062" lon="0.55198">
        <ele>1156.959</ele>
        <time>2021-03-21T08:19:19Z</time>
      </trkpt>
      <trkpt lat="42.83064" lon="0.55198">
        <ele>1157.387</ele>
        <time>2021-03-21T08:19:21Z</time>
      </trkpt>
      <trkpt lat="42.83066" lon="0.55198">
        <ele>1157.81</ele>
        <time>2021-03-21T08:19:23Z</time>
      </trkpt>
      <trkpt lat="42.83068" lon="0.55199">
        <ele>1157.839</ele>
        <time>2021-03-21T08:19:25Z</time>
      </trkpt>
      <trkpt lat="42.83069" lon="0.55199">
        <ele>1157.74</ele>
        <time>2021-03-21T08:19:27Z</time>
      </trkpt>
      <trkpt lat="42.83071" lon="0.552">
        <ele>1158.165</ele>
        <time>2021-03-21T08:19:29Z</time>
      </trkpt>
      <trkpt lat="42.83073" lon="0.552">
        <ele>1158.046</ele>
        <time>2021-03-21T08:19:31Z</time>
      </trkpt>
      <trkpt lat="42.83076" lon="0.55201">
        <ele>1158.734</ele>
        <time>2021-03-21T08:19:33Z</time>
      </trkpt>
      <trkpt lat="42.83077" lon="0.55201">
        <ele>1158.673</ele>
        <time>2021-03-21T08:19:35Z</time>
      </trkpt>
      <trkpt lat="42.83079" lon="0.55201">
        <ele>1159.634</ele>
        <time>2021-03-21T08:19:37Z</time>
      </trkpt>
      <trkpt lat="42.83081" lon="0.55202">
        <ele>1160.128</ele>
        <time>2021-03-21T08:19:39Z</time>
      </trkpt>
      <trkpt lat="42.83083" lon="0.55203">
        <ele>1160.367</ele>
        <time>2021-03-21T08:19:41Z</time>
      </trkpt>
      <trkpt lat="42.83085" lon="0.55203">
        <ele>1160.587</ele>
        <time>2021-03-21T08:19:43Z</time>
      </trkpt>
      <trkpt lat="42.83086" lon="0.55204">
        <ele>1160.874</ele>
        <time>2021-03-21T08:19:45Z</time>
      </trkpt>
      <trkpt lat="42.83088" lon="0.55204">
        <ele>1160.527</ele>
        <time>2021-03-21T08:19:47Z</time>
      </trkpt>
      <trkpt lat="42.8309" lon="0.55205">
        <ele>1160.351</ele>
        <time>2021-03-21T08:19:49Z</time>
      </trkpt>
      <trkpt lat="42.83092" lon="0.55206">
        <ele>1160.196</ele>
        <time>2021-03-21T08:19:51Z</time>
      </trkpt>
      <trkpt lat="42.83093" lon="0.55208">
        <ele>1160.4</ele>
        <time>2021-03-21T08:19:53Z</time>
      </trkpt>
      <trkpt lat="42.83094" lon="0.5521">
        <ele>1161.504</ele>
        <time>2021-03-21T08:19:55Z</time>
      </trkpt>
      <trkpt lat="42.83095" lon="0.55213">
        <ele>1162.884</ele>
        <time>2021-03-21T08:19:57Z</time>
      </trkpt>
      <trkpt lat="42.83094" lon="0.55215">
        <ele>1163.257</ele>
        <time>2021-03-21T08:19:59Z</time>
      </trkpt>
      <trkpt lat="42.83094" lon="0.55216">
        <ele>1164.435</ele>
        <time>2021-03-21T08:20:01Z</time>
      </trkpt>
      <trkpt lat="42.83092" lon="0.55218">
        <ele>1165.172</ele>
        <time>2021-03-21T08:20:03Z</time>
      </trkpt>
      <trkpt lat="42.83091" lon="0.55219">
        <ele>1165.051</ele>
        <time>2021-03-21T08:20:05Z</time>
      </trkpt>
      <trkpt lat="42.83089" lon="0.55219">
        <ele>1165.336</ele>
        <time>2021-03-21T08:20:07Z</time>
      </trkpt>
      <trkpt lat="42.83087" lon="0.55219">
        <ele>1165.986</ele>
        <time>2021-03-21T08:20:09Z</time>
      </trkpt>
      <trkpt lat="42.83085" lon="0.5522">
        <ele>1166.295</ele>
        <time>2021-03-21T08:20:11Z</time>
      </trkpt>
      <trkpt lat="42.83083" lon="0.5522">
        <ele>1166.284</ele>
        <time>2021-03-21T08:20:13Z</time>
      </trkpt>
      <trkpt lat="42.83081" lon="0.5522">
        <ele>1167.385</ele>
        <time>2021-03-21T08:20:15Z</time>
      </trkpt>
      <trkpt lat="42.83079" lon="0.55221">
        <ele>1166.631</ele>
        <time>2021-03-21T08:20:17Z</time>
      </trkpt>
      <trkpt lat="42.83078" lon="0.55222">
        <ele>1166.288</ele>
        <time>2021-03-21T08:20:19Z</time>
      </trkpt>
      <trkpt lat="42.83076" lon="0.55222">
        <ele>1166.129</ele>
        <time>2021-03-21T08:20:21Z</time>
      </trkpt>
      <trkpt lat="42.83074" lon="0.55222">
        <ele>1166.461</ele>
        <time>2021-03-21T08:20:23Z</time>
      </trkpt>
      <trkpt lat="42.83072" lon="0.55222">
        <ele>1167.703</ele>
        <time>2021-03-21T08:20:25Z</time>
      </trkpt>
      <trkpt lat="42.83071" lon="0.55223">
        <ele>1168.527</ele>
        <time>2021-03-21T08:20:27Z</time>
      </trkpt>
      <trkpt lat="42.83069" lon="0.55223">
        <ele>1168.573</ele>
        <time>2021-03-21T08:20:29Z</time>
      </trkpt>
      <trkpt lat="42.83067" lon="0.55224">
        <ele>1168.959</ele>
        <time>2021-03-21T08:20:31Z</time>
      </trkpt>
      <trkpt lat="42.83065" lon="0.55224">
        <ele>1169.766</ele>
        <time>2021-03-21T08:20:33Z</time>
      </trkpt>
      <trkpt lat="42.83064" lon="0.55224">
        <ele>1169.955</ele>
        <time>2021-03-21T08:20:35Z</time>
      </trkpt>
      <trkpt lat="42.83062" lon="0.55224">
        <ele>1170.129</ele>
        <time>2021-03-21T08:20:37Z</time>
      </trkpt>
      <trkpt lat="42.8306" lon="0.55225">
        <ele>1171.029</ele>
        <time>2021-03-21T08:20:39Z</time>
      </trkpt>
      <trkpt lat="42.83058" lon="0.55226">
        <ele>1171.032</ele>
        <time>2021-03-21T08:20:41Z</time>
      </trkpt>
      <trkpt lat="42.83057" lon="0.55228">
        <ele>1171.283</ele>
        <time>2021-03-21T08:20:43Z</time>
      </trkpt>
      <trkpt lat="42.83057" lon="0.5523">
        <ele>1171.544</ele>
        <time>2021-03-21T08:20:45Z</time>
      </trkpt>
      <trkpt lat="42.83056" lon="0.55233">
        <ele>1172.674</ele>
        <time>2021-03-21T08:20:47Z</time>
      </trkpt>
      <trkpt lat="42.83057" lon="0.55234">
        <ele>1173.608</ele>
        <time>2021-03-21T08:20:49Z</time>
      </trkpt>
      <trkpt lat="42.83059" lon="0.55235">
        <ele>1173.726</ele>
        <time>2021-03-21T08:20:51Z</time>
      </trkpt>
      <trkpt lat="42.8306" lon="0.55236">
        <ele>1173.798</ele>
        <time>2021-03-21T08:20:53Z</time>
      </trkpt>
      <trkpt lat="42.83062" lon="0.55236">
        <ele>1174.602</ele>
        <time>2021-03-21T08:20:55Z</time>
      </trkpt>
      <trkpt lat="42.83063" lon="0.55236">
        <ele>1174.477</ele>
        <time>2021-03-21T08:20:57Z</time>
      </trkpt>
      <trkpt lat="42.83065" lon="0.55235">
        <ele>1174.487</ele>
        <time>2021-03-21T08:20:59Z</time>
      </trkpt>
      <trkpt lat="42.83066" lon="0.55236">
        <ele>1174.729</ele>
        <time>2021-03-21T08:21:01Z</time>
      </trkpt>
      <trkpt lat="42.83068" lon="0.55236">
        <ele>1175.175</ele>
        <time>2021-03-21T08:21:03Z</time>
      </trkpt>
      <trkpt lat="42.83069" lon="0.55236">
        <ele>1175.001</ele>
        <time>2021-03-21T08:21:05Z</time>
      </trkpt>
      <trkpt lat="42.83071" lon="0.55235">
        <ele>1175.436</ele>
        <time>2021-03-21T08:21:07Z</time>
      </trkpt>
      <trkpt lat="42.83072" lon="0.55235">
        <ele>1175.649</ele>
        <time>2021-03-21T08:21:09Z</time>
      </trkpt>
      <trkpt lat="42.83074" lon="0.55235">
        <ele>1176.218</ele>
        <time>2021-03-21T08:21:11Z</time>
      </trkpt>
      <trkpt lat="42.83076" lon="0.55235">
        <ele>1175.411</ele>
        <time>2021-03-21T08:21:13Z</time>
      </trkpt>
      <trkpt lat="42.83078" lon="0.55235">
        <ele>1175.865</ele>
        <time>2021-03-21T08:21:15Z</time>
      </trkpt>
      <trkpt lat="42.8308" lon="0.55236">
        <ele>1176.188</ele>
        <time>2021-03-21T08:21:17Z</time>
      </trkpt>
      <trkpt lat="42.83082" lon="0.55235">
        <ele>1176.371</ele>
        <time>2021-03-21T08:21:19Z</time>
      </trkpt>
      <trkpt lat="42.83084" lon="0.55236">
        <ele>1176.771</ele>
        <time>2021-03-21T08:21:21Z</time>
      </trkpt>
      <trkpt lat="42.83086" lon="0.55236">
        <ele>1177.034</ele>
        <time>2021-03-21T08:21:23Z</time>
      </trkpt>
      <trkpt lat="42.83088" lon="0.55236">
        <ele>1177.769</ele>
        <time>2021-03-21T08:21:25Z</time>
      </trkpt>
      <trkpt lat="42.8309" lon="0.55236">
        <ele>1178.453</ele>
        <time>2021-03-21T08:21:27Z</time>
      </trkpt>
      <trkpt lat="42.83091" lon="0.55237">
        <ele>1178.568</ele>
        <time>2021-03-21T08:21:29Z</time>
      </trkpt>
      <trkpt lat="42.83093" lon="0.55238">
        <ele>1178.866</ele>
        <time>2021-03-21T08:21:31Z</time>
      </trkpt>
      <trkpt lat="42.83096" lon="0.55238">
        <ele>1179.095</ele>
        <time>2021-03-21T08:21:33Z</time>
      </trkpt>
      <trkpt lat="42.83097" lon="0.55239">
        <ele>1179.29</ele>
        <time>2021-03-21T08:21:35Z</time>
      </trkpt>
      <trkpt lat="42.831" lon="0.5524">
        <ele>1179.928</ele>
        <time>2021-03-21T08:21:37Z</time>
      </trkpt>
      <trkpt lat="42.83101" lon="0.5524">
        <ele>1179.949</ele>
        <time>2021-03-21T08:21:39Z</time>
      </trkpt>
      <trkpt lat="42.83103" lon="0.55241">
        <ele>1179.615</ele>
        <time>2021-03-21T08:21:41Z</time>
      </trkpt>
      <trkpt lat="42.83105" lon="0.55241">
        <ele>1180.578</ele>
        <time>2021-03-21T08:21:43Z</time>
      </trkpt>
      <trkpt lat="42.83107" lon="0.55242">
        <ele>1180.982</ele>
        <time>2021-03-21T08:21:45Z</time>
      </trkpt>
      <trkpt lat="42.83109" lon="0.55243">
        <ele>1181.461</ele>
        <time>2021-03-21T08:21:47Z</time>
      </trkpt>
      <trkpt lat="42.83111" lon="0.55243">
        <ele>1181.634</ele>
        <time>2021-03-21T08:21:49Z</time>
      </trkpt>
      <trkpt lat="42.83113" lon="0.55244">
        <ele>1182.765</ele>
        <time>2021-03-21T08:21:51Z</time>
      </trkpt>
      <trkpt lat="42.83115" lon="0.55245">
        <ele>1182.502</ele>
        <time>2021-03-21T08:21:53Z</time>
      </trkpt>
      <trkpt lat="42.83116" lon="0.55245">
        <ele>1182.522</ele>
        <time>2021-03-21T08:21:55Z</time>
      </trkpt>
      <trkpt lat="42.83118" lon="0.55246">
        <ele>1182.736</ele>
        <time>2021-03-21T08:21:57Z</time>
      </trkpt>
      <trkpt lat="42.8312" lon="0.55246">
        <ele>1183.047</ele>
        <time>2021-03-21T08:21:59Z</time>
      </trkpt>
      <trkpt lat="42.83122" lon="0.55247">
        <ele>1183.392</ele>
        <time>2021-03-21T08:22:01Z</time>
      </trkpt>
      <trkpt lat="42.83124" lon="0.55247">
        <ele>1183.831</ele>
        <time>2021-03-21T08:22:03Z</time>
      </trkpt>
      <trkpt lat="42.83126" lon="0.55248">
        <ele>1184.449</ele>
        <time>2021-03-21T08:22:05Z</time>
      </trkpt>
      <trkpt lat="42.83128" lon="0.55248">
        <ele>1184.481</ele>
        <time>2021-03-21T08:22:07Z</time>
      </trkpt>
      <trkpt lat="42.8313" lon="0.55249">
        <ele>1184.768</ele>
        <time>2021-03-21T08:22:09Z</time>
      </trkpt>
      <trkpt lat="42.83131" lon="0.5525">
        <ele>1184.342</ele>
        <time>2021-03-21T08:22:11Z</time>
      </trkpt>
      <trkpt lat="42.83133" lon="0.55251">
        <ele>1184.532</ele>
        <time>2021-03-21T08:22:13Z</time>
      </trkpt>
      <trkpt lat="42.83135" lon="0.55252">
        <ele>1184.177</ele>
        <time>2021-03-21T08:22:15Z</time>
      </trkpt>
      <trkpt lat="42.83136" lon="0.55252">
        <ele>1184.763</ele>
        <time>2021-03-21T08:22:17Z</time>
      </trkpt>
      <trkpt lat="42.83138" lon="0.55253">
        <ele>1184.811</ele>
        <time>2021-03-21T08:22:19Z</time>
      </trkpt>
      <trkpt lat="42.8314" lon="0.55254">
        <ele>1184.455</ele>
        <time>2021-03-21T08:22:21Z</time>
      </trkpt>
      <trkpt lat="42.83142" lon="0.55255">
        <ele>1184.166</ele>
        <time>2021-03-21T08:22:23Z</time>
      </trkpt>
      <trkpt lat="42.83144" lon="0.55256">
        <ele>1184.546</ele>
        <time>2021-03-21T08:22:25Z</time>
      </trkpt>
      <trkpt lat="42.83146" lon="0.55257">
        <ele>1184.657</ele>
        <time>2021-03-21T08:22:27Z</time>
      </trkpt>
      <trkpt lat="42.83147" lon="0.55258">
        <ele>1184.778</ele>
        <time>2021-03-21T08:22:29Z</time>
      </trkpt>
      <trkpt lat="42.83149" lon="0.55259">
        <ele>1185.842</ele>
        <time>2021-03-21T08:22:31Z</time>
      </trkpt>
      <trkpt lat="42.83151" lon="0.5526">
        <ele>1186.024</ele>
        <time>2021-03-21T08:22:33Z</time>
      </trkpt>
      <trkpt lat="42.83153" lon="0.55261">
        <ele>1186.328</ele>
        <time>2021-03-21T08:22:35Z</time>
      </trkpt>
      <trkpt lat="42.83155" lon="0.55262">
        <ele>1186.201</ele>
        <time>2021-03-21T08:22:37Z</time>
      </trkpt>
      <trkpt lat="42.83156" lon="0.55263">
        <ele>1186.925</ele>
        <time>2021-03-21T08:22:39Z</time>
      </trkpt>
      <trkpt lat="42.83158" lon="0.55264">
        <ele>1186.822</ele>
        <time>2021-03-21T08:22:41Z</time>
      </trkpt>
      <trkpt lat="42.8316" lon="0.55265">
        <ele>1187.917</ele>
        <time>2021-03-21T08:22:43Z</time>
      </trkpt>
      <trkpt lat="42.83162" lon="0.55266">
        <ele>1188.399</ele>
        <time>2021-03-21T08:22:45Z</time>
      </trkpt>
      <trkpt lat="42.83164" lon="0.55267">
        <ele>1188.606</ele>
        <time>2021-03-21T08:22:47Z</time>
      </trkpt>
      <trkpt lat="42.83166" lon="0.55268">
        <ele>1188.999</ele>
        <time>2021-03-21T08:22:49Z</time>
      </trkpt>
      <trkpt lat="42.83168" lon="0.55269">
        <ele>1189.828</ele>
        <time>2021-03-21T08:22:51Z</time>
      </trkpt>
      <trkpt lat="42.8317" lon="0.5527">
        <ele>1190.288</ele>
        <time>2021-03-21T08:22:53Z</time>
      </trkpt>
      <trkpt lat="42.83172" lon="0.55271">
        <ele>1190.784</ele>
        <time>2021-03-21T08:22:55Z</time>
      </trkpt>
      <trkpt lat="42.83174" lon="0.55271">
        <ele>1191.49</ele>
        <time>2021-03-21T08:22:57Z</time>
      </trkpt>
      <trkpt lat="42.83176" lon="0.55272">
        <ele>1192.725</ele>
        <time>2021-03-21T08:22:59Z</time>
      </trkpt>
      <trkpt lat="42.83178" lon="0.55273">
        <ele>1192.955</ele>
        <time>2021-03-21T08:23:01Z</time>
      </trkpt>
      <trkpt lat="42.83181" lon="0.55274">
        <ele>1194.549</ele>
        <time>2021-03-21T08:23:04Z</time>
      </trkpt>
      <trkpt lat="42.83183" lon="0.55274">
        <ele>1195.073</ele>
        <time>2021-03-21T08:23:06Z</time>
      </trkpt>
      <trkpt lat="42.83185" lon="0.55275">
        <ele>1195.534</ele>
        <time>2021-03-21T08:23:08Z</time>
      </trkpt>
      <trkpt lat="42.83187" lon="0.55275">
        <ele>1194.867</ele>
        <time>2021-03-21T08:23:10Z</time>
      </trkpt>
      <trkpt lat="42.83189" lon="0.55276">
        <ele>1195.01</ele>
        <time>2021-03-21T08:23:12Z</time>
      </trkpt>
      <trkpt lat="42.83191" lon="0.55277">
        <ele>1195.953</ele>
        <time>2021-03-21T08:23:14Z</time>
      </trkpt>
      <trkpt lat="42.83193" lon="0.55278">
        <ele>1196.64</ele>
        <time>2021-03-21T08:23:16Z</time>
      </trkpt>
      <trkpt lat="42.83195" lon="0.55279">
        <ele>1197.321</ele>
        <time>2021-03-21T08:23:18Z</time>
      </trkpt>
      <trkpt lat="42.83197" lon="0.55279">
        <ele>1197.576</ele>
        <time>2021-03-21T08:23:20Z</time>
      </trkpt>
      <trkpt lat="42.83199" lon="0.5528">
        <ele>1198.236</ele>
        <time>2021-03-21T08:23:22Z</time>
      </trkpt>
      <trkpt lat="42.83201" lon="0.5528">
        <ele>1198.519</ele>
        <time>2021-03-21T08:23:24Z</time>
      </trkpt>
      <trkpt lat="42.83203" lon="0.5528">
        <ele>1198.251</ele>
        <time>2021-03-21T08:23:26Z</time>
      </trkpt>
      <trkpt lat="42.83205" lon="0.55281">
        <ele>1198.396</ele>
        <time>2021-03-21T08:23:28Z</time>
      </trkpt>
      <trkpt lat="42.83207" lon="0.55281">
        <ele>1198.202</ele>
        <time>2021-03-21T08:23:30Z</time>
      </trkpt>
      <trkpt lat="42.83209" lon="0.55282">
        <ele>1197.954</ele>
        <time>2021-03-21T08:23:32Z</time>
      </trkpt>
      <trkpt lat="42.8321" lon="0.55281">
        <ele>1198.218</ele>
        <time>2021-03-21T08:23:34Z</time>
      </trkpt>
      <trkpt lat="42.83212" lon="0.55281">
        <ele>1198.391</ele>
        <time>2021-03-21T08:23:36Z</time>
      </trkpt>
      <trkpt lat="42.83214" lon="0.55282">
        <ele>1198.144</ele>
        <time>2021-03-21T08:23:38Z</time>
      </trkpt>
      <trkpt lat="42.83216" lon="0.55282">
        <ele>1198.341</ele>
        <time>2021-03-21T08:23:40Z</time>
      </trkpt>
      <trkpt lat="42.83218" lon="0.55282">
        <ele>1198.538</ele>
        <time>2021-03-21T08:23:42Z</time>
      </trkpt>
      <trkpt lat="42.8322" lon="0.55282">
        <ele>1199.457</ele>
        <time>2021-03-21T08:23:44Z</time>
      </trkpt>
      <trkpt lat="42.83222" lon="0.55283">
        <ele>1199.258</ele>
        <time>2021-03-21T08:23:46Z</time>
      </trkpt>
      <trkpt lat="42.83224" lon="0.55283">
        <ele>1199.1</ele>
        <time>2021-03-21T08:23:48Z</time>
      </trkpt>
      <trkpt lat="42.83226" lon="0.55283">
        <ele>1199.712</ele>
        <time>2021-03-21T08:23:50Z</time>
      </trkpt>
      <trkpt lat="42.83227" lon="0.55283">
        <ele>1200.025</ele>
        <time>2021-03-21T08:23:51Z</time>
      </trkpt>
      <trkpt lat="42.83229" lon="0.55284">
        <ele>1199.063</ele>
        <time>2021-03-21T08:23:54Z</time>
      </trkpt>
      <trkpt lat="42.83232" lon="0.55284">
        <ele>1199.454</ele>
        <time>2021-03-21T08:23:56Z</time>
      </trkpt>
      <trkpt lat="42.83234" lon="0.55284">
        <ele>1200.274</ele>
        <time>2021-03-21T08:23:58Z</time>
      </trkpt>
      <trkpt lat="42.83236" lon="0.55285">
        <ele>1201.388</ele>
        <time>2021-03-21T08:24:00Z</time>
      </trkpt>
      <trkpt lat="42.83238" lon="0.55285">
        <ele>1201.565</ele>
        <time>2021-03-21T08:24:02Z</time>
      </trkpt>
      <trkpt lat="42.8324" lon="0.55285">
        <ele>1201.496</ele>
        <time>2021-03-21T08:24:04Z</time>
      </trkpt>
      <trkpt lat="42.83242" lon="0.55285">
        <ele>1201.379</ele>
        <time>2021-03-21T08:24:06Z</time>
      </trkpt>
      <trkpt lat="42.83244" lon="0.55286">
        <ele>1201.766</ele>
        <time>2021-03-21T08:24:08Z</time>
      </trkpt>
      <trkpt lat="42.83246" lon="0.55286">
        <ele>1202.512</ele>
        <time>2021-03-21T08:24:10Z</time>
      </trkpt>
      <trkpt lat="42.83248" lon="0.55286">
        <ele>1203.561</ele>
        <time>2021-03-21T08:24:12Z</time>
      </trkpt>
      <trkpt lat="42.8325" lon="0.55287">
        <ele>1204.77</ele>
        <time>2021-03-21T08:24:14Z</time>
      </trkpt>
      <trkpt lat="42.83253" lon="0.55287">
        <ele>1205.303</ele>
        <time>2021-03-21T08:24:16Z</time>
      </trkpt>
      <trkpt lat="42.83255" lon="0.55287">
        <ele>1206.324</ele>
        <time>2021-03-21T08:24:18Z</time>
      </trkpt>
      <trkpt lat="42.83257" lon="0.55287">
        <ele>1205.543</ele>
        <time>2021-03-21T08:24:20Z</time>
      </trkpt>
      <trkpt lat="42.83259" lon="0.55287">
        <ele>1206.104</ele>
        <time>2021-03-21T08:24:22Z</time>
      </trkpt>
      <trkpt lat="42.83261" lon="0.55288">
        <ele>1206.582</ele>
        <time>2021-03-21T08:24:24Z</time>
      </trkpt>
      <trkpt lat="42.83263" lon="0.55288">
        <ele>1207.387</ele>
        <time>2021-03-21T08:24:26Z</time>
      </trkpt>
      <trkpt lat="42.83265" lon="0.55288">
        <ele>1207.306</ele>
        <time>2021-03-21T08:24:28Z</time>
      </trkpt>
      <trkpt lat="42.83267" lon="0.55288">
        <ele>1206.806</ele>
        <time>2021-03-21T08:24:30Z</time>
      </trkpt>
      <trkpt lat="42.83269" lon="0.55289">
        <ele>1206.744</ele>
        <time>2021-03-21T08:24:32Z</time>
      </trkpt>
      <trkpt lat="42.83271" lon="0.55289">
        <ele>1207.345</ele>
        <time>2021-03-21T08:24:34Z</time>
      </trkpt>
      <trkpt lat="42.83273" lon="0.5529">
        <ele>1207.51</ele>
        <time>2021-03-21T08:24:36Z</time>
      </trkpt>
      <trkpt lat="42.83275" lon="0.5529">
        <ele>1207.765</ele>
        <time>2021-03-21T08:24:38Z</time>
      </trkpt>
      <trkpt lat="42.83277" lon="0.5529">
        <ele>1208.134</ele>
        <time>2021-03-21T08:24:40Z</time>
      </trkpt>
      <trkpt lat="42.83278" lon="0.5529">
        <ele>1208.959</ele>
        <time>2021-03-21T08:24:42Z</time>
      </trkpt>
      <trkpt lat="42.8328" lon="0.55291">
        <ele>1208.844</ele>
        <time>2021-03-21T08:24:44Z</time>
      </trkpt>
      <trkpt lat="42.83282" lon="0.55291">
        <ele>1209.503</ele>
        <time>2021-03-21T08:24:46Z</time>
      </trkpt>
      <trkpt lat="42.83284" lon="0.55291">
        <ele>1209.57</ele>
        <time>2021-03-21T08:24:48Z</time>
      </trkpt>
      <trkpt lat="42.83286" lon="0.55293">
        <ele>1209.247</ele>
        <time>2021-03-21T08:24:50Z</time>
      </trkpt>
      <trkpt lat="42.83287" lon="0.55293">
        <ele>1209.522</ele>
        <time>2021-03-21T08:24:52Z</time>
      </trkpt>
      <trkpt lat="42.83289" lon="0.55294">
        <ele>1209.683</ele>
        <time>2021-03-21T08:24:54Z</time>
      </trkpt>
      <trkpt lat="42.83291" lon="0.55295">
        <ele>1210.745</ele>
        <time>2021-03-21T08:24:56Z</time>
      </trkpt>
      <trkpt lat="42.83293" lon="0.55295">
        <ele>1211.114</ele>
        <time>2021-03-21T08:24:58Z</time>
      </trkpt>
      <trkpt lat="42.83294" lon="0.55296">
        <ele>1210.844</ele>
        <time>2021-03-21T08:25:00Z</time>
      </trkpt>
      <trkpt lat="42.83296" lon="0.55297">
        <ele>1211.69</ele>
        <time>2021-03-21T08:25:02Z</time>
      </trkpt>
      <trkpt lat="42.83298" lon="0.55297">
        <ele>1211.573</ele>
        <time>2021-03-21T08:25:04Z</time>
      </trkpt>
      <trkpt lat="42.833" lon="0.55298">
        <ele>1211.625</ele>
        <time>2021-03-21T08:25:06Z</time>
      </trkpt>
      <trkpt lat="42.83301" lon="0.55298">
        <ele>1212.256</ele>
        <time>2021-03-21T08:25:08Z</time>
      </trkpt>
      <trkpt lat="42.83302" lon="0.55299">
        <ele>1211.603</ele>
        <time>2021-03-21T08:25:10Z</time>
      </trkpt>
      <trkpt lat="42.83304" lon="0.553">
        <ele>1210.695</ele>
        <time>2021-03-21T08:25:12Z</time>
      </trkpt>
      <trkpt lat="42.83306" lon="0.55301">
        <ele>1211.145</ele>
        <time>2021-03-21T08:25:14Z</time>
      </trkpt>
      <trkpt lat="42.83308" lon="0.55301">
        <ele>1211.7</ele>
        <time>2021-03-21T08:25:16Z</time>
      </trkpt>
      <trkpt lat="42.8331" lon="0.55302">
        <ele>1212.73</ele>
        <time>2021-03-21T08:25:18Z</time>
      </trkpt>
      <trkpt lat="42.83312" lon="0.55302">
        <ele>1214.342</ele>
        <time>2021-03-21T08:25:20Z</time>
      </trkpt>
      <trkpt lat="42.83314" lon="0.55303">
        <ele>1214.405</ele>
        <time>2021-03-21T08:25:22Z</time>
      </trkpt>
      <trkpt lat="42.83315" lon="0.55304">
        <ele>1215.242</ele>
        <time>2021-03-21T08:25:24Z</time>
      </trkpt>
      <trkpt lat="42.83317" lon="0.55304">
        <ele>1214.786</ele>
        <time>2021-03-21T08:25:26Z</time>
      </trkpt>
      <trkpt lat="42.83318" lon="0.55305">
        <ele>1214.46</ele>
        <time>2021-03-21T08:25:28Z</time>
      </trkpt>
      <trkpt lat="42.8332" lon="0.55306">
        <ele>1214.46</ele>
        <time>2021-03-21T08:25:30Z</time>
      </trkpt>
      <trkpt lat="42.83321" lon="0.55306">
        <ele>1214.739</ele>
        <time>2021-03-21T08:25:32Z</time>
      </trkpt>
      <trkpt lat="42.83323" lon="0.55307">
        <ele>1215.438</ele>
        <time>2021-03-21T08:25:34Z</time>
      </trkpt>
      <trkpt lat="42.83325" lon="0.55308">
        <ele>1215.369</ele>
        <time>2021-03-21T08:25:36Z</time>
      </trkpt>
      <trkpt lat="42.83327" lon="0.55308">
        <ele>1215.349</ele>
        <time>2021-03-21T08:25:38Z</time>
      </trkpt>
      <trkpt lat="42.83328" lon="0.55308">
        <ele>1215.693</ele>
        <time>2021-03-21T08:25:40Z</time>
      </trkpt>
      <trkpt lat="42.8333" lon="0.55309">
        <ele>1216.453</ele>
        <time>2021-03-21T08:25:42Z</time>
      </trkpt>
      <trkpt lat="42.83332" lon="0.5531">
        <ele>1216.591</ele>
        <time>2021-03-21T08:25:44Z</time>
      </trkpt>
      <trkpt lat="42.83334" lon="0.5531">
        <ele>1217.087</ele>
        <time>2021-03-21T08:25:46Z</time>
      </trkpt>
      <trkpt lat="42.83335" lon="0.55311">
        <ele>1217.161</ele>
        <time>2021-03-21T08:25:48Z</time>
      </trkpt>
      <trkpt lat="42.83337" lon="0.55311">
        <ele>1217.069</ele>
        <time>2021-03-21T08:25:50Z</time>
      </trkpt>
      <trkpt lat="42.83338" lon="0.55311">
        <ele>1217.4</ele>
        <time>2021-03-21T08:25:52Z</time>
      </trkpt>
      <trkpt lat="42.8334" lon="0.55312">
        <ele>1217.7</ele>
        <time>2021-03-21T08:25:54Z</time>
      </trkpt>
      <trkpt lat="42.83342" lon="0.55313">
        <ele>1217.94</ele>
        <time>2021-03-21T08:25:56Z</time>
      </trkpt>
      <trkpt lat="42.83344" lon="0.55314">
        <ele>1217.743</ele>
        <time>2021-03-21T08:25:58Z</time>
      </trkpt>
      <trkpt lat="42.83346" lon="0.55315">
        <ele>1218.494</ele>
        <time>2021-03-21T08:26:00Z</time>
      </trkpt>
      <trkpt lat="42.83348" lon="0.55315">
        <ele>1219.35</ele>
        <time>2021-03-21T08:26:02Z</time>
      </trkpt>
      <trkpt lat="42.8335" lon="0.55316">
        <ele>1219.564</ele>
        <time>2021-03-21T08:26:04Z</time>
      </trkpt>
      <trkpt lat="42.83351" lon="0.55318">
        <ele>1219.553</ele>
        <time>2021-03-21T08:26:06Z</time>
      </trkpt>
      <trkpt lat="42.83353" lon="0.55318">
        <ele>1219.521</ele>
        <time>2021-03-21T08:26:08Z</time>
      </trkpt>
      <trkpt lat="42.83355" lon="0.55319">
        <ele>1219.947</ele>
        <time>2021-03-21T08:26:10Z</time>
      </trkpt>
      <trkpt lat="42.83357" lon="0.5532">
        <ele>1220.311</ele>
        <time>2021-03-21T08:26:12Z</time>
      </trkpt>
      <trkpt lat="42.83359" lon="0.5532">
        <ele>1220.436</ele>
        <time>2021-03-21T08:26:14Z</time>
      </trkpt>
      <trkpt lat="42.8336" lon="0.5532">
        <ele>1220.406</ele>
        <time>2021-03-21T08:26:16Z</time>
      </trkpt>
      <trkpt lat="42.83362" lon="0.55321">
        <ele>1220.678</ele>
        <time>2021-03-21T08:26:18Z</time>
      </trkpt>
      <trkpt lat="42.83364" lon="0.55321">
        <ele>1221.106</ele>
        <time>2021-03-21T08:26:20Z</time>
      </trkpt>
      <trkpt lat="42.83366" lon="0.55322">
        <ele>1221.871</ele>
        <time>2021-03-21T08:26:22Z</time>
      </trkpt>
      <trkpt lat="42.83368" lon="0.55322">
        <ele>1221.731</ele>
        <time>2021-03-21T08:26:24Z</time>
      </trkpt>
      <trkpt lat="42.8337" lon="0.55323">
        <ele>1222.12</ele>
        <time>2021-03-21T08:26:26Z</time>
      </trkpt>
      <trkpt lat="42.83372" lon="0.55323">
        <ele>1222.104</ele>
        <time>2021-03-21T08:26:28Z</time>
      </trkpt>
      <trkpt lat="42.83374" lon="0.55324">
        <ele>1222.659</ele>
        <time>2021-03-21T08:26:30Z</time>
      </trkpt>
      <trkpt lat="42.83376" lon="0.55325">
        <ele>1223.417</ele>
        <time>2021-03-21T08:26:32Z</time>
      </trkpt>
      <trkpt lat="42.83378" lon="0.55326">
        <ele>1222.639</ele>
        <time>2021-03-21T08:26:34Z</time>
      </trkpt>
      <trkpt lat="42.8338" lon="0.55327">
        <ele>1222.597</ele>
        <time>2021-03-21T08:26:36Z</time>
      </trkpt>
      <trkpt lat="42.83382" lon="0.55327">
        <ele>1223.234</ele>
        <time>2021-03-21T08:26:38Z</time>
      </trkpt>
      <trkpt lat="42.83384" lon="0.55328">
        <ele>1224.589</ele>
        <time>2021-03-21T08:26:40Z</time>
      </trkpt>
      <trkpt lat="42.83386" lon="0.55328">
        <ele>1224.758</ele>
        <time>2021-03-21T08:26:42Z</time>
      </trkpt>
      <trkpt lat="42.83388" lon="0.55328">
        <ele>1225.171</ele>
        <time>2021-03-21T08:26:44Z</time>
      </trkpt>
      <trkpt lat="42.8339" lon="0.55329">
        <ele>1225.13</ele>
        <time>2021-03-21T08:26:46Z</time>
      </trkpt>
      <trkpt lat="42.83392" lon="0.55329">
        <ele>1225.116</ele>
        <time>2021-03-21T08:26:48Z</time>
      </trkpt>
      <trkpt lat="42.83394" lon="0.5533">
        <ele>1224.785</ele>
        <time>2021-03-21T08:26:50Z</time>
      </trkpt>
      <trkpt lat="42.83396" lon="0.55331">
        <ele>1225.22</ele>
        <time>2021-03-21T08:26:52Z</time>
      </trkpt>
      <trkpt lat="42.83397" lon="0.55331">
        <ele>1224.615</ele>
        <time>2021-03-21T08:26:54Z</time>
      </trkpt>
      <trkpt lat="42.83399" lon="0.55333">
        <ele>1225.137</ele>
        <time>2021-03-21T08:26:56Z</time>
      </trkpt>
      <trkpt lat="42.83401" lon="0.55333">
        <ele>1225.422</ele>
        <time>2021-03-21T08:26:58Z</time>
      </trkpt>
      <trkpt lat="42.83403" lon="0.55334">
        <ele>1225.859</ele>
        <time>2021-03-21T08:27:00Z</time>
      </trkpt>
      <trkpt lat="42.83405" lon="0.55334">
        <ele>1226.076</ele>
        <time>2021-03-21T08:27:02Z</time>
      </trkpt>
      <trkpt lat="42.83407" lon="0.55335">
        <ele>1226.369</ele>
        <time>2021-03-21T08:27:04Z</time>
      </trkpt>
      <trkpt lat="42.83409" lon="0.55336">
        <ele>1227.276</ele>
        <time>2021-03-21T08:27:06Z</time>
      </trkpt>
      <trkpt lat="42.83411" lon="0.55336">
        <ele>1228.434</ele>
        <time>2021-03-21T08:27:08Z</time>
      </trkpt>
      <trkpt lat="42.83413" lon="0.55336">
        <ele>1229.259</ele>
        <time>2021-03-21T08:27:10Z</time>
      </trkpt>
      <trkpt lat="42.83416" lon="0.55337">
        <ele>1229.155</ele>
        <time>2021-03-21T08:27:12Z</time>
      </trkpt>
      <trkpt lat="42.83417" lon="0.55338">
        <ele>1229.843</ele>
        <time>2021-03-21T08:27:14Z</time>
      </trkpt>
      <trkpt lat="42.83419" lon="0.55338">
        <ele>1230.69</ele>
        <time>2021-03-21T08:27:16Z</time>
      </trkpt>
      <trkpt lat="42.83421" lon="0.55339">
        <ele>1230.637</ele>
        <time>2021-03-21T08:27:18Z</time>
      </trkpt>
      <trkpt lat="42.83423" lon="0.5534">
        <ele>1230.072</ele>
        <time>2021-03-21T08:27:20Z</time>
      </trkpt>
      <trkpt lat="42.83425" lon="0.55341">
        <ele>1229.952</ele>
        <time>2021-03-21T08:27:22Z</time>
      </trkpt>
      <trkpt lat="42.83428" lon="0.55341">
        <ele>1229.986</ele>
        <time>2021-03-21T08:27:24Z</time>
      </trkpt>
      <trkpt lat="42.8343" lon="0.55341">
        <ele>1230.736</ele>
        <time>2021-03-21T08:27:26Z</time>
      </trkpt>
      <trkpt lat="42.83432" lon="0.55342">
        <ele>1230.293</ele>
        <time>2021-03-21T08:27:28Z</time>
      </trkpt>
      <trkpt lat="42.83434" lon="0.55343">
        <ele>1230.471</ele>
        <time>2021-03-21T08:27:30Z</time>
      </trkpt>
      <trkpt lat="42.83436" lon="0.55344">
        <ele>1230.369</ele>
        <time>2021-03-21T08:27:32Z</time>
      </trkpt>
      <trkpt lat="42.83438" lon="0.55344">
        <ele>1232.004</ele>
        <time>2021-03-21T08:27:34Z</time>
      </trkpt>
      <trkpt lat="42.8344" lon="0.55346">
        <ele>1231.274</ele>
        <time>2021-03-21T08:27:36Z</time>
      </trkpt>
      <trkpt lat="42.83442" lon="0.55347">
        <ele>1230.386</ele>
        <time>2021-03-21T08:27:38Z</time>
      </trkpt>
      <trkpt lat="42.83444" lon="0.55348">
        <ele>1230.339</ele>
        <time>2021-03-21T08:27:40Z</time>
      </trkpt>
      <trkpt lat="42.83446" lon="0.55348">
        <ele>1230.483</ele>
        <time>2021-03-21T08:27:42Z</time>
      </trkpt>
      <trkpt lat="42.83448" lon="0.5535">
        <ele>1230.512</ele>
        <time>2021-03-21T08:27:44Z</time>
      </trkpt>
      <trkpt lat="42.8345" lon="0.55351">
        <ele>1229.93</ele>
        <time>2021-03-21T08:27:46Z</time>
      </trkpt>
      <trkpt lat="42.83451" lon="0.55352">
        <ele>1230.529</ele>
        <time>2021-03-21T08:27:48Z</time>
      </trkpt>
      <trkpt lat="42.83453" lon="0.55352">
        <ele>1230.907</ele>
        <time>2021-03-21T08:27:50Z</time>
      </trkpt>
      <trkpt lat="42.83455" lon="0.55353">
        <ele>1230.821</ele>
        <time>2021-03-21T08:27:52Z</time>
      </trkpt>
      <trkpt lat="42.83457" lon="0.55355">
        <ele>1230.537</ele>
        <time>2021-03-21T08:27:54Z</time>
      </trkpt>
      <trkpt lat="42.8346" lon="0.55356">
        <ele>1231.279</ele>
        <time>2021-03-21T08:27:56Z</time>
      </trkpt>
      <trkpt lat="42.83461" lon="0.55357">
        <ele>1231.131</ele>
        <time>2021-03-21T08:27:58Z</time>
      </trkpt>
      <trkpt lat="42.83463" lon="0.55359">
        <ele>1231.466</ele>
        <time>2021-03-21T08:28:00Z</time>
      </trkpt>
      <trkpt lat="42.83465" lon="0.5536">
        <ele>1231.554</ele>
        <time>2021-03-21T08:28:02Z</time>
      </trkpt>
      <trkpt lat="42.83467" lon="0.55362">
        <ele>1232.414</ele>
        <time>2021-03-21T08:28:04Z</time>
      </trkpt>
      <trkpt lat="42.83468" lon="0.55364">
        <ele>1232.522</ele>
        <time>2021-03-21T08:28:06Z</time>
      </trkpt>
      <trkpt lat="42.8347" lon="0.55367">
        <ele>1233.344</ele>
        <time>2021-03-21T08:28:08Z</time>
      </trkpt>
      <trkpt lat="42.83472" lon="0.55369">
        <ele>1233.49</ele>
        <time>2021-03-21T08:28:10Z</time>
      </trkpt>
      <trkpt lat="42.83473" lon="0.55371">
        <ele>1233.864</ele>
        <time>2021-03-21T08:28:12Z</time>
      </trkpt>
      <trkpt lat="42.83475" lon="0.55373">
        <ele>1233.675</ele>
        <time>2021-03-21T08:28:14Z</time>
      </trkpt>
      <trkpt lat="42.83476" lon="0.55375">
        <ele>1234.582</ele>
        <time>2021-03-21T08:28:16Z</time>
      </trkpt>
      <trkpt lat="42.83477" lon="0.55377">
        <ele>1236.223</ele>
        <time>2021-03-21T08:28:18Z</time>
      </trkpt>
      <trkpt lat="42.83479" lon="0.55379">
        <ele>1237.497</ele>
        <time>2021-03-21T08:28:20Z</time>
      </trkpt>
      <trkpt lat="42.83482" lon="0.55381">
        <ele>1238.286</ele>
        <time>2021-03-21T08:28:22Z</time>
      </trkpt>
      <trkpt lat="42.83484" lon="0.55383">
        <ele>1240.078</ele>
        <time>2021-03-21T08:28:24Z</time>
      </trkpt>
      <trkpt lat="42.83486" lon="0.55384">
        <ele>1241.145</ele>
        <time>2021-03-21T08:28:26Z</time>
      </trkpt>
      <trkpt lat="42.83488" lon="0.55386">
        <ele>1241.949</ele>
        <time>2021-03-21T08:28:28Z</time>
      </trkpt>
      <trkpt lat="42.8349" lon="0.55387">
        <ele>1242.613</ele>
        <time>2021-03-21T08:28:30Z</time>
      </trkpt>
      <trkpt lat="42.83492" lon="0.55388">
        <ele>1242.907</ele>
        <time>2021-03-21T08:28:32Z</time>
      </trkpt>
      <trkpt lat="42.83493" lon="0.5539">
        <ele>1242.007</ele>
        <time>2021-03-21T08:28:34Z</time>
      </trkpt>
      <trkpt lat="42.83495" lon="0.5539">
        <ele>1241.984</ele>
        <time>2021-03-21T08:28:36Z</time>
      </trkpt>
      <trkpt lat="42.83498" lon="0.55391">
        <ele>1243.702</ele>
        <time>2021-03-21T08:28:38Z</time>
      </trkpt>
      <trkpt lat="42.835" lon="0.55392">
        <ele>1244.689</ele>
        <time>2021-03-21T08:28:40Z</time>
      </trkpt>
      <trkpt lat="42.83502" lon="0.55392">
        <ele>1245.979</ele>
        <time>2021-03-21T08:28:42Z</time>
      </trkpt>
      <trkpt lat="42.83504" lon="0.55393">
        <ele>1246.322</ele>
        <time>2021-03-21T08:28:44Z</time>
      </trkpt>
      <trkpt lat="42.83506" lon="0.55393">
        <ele>1247.642</ele>
        <time>2021-03-21T08:28:46Z</time>
      </trkpt>
      <trkpt lat="42.83508" lon="0.55393">
        <ele>1248.045</ele>
        <time>2021-03-21T08:28:48Z</time>
      </trkpt>
      <trkpt lat="42.8351" lon="0.55393">
        <ele>1248.224</ele>
        <time>2021-03-21T08:28:50Z</time>
      </trkpt>
      <trkpt lat="42.83511" lon="0.55392">
        <ele>1247.721</ele>
        <time>2021-03-21T08:28:52Z</time>
      </trkpt>
      <trkpt lat="42.83513" lon="0.55392">
        <ele>1247.791</ele>
        <time>2021-03-21T08:28:54Z</time>
      </trkpt>
      <trkpt lat="42.83515" lon="0.55391">
        <ele>1247.982</ele>
        <time>2021-03-21T08:28:56Z</time>
      </trkpt>
      <trkpt lat="42.83516" lon="0.5539">
        <ele>1248.391</ele>
        <time>2021-03-21T08:28:58Z</time>
      </trkpt>
      <trkpt lat="42.83517" lon="0.55389">
        <ele>1248.819</ele>
        <time>2021-03-21T08:29:00Z</time>
      </trkpt>
      <trkpt lat="42.83519" lon="0.55389">
        <ele>1248.856</ele>
        <time>2021-03-21T08:29:02Z</time>
      </trkpt>
      <trkpt lat="42.83521" lon="0.5539">
        <ele>1249.104</ele>
        <time>2021-03-21T08:29:04Z</time>
      </trkpt>
      <trkpt lat="42.83522" lon="0.55389">
        <ele>1248.335</ele>
        <time>2021-03-21T08:29:06Z</time>
      </trkpt>
      <trkpt lat="42.83524" lon="0.55388">
        <ele>1248.356</ele>
        <time>2021-03-21T08:29:08Z</time>
      </trkpt>
      <trkpt lat="42.83526" lon="0.55388">
        <ele>1247.919</ele>
        <time>2021-03-21T08:29:10Z</time>
      </trkpt>
      <trkpt lat="42.83528" lon="0.55388">
        <ele>1248.524</ele>
        <time>2021-03-21T08:29:12Z</time>
      </trkpt>
      <trkpt lat="42.8353" lon="0.55388">
        <ele>1248.43</ele>
        <time>2021-03-21T08:29:14Z</time>
      </trkpt>
      <trkpt lat="42.83531" lon="0.55389">
        <ele>1247.93</ele>
        <time>2021-03-21T08:29:16Z</time>
      </trkpt>
      <trkpt lat="42.83533" lon="0.55389">
        <ele>1248.026</ele>
        <time>2021-03-21T08:29:18Z</time>
      </trkpt>
      <trkpt lat="42.83535" lon="0.55389">
        <ele>1248.383</ele>
        <time>2021-03-21T08:29:20Z</time>
      </trkpt>
      <trkpt lat="42.83537" lon="0.55389">
        <ele>1249.184</ele>
        <time>2021-03-21T08:29:22Z</time>
      </trkpt>
      <trkpt lat="42.83539" lon="0.5539">
        <ele>1250.428</ele>
        <time>2021-03-21T08:29:24Z</time>
      </trkpt>
      <trkpt lat="42.83541" lon="0.5539">
        <ele>1251.492</ele>
        <time>2021-03-21T08:29:26Z</time>
      </trkpt>
      <trkpt lat="42.83543" lon="0.55391">
        <ele>1251.703</ele>
        <time>2021-03-21T08:29:28Z</time>
      </trkpt>
      <trkpt lat="42.83545" lon="0.55392">
        <ele>1251.783</ele>
        <time>2021-03-21T08:29:30Z</time>
      </trkpt>
      <trkpt lat="42.83547" lon="0.55393">
        <ele>1252.085</ele>
        <time>2021-03-21T08:29:32Z</time>
      </trkpt>
      <trkpt lat="42.83549" lon="0.55394">
        <ele>1252.564</ele>
        <time>2021-03-21T08:29:34Z</time>
      </trkpt>
      <trkpt lat="42.83551" lon="0.55395">
        <ele>1252.428</ele>
        <time>2021-03-21T08:29:36Z</time>
      </trkpt>
      <trkpt lat="42.83553" lon="0.55395">
        <ele>1253.401</ele>
        <time>2021-03-21T08:29:38Z</time>
      </trkpt>
      <trkpt lat="42.83555" lon="0.55396">
        <ele>1253.74</ele>
        <time>2021-03-21T08:29:40Z</time>
      </trkpt>
      <trkpt lat="42.83557" lon="0.55397">
        <ele>1255.012</ele>
        <time>2021-03-21T08:29:42Z</time>
      </trkpt>
      <trkpt lat="42.83559" lon="0.55397">
        <ele>1255.47</ele>
        <time>2021-03-21T08:29:44Z</time>
      </trkpt>
      <trkpt lat="42.83561" lon="0.55398">
        <ele>1255.747</ele>
        <time>2021-03-21T08:29:46Z</time>
      </trkpt>
      <trkpt lat="42.83563" lon="0.55398">
        <ele>1256.903</ele>
        <time>2021-03-21T08:29:48Z</time>
      </trkpt>
      <trkpt lat="42.83565" lon="0.55398">
        <ele>1256.284</ele>
        <time>2021-03-21T08:29:50Z</time>
      </trkpt>
      <trkpt lat="42.83566" lon="0.55398">
        <ele>1256.879</ele>
        <time>2021-03-21T08:29:52Z</time>
      </trkpt>
      <trkpt lat="42.83569" lon="0.55399">
        <ele>1257.97</ele>
        <time>2021-03-21T08:29:54Z</time>
      </trkpt>
      <trkpt lat="42.83571" lon="0.554">
        <ele>1258.615</ele>
        <time>2021-03-21T08:29:56Z</time>
      </trkpt>
      <trkpt lat="42.83573" lon="0.554">
        <ele>1258.004</ele>
        <time>2021-03-21T08:29:58Z</time>
      </trkpt>
      <trkpt lat="42.83575" lon="0.55401">
        <ele>1257.715</ele>
        <time>2021-03-21T08:30:00Z</time>
      </trkpt>
      <trkpt lat="42.83577" lon="0.55401">
        <ele>1258.528</ele>
        <time>2021-03-21T08:30:02Z</time>
      </trkpt>
      <trkpt lat="42.83579" lon="0.55402">
        <ele>1257.905</ele>
        <time>2021-03-21T08:30:04Z</time>
      </trkpt>
      <trkpt lat="42.83581" lon="0.55402">
        <ele>1258.129</ele>
        <time>2021-03-21T08:30:06Z</time>
      </trkpt>
      <trkpt lat="42.83583" lon="0.55403">
        <ele>1258.466</ele>
        <time>2021-03-21T08:30:08Z</time>
      </trkpt>
      <trkpt lat="42.83584" lon="0.55404">
        <ele>1258.401</ele>
        <time>2021-03-21T08:30:10Z</time>
      </trkpt>
      <trkpt lat="42.83586" lon="0.55404">
        <ele>1257.447</ele>
        <time>2021-03-21T08:30:12Z</time>
      </trkpt>
      <trkpt lat="42.83588" lon="0.55405">
        <ele>1257.202</ele>
        <time>2021-03-21T08:30:14Z</time>
      </trkpt>
      <trkpt lat="42.8359" lon="0.55406">
        <ele>1256.22</ele>
        <time>2021-03-21T08:30:16Z</time>
      </trkpt>
      <trkpt lat="42.83591" lon="0.55407">
        <ele>1256.01</ele>
        <time>2021-03-21T08:30:18Z</time>
      </trkpt>
      <trkpt lat="42.83593" lon="0.55407">
        <ele>1257.314</ele>
        <time>2021-03-21T08:30:20Z</time>
      </trkpt>
      <trkpt lat="42.83596" lon="0.55407">
        <ele>1257.932</ele>
        <time>2021-03-21T08:30:22Z</time>
      </trkpt>
      <trkpt lat="42.83598" lon="0.55407">
        <ele>1257.205</ele>
        <time>2021-03-21T08:30:24Z</time>
      </trkpt>
      <trkpt lat="42.836" lon="0.55408">
        <ele>1257.872</ele>
        <time>2021-03-21T08:30:26Z</time>
      </trkpt>
      <trkpt lat="42.83601" lon="0.55408">
        <ele>1257.609</ele>
        <time>2021-03-21T08:30:28Z</time>
      </trkpt>
      <trkpt lat="42.83603" lon="0.55409">
        <ele>1257.255</ele>
        <time>2021-03-21T08:30:30Z</time>
      </trkpt>
      <trkpt lat="42.83605" lon="0.55409">
        <ele>1256.987</ele>
        <time>2021-03-21T08:30:32Z</time>
      </trkpt>
      <trkpt lat="42.83607" lon="0.5541">
        <ele>1259.185</ele>
        <time>2021-03-21T08:30:34Z</time>
      </trkpt>
      <trkpt lat="42.83609" lon="0.5541">
        <ele>1258.764</ele>
        <time>2021-03-21T08:30:36Z</time>
      </trkpt>
      <trkpt lat="42.83611" lon="0.5541">
        <ele>1258.933</ele>
        <time>2021-03-21T08:30:38Z</time>
      </trkpt>
      <trkpt lat="42.83613" lon="0.55411">
        <ele>1258.226</ele>
        <time>2021-03-21T08:30:40Z</time>
      </trkpt>
      <trkpt lat="42.83615" lon="0.55411">
        <ele>1259.074</ele>
        <time>2021-03-21T08:30:42Z</time>
      </trkpt>
      <trkpt lat="42.83617" lon="0.55412">
        <ele>1259.243</ele>
        <time>2021-03-21T08:30:44Z</time>
      </trkpt>
      <trkpt lat="42.83619" lon="0.55412">
        <ele>1259.275</ele>
        <time>2021-03-21T08:30:46Z</time>
      </trkpt>
      <trkpt lat="42.83621" lon="0.55412">
        <ele>1259.418</ele>
        <time>2021-03-21T08:30:48Z</time>
      </trkpt>
      <trkpt lat="42.83624" lon="0.55412">
        <ele>1260.116</ele>
        <time>2021-03-21T08:30:50Z</time>
      </trkpt>
      <trkpt lat="42.83626" lon="0.55412">
        <ele>1261.029</ele>
        <time>2021-03-21T08:30:52Z</time>
      </trkpt>
      <trkpt lat="42.83628" lon="0.55413">
        <ele>1262.028</ele>
        <time>2021-03-21T08:30:54Z</time>
      </trkpt>
      <trkpt lat="42.8363" lon="0.55414">
        <ele>1262.131</ele>
        <time>2021-03-21T08:30:56Z</time>
      </trkpt>
      <trkpt lat="42.83631" lon="0.55415">
        <ele>1261.82</ele>
        <time>2021-03-21T08:30:58Z</time>
      </trkpt>
      <trkpt lat="42.83633" lon="0.55415">
        <ele>1261.187</ele>
        <time>2021-03-21T08:31:00Z</time>
      </trkpt>
      <trkpt lat="42.83635" lon="0.55416">
        <ele>1262.044</ele>
        <time>2021-03-21T08:31:02Z</time>
      </trkpt>
      <trkpt lat="42.83637" lon="0.55416">
        <ele>1262.856</ele>
        <time>2021-03-21T08:31:04Z</time>
      </trkpt>
      <trkpt lat="42.83639" lon="0.55416">
        <ele>1263.001</ele>
        <time>2021-03-21T08:31:06Z</time>
      </trkpt>
      <trkpt lat="42.83641" lon="0.55416">
        <ele>1262.862</ele>
        <time>2021-03-21T08:31:08Z</time>
      </trkpt>
      <trkpt lat="42.83643" lon="0.55416">
        <ele>1263.202</ele>
        <time>2021-03-21T08:31:10Z</time>
      </trkpt>
      <trkpt lat="42.83645" lon="0.55416">
        <ele>1263.733</ele>
        <time>2021-03-21T08:31:12Z</time>
      </trkpt>
      <trkpt lat="42.83647" lon="0.55416">
        <ele>1265.272</ele>
        <time>2021-03-21T08:31:14Z</time>
      </trkpt>
      <trkpt lat="42.83649" lon="0.55416">
        <ele>1265.098</ele>
        <time>2021-03-21T08:31:16Z</time>
      </trkpt>
      <trkpt lat="42.83651" lon="0.55416">
        <ele>1264.685</ele>
        <time>2021-03-21T08:31:18Z</time>
      </trkpt>
      <trkpt lat="42.83654" lon="0.55416">
        <ele>1264.945</ele>
        <time>2021-03-21T08:31:20Z</time>
      </trkpt>
      <trkpt lat="42.83656" lon="0.55416">
        <ele>1264.672</ele>
        <time>2021-03-21T08:31:22Z</time>
      </trkpt>
      <trkpt lat="42.83658" lon="0.55416">
        <ele>1265.774</ele>
        <time>2021-03-21T08:31:24Z</time>
      </trkpt>
      <trkpt lat="42.8366" lon="0.55417">
        <ele>1266.27</ele>
        <time>2021-03-21T08:31:26Z</time>
      </trkpt>
      <trkpt lat="42.83662" lon="0.55417">
        <ele>1266.014</ele>
        <time>2021-03-21T08:31:28Z</time>
      </trkpt>
      <trkpt lat="42.83664" lon="0.55418">
        <ele>1266.841</ele>
        <time>2021-03-21T08:31:30Z</time>
      </trkpt>
      <trkpt lat="42.83666" lon="0.55418">
        <ele>1266.905</ele>
        <time>2021-03-21T08:31:32Z</time>
      </trkpt>
      <trkpt lat="42.83668" lon="0.55418">
        <ele>1267.006</ele>
        <time>2021-03-21T08:31:34Z</time>
      </trkpt>
      <trkpt lat="42.8367" lon="0.55418">
        <ele>1266.718</ele>
        <time>2021-03-21T08:31:36Z</time>
      </trkpt>
      <trkpt lat="42.83672" lon="0.55418">
        <ele>1267.726</ele>
        <time>2021-03-21T08:31:38Z</time>
      </trkpt>
      <trkpt lat="42.83674" lon="0.55417">
        <ele>1268.379</ele>
        <time>2021-03-21T08:31:40Z</time>
      </trkpt>
      <trkpt lat="42.83675" lon="0.55418">
        <ele>1268.85</ele>
        <time>2021-03-21T08:31:42Z</time>
      </trkpt>
      <trkpt lat="42.83678" lon="0.55418">
        <ele>1269.271</ele>
        <time>2021-03-21T08:31:44Z</time>
      </trkpt>
      <trkpt lat="42.8368" lon="0.55417">
        <ele>1270.448</ele>
        <time>2021-03-21T08:31:46Z</time>
      </trkpt>
      <trkpt lat="42.83682" lon="0.55417">
        <ele>1271.275</ele>
        <time>2021-03-21T08:31:48Z</time>
      </trkpt>
      <trkpt lat="42.83684" lon="0.55417">
        <ele>1271.39</ele>
        <time>2021-03-21T08:31:50Z</time>
      </trkpt>
      <trkpt lat="42.83686" lon="0.55417">
        <ele>1272.3</ele>
        <time>2021-03-21T08:31:52Z</time>
      </trkpt>
      <trkpt lat="42.83688" lon="0.55416">
        <ele>1273.477</ele>
        <time>2021-03-21T08:31:54Z</time>
      </trkpt>
      <trkpt lat="42.8369" lon="0.55417">
        <ele>1274.623</ele>
        <time>2021-03-21T08:31:56Z</time>
      </trkpt>
      <trkpt lat="42.83692" lon="0.55417">
        <ele>1275.129</ele>
        <time>2021-03-21T08:31:58Z</time>
      </trkpt>
      <trkpt lat="42.83694" lon="0.55417">
        <ele>1274.916</ele>
        <time>2021-03-21T08:32:00Z</time>
      </trkpt>
      <trkpt lat="42.83696" lon="0.55417">
        <ele>1274.833</ele>
        <time>2021-03-21T08:32:02Z</time>
      </trkpt>
      <trkpt lat="42.83698" lon="0.55417">
        <ele>1274.359</ele>
        <time>2021-03-21T08:32:04Z</time>
      </trkpt>
      <trkpt lat="42.837" lon="0.55417">
        <ele>1274.356</ele>
        <time>2021-03-21T08:32:06Z</time>
      </trkpt>
      <trkpt lat="42.83702" lon="0.55417">
        <ele>1273.446</ele>
        <time>2021-03-21T08:32:08Z</time>
      </trkpt>
      <trkpt lat="42.83704" lon="0.55417">
        <ele>1273.023</ele>
        <time>2021-03-21T08:32:10Z</time>
      </trkpt>
      <trkpt lat="42.83706" lon="0.55418">
        <ele>1273.164</ele>
        <time>2021-03-21T08:32:12Z</time>
      </trkpt>
      <trkpt lat="42.83708" lon="0.55418">
        <ele>1273.38</ele>
        <time>2021-03-21T08:32:14Z</time>
      </trkpt>
      <trkpt lat="42.8371" lon="0.55418">
        <ele>1274.51</ele>
        <time>2021-03-21T08:32:16Z</time>
      </trkpt>
      <trkpt lat="42.83712" lon="0.55418">
        <ele>1274.826</ele>
        <time>2021-03-21T08:32:18Z</time>
      </trkpt>
      <trkpt lat="42.83713" lon="0.55419">
        <ele>1275.571</ele>
        <time>2021-03-21T08:32:20Z</time>
      </trkpt>
      <trkpt lat="42.83715" lon="0.5542">
        <ele>1275.634</ele>
        <time>2021-03-21T08:32:22Z</time>
      </trkpt>
      <trkpt lat="42.83716" lon="0.5542">
        <ele>1276.147</ele>
        <time>2021-03-21T08:32:24Z</time>
      </trkpt>
      <trkpt lat="42.83718" lon="0.5542">
        <ele>1276.547</ele>
        <time>2021-03-21T08:32:26Z</time>
      </trkpt>
      <trkpt lat="42.8372" lon="0.55419">
        <ele>1276.525</ele>
        <time>2021-03-21T08:32:28Z</time>
      </trkpt>
      <trkpt lat="42.83723" lon="0.55419">
        <ele>1276.969</ele>
        <time>2021-03-21T08:32:30Z</time>
      </trkpt>
      <trkpt lat="42.83724" lon="0.55419">
        <ele>1278.523</ele>
        <time>2021-03-21T08:32:32Z</time>
      </trkpt>
      <trkpt lat="42.83727" lon="0.5542">
        <ele>1279.602</ele>
        <time>2021-03-21T08:32:34Z</time>
      </trkpt>
      <trkpt lat="42.83728" lon="0.5542">
        <ele>1279.597</ele>
        <time>2021-03-21T08:32:36Z</time>
      </trkpt>
      <trkpt lat="42.8373" lon="0.55421">
        <ele>1279.598</ele>
        <time>2021-03-21T08:32:38Z</time>
      </trkpt>
      <trkpt lat="42.83732" lon="0.55421">
        <ele>1278.853</ele>
        <time>2021-03-21T08:32:40Z</time>
      </trkpt>
      <trkpt lat="42.83734" lon="0.55422">
        <ele>1279.338</ele>
        <time>2021-03-21T08:32:42Z</time>
      </trkpt>
      <trkpt lat="42.83736" lon="0.55423">
        <ele>1280.656</ele>
        <time>2021-03-21T08:32:44Z</time>
      </trkpt>
      <trkpt lat="42.83737" lon="0.55424">
        <ele>1280.937</ele>
        <time>2021-03-21T08:32:46Z</time>
      </trkpt>
      <trkpt lat="42.83739" lon="0.55424">
        <ele>1281.833</ele>
        <time>2021-03-21T08:32:48Z</time>
      </trkpt>
      <trkpt lat="42.8374" lon="0.55424">
        <ele>1282.666</ele>
        <time>2021-03-21T08:32:50Z</time>
      </trkpt>
      <trkpt lat="42.83742" lon="0.55425">
        <ele>1283.576</ele>
        <time>2021-03-21T08:32:52Z</time>
      </trkpt>
      <trkpt lat="42.83743" lon="0.55426">
        <ele>1283.865</ele>
        <time>2021-03-21T08:32:54Z</time>
      </trkpt>
      <trkpt lat="42.83745" lon="0.55426">
        <ele>1284.227</ele>
        <time>2021-03-21T08:32:56Z</time>
      </trkpt>
      <trkpt lat="42.83747" lon="0.55427">
        <ele>1286.057</ele>
        <time>2021-03-21T08:32:58Z</time>
      </trkpt>
      <trkpt lat="42.83749" lon="0.55428">
        <ele>1285.047</ele>
        <time>2021-03-21T08:33:00Z</time>
      </trkpt>
      <trkpt lat="42.8375" lon="0.55429">
        <ele>1285.443</ele>
        <time>2021-03-21T08:33:02Z</time>
      </trkpt>
      <trkpt lat="42.83752" lon="0.55429">
        <ele>1285.96</ele>
        <time>2021-03-21T08:33:04Z</time>
      </trkpt>
      <trkpt lat="42.83754" lon="0.5543">
        <ele>1285.676</ele>
        <time>2021-03-21T08:33:06Z</time>
      </trkpt>
      <trkpt lat="42.83755" lon="0.5543">
        <ele>1285.778</ele>
        <time>2021-03-21T08:33:08Z</time>
      </trkpt>
      <trkpt lat="42.83757" lon="0.55431">
        <ele>1285.072</ele>
        <time>2021-03-21T08:33:10Z</time>
      </trkpt>
      <trkpt lat="42.83759" lon="0.55432">
        <ele>1285.183</ele>
        <time>2021-03-21T08:33:12Z</time>
      </trkpt>
      <trkpt lat="42.8376" lon="0.55432">
        <ele>1286.21</ele>
        <time>2021-03-21T08:33:14Z</time>
      </trkpt>
      <trkpt lat="42.83762" lon="0.55433">
        <ele>1287.328</ele>
        <time>2021-03-21T08:33:16Z</time>
      </trkpt>
      <trkpt lat="42.83764" lon="0.55434">
        <ele>1287.264</ele>
        <time>2021-03-21T08:33:18Z</time>
      </trkpt>
      <trkpt lat="42.83766" lon="0.55434">
        <ele>1287.242</ele>
        <time>2021-03-21T08:33:20Z</time>
      </trkpt>
      <trkpt lat="42.83768" lon="0.55435">
        <ele>1287.38</ele>
        <time>2021-03-21T08:33:22Z</time>
      </trkpt>
      <trkpt lat="42.8377" lon="0.55436">
        <ele>1286.726</ele>
        <time>2021-03-21T08:33:24Z</time>
      </trkpt>
      <trkpt lat="42.83771" lon="0.55436">
        <ele>1286.744</ele>
        <time>2021-03-21T08:33:26Z</time>
      </trkpt>
      <trkpt lat="42.83773" lon="0.55437">
        <ele>1286.145</ele>
        <time>2021-03-21T08:33:28Z</time>
      </trkpt>
      <trkpt lat="42.83775" lon="0.55438">
        <ele>1286.477</ele>
        <time>2021-03-21T08:33:30Z</time>
      </trkpt>
      <trkpt lat="42.83777" lon="0.55439">
        <ele>1286.328</ele>
        <time>2021-03-21T08:33:32Z</time>
      </trkpt>
      <trkpt lat="42.83778" lon="0.5544">
        <ele>1287.207</ele>
        <time>2021-03-21T08:33:34Z</time>
      </trkpt>
      <trkpt lat="42.8378" lon="0.5544">
        <ele>1286.937</ele>
        <time>2021-03-21T08:33:36Z</time>
      </trkpt>
      <trkpt lat="42.83781" lon="0.55441">
        <ele>1286.769</ele>
        <time>2021-03-21T08:33:38Z</time>
      </trkpt>
      <trkpt lat="42.83783" lon="0.55441">
        <ele>1286.493</ele>
        <time>2021-03-21T08:33:40Z</time>
      </trkpt>
      <trkpt lat="42.83784" lon="0.55442">
        <ele>1286.193</ele>
        <time>2021-03-21T08:33:42Z</time>
      </trkpt>
      <trkpt lat="42.83786" lon="0.55443">
        <ele>1285.846</ele>
        <time>2021-03-21T08:33:44Z</time>
      </trkpt>
      <trkpt lat="42.83788" lon="0.55444">
        <ele>1285.268</ele>
        <time>2021-03-21T08:33:46Z</time>
      </trkpt>
      <trkpt lat="42.8379" lon="0.55445">
        <ele>1284.405</ele>
        <time>2021-03-21T08:33:48Z</time>
      </trkpt>
      <trkpt lat="42.83792" lon="0.55445">
        <ele>1285.22</ele>
        <time>2021-03-21T08:33:50Z</time>
      </trkpt>
      <trkpt lat="42.83793" lon="0.55447">
        <ele>1285.527</ele>
        <time>2021-03-21T08:33:52Z</time>
      </trkpt>
      <trkpt lat="42.83795" lon="0.55448">
        <ele>1285.754</ele>
        <time>2021-03-21T08:33:54Z</time>
      </trkpt>
      <trkpt lat="42.83797" lon="0.55449">
        <ele>1287.267</ele>
        <time>2021-03-21T08:33:56Z</time>
      </trkpt>
      <trkpt lat="42.83798" lon="0.55451">
        <ele>1287.533</ele>
        <time>2021-03-21T08:33:58Z</time>
      </trkpt>
      <trkpt lat="42.83799" lon="0.55453">
        <ele>1289.191</ele>
        <time>2021-03-21T08:34:00Z</time>
      </trkpt>
      <trkpt lat="42.838" lon="0.55455">
        <ele>1289.465</ele>
        <time>2021-03-21T08:34:02Z</time>
      </trkpt>
      <trkpt lat="42.83801" lon="0.55457">
        <ele>1290.103</ele>
        <time>2021-03-21T08:34:04Z</time>
      </trkpt>
      <trkpt lat="42.838" lon="0.55459">
        <ele>1288.757</ele>
        <time>2021-03-21T08:34:06Z</time>
      </trkpt>
      <trkpt lat="42.83799" lon="0.55461">
        <ele>1288.916</ele>
        <time>2021-03-21T08:34:08Z</time>
      </trkpt>
      <trkpt lat="42.83798" lon="0.55462">
        <ele>1288.855</ele>
        <time>2021-03-21T08:34:10Z</time>
      </trkpt>
      <trkpt lat="42.83798" lon="0.55463">
        <ele>1290.061</ele>
        <time>2021-03-21T08:34:12Z</time>
      </trkpt>
      <trkpt lat="42.83798" lon="0.55463">
        <ele>1289.997</ele>
        <time>2021-03-21T08:34:14Z</time>
      </trkpt>
      <trkpt lat="42.83798" lon="0.55463">
        <ele>1290</ele>
        <time>2021-03-21T08:34:16Z</time>
      </trkpt>
      <trkpt lat="42.83798" lon="0.55464">
        <ele>1290.004</ele>
        <time>2021-03-21T08:34:18Z</time>
      </trkpt>
      <trkpt lat="42.83798" lon="0.55464">
        <ele>1290</ele>
        <time>2021-03-21T08:34:20Z</time>
      </trkpt>
      <trkpt lat="42.83798" lon="0.55464">
        <ele>1290</ele>
        <time>2021-03-21T08:34:22Z</time>
      </trkpt>
      <trkpt lat="42.83798" lon="0.55464">
        <ele>1289.379</ele>
        <time>2021-03-21T08:34:24Z</time>
      </trkpt>
      <trkpt lat="42.83798" lon="0.55465">
        <ele>1289.23</ele>
        <time>2021-03-21T08:34:26Z</time>
      </trkpt>
      <trkpt lat="42.83797" lon="0.55466">
        <ele>1289.462</ele>
        <time>2021-03-21T08:34:28Z</time>
      </trkpt>
      <trkpt lat="42.83796" lon="0.55467">
        <ele>1289.981</ele>
        <time>2021-03-21T08:34:30Z</time>
      </trkpt>
      <trkpt lat="42.83795" lon="0.55468">
        <ele>1290.01</ele>
        <time>2021-03-21T08:34:32Z</time>
      </trkpt>
      <trkpt lat="42.83794" lon="0.55468">
        <ele>1290.831</ele>
        <time>2021-03-21T08:34:34Z</time>
      </trkpt>
      <trkpt lat="42.83792" lon="0.55468">
        <ele>1291.728</ele>
        <time>2021-03-21T08:34:36Z</time>
      </trkpt>
      <trkpt lat="42.83792" lon="0.55467">
        <ele>1291.425</ele>
        <time>2021-03-21T08:34:38Z</time>
      </trkpt>
      <trkpt lat="42.83792" lon="0.55467">
        <ele>1291.457</ele>
        <time>2021-03-21T08:34:40Z</time>
      </trkpt>
      <trkpt lat="42.83792" lon="0.55467">
        <ele>1291.398</ele>
        <time>2021-03-21T08:34:42Z</time>
      </trkpt>
      <trkpt lat="42.83792" lon="0.55467">
        <ele>1291.402</ele>
        <time>2021-03-21T08:34:44Z</time>
      </trkpt>
      <trkpt lat="42.83792" lon="0.55467">
        <ele>1291.399</ele>
        <time>2021-03-21T08:34:46Z</time>
      </trkpt>
      <trkpt lat="42.83792" lon="0.55467">
        <ele>1291.406</ele>
        <time>2021-03-21T08:34:48Z</time>
      </trkpt>
      <trkpt lat="42.83792" lon="0.55467">
        <ele>1291.41</ele>
        <time>2021-03-21T08:34:50Z</time>
      </trkpt>
      <trkpt lat="42.83792" lon="0.55467">
        <ele>1291.411</ele>
        <time>2021-03-21T08:34:52Z</time>
      </trkpt>
      <trkpt lat="42.83792" lon="0.55467">
        <ele>1291.402</ele>
        <time>2021-03-21T08:34:54Z</time>
      </trkpt>
      <trkpt lat="42.83792" lon="0.55467">
        <ele>1291.405</ele>
        <time>2021-03-21T08:34:56Z</time>
      </trkpt>
      <trkpt lat="42.83792" lon="0.55467">
        <ele>1291.4</ele>
        <time>2021-03-21T08:34:58Z</time>
      </trkpt>
      <trkpt lat="42.83792" lon="0.55467">
        <ele>1291.391</ele>
        <time>2021-03-21T08:35:00Z</time>
      </trkpt>
      <trkpt lat="42.83792" lon="0.55467">
        <ele>1291.388</ele>
        <time>2021-03-21T08:35:02Z</time>
      </trkpt>
      <trkpt lat="42.83792" lon="0.55467">
        <ele>1291.384</ele>
        <time>2021-03-21T08:35:04Z</time>
      </trkpt>
      <trkpt lat="42.83792" lon="0.55467">
        <ele>1291.386</ele>
        <time>2021-03-21T08:35:06Z</time>
      </trkpt>
      <trkpt lat="42.83792" lon="0.55467">
        <ele>1291.378</ele>
        <time>2021-03-21T08:35:08Z</time>
      </trkpt>
      <trkpt lat="42.83792" lon="0.55467">
        <ele>1291.368</ele>
        <time>2021-03-21T08:35:10Z</time>
      </trkpt>
      <trkpt lat="42.83792" lon="0.55467">
        <ele>1291.372</ele>
        <time>2021-03-21T08:35:12Z</time>
      </trkpt>
      <trkpt lat="42.83792" lon="0.55467">
        <ele>1291.377</ele>
        <time>2021-03-21T08:35:14Z</time>
      </trkpt>
      <trkpt lat="42.83792" lon="0.55467">
        <ele>1291.368</ele>
        <time>2021-03-21T08:35:16Z</time>
      </trkpt>
      <trkpt lat="42.83792" lon="0.55467">
        <ele>1291.37</ele>
        <time>2021-03-21T08:35:18Z</time>
      </trkpt>
      <trkpt lat="42.83792" lon="0.55467">
        <ele>1291.363</ele>
        <time>2021-03-21T08:35:20Z</time>
      </trkpt>
      <trkpt lat="42.83792" lon="0.55467">
        <ele>1291.356</ele>
        <time>2021-03-21T08:35:22Z</time>
      </trkpt>
      <trkpt lat="42.83792" lon="0.55467">
        <ele>1291.36</ele>
        <time>2021-03-21T08:35:24Z</time>
      </trkpt>
      <trkpt lat="42.83792" lon="0.55467">
        <ele>1291.466</ele>
        <time>2021-03-21T08:35:26Z</time>
      </trkpt>
      <trkpt lat="42.83792" lon="0.55467">
        <ele>1291.277</ele>
        <time>2021-03-21T08:35:28Z</time>
      </trkpt>
      <trkpt lat="42.83792" lon="0.55466">
        <ele>1291.816</ele>
        <time>2021-03-21T08:35:30Z</time>
      </trkpt>
      <trkpt lat="42.83792" lon="0.55466">
        <ele>1291.812</ele>
        <time>2021-03-21T08:35:32Z</time>
      </trkpt>
      <trkpt lat="42.83791" lon="0.55466">
        <ele>1292.031</ele>
        <time>2021-03-21T08:35:34Z</time>
      </trkpt>
      <trkpt lat="42.83791" lon="0.55465">
        <ele>1292.101</ele>
        <time>2021-03-21T08:35:36Z</time>
      </trkpt>
      <trkpt lat="42.8379" lon="0.55464">
        <ele>1292.767</ele>
        <time>2021-03-21T08:35:38Z</time>
      </trkpt>
      <trkpt lat="42.83789" lon="0.55463">
        <ele>1292.332</ele>
        <time>2021-03-21T08:35:40Z</time>
      </trkpt>
      <trkpt lat="42.83787" lon="0.55463">
        <ele>1292.286</ele>
        <time>2021-03-21T08:35:42Z</time>
      </trkpt>
      <trkpt lat="42.83786" lon="0.55462">
        <ele>1292.416</ele>
        <time>2021-03-21T08:35:44Z</time>
      </trkpt>
      <trkpt lat="42.83785" lon="0.55461">
        <ele>1292.337</ele>
        <time>2021-03-21T08:35:46Z</time>
      </trkpt>
      <trkpt lat="42.83785" lon="0.55461">
        <ele>1293.548</ele>
        <time>2021-03-21T08:35:48Z</time>
      </trkpt>
      <trkpt lat="42.83785" lon="0.55461">
        <ele>1293.581</ele>
        <time>2021-03-21T08:35:50Z</time>
      </trkpt>
      <trkpt lat="42.83785" lon="0.55461">
        <ele>1293.581</ele>
        <time>2021-03-21T08:35:52Z</time>
      </trkpt>
      <trkpt lat="42.83785" lon="0.55461">
        <ele>1293.575</ele>
        <time>2021-03-21T08:35:54Z</time>
      </trkpt>
      <trkpt lat="42.83785" lon="0.55461">
        <ele>1293.572</ele>
        <time>2021-03-21T08:35:56Z</time>
      </trkpt>
      <trkpt lat="42.83785" lon="0.55461">
        <ele>1293.563</ele>
        <time>2021-03-21T08:35:58Z</time>
      </trkpt>
      <trkpt lat="42.83785" lon="0.55461">
        <ele>1293.56</ele>
        <time>2021-03-21T08:36:00Z</time>
      </trkpt>
      <trkpt lat="42.83785" lon="0.55461">
        <ele>1293.553</ele>
        <time>2021-03-21T08:36:01Z</time>
      </trkpt>
      <trkpt lat="42.83785" lon="0.55462">
        <ele>1293.133</ele>
        <time>2021-03-21T08:36:13Z</time>
      </trkpt>
      <trkpt lat="42.83785" lon="0.55462">
        <ele>1293.116</ele>
        <time>2021-03-21T08:36:15Z</time>
      </trkpt>
      <trkpt lat="42.83785" lon="0.55462">
        <ele>1293.104</ele>
        <time>2021-03-21T08:36:17Z</time>
      </trkpt>
      <trkpt lat="42.83785" lon="0.55462">
        <ele>1292.786</ele>
        <time>2021-03-21T08:36:20Z</time>
      </trkpt>
      <trkpt lat="42.83785" lon="0.55461">
        <ele>1292.745</ele>
        <time>2021-03-21T08:36:22Z</time>
      </trkpt>
      <trkpt lat="42.83785" lon="0.55462">
        <ele>1292.474</ele>
        <time>2021-03-21T08:36:24Z</time>
      </trkpt>
      <trkpt lat="42.83785" lon="0.55462">
        <ele>1292.473</ele>
        <time>2021-03-21T08:36:26Z</time>
      </trkpt>
      <trkpt lat="42.83785" lon="0.55462">
        <ele>1292.468</ele>
        <time>2021-03-21T08:36:28Z</time>
      </trkpt>
      <trkpt lat="42.83785" lon="0.55462">
        <ele>1292.461</ele>
        <time>2021-03-21T08:36:30Z</time>
      </trkpt>
      <trkpt lat="42.83785" lon="0.55462">
        <ele>1292.457</ele>
        <time>2021-03-21T08:36:32Z</time>
      </trkpt>
      <trkpt lat="42.83785" lon="0.55462">
        <ele>1292.453</ele>
        <time>2021-03-21T08:36:34Z</time>
      </trkpt>
      <trkpt lat="42.83785" lon="0.55462">
        <ele>1292.447</ele>
        <time>2021-03-21T08:36:36Z</time>
      </trkpt>
      <trkpt lat="42.83785" lon="0.55462">
        <ele>1292.429</ele>
        <time>2021-03-21T08:36:38Z</time>
      </trkpt>
      <trkpt lat="42.83785" lon="0.55462">
        <ele>1292.418</ele>
        <time>2021-03-21T08:36:40Z</time>
      </trkpt>
      <trkpt lat="42.83785" lon="0.55462">
        <ele>1292.412</ele>
        <time>2021-03-21T08:36:42Z</time>
      </trkpt>
      <trkpt lat="42.83785" lon="0.55462">
        <ele>1292.408</ele>
        <time>2021-03-21T08:36:44Z</time>
      </trkpt>
      <trkpt lat="42.83785" lon="0.55462">
        <ele>1292.406</ele>
        <time>2021-03-21T08:36:46Z</time>
      </trkpt>
      <trkpt lat="42.83785" lon="0.55462">
        <ele>1292.405</ele>
        <time>2021-03-21T08:36:48Z</time>
      </trkpt>
      <trkpt lat="42.83785" lon="0.55462">
        <ele>1292.403</ele>
        <time>2021-03-21T08:36:50Z</time>
      </trkpt>
      <trkpt lat="42.83785" lon="0.55462">
        <ele>1292.403</ele>
        <time>2021-03-21T08:36:52Z</time>
      </trkpt>
      <trkpt lat="42.83785" lon="0.55462">
        <ele>1292.4</ele>
        <time>2021-03-21T08:36:54Z</time>
      </trkpt>
      <trkpt lat="42.83785" lon="0.55462">
        <ele>1292.395</ele>
        <time>2021-03-21T08:36:56Z</time>
      </trkpt>
      <trkpt lat="42.83785" lon="0.55462">
        <ele>1292.389</ele>
        <time>2021-03-21T08:36:58Z</time>
      </trkpt>
      <trkpt lat="42.83785" lon="0.55462">
        <ele>1292.383</ele>
        <time>2021-03-21T08:37:00Z</time>
      </trkpt>
      <trkpt lat="42.83785" lon="0.55462">
        <ele>1292.381</ele>
        <time>2021-03-21T08:37:02Z</time>
      </trkpt>
      <trkpt lat="42.83785" lon="0.55462">
        <ele>1292.386</ele>
        <time>2021-03-21T08:37:04Z</time>
      </trkpt>
      <trkpt lat="42.83785" lon="0.55462">
        <ele>1292.385</ele>
        <time>2021-03-21T08:37:06Z</time>
      </trkpt>
      <trkpt lat="42.83784" lon="0.55463">
        <ele>1293.001</ele>
        <time>2021-03-21T08:37:08Z</time>
      </trkpt>
      <trkpt lat="42.83783" lon="0.55463">
        <ele>1293.403</ele>
        <time>2021-03-21T08:37:10Z</time>
      </trkpt>
      <trkpt lat="42.83781" lon="0.55463">
        <ele>1293.394</ele>
        <time>2021-03-21T08:37:12Z</time>
      </trkpt>
      <trkpt lat="42.83779" lon="0.55463">
        <ele>1293.586</ele>
        <time>2021-03-21T08:37:14Z</time>
      </trkpt>
      <trkpt lat="42.83778" lon="0.55462">
        <ele>1293.875</ele>
        <time>2021-03-21T08:37:16Z</time>
      </trkpt>
      <trkpt lat="42.83776" lon="0.55462">
        <ele>1293.333</ele>
        <time>2021-03-21T08:37:18Z</time>
      </trkpt>
      <trkpt lat="42.83775" lon="0.55463">
        <ele>1292.591</ele>
        <time>2021-03-21T08:37:20Z</time>
      </trkpt>
      <trkpt lat="42.83773" lon="0.55462">
        <ele>1292.588</ele>
        <time>2021-03-21T08:37:22Z</time>
      </trkpt>
      <trkpt lat="42.83771" lon="0.55463">
        <ele>1292.214</ele>
        <time>2021-03-21T08:37:24Z</time>
      </trkpt>
      <trkpt lat="42.83769" lon="0.55463">
        <ele>1292.589</ele>
        <time>2021-03-21T08:37:26Z</time>
      </trkpt>
      <trkpt lat="42.83767" lon="0.55463">
        <ele>1293.398</ele>
        <time>2021-03-21T08:37:28Z</time>
      </trkpt>
      <trkpt lat="42.83765" lon="0.55463">
        <ele>1293.7</ele>
        <time>2021-03-21T08:37:30Z</time>
      </trkpt>
      <trkpt lat="42.83764" lon="0.55464">
        <ele>1293.108</ele>
        <time>2021-03-21T08:37:32Z</time>
      </trkpt>
      <trkpt lat="42.83762" lon="0.55464">
        <ele>1293.748</ele>
        <time>2021-03-21T08:37:34Z</time>
      </trkpt>
      <trkpt lat="42.8376" lon="0.55464">
        <ele>1294.815</ele>
        <time>2021-03-21T08:37:36Z</time>
      </trkpt>
      <trkpt lat="42.83758" lon="0.55465">
        <ele>1294.522</ele>
        <time>2021-03-21T08:37:38Z</time>
      </trkpt>
      <trkpt lat="42.83756" lon="0.55465">
        <ele>1295.03</ele>
        <time>2021-03-21T08:37:40Z</time>
      </trkpt>
      <trkpt lat="42.83754" lon="0.55466">
        <ele>1295.715</ele>
        <time>2021-03-21T08:37:42Z</time>
      </trkpt>
      <trkpt lat="42.83752" lon="0.55467">
        <ele>1295.821</ele>
        <time>2021-03-21T08:37:44Z</time>
      </trkpt>
      <trkpt lat="42.8375" lon="0.55468">
        <ele>1296.386</ele>
        <time>2021-03-21T08:37:46Z</time>
      </trkpt>
      <trkpt lat="42.83748" lon="0.55468">
        <ele>1296.867</ele>
        <time>2021-03-21T08:37:48Z</time>
      </trkpt>
      <trkpt lat="42.83746" lon="0.55469">
        <ele>1298.098</ele>
        <time>2021-03-21T08:37:50Z</time>
      </trkpt>
      <trkpt lat="42.83745" lon="0.5547">
        <ele>1298.755</ele>
        <time>2021-03-21T08:37:52Z</time>
      </trkpt>
      <trkpt lat="42.83743" lon="0.55471">
        <ele>1298.553</ele>
        <time>2021-03-21T08:37:54Z</time>
      </trkpt>
      <trkpt lat="42.83741" lon="0.55472">
        <ele>1297.971</ele>
        <time>2021-03-21T08:37:56Z</time>
      </trkpt>
      <trkpt lat="42.83739" lon="0.55473">
        <ele>1298.643</ele>
        <time>2021-03-21T08:37:58Z</time>
      </trkpt>
      <trkpt lat="42.83737" lon="0.55473">
        <ele>1299.387</ele>
        <time>2021-03-21T08:38:00Z</time>
      </trkpt>
      <trkpt lat="42.83735" lon="0.55473">
        <ele>1300.124</ele>
        <time>2021-03-21T08:38:02Z</time>
      </trkpt>
      <trkpt lat="42.83733" lon="0.55474">
        <ele>1300.358</ele>
        <time>2021-03-21T08:38:04Z</time>
      </trkpt>
      <trkpt lat="42.83731" lon="0.55475">
        <ele>1301.998</ele>
        <time>2021-03-21T08:38:06Z</time>
      </trkpt>
      <trkpt lat="42.83729" lon="0.55475">
        <ele>1302.028</ele>
        <time>2021-03-21T08:38:08Z</time>
      </trkpt>
      <trkpt lat="42.83728" lon="0.55477">
        <ele>1302.363</ele>
        <time>2021-03-21T08:38:10Z</time>
      </trkpt>
      <trkpt lat="42.83726" lon="0.55478">
        <ele>1302.231</ele>
        <time>2021-03-21T08:38:12Z</time>
      </trkpt>
      <trkpt lat="42.83725" lon="0.55479">
        <ele>1302.469</ele>
        <time>2021-03-21T08:38:14Z</time>
      </trkpt>
      <trkpt lat="42.83723" lon="0.5548">
        <ele>1302.704</ele>
        <time>2021-03-21T08:38:16Z</time>
      </trkpt>
      <trkpt lat="42.83721" lon="0.55481">
        <ele>1303.04</ele>
        <time>2021-03-21T08:38:18Z</time>
      </trkpt>
      <trkpt lat="42.83719" lon="0.55483">
        <ele>1303.143</ele>
        <time>2021-03-21T08:38:20Z</time>
      </trkpt>
      <trkpt lat="42.83717" lon="0.55483">
        <ele>1304.013</ele>
        <time>2021-03-21T08:38:22Z</time>
      </trkpt>
      <trkpt lat="42.83716" lon="0.55484">
        <ele>1303.944</ele>
        <time>2021-03-21T08:38:24Z</time>
      </trkpt>
      <trkpt lat="42.83714" lon="0.55485">
        <ele>1304.369</ele>
        <time>2021-03-21T08:38:26Z</time>
      </trkpt>
      <trkpt lat="42.83713" lon="0.55486">
        <ele>1304.567</ele>
        <time>2021-03-21T08:38:28Z</time>
      </trkpt>
      <trkpt lat="42.83711" lon="0.55487">
        <ele>1304.561</ele>
        <time>2021-03-21T08:38:30Z</time>
      </trkpt>
      <trkpt lat="42.83709" lon="0.55488">
        <ele>1304.884</ele>
        <time>2021-03-21T08:38:32Z</time>
      </trkpt>
      <trkpt lat="42.83708" lon="0.5549">
        <ele>1304.889</ele>
        <time>2021-03-21T08:38:34Z</time>
      </trkpt>
      <trkpt lat="42.83706" lon="0.55491">
        <ele>1305.392</ele>
        <time>2021-03-21T08:38:36Z</time>
      </trkpt>
      <trkpt lat="42.83704" lon="0.55493">
        <ele>1305.138</ele>
        <time>2021-03-21T08:38:38Z</time>
      </trkpt>
      <trkpt lat="42.83702" lon="0.55494">
        <ele>1305.223</ele>
        <time>2021-03-21T08:38:40Z</time>
      </trkpt>
      <trkpt lat="42.83701" lon="0.55496">
        <ele>1305.214</ele>
        <time>2021-03-21T08:38:42Z</time>
      </trkpt>
      <trkpt lat="42.83699" lon="0.55496">
        <ele>1305.359</ele>
        <time>2021-03-21T08:38:44Z</time>
      </trkpt>
      <trkpt lat="42.83697" lon="0.55497">
        <ele>1304.981</ele>
        <time>2021-03-21T08:38:46Z</time>
      </trkpt>
      <trkpt lat="42.83696" lon="0.55498">
        <ele>1304.93</ele>
        <time>2021-03-21T08:38:48Z</time>
      </trkpt>
      <trkpt lat="42.83694" lon="0.55499">
        <ele>1305.666</ele>
        <time>2021-03-21T08:38:50Z</time>
      </trkpt>
      <trkpt lat="42.83692" lon="0.555">
        <ele>1306.211</ele>
        <time>2021-03-21T08:38:52Z</time>
      </trkpt>
      <trkpt lat="42.8369" lon="0.55501">
        <ele>1305.991</ele>
        <time>2021-03-21T08:38:54Z</time>
      </trkpt>
      <trkpt lat="42.83688" lon="0.55503">
        <ele>1306.298</ele>
        <time>2021-03-21T08:38:56Z</time>
      </trkpt>
      <trkpt lat="42.83687" lon="0.55503">
        <ele>1306.474</ele>
        <time>2021-03-21T08:38:58Z</time>
      </trkpt>
      <trkpt lat="42.83684" lon="0.55504">
        <ele>1307.779</ele>
        <time>2021-03-21T08:39:00Z</time>
      </trkpt>
      <trkpt lat="42.83683" lon="0.55505">
        <ele>1308.056</ele>
        <time>2021-03-21T08:39:02Z</time>
      </trkpt>
      <trkpt lat="42.83681" lon="0.55506">
        <ele>1308.266</ele>
        <time>2021-03-21T08:39:04Z</time>
      </trkpt>
      <trkpt lat="42.8368" lon="0.55508">
        <ele>1308.031</ele>
        <time>2021-03-21T08:39:06Z</time>
      </trkpt>
      <trkpt lat="42.83678" lon="0.5551">
        <ele>1308.068</ele>
        <time>2021-03-21T08:39:08Z</time>
      </trkpt>
      <trkpt lat="42.83676" lon="0.55511">
        <ele>1308.86</ele>
        <time>2021-03-21T08:39:10Z</time>
      </trkpt>
      <trkpt lat="42.83675" lon="0.55512">
        <ele>1308.375</ele>
        <time>2021-03-21T08:39:12Z</time>
      </trkpt>
      <trkpt lat="42.83673" lon="0.55513">
        <ele>1309.424</ele>
        <time>2021-03-21T08:39:14Z</time>
      </trkpt>
      <trkpt lat="42.83671" lon="0.55514">
        <ele>1309.312</ele>
        <time>2021-03-21T08:39:16Z</time>
      </trkpt>
      <trkpt lat="42.83669" lon="0.55515">
        <ele>1309.999</ele>
        <time>2021-03-21T08:39:18Z</time>
      </trkpt>
      <trkpt lat="42.83667" lon="0.55516">
        <ele>1310.158</ele>
        <time>2021-03-21T08:39:20Z</time>
      </trkpt>
      <trkpt lat="42.83665" lon="0.55517">
        <ele>1309.776</ele>
        <time>2021-03-21T08:39:22Z</time>
      </trkpt>
      <trkpt lat="42.83663" lon="0.55519">
        <ele>1309.192</ele>
        <time>2021-03-21T08:39:24Z</time>
      </trkpt>
      <trkpt lat="42.83661" lon="0.5552">
        <ele>1309.362</ele>
        <time>2021-03-21T08:39:26Z</time>
      </trkpt>
      <trkpt lat="42.83659" lon="0.55521">
        <ele>1309.994</ele>
        <time>2021-03-21T08:39:28Z</time>
      </trkpt>
      <trkpt lat="42.83658" lon="0.55522">
        <ele>1309.799</ele>
        <time>2021-03-21T08:39:30Z</time>
      </trkpt>
      <trkpt lat="42.83656" lon="0.55523">
        <ele>1310.352</ele>
        <time>2021-03-21T08:39:32Z</time>
      </trkpt>
      <trkpt lat="42.83655" lon="0.55524">
        <ele>1311.04</ele>
        <time>2021-03-21T08:39:34Z</time>
      </trkpt>
      <trkpt lat="42.83653" lon="0.55525">
        <ele>1311.101</ele>
        <time>2021-03-21T08:39:36Z</time>
      </trkpt>
      <trkpt lat="42.83651" lon="0.55526">
        <ele>1311.892</ele>
        <time>2021-03-21T08:39:38Z</time>
      </trkpt>
      <trkpt lat="42.8365" lon="0.55527">
        <ele>1312.336</ele>
        <time>2021-03-21T08:39:40Z</time>
      </trkpt>
      <trkpt lat="42.83648" lon="0.55528">
        <ele>1312.469</ele>
        <time>2021-03-21T08:39:42Z</time>
      </trkpt>
      <trkpt lat="42.83646" lon="0.55529">
        <ele>1312.319</ele>
        <time>2021-03-21T08:39:44Z</time>
      </trkpt>
      <trkpt lat="42.83645" lon="0.5553">
        <ele>1312.295</ele>
        <time>2021-03-21T08:39:46Z</time>
      </trkpt>
      <trkpt lat="42.83643" lon="0.55532">
        <ele>1312.73</ele>
        <time>2021-03-21T08:39:48Z</time>
      </trkpt>
      <trkpt lat="42.83641" lon="0.55533">
        <ele>1312.681</ele>
        <time>2021-03-21T08:39:50Z</time>
      </trkpt>
      <trkpt lat="42.83639" lon="0.55535">
        <ele>1312.613</ele>
        <time>2021-03-21T08:39:52Z</time>
      </trkpt>
      <trkpt lat="42.83637" lon="0.55536">
        <ele>1312.853</ele>
        <time>2021-03-21T08:39:54Z</time>
      </trkpt>
      <trkpt lat="42.83635" lon="0.55537">
        <ele>1313.655</ele>
        <time>2021-03-21T08:39:56Z</time>
      </trkpt>
      <trkpt lat="42.83633" lon="0.55537">
        <ele>1314.313</ele>
        <time>2021-03-21T08:39:58Z</time>
      </trkpt>
      <trkpt lat="42.83631" lon="0.55538">
        <ele>1314.304</ele>
        <time>2021-03-21T08:40:00Z</time>
      </trkpt>
      <trkpt lat="42.8363" lon="0.55539">
        <ele>1314.48</ele>
        <time>2021-03-21T08:40:02Z</time>
      </trkpt>
      <trkpt lat="42.83628" lon="0.5554">
        <ele>1315.083</ele>
        <time>2021-03-21T08:40:04Z</time>
      </trkpt>
      <trkpt lat="42.83626" lon="0.55542">
        <ele>1315.03</ele>
        <time>2021-03-21T08:40:06Z</time>
      </trkpt>
      <trkpt lat="42.83624" lon="0.55543">
        <ele>1315.203</ele>
        <time>2021-03-21T08:40:08Z</time>
      </trkpt>
      <trkpt lat="42.83623" lon="0.55545">
        <ele>1315.449</ele>
        <time>2021-03-21T08:40:10Z</time>
      </trkpt>
      <trkpt lat="42.83621" lon="0.55546">
        <ele>1315.896</ele>
        <time>2021-03-21T08:40:12Z</time>
      </trkpt>
      <trkpt lat="42.83619" lon="0.55547">
        <ele>1315.827</ele>
        <time>2021-03-21T08:40:14Z</time>
      </trkpt>
      <trkpt lat="42.83617" lon="0.55548">
        <ele>1315.748</ele>
        <time>2021-03-21T08:40:16Z</time>
      </trkpt>
      <trkpt lat="42.83616" lon="0.55549">
        <ele>1316.495</ele>
        <time>2021-03-21T08:40:18Z</time>
      </trkpt>
      <trkpt lat="42.83614" lon="0.55551">
        <ele>1316.793</ele>
        <time>2021-03-21T08:40:20Z</time>
      </trkpt>
      <trkpt lat="42.83612" lon="0.55552">
        <ele>1317.445</ele>
        <time>2021-03-21T08:40:22Z</time>
      </trkpt>
      <trkpt lat="42.8361" lon="0.55553">
        <ele>1318.045</ele>
        <time>2021-03-21T08:40:24Z</time>
      </trkpt>
      <trkpt lat="42.83608" lon="0.55554">
        <ele>1318.735</ele>
        <time>2021-03-21T08:40:26Z</time>
      </trkpt>
      <trkpt lat="42.83607" lon="0.55555">
        <ele>1319.739</ele>
        <time>2021-03-21T08:40:28Z</time>
      </trkpt>
      <trkpt lat="42.83605" lon="0.55556">
        <ele>1319.655</ele>
        <time>2021-03-21T08:40:30Z</time>
      </trkpt>
      <trkpt lat="42.83603" lon="0.55558">
        <ele>1320.877</ele>
        <time>2021-03-21T08:40:32Z</time>
      </trkpt>
      <trkpt lat="42.83602" lon="0.55559">
        <ele>1320.713</ele>
        <time>2021-03-21T08:40:34Z</time>
      </trkpt>
      <trkpt lat="42.836" lon="0.5556">
        <ele>1321.279</ele>
        <time>2021-03-21T08:40:36Z</time>
      </trkpt>
      <trkpt lat="42.83598" lon="0.55561">
        <ele>1320.901</ele>
        <time>2021-03-21T08:40:38Z</time>
      </trkpt>
      <trkpt lat="42.83597" lon="0.55563">
        <ele>1321.421</ele>
        <time>2021-03-21T08:40:40Z</time>
      </trkpt>
      <trkpt lat="42.83595" lon="0.55564">
        <ele>1320.957</ele>
        <time>2021-03-21T08:40:42Z</time>
      </trkpt>
      <trkpt lat="42.83593" lon="0.55565">
        <ele>1321.421</ele>
        <time>2021-03-21T08:40:44Z</time>
      </trkpt>
      <trkpt lat="42.83591" lon="0.55567">
        <ele>1321.613</ele>
        <time>2021-03-21T08:40:46Z</time>
      </trkpt>
      <trkpt lat="42.8359" lon="0.55569">
        <ele>1321.246</ele>
        <time>2021-03-21T08:40:48Z</time>
      </trkpt>
      <trkpt lat="42.83588" lon="0.5557">
        <ele>1321.39</ele>
        <time>2021-03-21T08:40:50Z</time>
      </trkpt>
      <trkpt lat="42.83587" lon="0.55572">
        <ele>1321.653</ele>
        <time>2021-03-21T08:40:52Z</time>
      </trkpt>
      <trkpt lat="42.83585" lon="0.55573">
        <ele>1322.074</ele>
        <time>2021-03-21T08:40:54Z</time>
      </trkpt>
      <trkpt lat="42.83583" lon="0.55574">
        <ele>1322.269</ele>
        <time>2021-03-21T08:40:56Z</time>
      </trkpt>
      <trkpt lat="42.83581" lon="0.55576">
        <ele>1322.573</ele>
        <time>2021-03-21T08:40:58Z</time>
      </trkpt>
      <trkpt lat="42.83579" lon="0.55578">
        <ele>1322.274</ele>
        <time>2021-03-21T08:41:00Z</time>
      </trkpt>
      <trkpt lat="42.83577" lon="0.55579">
        <ele>1323.028</ele>
        <time>2021-03-21T08:41:02Z</time>
      </trkpt>
      <trkpt lat="42.83576" lon="0.5558">
        <ele>1322.801</ele>
        <time>2021-03-21T08:41:04Z</time>
      </trkpt>
      <trkpt lat="42.83574" lon="0.55582">
        <ele>1322.383</ele>
        <time>2021-03-21T08:41:06Z</time>
      </trkpt>
      <trkpt lat="42.83573" lon="0.55583">
        <ele>1322.712</ele>
        <time>2021-03-21T08:41:08Z</time>
      </trkpt>
      <trkpt lat="42.83571" lon="0.55584">
        <ele>1323.612</ele>
        <time>2021-03-21T08:41:10Z</time>
      </trkpt>
      <trkpt lat="42.83569" lon="0.55585">
        <ele>1324.164</ele>
        <time>2021-03-21T08:41:12Z</time>
      </trkpt>
      <trkpt lat="42.83568" lon="0.55586">
        <ele>1324.781</ele>
        <time>2021-03-21T08:41:14Z</time>
      </trkpt>
      <trkpt lat="42.83566" lon="0.55587">
        <ele>1325.119</ele>
        <time>2021-03-21T08:41:16Z</time>
      </trkpt>
      <trkpt lat="42.83564" lon="0.55588">
        <ele>1325.271</ele>
        <time>2021-03-21T08:41:18Z</time>
      </trkpt>
      <trkpt lat="42.83563" lon="0.55589">
        <ele>1325.431</ele>
        <time>2021-03-21T08:41:20Z</time>
      </trkpt>
      <trkpt lat="42.83561" lon="0.5559">
        <ele>1325.424</ele>
        <time>2021-03-21T08:41:22Z</time>
      </trkpt>
      <trkpt lat="42.83559" lon="0.55591">
        <ele>1326.249</ele>
        <time>2021-03-21T08:41:24Z</time>
      </trkpt>
      <trkpt lat="42.83558" lon="0.55592">
        <ele>1326.029</ele>
        <time>2021-03-21T08:41:26Z</time>
      </trkpt>
      <trkpt lat="42.83556" lon="0.55594">
        <ele>1326.446</ele>
        <time>2021-03-21T08:41:28Z</time>
      </trkpt>
      <trkpt lat="42.83555" lon="0.55596">
        <ele>1326.097</ele>
        <time>2021-03-21T08:41:30Z</time>
      </trkpt>
      <trkpt lat="42.83553" lon="0.55597">
        <ele>1325.913</ele>
        <time>2021-03-21T08:41:32Z</time>
      </trkpt>
      <trkpt lat="42.83551" lon="0.55598">
        <ele>1326.363</ele>
        <time>2021-03-21T08:41:34Z</time>
      </trkpt>
      <trkpt lat="42.8355" lon="0.556">
        <ele>1326.505</ele>
        <time>2021-03-21T08:41:36Z</time>
      </trkpt>
      <trkpt lat="42.83548" lon="0.55602">
        <ele>1327.187</ele>
        <time>2021-03-21T08:41:38Z</time>
      </trkpt>
      <trkpt lat="42.83546" lon="0.55603">
        <ele>1327.918</ele>
        <time>2021-03-21T08:41:40Z</time>
      </trkpt>
      <trkpt lat="42.83545" lon="0.55605">
        <ele>1328.732</ele>
        <time>2021-03-21T08:41:42Z</time>
      </trkpt>
      <trkpt lat="42.83544" lon="0.55606">
        <ele>1329.057</ele>
        <time>2021-03-21T08:41:44Z</time>
      </trkpt>
      <trkpt lat="42.83542" lon="0.55608">
        <ele>1329.718</ele>
        <time>2021-03-21T08:41:46Z</time>
      </trkpt>
      <trkpt lat="42.8354" lon="0.55609">
        <ele>1329.793</ele>
        <time>2021-03-21T08:41:48Z</time>
      </trkpt>
      <trkpt lat="42.83539" lon="0.5561">
        <ele>1329.88</ele>
        <time>2021-03-21T08:41:50Z</time>
      </trkpt>
      <trkpt lat="42.83537" lon="0.55612">
        <ele>1329.836</ele>
        <time>2021-03-21T08:41:52Z</time>
      </trkpt>
      <trkpt lat="42.83536" lon="0.55614">
        <ele>1329.545</ele>
        <time>2021-03-21T08:41:54Z</time>
      </trkpt>
      <trkpt lat="42.83535" lon="0.55615">
        <ele>1329.348</ele>
        <time>2021-03-21T08:41:56Z</time>
      </trkpt>
      <trkpt lat="42.83533" lon="0.55616">
        <ele>1330.789</ele>
        <time>2021-03-21T08:41:58Z</time>
      </trkpt>
      <trkpt lat="42.83531" lon="0.55619">
        <ele>1330.454</ele>
        <time>2021-03-21T08:42:00Z</time>
      </trkpt>
      <trkpt lat="42.8353" lon="0.55621">
        <ele>1330.309</ele>
        <time>2021-03-21T08:42:02Z</time>
      </trkpt>
      <trkpt lat="42.83528" lon="0.55621">
        <ele>1330.729</ele>
        <time>2021-03-21T08:42:04Z</time>
      </trkpt>
      <trkpt lat="42.83526" lon="0.55622">
        <ele>1330.755</ele>
        <time>2021-03-21T08:42:06Z</time>
      </trkpt>
      <trkpt lat="42.83524" lon="0.55624">
        <ele>1330.686</ele>
        <time>2021-03-21T08:42:08Z</time>
      </trkpt>
      <trkpt lat="42.83522" lon="0.55624">
        <ele>1330.815</ele>
        <time>2021-03-21T08:42:10Z</time>
      </trkpt>
      <trkpt lat="42.8352" lon="0.55625">
        <ele>1331.153</ele>
        <time>2021-03-21T08:42:12Z</time>
      </trkpt>
      <trkpt lat="42.83518" lon="0.55627">
        <ele>1331.803</ele>
        <time>2021-03-21T08:42:14Z</time>
      </trkpt>
      <trkpt lat="42.83516" lon="0.55627">
        <ele>1331.388</ele>
        <time>2021-03-21T08:42:16Z</time>
      </trkpt>
      <trkpt lat="42.83514" lon="0.55629">
        <ele>1330.769</ele>
        <time>2021-03-21T08:42:18Z</time>
      </trkpt>
      <trkpt lat="42.83512" lon="0.5563">
        <ele>1330.916</ele>
        <time>2021-03-21T08:42:20Z</time>
      </trkpt>
      <trkpt lat="42.8351" lon="0.55629">
        <ele>1332.564</ele>
        <time>2021-03-21T08:42:22Z</time>
      </trkpt>
      <trkpt lat="42.83508" lon="0.55628">
        <ele>1333.693</ele>
        <time>2021-03-21T08:42:24Z</time>
      </trkpt>
      <trkpt lat="42.83505" lon="0.55629">
        <ele>1334.168</ele>
        <time>2021-03-21T08:42:26Z</time>
      </trkpt>
      <trkpt lat="42.83504" lon="0.55629">
        <ele>1334.194</ele>
        <time>2021-03-21T08:42:28Z</time>
      </trkpt>
      <trkpt lat="42.83501" lon="0.5563">
        <ele>1334.81</ele>
        <time>2021-03-21T08:42:30Z</time>
      </trkpt>
      <trkpt lat="42.835" lon="0.5563">
        <ele>1334.958</ele>
        <time>2021-03-21T08:42:32Z</time>
      </trkpt>
      <trkpt lat="42.83498" lon="0.55631">
        <ele>1334.944</ele>
        <time>2021-03-21T08:42:34Z</time>
      </trkpt>
      <trkpt lat="42.83496" lon="0.5563">
        <ele>1335.648</ele>
        <time>2021-03-21T08:42:36Z</time>
      </trkpt>
      <trkpt lat="42.83494" lon="0.55631">
        <ele>1336.271</ele>
        <time>2021-03-21T08:42:38Z</time>
      </trkpt>
      <trkpt lat="42.83492" lon="0.55631">
        <ele>1337.438</ele>
        <time>2021-03-21T08:42:40Z</time>
      </trkpt>
      <trkpt lat="42.8349" lon="0.5563">
        <ele>1337.805</ele>
        <time>2021-03-21T08:42:42Z</time>
      </trkpt>
      <trkpt lat="42.83488" lon="0.5563">
        <ele>1337.08</ele>
        <time>2021-03-21T08:42:44Z</time>
      </trkpt>
      <trkpt lat="42.83486" lon="0.5563">
        <ele>1337.586</ele>
        <time>2021-03-21T08:42:46Z</time>
      </trkpt>
      <trkpt lat="42.83484" lon="0.55629">
        <ele>1337.843</ele>
        <time>2021-03-21T08:42:48Z</time>
      </trkpt>
      <trkpt lat="42.83482" lon="0.5563">
        <ele>1338.377</ele>
        <time>2021-03-21T08:42:50Z</time>
      </trkpt>
      <trkpt lat="42.8348" lon="0.55629">
        <ele>1338.899</ele>
        <time>2021-03-21T08:42:52Z</time>
      </trkpt>
      <trkpt lat="42.83478" lon="0.55629">
        <ele>1339.432</ele>
        <time>2021-03-21T08:42:54Z</time>
      </trkpt>
      <trkpt lat="42.83476" lon="0.55629">
        <ele>1339.957</ele>
        <time>2021-03-21T08:42:56Z</time>
      </trkpt>
      <trkpt lat="42.83474" lon="0.55629">
        <ele>1340.061</ele>
        <time>2021-03-21T08:42:58Z</time>
      </trkpt>
      <trkpt lat="42.83472" lon="0.5563">
        <ele>1340.258</ele>
        <time>2021-03-21T08:43:00Z</time>
      </trkpt>
      <trkpt lat="42.8347" lon="0.5563">
        <ele>1340.503</ele>
        <time>2021-03-21T08:43:02Z</time>
      </trkpt>
      <trkpt lat="42.83468" lon="0.55629">
        <ele>1342.031</ele>
        <time>2021-03-21T08:43:04Z</time>
      </trkpt>
      <trkpt lat="42.83466" lon="0.55629">
        <ele>1342.949</ele>
        <time>2021-03-21T08:43:06Z</time>
      </trkpt>
      <trkpt lat="42.83465" lon="0.55629">
        <ele>1342.723</ele>
        <time>2021-03-21T08:43:08Z</time>
      </trkpt>
      <trkpt lat="42.83463" lon="0.55629">
        <ele>1342.605</ele>
        <time>2021-03-21T08:43:10Z</time>
      </trkpt>
      <trkpt lat="42.83462" lon="0.5563">
        <ele>1341.846</ele>
        <time>2021-03-21T08:43:12Z</time>
      </trkpt>
      <trkpt lat="42.8346" lon="0.5563">
        <ele>1341.679</ele>
        <time>2021-03-21T08:43:14Z</time>
      </trkpt>
      <trkpt lat="42.83458" lon="0.55631">
        <ele>1341.204</ele>
        <time>2021-03-21T08:43:16Z</time>
      </trkpt>
      <trkpt lat="42.83456" lon="0.55631">
        <ele>1341.844</ele>
        <time>2021-03-21T08:43:18Z</time>
      </trkpt>
      <trkpt lat="42.83455" lon="0.55631">
        <ele>1342.276</ele>
        <time>2021-03-21T08:43:20Z</time>
      </trkpt>
      <trkpt lat="42.83452" lon="0.55632">
        <ele>1343.089</ele>
        <time>2021-03-21T08:43:22Z</time>
      </trkpt>
      <trkpt lat="42.83451" lon="0.55633">
        <ele>1343.512</ele>
        <time>2021-03-21T08:43:24Z</time>
      </trkpt>
      <trkpt lat="42.83449" lon="0.55633">
        <ele>1343.862</ele>
        <time>2021-03-21T08:43:26Z</time>
      </trkpt>
      <trkpt lat="42.83447" lon="0.55633">
        <ele>1344.492</ele>
        <time>2021-03-21T08:43:28Z</time>
      </trkpt>
      <trkpt lat="42.83445" lon="0.55634">
        <ele>1344.26</ele>
        <time>2021-03-21T08:43:30Z</time>
      </trkpt>
      <trkpt lat="42.83444" lon="0.55635">
        <ele>1344.201</ele>
        <time>2021-03-21T08:43:32Z</time>
      </trkpt>
      <trkpt lat="42.83442" lon="0.55635">
        <ele>1344.007</ele>
        <time>2021-03-21T08:43:34Z</time>
      </trkpt>
      <trkpt lat="42.8344" lon="0.55636">
        <ele>1344.63</ele>
        <time>2021-03-21T08:43:36Z</time>
      </trkpt>
      <trkpt lat="42.83438" lon="0.55637">
        <ele>1345.226</ele>
        <time>2021-03-21T08:43:38Z</time>
      </trkpt>
      <trkpt lat="42.83436" lon="0.55638">
        <ele>1345.215</ele>
        <time>2021-03-21T08:43:40Z</time>
      </trkpt>
      <trkpt lat="42.83434" lon="0.55638">
        <ele>1346.175</ele>
        <time>2021-03-21T08:43:42Z</time>
      </trkpt>
      <trkpt lat="42.83432" lon="0.55638">
        <ele>1346.745</ele>
        <time>2021-03-21T08:43:44Z</time>
      </trkpt>
      <trkpt lat="42.8343" lon="0.55638">
        <ele>1346.71</ele>
        <time>2021-03-21T08:43:46Z</time>
      </trkpt>
      <trkpt lat="42.83428" lon="0.55639">
        <ele>1347.112</ele>
        <time>2021-03-21T08:43:48Z</time>
      </trkpt>
      <trkpt lat="42.83426" lon="0.5564">
        <ele>1347.665</ele>
        <time>2021-03-21T08:43:50Z</time>
      </trkpt>
      <trkpt lat="42.83425" lon="0.5564">
        <ele>1347.701</ele>
        <time>2021-03-21T08:43:52Z</time>
      </trkpt>
      <trkpt lat="42.83423" lon="0.5564">
        <ele>1348.908</ele>
        <time>2021-03-21T08:43:54Z</time>
      </trkpt>
      <trkpt lat="42.83421" lon="0.55641">
        <ele>1349.346</ele>
        <time>2021-03-21T08:43:56Z</time>
      </trkpt>
      <trkpt lat="42.8342" lon="0.55641">
        <ele>1349.956</ele>
        <time>2021-03-21T08:43:58Z</time>
      </trkpt>
      <trkpt lat="42.83418" lon="0.55641">
        <ele>1350.193</ele>
        <time>2021-03-21T08:44:00Z</time>
      </trkpt>
      <trkpt lat="42.83416" lon="0.55642">
        <ele>1350.191</ele>
        <time>2021-03-21T08:44:02Z</time>
      </trkpt>
      <trkpt lat="42.83414" lon="0.55642">
        <ele>1350.631</ele>
        <time>2021-03-21T08:44:04Z</time>
      </trkpt>
      <trkpt lat="42.83413" lon="0.55642">
        <ele>1351.66</ele>
        <time>2021-03-21T08:44:06Z</time>
      </trkpt>
      <trkpt lat="42.83411" lon="0.55642">
        <ele>1351.824</ele>
        <time>2021-03-21T08:44:08Z</time>
      </trkpt>
      <trkpt lat="42.83409" lon="0.55643">
        <ele>1351.045</ele>
        <time>2021-03-21T08:44:10Z</time>
      </trkpt>
      <trkpt lat="42.83407" lon="0.55644">
        <ele>1351.748</ele>
        <time>2021-03-21T08:44:12Z</time>
      </trkpt>
      <trkpt lat="42.83406" lon="0.55645">
        <ele>1351.108</ele>
        <time>2021-03-21T08:44:14Z</time>
      </trkpt>
      <trkpt lat="42.83404" lon="0.55645">
        <ele>1351.932</ele>
        <time>2021-03-21T08:44:16Z</time>
      </trkpt>
      <trkpt lat="42.83402" lon="0.55645">
        <ele>1352.261</ele>
        <time>2021-03-21T08:44:18Z</time>
      </trkpt>
      <trkpt lat="42.83401" lon="0.55646">
        <ele>1352.985</ele>
        <time>2021-03-21T08:44:20Z</time>
      </trkpt>
      <trkpt lat="42.83399" lon="0.55646">
        <ele>1353.09</ele>
        <time>2021-03-21T08:44:22Z</time>
      </trkpt>
      <trkpt lat="42.83397" lon="0.55647">
        <ele>1352.711</ele>
        <time>2021-03-21T08:44:24Z</time>
      </trkpt>
      <trkpt lat="42.83395" lon="0.55647">
        <ele>1353.132</ele>
        <time>2021-03-21T08:44:26Z</time>
      </trkpt>
      <trkpt lat="42.83393" lon="0.55646">
        <ele>1353.719</ele>
        <time>2021-03-21T08:44:28Z</time>
      </trkpt>
      <trkpt lat="42.83392" lon="0.55646">
        <ele>1353.965</ele>
        <time>2021-03-21T08:44:30Z</time>
      </trkpt>
      <trkpt lat="42.8339" lon="0.55647">
        <ele>1353.839</ele>
        <time>2021-03-21T08:44:32Z</time>
      </trkpt>
      <trkpt lat="42.83388" lon="0.55646">
        <ele>1354.659</ele>
        <time>2021-03-21T08:44:34Z</time>
      </trkpt>
      <trkpt lat="42.83387" lon="0.55646">
        <ele>1355.134</ele>
        <time>2021-03-21T08:44:36Z</time>
      </trkpt>
      <trkpt lat="42.83385" lon="0.55646">
        <ele>1356.131</ele>
        <time>2021-03-21T08:44:38Z</time>
      </trkpt>
      <trkpt lat="42.83384" lon="0.55645">
        <ele>1356.017</ele>
        <time>2021-03-21T08:44:40Z</time>
      </trkpt>
      <trkpt lat="42.83382" lon="0.55646">
        <ele>1356.436</ele>
        <time>2021-03-21T08:44:42Z</time>
      </trkpt>
      <trkpt lat="42.8338" lon="0.55646">
        <ele>1356.624</ele>
        <time>2021-03-21T08:44:44Z</time>
      </trkpt>
      <trkpt lat="42.83379" lon="0.55646">
        <ele>1356.642</ele>
        <time>2021-03-21T08:44:46Z</time>
      </trkpt>
      <trkpt lat="42.83377" lon="0.55646">
        <ele>1355.926</ele>
        <time>2021-03-21T08:44:48Z</time>
      </trkpt>
      <trkpt lat="42.83375" lon="0.55647">
        <ele>1356.02</ele>
        <time>2021-03-21T08:44:50Z</time>
      </trkpt>
      <trkpt lat="42.83374" lon="0.55647">
        <ele>1356.274</ele>
        <time>2021-03-21T08:44:52Z</time>
      </trkpt>
      <trkpt lat="42.83372" lon="0.55647">
        <ele>1356.255</ele>
        <time>2021-03-21T08:44:54Z</time>
      </trkpt>
      <trkpt lat="42.83371" lon="0.55647">
        <ele>1355.915</ele>
        <time>2021-03-21T08:44:56Z</time>
      </trkpt>
      <trkpt lat="42.83368" lon="0.55647">
        <ele>1356.664</ele>
        <time>2021-03-21T08:44:58Z</time>
      </trkpt>
      <trkpt lat="42.83367" lon="0.55647">
        <ele>1357.449</ele>
        <time>2021-03-21T08:45:00Z</time>
      </trkpt>
      <trkpt lat="42.83365" lon="0.55647">
        <ele>1358.302</ele>
        <time>2021-03-21T08:45:02Z</time>
      </trkpt>
      <trkpt lat="42.83363" lon="0.55647">
        <ele>1358.571</ele>
        <time>2021-03-21T08:45:04Z</time>
      </trkpt>
      <trkpt lat="42.83361" lon="0.55647">
        <ele>1359.514</ele>
        <time>2021-03-21T08:45:06Z</time>
      </trkpt>
      <trkpt lat="42.83359" lon="0.55647">
        <ele>1360.312</ele>
        <time>2021-03-21T08:45:08Z</time>
      </trkpt>
      <trkpt lat="42.83358" lon="0.55648">
        <ele>1360.369</ele>
        <time>2021-03-21T08:45:10Z</time>
      </trkpt>
      <trkpt lat="42.83357" lon="0.55648">
        <ele>1360.252</ele>
        <time>2021-03-21T08:45:12Z</time>
      </trkpt>
      <trkpt lat="42.83355" lon="0.55647">
        <ele>1360.726</ele>
        <time>2021-03-21T08:45:14Z</time>
      </trkpt>
      <trkpt lat="42.83353" lon="0.55647">
        <ele>1361.012</ele>
        <time>2021-03-21T08:45:16Z</time>
      </trkpt>
      <trkpt lat="42.83351" lon="0.55648">
        <ele>1360.59</ele>
        <time>2021-03-21T08:45:18Z</time>
      </trkpt>
      <trkpt lat="42.83349" lon="0.55648">
        <ele>1361.204</ele>
        <time>2021-03-21T08:45:20Z</time>
      </trkpt>
      <trkpt lat="42.83348" lon="0.55648">
        <ele>1362.352</ele>
        <time>2021-03-21T08:45:22Z</time>
      </trkpt>
      <trkpt lat="42.83346" lon="0.55649">
        <ele>1362.48</ele>
        <time>2021-03-21T08:45:24Z</time>
      </trkpt>
      <trkpt lat="42.83344" lon="0.55649">
        <ele>1362.166</ele>
        <time>2021-03-21T08:45:26Z</time>
      </trkpt>
      <trkpt lat="42.83343" lon="0.55649">
        <ele>1362.335</ele>
        <time>2021-03-21T08:45:28Z</time>
      </trkpt>
      <trkpt lat="42.83342" lon="0.5565">
        <ele>1362.699</ele>
        <time>2021-03-21T08:45:30Z</time>
      </trkpt>
      <trkpt lat="42.8334" lon="0.55649">
        <ele>1363.373</ele>
        <time>2021-03-21T08:45:32Z</time>
      </trkpt>
      <trkpt lat="42.83339" lon="0.55649">
        <ele>1363.973</ele>
        <time>2021-03-21T08:45:34Z</time>
      </trkpt>
      <trkpt lat="42.83337" lon="0.55649">
        <ele>1363.955</ele>
        <time>2021-03-21T08:45:36Z</time>
      </trkpt>
      <trkpt lat="42.83335" lon="0.5565">
        <ele>1364.232</ele>
        <time>2021-03-21T08:45:38Z</time>
      </trkpt>
      <trkpt lat="42.83334" lon="0.5565">
        <ele>1364.629</ele>
        <time>2021-03-21T08:45:40Z</time>
      </trkpt>
      <trkpt lat="42.83332" lon="0.5565">
        <ele>1364.395</ele>
        <time>2021-03-21T08:45:42Z</time>
      </trkpt>
      <trkpt lat="42.8333" lon="0.5565">
        <ele>1364.413</ele>
        <time>2021-03-21T08:45:44Z</time>
      </trkpt>
      <trkpt lat="42.83328" lon="0.5565">
        <ele>1364.521</ele>
        <time>2021-03-21T08:45:46Z</time>
      </trkpt>
      <trkpt lat="42.83327" lon="0.55651">
        <ele>1364.432</ele>
        <time>2021-03-21T08:45:48Z</time>
      </trkpt>
      <trkpt lat="42.83325" lon="0.55651">
        <ele>1365.564</ele>
        <time>2021-03-21T08:45:50Z</time>
      </trkpt>
      <trkpt lat="42.83324" lon="0.55652">
        <ele>1365.834</ele>
        <time>2021-03-21T08:45:52Z</time>
      </trkpt>
      <trkpt lat="42.83322" lon="0.55653">
        <ele>1366.142</ele>
        <time>2021-03-21T08:45:54Z</time>
      </trkpt>
      <trkpt lat="42.8332" lon="0.55653">
        <ele>1366.506</ele>
        <time>2021-03-21T08:45:56Z</time>
      </trkpt>
      <trkpt lat="42.83319" lon="0.55654">
        <ele>1366.835</ele>
        <time>2021-03-21T08:45:58Z</time>
      </trkpt>
      <trkpt lat="42.83317" lon="0.55654">
        <ele>1367.022</ele>
        <time>2021-03-21T08:46:00Z</time>
      </trkpt>
      <trkpt lat="42.83315" lon="0.55654">
        <ele>1367.889</ele>
        <time>2021-03-21T08:46:02Z</time>
      </trkpt>
      <trkpt lat="42.83313" lon="0.55655">
        <ele>1368.069</ele>
        <time>2021-03-21T08:46:04Z</time>
      </trkpt>
      <trkpt lat="42.83311" lon="0.55656">
        <ele>1367.757</ele>
        <time>2021-03-21T08:46:06Z</time>
      </trkpt>
      <trkpt lat="42.83309" lon="0.55657">
        <ele>1367.907</ele>
        <time>2021-03-21T08:46:08Z</time>
      </trkpt>
      <trkpt lat="42.83307" lon="0.55658">
        <ele>1368.037</ele>
        <time>2021-03-21T08:46:10Z</time>
      </trkpt>
      <trkpt lat="42.83306" lon="0.55658">
        <ele>1368.315</ele>
        <time>2021-03-21T08:46:12Z</time>
      </trkpt>
      <trkpt lat="42.83304" lon="0.55659">
        <ele>1369.261</ele>
        <time>2021-03-21T08:46:14Z</time>
      </trkpt>
      <trkpt lat="42.83303" lon="0.5566">
        <ele>1369.794</ele>
        <time>2021-03-21T08:46:16Z</time>
      </trkpt>
      <trkpt lat="42.83301" lon="0.55662">
        <ele>1369.694</ele>
        <time>2021-03-21T08:46:18Z</time>
      </trkpt>
      <trkpt lat="42.833" lon="0.55663">
        <ele>1370.85</ele>
        <time>2021-03-21T08:46:20Z</time>
      </trkpt>
      <trkpt lat="42.83298" lon="0.55663">
        <ele>1371.498</ele>
        <time>2021-03-21T08:46:22Z</time>
      </trkpt>
      <trkpt lat="42.83297" lon="0.55664">
        <ele>1371.362</ele>
        <time>2021-03-21T08:46:24Z</time>
      </trkpt>
      <trkpt lat="42.83295" lon="0.55665">
        <ele>1372.198</ele>
        <time>2021-03-21T08:46:26Z</time>
      </trkpt>
      <trkpt lat="42.83294" lon="0.55666">
        <ele>1372.831</ele>
        <time>2021-03-21T08:46:28Z</time>
      </trkpt>
      <trkpt lat="42.83292" lon="0.55667">
        <ele>1373.525</ele>
        <time>2021-03-21T08:46:30Z</time>
      </trkpt>
      <trkpt lat="42.83291" lon="0.55668">
        <ele>1374.005</ele>
        <time>2021-03-21T08:46:32Z</time>
      </trkpt>
      <trkpt lat="42.83289" lon="0.55669">
        <ele>1374.215</ele>
        <time>2021-03-21T08:46:34Z</time>
      </trkpt>
      <trkpt lat="42.83287" lon="0.5567">
        <ele>1374.249</ele>
        <time>2021-03-21T08:46:36Z</time>
      </trkpt>
      <trkpt lat="42.83285" lon="0.55671">
        <ele>1374.05</ele>
        <time>2021-03-21T08:46:38Z</time>
      </trkpt>
      <trkpt lat="42.83283" lon="0.55672">
        <ele>1374.646</ele>
        <time>2021-03-21T08:46:40Z</time>
      </trkpt>
      <trkpt lat="42.83282" lon="0.55673">
        <ele>1374.263</ele>
        <time>2021-03-21T08:46:42Z</time>
      </trkpt>
      <trkpt lat="42.8328" lon="0.55673">
        <ele>1373.724</ele>
        <time>2021-03-21T08:46:44Z</time>
      </trkpt>
      <trkpt lat="42.83279" lon="0.55674">
        <ele>1373.743</ele>
        <time>2021-03-21T08:46:46Z</time>
      </trkpt>
      <trkpt lat="42.83279" lon="0.55674">
        <ele>1373.764</ele>
        <time>2021-03-21T08:46:48Z</time>
      </trkpt>
      <trkpt lat="42.83279" lon="0.55674">
        <ele>1374.04</ele>
        <time>2021-03-21T08:46:50Z</time>
      </trkpt>
      <trkpt lat="42.83278" lon="0.55676">
        <ele>1374.34</ele>
        <time>2021-03-21T08:46:52Z</time>
      </trkpt>
      <trkpt lat="42.83277" lon="0.55677">
        <ele>1374.791</ele>
        <time>2021-03-21T08:46:54Z</time>
      </trkpt>
      <trkpt lat="42.83276" lon="0.55678">
        <ele>1374.818</ele>
        <time>2021-03-21T08:46:56Z</time>
      </trkpt>
      <trkpt lat="42.83275" lon="0.55678">
        <ele>1374.831</ele>
        <time>2021-03-21T08:46:58Z</time>
      </trkpt>
      <trkpt lat="42.83275" lon="0.55678">
        <ele>1374.833</ele>
        <time>2021-03-21T08:47:00Z</time>
      </trkpt>
      <trkpt lat="42.83275" lon="0.55678">
        <ele>1374.834</ele>
        <time>2021-03-21T08:47:02Z</time>
      </trkpt>
      <trkpt lat="42.83275" lon="0.55678">
        <ele>1374.829</ele>
        <time>2021-03-21T08:47:04Z</time>
      </trkpt>
      <trkpt lat="42.83275" lon="0.55678">
        <ele>1374.551</ele>
        <time>2021-03-21T08:47:06Z</time>
      </trkpt>
      <trkpt lat="42.83275" lon="0.55678">
        <ele>1374.549</ele>
        <time>2021-03-21T08:47:08Z</time>
      </trkpt>
      <trkpt lat="42.83275" lon="0.55678">
        <ele>1374.561</ele>
        <time>2021-03-21T08:47:10Z</time>
      </trkpt>
      <trkpt lat="42.83276" lon="0.55677">
        <ele>1374.817</ele>
        <time>2021-03-21T08:47:12Z</time>
      </trkpt>
      <trkpt lat="42.83276" lon="0.55677">
        <ele>1374.823</ele>
        <time>2021-03-21T08:47:14Z</time>
      </trkpt>
      <trkpt lat="42.83276" lon="0.55677">
        <ele>1374.827</ele>
        <time>2021-03-21T08:47:16Z</time>
      </trkpt>
      <trkpt lat="42.83276" lon="0.55677">
        <ele>1374.829</ele>
        <time>2021-03-21T08:47:18Z</time>
      </trkpt>
      <trkpt lat="42.83276" lon="0.55677">
        <ele>1374.831</ele>
        <time>2021-03-21T08:47:20Z</time>
      </trkpt>
      <trkpt lat="42.83276" lon="0.55678">
        <ele>1375.496</ele>
        <time>2021-03-21T08:47:22Z</time>
      </trkpt>
      <trkpt lat="42.83276" lon="0.55679">
        <ele>1375.725</ele>
        <time>2021-03-21T08:47:24Z</time>
      </trkpt>
      <trkpt lat="42.83273" lon="0.5568">
        <ele>1376.052</ele>
        <time>2021-03-21T08:47:26Z</time>
      </trkpt>
      <trkpt lat="42.83272" lon="0.55681">
        <ele>1375.234</ele>
        <time>2021-03-21T08:47:28Z</time>
      </trkpt>
      <trkpt lat="42.83273" lon="0.55681">
        <ele>1375.034</ele>
        <time>2021-03-21T08:47:30Z</time>
      </trkpt>
      <trkpt lat="42.83272" lon="0.55682">
        <ele>1375.033</ele>
        <time>2021-03-21T08:47:32Z</time>
      </trkpt>
      <trkpt lat="42.83273" lon="0.55684">
        <ele>1375.17</ele>
        <time>2021-03-21T08:47:34Z</time>
      </trkpt>
      <trkpt lat="42.83274" lon="0.55687">
        <ele>1376.373</ele>
        <time>2021-03-21T08:47:36Z</time>
      </trkpt>
      <trkpt lat="42.83276" lon="0.55689">
        <ele>1377.202</ele>
        <time>2021-03-21T08:47:38Z</time>
      </trkpt>
      <trkpt lat="42.83278" lon="0.5569">
        <ele>1377.571</ele>
        <time>2021-03-21T08:47:40Z</time>
      </trkpt>
      <trkpt lat="42.83279" lon="0.55692">
        <ele>1378.222</ele>
        <time>2021-03-21T08:47:42Z</time>
      </trkpt>
      <trkpt lat="42.83281" lon="0.55692">
        <ele>1379.016</ele>
        <time>2021-03-21T08:47:44Z</time>
      </trkpt>
      <trkpt lat="42.83284" lon="0.55693">
        <ele>1379.365</ele>
        <time>2021-03-21T08:47:46Z</time>
      </trkpt>
      <trkpt lat="42.83286" lon="0.55693">
        <ele>1379.251</ele>
        <time>2021-03-21T08:47:48Z</time>
      </trkpt>
      <trkpt lat="42.83288" lon="0.55693">
        <ele>1379.238</ele>
        <time>2021-03-21T08:47:50Z</time>
      </trkpt>
      <trkpt lat="42.8329" lon="0.55693">
        <ele>1379.966</ele>
        <time>2021-03-21T08:47:52Z</time>
      </trkpt>
      <trkpt lat="42.83292" lon="0.55692">
        <ele>1380.197</ele>
        <time>2021-03-21T08:47:54Z</time>
      </trkpt>
      <trkpt lat="42.83294" lon="0.55693">
        <ele>1379.721</ele>
        <time>2021-03-21T08:47:56Z</time>
      </trkpt>
      <trkpt lat="42.83296" lon="0.55692">
        <ele>1380.191</ele>
        <time>2021-03-21T08:47:58Z</time>
      </trkpt>
      <trkpt lat="42.83298" lon="0.55692">
        <ele>1380.17</ele>
        <time>2021-03-21T08:48:00Z</time>
      </trkpt>
      <trkpt lat="42.833" lon="0.55692">
        <ele>1381.445</ele>
        <time>2021-03-21T08:48:02Z</time>
      </trkpt>
      <trkpt lat="42.83302" lon="0.55693">
        <ele>1381.862</ele>
        <time>2021-03-21T08:48:04Z</time>
      </trkpt>
      <trkpt lat="42.83304" lon="0.55694">
        <ele>1381.993</ele>
        <time>2021-03-21T08:48:06Z</time>
      </trkpt>
      <trkpt lat="42.83306" lon="0.55695">
        <ele>1382.458</ele>
        <time>2021-03-21T08:48:08Z</time>
      </trkpt>
      <trkpt lat="42.83307" lon="0.55695">
        <ele>1383.057</ele>
        <time>2021-03-21T08:48:10Z</time>
      </trkpt>
      <trkpt lat="42.83309" lon="0.55696">
        <ele>1383.706</ele>
        <time>2021-03-21T08:48:12Z</time>
      </trkpt>
      <trkpt lat="42.83311" lon="0.55696">
        <ele>1385.069</ele>
        <time>2021-03-21T08:48:14Z</time>
      </trkpt>
      <trkpt lat="42.83313" lon="0.55697">
        <ele>1385.482</ele>
        <time>2021-03-21T08:48:16Z</time>
      </trkpt>
      <trkpt lat="42.83314" lon="0.55698">
        <ele>1385.482</ele>
        <time>2021-03-21T08:48:18Z</time>
      </trkpt>
      <trkpt lat="42.83315" lon="0.55699">
        <ele>1387.008</ele>
        <time>2021-03-21T08:48:20Z</time>
      </trkpt>
      <trkpt lat="42.83317" lon="0.557">
        <ele>1386.97</ele>
        <time>2021-03-21T08:48:22Z</time>
      </trkpt>
      <trkpt lat="42.83318" lon="0.55701">
        <ele>1387.297</ele>
        <time>2021-03-21T08:48:24Z</time>
      </trkpt>
      <trkpt lat="42.8332" lon="0.55702">
        <ele>1386.68</ele>
        <time>2021-03-21T08:48:26Z</time>
      </trkpt>
      <trkpt lat="42.83322" lon="0.55703">
        <ele>1387.222</ele>
        <time>2021-03-21T08:48:28Z</time>
      </trkpt>
      <trkpt lat="42.83324" lon="0.55704">
        <ele>1387.026</ele>
        <time>2021-03-21T08:48:30Z</time>
      </trkpt>
      <trkpt lat="42.83326" lon="0.55705">
        <ele>1387.009</ele>
        <time>2021-03-21T08:48:32Z</time>
      </trkpt>
      <trkpt lat="42.83328" lon="0.55706">
        <ele>1386.891</ele>
        <time>2021-03-21T08:48:34Z</time>
      </trkpt>
      <trkpt lat="42.83329" lon="0.55708">
        <ele>1388.108</ele>
        <time>2021-03-21T08:48:36Z</time>
      </trkpt>
      <trkpt lat="42.83331" lon="0.55709">
        <ele>1387.934</ele>
        <time>2021-03-21T08:48:38Z</time>
      </trkpt>
      <trkpt lat="42.83332" lon="0.55711">
        <ele>1389.457</ele>
        <time>2021-03-21T08:48:40Z</time>
      </trkpt>
      <trkpt lat="42.83334" lon="0.55713">
        <ele>1391.521</ele>
        <time>2021-03-21T08:48:42Z</time>
      </trkpt>
      <trkpt lat="42.83336" lon="0.55714">
        <ele>1392.545</ele>
        <time>2021-03-21T08:48:44Z</time>
      </trkpt>
      <trkpt lat="42.83337" lon="0.55716">
        <ele>1392.772</ele>
        <time>2021-03-21T08:48:46Z</time>
      </trkpt>
      <trkpt lat="42.83338" lon="0.55719">
        <ele>1391.732</ele>
        <time>2021-03-21T08:48:48Z</time>
      </trkpt>
      <trkpt lat="42.83338" lon="0.5572">
        <ele>1391.901</ele>
        <time>2021-03-21T08:48:50Z</time>
      </trkpt>
      <trkpt lat="42.83338" lon="0.55722">
        <ele>1391.219</ele>
        <time>2021-03-21T08:48:52Z</time>
      </trkpt>
      <trkpt lat="42.83337" lon="0.55724">
        <ele>1390.244</ele>
        <time>2021-03-21T08:48:54Z</time>
      </trkpt>
      <trkpt lat="42.83337" lon="0.55726">
        <ele>1389.396</ele>
        <time>2021-03-21T08:48:56Z</time>
      </trkpt>
      <trkpt lat="42.83336" lon="0.55727">
        <ele>1388.609</ele>
        <time>2021-03-21T08:48:58Z</time>
      </trkpt>
      <trkpt lat="42.83334" lon="0.55728">
        <ele>1387.597</ele>
        <time>2021-03-21T08:49:00Z</time>
      </trkpt>
      <trkpt lat="42.83332" lon="0.55728">
        <ele>1387.186</ele>
        <time>2021-03-21T08:49:02Z</time>
      </trkpt>
      <trkpt lat="42.83331" lon="0.55728">
        <ele>1387.78</ele>
        <time>2021-03-21T08:49:04Z</time>
      </trkpt>
      <trkpt lat="42.83329" lon="0.55728">
        <ele>1388.306</ele>
        <time>2021-03-21T08:49:06Z</time>
      </trkpt>
      <trkpt lat="42.83328" lon="0.55728">
        <ele>1387.791</ele>
        <time>2021-03-21T08:49:08Z</time>
      </trkpt>
      <trkpt lat="42.83326" lon="0.55728">
        <ele>1388.17</ele>
        <time>2021-03-21T08:49:10Z</time>
      </trkpt>
      <trkpt lat="42.83325" lon="0.55728">
        <ele>1387.974</ele>
        <time>2021-03-21T08:49:12Z</time>
      </trkpt>
      <trkpt lat="42.83323" lon="0.55728">
        <ele>1388.887</ele>
        <time>2021-03-21T08:49:14Z</time>
      </trkpt>
      <trkpt lat="42.83322" lon="0.55728">
        <ele>1389.553</ele>
        <time>2021-03-21T08:49:16Z</time>
      </trkpt>
      <trkpt lat="42.8332" lon="0.55728">
        <ele>1389.009</ele>
        <time>2021-03-21T08:49:18Z</time>
      </trkpt>
      <trkpt lat="42.83319" lon="0.55728">
        <ele>1388.704</ele>
        <time>2021-03-21T08:49:20Z</time>
      </trkpt>
      <trkpt lat="42.83317" lon="0.55728">
        <ele>1389.807</ele>
        <time>2021-03-21T08:49:22Z</time>
      </trkpt>
      <trkpt lat="42.83316" lon="0.55728">
        <ele>1389.334</ele>
        <time>2021-03-21T08:49:24Z</time>
      </trkpt>
      <trkpt lat="42.83314" lon="0.55729">
        <ele>1389.037</ele>
        <time>2021-03-21T08:49:26Z</time>
      </trkpt>
      <trkpt lat="42.83312" lon="0.55729">
        <ele>1389.36</ele>
        <time>2021-03-21T08:49:28Z</time>
      </trkpt>
      <trkpt lat="42.83311" lon="0.5573">
        <ele>1390.368</ele>
        <time>2021-03-21T08:49:30Z</time>
      </trkpt>
      <trkpt lat="42.83309" lon="0.5573">
        <ele>1389.546</ele>
        <time>2021-03-21T08:49:32Z</time>
      </trkpt>
      <trkpt lat="42.83307" lon="0.55731">
        <ele>1390.426</ele>
        <time>2021-03-21T08:49:34Z</time>
      </trkpt>
      <trkpt lat="42.83305" lon="0.55732">
        <ele>1389.998</ele>
        <time>2021-03-21T08:49:36Z</time>
      </trkpt>
      <trkpt lat="42.83304" lon="0.55732">
        <ele>1390.637</ele>
        <time>2021-03-21T08:49:38Z</time>
      </trkpt>
      <trkpt lat="42.83302" lon="0.55733">
        <ele>1390.166</ele>
        <time>2021-03-21T08:49:40Z</time>
      </trkpt>
      <trkpt lat="42.833" lon="0.55734">
        <ele>1390.615</ele>
        <time>2021-03-21T08:49:42Z</time>
      </trkpt>
      <trkpt lat="42.83299" lon="0.55735">
        <ele>1389.61</ele>
        <time>2021-03-21T08:49:44Z</time>
      </trkpt>
      <trkpt lat="42.83297" lon="0.55736">
        <ele>1390.295</ele>
        <time>2021-03-21T08:49:46Z</time>
      </trkpt>
      <trkpt lat="42.83296" lon="0.55736">
        <ele>1390.957</ele>
        <time>2021-03-21T08:49:48Z</time>
      </trkpt>
      <trkpt lat="42.83294" lon="0.55737">
        <ele>1391.839</ele>
        <time>2021-03-21T08:49:50Z</time>
      </trkpt>
      <trkpt lat="42.83292" lon="0.55738">
        <ele>1392.495</ele>
        <time>2021-03-21T08:49:52Z</time>
      </trkpt>
      <trkpt lat="42.83291" lon="0.55738">
        <ele>1392.495</ele>
        <time>2021-03-21T08:49:54Z</time>
      </trkpt>
      <trkpt lat="42.83289" lon="0.55739">
        <ele>1393.486</ele>
        <time>2021-03-21T08:49:56Z</time>
      </trkpt>
      <trkpt lat="42.83287" lon="0.5574">
        <ele>1393.817</ele>
        <time>2021-03-21T08:49:58Z</time>
      </trkpt>
      <trkpt lat="42.83285" lon="0.55741">
        <ele>1394.018</ele>
        <time>2021-03-21T08:50:00Z</time>
      </trkpt>
      <trkpt lat="42.83283" lon="0.55742">
        <ele>1393.613</ele>
        <time>2021-03-21T08:50:03Z</time>
      </trkpt>
      <trkpt lat="42.83281" lon="0.55743">
        <ele>1394.208</ele>
        <time>2021-03-21T08:50:05Z</time>
      </trkpt>
      <trkpt lat="42.8328" lon="0.55745">
        <ele>1394.499</ele>
        <time>2021-03-21T08:50:07Z</time>
      </trkpt>
      <trkpt lat="42.83278" lon="0.55747">
        <ele>1395.682</ele>
        <time>2021-03-21T08:50:09Z</time>
      </trkpt>
      <trkpt lat="42.83278" lon="0.55749">
        <ele>1395.714</ele>
        <time>2021-03-21T08:50:11Z</time>
      </trkpt>
      <trkpt lat="42.8328" lon="0.55751">
        <ele>1396.409</ele>
        <time>2021-03-21T08:50:13Z</time>
      </trkpt>
      <trkpt lat="42.83279" lon="0.55754">
        <ele>1397.877</ele>
        <time>2021-03-21T08:50:15Z</time>
      </trkpt>
      <trkpt lat="42.83279" lon="0.55755">
        <ele>1397.554</ele>
        <time>2021-03-21T08:50:17Z</time>
      </trkpt>
      <trkpt lat="42.83278" lon="0.55758">
        <ele>1398.424</ele>
        <time>2021-03-21T08:50:19Z</time>
      </trkpt>
      <trkpt lat="42.83279" lon="0.5576">
        <ele>1399.205</ele>
        <time>2021-03-21T08:50:21Z</time>
      </trkpt>
      <trkpt lat="42.83281" lon="0.55761">
        <ele>1400.19</ele>
        <time>2021-03-21T08:50:23Z</time>
      </trkpt>
      <trkpt lat="42.83282" lon="0.55761">
        <ele>1400.395</ele>
        <time>2021-03-21T08:50:25Z</time>
      </trkpt>
      <trkpt lat="42.83284" lon="0.55761">
        <ele>1400.586</ele>
        <time>2021-03-21T08:50:27Z</time>
      </trkpt>
      <trkpt lat="42.83285" lon="0.5576">
        <ele>1400.933</ele>
        <time>2021-03-21T08:50:29Z</time>
      </trkpt>
      <trkpt lat="42.83287" lon="0.55758">
        <ele>1400.774</ele>
        <time>2021-03-21T08:50:31Z</time>
      </trkpt>
      <trkpt lat="42.83288" lon="0.55757">
        <ele>1400.712</ele>
        <time>2021-03-21T08:50:33Z</time>
      </trkpt>
      <trkpt lat="42.83289" lon="0.55757">
        <ele>1400.974</ele>
        <time>2021-03-21T08:50:35Z</time>
      </trkpt>
      <trkpt lat="42.83291" lon="0.55757">
        <ele>1401.481</ele>
        <time>2021-03-21T08:50:37Z</time>
      </trkpt>
      <trkpt lat="42.83292" lon="0.55756">
        <ele>1402.478</ele>
        <time>2021-03-21T08:50:39Z</time>
      </trkpt>
      <trkpt lat="42.83294" lon="0.55756">
        <ele>1403.003</ele>
        <time>2021-03-21T08:50:41Z</time>
      </trkpt>
      <trkpt lat="42.83295" lon="0.55755">
        <ele>1403.396</ele>
        <time>2021-03-21T08:50:43Z</time>
      </trkpt>
      <trkpt lat="42.83297" lon="0.55754">
        <ele>1403.17</ele>
        <time>2021-03-21T08:50:45Z</time>
      </trkpt>
      <trkpt lat="42.83298" lon="0.55755">
        <ele>1403.093</ele>
        <time>2021-03-21T08:50:47Z</time>
      </trkpt>
      <trkpt lat="42.833" lon="0.55754">
        <ele>1403.16</ele>
        <time>2021-03-21T08:50:49Z</time>
      </trkpt>
      <trkpt lat="42.83301" lon="0.55754">
        <ele>1402.413</ele>
        <time>2021-03-21T08:50:51Z</time>
      </trkpt>
      <trkpt lat="42.83303" lon="0.55754">
        <ele>1404.241</ele>
        <time>2021-03-21T08:50:53Z</time>
      </trkpt>
      <trkpt lat="42.83304" lon="0.55754">
        <ele>1405.348</ele>
        <time>2021-03-21T08:50:55Z</time>
      </trkpt>
      <trkpt lat="42.83306" lon="0.55754">
        <ele>1405.643</ele>
        <time>2021-03-21T08:50:57Z</time>
      </trkpt>
      <trkpt lat="42.83308" lon="0.55754">
        <ele>1405.277</ele>
        <time>2021-03-21T08:50:59Z</time>
      </trkpt>
      <trkpt lat="42.8331" lon="0.55755">
        <ele>1405.724</ele>
        <time>2021-03-21T08:51:01Z</time>
      </trkpt>
      <trkpt lat="42.83311" lon="0.55755">
        <ele>1406.295</ele>
        <time>2021-03-21T08:51:03Z</time>
      </trkpt>
      <trkpt lat="42.83313" lon="0.55756">
        <ele>1406.425</ele>
        <time>2021-03-21T08:51:05Z</time>
      </trkpt>
      <trkpt lat="42.83315" lon="0.55757">
        <ele>1405.47</ele>
        <time>2021-03-21T08:51:07Z</time>
      </trkpt>
      <trkpt lat="42.83317" lon="0.55757">
        <ele>1406.342</ele>
        <time>2021-03-21T08:51:09Z</time>
      </trkpt>
      <trkpt lat="42.83318" lon="0.55758">
        <ele>1406.243</ele>
        <time>2021-03-21T08:51:11Z</time>
      </trkpt>
      <trkpt lat="42.8332" lon="0.55759">
        <ele>1406.012</ele>
        <time>2021-03-21T08:51:13Z</time>
      </trkpt>
      <trkpt lat="42.83322" lon="0.55759">
        <ele>1406.769</ele>
        <time>2021-03-21T08:51:15Z</time>
      </trkpt>
      <trkpt lat="42.83324" lon="0.5576">
        <ele>1407.278</ele>
        <time>2021-03-21T08:51:17Z</time>
      </trkpt>
      <trkpt lat="42.83326" lon="0.55762">
        <ele>1406.378</ele>
        <time>2021-03-21T08:51:19Z</time>
      </trkpt>
      <trkpt lat="42.83328" lon="0.55762">
        <ele>1406.838</ele>
        <time>2021-03-21T08:51:21Z</time>
      </trkpt>
      <trkpt lat="42.8333" lon="0.55763">
        <ele>1406.096</ele>
        <time>2021-03-21T08:51:23Z</time>
      </trkpt>
      <trkpt lat="42.83332" lon="0.55764">
        <ele>1407.073</ele>
        <time>2021-03-21T08:51:25Z</time>
      </trkpt>
      <trkpt lat="42.83333" lon="0.55764">
        <ele>1407.72</ele>
        <time>2021-03-21T08:51:27Z</time>
      </trkpt>
      <trkpt lat="42.83335" lon="0.55764">
        <ele>1409.275</ele>
        <time>2021-03-21T08:51:29Z</time>
      </trkpt>
      <trkpt lat="42.83337" lon="0.55764">
        <ele>1409.764</ele>
        <time>2021-03-21T08:51:31Z</time>
      </trkpt>
      <trkpt lat="42.83339" lon="0.55765">
        <ele>1409.062</ele>
        <time>2021-03-21T08:51:33Z</time>
      </trkpt>
      <trkpt lat="42.83341" lon="0.55766">
        <ele>1409.234</ele>
        <time>2021-03-21T08:51:35Z</time>
      </trkpt>
      <trkpt lat="42.83343" lon="0.55766">
        <ele>1409.635</ele>
        <time>2021-03-21T08:51:37Z</time>
      </trkpt>
      <trkpt lat="42.83345" lon="0.55767">
        <ele>1409.975</ele>
        <time>2021-03-21T08:51:39Z</time>
      </trkpt>
      <trkpt lat="42.83347" lon="0.55767">
        <ele>1409.847</ele>
        <time>2021-03-21T08:51:41Z</time>
      </trkpt>
      <trkpt lat="42.83349" lon="0.55768">
        <ele>1409.354</ele>
        <time>2021-03-21T08:51:43Z</time>
      </trkpt>
      <trkpt lat="42.83351" lon="0.55768">
        <ele>1410.339</ele>
        <time>2021-03-21T08:51:45Z</time>
      </trkpt>
      <trkpt lat="42.83353" lon="0.55768">
        <ele>1410.022</ele>
        <time>2021-03-21T08:51:47Z</time>
      </trkpt>
      <trkpt lat="42.83355" lon="0.55769">
        <ele>1410.807</ele>
        <time>2021-03-21T08:51:49Z</time>
      </trkpt>
      <trkpt lat="42.83357" lon="0.55769">
        <ele>1411.115</ele>
        <time>2021-03-21T08:51:51Z</time>
      </trkpt>
      <trkpt lat="42.83359" lon="0.55769">
        <ele>1411.486</ele>
        <time>2021-03-21T08:51:53Z</time>
      </trkpt>
      <trkpt lat="42.8336" lon="0.5577">
        <ele>1412.108</ele>
        <time>2021-03-21T08:51:55Z</time>
      </trkpt>
      <trkpt lat="42.83362" lon="0.55771">
        <ele>1412.069</ele>
        <time>2021-03-21T08:51:57Z</time>
      </trkpt>
      <trkpt lat="42.83364" lon="0.55771">
        <ele>1411.711</ele>
        <time>2021-03-21T08:51:59Z</time>
      </trkpt>
      <trkpt lat="42.83366" lon="0.55772">
        <ele>1412.376</ele>
        <time>2021-03-21T08:52:01Z</time>
      </trkpt>
      <trkpt lat="42.83368" lon="0.55772">
        <ele>1412.998</ele>
        <time>2021-03-21T08:52:03Z</time>
      </trkpt>
      <trkpt lat="42.83369" lon="0.55773">
        <ele>1413.717</ele>
        <time>2021-03-21T08:52:05Z</time>
      </trkpt>
      <trkpt lat="42.83371" lon="0.55773">
        <ele>1414.213</ele>
        <time>2021-03-21T08:52:07Z</time>
      </trkpt>
      <trkpt lat="42.83373" lon="0.55774">
        <ele>1414.148</ele>
        <time>2021-03-21T08:52:09Z</time>
      </trkpt>
      <trkpt lat="42.83375" lon="0.55774">
        <ele>1414.938</ele>
        <time>2021-03-21T08:52:11Z</time>
      </trkpt>
      <trkpt lat="42.83377" lon="0.55776">
        <ele>1414.552</ele>
        <time>2021-03-21T08:52:13Z</time>
      </trkpt>
      <trkpt lat="42.83379" lon="0.55776">
        <ele>1414.658</ele>
        <time>2021-03-21T08:52:15Z</time>
      </trkpt>
      <trkpt lat="42.8338" lon="0.55777">
        <ele>1413.481</ele>
        <time>2021-03-21T08:52:17Z</time>
      </trkpt>
      <trkpt lat="42.83381" lon="0.55778">
        <ele>1413.47</ele>
        <time>2021-03-21T08:52:19Z</time>
      </trkpt>
      <trkpt lat="42.83383" lon="0.55779">
        <ele>1413.739</ele>
        <time>2021-03-21T08:52:21Z</time>
      </trkpt>
      <trkpt lat="42.83385" lon="0.55779">
        <ele>1413.4</ele>
        <time>2021-03-21T08:52:23Z</time>
      </trkpt>
      <trkpt lat="42.83387" lon="0.5578">
        <ele>1413.226</ele>
        <time>2021-03-21T08:52:25Z</time>
      </trkpt>
      <trkpt lat="42.83389" lon="0.55781">
        <ele>1411.966</ele>
        <time>2021-03-21T08:52:27Z</time>
      </trkpt>
      <trkpt lat="42.83391" lon="0.55782">
        <ele>1412.294</ele>
        <time>2021-03-21T08:52:29Z</time>
      </trkpt>
      <trkpt lat="42.83392" lon="0.55782">
        <ele>1413.222</ele>
        <time>2021-03-21T08:52:31Z</time>
      </trkpt>
      <trkpt lat="42.83394" lon="0.55783">
        <ele>1413.62</ele>
        <time>2021-03-21T08:52:33Z</time>
      </trkpt>
      <trkpt lat="42.83396" lon="0.55783">
        <ele>1414.236</ele>
        <time>2021-03-21T08:52:35Z</time>
      </trkpt>
      <trkpt lat="42.83398" lon="0.55784">
        <ele>1413.786</ele>
        <time>2021-03-21T08:52:37Z</time>
      </trkpt>
      <trkpt lat="42.834" lon="0.55785">
        <ele>1413.543</ele>
        <time>2021-03-21T08:52:39Z</time>
      </trkpt>
      <trkpt lat="42.83401" lon="0.55786">
        <ele>1412.655</ele>
        <time>2021-03-21T08:52:41Z</time>
      </trkpt>
      <trkpt lat="42.83403" lon="0.55787">
        <ele>1412.936</ele>
        <time>2021-03-21T08:52:43Z</time>
      </trkpt>
      <trkpt lat="42.83404" lon="0.55788">
        <ele>1412.256</ele>
        <time>2021-03-21T08:52:45Z</time>
      </trkpt>
      <trkpt lat="42.83406" lon="0.55789">
        <ele>1412.355</ele>
        <time>2021-03-21T08:52:47Z</time>
      </trkpt>
      <trkpt lat="42.83408" lon="0.5579">
        <ele>1412.542</ele>
        <time>2021-03-21T08:52:49Z</time>
      </trkpt>
      <trkpt lat="42.8341" lon="0.5579">
        <ele>1412.384</ele>
        <time>2021-03-21T08:52:51Z</time>
      </trkpt>
      <trkpt lat="42.83411" lon="0.55791">
        <ele>1412.383</ele>
        <time>2021-03-21T08:52:52Z</time>
      </trkpt>
      <trkpt lat="42.83414" lon="0.55792">
        <ele>1412.34</ele>
        <time>2021-03-21T08:52:55Z</time>
      </trkpt>
      <trkpt lat="42.83415" lon="0.55793">
        <ele>1412.745</ele>
        <time>2021-03-21T08:52:57Z</time>
      </trkpt>
      <trkpt lat="42.83417" lon="0.55794">
        <ele>1413.005</ele>
        <time>2021-03-21T08:52:59Z</time>
      </trkpt>
      <trkpt lat="42.83419" lon="0.55794">
        <ele>1413.802</ele>
        <time>2021-03-21T08:53:01Z</time>
      </trkpt>
      <trkpt lat="42.83421" lon="0.55795">
        <ele>1414.65</ele>
        <time>2021-03-21T08:53:03Z</time>
      </trkpt>
      <trkpt lat="42.83424" lon="0.55795">
        <ele>1415.18</ele>
        <time>2021-03-21T08:53:05Z</time>
      </trkpt>
      <trkpt lat="42.83425" lon="0.55796">
        <ele>1415.392</ele>
        <time>2021-03-21T08:53:07Z</time>
      </trkpt>
      <trkpt lat="42.83427" lon="0.55796">
        <ele>1416.107</ele>
        <time>2021-03-21T08:53:09Z</time>
      </trkpt>
      <trkpt lat="42.83429" lon="0.55797">
        <ele>1416.177</ele>
        <time>2021-03-21T08:53:11Z</time>
      </trkpt>
      <trkpt lat="42.83431" lon="0.55798">
        <ele>1415.919</ele>
        <time>2021-03-21T08:53:13Z</time>
      </trkpt>
      <trkpt lat="42.83433" lon="0.55798">
        <ele>1416.019</ele>
        <time>2021-03-21T08:53:15Z</time>
      </trkpt>
      <trkpt lat="42.83435" lon="0.55799">
        <ele>1416.153</ele>
        <time>2021-03-21T08:53:17Z</time>
      </trkpt>
      <trkpt lat="42.83436" lon="0.558">
        <ele>1416.141</ele>
        <time>2021-03-21T08:53:19Z</time>
      </trkpt>
      <trkpt lat="42.83438" lon="0.55801">
        <ele>1416.61</ele>
        <time>2021-03-21T08:53:21Z</time>
      </trkpt>
      <trkpt lat="42.8344" lon="0.55802">
        <ele>1415.572</ele>
        <time>2021-03-21T08:53:23Z</time>
      </trkpt>
      <trkpt lat="42.83442" lon="0.55802">
        <ele>1415.74</ele>
        <time>2021-03-21T08:53:25Z</time>
      </trkpt>
      <trkpt lat="42.83444" lon="0.55802">
        <ele>1416.553</ele>
        <time>2021-03-21T08:53:27Z</time>
      </trkpt>
      <trkpt lat="42.83445" lon="0.55802">
        <ele>1416.733</ele>
        <time>2021-03-21T08:53:29Z</time>
      </trkpt>
      <trkpt lat="42.83446" lon="0.55802">
        <ele>1416.328</ele>
        <time>2021-03-21T08:53:30Z</time>
      </trkpt>
      <trkpt lat="42.83449" lon="0.55803">
        <ele>1416.017</ele>
        <time>2021-03-21T08:53:33Z</time>
      </trkpt>
      <trkpt lat="42.83452" lon="0.55803">
        <ele>1416.389</ele>
        <time>2021-03-21T08:53:35Z</time>
      </trkpt>
      <trkpt lat="42.83454" lon="0.55803">
        <ele>1417.242</ele>
        <time>2021-03-21T08:53:37Z</time>
      </trkpt>
      <trkpt lat="42.83456" lon="0.55804">
        <ele>1417.622</ele>
        <time>2021-03-21T08:53:39Z</time>
      </trkpt>
      <trkpt lat="42.83457" lon="0.55804">
        <ele>1418.028</ele>
        <time>2021-03-21T08:53:41Z</time>
      </trkpt>
      <trkpt lat="42.83458" lon="0.55806">
        <ele>1416.778</ele>
        <time>2021-03-21T08:53:43Z</time>
      </trkpt>
      <trkpt lat="42.8346" lon="0.55806">
        <ele>1416.876</ele>
        <time>2021-03-21T08:53:45Z</time>
      </trkpt>
      <trkpt lat="42.83461" lon="0.55807">
        <ele>1416.274</ele>
        <time>2021-03-21T08:53:47Z</time>
      </trkpt>
      <trkpt lat="42.83463" lon="0.55808">
        <ele>1415.774</ele>
        <time>2021-03-21T08:53:49Z</time>
      </trkpt>
      <trkpt lat="42.83465" lon="0.55809">
        <ele>1416.247</ele>
        <time>2021-03-21T08:53:51Z</time>
      </trkpt>
      <trkpt lat="42.83467" lon="0.55808">
        <ele>1418.019</ele>
        <time>2021-03-21T08:53:53Z</time>
      </trkpt>
      <trkpt lat="42.83468" lon="0.55808">
        <ele>1419.608</ele>
        <time>2021-03-21T08:53:55Z</time>
      </trkpt>
      <trkpt lat="42.8347" lon="0.55809">
        <ele>1419.38</ele>
        <time>2021-03-21T08:53:57Z</time>
      </trkpt>
      <trkpt lat="42.83472" lon="0.55809">
        <ele>1419.874</ele>
        <time>2021-03-21T08:53:59Z</time>
      </trkpt>
      <trkpt lat="42.83474" lon="0.55809">
        <ele>1419.688</ele>
        <time>2021-03-21T08:54:01Z</time>
      </trkpt>
      <trkpt lat="42.83476" lon="0.55809">
        <ele>1420.807</ele>
        <time>2021-03-21T08:54:03Z</time>
      </trkpt>
      <trkpt lat="42.83478" lon="0.55809">
        <ele>1421.287</ele>
        <time>2021-03-21T08:54:05Z</time>
      </trkpt>
      <trkpt lat="42.83479" lon="0.5581">
        <ele>1421.369</ele>
        <time>2021-03-21T08:54:07Z</time>
      </trkpt>
      <trkpt lat="42.83481" lon="0.55811">
        <ele>1421.239</ele>
        <time>2021-03-21T08:54:09Z</time>
      </trkpt>
      <trkpt lat="42.83482" lon="0.5581">
        <ele>1421.453</ele>
        <time>2021-03-21T08:54:11Z</time>
      </trkpt>
      <trkpt lat="42.83484" lon="0.5581">
        <ele>1421.715</ele>
        <time>2021-03-21T08:54:13Z</time>
      </trkpt>
      <trkpt lat="42.83486" lon="0.5581">
        <ele>1421.775</ele>
        <time>2021-03-21T08:54:15Z</time>
      </trkpt>
      <trkpt lat="42.83487" lon="0.5581">
        <ele>1422.138</ele>
        <time>2021-03-21T08:54:17Z</time>
      </trkpt>
      <trkpt lat="42.83489" lon="0.5581">
        <ele>1422.921</ele>
        <time>2021-03-21T08:54:19Z</time>
      </trkpt>
      <trkpt lat="42.83491" lon="0.55811">
        <ele>1423.328</ele>
        <time>2021-03-21T08:54:21Z</time>
      </trkpt>
      <trkpt lat="42.83493" lon="0.5581">
        <ele>1423.6</ele>
        <time>2021-03-21T08:54:23Z</time>
      </trkpt>
      <trkpt lat="42.83495" lon="0.5581">
        <ele>1424.365</ele>
        <time>2021-03-21T08:54:25Z</time>
      </trkpt>
      <trkpt lat="42.83497" lon="0.5581">
        <ele>1425.379</ele>
        <time>2021-03-21T08:54:27Z</time>
      </trkpt>
      <trkpt lat="42.83499" lon="0.55809">
        <ele>1426.836</ele>
        <time>2021-03-21T08:54:29Z</time>
      </trkpt>
      <trkpt lat="42.83501" lon="0.55808">
        <ele>1427.723</ele>
        <time>2021-03-21T08:54:31Z</time>
      </trkpt>
      <trkpt lat="42.83503" lon="0.55809">
        <ele>1427.887</ele>
        <time>2021-03-21T08:54:33Z</time>
      </trkpt>
      <trkpt lat="42.83504" lon="0.5581">
        <ele>1427.871</ele>
        <time>2021-03-21T08:54:35Z</time>
      </trkpt>
      <trkpt lat="42.83505" lon="0.55811">
        <ele>1428.562</ele>
        <time>2021-03-21T08:54:37Z</time>
      </trkpt>
      <trkpt lat="42.83507" lon="0.55812">
        <ele>1428.305</ele>
        <time>2021-03-21T08:54:39Z</time>
      </trkpt>
      <trkpt lat="42.83508" lon="0.55813">
        <ele>1428.929</ele>
        <time>2021-03-21T08:54:41Z</time>
      </trkpt>
      <trkpt lat="42.83508" lon="0.55814">
        <ele>1430.276</ele>
        <time>2021-03-21T08:54:43Z</time>
      </trkpt>
      <trkpt lat="42.83508" lon="0.55815">
        <ele>1430.649</ele>
        <time>2021-03-21T08:54:45Z</time>
      </trkpt>
      <trkpt lat="42.83507" lon="0.55817">
        <ele>1430.717</ele>
        <time>2021-03-21T08:54:47Z</time>
      </trkpt>
      <trkpt lat="42.83507" lon="0.55818">
        <ele>1431.128</ele>
        <time>2021-03-21T08:54:49Z</time>
      </trkpt>
      <trkpt lat="42.83505" lon="0.55819">
        <ele>1430.414</ele>
        <time>2021-03-21T08:54:51Z</time>
      </trkpt>
      <trkpt lat="42.83504" lon="0.5582">
        <ele>1429.682</ele>
        <time>2021-03-21T08:54:53Z</time>
      </trkpt>
      <trkpt lat="42.83502" lon="0.5582">
        <ele>1430.744</ele>
        <time>2021-03-21T08:54:55Z</time>
      </trkpt>
      <trkpt lat="42.835" lon="0.5582">
        <ele>1432.003</ele>
        <time>2021-03-21T08:54:57Z</time>
      </trkpt>
      <trkpt lat="42.83498" lon="0.55819">
        <ele>1432.232</ele>
        <time>2021-03-21T08:54:59Z</time>
      </trkpt>
      <trkpt lat="42.83497" lon="0.55819">
        <ele>1433.08</ele>
        <time>2021-03-21T08:55:01Z</time>
      </trkpt>
      <trkpt lat="42.83495" lon="0.55819">
        <ele>1433.095</ele>
        <time>2021-03-21T08:55:03Z</time>
      </trkpt>
      <trkpt lat="42.83493" lon="0.5582">
        <ele>1432.725</ele>
        <time>2021-03-21T08:55:05Z</time>
      </trkpt>
      <trkpt lat="42.8349" lon="0.55819">
        <ele>1433.796</ele>
        <time>2021-03-21T08:55:07Z</time>
      </trkpt>
      <trkpt lat="42.83489" lon="0.55819">
        <ele>1434.28</ele>
        <time>2021-03-21T08:55:09Z</time>
      </trkpt>
      <trkpt lat="42.83487" lon="0.55819">
        <ele>1434.05</ele>
        <time>2021-03-21T08:55:11Z</time>
      </trkpt>
      <trkpt lat="42.83486" lon="0.5582">
        <ele>1434.18</ele>
        <time>2021-03-21T08:55:13Z</time>
      </trkpt>
      <trkpt lat="42.83484" lon="0.5582">
        <ele>1434.423</ele>
        <time>2021-03-21T08:55:15Z</time>
      </trkpt>
      <trkpt lat="42.83483" lon="0.5582">
        <ele>1435.154</ele>
        <time>2021-03-21T08:55:17Z</time>
      </trkpt>
      <trkpt lat="42.83481" lon="0.5582">
        <ele>1435.332</ele>
        <time>2021-03-21T08:55:19Z</time>
      </trkpt>
      <trkpt lat="42.8348" lon="0.5582">
        <ele>1435.061</ele>
        <time>2021-03-21T08:55:21Z</time>
      </trkpt>
      <trkpt lat="42.83478" lon="0.5582">
        <ele>1435.419</ele>
        <time>2021-03-21T08:55:23Z</time>
      </trkpt>
      <trkpt lat="42.83477" lon="0.5582">
        <ele>1435.839</ele>
        <time>2021-03-21T08:55:25Z</time>
      </trkpt>
      <trkpt lat="42.83476" lon="0.55821">
        <ele>1436.274</ele>
        <time>2021-03-21T08:55:27Z</time>
      </trkpt>
      <trkpt lat="42.83474" lon="0.55822">
        <ele>1436.275</ele>
        <time>2021-03-21T08:55:29Z</time>
      </trkpt>
      <trkpt lat="42.83472" lon="0.55822">
        <ele>1438.123</ele>
        <time>2021-03-21T08:55:31Z</time>
      </trkpt>
      <trkpt lat="42.83471" lon="0.55822">
        <ele>1439.272</ele>
        <time>2021-03-21T08:55:33Z</time>
      </trkpt>
      <trkpt lat="42.83469" lon="0.55823">
        <ele>1440.065</ele>
        <time>2021-03-21T08:55:35Z</time>
      </trkpt>
      <trkpt lat="42.83468" lon="0.55824">
        <ele>1440.524</ele>
        <time>2021-03-21T08:55:37Z</time>
      </trkpt>
      <trkpt lat="42.83467" lon="0.55825">
        <ele>1440.416</ele>
        <time>2021-03-21T08:55:39Z</time>
      </trkpt>
      <trkpt lat="42.83465" lon="0.55826">
        <ele>1440.42</ele>
        <time>2021-03-21T08:55:41Z</time>
      </trkpt>
      <trkpt lat="42.83464" lon="0.55826">
        <ele>1441.283</ele>
        <time>2021-03-21T08:55:43Z</time>
      </trkpt>
      <trkpt lat="42.83462" lon="0.55827">
        <ele>1441.528</ele>
        <time>2021-03-21T08:55:45Z</time>
      </trkpt>
      <trkpt lat="42.8346" lon="0.55827">
        <ele>1442.526</ele>
        <time>2021-03-21T08:55:47Z</time>
      </trkpt>
      <trkpt lat="42.83459" lon="0.55828">
        <ele>1442.048</ele>
        <time>2021-03-21T08:55:49Z</time>
      </trkpt>
      <trkpt lat="42.83458" lon="0.55828">
        <ele>1441.961</ele>
        <time>2021-03-21T08:55:51Z</time>
      </trkpt>
      <trkpt lat="42.83456" lon="0.55829">
        <ele>1443.497</ele>
        <time>2021-03-21T08:55:53Z</time>
      </trkpt>
      <trkpt lat="42.83454" lon="0.5583">
        <ele>1443.617</ele>
        <time>2021-03-21T08:55:55Z</time>
      </trkpt>
      <trkpt lat="42.83452" lon="0.55832">
        <ele>1443.668</ele>
        <time>2021-03-21T08:55:57Z</time>
      </trkpt>
      <trkpt lat="42.8345" lon="0.55833">
        <ele>1443.411</ele>
        <time>2021-03-21T08:55:59Z</time>
      </trkpt>
      <trkpt lat="42.83448" lon="0.55834">
        <ele>1443.135</ele>
        <time>2021-03-21T08:56:01Z</time>
      </trkpt>
      <trkpt lat="42.83447" lon="0.55835">
        <ele>1443.69</ele>
        <time>2021-03-21T08:56:03Z</time>
      </trkpt>
      <trkpt lat="42.83446" lon="0.55836">
        <ele>1443.728</ele>
        <time>2021-03-21T08:56:05Z</time>
      </trkpt>
      <trkpt lat="42.83444" lon="0.55837">
        <ele>1444.562</ele>
        <time>2021-03-21T08:56:07Z</time>
      </trkpt>
      <trkpt lat="42.83442" lon="0.55837">
        <ele>1445.135</ele>
        <time>2021-03-21T08:56:09Z</time>
      </trkpt>
      <trkpt lat="42.8344" lon="0.55838">
        <ele>1445.197</ele>
        <time>2021-03-21T08:56:11Z</time>
      </trkpt>
      <trkpt lat="42.83439" lon="0.55839">
        <ele>1444.418</ele>
        <time>2021-03-21T08:56:13Z</time>
      </trkpt>
      <trkpt lat="42.83438" lon="0.55841">
        <ele>1444.291</ele>
        <time>2021-03-21T08:56:15Z</time>
      </trkpt>
      <trkpt lat="42.83436" lon="0.55841">
        <ele>1443.051</ele>
        <time>2021-03-21T08:56:17Z</time>
      </trkpt>
      <trkpt lat="42.83435" lon="0.55842">
        <ele>1443.492</ele>
        <time>2021-03-21T08:56:19Z</time>
      </trkpt>
      <trkpt lat="42.83433" lon="0.55843">
        <ele>1442.904</ele>
        <time>2021-03-21T08:56:21Z</time>
      </trkpt>
      <trkpt lat="42.83431" lon="0.55844">
        <ele>1443.262</ele>
        <time>2021-03-21T08:56:23Z</time>
      </trkpt>
      <trkpt lat="42.8343" lon="0.55844">
        <ele>1444.237</ele>
        <time>2021-03-21T08:56:25Z</time>
      </trkpt>
      <trkpt lat="42.83428" lon="0.55844">
        <ele>1444.659</ele>
        <time>2021-03-21T08:56:27Z</time>
      </trkpt>
      <trkpt lat="42.83427" lon="0.55845">
        <ele>1445.169</ele>
        <time>2021-03-21T08:56:29Z</time>
      </trkpt>
      <trkpt lat="42.83425" lon="0.55845">
        <ele>1447.501</ele>
        <time>2021-03-21T08:56:31Z</time>
      </trkpt>
      <trkpt lat="42.83423" lon="0.55845">
        <ele>1449.29</ele>
        <time>2021-03-21T08:56:33Z</time>
      </trkpt>
      <trkpt lat="42.83421" lon="0.55846">
        <ele>1449.595</ele>
        <time>2021-03-21T08:56:35Z</time>
      </trkpt>
      <trkpt lat="42.8342" lon="0.55846">
        <ele>1449.914</ele>
        <time>2021-03-21T08:56:37Z</time>
      </trkpt>
      <trkpt lat="42.83418" lon="0.55847">
        <ele>1450.121</ele>
        <time>2021-03-21T08:56:39Z</time>
      </trkpt>
      <trkpt lat="42.83416" lon="0.55847">
        <ele>1451.138</ele>
        <time>2021-03-21T08:56:41Z</time>
      </trkpt>
      <trkpt lat="42.83415" lon="0.55847">
        <ele>1451.384</ele>
        <time>2021-03-21T08:56:43Z</time>
      </trkpt>
      <trkpt lat="42.83413" lon="0.55846">
        <ele>1451.496</ele>
        <time>2021-03-21T08:56:45Z</time>
      </trkpt>
      <trkpt lat="42.83412" lon="0.55846">
        <ele>1451.197</ele>
        <time>2021-03-21T08:56:47Z</time>
      </trkpt>
      <trkpt lat="42.8341" lon="0.55847">
        <ele>1451.145</ele>
        <time>2021-03-21T08:56:49Z</time>
      </trkpt>
      <trkpt lat="42.83409" lon="0.55849">
        <ele>1450.53</ele>
        <time>2021-03-21T08:56:51Z</time>
      </trkpt>
      <trkpt lat="42.83407" lon="0.55849">
        <ele>1451.341</ele>
        <time>2021-03-21T08:56:53Z</time>
      </trkpt>
      <trkpt lat="42.83405" lon="0.5585">
        <ele>1452.144</ele>
        <time>2021-03-21T08:56:55Z</time>
      </trkpt>
      <trkpt lat="42.83404" lon="0.5585">
        <ele>1452.509</ele>
        <time>2021-03-21T08:56:57Z</time>
      </trkpt>
      <trkpt lat="42.83402" lon="0.55851">
        <ele>1451.705</ele>
        <time>2021-03-21T08:56:59Z</time>
      </trkpt>
      <trkpt lat="42.834" lon="0.55852">
        <ele>1452.094</ele>
        <time>2021-03-21T08:57:01Z</time>
      </trkpt>
      <trkpt lat="42.83398" lon="0.55852">
        <ele>1452.325</ele>
        <time>2021-03-21T08:57:03Z</time>
      </trkpt>
      <trkpt lat="42.83396" lon="0.55853">
        <ele>1454.514</ele>
        <time>2021-03-21T08:57:05Z</time>
      </trkpt>
      <trkpt lat="42.83394" lon="0.55853">
        <ele>1455.886</ele>
        <time>2021-03-21T08:57:07Z</time>
      </trkpt>
      <trkpt lat="42.83393" lon="0.55854">
        <ele>1455.395</ele>
        <time>2021-03-21T08:57:09Z</time>
      </trkpt>
      <trkpt lat="42.83392" lon="0.55854">
        <ele>1455.588</ele>
        <time>2021-03-21T08:57:11Z</time>
      </trkpt>
      <trkpt lat="42.8339" lon="0.55855">
        <ele>1456.162</ele>
        <time>2021-03-21T08:57:13Z</time>
      </trkpt>
      <trkpt lat="42.83388" lon="0.55857">
        <ele>1456.981</ele>
        <time>2021-03-21T08:57:15Z</time>
      </trkpt>
      <trkpt lat="42.83387" lon="0.55858">
        <ele>1457.549</ele>
        <time>2021-03-21T08:57:17Z</time>
      </trkpt>
      <trkpt lat="42.83385" lon="0.55859">
        <ele>1455.997</ele>
        <time>2021-03-21T08:57:19Z</time>
      </trkpt>
      <trkpt lat="42.83383" lon="0.55861">
        <ele>1456.232</ele>
        <time>2021-03-21T08:57:21Z</time>
      </trkpt>
      <trkpt lat="42.83382" lon="0.55862">
        <ele>1457.009</ele>
        <time>2021-03-21T08:57:23Z</time>
      </trkpt>
      <trkpt lat="42.8338" lon="0.55863">
        <ele>1457.255</ele>
        <time>2021-03-21T08:57:25Z</time>
      </trkpt>
      <trkpt lat="42.83379" lon="0.55864">
        <ele>1457.371</ele>
        <time>2021-03-21T08:57:27Z</time>
      </trkpt>
      <trkpt lat="42.83378" lon="0.55865">
        <ele>1457.542</ele>
        <time>2021-03-21T08:57:29Z</time>
      </trkpt>
      <trkpt lat="42.83376" lon="0.55866">
        <ele>1458.767</ele>
        <time>2021-03-21T08:57:31Z</time>
      </trkpt>
      <trkpt lat="42.83375" lon="0.55868">
        <ele>1459.385</ele>
        <time>2021-03-21T08:57:33Z</time>
      </trkpt>
      <trkpt lat="42.83373" lon="0.55868">
        <ele>1459.13</ele>
        <time>2021-03-21T08:57:35Z</time>
      </trkpt>
      <trkpt lat="42.83372" lon="0.5587">
        <ele>1460.252</ele>
        <time>2021-03-21T08:57:37Z</time>
      </trkpt>
      <trkpt lat="42.83369" lon="0.55871">
        <ele>1460.932</ele>
        <time>2021-03-21T08:57:39Z</time>
      </trkpt>
      <trkpt lat="42.83367" lon="0.55871">
        <ele>1460.267</ele>
        <time>2021-03-21T08:57:41Z</time>
      </trkpt>
      <trkpt lat="42.83365" lon="0.55871">
        <ele>1460.87</ele>
        <time>2021-03-21T08:57:43Z</time>
      </trkpt>
      <trkpt lat="42.83363" lon="0.55872">
        <ele>1461.973</ele>
        <time>2021-03-21T08:57:45Z</time>
      </trkpt>
      <trkpt lat="42.83362" lon="0.55873">
        <ele>1462.703</ele>
        <time>2021-03-21T08:57:47Z</time>
      </trkpt>
      <trkpt lat="42.8336" lon="0.55875">
        <ele>1462.275</ele>
        <time>2021-03-21T08:57:49Z</time>
      </trkpt>
      <trkpt lat="42.83359" lon="0.55876">
        <ele>1461.483</ele>
        <time>2021-03-21T08:57:51Z</time>
      </trkpt>
      <trkpt lat="42.83357" lon="0.55878">
        <ele>1461.161</ele>
        <time>2021-03-21T08:57:53Z</time>
      </trkpt>
      <trkpt lat="42.83355" lon="0.55878">
        <ele>1461.689</ele>
        <time>2021-03-21T08:57:55Z</time>
      </trkpt>
      <trkpt lat="42.83353" lon="0.55879">
        <ele>1461.598</ele>
        <time>2021-03-21T08:57:57Z</time>
      </trkpt>
      <trkpt lat="42.83352" lon="0.5588">
        <ele>1461.836</ele>
        <time>2021-03-21T08:57:59Z</time>
      </trkpt>
      <trkpt lat="42.8335" lon="0.5588">
        <ele>1461.684</ele>
        <time>2021-03-21T08:58:01Z</time>
      </trkpt>
      <trkpt lat="42.83348" lon="0.55882">
        <ele>1461.904</ele>
        <time>2021-03-21T08:58:03Z</time>
      </trkpt>
      <trkpt lat="42.83347" lon="0.55882">
        <ele>1463.313</ele>
        <time>2021-03-21T08:58:05Z</time>
      </trkpt>
      <trkpt lat="42.83345" lon="0.55883">
        <ele>1463.521</ele>
        <time>2021-03-21T08:58:07Z</time>
      </trkpt>
      <trkpt lat="42.83344" lon="0.55885">
        <ele>1462.453</ele>
        <time>2021-03-21T08:58:09Z</time>
      </trkpt>
      <trkpt lat="42.83342" lon="0.55886">
        <ele>1462.702</ele>
        <time>2021-03-21T08:58:11Z</time>
      </trkpt>
      <trkpt lat="42.83341" lon="0.55888">
        <ele>1462.49</ele>
        <time>2021-03-21T08:58:13Z</time>
      </trkpt>
      <trkpt lat="42.8334" lon="0.55889">
        <ele>1462.682</ele>
        <time>2021-03-21T08:58:15Z</time>
      </trkpt>
      <trkpt lat="42.83339" lon="0.55891">
        <ele>1462.8</ele>
        <time>2021-03-21T08:58:17Z</time>
      </trkpt>
      <trkpt lat="42.83338" lon="0.55893">
        <ele>1462.945</ele>
        <time>2021-03-21T08:58:19Z</time>
      </trkpt>
      <trkpt lat="42.83337" lon="0.55896">
        <ele>1463.752</ele>
        <time>2021-03-21T08:58:21Z</time>
      </trkpt>
      <trkpt lat="42.83336" lon="0.55898">
        <ele>1462.707</ele>
        <time>2021-03-21T08:58:23Z</time>
      </trkpt>
      <trkpt lat="42.83335" lon="0.55901">
        <ele>1462.015</ele>
        <time>2021-03-21T08:58:25Z</time>
      </trkpt>
      <trkpt lat="42.83335" lon="0.55903">
        <ele>1461.996</ele>
        <time>2021-03-21T08:58:27Z</time>
      </trkpt>
      <trkpt lat="42.83335" lon="0.55906">
        <ele>1461.389</ele>
        <time>2021-03-21T08:58:29Z</time>
      </trkpt>
      <trkpt lat="42.83334" lon="0.55908">
        <ele>1460.232</ele>
        <time>2021-03-21T08:58:31Z</time>
      </trkpt>
      <trkpt lat="42.83334" lon="0.5591">
        <ele>1460.261</ele>
        <time>2021-03-21T08:58:33Z</time>
      </trkpt>
      <trkpt lat="42.83334" lon="0.55913">
        <ele>1460.551</ele>
        <time>2021-03-21T08:58:35Z</time>
      </trkpt>
      <trkpt lat="42.83334" lon="0.55915">
        <ele>1460.348</ele>
        <time>2021-03-21T08:58:37Z</time>
      </trkpt>
      <trkpt lat="42.83334" lon="0.55918">
        <ele>1460.242</ele>
        <time>2021-03-21T08:58:39Z</time>
      </trkpt>
      <trkpt lat="42.83334" lon="0.5592">
        <ele>1460.845</ele>
        <time>2021-03-21T08:58:41Z</time>
      </trkpt>
      <trkpt lat="42.83334" lon="0.55923">
        <ele>1460.006</ele>
        <time>2021-03-21T08:58:43Z</time>
      </trkpt>
      <trkpt lat="42.83334" lon="0.55926">
        <ele>1460.356</ele>
        <time>2021-03-21T08:58:45Z</time>
      </trkpt>
      <trkpt lat="42.83335" lon="0.55928">
        <ele>1460.102</ele>
        <time>2021-03-21T08:58:47Z</time>
      </trkpt>
      <trkpt lat="42.83335" lon="0.55931">
        <ele>1460.42</ele>
        <time>2021-03-21T08:58:49Z</time>
      </trkpt>
      <trkpt lat="42.83334" lon="0.55934">
        <ele>1461.432</ele>
        <time>2021-03-21T08:58:51Z</time>
      </trkpt>
      <trkpt lat="42.83334" lon="0.55936">
        <ele>1460.542</ele>
        <time>2021-03-21T08:58:53Z</time>
      </trkpt>
      <trkpt lat="42.83333" lon="0.55939">
        <ele>1461.45</ele>
        <time>2021-03-21T08:58:55Z</time>
      </trkpt>
      <trkpt lat="42.83333" lon="0.55941">
        <ele>1461.399</ele>
        <time>2021-03-21T08:58:57Z</time>
      </trkpt>
      <trkpt lat="42.83333" lon="0.55944">
        <ele>1460.159</ele>
        <time>2021-03-21T08:58:59Z</time>
      </trkpt>
      <trkpt lat="42.83332" lon="0.55946">
        <ele>1460</ele>
        <time>2021-03-21T08:59:01Z</time>
      </trkpt>
      <trkpt lat="42.83332" lon="0.55948">
        <ele>1460.56</ele>
        <time>2021-03-21T08:59:02Z</time>
      </trkpt>
      <trkpt lat="42.83332" lon="0.55952">
        <ele>1461.686</ele>
        <time>2021-03-21T08:59:05Z</time>
      </trkpt>
      <trkpt lat="42.83331" lon="0.55954">
        <ele>1461.283</ele>
        <time>2021-03-21T08:59:07Z</time>
      </trkpt>
      <trkpt lat="42.83331" lon="0.55957">
        <ele>1461.748</ele>
        <time>2021-03-21T08:59:09Z</time>
      </trkpt>
      <trkpt lat="42.83331" lon="0.5596">
        <ele>1462.503</ele>
        <time>2021-03-21T08:59:11Z</time>
      </trkpt>
      <trkpt lat="42.83331" lon="0.55963">
        <ele>1462.778</ele>
        <time>2021-03-21T08:59:13Z</time>
      </trkpt>
      <trkpt lat="42.83331" lon="0.55966">
        <ele>1462.642</ele>
        <time>2021-03-21T08:59:15Z</time>
      </trkpt>
      <trkpt lat="42.83331" lon="0.55968">
        <ele>1463.266</ele>
        <time>2021-03-21T08:59:17Z</time>
      </trkpt>
      <trkpt lat="42.83331" lon="0.55971">
        <ele>1463.75</ele>
        <time>2021-03-21T08:59:19Z</time>
      </trkpt>
      <trkpt lat="42.8333" lon="0.55974">
        <ele>1465.882</ele>
        <time>2021-03-21T08:59:21Z</time>
      </trkpt>
      <trkpt lat="42.8333" lon="0.55977">
        <ele>1466.481</ele>
        <time>2021-03-21T08:59:23Z</time>
      </trkpt>
      <trkpt lat="42.8333" lon="0.5598">
        <ele>1466.999</ele>
        <time>2021-03-21T08:59:25Z</time>
      </trkpt>
      <trkpt lat="42.83329" lon="0.55983">
        <ele>1467.462</ele>
        <time>2021-03-21T08:59:27Z</time>
      </trkpt>
      <trkpt lat="42.83329" lon="0.55985">
        <ele>1468.117</ele>
        <time>2021-03-21T08:59:29Z</time>
      </trkpt>
      <trkpt lat="42.83329" lon="0.55988">
        <ele>1469.121</ele>
        <time>2021-03-21T08:59:31Z</time>
      </trkpt>
      <trkpt lat="42.83327" lon="0.55989">
        <ele>1468.459</ele>
        <time>2021-03-21T08:59:33Z</time>
      </trkpt>
      <trkpt lat="42.83328" lon="0.55989">
        <ele>1470.528</ele>
        <time>2021-03-21T08:59:35Z</time>
      </trkpt>
      <trkpt lat="42.83329" lon="0.55989">
        <ele>1470.538</ele>
        <time>2021-03-21T08:59:37Z</time>
      </trkpt>
      <trkpt lat="42.83329" lon="0.55988">
        <ele>1470.549</ele>
        <time>2021-03-21T08:59:39Z</time>
      </trkpt>
      <trkpt lat="42.83329" lon="0.55988">
        <ele>1470.539</ele>
        <time>2021-03-21T08:59:41Z</time>
      </trkpt>
      <trkpt lat="42.83329" lon="0.55988">
        <ele>1470.542</ele>
        <time>2021-03-21T08:59:43Z</time>
      </trkpt>
      <trkpt lat="42.83329" lon="0.55988">
        <ele>1470.542</ele>
        <time>2021-03-21T08:59:45Z</time>
      </trkpt>
      <trkpt lat="42.83329" lon="0.55988">
        <ele>1470.566</ele>
        <time>2021-03-21T08:59:47Z</time>
      </trkpt>
      <trkpt lat="42.83329" lon="0.55989">
        <ele>1470.567</ele>
        <time>2021-03-21T08:59:49Z</time>
      </trkpt>
      <trkpt lat="42.83329" lon="0.55989">
        <ele>1470.575</ele>
        <time>2021-03-21T08:59:51Z</time>
      </trkpt>
      <trkpt lat="42.83329" lon="0.55989">
        <ele>1470.586</ele>
        <time>2021-03-21T08:59:53Z</time>
      </trkpt>
      <trkpt lat="42.83329" lon="0.55989">
        <ele>1470.599</ele>
        <time>2021-03-21T08:59:55Z</time>
      </trkpt>
      <trkpt lat="42.83329" lon="0.55988">
        <ele>1470.613</ele>
        <time>2021-03-21T08:59:57Z</time>
      </trkpt>
      <trkpt lat="42.83329" lon="0.55988">
        <ele>1470.622</ele>
        <time>2021-03-21T08:59:59Z</time>
      </trkpt>
      <trkpt lat="42.83329" lon="0.55988">
        <ele>1470.631</ele>
        <time>2021-03-21T09:00:01Z</time>
      </trkpt>
      <trkpt lat="42.83329" lon="0.55988">
        <ele>1470.639</ele>
        <time>2021-03-21T09:00:03Z</time>
      </trkpt>
      <trkpt lat="42.83329" lon="0.55988">
        <ele>1470.657</ele>
        <time>2021-03-21T09:00:05Z</time>
      </trkpt>
      <trkpt lat="42.83329" lon="0.55988">
        <ele>1470.672</ele>
        <time>2021-03-21T09:00:07Z</time>
      </trkpt>
      <trkpt lat="42.83328" lon="0.5599">
        <ele>1470.365</ele>
        <time>2021-03-21T09:00:09Z</time>
      </trkpt>
      <trkpt lat="42.83328" lon="0.55991">
        <ele>1471.032</ele>
        <time>2021-03-21T09:00:11Z</time>
      </trkpt>
      <trkpt lat="42.83328" lon="0.55994">
        <ele>1471.088</ele>
        <time>2021-03-21T09:00:13Z</time>
      </trkpt>
      <trkpt lat="42.83328" lon="0.55996">
        <ele>1471.676</ele>
        <time>2021-03-21T09:00:15Z</time>
      </trkpt>
      <trkpt lat="42.83328" lon="0.55998">
        <ele>1471.172</ele>
        <time>2021-03-21T09:00:17Z</time>
      </trkpt>
      <trkpt lat="42.83328" lon="0.56">
        <ele>1471.669</ele>
        <time>2021-03-21T09:00:19Z</time>
      </trkpt>
      <trkpt lat="42.83327" lon="0.56002">
        <ele>1472.037</ele>
        <time>2021-03-21T09:00:21Z</time>
      </trkpt>
      <trkpt lat="42.83327" lon="0.56005">
        <ele>1473.078</ele>
        <time>2021-03-21T09:00:23Z</time>
      </trkpt>
      <trkpt lat="42.83326" lon="0.56008">
        <ele>1473.079</ele>
        <time>2021-03-21T09:00:25Z</time>
      </trkpt>
      <trkpt lat="42.83326" lon="0.56011">
        <ele>1473.411</ele>
        <time>2021-03-21T09:00:27Z</time>
      </trkpt>
      <trkpt lat="42.83326" lon="0.56013">
        <ele>1473.551</ele>
        <time>2021-03-21T09:00:29Z</time>
      </trkpt>
      <trkpt lat="42.83326" lon="0.56015">
        <ele>1474.521</ele>
        <time>2021-03-21T09:00:31Z</time>
      </trkpt>
      <trkpt lat="42.83325" lon="0.56018">
        <ele>1474.689</ele>
        <time>2021-03-21T09:00:33Z</time>
      </trkpt>
      <trkpt lat="42.83325" lon="0.5602">
        <ele>1474.856</ele>
        <time>2021-03-21T09:00:35Z</time>
      </trkpt>
      <trkpt lat="42.83324" lon="0.56023">
        <ele>1475.581</ele>
        <time>2021-03-21T09:00:37Z</time>
      </trkpt>
      <trkpt lat="42.83324" lon="0.56025">
        <ele>1476.22</ele>
        <time>2021-03-21T09:00:39Z</time>
      </trkpt>
      <trkpt lat="42.83323" lon="0.56028">
        <ele>1476.476</ele>
        <time>2021-03-21T09:00:41Z</time>
      </trkpt>
      <trkpt lat="42.83323" lon="0.5603">
        <ele>1476.869</ele>
        <time>2021-03-21T09:00:43Z</time>
      </trkpt>
      <trkpt lat="42.83322" lon="0.56033">
        <ele>1477.273</ele>
        <time>2021-03-21T09:00:45Z</time>
      </trkpt>
      <trkpt lat="42.83322" lon="0.56036">
        <ele>1477.516</ele>
        <time>2021-03-21T09:00:47Z</time>
      </trkpt>
      <trkpt lat="42.83321" lon="0.56038">
        <ele>1477.413</ele>
        <time>2021-03-21T09:00:49Z</time>
      </trkpt>
      <trkpt lat="42.83321" lon="0.56041">
        <ele>1477.881</ele>
        <time>2021-03-21T09:00:51Z</time>
      </trkpt>
      <trkpt lat="42.83321" lon="0.56043">
        <ele>1477.001</ele>
        <time>2021-03-21T09:00:53Z</time>
      </trkpt>
      <trkpt lat="42.83321" lon="0.56046">
        <ele>1477.221</ele>
        <time>2021-03-21T09:00:55Z</time>
      </trkpt>
      <trkpt lat="42.83321" lon="0.56049">
        <ele>1478.052</ele>
        <time>2021-03-21T09:00:57Z</time>
      </trkpt>
      <trkpt lat="42.83321" lon="0.56051">
        <ele>1478.654</ele>
        <time>2021-03-21T09:00:59Z</time>
      </trkpt>
      <trkpt lat="42.8332" lon="0.56054">
        <ele>1477.668</ele>
        <time>2021-03-21T09:01:01Z</time>
      </trkpt>
      <trkpt lat="42.8332" lon="0.56056">
        <ele>1477.847</ele>
        <time>2021-03-21T09:01:03Z</time>
      </trkpt>
      <trkpt lat="42.8332" lon="0.56059">
        <ele>1478.377</ele>
        <time>2021-03-21T09:01:05Z</time>
      </trkpt>
      <trkpt lat="42.83321" lon="0.56061">
        <ele>1478.693</ele>
        <time>2021-03-21T09:01:07Z</time>
      </trkpt>
      <trkpt lat="42.8332" lon="0.56064">
        <ele>1478.733</ele>
        <time>2021-03-21T09:01:09Z</time>
      </trkpt>
      <trkpt lat="42.8332" lon="0.56066">
        <ele>1478.984</ele>
        <time>2021-03-21T09:01:11Z</time>
      </trkpt>
      <trkpt lat="42.83319" lon="0.56069">
        <ele>1478.884</ele>
        <time>2021-03-21T09:01:13Z</time>
      </trkpt>
      <trkpt lat="42.83319" lon="0.56071">
        <ele>1479.994</ele>
        <time>2021-03-21T09:01:15Z</time>
      </trkpt>
      <trkpt lat="42.83319" lon="0.56074">
        <ele>1481.234</ele>
        <time>2021-03-21T09:01:17Z</time>
      </trkpt>
      <trkpt lat="42.83319" lon="0.56076">
        <ele>1482.822</ele>
        <time>2021-03-21T09:01:19Z</time>
      </trkpt>
      <trkpt lat="42.83319" lon="0.56079">
        <ele>1483.613</ele>
        <time>2021-03-21T09:01:21Z</time>
      </trkpt>
      <trkpt lat="42.8332" lon="0.56081">
        <ele>1483.647</ele>
        <time>2021-03-21T09:01:23Z</time>
      </trkpt>
      <trkpt lat="42.8332" lon="0.56083">
        <ele>1485.353</ele>
        <time>2021-03-21T09:01:25Z</time>
      </trkpt>
      <trkpt lat="42.83321" lon="0.56085">
        <ele>1486.232</ele>
        <time>2021-03-21T09:01:27Z</time>
      </trkpt>
      <trkpt lat="42.83321" lon="0.56088">
        <ele>1486.581</ele>
        <time>2021-03-21T09:01:29Z</time>
      </trkpt>
      <trkpt lat="42.8332" lon="0.56091">
        <ele>1486.685</ele>
        <time>2021-03-21T09:01:31Z</time>
      </trkpt>
      <trkpt lat="42.8332" lon="0.56093">
        <ele>1487.267</ele>
        <time>2021-03-21T09:01:33Z</time>
      </trkpt>
      <trkpt lat="42.8332" lon="0.56096">
        <ele>1488.548</ele>
        <time>2021-03-21T09:01:35Z</time>
      </trkpt>
      <trkpt lat="42.83319" lon="0.56098">
        <ele>1488.722</ele>
        <time>2021-03-21T09:01:37Z</time>
      </trkpt>
      <trkpt lat="42.83319" lon="0.56101">
        <ele>1489.423</ele>
        <time>2021-03-21T09:01:39Z</time>
      </trkpt>
      <trkpt lat="42.83319" lon="0.56103">
        <ele>1489.86</ele>
        <time>2021-03-21T09:01:41Z</time>
      </trkpt>
      <trkpt lat="42.83319" lon="0.56105">
        <ele>1489.803</ele>
        <time>2021-03-21T09:01:43Z</time>
      </trkpt>
      <trkpt lat="42.83319" lon="0.56107">
        <ele>1488.648</ele>
        <time>2021-03-21T09:01:45Z</time>
      </trkpt>
      <trkpt lat="42.83319" lon="0.5611">
        <ele>1489.06</ele>
        <time>2021-03-21T09:01:47Z</time>
      </trkpt>
      <trkpt lat="42.83318" lon="0.56112">
        <ele>1489.651</ele>
        <time>2021-03-21T09:01:49Z</time>
      </trkpt>
      <trkpt lat="42.83318" lon="0.56115">
        <ele>1490.082</ele>
        <time>2021-03-21T09:01:51Z</time>
      </trkpt>
      <trkpt lat="42.83318" lon="0.56117">
        <ele>1490.234</ele>
        <time>2021-03-21T09:01:53Z</time>
      </trkpt>
      <trkpt lat="42.83318" lon="0.56119">
        <ele>1490.636</ele>
        <time>2021-03-21T09:01:55Z</time>
      </trkpt>
      <trkpt lat="42.83318" lon="0.56122">
        <ele>1490.935</ele>
        <time>2021-03-21T09:01:57Z</time>
      </trkpt>
      <trkpt lat="42.83319" lon="0.56124">
        <ele>1491.545</ele>
        <time>2021-03-21T09:01:59Z</time>
      </trkpt>
      <trkpt lat="42.83319" lon="0.56127">
        <ele>1491.473</ele>
        <time>2021-03-21T09:02:01Z</time>
      </trkpt>
      <trkpt lat="42.8332" lon="0.56129">
        <ele>1491.806</ele>
        <time>2021-03-21T09:02:03Z</time>
      </trkpt>
      <trkpt lat="42.8332" lon="0.56132">
        <ele>1491.546</ele>
        <time>2021-03-21T09:02:05Z</time>
      </trkpt>
      <trkpt lat="42.8332" lon="0.56135">
        <ele>1491.504</ele>
        <time>2021-03-21T09:02:07Z</time>
      </trkpt>
      <trkpt lat="42.83321" lon="0.56136">
        <ele>1492.256</ele>
        <time>2021-03-21T09:02:08Z</time>
      </trkpt>
      <trkpt lat="42.83321" lon="0.56141">
        <ele>1494.358</ele>
        <time>2021-03-21T09:02:11Z</time>
      </trkpt>
      <trkpt lat="42.83321" lon="0.56143">
        <ele>1494.839</ele>
        <time>2021-03-21T09:02:13Z</time>
      </trkpt>
      <trkpt lat="42.83321" lon="0.56146">
        <ele>1495.515</ele>
        <time>2021-03-21T09:02:15Z</time>
      </trkpt>
      <trkpt lat="42.83321" lon="0.56148">
        <ele>1495.404</ele>
        <time>2021-03-21T09:02:17Z</time>
      </trkpt>
      <trkpt lat="42.83321" lon="0.5615">
        <ele>1496.864</ele>
        <time>2021-03-21T09:02:19Z</time>
      </trkpt>
      <trkpt lat="42.83321" lon="0.56152">
        <ele>1497.118</ele>
        <time>2021-03-21T09:02:21Z</time>
      </trkpt>
      <trkpt lat="42.83321" lon="0.56155">
        <ele>1497.552</ele>
        <time>2021-03-21T09:02:23Z</time>
      </trkpt>
      <trkpt lat="42.83321" lon="0.56157">
        <ele>1497.713</ele>
        <time>2021-03-21T09:02:25Z</time>
      </trkpt>
      <trkpt lat="42.83321" lon="0.56159">
        <ele>1497.353</ele>
        <time>2021-03-21T09:02:27Z</time>
      </trkpt>
      <trkpt lat="42.8332" lon="0.56162">
        <ele>1498.054</ele>
        <time>2021-03-21T09:02:29Z</time>
      </trkpt>
      <trkpt lat="42.83321" lon="0.56164">
        <ele>1499.201</ele>
        <time>2021-03-21T09:02:31Z</time>
      </trkpt>
      <trkpt lat="42.83321" lon="0.56167">
        <ele>1499.627</ele>
        <time>2021-03-21T09:02:33Z</time>
      </trkpt>
      <trkpt lat="42.83321" lon="0.56169">
        <ele>1499.302</ele>
        <time>2021-03-21T09:02:35Z</time>
      </trkpt>
      <trkpt lat="42.83322" lon="0.56171">
        <ele>1499.475</ele>
        <time>2021-03-21T09:02:37Z</time>
      </trkpt>
      <trkpt lat="42.83324" lon="0.56172">
        <ele>1499.597</ele>
        <time>2021-03-21T09:02:39Z</time>
      </trkpt>
      <trkpt lat="42.83326" lon="0.56171">
        <ele>1498.135</ele>
        <time>2021-03-21T09:02:41Z</time>
      </trkpt>
      <trkpt lat="42.83327" lon="0.5617">
        <ele>1499.277</ele>
        <time>2021-03-21T09:02:43Z</time>
      </trkpt>
      <trkpt lat="42.83328" lon="0.56168">
        <ele>1500.484</ele>
        <time>2021-03-21T09:02:45Z</time>
      </trkpt>
      <trkpt lat="42.83328" lon="0.56166">
        <ele>1500.172</ele>
        <time>2021-03-21T09:02:47Z</time>
      </trkpt>
      <trkpt lat="42.83329" lon="0.56163">
        <ele>1499.848</ele>
        <time>2021-03-21T09:02:49Z</time>
      </trkpt>
      <trkpt lat="42.83329" lon="0.56161">
        <ele>1499.987</ele>
        <time>2021-03-21T09:02:51Z</time>
      </trkpt>
      <trkpt lat="42.83329" lon="0.56158">
        <ele>1499.879</ele>
        <time>2021-03-21T09:02:53Z</time>
      </trkpt>
      <trkpt lat="42.83329" lon="0.56156">
        <ele>1499.216</ele>
        <time>2021-03-21T09:02:55Z</time>
      </trkpt>
      <trkpt lat="42.83329" lon="0.56153">
        <ele>1498.843</ele>
        <time>2021-03-21T09:02:57Z</time>
      </trkpt>
      <trkpt lat="42.83329" lon="0.56151">
        <ele>1498.983</ele>
        <time>2021-03-21T09:02:59Z</time>
      </trkpt>
      <trkpt lat="42.83329" lon="0.56149">
        <ele>1499.582</ele>
        <time>2021-03-21T09:03:01Z</time>
      </trkpt>
      <trkpt lat="42.8333" lon="0.56146">
        <ele>1500.006</ele>
        <time>2021-03-21T09:03:03Z</time>
      </trkpt>
      <trkpt lat="42.8333" lon="0.56144">
        <ele>1500.12</ele>
        <time>2021-03-21T09:03:05Z</time>
      </trkpt>
      <trkpt lat="42.83331" lon="0.56141">
        <ele>1499.794</ele>
        <time>2021-03-21T09:03:07Z</time>
      </trkpt>
      <trkpt lat="42.83332" lon="0.56139">
        <ele>1499.632</ele>
        <time>2021-03-21T09:03:09Z</time>
      </trkpt>
      <trkpt lat="42.83333" lon="0.56137">
        <ele>1499.668</ele>
        <time>2021-03-21T09:03:11Z</time>
      </trkpt>
      <trkpt lat="42.83333" lon="0.56135">
        <ele>1500.384</ele>
        <time>2021-03-21T09:03:13Z</time>
      </trkpt>
      <trkpt lat="42.83334" lon="0.56133">
        <ele>1500.435</ele>
        <time>2021-03-21T09:03:15Z</time>
      </trkpt>
      <trkpt lat="42.83335" lon="0.56131">
        <ele>1500.156</ele>
        <time>2021-03-21T09:03:17Z</time>
      </trkpt>
      <trkpt lat="42.83336" lon="0.56129">
        <ele>1500.322</ele>
        <time>2021-03-21T09:03:19Z</time>
      </trkpt>
      <trkpt lat="42.83337" lon="0.56126">
        <ele>1501.272</ele>
        <time>2021-03-21T09:03:21Z</time>
      </trkpt>
      <trkpt lat="42.83338" lon="0.56125">
        <ele>1501.593</ele>
        <time>2021-03-21T09:03:23Z</time>
      </trkpt>
      <trkpt lat="42.83339" lon="0.56123">
        <ele>1501.463</ele>
        <time>2021-03-21T09:03:25Z</time>
      </trkpt>
      <trkpt lat="42.8334" lon="0.56121">
        <ele>1501.807</ele>
        <time>2021-03-21T09:03:27Z</time>
      </trkpt>
      <trkpt lat="42.83341" lon="0.56119">
        <ele>1502.058</ele>
        <time>2021-03-21T09:03:29Z</time>
      </trkpt>
      <trkpt lat="42.83341" lon="0.56117">
        <ele>1502.133</ele>
        <time>2021-03-21T09:03:31Z</time>
      </trkpt>
      <trkpt lat="42.83342" lon="0.56115">
        <ele>1502.408</ele>
        <time>2021-03-21T09:03:33Z</time>
      </trkpt>
      <trkpt lat="42.83343" lon="0.56113">
        <ele>1502.354</ele>
        <time>2021-03-21T09:03:35Z</time>
      </trkpt>
      <trkpt lat="42.83345" lon="0.56112">
        <ele>1502.132</ele>
        <time>2021-03-21T09:03:37Z</time>
      </trkpt>
      <trkpt lat="42.83346" lon="0.5611">
        <ele>1502.757</ele>
        <time>2021-03-21T09:03:39Z</time>
      </trkpt>
      <trkpt lat="42.83346" lon="0.56108">
        <ele>1503.05</ele>
        <time>2021-03-21T09:03:41Z</time>
      </trkpt>
      <trkpt lat="42.83347" lon="0.56106">
        <ele>1503.575</ele>
        <time>2021-03-21T09:03:43Z</time>
      </trkpt>
      <trkpt lat="42.83348" lon="0.56105">
        <ele>1503.456</ele>
        <time>2021-03-21T09:03:45Z</time>
      </trkpt>
      <trkpt lat="42.83349" lon="0.56103">
        <ele>1503.827</ele>
        <time>2021-03-21T09:03:47Z</time>
      </trkpt>
      <trkpt lat="42.83349" lon="0.56101">
        <ele>1503.675</ele>
        <time>2021-03-21T09:03:49Z</time>
      </trkpt>
      <trkpt lat="42.8335" lon="0.56099">
        <ele>1503.527</ele>
        <time>2021-03-21T09:03:51Z</time>
      </trkpt>
      <trkpt lat="42.83351" lon="0.56097">
        <ele>1502.998</ele>
        <time>2021-03-21T09:03:53Z</time>
      </trkpt>
      <trkpt lat="42.83352" lon="0.56095">
        <ele>1504.282</ele>
        <time>2021-03-21T09:03:55Z</time>
      </trkpt>
      <trkpt lat="42.83353" lon="0.56093">
        <ele>1504.58</ele>
        <time>2021-03-21T09:03:57Z</time>
      </trkpt>
      <trkpt lat="42.83353" lon="0.56091">
        <ele>1503.804</ele>
        <time>2021-03-21T09:03:59Z</time>
      </trkpt>
      <trkpt lat="42.83354" lon="0.56089">
        <ele>1503.944</ele>
        <time>2021-03-21T09:04:01Z</time>
      </trkpt>
      <trkpt lat="42.83354" lon="0.56086">
        <ele>1504.181</ele>
        <time>2021-03-21T09:04:03Z</time>
      </trkpt>
      <trkpt lat="42.83355" lon="0.56084">
        <ele>1503.67</ele>
        <time>2021-03-21T09:04:05Z</time>
      </trkpt>
      <trkpt lat="42.83355" lon="0.56082">
        <ele>1504.051</ele>
        <time>2021-03-21T09:04:07Z</time>
      </trkpt>
      <trkpt lat="42.83356" lon="0.5608">
        <ele>1504.217</ele>
        <time>2021-03-21T09:04:09Z</time>
      </trkpt>
      <trkpt lat="42.83356" lon="0.56078">
        <ele>1505.323</ele>
        <time>2021-03-21T09:04:11Z</time>
      </trkpt>
      <trkpt lat="42.83356" lon="0.56076">
        <ele>1505.504</ele>
        <time>2021-03-21T09:04:13Z</time>
      </trkpt>
      <trkpt lat="42.83357" lon="0.56074">
        <ele>1505.652</ele>
        <time>2021-03-21T09:04:15Z</time>
      </trkpt>
      <trkpt lat="42.83359" lon="0.56072">
        <ele>1505.295</ele>
        <time>2021-03-21T09:04:17Z</time>
      </trkpt>
      <trkpt lat="42.8336" lon="0.56071">
        <ele>1505.224</ele>
        <time>2021-03-21T09:04:19Z</time>
      </trkpt>
      <trkpt lat="42.83362" lon="0.5607">
        <ele>1504.697</ele>
        <time>2021-03-21T09:04:21Z</time>
      </trkpt>
      <trkpt lat="42.83363" lon="0.5607">
        <ele>1505.56</ele>
        <time>2021-03-21T09:04:23Z</time>
      </trkpt>
      <trkpt lat="42.83365" lon="0.56069">
        <ele>1507.573</ele>
        <time>2021-03-21T09:04:25Z</time>
      </trkpt>
      <trkpt lat="42.83366" lon="0.56069">
        <ele>1507.647</ele>
        <time>2021-03-21T09:04:27Z</time>
      </trkpt>
      <trkpt lat="42.83368" lon="0.5607">
        <ele>1507.881</ele>
        <time>2021-03-21T09:04:29Z</time>
      </trkpt>
      <trkpt lat="42.83368" lon="0.56072">
        <ele>1508.926</ele>
        <time>2021-03-21T09:04:31Z</time>
      </trkpt>
      <trkpt lat="42.83369" lon="0.56075">
        <ele>1508.86</ele>
        <time>2021-03-21T09:04:33Z</time>
      </trkpt>
      <trkpt lat="42.83369" lon="0.56077">
        <ele>1509.597</ele>
        <time>2021-03-21T09:04:35Z</time>
      </trkpt>
      <trkpt lat="42.83369" lon="0.56079">
        <ele>1509.36</ele>
        <time>2021-03-21T09:04:37Z</time>
      </trkpt>
      <trkpt lat="42.83368" lon="0.56081">
        <ele>1509.838</ele>
        <time>2021-03-21T09:04:39Z</time>
      </trkpt>
      <trkpt lat="42.83367" lon="0.56084">
        <ele>1509.833</ele>
        <time>2021-03-21T09:04:41Z</time>
      </trkpt>
      <trkpt lat="42.83367" lon="0.56086">
        <ele>1509.775</ele>
        <time>2021-03-21T09:04:43Z</time>
      </trkpt>
      <trkpt lat="42.83366" lon="0.56088">
        <ele>1509.231</ele>
        <time>2021-03-21T09:04:45Z</time>
      </trkpt>
      <trkpt lat="42.83366" lon="0.5609">
        <ele>1509.069</ele>
        <time>2021-03-21T09:04:47Z</time>
      </trkpt>
      <trkpt lat="42.83366" lon="0.56092">
        <ele>1509.413</ele>
        <time>2021-03-21T09:04:49Z</time>
      </trkpt>
      <trkpt lat="42.83366" lon="0.56095">
        <ele>1511.067</ele>
        <time>2021-03-21T09:04:51Z</time>
      </trkpt>
      <trkpt lat="42.83365" lon="0.56097">
        <ele>1511.326</ele>
        <time>2021-03-21T09:04:53Z</time>
      </trkpt>
      <trkpt lat="42.83365" lon="0.561">
        <ele>1510.492</ele>
        <time>2021-03-21T09:04:55Z</time>
      </trkpt>
      <trkpt lat="42.83364" lon="0.56102">
        <ele>1511.397</ele>
        <time>2021-03-21T09:04:57Z</time>
      </trkpt>
      <trkpt lat="42.83364" lon="0.56104">
        <ele>1510.901</ele>
        <time>2021-03-21T09:04:59Z</time>
      </trkpt>
      <trkpt lat="42.83364" lon="0.56107">
        <ele>1510.62</ele>
        <time>2021-03-21T09:05:01Z</time>
      </trkpt>
      <trkpt lat="42.83364" lon="0.56109">
        <ele>1510.656</ele>
        <time>2021-03-21T09:05:03Z</time>
      </trkpt>
      <trkpt lat="42.83364" lon="0.56112">
        <ele>1512.01</ele>
        <time>2021-03-21T09:05:05Z</time>
      </trkpt>
      <trkpt lat="42.83364" lon="0.56114">
        <ele>1511.145</ele>
        <time>2021-03-21T09:05:07Z</time>
      </trkpt>
      <trkpt lat="42.83364" lon="0.56117">
        <ele>1510.739</ele>
        <time>2021-03-21T09:05:09Z</time>
      </trkpt>
      <trkpt lat="42.83364" lon="0.56119">
        <ele>1510.206</ele>
        <time>2021-03-21T09:05:11Z</time>
      </trkpt>
      <trkpt lat="42.83363" lon="0.56121">
        <ele>1511.042</ele>
        <time>2021-03-21T09:05:13Z</time>
      </trkpt>
      <trkpt lat="42.83362" lon="0.56124">
        <ele>1511.487</ele>
        <time>2021-03-21T09:05:15Z</time>
      </trkpt>
      <trkpt lat="42.83362" lon="0.56126">
        <ele>1510.882</ele>
        <time>2021-03-21T09:05:17Z</time>
      </trkpt>
      <trkpt lat="42.83362" lon="0.56128">
        <ele>1510.604</ele>
        <time>2021-03-21T09:05:19Z</time>
      </trkpt>
      <trkpt lat="42.83362" lon="0.56131">
        <ele>1510.297</ele>
        <time>2021-03-21T09:05:21Z</time>
      </trkpt>
      <trkpt lat="42.83362" lon="0.56134">
        <ele>1510.667</ele>
        <time>2021-03-21T09:05:23Z</time>
      </trkpt>
      <trkpt lat="42.83362" lon="0.56136">
        <ele>1510.864</ele>
        <time>2021-03-21T09:05:25Z</time>
      </trkpt>
      <trkpt lat="42.83362" lon="0.56139">
        <ele>1510.449</ele>
        <time>2021-03-21T09:05:27Z</time>
      </trkpt>
      <trkpt lat="42.83361" lon="0.56141">
        <ele>1509.377</ele>
        <time>2021-03-21T09:05:29Z</time>
      </trkpt>
      <trkpt lat="42.83361" lon="0.56144">
        <ele>1509.63</ele>
        <time>2021-03-21T09:05:31Z</time>
      </trkpt>
      <trkpt lat="42.83361" lon="0.56147">
        <ele>1509.928</ele>
        <time>2021-03-21T09:05:33Z</time>
      </trkpt>
      <trkpt lat="42.83361" lon="0.5615">
        <ele>1509.672</ele>
        <time>2021-03-21T09:05:35Z</time>
      </trkpt>
      <trkpt lat="42.83361" lon="0.56153">
        <ele>1510.49</ele>
        <time>2021-03-21T09:05:37Z</time>
      </trkpt>
      <trkpt lat="42.8336" lon="0.56156">
        <ele>1511.773</ele>
        <time>2021-03-21T09:05:39Z</time>
      </trkpt>
      <trkpt lat="42.8336" lon="0.56159">
        <ele>1512.295</ele>
        <time>2021-03-21T09:05:41Z</time>
      </trkpt>
      <trkpt lat="42.8336" lon="0.56162">
        <ele>1511.529</ele>
        <time>2021-03-21T09:05:43Z</time>
      </trkpt>
      <trkpt lat="42.8336" lon="0.56165">
        <ele>1512.406</ele>
        <time>2021-03-21T09:05:45Z</time>
      </trkpt>
      <trkpt lat="42.8336" lon="0.56168">
        <ele>1513.378</ele>
        <time>2021-03-21T09:05:47Z</time>
      </trkpt>
      <trkpt lat="42.8336" lon="0.56171">
        <ele>1514.066</ele>
        <time>2021-03-21T09:05:49Z</time>
      </trkpt>
      <trkpt lat="42.8336" lon="0.56174">
        <ele>1515.941</ele>
        <time>2021-03-21T09:05:51Z</time>
      </trkpt>
      <trkpt lat="42.8336" lon="0.56177">
        <ele>1516.713</ele>
        <time>2021-03-21T09:05:53Z</time>
      </trkpt>
      <trkpt lat="42.8336" lon="0.5618">
        <ele>1517.163</ele>
        <time>2021-03-21T09:05:55Z</time>
      </trkpt>
      <trkpt lat="42.8336" lon="0.56183">
        <ele>1516.462</ele>
        <time>2021-03-21T09:05:57Z</time>
      </trkpt>
      <trkpt lat="42.8336" lon="0.56185">
        <ele>1517.167</ele>
        <time>2021-03-21T09:05:59Z</time>
      </trkpt>
      <trkpt lat="42.8336" lon="0.56187">
        <ele>1517.176</ele>
        <time>2021-03-21T09:06:00Z</time>
      </trkpt>
      <trkpt lat="42.8336" lon="0.56189">
        <ele>1517.443</ele>
        <time>2021-03-21T09:06:02Z</time>
      </trkpt>
      <trkpt lat="42.8336" lon="0.56193">
        <ele>1517.913</ele>
        <time>2021-03-21T09:06:05Z</time>
      </trkpt>
      <trkpt lat="42.83361" lon="0.56195">
        <ele>1517.866</ele>
        <time>2021-03-21T09:06:07Z</time>
      </trkpt>
      <trkpt lat="42.8336" lon="0.56198">
        <ele>1517.559</ele>
        <time>2021-03-21T09:06:09Z</time>
      </trkpt>
      <trkpt lat="42.83361" lon="0.562">
        <ele>1517.275</ele>
        <time>2021-03-21T09:06:11Z</time>
      </trkpt>
      <trkpt lat="42.83361" lon="0.56203">
        <ele>1516.917</ele>
        <time>2021-03-21T09:06:13Z</time>
      </trkpt>
      <trkpt lat="42.83362" lon="0.56205">
        <ele>1517.044</ele>
        <time>2021-03-21T09:06:15Z</time>
      </trkpt>
      <trkpt lat="42.83362" lon="0.56207">
        <ele>1516.528</ele>
        <time>2021-03-21T09:06:17Z</time>
      </trkpt>
      <trkpt lat="42.83363" lon="0.5621">
        <ele>1516.232</ele>
        <time>2021-03-21T09:06:19Z</time>
      </trkpt>
      <trkpt lat="42.83362" lon="0.56213">
        <ele>1516.502</ele>
        <time>2021-03-21T09:06:21Z</time>
      </trkpt>
      <trkpt lat="42.83362" lon="0.56215">
        <ele>1516.168</ele>
        <time>2021-03-21T09:06:23Z</time>
      </trkpt>
      <trkpt lat="42.83362" lon="0.56218">
        <ele>1516.275</ele>
        <time>2021-03-21T09:06:25Z</time>
      </trkpt>
      <trkpt lat="42.83363" lon="0.56221">
        <ele>1517.227</ele>
        <time>2021-03-21T09:06:27Z</time>
      </trkpt>
      <trkpt lat="42.83363" lon="0.56223">
        <ele>1517.49</ele>
        <time>2021-03-21T09:06:29Z</time>
      </trkpt>
      <trkpt lat="42.83364" lon="0.56226">
        <ele>1518.189</ele>
        <time>2021-03-21T09:06:31Z</time>
      </trkpt>
      <trkpt lat="42.83364" lon="0.56229">
        <ele>1518.943</ele>
        <time>2021-03-21T09:06:33Z</time>
      </trkpt>
      <trkpt lat="42.83365" lon="0.56231">
        <ele>1519.981</ele>
        <time>2021-03-21T09:06:35Z</time>
      </trkpt>
      <trkpt lat="42.83365" lon="0.56234">
        <ele>1520.083</ele>
        <time>2021-03-21T09:06:37Z</time>
      </trkpt>
      <trkpt lat="42.83365" lon="0.56236">
        <ele>1521.274</ele>
        <time>2021-03-21T09:06:39Z</time>
      </trkpt>
      <trkpt lat="42.83365" lon="0.56239">
        <ele>1522.453</ele>
        <time>2021-03-21T09:06:41Z</time>
      </trkpt>
      <trkpt lat="42.83365" lon="0.56243">
        <ele>1523.508</ele>
        <time>2021-03-21T09:06:43Z</time>
      </trkpt>
      <trkpt lat="42.83366" lon="0.56245">
        <ele>1523.447</ele>
        <time>2021-03-21T09:06:45Z</time>
      </trkpt>
      <trkpt lat="42.83366" lon="0.56248">
        <ele>1523.004</ele>
        <time>2021-03-21T09:06:47Z</time>
      </trkpt>
      <trkpt lat="42.83366" lon="0.56251">
        <ele>1523.4</ele>
        <time>2021-03-21T09:06:49Z</time>
      </trkpt>
      <trkpt lat="42.83366" lon="0.56253">
        <ele>1524.23</ele>
        <time>2021-03-21T09:06:51Z</time>
      </trkpt>
      <trkpt lat="42.83365" lon="0.56256">
        <ele>1524.034</ele>
        <time>2021-03-21T09:06:53Z</time>
      </trkpt>
      <trkpt lat="42.83365" lon="0.56258">
        <ele>1524.012</ele>
        <time>2021-03-21T09:06:55Z</time>
      </trkpt>
      <trkpt lat="42.83365" lon="0.56261">
        <ele>1525.014</ele>
        <time>2021-03-21T09:06:57Z</time>
      </trkpt>
      <trkpt lat="42.83365" lon="0.56264">
        <ele>1525.581</ele>
        <time>2021-03-21T09:06:59Z</time>
      </trkpt>
      <trkpt lat="42.83365" lon="0.56266">
        <ele>1525.627</ele>
        <time>2021-03-21T09:07:01Z</time>
      </trkpt>
      <trkpt lat="42.83366" lon="0.56269">
        <ele>1527.62</ele>
        <time>2021-03-21T09:07:03Z</time>
      </trkpt>
      <trkpt lat="42.83366" lon="0.56272">
        <ele>1526.448</ele>
        <time>2021-03-21T09:07:05Z</time>
      </trkpt>
      <trkpt lat="42.83366" lon="0.56274">
        <ele>1526.985</ele>
        <time>2021-03-21T09:07:07Z</time>
      </trkpt>
      <trkpt lat="42.83366" lon="0.56277">
        <ele>1527.329</ele>
        <time>2021-03-21T09:07:09Z</time>
      </trkpt>
      <trkpt lat="42.83366" lon="0.56279">
        <ele>1527.109</ele>
        <time>2021-03-21T09:07:10Z</time>
      </trkpt>
      <trkpt lat="42.83366" lon="0.56283">
        <ele>1528.87</ele>
        <time>2021-03-21T09:07:13Z</time>
      </trkpt>
      <trkpt lat="42.83367" lon="0.56285">
        <ele>1529.115</ele>
        <time>2021-03-21T09:07:15Z</time>
      </trkpt>
      <trkpt lat="42.83367" lon="0.56288">
        <ele>1529.352</ele>
        <time>2021-03-21T09:07:17Z</time>
      </trkpt>
      <trkpt lat="42.83368" lon="0.5629">
        <ele>1528.756</ele>
        <time>2021-03-21T09:07:19Z</time>
      </trkpt>
      <trkpt lat="42.83368" lon="0.56292">
        <ele>1529.31</ele>
        <time>2021-03-21T09:07:21Z</time>
      </trkpt>
      <trkpt lat="42.83368" lon="0.56295">
        <ele>1530.102</ele>
        <time>2021-03-21T09:07:23Z</time>
      </trkpt>
      <trkpt lat="42.83368" lon="0.56297">
        <ele>1529.716</ele>
        <time>2021-03-21T09:07:25Z</time>
      </trkpt>
      <trkpt lat="42.83368" lon="0.563">
        <ele>1529.571</ele>
        <time>2021-03-21T09:07:27Z</time>
      </trkpt>
      <trkpt lat="42.83368" lon="0.56302">
        <ele>1529.42</ele>
        <time>2021-03-21T09:07:29Z</time>
      </trkpt>
      <trkpt lat="42.83368" lon="0.56305">
        <ele>1529.938</ele>
        <time>2021-03-21T09:07:31Z</time>
      </trkpt>
      <trkpt lat="42.83368" lon="0.56307">
        <ele>1530.088</ele>
        <time>2021-03-21T09:07:33Z</time>
      </trkpt>
      <trkpt lat="42.83368" lon="0.5631">
        <ele>1531.039</ele>
        <time>2021-03-21T09:07:35Z</time>
      </trkpt>
      <trkpt lat="42.83368" lon="0.56312">
        <ele>1530.073</ele>
        <time>2021-03-21T09:07:37Z</time>
      </trkpt>
      <trkpt lat="42.83368" lon="0.56315">
        <ele>1530.038</ele>
        <time>2021-03-21T09:07:39Z</time>
      </trkpt>
      <trkpt lat="42.83368" lon="0.56318">
        <ele>1530.203</ele>
        <time>2021-03-21T09:07:41Z</time>
      </trkpt>
      <trkpt lat="42.83368" lon="0.5632">
        <ele>1529.65</ele>
        <time>2021-03-21T09:07:43Z</time>
      </trkpt>
      <trkpt lat="42.83368" lon="0.56323">
        <ele>1530.662</ele>
        <time>2021-03-21T09:07:45Z</time>
      </trkpt>
      <trkpt lat="42.83368" lon="0.56326">
        <ele>1530.586</ele>
        <time>2021-03-21T09:07:47Z</time>
      </trkpt>
      <trkpt lat="42.83368" lon="0.56328">
        <ele>1531.208</ele>
        <time>2021-03-21T09:07:49Z</time>
      </trkpt>
      <trkpt lat="42.83368" lon="0.56331">
        <ele>1531.635</ele>
        <time>2021-03-21T09:07:51Z</time>
      </trkpt>
      <trkpt lat="42.83367" lon="0.56333">
        <ele>1530.977</ele>
        <time>2021-03-21T09:07:53Z</time>
      </trkpt>
      <trkpt lat="42.83367" lon="0.56336">
        <ele>1530.215</ele>
        <time>2021-03-21T09:07:55Z</time>
      </trkpt>
      <trkpt lat="42.83366" lon="0.56339">
        <ele>1530.927</ele>
        <time>2021-03-21T09:07:57Z</time>
      </trkpt>
      <trkpt lat="42.83365" lon="0.56342">
        <ele>1532.142</ele>
        <time>2021-03-21T09:07:59Z</time>
      </trkpt>
      <trkpt lat="42.83364" lon="0.56344">
        <ele>1532.959</ele>
        <time>2021-03-21T09:08:01Z</time>
      </trkpt>
      <trkpt lat="42.83363" lon="0.56347">
        <ele>1533.79</ele>
        <time>2021-03-21T09:08:03Z</time>
      </trkpt>
      <trkpt lat="42.83362" lon="0.5635">
        <ele>1535.472</ele>
        <time>2021-03-21T09:08:05Z</time>
      </trkpt>
      <trkpt lat="42.83361" lon="0.56352">
        <ele>1537.507</ele>
        <time>2021-03-21T09:08:07Z</time>
      </trkpt>
      <trkpt lat="42.8336" lon="0.56355">
        <ele>1537.755</ele>
        <time>2021-03-21T09:08:09Z</time>
      </trkpt>
      <trkpt lat="42.83359" lon="0.56356">
        <ele>1536.961</ele>
        <time>2021-03-21T09:08:11Z</time>
      </trkpt>
      <trkpt lat="42.83358" lon="0.56358">
        <ele>1538.129</ele>
        <time>2021-03-21T09:08:13Z</time>
      </trkpt>
      <trkpt lat="42.83357" lon="0.56361">
        <ele>1538.316</ele>
        <time>2021-03-21T09:08:15Z</time>
      </trkpt>
      <trkpt lat="42.83356" lon="0.56363">
        <ele>1538.518</ele>
        <time>2021-03-21T09:08:17Z</time>
      </trkpt>
      <trkpt lat="42.83355" lon="0.56365">
        <ele>1539.678</ele>
        <time>2021-03-21T09:08:19Z</time>
      </trkpt>
      <trkpt lat="42.83354" lon="0.56367">
        <ele>1539.603</ele>
        <time>2021-03-21T09:08:21Z</time>
      </trkpt>
      <trkpt lat="42.83354" lon="0.56369">
        <ele>1539.735</ele>
        <time>2021-03-21T09:08:23Z</time>
      </trkpt>
      <trkpt lat="42.83353" lon="0.56371">
        <ele>1539.478</ele>
        <time>2021-03-21T09:08:25Z</time>
      </trkpt>
      <trkpt lat="42.83353" lon="0.56373">
        <ele>1540.384</ele>
        <time>2021-03-21T09:08:27Z</time>
      </trkpt>
      <trkpt lat="42.83352" lon="0.56375">
        <ele>1540.464</ele>
        <time>2021-03-21T09:08:29Z</time>
      </trkpt>
      <trkpt lat="42.83353" lon="0.56375">
        <ele>1541.127</ele>
        <time>2021-03-21T09:08:31Z</time>
      </trkpt>
      <trkpt lat="42.83353" lon="0.56375">
        <ele>1541.122</ele>
        <time>2021-03-21T09:08:33Z</time>
      </trkpt>
      <trkpt lat="42.83353" lon="0.56375">
        <ele>1541.123</ele>
        <time>2021-03-21T09:08:35Z</time>
      </trkpt>
      <trkpt lat="42.83353" lon="0.56375">
        <ele>1541.117</ele>
        <time>2021-03-21T09:08:37Z</time>
      </trkpt>
      <trkpt lat="42.83353" lon="0.56375">
        <ele>1541.109</ele>
        <time>2021-03-21T09:08:39Z</time>
      </trkpt>
      <trkpt lat="42.83353" lon="0.56376">
        <ele>1540.621</ele>
        <time>2021-03-21T09:08:41Z</time>
      </trkpt>
      <trkpt lat="42.83354" lon="0.56378">
        <ele>1542.731</ele>
        <time>2021-03-21T09:08:43Z</time>
      </trkpt>
      <trkpt lat="42.83353" lon="0.56378">
        <ele>1542.813</ele>
        <time>2021-03-21T09:08:45Z</time>
      </trkpt>
      <trkpt lat="42.83353" lon="0.56378">
        <ele>1542.813</ele>
        <time>2021-03-21T09:08:47Z</time>
      </trkpt>
      <trkpt lat="42.83353" lon="0.56378">
        <ele>1542.812</ele>
        <time>2021-03-21T09:08:49Z</time>
      </trkpt>
      <trkpt lat="42.83353" lon="0.56378">
        <ele>1542.817</ele>
        <time>2021-03-21T09:08:51Z</time>
      </trkpt>
      <trkpt lat="42.83353" lon="0.56378">
        <ele>1542.826</ele>
        <time>2021-03-21T09:08:53Z</time>
      </trkpt>
      <trkpt lat="42.83353" lon="0.56378">
        <ele>1543.288</ele>
        <time>2021-03-21T09:08:55Z</time>
      </trkpt>
      <trkpt lat="42.83354" lon="0.56379">
        <ele>1543.549</ele>
        <time>2021-03-21T09:08:57Z</time>
      </trkpt>
      <trkpt lat="42.83353" lon="0.56379">
        <ele>1543.437</ele>
        <time>2021-03-21T09:08:59Z</time>
      </trkpt>
      <trkpt lat="42.83353" lon="0.56379">
        <ele>1543.444</ele>
        <time>2021-03-21T09:09:01Z</time>
      </trkpt>
      <trkpt lat="42.83353" lon="0.56379">
        <ele>1543.471</ele>
        <time>2021-03-21T09:09:03Z</time>
      </trkpt>
      <trkpt lat="42.83353" lon="0.56379">
        <ele>1543.493</ele>
        <time>2021-03-21T09:09:05Z</time>
      </trkpt>
      <trkpt lat="42.83353" lon="0.56379">
        <ele>1543.509</ele>
        <time>2021-03-21T09:09:07Z</time>
      </trkpt>
      <trkpt lat="42.83353" lon="0.56379">
        <ele>1543.532</ele>
        <time>2021-03-21T09:09:09Z</time>
      </trkpt>
      <trkpt lat="42.83353" lon="0.56379">
        <ele>1543.551</ele>
        <time>2021-03-21T09:09:11Z</time>
      </trkpt>
      <trkpt lat="42.83353" lon="0.56379">
        <ele>1543.548</ele>
        <time>2021-03-21T09:09:13Z</time>
      </trkpt>
      <trkpt lat="42.83353" lon="0.5638">
        <ele>1543.548</ele>
        <time>2021-03-21T09:09:15Z</time>
      </trkpt>
      <trkpt lat="42.83353" lon="0.5638">
        <ele>1543.55</ele>
        <time>2021-03-21T09:09:17Z</time>
      </trkpt>
      <trkpt lat="42.83353" lon="0.5638">
        <ele>1543.554</ele>
        <time>2021-03-21T09:09:19Z</time>
      </trkpt>
      <trkpt lat="42.83353" lon="0.5638">
        <ele>1543.55</ele>
        <time>2021-03-21T09:09:21Z</time>
      </trkpt>
      <trkpt lat="42.83353" lon="0.5638">
        <ele>1543.541</ele>
        <time>2021-03-21T09:09:23Z</time>
      </trkpt>
      <trkpt lat="42.83353" lon="0.5638">
        <ele>1543.537</ele>
        <time>2021-03-21T09:09:25Z</time>
      </trkpt>
      <trkpt lat="42.83353" lon="0.5638">
        <ele>1543.537</ele>
        <time>2021-03-21T09:09:27Z</time>
      </trkpt>
      <trkpt lat="42.83353" lon="0.5638">
        <ele>1543.53</ele>
        <time>2021-03-21T09:09:29Z</time>
      </trkpt>
      <trkpt lat="42.83353" lon="0.5638">
        <ele>1543.529</ele>
        <time>2021-03-21T09:09:31Z</time>
      </trkpt>
      <trkpt lat="42.83353" lon="0.5638">
        <ele>1543.525</ele>
        <time>2021-03-21T09:09:33Z</time>
      </trkpt>
      <trkpt lat="42.83353" lon="0.5638">
        <ele>1543.523</ele>
        <time>2021-03-21T09:09:35Z</time>
      </trkpt>
      <trkpt lat="42.83353" lon="0.5638">
        <ele>1543.518</ele>
        <time>2021-03-21T09:09:37Z</time>
      </trkpt>
      <trkpt lat="42.83353" lon="0.5638">
        <ele>1543.518</ele>
        <time>2021-03-21T09:09:39Z</time>
      </trkpt>
      <trkpt lat="42.83353" lon="0.5638">
        <ele>1543.515</ele>
        <time>2021-03-21T09:09:41Z</time>
      </trkpt>
      <trkpt lat="42.83353" lon="0.5638">
        <ele>1543.517</ele>
        <time>2021-03-21T09:09:43Z</time>
      </trkpt>
      <trkpt lat="42.83353" lon="0.5638">
        <ele>1543.519</ele>
        <time>2021-03-21T09:09:45Z</time>
      </trkpt>
      <trkpt lat="42.83353" lon="0.5638">
        <ele>1543.52</ele>
        <time>2021-03-21T09:09:47Z</time>
      </trkpt>
      <trkpt lat="42.83353" lon="0.5638">
        <ele>1543.518</ele>
        <time>2021-03-21T09:09:49Z</time>
      </trkpt>
      <trkpt lat="42.83353" lon="0.5638">
        <ele>1543.518</ele>
        <time>2021-03-21T09:09:51Z</time>
      </trkpt>
      <trkpt lat="42.83353" lon="0.5638">
        <ele>1543.519</ele>
        <time>2021-03-21T09:09:53Z</time>
      </trkpt>
      <trkpt lat="42.83353" lon="0.5638">
        <ele>1543.522</ele>
        <time>2021-03-21T09:09:55Z</time>
      </trkpt>
      <trkpt lat="42.83353" lon="0.5638">
        <ele>1543.538</ele>
        <time>2021-03-21T09:09:57Z</time>
      </trkpt>
      <trkpt lat="42.83353" lon="0.5638">
        <ele>1543.538</ele>
        <time>2021-03-21T09:09:59Z</time>
      </trkpt>
      <trkpt lat="42.83353" lon="0.5638">
        <ele>1543.537</ele>
        <time>2021-03-21T09:10:01Z</time>
      </trkpt>
      <trkpt lat="42.83353" lon="0.5638">
        <ele>1543.539</ele>
        <time>2021-03-21T09:10:03Z</time>
      </trkpt>
      <trkpt lat="42.83353" lon="0.5638">
        <ele>1543.539</ele>
        <time>2021-03-21T09:10:05Z</time>
      </trkpt>
      <trkpt lat="42.83353" lon="0.5638">
        <ele>1543.536</ele>
        <time>2021-03-21T09:10:07Z</time>
      </trkpt>
      <trkpt lat="42.83353" lon="0.5638">
        <ele>1543.534</ele>
        <time>2021-03-21T09:10:09Z</time>
      </trkpt>
      <trkpt lat="42.83353" lon="0.5638">
        <ele>1543.54</ele>
        <time>2021-03-21T09:10:11Z</time>
      </trkpt>
      <trkpt lat="42.83353" lon="0.5638">
        <ele>1543.547</ele>
        <time>2021-03-21T09:10:13Z</time>
      </trkpt>
      <trkpt lat="42.83353" lon="0.5638">
        <ele>1543.543</ele>
        <time>2021-03-21T09:10:15Z</time>
      </trkpt>
      <trkpt lat="42.83353" lon="0.5638">
        <ele>1543.542</ele>
        <time>2021-03-21T09:10:17Z</time>
      </trkpt>
      <trkpt lat="42.83353" lon="0.5638">
        <ele>1543.546</ele>
        <time>2021-03-21T09:10:19Z</time>
      </trkpt>
      <trkpt lat="42.83353" lon="0.5638">
        <ele>1543.548</ele>
        <time>2021-03-21T09:10:21Z</time>
      </trkpt>
      <trkpt lat="42.83353" lon="0.5638">
        <ele>1543.555</ele>
        <time>2021-03-21T09:10:23Z</time>
      </trkpt>
      <trkpt lat="42.83353" lon="0.5638">
        <ele>1543.557</ele>
        <time>2021-03-21T09:10:25Z</time>
      </trkpt>
      <trkpt lat="42.83353" lon="0.5638">
        <ele>1543.567</ele>
        <time>2021-03-21T09:10:27Z</time>
      </trkpt>
      <trkpt lat="42.83353" lon="0.5638">
        <ele>1543.577</ele>
        <time>2021-03-21T09:10:29Z</time>
      </trkpt>
      <trkpt lat="42.83353" lon="0.5638">
        <ele>1543.59</ele>
        <time>2021-03-21T09:10:31Z</time>
      </trkpt>
      <trkpt lat="42.83353" lon="0.5638">
        <ele>1543.573</ele>
        <time>2021-03-21T09:10:33Z</time>
      </trkpt>
      <trkpt lat="42.83353" lon="0.5638">
        <ele>1543.567</ele>
        <time>2021-03-21T09:10:35Z</time>
      </trkpt>
      <trkpt lat="42.83353" lon="0.5638">
        <ele>1543.573</ele>
        <time>2021-03-21T09:10:37Z</time>
      </trkpt>
      <trkpt lat="42.83353" lon="0.5638">
        <ele>1543.579</ele>
        <time>2021-03-21T09:10:39Z</time>
      </trkpt>
      <trkpt lat="42.83353" lon="0.5638">
        <ele>1543.579</ele>
        <time>2021-03-21T09:10:41Z</time>
      </trkpt>
      <trkpt lat="42.83353" lon="0.5638">
        <ele>1543.571</ele>
        <time>2021-03-21T09:10:43Z</time>
      </trkpt>
      <trkpt lat="42.83353" lon="0.5638">
        <ele>1543.56</ele>
        <time>2021-03-21T09:10:45Z</time>
      </trkpt>
      <trkpt lat="42.83353" lon="0.5638">
        <ele>1543.555</ele>
        <time>2021-03-21T09:10:47Z</time>
      </trkpt>
      <trkpt lat="42.83353" lon="0.5638">
        <ele>1543.536</ele>
        <time>2021-03-21T09:10:49Z</time>
      </trkpt>
      <trkpt lat="42.83353" lon="0.5638">
        <ele>1543.535</ele>
        <time>2021-03-21T09:10:51Z</time>
      </trkpt>
      <trkpt lat="42.83353" lon="0.5638">
        <ele>1543.535</ele>
        <time>2021-03-21T09:10:53Z</time>
      </trkpt>
      <trkpt lat="42.83353" lon="0.5638">
        <ele>1543.545</ele>
        <time>2021-03-21T09:10:55Z</time>
      </trkpt>
      <trkpt lat="42.83353" lon="0.5638">
        <ele>1543.543</ele>
        <time>2021-03-21T09:10:57Z</time>
      </trkpt>
      <trkpt lat="42.83353" lon="0.5638">
        <ele>1543.528</ele>
        <time>2021-03-21T09:10:59Z</time>
      </trkpt>
      <trkpt lat="42.83353" lon="0.56379">
        <ele>1544.053</ele>
        <time>2021-03-21T09:11:01Z</time>
      </trkpt>
      <trkpt lat="42.83353" lon="0.56379">
        <ele>1544.049</ele>
        <time>2021-03-21T09:11:03Z</time>
      </trkpt>
      <trkpt lat="42.83353" lon="0.56379">
        <ele>1544.04</ele>
        <time>2021-03-21T09:11:05Z</time>
      </trkpt>
      <trkpt lat="42.83353" lon="0.56379">
        <ele>1544.029</ele>
        <time>2021-03-21T09:11:07Z</time>
      </trkpt>
      <trkpt lat="42.83353" lon="0.56379">
        <ele>1544.031</ele>
        <time>2021-03-21T09:11:09Z</time>
      </trkpt>
      <trkpt lat="42.83353" lon="0.56379">
        <ele>1544.201</ele>
        <time>2021-03-21T09:11:11Z</time>
      </trkpt>
      <trkpt lat="42.83353" lon="0.56379">
        <ele>1544.195</ele>
        <time>2021-03-21T09:11:13Z</time>
      </trkpt>
      <trkpt lat="42.83353" lon="0.56379">
        <ele>1543.431</ele>
        <time>2021-03-21T09:11:15Z</time>
      </trkpt>
      <trkpt lat="42.83353" lon="0.56379">
        <ele>1543.423</ele>
        <time>2021-03-21T09:11:17Z</time>
      </trkpt>
      <trkpt lat="42.83353" lon="0.56379">
        <ele>1543.424</ele>
        <time>2021-03-21T09:11:19Z</time>
      </trkpt>
      <trkpt lat="42.83353" lon="0.56379">
        <ele>1543.427</ele>
        <time>2021-03-21T09:11:21Z</time>
      </trkpt>
      <trkpt lat="42.83353" lon="0.56379">
        <ele>1543.425</ele>
        <time>2021-03-21T09:11:23Z</time>
      </trkpt>
      <trkpt lat="42.83353" lon="0.56379">
        <ele>1543.175</ele>
        <time>2021-03-21T09:11:25Z</time>
      </trkpt>
      <trkpt lat="42.83353" lon="0.56378">
        <ele>1543.181</ele>
        <time>2021-03-21T09:11:27Z</time>
      </trkpt>
      <trkpt lat="42.83353" lon="0.56378">
        <ele>1543.184</ele>
        <time>2021-03-21T09:11:29Z</time>
      </trkpt>
      <trkpt lat="42.83353" lon="0.56378">
        <ele>1543.185</ele>
        <time>2021-03-21T09:11:31Z</time>
      </trkpt>
      <trkpt lat="42.83353" lon="0.56378">
        <ele>1543.19</ele>
        <time>2021-03-21T09:11:33Z</time>
      </trkpt>
      <trkpt lat="42.83353" lon="0.56377">
        <ele>1542.656</ele>
        <time>2021-03-21T09:11:35Z</time>
      </trkpt>
      <trkpt lat="42.83353" lon="0.56377">
        <ele>1542.652</ele>
        <time>2021-03-21T09:11:37Z</time>
      </trkpt>
      <trkpt lat="42.83353" lon="0.56377">
        <ele>1542.654</ele>
        <time>2021-03-21T09:11:39Z</time>
      </trkpt>
      <trkpt lat="42.83353" lon="0.56377">
        <ele>1542.722</ele>
        <time>2021-03-21T09:11:41Z</time>
      </trkpt>
      <trkpt lat="42.83354" lon="0.56377">
        <ele>1542.8</ele>
        <time>2021-03-21T09:11:43Z</time>
      </trkpt>
      <trkpt lat="42.83354" lon="0.56377">
        <ele>1542.808</ele>
        <time>2021-03-21T09:11:45Z</time>
      </trkpt>
      <trkpt lat="42.83354" lon="0.56377">
        <ele>1542.817</ele>
        <time>2021-03-21T09:11:47Z</time>
      </trkpt>
      <trkpt lat="42.83354" lon="0.56377">
        <ele>1542.82</ele>
        <time>2021-03-21T09:11:49Z</time>
      </trkpt>
      <trkpt lat="42.83354" lon="0.56377">
        <ele>1542.822</ele>
        <time>2021-03-21T09:11:51Z</time>
      </trkpt>
      <trkpt lat="42.83354" lon="0.56377">
        <ele>1542.823</ele>
        <time>2021-03-21T09:11:53Z</time>
      </trkpt>
      <trkpt lat="42.83354" lon="0.56377">
        <ele>1542.824</ele>
        <time>2021-03-21T09:11:55Z</time>
      </trkpt>
      <trkpt lat="42.83354" lon="0.56377">
        <ele>1542.828</ele>
        <time>2021-03-21T09:11:57Z</time>
      </trkpt>
      <trkpt lat="42.83354" lon="0.56377">
        <ele>1542.829</ele>
        <time>2021-03-21T09:11:59Z</time>
      </trkpt>
      <trkpt lat="42.83354" lon="0.56377">
        <ele>1543.044</ele>
        <time>2021-03-21T09:12:01Z</time>
      </trkpt>
      <trkpt lat="42.83354" lon="0.56377">
        <ele>1543.045</ele>
        <time>2021-03-21T09:12:03Z</time>
      </trkpt>
      <trkpt lat="42.83354" lon="0.56377">
        <ele>1542.987</ele>
        <time>2021-03-21T09:12:05Z</time>
      </trkpt>
      <trkpt lat="42.83354" lon="0.56377">
        <ele>1542.985</ele>
        <time>2021-03-21T09:12:07Z</time>
      </trkpt>
      <trkpt lat="42.83354" lon="0.56377">
        <ele>1542.987</ele>
        <time>2021-03-21T09:12:09Z</time>
      </trkpt>
      <trkpt lat="42.83354" lon="0.56377">
        <ele>1542.984</ele>
        <time>2021-03-21T09:12:11Z</time>
      </trkpt>
      <trkpt lat="42.83354" lon="0.56377">
        <ele>1542.985</ele>
        <time>2021-03-21T09:12:13Z</time>
      </trkpt>
      <trkpt lat="42.83354" lon="0.56377">
        <ele>1542.987</ele>
        <time>2021-03-21T09:12:15Z</time>
      </trkpt>
      <trkpt lat="42.83354" lon="0.56377">
        <ele>1542.984</ele>
        <time>2021-03-21T09:12:17Z</time>
      </trkpt>
      <trkpt lat="42.83354" lon="0.56377">
        <ele>1542.983</ele>
        <time>2021-03-21T09:12:19Z</time>
      </trkpt>
      <trkpt lat="42.83354" lon="0.56377">
        <ele>1542.984</ele>
        <time>2021-03-21T09:12:21Z</time>
      </trkpt>
      <trkpt lat="42.83354" lon="0.56377">
        <ele>1542.986</ele>
        <time>2021-03-21T09:12:23Z</time>
      </trkpt>
      <trkpt lat="42.83354" lon="0.56377">
        <ele>1542.986</ele>
        <time>2021-03-21T09:12:25Z</time>
      </trkpt>
      <trkpt lat="42.83354" lon="0.56377">
        <ele>1543.018</ele>
        <time>2021-03-21T09:12:27Z</time>
      </trkpt>
      <trkpt lat="42.83355" lon="0.56377">
        <ele>1543.255</ele>
        <time>2021-03-21T09:12:29Z</time>
      </trkpt>
      <trkpt lat="42.83355" lon="0.56376">
        <ele>1543.265</ele>
        <time>2021-03-21T09:12:31Z</time>
      </trkpt>
      <trkpt lat="42.83355" lon="0.56376">
        <ele>1543.269</ele>
        <time>2021-03-21T09:12:33Z</time>
      </trkpt>
      <trkpt lat="42.83355" lon="0.56376">
        <ele>1543.271</ele>
        <time>2021-03-21T09:12:35Z</time>
      </trkpt>
      <trkpt lat="42.83355" lon="0.56376">
        <ele>1543.274</ele>
        <time>2021-03-21T09:12:37Z</time>
      </trkpt>
      <trkpt lat="42.83355" lon="0.56376">
        <ele>1543.049</ele>
        <time>2021-03-21T09:12:39Z</time>
      </trkpt>
      <trkpt lat="42.83355" lon="0.56376">
        <ele>1543.053</ele>
        <time>2021-03-21T09:12:41Z</time>
      </trkpt>
      <trkpt lat="42.83355" lon="0.56376">
        <ele>1543.049</ele>
        <time>2021-03-21T09:12:43Z</time>
      </trkpt>
      <trkpt lat="42.83355" lon="0.56376">
        <ele>1543.045</ele>
        <time>2021-03-21T09:12:45Z</time>
      </trkpt>
      <trkpt lat="42.83355" lon="0.56376">
        <ele>1543.048</ele>
        <time>2021-03-21T09:12:47Z</time>
      </trkpt>
      <trkpt lat="42.83355" lon="0.56376">
        <ele>1543.053</ele>
        <time>2021-03-21T09:12:49Z</time>
      </trkpt>
      <trkpt lat="42.83356" lon="0.56375">
        <ele>1543.681</ele>
        <time>2021-03-21T09:12:51Z</time>
      </trkpt>
      <trkpt lat="42.83357" lon="0.56375">
        <ele>1544.386</ele>
        <time>2021-03-21T09:12:53Z</time>
      </trkpt>
      <trkpt lat="42.83359" lon="0.56375">
        <ele>1545.205</ele>
        <time>2021-03-21T09:12:55Z</time>
      </trkpt>
      <trkpt lat="42.8336" lon="0.56375">
        <ele>1545.776</ele>
        <time>2021-03-21T09:12:57Z</time>
      </trkpt>
      <trkpt lat="42.83362" lon="0.56374">
        <ele>1545.979</ele>
        <time>2021-03-21T09:12:59Z</time>
      </trkpt>
      <trkpt lat="42.83363" lon="0.56373">
        <ele>1546.406</ele>
        <time>2021-03-21T09:13:01Z</time>
      </trkpt>
      <trkpt lat="42.83364" lon="0.56371">
        <ele>1546.564</ele>
        <time>2021-03-21T09:13:03Z</time>
      </trkpt>
      <trkpt lat="42.83365" lon="0.56369">
        <ele>1546.927</ele>
        <time>2021-03-21T09:13:05Z</time>
      </trkpt>
      <trkpt lat="42.83365" lon="0.56368">
        <ele>1547.34</ele>
        <time>2021-03-21T09:13:07Z</time>
      </trkpt>
      <trkpt lat="42.83366" lon="0.56366">
        <ele>1547.382</ele>
        <time>2021-03-21T09:13:09Z</time>
      </trkpt>
      <trkpt lat="42.83367" lon="0.56364">
        <ele>1547.194</ele>
        <time>2021-03-21T09:13:11Z</time>
      </trkpt>
      <trkpt lat="42.83367" lon="0.56362">
        <ele>1548.169</ele>
        <time>2021-03-21T09:13:13Z</time>
      </trkpt>
      <trkpt lat="42.83368" lon="0.5636">
        <ele>1548.731</ele>
        <time>2021-03-21T09:13:15Z</time>
      </trkpt>
      <trkpt lat="42.83369" lon="0.56358">
        <ele>1548.827</ele>
        <time>2021-03-21T09:13:17Z</time>
      </trkpt>
      <trkpt lat="42.83369" lon="0.56356">
        <ele>1549.352</ele>
        <time>2021-03-21T09:13:19Z</time>
      </trkpt>
      <trkpt lat="42.83371" lon="0.56355">
        <ele>1549.251</ele>
        <time>2021-03-21T09:13:21Z</time>
      </trkpt>
      <trkpt lat="42.83371" lon="0.56353">
        <ele>1549.198</ele>
        <time>2021-03-21T09:13:23Z</time>
      </trkpt>
      <trkpt lat="42.83373" lon="0.56351">
        <ele>1549.21</ele>
        <time>2021-03-21T09:13:25Z</time>
      </trkpt>
      <trkpt lat="42.83373" lon="0.56349">
        <ele>1550.311</ele>
        <time>2021-03-21T09:13:27Z</time>
      </trkpt>
      <trkpt lat="42.83374" lon="0.56347">
        <ele>1550.377</ele>
        <time>2021-03-21T09:13:29Z</time>
      </trkpt>
      <trkpt lat="42.83375" lon="0.56345">
        <ele>1550.868</ele>
        <time>2021-03-21T09:13:31Z</time>
      </trkpt>
      <trkpt lat="42.83376" lon="0.56343">
        <ele>1550.333</ele>
        <time>2021-03-21T09:13:33Z</time>
      </trkpt>
      <trkpt lat="42.83377" lon="0.56341">
        <ele>1551.035</ele>
        <time>2021-03-21T09:13:35Z</time>
      </trkpt>
      <trkpt lat="42.83378" lon="0.56339">
        <ele>1551.006</ele>
        <time>2021-03-21T09:13:37Z</time>
      </trkpt>
      <trkpt lat="42.83379" lon="0.56337">
        <ele>1550.467</ele>
        <time>2021-03-21T09:13:39Z</time>
      </trkpt>
      <trkpt lat="42.8338" lon="0.56335">
        <ele>1549.809</ele>
        <time>2021-03-21T09:13:41Z</time>
      </trkpt>
      <trkpt lat="42.83381" lon="0.56333">
        <ele>1549.51</ele>
        <time>2021-03-21T09:13:43Z</time>
      </trkpt>
      <trkpt lat="42.83382" lon="0.56331">
        <ele>1549.572</ele>
        <time>2021-03-21T09:13:45Z</time>
      </trkpt>
      <trkpt lat="42.83382" lon="0.56329">
        <ele>1548.204</ele>
        <time>2021-03-21T09:13:47Z</time>
      </trkpt>
      <trkpt lat="42.83383" lon="0.56326">
        <ele>1547.802</ele>
        <time>2021-03-21T09:13:49Z</time>
      </trkpt>
      <trkpt lat="42.83384" lon="0.56324">
        <ele>1547.121</ele>
        <time>2021-03-21T09:13:51Z</time>
      </trkpt>
      <trkpt lat="42.83384" lon="0.56322">
        <ele>1547.787</ele>
        <time>2021-03-21T09:13:53Z</time>
      </trkpt>
      <trkpt lat="42.83385" lon="0.5632">
        <ele>1548.069</ele>
        <time>2021-03-21T09:13:55Z</time>
      </trkpt>
      <trkpt lat="42.83386" lon="0.56318">
        <ele>1547.306</ele>
        <time>2021-03-21T09:13:57Z</time>
      </trkpt>
      <trkpt lat="42.83387" lon="0.56316">
        <ele>1548.129</ele>
        <time>2021-03-21T09:13:59Z</time>
      </trkpt>
      <trkpt lat="42.83388" lon="0.56314">
        <ele>1548.469</ele>
        <time>2021-03-21T09:14:01Z</time>
      </trkpt>
      <trkpt lat="42.83389" lon="0.56312">
        <ele>1548.366</ele>
        <time>2021-03-21T09:14:03Z</time>
      </trkpt>
      <trkpt lat="42.8339" lon="0.56309">
        <ele>1547.514</ele>
        <time>2021-03-21T09:14:05Z</time>
      </trkpt>
      <trkpt lat="42.8339" lon="0.56307">
        <ele>1548.76</ele>
        <time>2021-03-21T09:14:07Z</time>
      </trkpt>
      <trkpt lat="42.83391" lon="0.56304">
        <ele>1548.932</ele>
        <time>2021-03-21T09:14:09Z</time>
      </trkpt>
      <trkpt lat="42.83392" lon="0.56301">
        <ele>1549.48</ele>
        <time>2021-03-21T09:14:11Z</time>
      </trkpt>
      <trkpt lat="42.83393" lon="0.56299">
        <ele>1549.678</ele>
        <time>2021-03-21T09:14:13Z</time>
      </trkpt>
      <trkpt lat="42.83394" lon="0.56296">
        <ele>1550.577</ele>
        <time>2021-03-21T09:14:15Z</time>
      </trkpt>
      <trkpt lat="42.83395" lon="0.56293">
        <ele>1550.65</ele>
        <time>2021-03-21T09:14:17Z</time>
      </trkpt>
      <trkpt lat="42.83396" lon="0.56291">
        <ele>1550.978</ele>
        <time>2021-03-21T09:14:19Z</time>
      </trkpt>
      <trkpt lat="42.83397" lon="0.56288">
        <ele>1550.93</ele>
        <time>2021-03-21T09:14:21Z</time>
      </trkpt>
      <trkpt lat="42.83397" lon="0.56286">
        <ele>1551.373</ele>
        <time>2021-03-21T09:14:23Z</time>
      </trkpt>
      <trkpt lat="42.83398" lon="0.56283">
        <ele>1551.463</ele>
        <time>2021-03-21T09:14:25Z</time>
      </trkpt>
      <trkpt lat="42.83399" lon="0.56281">
        <ele>1551.565</ele>
        <time>2021-03-21T09:14:27Z</time>
      </trkpt>
      <trkpt lat="42.834" lon="0.56278">
        <ele>1551.752</ele>
        <time>2021-03-21T09:14:29Z</time>
      </trkpt>
      <trkpt lat="42.834" lon="0.56276">
        <ele>1551.823</ele>
        <time>2021-03-21T09:14:31Z</time>
      </trkpt>
      <trkpt lat="42.83401" lon="0.56273">
        <ele>1551.966</ele>
        <time>2021-03-21T09:14:33Z</time>
      </trkpt>
      <trkpt lat="42.83401" lon="0.5627">
        <ele>1552.271</ele>
        <time>2021-03-21T09:14:35Z</time>
      </trkpt>
      <trkpt lat="42.83401" lon="0.56268">
        <ele>1552.503</ele>
        <time>2021-03-21T09:14:37Z</time>
      </trkpt>
      <trkpt lat="42.83402" lon="0.56266">
        <ele>1552.214</ele>
        <time>2021-03-21T09:14:39Z</time>
      </trkpt>
      <trkpt lat="42.83402" lon="0.56263">
        <ele>1552.447</ele>
        <time>2021-03-21T09:14:41Z</time>
      </trkpt>
      <trkpt lat="42.83403" lon="0.5626">
        <ele>1552.929</ele>
        <time>2021-03-21T09:14:43Z</time>
      </trkpt>
      <trkpt lat="42.83403" lon="0.56258">
        <ele>1553.568</ele>
        <time>2021-03-21T09:14:45Z</time>
      </trkpt>
      <trkpt lat="42.83404" lon="0.56256">
        <ele>1553.537</ele>
        <time>2021-03-21T09:14:47Z</time>
      </trkpt>
      <trkpt lat="42.83404" lon="0.56253">
        <ele>1554.907</ele>
        <time>2021-03-21T09:14:49Z</time>
      </trkpt>
      <trkpt lat="42.83405" lon="0.5625">
        <ele>1555.54</ele>
        <time>2021-03-21T09:14:51Z</time>
      </trkpt>
      <trkpt lat="42.83406" lon="0.56247">
        <ele>1555.93</ele>
        <time>2021-03-21T09:14:53Z</time>
      </trkpt>
      <trkpt lat="42.83406" lon="0.56244">
        <ele>1556.566</ele>
        <time>2021-03-21T09:14:55Z</time>
      </trkpt>
      <trkpt lat="42.83406" lon="0.56242">
        <ele>1556.558</ele>
        <time>2021-03-21T09:14:57Z</time>
      </trkpt>
      <trkpt lat="42.83407" lon="0.56239">
        <ele>1557.048</ele>
        <time>2021-03-21T09:14:59Z</time>
      </trkpt>
      <trkpt lat="42.83407" lon="0.56236">
        <ele>1557.967</ele>
        <time>2021-03-21T09:15:01Z</time>
      </trkpt>
      <trkpt lat="42.83407" lon="0.56233">
        <ele>1557.872</ele>
        <time>2021-03-21T09:15:03Z</time>
      </trkpt>
      <trkpt lat="42.83407" lon="0.5623">
        <ele>1558.038</ele>
        <time>2021-03-21T09:15:05Z</time>
      </trkpt>
      <trkpt lat="42.83408" lon="0.56227">
        <ele>1558.337</ele>
        <time>2021-03-21T09:15:07Z</time>
      </trkpt>
      <trkpt lat="42.83408" lon="0.56225">
        <ele>1558.451</ele>
        <time>2021-03-21T09:15:09Z</time>
      </trkpt>
      <trkpt lat="42.83408" lon="0.56222">
        <ele>1559.224</ele>
        <time>2021-03-21T09:15:11Z</time>
      </trkpt>
      <trkpt lat="42.83408" lon="0.5622">
        <ele>1559.771</ele>
        <time>2021-03-21T09:15:13Z</time>
      </trkpt>
      <trkpt lat="42.83409" lon="0.56217">
        <ele>1559.724</ele>
        <time>2021-03-21T09:15:15Z</time>
      </trkpt>
      <trkpt lat="42.83409" lon="0.56214">
        <ele>1559.743</ele>
        <time>2021-03-21T09:15:17Z</time>
      </trkpt>
      <trkpt lat="42.8341" lon="0.56212">
        <ele>1560.693</ele>
        <time>2021-03-21T09:15:19Z</time>
      </trkpt>
      <trkpt lat="42.8341" lon="0.56209">
        <ele>1561.839</ele>
        <time>2021-03-21T09:15:21Z</time>
      </trkpt>
      <trkpt lat="42.83411" lon="0.56207">
        <ele>1561.333</ele>
        <time>2021-03-21T09:15:23Z</time>
      </trkpt>
      <trkpt lat="42.83411" lon="0.56204">
        <ele>1561.581</ele>
        <time>2021-03-21T09:15:25Z</time>
      </trkpt>
      <trkpt lat="42.83412" lon="0.56202">
        <ele>1562.139</ele>
        <time>2021-03-21T09:15:27Z</time>
      </trkpt>
      <trkpt lat="42.83413" lon="0.562">
        <ele>1562.229</ele>
        <time>2021-03-21T09:15:29Z</time>
      </trkpt>
      <trkpt lat="42.83413" lon="0.56198">
        <ele>1562.238</ele>
        <time>2021-03-21T09:15:31Z</time>
      </trkpt>
      <trkpt lat="42.83414" lon="0.56196">
        <ele>1561.995</ele>
        <time>2021-03-21T09:15:33Z</time>
      </trkpt>
      <trkpt lat="42.83415" lon="0.56194">
        <ele>1562.023</ele>
        <time>2021-03-21T09:15:35Z</time>
      </trkpt>
      <trkpt lat="42.83416" lon="0.56193">
        <ele>1562.089</ele>
        <time>2021-03-21T09:15:37Z</time>
      </trkpt>
      <trkpt lat="42.83416" lon="0.5619">
        <ele>1562.846</ele>
        <time>2021-03-21T09:15:39Z</time>
      </trkpt>
      <trkpt lat="42.83417" lon="0.56188">
        <ele>1563.223</ele>
        <time>2021-03-21T09:15:41Z</time>
      </trkpt>
      <trkpt lat="42.83418" lon="0.56186">
        <ele>1563.976</ele>
        <time>2021-03-21T09:15:43Z</time>
      </trkpt>
      <trkpt lat="42.83419" lon="0.56184">
        <ele>1564.103</ele>
        <time>2021-03-21T09:15:45Z</time>
      </trkpt>
      <trkpt lat="42.8342" lon="0.56182">
        <ele>1564.802</ele>
        <time>2021-03-21T09:15:47Z</time>
      </trkpt>
      <trkpt lat="42.83421" lon="0.56179">
        <ele>1565.395</ele>
        <time>2021-03-21T09:15:49Z</time>
      </trkpt>
      <trkpt lat="42.83422" lon="0.56177">
        <ele>1564.786</ele>
        <time>2021-03-21T09:15:51Z</time>
      </trkpt>
      <trkpt lat="42.83423" lon="0.56176">
        <ele>1564.657</ele>
        <time>2021-03-21T09:15:53Z</time>
      </trkpt>
      <trkpt lat="42.83424" lon="0.56173">
        <ele>1564.889</ele>
        <time>2021-03-21T09:15:55Z</time>
      </trkpt>
      <trkpt lat="42.83425" lon="0.56171">
        <ele>1565.023</ele>
        <time>2021-03-21T09:15:57Z</time>
      </trkpt>
      <trkpt lat="42.83426" lon="0.56169">
        <ele>1565.346</ele>
        <time>2021-03-21T09:15:59Z</time>
      </trkpt>
      <trkpt lat="42.83427" lon="0.56168">
        <ele>1565.388</ele>
        <time>2021-03-21T09:16:01Z</time>
      </trkpt>
      <trkpt lat="42.83429" lon="0.56165">
        <ele>1565.361</ele>
        <time>2021-03-21T09:16:03Z</time>
      </trkpt>
      <trkpt lat="42.8343" lon="0.56164">
        <ele>1565.816</ele>
        <time>2021-03-21T09:16:05Z</time>
      </trkpt>
      <trkpt lat="42.83431" lon="0.56162">
        <ele>1566.06</ele>
        <time>2021-03-21T09:16:07Z</time>
      </trkpt>
      <trkpt lat="42.83432" lon="0.5616">
        <ele>1566.008</ele>
        <time>2021-03-21T09:16:09Z</time>
      </trkpt>
      <trkpt lat="42.83434" lon="0.56158">
        <ele>1566.3</ele>
        <time>2021-03-21T09:16:11Z</time>
      </trkpt>
      <trkpt lat="42.83435" lon="0.56157">
        <ele>1566.295</ele>
        <time>2021-03-21T09:16:13Z</time>
      </trkpt>
      <trkpt lat="42.83436" lon="0.56155">
        <ele>1566.292</ele>
        <time>2021-03-21T09:16:15Z</time>
      </trkpt>
      <trkpt lat="42.83437" lon="0.56152">
        <ele>1565.755</ele>
        <time>2021-03-21T09:16:17Z</time>
      </trkpt>
      <trkpt lat="42.83438" lon="0.5615">
        <ele>1566.524</ele>
        <time>2021-03-21T09:16:19Z</time>
      </trkpt>
      <trkpt lat="42.83439" lon="0.56148">
        <ele>1566.518</ele>
        <time>2021-03-21T09:16:21Z</time>
      </trkpt>
      <trkpt lat="42.83441" lon="0.56146">
        <ele>1567.043</ele>
        <time>2021-03-21T09:16:23Z</time>
      </trkpt>
      <trkpt lat="42.83442" lon="0.56144">
        <ele>1567.388</ele>
        <time>2021-03-21T09:16:25Z</time>
      </trkpt>
      <trkpt lat="42.83443" lon="0.56142">
        <ele>1567.825</ele>
        <time>2021-03-21T09:16:27Z</time>
      </trkpt>
      <trkpt lat="42.83445" lon="0.5614">
        <ele>1568.662</ele>
        <time>2021-03-21T09:16:29Z</time>
      </trkpt>
      <trkpt lat="42.83446" lon="0.56138">
        <ele>1568.733</ele>
        <time>2021-03-21T09:16:31Z</time>
      </trkpt>
      <trkpt lat="42.83447" lon="0.56135">
        <ele>1569.209</ele>
        <time>2021-03-21T09:16:33Z</time>
      </trkpt>
      <trkpt lat="42.83448" lon="0.56133">
        <ele>1569.3</ele>
        <time>2021-03-21T09:16:35Z</time>
      </trkpt>
      <trkpt lat="42.8345" lon="0.56132">
        <ele>1569.255</ele>
        <time>2021-03-21T09:16:37Z</time>
      </trkpt>
      <trkpt lat="42.83452" lon="0.5613">
        <ele>1569.214</ele>
        <time>2021-03-21T09:16:39Z</time>
      </trkpt>
      <trkpt lat="42.83453" lon="0.56129">
        <ele>1569.798</ele>
        <time>2021-03-21T09:16:41Z</time>
      </trkpt>
      <trkpt lat="42.83455" lon="0.56128">
        <ele>1569.926</ele>
        <time>2021-03-21T09:16:43Z</time>
      </trkpt>
      <trkpt lat="42.83457" lon="0.56128">
        <ele>1570.838</ele>
        <time>2021-03-21T09:16:45Z</time>
      </trkpt>
      <trkpt lat="42.83459" lon="0.56128">
        <ele>1570.946</ele>
        <time>2021-03-21T09:16:47Z</time>
      </trkpt>
      <trkpt lat="42.83461" lon="0.56128">
        <ele>1571.063</ele>
        <time>2021-03-21T09:16:49Z</time>
      </trkpt>
      <trkpt lat="42.83463" lon="0.56129">
        <ele>1571.917</ele>
        <time>2021-03-21T09:16:51Z</time>
      </trkpt>
      <trkpt lat="42.83464" lon="0.5613">
        <ele>1572.045</ele>
        <time>2021-03-21T09:16:53Z</time>
      </trkpt>
      <trkpt lat="42.83465" lon="0.56132">
        <ele>1572.317</ele>
        <time>2021-03-21T09:16:55Z</time>
      </trkpt>
      <trkpt lat="42.83466" lon="0.56134">
        <ele>1572.656</ele>
        <time>2021-03-21T09:16:57Z</time>
      </trkpt>
      <trkpt lat="42.83466" lon="0.56136">
        <ele>1572.848</ele>
        <time>2021-03-21T09:16:59Z</time>
      </trkpt>
      <trkpt lat="42.83465" lon="0.56138">
        <ele>1572.833</ele>
        <time>2021-03-21T09:17:01Z</time>
      </trkpt>
      <trkpt lat="42.83465" lon="0.56141">
        <ele>1573.261</ele>
        <time>2021-03-21T09:17:03Z</time>
      </trkpt>
      <trkpt lat="42.83464" lon="0.56142">
        <ele>1573.718</ele>
        <time>2021-03-21T09:17:05Z</time>
      </trkpt>
      <trkpt lat="42.83463" lon="0.56145">
        <ele>1574.197</ele>
        <time>2021-03-21T09:17:07Z</time>
      </trkpt>
      <trkpt lat="42.83463" lon="0.56147">
        <ele>1574.061</ele>
        <time>2021-03-21T09:17:09Z</time>
      </trkpt>
      <trkpt lat="42.83461" lon="0.56149">
        <ele>1573.863</ele>
        <time>2021-03-21T09:17:11Z</time>
      </trkpt>
      <trkpt lat="42.8346" lon="0.56151">
        <ele>1573.965</ele>
        <time>2021-03-21T09:17:13Z</time>
      </trkpt>
      <trkpt lat="42.8346" lon="0.56153">
        <ele>1574.223</ele>
        <time>2021-03-21T09:17:15Z</time>
      </trkpt>
      <trkpt lat="42.83459" lon="0.56155">
        <ele>1574.014</ele>
        <time>2021-03-21T09:17:17Z</time>
      </trkpt>
      <trkpt lat="42.83458" lon="0.56157">
        <ele>1574.162</ele>
        <time>2021-03-21T09:17:19Z</time>
      </trkpt>
      <trkpt lat="42.83457" lon="0.56159">
        <ele>1574.242</ele>
        <time>2021-03-21T09:17:21Z</time>
      </trkpt>
      <trkpt lat="42.83456" lon="0.56161">
        <ele>1574.482</ele>
        <time>2021-03-21T09:17:23Z</time>
      </trkpt>
      <trkpt lat="42.83455" lon="0.56163">
        <ele>1575.24</ele>
        <time>2021-03-21T09:17:25Z</time>
      </trkpt>
      <trkpt lat="42.83454" lon="0.56164">
        <ele>1574.934</ele>
        <time>2021-03-21T09:17:27Z</time>
      </trkpt>
      <trkpt lat="42.83453" lon="0.56167">
        <ele>1576.245</ele>
        <time>2021-03-21T09:17:29Z</time>
      </trkpt>
      <trkpt lat="42.83452" lon="0.56169">
        <ele>1576.269</ele>
        <time>2021-03-21T09:17:31Z</time>
      </trkpt>
      <trkpt lat="42.83452" lon="0.56171">
        <ele>1576.239</ele>
        <time>2021-03-21T09:17:33Z</time>
      </trkpt>
      <trkpt lat="42.83452" lon="0.56173">
        <ele>1576.478</ele>
        <time>2021-03-21T09:17:35Z</time>
      </trkpt>
      <trkpt lat="42.83452" lon="0.56176">
        <ele>1576.681</ele>
        <time>2021-03-21T09:17:37Z</time>
      </trkpt>
      <trkpt lat="42.83452" lon="0.56178">
        <ele>1577.614</ele>
        <time>2021-03-21T09:17:39Z</time>
      </trkpt>
      <trkpt lat="42.83452" lon="0.5618">
        <ele>1577.99</ele>
        <time>2021-03-21T09:17:41Z</time>
      </trkpt>
      <trkpt lat="42.83452" lon="0.56183">
        <ele>1578.7</ele>
        <time>2021-03-21T09:17:43Z</time>
      </trkpt>
      <trkpt lat="42.83452" lon="0.56185">
        <ele>1578.835</ele>
        <time>2021-03-21T09:17:45Z</time>
      </trkpt>
      <trkpt lat="42.83451" lon="0.56187">
        <ele>1578.859</ele>
        <time>2021-03-21T09:17:47Z</time>
      </trkpt>
      <trkpt lat="42.83451" lon="0.56189">
        <ele>1579.139</ele>
        <time>2021-03-21T09:17:49Z</time>
      </trkpt>
      <trkpt lat="42.8345" lon="0.56192">
        <ele>1579.461</ele>
        <time>2021-03-21T09:17:51Z</time>
      </trkpt>
      <trkpt lat="42.8345" lon="0.56194">
        <ele>1579.456</ele>
        <time>2021-03-21T09:17:53Z</time>
      </trkpt>
      <trkpt lat="42.83449" lon="0.56196">
        <ele>1579.526</ele>
        <time>2021-03-21T09:17:55Z</time>
      </trkpt>
      <trkpt lat="42.83448" lon="0.56199">
        <ele>1579.787</ele>
        <time>2021-03-21T09:17:57Z</time>
      </trkpt>
      <trkpt lat="42.83448" lon="0.56201">
        <ele>1580.037</ele>
        <time>2021-03-21T09:17:59Z</time>
      </trkpt>
      <trkpt lat="42.83448" lon="0.56204">
        <ele>1580.077</ele>
        <time>2021-03-21T09:18:01Z</time>
      </trkpt>
      <trkpt lat="42.83448" lon="0.56206">
        <ele>1580.466</ele>
        <time>2021-03-21T09:18:03Z</time>
      </trkpt>
      <trkpt lat="42.83447" lon="0.56209">
        <ele>1580.412</ele>
        <time>2021-03-21T09:18:05Z</time>
      </trkpt>
      <trkpt lat="42.83447" lon="0.56211">
        <ele>1580.823</ele>
        <time>2021-03-21T09:18:07Z</time>
      </trkpt>
      <trkpt lat="42.83447" lon="0.56214">
        <ele>1581.316</ele>
        <time>2021-03-21T09:18:09Z</time>
      </trkpt>
      <trkpt lat="42.83447" lon="0.56216">
        <ele>1581.198</ele>
        <time>2021-03-21T09:18:11Z</time>
      </trkpt>
      <trkpt lat="42.83447" lon="0.56218">
        <ele>1581.024</ele>
        <time>2021-03-21T09:18:13Z</time>
      </trkpt>
      <trkpt lat="42.83447" lon="0.56221">
        <ele>1580.992</ele>
        <time>2021-03-21T09:18:15Z</time>
      </trkpt>
      <trkpt lat="42.83447" lon="0.56223">
        <ele>1580.904</ele>
        <time>2021-03-21T09:18:17Z</time>
      </trkpt>
      <trkpt lat="42.83447" lon="0.56225">
        <ele>1580.776</ele>
        <time>2021-03-21T09:18:19Z</time>
      </trkpt>
      <trkpt lat="42.83448" lon="0.56228">
        <ele>1580.664</ele>
        <time>2021-03-21T09:18:21Z</time>
      </trkpt>
      <trkpt lat="42.83448" lon="0.5623">
        <ele>1581.204</ele>
        <time>2021-03-21T09:18:23Z</time>
      </trkpt>
      <trkpt lat="42.83449" lon="0.56232">
        <ele>1581.237</ele>
        <time>2021-03-21T09:18:25Z</time>
      </trkpt>
      <trkpt lat="42.83449" lon="0.56235">
        <ele>1581.179</ele>
        <time>2021-03-21T09:18:27Z</time>
      </trkpt>
      <trkpt lat="42.83449" lon="0.56237">
        <ele>1581.94</ele>
        <time>2021-03-21T09:18:29Z</time>
      </trkpt>
      <trkpt lat="42.8345" lon="0.5624">
        <ele>1581.434</ele>
        <time>2021-03-21T09:18:31Z</time>
      </trkpt>
      <trkpt lat="42.8345" lon="0.56243">
        <ele>1581.807</ele>
        <time>2021-03-21T09:18:33Z</time>
      </trkpt>
      <trkpt lat="42.83451" lon="0.56245">
        <ele>1582.558</ele>
        <time>2021-03-21T09:18:35Z</time>
      </trkpt>
      <trkpt lat="42.83451" lon="0.56248">
        <ele>1582.352</ele>
        <time>2021-03-21T09:18:37Z</time>
      </trkpt>
      <trkpt lat="42.83452" lon="0.5625">
        <ele>1582.811</ele>
        <time>2021-03-21T09:18:39Z</time>
      </trkpt>
      <trkpt lat="42.83452" lon="0.56253">
        <ele>1583.047</ele>
        <time>2021-03-21T09:18:41Z</time>
      </trkpt>
      <trkpt lat="42.83452" lon="0.56255">
        <ele>1583.671</ele>
        <time>2021-03-21T09:18:43Z</time>
      </trkpt>
      <trkpt lat="42.83452" lon="0.56258">
        <ele>1583.878</ele>
        <time>2021-03-21T09:18:45Z</time>
      </trkpt>
      <trkpt lat="42.83453" lon="0.5626">
        <ele>1584.593</ele>
        <time>2021-03-21T09:18:47Z</time>
      </trkpt>
      <trkpt lat="42.83454" lon="0.56263">
        <ele>1585.27</ele>
        <time>2021-03-21T09:18:49Z</time>
      </trkpt>
      <trkpt lat="42.83455" lon="0.56265">
        <ele>1585.058</ele>
        <time>2021-03-21T09:18:51Z</time>
      </trkpt>
      <trkpt lat="42.83455" lon="0.56268">
        <ele>1585.015</ele>
        <time>2021-03-21T09:18:53Z</time>
      </trkpt>
      <trkpt lat="42.83456" lon="0.56271">
        <ele>1584.615</ele>
        <time>2021-03-21T09:18:55Z</time>
      </trkpt>
      <trkpt lat="42.83456" lon="0.56274">
        <ele>1583.869</ele>
        <time>2021-03-21T09:18:57Z</time>
      </trkpt>
      <trkpt lat="42.83456" lon="0.56275">
        <ele>1584.379</ele>
        <time>2021-03-21T09:18:58Z</time>
      </trkpt>
      <trkpt lat="42.83457" lon="0.5628">
        <ele>1584.954</ele>
        <time>2021-03-21T09:19:01Z</time>
      </trkpt>
      <trkpt lat="42.83458" lon="0.56283">
        <ele>1585.237</ele>
        <time>2021-03-21T09:19:03Z</time>
      </trkpt>
      <trkpt lat="42.83458" lon="0.56286">
        <ele>1585.47</ele>
        <time>2021-03-21T09:19:05Z</time>
      </trkpt>
      <trkpt lat="42.83458" lon="0.56289">
        <ele>1586.719</ele>
        <time>2021-03-21T09:19:07Z</time>
      </trkpt>
      <trkpt lat="42.83458" lon="0.56291">
        <ele>1586.546</ele>
        <time>2021-03-21T09:19:09Z</time>
      </trkpt>
      <trkpt lat="42.83458" lon="0.56294">
        <ele>1587.433</ele>
        <time>2021-03-21T09:19:11Z</time>
      </trkpt>
      <trkpt lat="42.83458" lon="0.56297">
        <ele>1588.238</ele>
        <time>2021-03-21T09:19:13Z</time>
      </trkpt>
      <trkpt lat="42.83458" lon="0.56299">
        <ele>1588.984</ele>
        <time>2021-03-21T09:19:15Z</time>
      </trkpt>
      <trkpt lat="42.83459" lon="0.56302">
        <ele>1590.185</ele>
        <time>2021-03-21T09:19:17Z</time>
      </trkpt>
      <trkpt lat="42.83458" lon="0.56305">
        <ele>1590.982</ele>
        <time>2021-03-21T09:19:19Z</time>
      </trkpt>
      <trkpt lat="42.83458" lon="0.56307">
        <ele>1591.681</ele>
        <time>2021-03-21T09:19:21Z</time>
      </trkpt>
      <trkpt lat="42.83458" lon="0.5631">
        <ele>1591.807</ele>
        <time>2021-03-21T09:19:23Z</time>
      </trkpt>
      <trkpt lat="42.83458" lon="0.56313">
        <ele>1591.707</ele>
        <time>2021-03-21T09:19:25Z</time>
      </trkpt>
      <trkpt lat="42.83458" lon="0.56315">
        <ele>1591.251</ele>
        <time>2021-03-21T09:19:27Z</time>
      </trkpt>
      <trkpt lat="42.83458" lon="0.56318">
        <ele>1591.364</ele>
        <time>2021-03-21T09:19:29Z</time>
      </trkpt>
      <trkpt lat="42.83458" lon="0.56321">
        <ele>1591.104</ele>
        <time>2021-03-21T09:19:31Z</time>
      </trkpt>
      <trkpt lat="42.83458" lon="0.56323">
        <ele>1590.371</ele>
        <time>2021-03-21T09:19:33Z</time>
      </trkpt>
      <trkpt lat="42.83457" lon="0.56326">
        <ele>1590.053</ele>
        <time>2021-03-21T09:19:35Z</time>
      </trkpt>
      <trkpt lat="42.83457" lon="0.56329">
        <ele>1590.03</ele>
        <time>2021-03-21T09:19:37Z</time>
      </trkpt>
      <trkpt lat="42.83457" lon="0.56332">
        <ele>1590.242</ele>
        <time>2021-03-21T09:19:39Z</time>
      </trkpt>
      <trkpt lat="42.83456" lon="0.56335">
        <ele>1590.531</ele>
        <time>2021-03-21T09:19:41Z</time>
      </trkpt>
      <trkpt lat="42.83456" lon="0.56338">
        <ele>1590.934</ele>
        <time>2021-03-21T09:19:43Z</time>
      </trkpt>
      <trkpt lat="42.83456" lon="0.56341">
        <ele>1590.987</ele>
        <time>2021-03-21T09:19:45Z</time>
      </trkpt>
      <trkpt lat="42.83456" lon="0.56344">
        <ele>1590.613</ele>
        <time>2021-03-21T09:19:47Z</time>
      </trkpt>
      <trkpt lat="42.83456" lon="0.56347">
        <ele>1591.274</ele>
        <time>2021-03-21T09:19:49Z</time>
      </trkpt>
      <trkpt lat="42.83456" lon="0.5635">
        <ele>1591.958</ele>
        <time>2021-03-21T09:19:51Z</time>
      </trkpt>
      <trkpt lat="42.83456" lon="0.56353">
        <ele>1592.716</ele>
        <time>2021-03-21T09:19:53Z</time>
      </trkpt>
      <trkpt lat="42.83455" lon="0.56356">
        <ele>1593.322</ele>
        <time>2021-03-21T09:19:55Z</time>
      </trkpt>
      <trkpt lat="42.83455" lon="0.56358">
        <ele>1593.11</ele>
        <time>2021-03-21T09:19:57Z</time>
      </trkpt>
      <trkpt lat="42.83455" lon="0.56361">
        <ele>1593.391</ele>
        <time>2021-03-21T09:19:59Z</time>
      </trkpt>
      <trkpt lat="42.83455" lon="0.56364">
        <ele>1594.21</ele>
        <time>2021-03-21T09:20:01Z</time>
      </trkpt>
      <trkpt lat="42.83454" lon="0.56367">
        <ele>1594.499</ele>
        <time>2021-03-21T09:20:03Z</time>
      </trkpt>
      <trkpt lat="42.83454" lon="0.5637">
        <ele>1595.301</ele>
        <time>2021-03-21T09:20:05Z</time>
      </trkpt>
      <trkpt lat="42.83454" lon="0.56373">
        <ele>1595.208</ele>
        <time>2021-03-21T09:20:07Z</time>
      </trkpt>
      <trkpt lat="42.83454" lon="0.56376">
        <ele>1595.717</ele>
        <time>2021-03-21T09:20:09Z</time>
      </trkpt>
      <trkpt lat="42.83454" lon="0.56379">
        <ele>1595.751</ele>
        <time>2021-03-21T09:20:11Z</time>
      </trkpt>
      <trkpt lat="42.83453" lon="0.56382">
        <ele>1595.746</ele>
        <time>2021-03-21T09:20:13Z</time>
      </trkpt>
      <trkpt lat="42.83453" lon="0.56384">
        <ele>1595.884</ele>
        <time>2021-03-21T09:20:15Z</time>
      </trkpt>
      <trkpt lat="42.83453" lon="0.56387">
        <ele>1595.599</ele>
        <time>2021-03-21T09:20:17Z</time>
      </trkpt>
      <trkpt lat="42.83453" lon="0.5639">
        <ele>1596.695</ele>
        <time>2021-03-21T09:20:19Z</time>
      </trkpt>
      <trkpt lat="42.83453" lon="0.56392">
        <ele>1597.419</ele>
        <time>2021-03-21T09:20:21Z</time>
      </trkpt>
      <trkpt lat="42.83452" lon="0.56395">
        <ele>1598.087</ele>
        <time>2021-03-21T09:20:23Z</time>
      </trkpt>
      <trkpt lat="42.83452" lon="0.56398">
        <ele>1598.159</ele>
        <time>2021-03-21T09:20:25Z</time>
      </trkpt>
      <trkpt lat="42.83451" lon="0.56401">
        <ele>1598.569</ele>
        <time>2021-03-21T09:20:27Z</time>
      </trkpt>
      <trkpt lat="42.83451" lon="0.56404">
        <ele>1599.217</ele>
        <time>2021-03-21T09:20:29Z</time>
      </trkpt>
      <trkpt lat="42.8345" lon="0.56406">
        <ele>1599.43</ele>
        <time>2021-03-21T09:20:31Z</time>
      </trkpt>
      <trkpt lat="42.8345" lon="0.56409">
        <ele>1599.944</ele>
        <time>2021-03-21T09:20:33Z</time>
      </trkpt>
      <trkpt lat="42.83449" lon="0.56412">
        <ele>1600.417</ele>
        <time>2021-03-21T09:20:35Z</time>
      </trkpt>
      <trkpt lat="42.83448" lon="0.56414">
        <ele>1601.355</ele>
        <time>2021-03-21T09:20:37Z</time>
      </trkpt>
      <trkpt lat="42.83448" lon="0.56417">
        <ele>1600.25</ele>
        <time>2021-03-21T09:20:39Z</time>
      </trkpt>
      <trkpt lat="42.83447" lon="0.56419">
        <ele>1601.312</ele>
        <time>2021-03-21T09:20:41Z</time>
      </trkpt>
      <trkpt lat="42.83447" lon="0.56422">
        <ele>1602.088</ele>
        <time>2021-03-21T09:20:43Z</time>
      </trkpt>
      <trkpt lat="42.83446" lon="0.56424">
        <ele>1602.165</ele>
        <time>2021-03-21T09:20:45Z</time>
      </trkpt>
      <trkpt lat="42.83446" lon="0.56427">
        <ele>1602.279</ele>
        <time>2021-03-21T09:20:47Z</time>
      </trkpt>
      <trkpt lat="42.83445" lon="0.56429">
        <ele>1603.464</ele>
        <time>2021-03-21T09:20:49Z</time>
      </trkpt>
      <trkpt lat="42.83444" lon="0.56432">
        <ele>1603.122</ele>
        <time>2021-03-21T09:20:51Z</time>
      </trkpt>
      <trkpt lat="42.83444" lon="0.56434">
        <ele>1602.949</ele>
        <time>2021-03-21T09:20:53Z</time>
      </trkpt>
      <trkpt lat="42.83443" lon="0.56437">
        <ele>1602.498</ele>
        <time>2021-03-21T09:20:55Z</time>
      </trkpt>
      <trkpt lat="42.83443" lon="0.56439">
        <ele>1601.814</ele>
        <time>2021-03-21T09:20:57Z</time>
      </trkpt>
      <trkpt lat="42.83442" lon="0.56442">
        <ele>1601.4</ele>
        <time>2021-03-21T09:20:59Z</time>
      </trkpt>
      <trkpt lat="42.83442" lon="0.56444">
        <ele>1601.172</ele>
        <time>2021-03-21T09:21:01Z</time>
      </trkpt>
      <trkpt lat="42.83441" lon="0.56447">
        <ele>1600.789</ele>
        <time>2021-03-21T09:21:03Z</time>
      </trkpt>
      <trkpt lat="42.83441" lon="0.56449">
        <ele>1601.571</ele>
        <time>2021-03-21T09:21:05Z</time>
      </trkpt>
      <trkpt lat="42.8344" lon="0.56452">
        <ele>1600.976</ele>
        <time>2021-03-21T09:21:07Z</time>
      </trkpt>
      <trkpt lat="42.83439" lon="0.56455">
        <ele>1600.614</ele>
        <time>2021-03-21T09:21:09Z</time>
      </trkpt>
      <trkpt lat="42.83438" lon="0.56457">
        <ele>1601.329</ele>
        <time>2021-03-21T09:21:11Z</time>
      </trkpt>
      <trkpt lat="42.83437" lon="0.56459">
        <ele>1602.309</ele>
        <time>2021-03-21T09:21:13Z</time>
      </trkpt>
      <trkpt lat="42.83436" lon="0.56462">
        <ele>1602.592</ele>
        <time>2021-03-21T09:21:15Z</time>
      </trkpt>
      <trkpt lat="42.83435" lon="0.56465">
        <ele>1603.899</ele>
        <time>2021-03-21T09:21:17Z</time>
      </trkpt>
      <trkpt lat="42.83434" lon="0.56467">
        <ele>1604.238</ele>
        <time>2021-03-21T09:21:19Z</time>
      </trkpt>
      <trkpt lat="42.83433" lon="0.56467">
        <ele>1603.945</ele>
        <time>2021-03-21T09:21:21Z</time>
      </trkpt>
      <trkpt lat="42.83433" lon="0.56467">
        <ele>1603.946</ele>
        <time>2021-03-21T09:21:23Z</time>
      </trkpt>
      <trkpt lat="42.83433" lon="0.56467">
        <ele>1603.965</ele>
        <time>2021-03-21T09:21:25Z</time>
      </trkpt>
      <trkpt lat="42.83433" lon="0.56467">
        <ele>1603.982</ele>
        <time>2021-03-21T09:21:27Z</time>
      </trkpt>
      <trkpt lat="42.83433" lon="0.56467">
        <ele>1603.987</ele>
        <time>2021-03-21T09:21:29Z</time>
      </trkpt>
      <trkpt lat="42.83433" lon="0.56467">
        <ele>1603.966</ele>
        <time>2021-03-21T09:21:31Z</time>
      </trkpt>
      <trkpt lat="42.83433" lon="0.56467">
        <ele>1603.947</ele>
        <time>2021-03-21T09:21:33Z</time>
      </trkpt>
      <trkpt lat="42.83433" lon="0.56467">
        <ele>1603.962</ele>
        <time>2021-03-21T09:21:35Z</time>
      </trkpt>
      <trkpt lat="42.83433" lon="0.56467">
        <ele>1603.964</ele>
        <time>2021-03-21T09:21:37Z</time>
      </trkpt>
      <trkpt lat="42.83433" lon="0.56468">
        <ele>1603.597</ele>
        <time>2021-03-21T09:21:39Z</time>
      </trkpt>
      <trkpt lat="42.83433" lon="0.56468">
        <ele>1603.394</ele>
        <time>2021-03-21T09:21:41Z</time>
      </trkpt>
      <trkpt lat="42.83433" lon="0.56468">
        <ele>1603.39</ele>
        <time>2021-03-21T09:21:43Z</time>
      </trkpt>
      <trkpt lat="42.83433" lon="0.56468">
        <ele>1603.395</ele>
        <time>2021-03-21T09:21:45Z</time>
      </trkpt>
      <trkpt lat="42.83433" lon="0.56468">
        <ele>1603.401</ele>
        <time>2021-03-21T09:21:47Z</time>
      </trkpt>
      <trkpt lat="42.83433" lon="0.56468">
        <ele>1603.418</ele>
        <time>2021-03-21T09:21:49Z</time>
      </trkpt>
      <trkpt lat="42.83433" lon="0.56468">
        <ele>1603.396</ele>
        <time>2021-03-21T09:21:51Z</time>
      </trkpt>
      <trkpt lat="42.83433" lon="0.56468">
        <ele>1603.396</ele>
        <time>2021-03-21T09:21:53Z</time>
      </trkpt>
      <trkpt lat="42.83433" lon="0.56468">
        <ele>1603.397</ele>
        <time>2021-03-21T09:21:55Z</time>
      </trkpt>
      <trkpt lat="42.83433" lon="0.56468">
        <ele>1603.402</ele>
        <time>2021-03-21T09:21:57Z</time>
      </trkpt>
      <trkpt lat="42.83433" lon="0.56468">
        <ele>1603.399</ele>
        <time>2021-03-21T09:21:59Z</time>
      </trkpt>
      <trkpt lat="42.83433" lon="0.56468">
        <ele>1603.377</ele>
        <time>2021-03-21T09:22:01Z</time>
      </trkpt>
      <trkpt lat="42.83433" lon="0.56468">
        <ele>1603.36</ele>
        <time>2021-03-21T09:22:03Z</time>
      </trkpt>
      <trkpt lat="42.83433" lon="0.56468">
        <ele>1603.347</ele>
        <time>2021-03-21T09:22:05Z</time>
      </trkpt>
      <trkpt lat="42.83432" lon="0.56469">
        <ele>1603.556</ele>
        <time>2021-03-21T09:22:07Z</time>
      </trkpt>
      <trkpt lat="42.83432" lon="0.5647">
        <ele>1603.499</ele>
        <time>2021-03-21T09:22:09Z</time>
      </trkpt>
      <trkpt lat="42.83431" lon="0.56472">
        <ele>1603.915</ele>
        <time>2021-03-21T09:22:11Z</time>
      </trkpt>
      <trkpt lat="42.8343" lon="0.56474">
        <ele>1604.949</ele>
        <time>2021-03-21T09:22:13Z</time>
      </trkpt>
      <trkpt lat="42.83429" lon="0.56476">
        <ele>1605.201</ele>
        <time>2021-03-21T09:22:15Z</time>
      </trkpt>
      <trkpt lat="42.83429" lon="0.56478">
        <ele>1605.628</ele>
        <time>2021-03-21T09:22:17Z</time>
      </trkpt>
      <trkpt lat="42.83428" lon="0.5648">
        <ele>1606.693</ele>
        <time>2021-03-21T09:22:19Z</time>
      </trkpt>
      <trkpt lat="42.83427" lon="0.56481">
        <ele>1607.658</ele>
        <time>2021-03-21T09:22:21Z</time>
      </trkpt>
      <trkpt lat="42.83426" lon="0.56483">
        <ele>1608.243</ele>
        <time>2021-03-21T09:22:23Z</time>
      </trkpt>
      <trkpt lat="42.83425" lon="0.56485">
        <ele>1608.744</ele>
        <time>2021-03-21T09:22:25Z</time>
      </trkpt>
      <trkpt lat="42.83424" lon="0.56487">
        <ele>1609.066</ele>
        <time>2021-03-21T09:22:27Z</time>
      </trkpt>
      <trkpt lat="42.83423" lon="0.56488">
        <ele>1609.311</ele>
        <time>2021-03-21T09:22:29Z</time>
      </trkpt>
      <trkpt lat="42.83422" lon="0.5649">
        <ele>1609.171</ele>
        <time>2021-03-21T09:22:31Z</time>
      </trkpt>
      <trkpt lat="42.83421" lon="0.56493">
        <ele>1609.422</ele>
        <time>2021-03-21T09:22:33Z</time>
      </trkpt>
      <trkpt lat="42.8342" lon="0.56495">
        <ele>1609.514</ele>
        <time>2021-03-21T09:22:35Z</time>
      </trkpt>
      <trkpt lat="42.83419" lon="0.56497">
        <ele>1609.425</ele>
        <time>2021-03-21T09:22:37Z</time>
      </trkpt>
      <trkpt lat="42.83419" lon="0.56499">
        <ele>1609.712</ele>
        <time>2021-03-21T09:22:39Z</time>
      </trkpt>
      <trkpt lat="42.83418" lon="0.56501">
        <ele>1609.794</ele>
        <time>2021-03-21T09:22:41Z</time>
      </trkpt>
      <trkpt lat="42.83417" lon="0.56503">
        <ele>1610.085</ele>
        <time>2021-03-21T09:22:43Z</time>
      </trkpt>
      <trkpt lat="42.83416" lon="0.56505">
        <ele>1610.103</ele>
        <time>2021-03-21T09:22:45Z</time>
      </trkpt>
      <trkpt lat="42.83415" lon="0.56508">
        <ele>1610.468</ele>
        <time>2021-03-21T09:22:47Z</time>
      </trkpt>
      <trkpt lat="42.83414" lon="0.5651">
        <ele>1610.266</ele>
        <time>2021-03-21T09:22:49Z</time>
      </trkpt>
      <trkpt lat="42.83413" lon="0.56512">
        <ele>1610.504</ele>
        <time>2021-03-21T09:22:51Z</time>
      </trkpt>
      <trkpt lat="42.83412" lon="0.56514">
        <ele>1610.769</ele>
        <time>2021-03-21T09:22:53Z</time>
      </trkpt>
      <trkpt lat="42.8341" lon="0.56516">
        <ele>1610.925</ele>
        <time>2021-03-21T09:22:55Z</time>
      </trkpt>
      <trkpt lat="42.83409" lon="0.56518">
        <ele>1611.338</ele>
        <time>2021-03-21T09:22:57Z</time>
      </trkpt>
      <trkpt lat="42.83408" lon="0.56519">
        <ele>1612.381</ele>
        <time>2021-03-21T09:22:59Z</time>
      </trkpt>
      <trkpt lat="42.83407" lon="0.56521">
        <ele>1611.958</ele>
        <time>2021-03-21T09:23:01Z</time>
      </trkpt>
      <trkpt lat="42.83405" lon="0.56523">
        <ele>1612.015</ele>
        <time>2021-03-21T09:23:03Z</time>
      </trkpt>
      <trkpt lat="42.83404" lon="0.56524">
        <ele>1612.301</ele>
        <time>2021-03-21T09:23:05Z</time>
      </trkpt>
      <trkpt lat="42.83403" lon="0.56525">
        <ele>1612.267</ele>
        <time>2021-03-21T09:23:07Z</time>
      </trkpt>
      <trkpt lat="42.83401" lon="0.56527">
        <ele>1612.591</ele>
        <time>2021-03-21T09:23:09Z</time>
      </trkpt>
      <trkpt lat="42.834" lon="0.5653">
        <ele>1612.8</ele>
        <time>2021-03-21T09:23:11Z</time>
      </trkpt>
      <trkpt lat="42.83398" lon="0.56532">
        <ele>1613.077</ele>
        <time>2021-03-21T09:23:13Z</time>
      </trkpt>
      <trkpt lat="42.83397" lon="0.56534">
        <ele>1613.046</ele>
        <time>2021-03-21T09:23:15Z</time>
      </trkpt>
      <trkpt lat="42.83396" lon="0.56536">
        <ele>1612.854</ele>
        <time>2021-03-21T09:23:17Z</time>
      </trkpt>
      <trkpt lat="42.83395" lon="0.56538">
        <ele>1613.044</ele>
        <time>2021-03-21T09:23:19Z</time>
      </trkpt>
      <trkpt lat="42.83394" lon="0.5654">
        <ele>1613.667</ele>
        <time>2021-03-21T09:23:21Z</time>
      </trkpt>
      <trkpt lat="42.83393" lon="0.56542">
        <ele>1613.928</ele>
        <time>2021-03-21T09:23:23Z</time>
      </trkpt>
      <trkpt lat="42.83391" lon="0.56544">
        <ele>1613.661</ele>
        <time>2021-03-21T09:23:25Z</time>
      </trkpt>
      <trkpt lat="42.8339" lon="0.56546">
        <ele>1614.076</ele>
        <time>2021-03-21T09:23:27Z</time>
      </trkpt>
      <trkpt lat="42.83389" lon="0.56548">
        <ele>1614.56</ele>
        <time>2021-03-21T09:23:29Z</time>
      </trkpt>
      <trkpt lat="42.83388" lon="0.5655">
        <ele>1614.577</ele>
        <time>2021-03-21T09:23:31Z</time>
      </trkpt>
      <trkpt lat="42.83386" lon="0.56552">
        <ele>1615.183</ele>
        <time>2021-03-21T09:23:33Z</time>
      </trkpt>
      <trkpt lat="42.83385" lon="0.56554">
        <ele>1615.102</ele>
        <time>2021-03-21T09:23:35Z</time>
      </trkpt>
      <trkpt lat="42.83384" lon="0.56556">
        <ele>1615.492</ele>
        <time>2021-03-21T09:23:37Z</time>
      </trkpt>
      <trkpt lat="42.83383" lon="0.56558">
        <ele>1615.616</ele>
        <time>2021-03-21T09:23:39Z</time>
      </trkpt>
      <trkpt lat="42.83381" lon="0.56559">
        <ele>1615.828</ele>
        <time>2021-03-21T09:23:41Z</time>
      </trkpt>
      <trkpt lat="42.8338" lon="0.56562">
        <ele>1616.093</ele>
        <time>2021-03-21T09:23:43Z</time>
      </trkpt>
      <trkpt lat="42.83379" lon="0.56563">
        <ele>1615.923</ele>
        <time>2021-03-21T09:23:45Z</time>
      </trkpt>
      <trkpt lat="42.83377" lon="0.56565">
        <ele>1616.128</ele>
        <time>2021-03-21T09:23:47Z</time>
      </trkpt>
      <trkpt lat="42.83376" lon="0.56567">
        <ele>1616.701</ele>
        <time>2021-03-21T09:23:49Z</time>
      </trkpt>
      <trkpt lat="42.83375" lon="0.56569">
        <ele>1617.378</ele>
        <time>2021-03-21T09:23:51Z</time>
      </trkpt>
      <trkpt lat="42.83373" lon="0.56571">
        <ele>1617.164</ele>
        <time>2021-03-21T09:23:53Z</time>
      </trkpt>
      <trkpt lat="42.83372" lon="0.56573">
        <ele>1617.428</ele>
        <time>2021-03-21T09:23:55Z</time>
      </trkpt>
      <trkpt lat="42.8337" lon="0.56575">
        <ele>1617.773</ele>
        <time>2021-03-21T09:23:57Z</time>
      </trkpt>
      <trkpt lat="42.83369" lon="0.56577">
        <ele>1617.988</ele>
        <time>2021-03-21T09:23:59Z</time>
      </trkpt>
      <trkpt lat="42.83368" lon="0.56579">
        <ele>1618.192</ele>
        <time>2021-03-21T09:24:01Z</time>
      </trkpt>
      <trkpt lat="42.83367" lon="0.56581">
        <ele>1618.715</ele>
        <time>2021-03-21T09:24:03Z</time>
      </trkpt>
      <trkpt lat="42.83365" lon="0.56583">
        <ele>1619.135</ele>
        <time>2021-03-21T09:24:05Z</time>
      </trkpt>
      <trkpt lat="42.83364" lon="0.56584">
        <ele>1619.672</ele>
        <time>2021-03-21T09:24:07Z</time>
      </trkpt>
      <trkpt lat="42.83363" lon="0.56586">
        <ele>1620.047</ele>
        <time>2021-03-21T09:24:09Z</time>
      </trkpt>
      <trkpt lat="42.83362" lon="0.56588">
        <ele>1619.83</ele>
        <time>2021-03-21T09:24:11Z</time>
      </trkpt>
      <trkpt lat="42.83361" lon="0.5659">
        <ele>1619.552</ele>
        <time>2021-03-21T09:24:13Z</time>
      </trkpt>
      <trkpt lat="42.83361" lon="0.56592">
        <ele>1618.7</ele>
        <time>2021-03-21T09:24:15Z</time>
      </trkpt>
      <trkpt lat="42.8336" lon="0.56594">
        <ele>1619.146</ele>
        <time>2021-03-21T09:24:17Z</time>
      </trkpt>
      <trkpt lat="42.83358" lon="0.56596">
        <ele>1619.041</ele>
        <time>2021-03-21T09:24:19Z</time>
      </trkpt>
      <trkpt lat="42.83357" lon="0.56598">
        <ele>1619.704</ele>
        <time>2021-03-21T09:24:21Z</time>
      </trkpt>
      <trkpt lat="42.83356" lon="0.566">
        <ele>1619.611</ele>
        <time>2021-03-21T09:24:23Z</time>
      </trkpt>
      <trkpt lat="42.83355" lon="0.56602">
        <ele>1619.48</ele>
        <time>2021-03-21T09:24:25Z</time>
      </trkpt>
      <trkpt lat="42.83353" lon="0.56604">
        <ele>1619.869</ele>
        <time>2021-03-21T09:24:27Z</time>
      </trkpt>
      <trkpt lat="42.83352" lon="0.56606">
        <ele>1619.818</ele>
        <time>2021-03-21T09:24:29Z</time>
      </trkpt>
      <trkpt lat="42.83351" lon="0.56607">
        <ele>1620.081</ele>
        <time>2021-03-21T09:24:31Z</time>
      </trkpt>
      <trkpt lat="42.8335" lon="0.56609">
        <ele>1619.746</ele>
        <time>2021-03-21T09:24:33Z</time>
      </trkpt>
      <trkpt lat="42.83349" lon="0.56611">
        <ele>1619.8</ele>
        <time>2021-03-21T09:24:35Z</time>
      </trkpt>
      <trkpt lat="42.83348" lon="0.56613">
        <ele>1620.85</ele>
        <time>2021-03-21T09:24:37Z</time>
      </trkpt>
      <trkpt lat="42.83346" lon="0.56615">
        <ele>1620.689</ele>
        <time>2021-03-21T09:24:39Z</time>
      </trkpt>
      <trkpt lat="42.83345" lon="0.56617">
        <ele>1620.955</ele>
        <time>2021-03-21T09:24:41Z</time>
      </trkpt>
      <trkpt lat="42.83344" lon="0.56619">
        <ele>1620.789</ele>
        <time>2021-03-21T09:24:43Z</time>
      </trkpt>
      <trkpt lat="42.83343" lon="0.56621">
        <ele>1621.559</ele>
        <time>2021-03-21T09:24:45Z</time>
      </trkpt>
      <trkpt lat="42.83342" lon="0.56623">
        <ele>1621.932</ele>
        <time>2021-03-21T09:24:47Z</time>
      </trkpt>
      <trkpt lat="42.83341" lon="0.56624">
        <ele>1623.206</ele>
        <time>2021-03-21T09:24:49Z</time>
      </trkpt>
      <trkpt lat="42.8334" lon="0.56626">
        <ele>1623.973</ele>
        <time>2021-03-21T09:24:51Z</time>
      </trkpt>
      <trkpt lat="42.83339" lon="0.56628">
        <ele>1624.049</ele>
        <time>2021-03-21T09:24:53Z</time>
      </trkpt>
      <trkpt lat="42.83338" lon="0.56629">
        <ele>1623.991</ele>
        <time>2021-03-21T09:24:55Z</time>
      </trkpt>
      <trkpt lat="42.83336" lon="0.56631">
        <ele>1624.318</ele>
        <time>2021-03-21T09:24:57Z</time>
      </trkpt>
      <trkpt lat="42.83335" lon="0.56632">
        <ele>1624.663</ele>
        <time>2021-03-21T09:24:59Z</time>
      </trkpt>
      <trkpt lat="42.83333" lon="0.56634">
        <ele>1624.074</ele>
        <time>2021-03-21T09:25:01Z</time>
      </trkpt>
      <trkpt lat="42.83332" lon="0.56635">
        <ele>1625.047</ele>
        <time>2021-03-21T09:25:03Z</time>
      </trkpt>
      <trkpt lat="42.83331" lon="0.56636">
        <ele>1625.67</ele>
        <time>2021-03-21T09:25:05Z</time>
      </trkpt>
      <trkpt lat="42.83329" lon="0.56638">
        <ele>1627.203</ele>
        <time>2021-03-21T09:25:07Z</time>
      </trkpt>
      <trkpt lat="42.83328" lon="0.5664">
        <ele>1627.496</ele>
        <time>2021-03-21T09:25:09Z</time>
      </trkpt>
      <trkpt lat="42.83326" lon="0.56641">
        <ele>1628.332</ele>
        <time>2021-03-21T09:25:11Z</time>
      </trkpt>
      <trkpt lat="42.83324" lon="0.56642">
        <ele>1629.115</ele>
        <time>2021-03-21T09:25:13Z</time>
      </trkpt>
      <trkpt lat="42.83323" lon="0.56642">
        <ele>1629.76</ele>
        <time>2021-03-21T09:25:15Z</time>
      </trkpt>
      <trkpt lat="42.83321" lon="0.56643">
        <ele>1630.501</ele>
        <time>2021-03-21T09:25:17Z</time>
      </trkpt>
      <trkpt lat="42.8332" lon="0.56644">
        <ele>1630.76</ele>
        <time>2021-03-21T09:25:19Z</time>
      </trkpt>
      <trkpt lat="42.83318" lon="0.56645">
        <ele>1630.212</ele>
        <time>2021-03-21T09:25:21Z</time>
      </trkpt>
      <trkpt lat="42.83317" lon="0.56646">
        <ele>1630.143</ele>
        <time>2021-03-21T09:25:23Z</time>
      </trkpt>
      <trkpt lat="42.83315" lon="0.56646">
        <ele>1630.325</ele>
        <time>2021-03-21T09:25:25Z</time>
      </trkpt>
      <trkpt lat="42.83314" lon="0.56646">
        <ele>1629.967</ele>
        <time>2021-03-21T09:25:27Z</time>
      </trkpt>
      <trkpt lat="42.83312" lon="0.56646">
        <ele>1630.08</ele>
        <time>2021-03-21T09:25:29Z</time>
      </trkpt>
      <trkpt lat="42.8331" lon="0.56646">
        <ele>1631.622</ele>
        <time>2021-03-21T09:25:31Z</time>
      </trkpt>
      <trkpt lat="42.83308" lon="0.56646">
        <ele>1631.879</ele>
        <time>2021-03-21T09:25:33Z</time>
      </trkpt>
      <trkpt lat="42.83306" lon="0.56647">
        <ele>1631.991</ele>
        <time>2021-03-21T09:25:35Z</time>
      </trkpt>
      <trkpt lat="42.83305" lon="0.56647">
        <ele>1631.594</ele>
        <time>2021-03-21T09:25:37Z</time>
      </trkpt>
      <trkpt lat="42.83303" lon="0.56647">
        <ele>1631.887</ele>
        <time>2021-03-21T09:25:39Z</time>
      </trkpt>
      <trkpt lat="42.83301" lon="0.56647">
        <ele>1631.926</ele>
        <time>2021-03-21T09:25:41Z</time>
      </trkpt>
      <trkpt lat="42.83299" lon="0.56647">
        <ele>1631.385</ele>
        <time>2021-03-21T09:25:43Z</time>
      </trkpt>
      <trkpt lat="42.83298" lon="0.56646">
        <ele>1632.004</ele>
        <time>2021-03-21T09:25:45Z</time>
      </trkpt>
      <trkpt lat="42.83296" lon="0.56645">
        <ele>1632.692</ele>
        <time>2021-03-21T09:25:47Z</time>
      </trkpt>
      <trkpt lat="42.83295" lon="0.56645">
        <ele>1633.306</ele>
        <time>2021-03-21T09:25:49Z</time>
      </trkpt>
      <trkpt lat="42.83293" lon="0.56644">
        <ele>1634.222</ele>
        <time>2021-03-21T09:25:51Z</time>
      </trkpt>
      <trkpt lat="42.83292" lon="0.56643">
        <ele>1634.636</ele>
        <time>2021-03-21T09:25:53Z</time>
      </trkpt>
      <trkpt lat="42.8329" lon="0.56643">
        <ele>1634.133</ele>
        <time>2021-03-21T09:25:55Z</time>
      </trkpt>
      <trkpt lat="42.83289" lon="0.56644">
        <ele>1633.613</ele>
        <time>2021-03-21T09:25:57Z</time>
      </trkpt>
      <trkpt lat="42.83289" lon="0.56644">
        <ele>1633.703</ele>
        <time>2021-03-21T09:25:59Z</time>
      </trkpt>
      <trkpt lat="42.83289" lon="0.56644">
        <ele>1633.711</ele>
        <time>2021-03-21T09:26:01Z</time>
      </trkpt>
      <trkpt lat="42.83289" lon="0.56644">
        <ele>1633.713</ele>
        <time>2021-03-21T09:26:03Z</time>
      </trkpt>
      <trkpt lat="42.83289" lon="0.56644">
        <ele>1633.719</ele>
        <time>2021-03-21T09:26:05Z</time>
      </trkpt>
      <trkpt lat="42.83289" lon="0.56644">
        <ele>1633.728</ele>
        <time>2021-03-21T09:26:07Z</time>
      </trkpt>
      <trkpt lat="42.83289" lon="0.56644">
        <ele>1633.734</ele>
        <time>2021-03-21T09:26:09Z</time>
      </trkpt>
      <trkpt lat="42.83288" lon="0.56643">
        <ele>1634.588</ele>
        <time>2021-03-21T09:26:11Z</time>
      </trkpt>
      <trkpt lat="42.83287" lon="0.56643">
        <ele>1635.073</ele>
        <time>2021-03-21T09:26:13Z</time>
      </trkpt>
      <trkpt lat="42.83285" lon="0.56643">
        <ele>1635.482</ele>
        <time>2021-03-21T09:26:15Z</time>
      </trkpt>
      <trkpt lat="42.83283" lon="0.56643">
        <ele>1636.395</ele>
        <time>2021-03-21T09:26:17Z</time>
      </trkpt>
      <trkpt lat="42.83282" lon="0.56643">
        <ele>1636.506</ele>
        <time>2021-03-21T09:26:19Z</time>
      </trkpt>
      <trkpt lat="42.8328" lon="0.56643">
        <ele>1636.218</ele>
        <time>2021-03-21T09:26:21Z</time>
      </trkpt>
      <trkpt lat="42.83278" lon="0.56642">
        <ele>1635.864</ele>
        <time>2021-03-21T09:26:23Z</time>
      </trkpt>
      <trkpt lat="42.83277" lon="0.56642">
        <ele>1635.53</ele>
        <time>2021-03-21T09:26:25Z</time>
      </trkpt>
      <trkpt lat="42.83275" lon="0.56642">
        <ele>1636.327</ele>
        <time>2021-03-21T09:26:27Z</time>
      </trkpt>
      <trkpt lat="42.83273" lon="0.56641">
        <ele>1637.393</ele>
        <time>2021-03-21T09:26:29Z</time>
      </trkpt>
      <trkpt lat="42.83272" lon="0.56639">
        <ele>1637.328</ele>
        <time>2021-03-21T09:26:31Z</time>
      </trkpt>
      <trkpt lat="42.8327" lon="0.56638">
        <ele>1638.103</ele>
        <time>2021-03-21T09:26:33Z</time>
      </trkpt>
      <trkpt lat="42.83269" lon="0.56637">
        <ele>1638.873</ele>
        <time>2021-03-21T09:26:35Z</time>
      </trkpt>
      <trkpt lat="42.83267" lon="0.56636">
        <ele>1639.702</ele>
        <time>2021-03-21T09:26:37Z</time>
      </trkpt>
      <trkpt lat="42.83266" lon="0.56635">
        <ele>1640.418</ele>
        <time>2021-03-21T09:26:39Z</time>
      </trkpt>
      <trkpt lat="42.83264" lon="0.56634">
        <ele>1640.31</ele>
        <time>2021-03-21T09:26:41Z</time>
      </trkpt>
      <trkpt lat="42.83263" lon="0.56634">
        <ele>1640.914</ele>
        <time>2021-03-21T09:26:43Z</time>
      </trkpt>
      <trkpt lat="42.83261" lon="0.56633">
        <ele>1641.534</ele>
        <time>2021-03-21T09:26:45Z</time>
      </trkpt>
      <trkpt lat="42.83259" lon="0.56632">
        <ele>1641.997</ele>
        <time>2021-03-21T09:26:47Z</time>
      </trkpt>
      <trkpt lat="42.83258" lon="0.5663">
        <ele>1642.945</ele>
        <time>2021-03-21T09:26:49Z</time>
      </trkpt>
      <trkpt lat="42.83256" lon="0.56629">
        <ele>1643.009</ele>
        <time>2021-03-21T09:26:51Z</time>
      </trkpt>
      <trkpt lat="42.83255" lon="0.56628">
        <ele>1642.941</ele>
        <time>2021-03-21T09:26:53Z</time>
      </trkpt>
      <trkpt lat="42.83253" lon="0.56627">
        <ele>1643.597</ele>
        <time>2021-03-21T09:26:55Z</time>
      </trkpt>
      <trkpt lat="42.83252" lon="0.56626">
        <ele>1643.62</ele>
        <time>2021-03-21T09:26:57Z</time>
      </trkpt>
      <trkpt lat="42.83251" lon="0.56624">
        <ele>1646.222</ele>
        <time>2021-03-21T09:26:59Z</time>
      </trkpt>
      <trkpt lat="42.83249" lon="0.56623">
        <ele>1646.657</ele>
        <time>2021-03-21T09:27:01Z</time>
      </trkpt>
      <trkpt lat="42.83248" lon="0.56622">
        <ele>1648.074</ele>
        <time>2021-03-21T09:27:03Z</time>
      </trkpt>
      <trkpt lat="42.83246" lon="0.5662">
        <ele>1649.337</ele>
        <time>2021-03-21T09:27:05Z</time>
      </trkpt>
      <trkpt lat="42.83245" lon="0.56619">
        <ele>1649.276</ele>
        <time>2021-03-21T09:27:07Z</time>
      </trkpt>
      <trkpt lat="42.83244" lon="0.56617">
        <ele>1648.526</ele>
        <time>2021-03-21T09:27:09Z</time>
      </trkpt>
      <trkpt lat="42.83242" lon="0.56616">
        <ele>1649.708</ele>
        <time>2021-03-21T09:27:11Z</time>
      </trkpt>
      <trkpt lat="42.83241" lon="0.56614">
        <ele>1650.39</ele>
        <time>2021-03-21T09:27:13Z</time>
      </trkpt>
      <trkpt lat="42.8324" lon="0.56612">
        <ele>1650.561</ele>
        <time>2021-03-21T09:27:15Z</time>
      </trkpt>
      <trkpt lat="42.83239" lon="0.5661">
        <ele>1650.556</ele>
        <time>2021-03-21T09:27:17Z</time>
      </trkpt>
      <trkpt lat="42.83238" lon="0.56609">
        <ele>1649.402</ele>
        <time>2021-03-21T09:27:19Z</time>
      </trkpt>
      <trkpt lat="42.83237" lon="0.56607">
        <ele>1649.719</ele>
        <time>2021-03-21T09:27:21Z</time>
      </trkpt>
      <trkpt lat="42.83235" lon="0.56606">
        <ele>1649.134</ele>
        <time>2021-03-21T09:27:23Z</time>
      </trkpt>
      <trkpt lat="42.83234" lon="0.56604">
        <ele>1650.2</ele>
        <time>2021-03-21T09:27:25Z</time>
      </trkpt>
      <trkpt lat="42.83233" lon="0.56603">
        <ele>1650.61</ele>
        <time>2021-03-21T09:27:27Z</time>
      </trkpt>
      <trkpt lat="42.83231" lon="0.56602">
        <ele>1651.217</ele>
        <time>2021-03-21T09:27:29Z</time>
      </trkpt>
      <trkpt lat="42.83229" lon="0.56601">
        <ele>1652.278</ele>
        <time>2021-03-21T09:27:31Z</time>
      </trkpt>
      <trkpt lat="42.83228" lon="0.566">
        <ele>1652.461</ele>
        <time>2021-03-21T09:27:33Z</time>
      </trkpt>
      <trkpt lat="42.83227" lon="0.566">
        <ele>1651.668</ele>
        <time>2021-03-21T09:27:35Z</time>
      </trkpt>
      <trkpt lat="42.83225" lon="0.566">
        <ele>1651.98</ele>
        <time>2021-03-21T09:27:37Z</time>
      </trkpt>
      <trkpt lat="42.83223" lon="0.566">
        <ele>1652.633</ele>
        <time>2021-03-21T09:27:39Z</time>
      </trkpt>
      <trkpt lat="42.83222" lon="0.566">
        <ele>1652.622</ele>
        <time>2021-03-21T09:27:40Z</time>
      </trkpt>
      <trkpt lat="42.8322" lon="0.566">
        <ele>1653.419</ele>
        <time>2021-03-21T09:27:43Z</time>
      </trkpt>
      <trkpt lat="42.83219" lon="0.566">
        <ele>1653.556</ele>
        <time>2021-03-21T09:27:45Z</time>
      </trkpt>
      <trkpt lat="42.83217" lon="0.56601">
        <ele>1654.091</ele>
        <time>2021-03-21T09:27:47Z</time>
      </trkpt>
      <trkpt lat="42.83215" lon="0.56602">
        <ele>1654.354</ele>
        <time>2021-03-21T09:27:49Z</time>
      </trkpt>
      <trkpt lat="42.83214" lon="0.56603">
        <ele>1654.517</ele>
        <time>2021-03-21T09:27:51Z</time>
      </trkpt>
      <trkpt lat="42.83212" lon="0.56605">
        <ele>1654.8</ele>
        <time>2021-03-21T09:27:53Z</time>
      </trkpt>
      <trkpt lat="42.83211" lon="0.56605">
        <ele>1654.831</ele>
        <time>2021-03-21T09:27:55Z</time>
      </trkpt>
      <trkpt lat="42.83209" lon="0.56606">
        <ele>1655.009</ele>
        <time>2021-03-21T09:27:57Z</time>
      </trkpt>
      <trkpt lat="42.83208" lon="0.56607">
        <ele>1655.622</ele>
        <time>2021-03-21T09:27:59Z</time>
      </trkpt>
      <trkpt lat="42.83206" lon="0.56608">
        <ele>1655.793</ele>
        <time>2021-03-21T09:28:01Z</time>
      </trkpt>
      <trkpt lat="42.83204" lon="0.56608">
        <ele>1656.127</ele>
        <time>2021-03-21T09:28:03Z</time>
      </trkpt>
      <trkpt lat="42.83203" lon="0.5661">
        <ele>1656.164</ele>
        <time>2021-03-21T09:28:05Z</time>
      </trkpt>
      <trkpt lat="42.83201" lon="0.56611">
        <ele>1656.428</ele>
        <time>2021-03-21T09:28:07Z</time>
      </trkpt>
      <trkpt lat="42.83199" lon="0.56611">
        <ele>1657.108</ele>
        <time>2021-03-21T09:28:09Z</time>
      </trkpt>
      <trkpt lat="42.83198" lon="0.56612">
        <ele>1657.282</ele>
        <time>2021-03-21T09:28:11Z</time>
      </trkpt>
      <trkpt lat="42.83197" lon="0.56613">
        <ele>1657.272</ele>
        <time>2021-03-21T09:28:13Z</time>
      </trkpt>
      <trkpt lat="42.83195" lon="0.56613">
        <ele>1657.648</ele>
        <time>2021-03-21T09:28:15Z</time>
      </trkpt>
      <trkpt lat="42.83194" lon="0.56614">
        <ele>1657.537</ele>
        <time>2021-03-21T09:28:17Z</time>
      </trkpt>
      <trkpt lat="42.83194" lon="0.56614">
        <ele>1657.52</ele>
        <time>2021-03-21T09:28:19Z</time>
      </trkpt>
      <trkpt lat="42.83194" lon="0.56614">
        <ele>1657.548</ele>
        <time>2021-03-21T09:28:21Z</time>
      </trkpt>
      <trkpt lat="42.83193" lon="0.56615">
        <ele>1658.065</ele>
        <time>2021-03-21T09:28:23Z</time>
      </trkpt>
      <trkpt lat="42.83192" lon="0.56615">
        <ele>1657.887</ele>
        <time>2021-03-21T09:28:25Z</time>
      </trkpt>
      <trkpt lat="42.83191" lon="0.56616">
        <ele>1658.19</ele>
        <time>2021-03-21T09:28:27Z</time>
      </trkpt>
      <trkpt lat="42.8319" lon="0.56617">
        <ele>1658.558</ele>
        <time>2021-03-21T09:28:29Z</time>
      </trkpt>
      <trkpt lat="42.83188" lon="0.56618">
        <ele>1658.53</ele>
        <time>2021-03-21T09:28:31Z</time>
      </trkpt>
      <trkpt lat="42.83187" lon="0.56619">
        <ele>1659.076</ele>
        <time>2021-03-21T09:28:33Z</time>
      </trkpt>
      <trkpt lat="42.83185" lon="0.5662">
        <ele>1659.447</ele>
        <time>2021-03-21T09:28:35Z</time>
      </trkpt>
      <trkpt lat="42.83184" lon="0.56621">
        <ele>1659.688</ele>
        <time>2021-03-21T09:28:37Z</time>
      </trkpt>
      <trkpt lat="42.83183" lon="0.56622">
        <ele>1659.983</ele>
        <time>2021-03-21T09:28:39Z</time>
      </trkpt>
      <trkpt lat="42.83182" lon="0.56623">
        <ele>1660.193</ele>
        <time>2021-03-21T09:28:41Z</time>
      </trkpt>
      <trkpt lat="42.83181" lon="0.56624">
        <ele>1660.323</ele>
        <time>2021-03-21T09:28:43Z</time>
      </trkpt>
      <trkpt lat="42.83179" lon="0.56625">
        <ele>1660.949</ele>
        <time>2021-03-21T09:28:45Z</time>
      </trkpt>
      <trkpt lat="42.83178" lon="0.56626">
        <ele>1661.569</ele>
        <time>2021-03-21T09:28:47Z</time>
      </trkpt>
      <trkpt lat="42.83177" lon="0.56627">
        <ele>1661.459</ele>
        <time>2021-03-21T09:28:49Z</time>
      </trkpt>
      <trkpt lat="42.83176" lon="0.56628">
        <ele>1661.664</ele>
        <time>2021-03-21T09:28:51Z</time>
      </trkpt>
      <trkpt lat="42.83174" lon="0.56629">
        <ele>1661.877</ele>
        <time>2021-03-21T09:28:53Z</time>
      </trkpt>
      <trkpt lat="42.83173" lon="0.5663">
        <ele>1662.166</ele>
        <time>2021-03-21T09:28:55Z</time>
      </trkpt>
      <trkpt lat="42.83171" lon="0.56631">
        <ele>1662.649</ele>
        <time>2021-03-21T09:28:57Z</time>
      </trkpt>
      <trkpt lat="42.8317" lon="0.56632">
        <ele>1662.812</ele>
        <time>2021-03-21T09:28:59Z</time>
      </trkpt>
      <trkpt lat="42.83168" lon="0.56633">
        <ele>1663.174</ele>
        <time>2021-03-21T09:29:01Z</time>
      </trkpt>
      <trkpt lat="42.83167" lon="0.56634">
        <ele>1663.422</ele>
        <time>2021-03-21T09:29:03Z</time>
      </trkpt>
      <trkpt lat="42.83165" lon="0.56635">
        <ele>1663.306</ele>
        <time>2021-03-21T09:29:05Z</time>
      </trkpt>
      <trkpt lat="42.83164" lon="0.56637">
        <ele>1663.54</ele>
        <time>2021-03-21T09:29:07Z</time>
      </trkpt>
      <trkpt lat="42.83163" lon="0.56638">
        <ele>1663.818</ele>
        <time>2021-03-21T09:29:09Z</time>
      </trkpt>
      <trkpt lat="42.83161" lon="0.56639">
        <ele>1664.201</ele>
        <time>2021-03-21T09:29:11Z</time>
      </trkpt>
      <trkpt lat="42.8316" lon="0.5664">
        <ele>1664.66</ele>
        <time>2021-03-21T09:29:13Z</time>
      </trkpt>
      <trkpt lat="42.83159" lon="0.56642">
        <ele>1665.133</ele>
        <time>2021-03-21T09:29:15Z</time>
      </trkpt>
      <trkpt lat="42.83157" lon="0.56643">
        <ele>1665.511</ele>
        <time>2021-03-21T09:29:17Z</time>
      </trkpt>
      <trkpt lat="42.83156" lon="0.56644">
        <ele>1666.296</ele>
        <time>2021-03-21T09:29:19Z</time>
      </trkpt>
      <trkpt lat="42.83154" lon="0.56646">
        <ele>1666.368</ele>
        <time>2021-03-21T09:29:21Z</time>
      </trkpt>
      <trkpt lat="42.83152" lon="0.56648">
        <ele>1666.701</ele>
        <time>2021-03-21T09:29:23Z</time>
      </trkpt>
      <trkpt lat="42.83151" lon="0.56649">
        <ele>1666.642</ele>
        <time>2021-03-21T09:29:25Z</time>
      </trkpt>
      <trkpt lat="42.8315" lon="0.56651">
        <ele>1667.252</ele>
        <time>2021-03-21T09:29:27Z</time>
      </trkpt>
      <trkpt lat="42.83148" lon="0.56653">
        <ele>1667.082</ele>
        <time>2021-03-21T09:29:29Z</time>
      </trkpt>
      <trkpt lat="42.83147" lon="0.56655">
        <ele>1667.095</ele>
        <time>2021-03-21T09:29:31Z</time>
      </trkpt>
      <trkpt lat="42.83145" lon="0.56656">
        <ele>1667.008</ele>
        <time>2021-03-21T09:29:33Z</time>
      </trkpt>
      <trkpt lat="42.83143" lon="0.56658">
        <ele>1667.303</ele>
        <time>2021-03-21T09:29:35Z</time>
      </trkpt>
      <trkpt lat="42.83142" lon="0.5666">
        <ele>1666.842</ele>
        <time>2021-03-21T09:29:37Z</time>
      </trkpt>
      <trkpt lat="42.8314" lon="0.56661">
        <ele>1667.276</ele>
        <time>2021-03-21T09:29:39Z</time>
      </trkpt>
      <trkpt lat="42.83139" lon="0.56663">
        <ele>1667.858</ele>
        <time>2021-03-21T09:29:41Z</time>
      </trkpt>
      <trkpt lat="42.83137" lon="0.56665">
        <ele>1667.829</ele>
        <time>2021-03-21T09:29:43Z</time>
      </trkpt>
      <trkpt lat="42.83136" lon="0.56667">
        <ele>1668.777</ele>
        <time>2021-03-21T09:29:45Z</time>
      </trkpt>
      <trkpt lat="42.83135" lon="0.56669">
        <ele>1668.892</ele>
        <time>2021-03-21T09:29:47Z</time>
      </trkpt>
      <trkpt lat="42.83133" lon="0.5667">
        <ele>1668.866</ele>
        <time>2021-03-21T09:29:49Z</time>
      </trkpt>
      <trkpt lat="42.83133" lon="0.56672">
        <ele>1669.582</ele>
        <time>2021-03-21T09:29:51Z</time>
      </trkpt>
      <trkpt lat="42.83132" lon="0.56673">
        <ele>1670.076</ele>
        <time>2021-03-21T09:29:53Z</time>
      </trkpt>
      <trkpt lat="42.8313" lon="0.56675">
        <ele>1670.724</ele>
        <time>2021-03-21T09:29:55Z</time>
      </trkpt>
      <trkpt lat="42.83129" lon="0.56678">
        <ele>1671.66</ele>
        <time>2021-03-21T09:29:57Z</time>
      </trkpt>
      <trkpt lat="42.83128" lon="0.56679">
        <ele>1671.447</ele>
        <time>2021-03-21T09:29:59Z</time>
      </trkpt>
      <trkpt lat="42.83127" lon="0.56681">
        <ele>1672.633</ele>
        <time>2021-03-21T09:30:01Z</time>
      </trkpt>
      <trkpt lat="42.83126" lon="0.56683">
        <ele>1673.035</ele>
        <time>2021-03-21T09:30:03Z</time>
      </trkpt>
      <trkpt lat="42.83125" lon="0.56685">
        <ele>1673.484</ele>
        <time>2021-03-21T09:30:05Z</time>
      </trkpt>
      <trkpt lat="42.83124" lon="0.56687">
        <ele>1673.369</ele>
        <time>2021-03-21T09:30:07Z</time>
      </trkpt>
      <trkpt lat="42.83124" lon="0.56688">
        <ele>1672.722</ele>
        <time>2021-03-21T09:30:09Z</time>
      </trkpt>
      <trkpt lat="42.83123" lon="0.56689">
        <ele>1672.823</ele>
        <time>2021-03-21T09:30:11Z</time>
      </trkpt>
      <trkpt lat="42.83122" lon="0.5669">
        <ele>1672.846</ele>
        <time>2021-03-21T09:30:13Z</time>
      </trkpt>
      <trkpt lat="42.83121" lon="0.56692">
        <ele>1672.981</ele>
        <time>2021-03-21T09:30:15Z</time>
      </trkpt>
      <trkpt lat="42.8312" lon="0.56694">
        <ele>1673.429</ele>
        <time>2021-03-21T09:30:17Z</time>
      </trkpt>
      <trkpt lat="42.83119" lon="0.56696">
        <ele>1673.662</ele>
        <time>2021-03-21T09:30:19Z</time>
      </trkpt>
      <trkpt lat="42.83118" lon="0.56697">
        <ele>1673.525</ele>
        <time>2021-03-21T09:30:21Z</time>
      </trkpt>
      <trkpt lat="42.83116" lon="0.56699">
        <ele>1673.983</ele>
        <time>2021-03-21T09:30:23Z</time>
      </trkpt>
      <trkpt lat="42.83115" lon="0.56701">
        <ele>1674.492</ele>
        <time>2021-03-21T09:30:25Z</time>
      </trkpt>
      <trkpt lat="42.83114" lon="0.56703">
        <ele>1675.357</ele>
        <time>2021-03-21T09:30:27Z</time>
      </trkpt>
      <trkpt lat="42.83113" lon="0.56705">
        <ele>1675.034</ele>
        <time>2021-03-21T09:30:29Z</time>
      </trkpt>
      <trkpt lat="42.83112" lon="0.56707">
        <ele>1675.12</ele>
        <time>2021-03-21T09:30:31Z</time>
      </trkpt>
      <trkpt lat="42.83111" lon="0.5671">
        <ele>1675.698</ele>
        <time>2021-03-21T09:30:33Z</time>
      </trkpt>
      <trkpt lat="42.8311" lon="0.56712">
        <ele>1675.896</ele>
        <time>2021-03-21T09:30:35Z</time>
      </trkpt>
      <trkpt lat="42.83109" lon="0.56713">
        <ele>1675.775</ele>
        <time>2021-03-21T09:30:37Z</time>
      </trkpt>
      <trkpt lat="42.83108" lon="0.56715">
        <ele>1676.497</ele>
        <time>2021-03-21T09:30:39Z</time>
      </trkpt>
      <trkpt lat="42.83107" lon="0.56717">
        <ele>1676.108</ele>
        <time>2021-03-21T09:30:41Z</time>
      </trkpt>
      <trkpt lat="42.83106" lon="0.56718">
        <ele>1676.819</ele>
        <time>2021-03-21T09:30:43Z</time>
      </trkpt>
      <trkpt lat="42.83105" lon="0.5672">
        <ele>1676.465</ele>
        <time>2021-03-21T09:30:45Z</time>
      </trkpt>
      <trkpt lat="42.83104" lon="0.56722">
        <ele>1676.852</ele>
        <time>2021-03-21T09:30:47Z</time>
      </trkpt>
      <trkpt lat="42.83103" lon="0.56724">
        <ele>1676.769</ele>
        <time>2021-03-21T09:30:49Z</time>
      </trkpt>
      <trkpt lat="42.83102" lon="0.56725">
        <ele>1677.122</ele>
        <time>2021-03-21T09:30:51Z</time>
      </trkpt>
      <trkpt lat="42.83101" lon="0.56727">
        <ele>1677.571</ele>
        <time>2021-03-21T09:30:53Z</time>
      </trkpt>
      <trkpt lat="42.831" lon="0.56729">
        <ele>1677.768</ele>
        <time>2021-03-21T09:30:55Z</time>
      </trkpt>
      <trkpt lat="42.83099" lon="0.56731">
        <ele>1678.236</ele>
        <time>2021-03-21T09:30:57Z</time>
      </trkpt>
      <trkpt lat="42.83098" lon="0.56732">
        <ele>1678.101</ele>
        <time>2021-03-21T09:30:59Z</time>
      </trkpt>
      <trkpt lat="42.83097" lon="0.56734">
        <ele>1678.419</ele>
        <time>2021-03-21T09:31:01Z</time>
      </trkpt>
      <trkpt lat="42.83096" lon="0.56736">
        <ele>1678.763</ele>
        <time>2021-03-21T09:31:03Z</time>
      </trkpt>
      <trkpt lat="42.83095" lon="0.56738">
        <ele>1679.03</ele>
        <time>2021-03-21T09:31:05Z</time>
      </trkpt>
      <trkpt lat="42.83094" lon="0.5674">
        <ele>1679.35</ele>
        <time>2021-03-21T09:31:07Z</time>
      </trkpt>
      <trkpt lat="42.83093" lon="0.56741">
        <ele>1679.686</ele>
        <time>2021-03-21T09:31:09Z</time>
      </trkpt>
      <trkpt lat="42.83092" lon="0.56743">
        <ele>1679.79</ele>
        <time>2021-03-21T09:31:11Z</time>
      </trkpt>
      <trkpt lat="42.83091" lon="0.56745">
        <ele>1679.731</ele>
        <time>2021-03-21T09:31:13Z</time>
      </trkpt>
      <trkpt lat="42.8309" lon="0.56747">
        <ele>1679.774</ele>
        <time>2021-03-21T09:31:15Z</time>
      </trkpt>
      <trkpt lat="42.83089" lon="0.56748">
        <ele>1680.356</ele>
        <time>2021-03-21T09:31:17Z</time>
      </trkpt>
      <trkpt lat="42.83088" lon="0.5675">
        <ele>1680.523</ele>
        <time>2021-03-21T09:31:19Z</time>
      </trkpt>
      <trkpt lat="42.83087" lon="0.56752">
        <ele>1680.68</ele>
        <time>2021-03-21T09:31:21Z</time>
      </trkpt>
      <trkpt lat="42.83086" lon="0.56753">
        <ele>1681.094</ele>
        <time>2021-03-21T09:31:23Z</time>
      </trkpt>
      <trkpt lat="42.83085" lon="0.56755">
        <ele>1681.8</ele>
        <time>2021-03-21T09:31:25Z</time>
      </trkpt>
      <trkpt lat="42.83084" lon="0.56756">
        <ele>1681.899</ele>
        <time>2021-03-21T09:31:27Z</time>
      </trkpt>
      <trkpt lat="42.83083" lon="0.56758">
        <ele>1682.102</ele>
        <time>2021-03-21T09:31:29Z</time>
      </trkpt>
      <trkpt lat="42.83082" lon="0.5676">
        <ele>1682.154</ele>
        <time>2021-03-21T09:31:31Z</time>
      </trkpt>
      <trkpt lat="42.83081" lon="0.56761">
        <ele>1682.308</ele>
        <time>2021-03-21T09:31:33Z</time>
      </trkpt>
      <trkpt lat="42.8308" lon="0.56763">
        <ele>1682.628</ele>
        <time>2021-03-21T09:31:35Z</time>
      </trkpt>
      <trkpt lat="42.83078" lon="0.56765">
        <ele>1683.11</ele>
        <time>2021-03-21T09:31:37Z</time>
      </trkpt>
      <trkpt lat="42.83077" lon="0.56766">
        <ele>1683.526</ele>
        <time>2021-03-21T09:31:39Z</time>
      </trkpt>
      <trkpt lat="42.83075" lon="0.56768">
        <ele>1683.881</ele>
        <time>2021-03-21T09:31:41Z</time>
      </trkpt>
      <trkpt lat="42.83074" lon="0.56769">
        <ele>1683.469</ele>
        <time>2021-03-21T09:31:43Z</time>
      </trkpt>
      <trkpt lat="42.83073" lon="0.56771">
        <ele>1684.234</ele>
        <time>2021-03-21T09:31:45Z</time>
      </trkpt>
      <trkpt lat="42.83072" lon="0.56773">
        <ele>1684.633</ele>
        <time>2021-03-21T09:31:47Z</time>
      </trkpt>
      <trkpt lat="42.8307" lon="0.56776">
        <ele>1685.036</ele>
        <time>2021-03-21T09:31:49Z</time>
      </trkpt>
      <trkpt lat="42.83069" lon="0.56777">
        <ele>1684.875</ele>
        <time>2021-03-21T09:31:51Z</time>
      </trkpt>
      <trkpt lat="42.83069" lon="0.56779">
        <ele>1684.928</ele>
        <time>2021-03-21T09:31:53Z</time>
      </trkpt>
      <trkpt lat="42.83068" lon="0.56781">
        <ele>1685.202</ele>
        <time>2021-03-21T09:31:55Z</time>
      </trkpt>
      <trkpt lat="42.83067" lon="0.56783">
        <ele>1684.855</ele>
        <time>2021-03-21T09:31:57Z</time>
      </trkpt>
      <trkpt lat="42.83066" lon="0.56784">
        <ele>1684.523</ele>
        <time>2021-03-21T09:31:59Z</time>
      </trkpt>
      <trkpt lat="42.83064" lon="0.56786">
        <ele>1685.031</ele>
        <time>2021-03-21T09:32:01Z</time>
      </trkpt>
      <trkpt lat="42.83063" lon="0.56787">
        <ele>1685.084</ele>
        <time>2021-03-21T09:32:03Z</time>
      </trkpt>
      <trkpt lat="42.83062" lon="0.56789">
        <ele>1684.847</ele>
        <time>2021-03-21T09:32:05Z</time>
      </trkpt>
      <trkpt lat="42.83061" lon="0.56791">
        <ele>1685.626</ele>
        <time>2021-03-21T09:32:07Z</time>
      </trkpt>
      <trkpt lat="42.8306" lon="0.56793">
        <ele>1685.868</ele>
        <time>2021-03-21T09:32:09Z</time>
      </trkpt>
      <trkpt lat="42.83059" lon="0.56794">
        <ele>1686.195</ele>
        <time>2021-03-21T09:32:11Z</time>
      </trkpt>
      <trkpt lat="42.83057" lon="0.56795">
        <ele>1686.603</ele>
        <time>2021-03-21T09:32:13Z</time>
      </trkpt>
      <trkpt lat="42.83056" lon="0.56797">
        <ele>1686.824</ele>
        <time>2021-03-21T09:32:15Z</time>
      </trkpt>
      <trkpt lat="42.83055" lon="0.56798">
        <ele>1686.905</ele>
        <time>2021-03-21T09:32:17Z</time>
      </trkpt>
      <trkpt lat="42.83054" lon="0.568">
        <ele>1687.715</ele>
        <time>2021-03-21T09:32:19Z</time>
      </trkpt>
      <trkpt lat="42.83052" lon="0.56801">
        <ele>1688.003</ele>
        <time>2021-03-21T09:32:21Z</time>
      </trkpt>
      <trkpt lat="42.83051" lon="0.56802">
        <ele>1688.093</ele>
        <time>2021-03-21T09:32:23Z</time>
      </trkpt>
      <trkpt lat="42.8305" lon="0.56804">
        <ele>1688.729</ele>
        <time>2021-03-21T09:32:25Z</time>
      </trkpt>
      <trkpt lat="42.83049" lon="0.56805">
        <ele>1689.184</ele>
        <time>2021-03-21T09:32:27Z</time>
      </trkpt>
      <trkpt lat="42.83048" lon="0.56807">
        <ele>1689.243</ele>
        <time>2021-03-21T09:32:29Z</time>
      </trkpt>
      <trkpt lat="42.83046" lon="0.56809">
        <ele>1689.549</ele>
        <time>2021-03-21T09:32:31Z</time>
      </trkpt>
      <trkpt lat="42.83045" lon="0.5681">
        <ele>1689.562</ele>
        <time>2021-03-21T09:32:33Z</time>
      </trkpt>
      <trkpt lat="42.83044" lon="0.56812">
        <ele>1689.919</ele>
        <time>2021-03-21T09:32:35Z</time>
      </trkpt>
      <trkpt lat="42.83042" lon="0.56813">
        <ele>1690.321</ele>
        <time>2021-03-21T09:32:37Z</time>
      </trkpt>
      <trkpt lat="42.83041" lon="0.56815">
        <ele>1690.688</ele>
        <time>2021-03-21T09:32:39Z</time>
      </trkpt>
      <trkpt lat="42.83039" lon="0.56816">
        <ele>1691.076</ele>
        <time>2021-03-21T09:32:41Z</time>
      </trkpt>
      <trkpt lat="42.83038" lon="0.56817">
        <ele>1691.371</ele>
        <time>2021-03-21T09:32:43Z</time>
      </trkpt>
      <trkpt lat="42.83036" lon="0.56819">
        <ele>1691.627</ele>
        <time>2021-03-21T09:32:45Z</time>
      </trkpt>
      <trkpt lat="42.83035" lon="0.5682">
        <ele>1691.802</ele>
        <time>2021-03-21T09:32:47Z</time>
      </trkpt>
      <trkpt lat="42.83034" lon="0.56819">
        <ele>1691.699</ele>
        <time>2021-03-21T09:32:50Z</time>
      </trkpt>
      <trkpt lat="42.83034" lon="0.56819">
        <ele>1691.699</ele>
        <time>2021-03-21T09:32:52Z</time>
      </trkpt>
      <trkpt lat="42.83034" lon="0.56819">
        <ele>1691.703</ele>
        <time>2021-03-21T09:32:54Z</time>
      </trkpt>
      <trkpt lat="42.83034" lon="0.56819">
        <ele>1691.741</ele>
        <time>2021-03-21T09:32:56Z</time>
      </trkpt>
      <trkpt lat="42.83033" lon="0.56821">
        <ele>1692.072</ele>
        <time>2021-03-21T09:32:58Z</time>
      </trkpt>
      <trkpt lat="42.83032" lon="0.56822">
        <ele>1692.596</ele>
        <time>2021-03-21T09:33:00Z</time>
      </trkpt>
      <trkpt lat="42.8303" lon="0.56824">
        <ele>1692.898</ele>
        <time>2021-03-21T09:33:02Z</time>
      </trkpt>
      <trkpt lat="42.83029" lon="0.56825">
        <ele>1692.77</ele>
        <time>2021-03-21T09:33:04Z</time>
      </trkpt>
      <trkpt lat="42.83028" lon="0.56826">
        <ele>1693.137</ele>
        <time>2021-03-21T09:33:06Z</time>
      </trkpt>
      <trkpt lat="42.83026" lon="0.56827">
        <ele>1693.668</ele>
        <time>2021-03-21T09:33:08Z</time>
      </trkpt>
      <trkpt lat="42.83025" lon="0.56829">
        <ele>1693.996</ele>
        <time>2021-03-21T09:33:10Z</time>
      </trkpt>
      <trkpt lat="42.83024" lon="0.5683">
        <ele>1694.393</ele>
        <time>2021-03-21T09:33:12Z</time>
      </trkpt>
      <trkpt lat="42.83023" lon="0.56831">
        <ele>1694.725</ele>
        <time>2021-03-21T09:33:14Z</time>
      </trkpt>
      <trkpt lat="42.83021" lon="0.56833">
        <ele>1694.942</ele>
        <time>2021-03-21T09:33:16Z</time>
      </trkpt>
      <trkpt lat="42.8302" lon="0.56834">
        <ele>1695.209</ele>
        <time>2021-03-21T09:33:18Z</time>
      </trkpt>
      <trkpt lat="42.83018" lon="0.56836">
        <ele>1695.414</ele>
        <time>2021-03-21T09:33:20Z</time>
      </trkpt>
      <trkpt lat="42.83017" lon="0.56837">
        <ele>1695.508</ele>
        <time>2021-03-21T09:33:22Z</time>
      </trkpt>
      <trkpt lat="42.83015" lon="0.56838">
        <ele>1695.951</ele>
        <time>2021-03-21T09:33:24Z</time>
      </trkpt>
      <trkpt lat="42.83014" lon="0.5684">
        <ele>1696.216</ele>
        <time>2021-03-21T09:33:26Z</time>
      </trkpt>
      <trkpt lat="42.83012" lon="0.56841">
        <ele>1696.036</ele>
        <time>2021-03-21T09:33:28Z</time>
      </trkpt>
      <trkpt lat="42.83011" lon="0.56843">
        <ele>1696.192</ele>
        <time>2021-03-21T09:33:30Z</time>
      </trkpt>
      <trkpt lat="42.8301" lon="0.56844">
        <ele>1696.232</ele>
        <time>2021-03-21T09:33:32Z</time>
      </trkpt>
      <trkpt lat="42.83009" lon="0.56845">
        <ele>1696.288</ele>
        <time>2021-03-21T09:33:34Z</time>
      </trkpt>
      <trkpt lat="42.83007" lon="0.56846">
        <ele>1696.035</ele>
        <time>2021-03-21T09:33:36Z</time>
      </trkpt>
      <trkpt lat="42.83006" lon="0.56848">
        <ele>1695.958</ele>
        <time>2021-03-21T09:33:38Z</time>
      </trkpt>
      <trkpt lat="42.83005" lon="0.56849">
        <ele>1696.001</ele>
        <time>2021-03-21T09:33:40Z</time>
      </trkpt>
      <trkpt lat="42.83004" lon="0.5685">
        <ele>1696.172</ele>
        <time>2021-03-21T09:33:42Z</time>
      </trkpt>
      <trkpt lat="42.83003" lon="0.56851">
        <ele>1696.279</ele>
        <time>2021-03-21T09:33:43Z</time>
      </trkpt>
      <trkpt lat="42.83002" lon="0.56854">
        <ele>1696.558</ele>
        <time>2021-03-21T09:33:46Z</time>
      </trkpt>
      <trkpt lat="42.83002" lon="0.56856">
        <ele>1696.704</ele>
        <time>2021-03-21T09:33:48Z</time>
      </trkpt>
      <trkpt lat="42.83002" lon="0.56858">
        <ele>1696.705</ele>
        <time>2021-03-21T09:33:50Z</time>
      </trkpt>
      <trkpt lat="42.83002" lon="0.5686">
        <ele>1696.702</ele>
        <time>2021-03-21T09:33:52Z</time>
      </trkpt>
      <trkpt lat="42.83002" lon="0.56862">
        <ele>1696.998</ele>
        <time>2021-03-21T09:33:54Z</time>
      </trkpt>
      <trkpt lat="42.83002" lon="0.56864">
        <ele>1697.193</ele>
        <time>2021-03-21T09:33:56Z</time>
      </trkpt>
      <trkpt lat="42.83003" lon="0.56866">
        <ele>1697.056</ele>
        <time>2021-03-21T09:33:58Z</time>
      </trkpt>
      <trkpt lat="42.83004" lon="0.56867">
        <ele>1697.217</ele>
        <time>2021-03-21T09:34:00Z</time>
      </trkpt>
      <trkpt lat="42.83005" lon="0.56869">
        <ele>1697.341</ele>
        <time>2021-03-21T09:34:02Z</time>
      </trkpt>
      <trkpt lat="42.83006" lon="0.56871">
        <ele>1697.551</ele>
        <time>2021-03-21T09:34:04Z</time>
      </trkpt>
      <trkpt lat="42.83008" lon="0.56873">
        <ele>1698.063</ele>
        <time>2021-03-21T09:34:06Z</time>
      </trkpt>
      <trkpt lat="42.83009" lon="0.56875">
        <ele>1698.701</ele>
        <time>2021-03-21T09:34:08Z</time>
      </trkpt>
      <trkpt lat="42.83011" lon="0.56875">
        <ele>1698.384</ele>
        <time>2021-03-21T09:34:10Z</time>
      </trkpt>
      <trkpt lat="42.83012" lon="0.56876">
        <ele>1698.955</ele>
        <time>2021-03-21T09:34:12Z</time>
      </trkpt>
      <trkpt lat="42.83013" lon="0.56877">
        <ele>1698.981</ele>
        <time>2021-03-21T09:34:14Z</time>
      </trkpt>
      <trkpt lat="42.83015" lon="0.56878">
        <ele>1698.978</ele>
        <time>2021-03-21T09:34:16Z</time>
      </trkpt>
      <trkpt lat="42.83016" lon="0.56879">
        <ele>1699.348</ele>
        <time>2021-03-21T09:34:18Z</time>
      </trkpt>
      <trkpt lat="42.83017" lon="0.5688">
        <ele>1699.577</ele>
        <time>2021-03-21T09:34:20Z</time>
      </trkpt>
      <trkpt lat="42.83018" lon="0.56881">
        <ele>1699.967</ele>
        <time>2021-03-21T09:34:22Z</time>
      </trkpt>
      <trkpt lat="42.83018" lon="0.56881">
        <ele>1700.02</ele>
        <time>2021-03-21T09:34:24Z</time>
      </trkpt>
      <trkpt lat="42.83021" lon="0.56884">
        <ele>1699.977</ele>
        <time>2021-03-21T09:34:27Z</time>
      </trkpt>
      <trkpt lat="42.83022" lon="0.56886">
        <ele>1700.599</ele>
        <time>2021-03-21T09:34:29Z</time>
      </trkpt>
      <trkpt lat="42.83023" lon="0.56887">
        <ele>1700.495</ele>
        <time>2021-03-21T09:34:31Z</time>
      </trkpt>
      <trkpt lat="42.83025" lon="0.56888">
        <ele>1700.45</ele>
        <time>2021-03-21T09:34:33Z</time>
      </trkpt>
      <trkpt lat="42.83027" lon="0.56889">
        <ele>1700.188</ele>
        <time>2021-03-21T09:34:35Z</time>
      </trkpt>
      <trkpt lat="42.83027" lon="0.5689">
        <ele>1700.001</ele>
        <time>2021-03-21T09:34:37Z</time>
      </trkpt>
      <trkpt lat="42.83028" lon="0.56892">
        <ele>1700.444</ele>
        <time>2021-03-21T09:34:39Z</time>
      </trkpt>
      <trkpt lat="42.83027" lon="0.56892">
        <ele>1699.99</ele>
        <time>2021-03-21T09:34:41Z</time>
      </trkpt>
      <trkpt lat="42.83027" lon="0.56892">
        <ele>1700.044</ele>
        <time>2021-03-21T09:34:43Z</time>
      </trkpt>
      <trkpt lat="42.83027" lon="0.56892">
        <ele>1700.038</ele>
        <time>2021-03-21T09:34:45Z</time>
      </trkpt>
      <trkpt lat="42.83027" lon="0.56892">
        <ele>1700.04</ele>
        <time>2021-03-21T09:34:47Z</time>
      </trkpt>
      <trkpt lat="42.83028" lon="0.56892">
        <ele>1700.369</ele>
        <time>2021-03-21T09:34:49Z</time>
      </trkpt>
      <trkpt lat="42.8303" lon="0.56893">
        <ele>1700.526</ele>
        <time>2021-03-21T09:34:51Z</time>
      </trkpt>
      <trkpt lat="42.83032" lon="0.56893">
        <ele>1700.423</ele>
        <time>2021-03-21T09:34:53Z</time>
      </trkpt>
      <trkpt lat="42.83034" lon="0.56895">
        <ele>1700.434</ele>
        <time>2021-03-21T09:34:55Z</time>
      </trkpt>
      <trkpt lat="42.83036" lon="0.56897">
        <ele>1699.837</ele>
        <time>2021-03-21T09:34:57Z</time>
      </trkpt>
      <trkpt lat="42.83038" lon="0.56899">
        <ele>1700.084</ele>
        <time>2021-03-21T09:34:59Z</time>
      </trkpt>
      <trkpt lat="42.8304" lon="0.56901">
        <ele>1700.097</ele>
        <time>2021-03-21T09:35:01Z</time>
      </trkpt>
      <trkpt lat="42.83042" lon="0.56903">
        <ele>1700.618</ele>
        <time>2021-03-21T09:35:03Z</time>
      </trkpt>
      <trkpt lat="42.83045" lon="0.56905">
        <ele>1701.327</ele>
        <time>2021-03-21T09:35:05Z</time>
      </trkpt>
      <trkpt lat="42.83045" lon="0.56904">
        <ele>1701.527</ele>
        <time>2021-03-21T09:35:07Z</time>
      </trkpt>
      <trkpt lat="42.83045" lon="0.56904">
        <ele>1701.524</ele>
        <time>2021-03-21T09:35:09Z</time>
      </trkpt>
      <trkpt lat="42.83045" lon="0.56904">
        <ele>1701.523</ele>
        <time>2021-03-21T09:35:11Z</time>
      </trkpt>
      <trkpt lat="42.83045" lon="0.56904">
        <ele>1701.522</ele>
        <time>2021-03-21T09:35:13Z</time>
      </trkpt>
      <trkpt lat="42.83045" lon="0.56904">
        <ele>1701.523</ele>
        <time>2021-03-21T09:35:15Z</time>
      </trkpt>
      <trkpt lat="42.83045" lon="0.56904">
        <ele>1701.518</ele>
        <time>2021-03-21T09:35:17Z</time>
      </trkpt>
      <trkpt lat="42.83045" lon="0.56905">
        <ele>1701.336</ele>
        <time>2021-03-21T09:35:19Z</time>
      </trkpt>
      <trkpt lat="42.83046" lon="0.56907">
        <ele>1701.429</ele>
        <time>2021-03-21T09:35:21Z</time>
      </trkpt>
      <trkpt lat="42.83047" lon="0.5691">
        <ele>1701.506</ele>
        <time>2021-03-21T09:35:23Z</time>
      </trkpt>
      <trkpt lat="42.83048" lon="0.56913">
        <ele>1701.232</ele>
        <time>2021-03-21T09:35:25Z</time>
      </trkpt>
      <trkpt lat="42.83049" lon="0.56915">
        <ele>1701.474</ele>
        <time>2021-03-21T09:35:27Z</time>
      </trkpt>
      <trkpt lat="42.83049" lon="0.56917">
        <ele>1700.924</ele>
        <time>2021-03-21T09:35:29Z</time>
      </trkpt>
      <trkpt lat="42.8305" lon="0.5692">
        <ele>1700.26</ele>
        <time>2021-03-21T09:35:31Z</time>
      </trkpt>
      <trkpt lat="42.83051" lon="0.56922">
        <ele>1699.968</ele>
        <time>2021-03-21T09:35:33Z</time>
      </trkpt>
      <trkpt lat="42.83051" lon="0.56925">
        <ele>1700.33</ele>
        <time>2021-03-21T09:35:35Z</time>
      </trkpt>
      <trkpt lat="42.83052" lon="0.56928">
        <ele>1700.185</ele>
        <time>2021-03-21T09:35:37Z</time>
      </trkpt>
      <trkpt lat="42.83052" lon="0.5693">
        <ele>1700.261</ele>
        <time>2021-03-21T09:35:39Z</time>
      </trkpt>
      <trkpt lat="42.83052" lon="0.56933">
        <ele>1700.885</ele>
        <time>2021-03-21T09:35:41Z</time>
      </trkpt>
      <trkpt lat="42.83053" lon="0.56936">
        <ele>1700.763</ele>
        <time>2021-03-21T09:35:43Z</time>
      </trkpt>
      <trkpt lat="42.83053" lon="0.56939">
        <ele>1700.659</ele>
        <time>2021-03-21T09:35:45Z</time>
      </trkpt>
      <trkpt lat="42.83053" lon="0.56942">
        <ele>1700.601</ele>
        <time>2021-03-21T09:35:47Z</time>
      </trkpt>
      <trkpt lat="42.83053" lon="0.56946">
        <ele>1700.534</ele>
        <time>2021-03-21T09:35:49Z</time>
      </trkpt>
      <trkpt lat="42.83052" lon="0.56949">
        <ele>1700.537</ele>
        <time>2021-03-21T09:35:51Z</time>
      </trkpt>
      <trkpt lat="42.83051" lon="0.56952">
        <ele>1700.32</ele>
        <time>2021-03-21T09:35:53Z</time>
      </trkpt>
      <trkpt lat="42.8305" lon="0.56955">
        <ele>1700.553</ele>
        <time>2021-03-21T09:35:55Z</time>
      </trkpt>
      <trkpt lat="42.83049" lon="0.56958">
        <ele>1700.617</ele>
        <time>2021-03-21T09:35:57Z</time>
      </trkpt>
      <trkpt lat="42.83048" lon="0.56961">
        <ele>1700.187</ele>
        <time>2021-03-21T09:35:59Z</time>
      </trkpt>
      <trkpt lat="42.83047" lon="0.56964">
        <ele>1700.306</ele>
        <time>2021-03-21T09:36:01Z</time>
      </trkpt>
      <trkpt lat="42.83046" lon="0.56967">
        <ele>1700.145</ele>
        <time>2021-03-21T09:36:03Z</time>
      </trkpt>
      <trkpt lat="42.83045" lon="0.5697">
        <ele>1699.954</ele>
        <time>2021-03-21T09:36:05Z</time>
      </trkpt>
      <trkpt lat="42.83044" lon="0.56973">
        <ele>1699.701</ele>
        <time>2021-03-21T09:36:07Z</time>
      </trkpt>
      <trkpt lat="42.83042" lon="0.56975">
        <ele>1699.681</ele>
        <time>2021-03-21T09:36:09Z</time>
      </trkpt>
      <trkpt lat="42.83041" lon="0.56978">
        <ele>1699.356</ele>
        <time>2021-03-21T09:36:11Z</time>
      </trkpt>
      <trkpt lat="42.83039" lon="0.56981">
        <ele>1700.076</ele>
        <time>2021-03-21T09:36:13Z</time>
      </trkpt>
      <trkpt lat="42.83038" lon="0.56984">
        <ele>1700.26</ele>
        <time>2021-03-21T09:36:15Z</time>
      </trkpt>
      <trkpt lat="42.83036" lon="0.56986">
        <ele>1700.163</ele>
        <time>2021-03-21T09:36:17Z</time>
      </trkpt>
      <trkpt lat="42.83035" lon="0.56989">
        <ele>1700.357</ele>
        <time>2021-03-21T09:36:19Z</time>
      </trkpt>
      <trkpt lat="42.83033" lon="0.56991">
        <ele>1700.618</ele>
        <time>2021-03-21T09:36:21Z</time>
      </trkpt>
      <trkpt lat="42.83032" lon="0.56994">
        <ele>1701.184</ele>
        <time>2021-03-21T09:36:23Z</time>
      </trkpt>
      <trkpt lat="42.8303" lon="0.56996">
        <ele>1701.054</ele>
        <time>2021-03-21T09:36:25Z</time>
      </trkpt>
      <trkpt lat="42.83029" lon="0.56999">
        <ele>1701.502</ele>
        <time>2021-03-21T09:36:27Z</time>
      </trkpt>
      <trkpt lat="42.83027" lon="0.57001">
        <ele>1701.597</ele>
        <time>2021-03-21T09:36:29Z</time>
      </trkpt>
      <trkpt lat="42.83026" lon="0.57004">
        <ele>1701.535</ele>
        <time>2021-03-21T09:36:31Z</time>
      </trkpt>
      <trkpt lat="42.83024" lon="0.57006">
        <ele>1701.702</ele>
        <time>2021-03-21T09:36:33Z</time>
      </trkpt>
      <trkpt lat="42.83023" lon="0.57008">
        <ele>1702.083</ele>
        <time>2021-03-21T09:36:35Z</time>
      </trkpt>
      <trkpt lat="42.83021" lon="0.5701">
        <ele>1702.158</ele>
        <time>2021-03-21T09:36:37Z</time>
      </trkpt>
      <trkpt lat="42.83019" lon="0.57012">
        <ele>1702.545</ele>
        <time>2021-03-21T09:36:39Z</time>
      </trkpt>
      <trkpt lat="42.83018" lon="0.57014">
        <ele>1702.907</ele>
        <time>2021-03-21T09:36:41Z</time>
      </trkpt>
      <trkpt lat="42.83017" lon="0.57016">
        <ele>1702.829</ele>
        <time>2021-03-21T09:36:43Z</time>
      </trkpt>
      <trkpt lat="42.83015" lon="0.57019">
        <ele>1702.936</ele>
        <time>2021-03-21T09:36:45Z</time>
      </trkpt>
      <trkpt lat="42.83014" lon="0.57021">
        <ele>1702.766</ele>
        <time>2021-03-21T09:36:47Z</time>
      </trkpt>
      <trkpt lat="42.83012" lon="0.57024">
        <ele>1702.657</ele>
        <time>2021-03-21T09:36:49Z</time>
      </trkpt>
      <trkpt lat="42.83011" lon="0.57026">
        <ele>1702.941</ele>
        <time>2021-03-21T09:36:51Z</time>
      </trkpt>
      <trkpt lat="42.83009" lon="0.57029">
        <ele>1702.76</ele>
        <time>2021-03-21T09:36:53Z</time>
      </trkpt>
      <trkpt lat="42.83008" lon="0.57031">
        <ele>1703.361</ele>
        <time>2021-03-21T09:36:55Z</time>
      </trkpt>
      <trkpt lat="42.83006" lon="0.57034">
        <ele>1703.319</ele>
        <time>2021-03-21T09:36:57Z</time>
      </trkpt>
      <trkpt lat="42.83005" lon="0.57036">
        <ele>1703.76</ele>
        <time>2021-03-21T09:36:59Z</time>
      </trkpt>
      <trkpt lat="42.83004" lon="0.57039">
        <ele>1704.564</ele>
        <time>2021-03-21T09:37:01Z</time>
      </trkpt>
      <trkpt lat="42.83003" lon="0.57042">
        <ele>1704.878</ele>
        <time>2021-03-21T09:37:03Z</time>
      </trkpt>
      <trkpt lat="42.83002" lon="0.57044">
        <ele>1705.29</ele>
        <time>2021-03-21T09:37:05Z</time>
      </trkpt>
      <trkpt lat="42.83001" lon="0.57047">
        <ele>1705.572</ele>
        <time>2021-03-21T09:37:07Z</time>
      </trkpt>
      <trkpt lat="42.83" lon="0.57049">
        <ele>1705.944</ele>
        <time>2021-03-21T09:37:09Z</time>
      </trkpt>
      <trkpt lat="42.82999" lon="0.57052">
        <ele>1705.891</ele>
        <time>2021-03-21T09:37:11Z</time>
      </trkpt>
      <trkpt lat="42.82998" lon="0.57054">
        <ele>1705.578</ele>
        <time>2021-03-21T09:37:13Z</time>
      </trkpt>
      <trkpt lat="42.82997" lon="0.57057">
        <ele>1706.25</ele>
        <time>2021-03-21T09:37:15Z</time>
      </trkpt>
      <trkpt lat="42.82996" lon="0.5706">
        <ele>1706.834</ele>
        <time>2021-03-21T09:37:17Z</time>
      </trkpt>
      <trkpt lat="42.82995" lon="0.57063">
        <ele>1707.123</ele>
        <time>2021-03-21T09:37:19Z</time>
      </trkpt>
      <trkpt lat="42.82994" lon="0.57065">
        <ele>1707.392</ele>
        <time>2021-03-21T09:37:21Z</time>
      </trkpt>
      <trkpt lat="42.82993" lon="0.57068">
        <ele>1707.465</ele>
        <time>2021-03-21T09:37:23Z</time>
      </trkpt>
      <trkpt lat="42.82992" lon="0.5707">
        <ele>1707.428</ele>
        <time>2021-03-21T09:37:25Z</time>
      </trkpt>
      <trkpt lat="42.82991" lon="0.57073">
        <ele>1707.421</ele>
        <time>2021-03-21T09:37:27Z</time>
      </trkpt>
      <trkpt lat="42.8299" lon="0.57075">
        <ele>1707.739</ele>
        <time>2021-03-21T09:37:29Z</time>
      </trkpt>
      <trkpt lat="42.82989" lon="0.57077">
        <ele>1707.446</ele>
        <time>2021-03-21T09:37:31Z</time>
      </trkpt>
      <trkpt lat="42.82988" lon="0.57079">
        <ele>1707.467</ele>
        <time>2021-03-21T09:37:33Z</time>
      </trkpt>
      <trkpt lat="42.82987" lon="0.57081">
        <ele>1707.496</ele>
        <time>2021-03-21T09:37:35Z</time>
      </trkpt>
      <trkpt lat="42.82985" lon="0.57083">
        <ele>1707.748</ele>
        <time>2021-03-21T09:37:37Z</time>
      </trkpt>
      <trkpt lat="42.82984" lon="0.57085">
        <ele>1707.978</ele>
        <time>2021-03-21T09:37:39Z</time>
      </trkpt>
      <trkpt lat="42.82983" lon="0.57088">
        <ele>1708.538</ele>
        <time>2021-03-21T09:37:41Z</time>
      </trkpt>
      <trkpt lat="42.82982" lon="0.5709">
        <ele>1708.566</ele>
        <time>2021-03-21T09:37:43Z</time>
      </trkpt>
      <trkpt lat="42.82981" lon="0.57092">
        <ele>1708.831</ele>
        <time>2021-03-21T09:37:45Z</time>
      </trkpt>
      <trkpt lat="42.8298" lon="0.57095">
        <ele>1708.862</ele>
        <time>2021-03-21T09:37:47Z</time>
      </trkpt>
      <trkpt lat="42.82979" lon="0.57097">
        <ele>1708.975</ele>
        <time>2021-03-21T09:37:49Z</time>
      </trkpt>
      <trkpt lat="42.82978" lon="0.571">
        <ele>1708.911</ele>
        <time>2021-03-21T09:37:51Z</time>
      </trkpt>
      <trkpt lat="42.82977" lon="0.57102">
        <ele>1709.144</ele>
        <time>2021-03-21T09:37:53Z</time>
      </trkpt>
      <trkpt lat="42.82976" lon="0.57104">
        <ele>1709.472</ele>
        <time>2021-03-21T09:37:55Z</time>
      </trkpt>
      <trkpt lat="42.82975" lon="0.57107">
        <ele>1709.755</ele>
        <time>2021-03-21T09:37:57Z</time>
      </trkpt>
      <trkpt lat="42.82974" lon="0.57109">
        <ele>1710.133</ele>
        <time>2021-03-21T09:37:59Z</time>
      </trkpt>
      <trkpt lat="42.82973" lon="0.57111">
        <ele>1710.896</ele>
        <time>2021-03-21T09:38:01Z</time>
      </trkpt>
      <trkpt lat="42.82971" lon="0.57114">
        <ele>1711.027</ele>
        <time>2021-03-21T09:38:03Z</time>
      </trkpt>
      <trkpt lat="42.8297" lon="0.57117">
        <ele>1711.651</ele>
        <time>2021-03-21T09:38:05Z</time>
      </trkpt>
      <trkpt lat="42.82969" lon="0.57119">
        <ele>1712.191</ele>
        <time>2021-03-21T09:38:07Z</time>
      </trkpt>
      <trkpt lat="42.82968" lon="0.57121">
        <ele>1712.227</ele>
        <time>2021-03-21T09:38:09Z</time>
      </trkpt>
      <trkpt lat="42.82967" lon="0.57124">
        <ele>1712.56</ele>
        <time>2021-03-21T09:38:11Z</time>
      </trkpt>
      <trkpt lat="42.82966" lon="0.57126">
        <ele>1712.714</ele>
        <time>2021-03-21T09:38:13Z</time>
      </trkpt>
      <trkpt lat="42.82965" lon="0.57128">
        <ele>1712.312</ele>
        <time>2021-03-21T09:38:15Z</time>
      </trkpt>
      <trkpt lat="42.82964" lon="0.57131">
        <ele>1712.833</ele>
        <time>2021-03-21T09:38:17Z</time>
      </trkpt>
      <trkpt lat="42.82963" lon="0.57134">
        <ele>1712.84</ele>
        <time>2021-03-21T09:38:19Z</time>
      </trkpt>
      <trkpt lat="42.82962" lon="0.57136">
        <ele>1712.803</ele>
        <time>2021-03-21T09:38:21Z</time>
      </trkpt>
      <trkpt lat="42.82961" lon="0.57138">
        <ele>1712.638</ele>
        <time>2021-03-21T09:38:23Z</time>
      </trkpt>
      <trkpt lat="42.8296" lon="0.57141">
        <ele>1712.937</ele>
        <time>2021-03-21T09:38:25Z</time>
      </trkpt>
      <trkpt lat="42.82959" lon="0.57143">
        <ele>1713.259</ele>
        <time>2021-03-21T09:38:27Z</time>
      </trkpt>
      <trkpt lat="42.82958" lon="0.57146">
        <ele>1713.373</ele>
        <time>2021-03-21T09:38:29Z</time>
      </trkpt>
      <trkpt lat="42.82957" lon="0.57148">
        <ele>1713.838</ele>
        <time>2021-03-21T09:38:31Z</time>
      </trkpt>
      <trkpt lat="42.82957" lon="0.5715">
        <ele>1714.124</ele>
        <time>2021-03-21T09:38:33Z</time>
      </trkpt>
      <trkpt lat="42.82956" lon="0.57153">
        <ele>1714.481</ele>
        <time>2021-03-21T09:38:35Z</time>
      </trkpt>
      <trkpt lat="42.82955" lon="0.57155">
        <ele>1714.387</ele>
        <time>2021-03-21T09:38:37Z</time>
      </trkpt>
      <trkpt lat="42.82955" lon="0.57158">
        <ele>1714.181</ele>
        <time>2021-03-21T09:38:39Z</time>
      </trkpt>
      <trkpt lat="42.82954" lon="0.5716">
        <ele>1714.312</ele>
        <time>2021-03-21T09:38:41Z</time>
      </trkpt>
      <trkpt lat="42.82953" lon="0.57162">
        <ele>1714.44</ele>
        <time>2021-03-21T09:38:43Z</time>
      </trkpt>
      <trkpt lat="42.82952" lon="0.57165">
        <ele>1714.795</ele>
        <time>2021-03-21T09:38:45Z</time>
      </trkpt>
      <trkpt lat="42.82952" lon="0.57167">
        <ele>1715.081</ele>
        <time>2021-03-21T09:38:47Z</time>
      </trkpt>
      <trkpt lat="42.82951" lon="0.5717">
        <ele>1715.629</ele>
        <time>2021-03-21T09:38:49Z</time>
      </trkpt>
      <trkpt lat="42.8295" lon="0.57173">
        <ele>1715.828</ele>
        <time>2021-03-21T09:38:51Z</time>
      </trkpt>
      <trkpt lat="42.8295" lon="0.57175">
        <ele>1716.107</ele>
        <time>2021-03-21T09:38:53Z</time>
      </trkpt>
      <trkpt lat="42.82949" lon="0.57178">
        <ele>1716.366</ele>
        <time>2021-03-21T09:38:55Z</time>
      </trkpt>
      <trkpt lat="42.82948" lon="0.5718">
        <ele>1716.452</ele>
        <time>2021-03-21T09:38:57Z</time>
      </trkpt>
      <trkpt lat="42.82948" lon="0.57183">
        <ele>1716.654</ele>
        <time>2021-03-21T09:38:59Z</time>
      </trkpt>
      <trkpt lat="42.82947" lon="0.57185">
        <ele>1717.245</ele>
        <time>2021-03-21T09:39:01Z</time>
      </trkpt>
      <trkpt lat="42.82946" lon="0.57188">
        <ele>1717.319</ele>
        <time>2021-03-21T09:39:03Z</time>
      </trkpt>
      <trkpt lat="42.82946" lon="0.5719">
        <ele>1717.88</ele>
        <time>2021-03-21T09:39:05Z</time>
      </trkpt>
      <trkpt lat="42.82945" lon="0.57192">
        <ele>1718.316</ele>
        <time>2021-03-21T09:39:07Z</time>
      </trkpt>
      <trkpt lat="42.82944" lon="0.57195">
        <ele>1718.639</ele>
        <time>2021-03-21T09:39:09Z</time>
      </trkpt>
      <trkpt lat="42.82944" lon="0.57197">
        <ele>1718.973</ele>
        <time>2021-03-21T09:39:11Z</time>
      </trkpt>
      <trkpt lat="42.82943" lon="0.572">
        <ele>1719.503</ele>
        <time>2021-03-21T09:39:13Z</time>
      </trkpt>
      <trkpt lat="42.82942" lon="0.57202">
        <ele>1719.481</ele>
        <time>2021-03-21T09:39:15Z</time>
      </trkpt>
      <trkpt lat="42.82942" lon="0.57205">
        <ele>1720.125</ele>
        <time>2021-03-21T09:39:17Z</time>
      </trkpt>
      <trkpt lat="42.82941" lon="0.57207">
        <ele>1720.928</ele>
        <time>2021-03-21T09:39:19Z</time>
      </trkpt>
      <trkpt lat="42.8294" lon="0.5721">
        <ele>1721.69</ele>
        <time>2021-03-21T09:39:21Z</time>
      </trkpt>
      <trkpt lat="42.8294" lon="0.57213">
        <ele>1721.54</ele>
        <time>2021-03-21T09:39:23Z</time>
      </trkpt>
      <trkpt lat="42.82939" lon="0.57215">
        <ele>1721.717</ele>
        <time>2021-03-21T09:39:25Z</time>
      </trkpt>
      <trkpt lat="42.82939" lon="0.57217">
        <ele>1722.083</ele>
        <time>2021-03-21T09:39:27Z</time>
      </trkpt>
      <trkpt lat="42.82938" lon="0.5722">
        <ele>1722.681</ele>
        <time>2021-03-21T09:39:29Z</time>
      </trkpt>
      <trkpt lat="42.82937" lon="0.57222">
        <ele>1722.948</ele>
        <time>2021-03-21T09:39:31Z</time>
      </trkpt>
      <trkpt lat="42.82937" lon="0.57225">
        <ele>1723.247</ele>
        <time>2021-03-21T09:39:33Z</time>
      </trkpt>
      <trkpt lat="42.82936" lon="0.57227">
        <ele>1723.097</ele>
        <time>2021-03-21T09:39:35Z</time>
      </trkpt>
      <trkpt lat="42.82936" lon="0.5723">
        <ele>1722.993</ele>
        <time>2021-03-21T09:39:37Z</time>
      </trkpt>
      <trkpt lat="42.82935" lon="0.57232">
        <ele>1723.328</ele>
        <time>2021-03-21T09:39:39Z</time>
      </trkpt>
      <trkpt lat="42.82935" lon="0.57235">
        <ele>1724.367</ele>
        <time>2021-03-21T09:39:41Z</time>
      </trkpt>
      <trkpt lat="42.82935" lon="0.57237">
        <ele>1724.985</ele>
        <time>2021-03-21T09:39:43Z</time>
      </trkpt>
      <trkpt lat="42.82934" lon="0.5724">
        <ele>1725.641</ele>
        <time>2021-03-21T09:39:45Z</time>
      </trkpt>
      <trkpt lat="42.82934" lon="0.57243">
        <ele>1725.301</ele>
        <time>2021-03-21T09:39:47Z</time>
      </trkpt>
      <trkpt lat="42.82933" lon="0.57245">
        <ele>1725.438</ele>
        <time>2021-03-21T09:39:49Z</time>
      </trkpt>
      <trkpt lat="42.82933" lon="0.57248">
        <ele>1725.571</ele>
        <time>2021-03-21T09:39:51Z</time>
      </trkpt>
      <trkpt lat="42.82932" lon="0.57252">
        <ele>1725.719</ele>
        <time>2021-03-21T09:39:54Z</time>
      </trkpt>
      <trkpt lat="42.82931" lon="0.57256">
        <ele>1726.318</ele>
        <time>2021-03-21T09:39:57Z</time>
      </trkpt>
      <trkpt lat="42.82931" lon="0.57259">
        <ele>1727.168</ele>
        <time>2021-03-21T09:39:59Z</time>
      </trkpt>
      <trkpt lat="42.8293" lon="0.57262">
        <ele>1727.125</ele>
        <time>2021-03-21T09:40:01Z</time>
      </trkpt>
      <trkpt lat="42.8293" lon="0.57264">
        <ele>1727.601</ele>
        <time>2021-03-21T09:40:03Z</time>
      </trkpt>
      <trkpt lat="42.82929" lon="0.57267">
        <ele>1727.673</ele>
        <time>2021-03-21T09:40:05Z</time>
      </trkpt>
      <trkpt lat="42.82929" lon="0.57269">
        <ele>1728.504</ele>
        <time>2021-03-21T09:40:07Z</time>
      </trkpt>
      <trkpt lat="42.82928" lon="0.57272">
        <ele>1728.662</ele>
        <time>2021-03-21T09:40:09Z</time>
      </trkpt>
      <trkpt lat="42.82927" lon="0.57276">
        <ele>1728.873</ele>
        <time>2021-03-21T09:40:12Z</time>
      </trkpt>
      <trkpt lat="42.82926" lon="0.57279">
        <ele>1729.269</ele>
        <time>2021-03-21T09:40:14Z</time>
      </trkpt>
      <trkpt lat="42.82926" lon="0.57281">
        <ele>1729.041</ele>
        <time>2021-03-21T09:40:16Z</time>
      </trkpt>
      <trkpt lat="42.82925" lon="0.57284">
        <ele>1728.475</ele>
        <time>2021-03-21T09:40:18Z</time>
      </trkpt>
      <trkpt lat="42.82925" lon="0.57287">
        <ele>1729.507</ele>
        <time>2021-03-21T09:40:20Z</time>
      </trkpt>
      <trkpt lat="42.82924" lon="0.5729">
        <ele>1729.639</ele>
        <time>2021-03-21T09:40:22Z</time>
      </trkpt>
      <trkpt lat="42.82923" lon="0.57293">
        <ele>1729.524</ele>
        <time>2021-03-21T09:40:24Z</time>
      </trkpt>
      <trkpt lat="42.82923" lon="0.57296">
        <ele>1729.769</ele>
        <time>2021-03-21T09:40:26Z</time>
      </trkpt>
      <trkpt lat="42.82922" lon="0.57298">
        <ele>1729.799</ele>
        <time>2021-03-21T09:40:28Z</time>
      </trkpt>
      <trkpt lat="42.82922" lon="0.57301">
        <ele>1729.58</ele>
        <time>2021-03-21T09:40:30Z</time>
      </trkpt>
      <trkpt lat="42.82922" lon="0.57303">
        <ele>1730.213</ele>
        <time>2021-03-21T09:40:32Z</time>
      </trkpt>
      <trkpt lat="42.82921" lon="0.57306">
        <ele>1730.64</ele>
        <time>2021-03-21T09:40:34Z</time>
      </trkpt>
      <trkpt lat="42.82921" lon="0.57308">
        <ele>1731.042</ele>
        <time>2021-03-21T09:40:36Z</time>
      </trkpt>
      <trkpt lat="42.82921" lon="0.57311">
        <ele>1731.262</ele>
        <time>2021-03-21T09:40:38Z</time>
      </trkpt>
      <trkpt lat="42.82921" lon="0.57314">
        <ele>1731.498</ele>
        <time>2021-03-21T09:40:40Z</time>
      </trkpt>
      <trkpt lat="42.8292" lon="0.57317">
        <ele>1731.583</ele>
        <time>2021-03-21T09:40:42Z</time>
      </trkpt>
      <trkpt lat="42.8292" lon="0.57319">
        <ele>1731.362</ele>
        <time>2021-03-21T09:40:44Z</time>
      </trkpt>
      <trkpt lat="42.8292" lon="0.57322">
        <ele>1731.328</ele>
        <time>2021-03-21T09:40:46Z</time>
      </trkpt>
      <trkpt lat="42.8292" lon="0.57324">
        <ele>1731.418</ele>
        <time>2021-03-21T09:40:48Z</time>
      </trkpt>
      <trkpt lat="42.82919" lon="0.57327">
        <ele>1731.278</ele>
        <time>2021-03-21T09:40:50Z</time>
      </trkpt>
      <trkpt lat="42.82918" lon="0.57329">
        <ele>1731.196</ele>
        <time>2021-03-21T09:40:52Z</time>
      </trkpt>
      <trkpt lat="42.82918" lon="0.57332">
        <ele>1731.92</ele>
        <time>2021-03-21T09:40:54Z</time>
      </trkpt>
      <trkpt lat="42.82918" lon="0.57334">
        <ele>1732.127</ele>
        <time>2021-03-21T09:40:56Z</time>
      </trkpt>
      <trkpt lat="42.82917" lon="0.57337">
        <ele>1732.458</ele>
        <time>2021-03-21T09:40:58Z</time>
      </trkpt>
      <trkpt lat="42.82915" lon="0.57334">
        <ele>1732.446</ele>
        <time>2021-03-21T09:41:00Z</time>
      </trkpt>
      <trkpt lat="42.82917" lon="0.57336">
        <ele>1732.232</ele>
        <time>2021-03-21T09:41:02Z</time>
      </trkpt>
      <trkpt lat="42.82917" lon="0.57336">
        <ele>1732.237</ele>
        <time>2021-03-21T09:41:04Z</time>
      </trkpt>
      <trkpt lat="42.82917" lon="0.57337">
        <ele>1732.412</ele>
        <time>2021-03-21T09:41:06Z</time>
      </trkpt>
      <trkpt lat="42.82917" lon="0.57337">
        <ele>1732.72</ele>
        <time>2021-03-21T09:41:08Z</time>
      </trkpt>
      <trkpt lat="42.82917" lon="0.57337">
        <ele>1732.732</ele>
        <time>2021-03-21T09:41:10Z</time>
      </trkpt>
      <trkpt lat="42.82917" lon="0.57337">
        <ele>1732.891</ele>
        <time>2021-03-21T09:41:12Z</time>
      </trkpt>
      <trkpt lat="42.82917" lon="0.57339">
        <ele>1732.978</ele>
        <time>2021-03-21T09:41:14Z</time>
      </trkpt>
      <trkpt lat="42.82917" lon="0.57343">
        <ele>1733.769</ele>
        <time>2021-03-21T09:41:16Z</time>
      </trkpt>
      <trkpt lat="42.82917" lon="0.57345">
        <ele>1733.48</ele>
        <time>2021-03-21T09:41:18Z</time>
      </trkpt>
      <trkpt lat="42.82918" lon="0.57348">
        <ele>1733.702</ele>
        <time>2021-03-21T09:41:20Z</time>
      </trkpt>
      <trkpt lat="42.82919" lon="0.5735">
        <ele>1734.131</ele>
        <time>2021-03-21T09:41:22Z</time>
      </trkpt>
      <trkpt lat="42.82919" lon="0.57352">
        <ele>1734.02</ele>
        <time>2021-03-21T09:41:24Z</time>
      </trkpt>
      <trkpt lat="42.8292" lon="0.57354">
        <ele>1734.754</ele>
        <time>2021-03-21T09:41:26Z</time>
      </trkpt>
      <trkpt lat="42.8292" lon="0.57356">
        <ele>1735.018</ele>
        <time>2021-03-21T09:41:28Z</time>
      </trkpt>
      <trkpt lat="42.82921" lon="0.57358">
        <ele>1735.267</ele>
        <time>2021-03-21T09:41:30Z</time>
      </trkpt>
      <trkpt lat="42.82922" lon="0.57359">
        <ele>1735.255</ele>
        <time>2021-03-21T09:41:32Z</time>
      </trkpt>
      <trkpt lat="42.82923" lon="0.5736">
        <ele>1735.621</ele>
        <time>2021-03-21T09:41:34Z</time>
      </trkpt>
      <trkpt lat="42.82924" lon="0.57361">
        <ele>1735.468</ele>
        <time>2021-03-21T09:41:36Z</time>
      </trkpt>
      <trkpt lat="42.82924" lon="0.57363">
        <ele>1735.187</ele>
        <time>2021-03-21T09:41:38Z</time>
      </trkpt>
      <trkpt lat="42.82924" lon="0.57365">
        <ele>1735.354</ele>
        <time>2021-03-21T09:41:40Z</time>
      </trkpt>
      <trkpt lat="42.82924" lon="0.57366">
        <ele>1735.532</ele>
        <time>2021-03-21T09:41:42Z</time>
      </trkpt>
      <trkpt lat="42.82923" lon="0.57368">
        <ele>1735.591</ele>
        <time>2021-03-21T09:41:44Z</time>
      </trkpt>
      <trkpt lat="42.82923" lon="0.5737">
        <ele>1735.532</ele>
        <time>2021-03-21T09:41:46Z</time>
      </trkpt>
      <trkpt lat="42.82923" lon="0.57372">
        <ele>1735.76</ele>
        <time>2021-03-21T09:41:48Z</time>
      </trkpt>
      <trkpt lat="42.82923" lon="0.57374">
        <ele>1735.407</ele>
        <time>2021-03-21T09:41:50Z</time>
      </trkpt>
      <trkpt lat="42.82923" lon="0.57375">
        <ele>1735.708</ele>
        <time>2021-03-21T09:41:52Z</time>
      </trkpt>
      <trkpt lat="42.82923" lon="0.57377">
        <ele>1735.808</ele>
        <time>2021-03-21T09:41:54Z</time>
      </trkpt>
      <trkpt lat="42.82924" lon="0.57377">
        <ele>1736.135</ele>
        <time>2021-03-21T09:41:56Z</time>
      </trkpt>
      <trkpt lat="42.82924" lon="0.57378">
        <ele>1736.06</ele>
        <time>2021-03-21T09:41:58Z</time>
      </trkpt>
      <trkpt lat="42.82924" lon="0.57378">
        <ele>1736.063</ele>
        <time>2021-03-21T09:42:00Z</time>
      </trkpt>
      <trkpt lat="42.82924" lon="0.57377">
        <ele>1735.604</ele>
        <time>2021-03-21T09:42:02Z</time>
      </trkpt>
      <trkpt lat="42.82925" lon="0.57376">
        <ele>1735.753</ele>
        <time>2021-03-21T09:42:04Z</time>
      </trkpt>
      <trkpt lat="42.82925" lon="0.57376">
        <ele>1735.804</ele>
        <time>2021-03-21T09:42:06Z</time>
      </trkpt>
      <trkpt lat="42.82926" lon="0.57376">
        <ele>1735.848</ele>
        <time>2021-03-21T09:42:08Z</time>
      </trkpt>
      <trkpt lat="42.82927" lon="0.57375">
        <ele>1735.953</ele>
        <time>2021-03-21T09:42:10Z</time>
      </trkpt>
      <trkpt lat="42.82927" lon="0.57374">
        <ele>1736.456</ele>
        <time>2021-03-21T09:42:12Z</time>
      </trkpt>
      <trkpt lat="42.82927" lon="0.57374">
        <ele>1736.453</ele>
        <time>2021-03-21T09:42:14Z</time>
      </trkpt>
      <trkpt lat="42.82928" lon="0.57374">
        <ele>1736.628</ele>
        <time>2021-03-21T09:42:16Z</time>
      </trkpt>
      <trkpt lat="42.82929" lon="0.57373">
        <ele>1736.992</ele>
        <time>2021-03-21T09:42:18Z</time>
      </trkpt>
      <trkpt lat="42.8293" lon="0.57372">
        <ele>1737.136</ele>
        <time>2021-03-21T09:42:20Z</time>
      </trkpt>
      <trkpt lat="42.82932" lon="0.57371">
        <ele>1737.374</ele>
        <time>2021-03-21T09:42:22Z</time>
      </trkpt>
      <trkpt lat="42.82933" lon="0.57369">
        <ele>1737.553</ele>
        <time>2021-03-21T09:42:24Z</time>
      </trkpt>
      <trkpt lat="42.82934" lon="0.57368">
        <ele>1737.97</ele>
        <time>2021-03-21T09:42:26Z</time>
      </trkpt>
      <trkpt lat="42.82935" lon="0.57367">
        <ele>1738.008</ele>
        <time>2021-03-21T09:42:28Z</time>
      </trkpt>
      <trkpt lat="42.82937" lon="0.57366">
        <ele>1738.487</ele>
        <time>2021-03-21T09:42:30Z</time>
      </trkpt>
      <trkpt lat="42.82938" lon="0.57366">
        <ele>1738.671</ele>
        <time>2021-03-21T09:42:32Z</time>
      </trkpt>
      <trkpt lat="42.82938" lon="0.57366">
        <ele>1738.894</ele>
        <time>2021-03-21T09:42:34Z</time>
      </trkpt>
      <trkpt lat="42.82939" lon="0.57366">
        <ele>1738.972</ele>
        <time>2021-03-21T09:42:36Z</time>
      </trkpt>
      <trkpt lat="42.82939" lon="0.57367">
        <ele>1739.189</ele>
        <time>2021-03-21T09:42:38Z</time>
      </trkpt>
      <trkpt lat="42.82939" lon="0.57367">
        <ele>1739.193</ele>
        <time>2021-03-21T09:42:40Z</time>
      </trkpt>
      <trkpt lat="42.82939" lon="0.57367">
        <ele>1739.199</ele>
        <time>2021-03-21T09:42:42Z</time>
      </trkpt>
      <trkpt lat="42.82939" lon="0.57367">
        <ele>1739.19</ele>
        <time>2021-03-21T09:42:44Z</time>
      </trkpt>
      <trkpt lat="42.82939" lon="0.57367">
        <ele>1739.19</ele>
        <time>2021-03-21T09:42:46Z</time>
      </trkpt>
      <trkpt lat="42.82939" lon="0.57367">
        <ele>1739.191</ele>
        <time>2021-03-21T09:42:48Z</time>
      </trkpt>
      <trkpt lat="42.82939" lon="0.57367">
        <ele>1739.161</ele>
        <time>2021-03-21T09:42:50Z</time>
      </trkpt>
      <trkpt lat="42.8294" lon="0.57369">
        <ele>1739.563</ele>
        <time>2021-03-21T09:42:52Z</time>
      </trkpt>
      <trkpt lat="42.82941" lon="0.5737">
        <ele>1739.557</ele>
        <time>2021-03-21T09:42:54Z</time>
      </trkpt>
      <trkpt lat="42.82941" lon="0.5737">
        <ele>1739.549</ele>
        <time>2021-03-21T09:42:56Z</time>
      </trkpt>
      <trkpt lat="42.82941" lon="0.5737">
        <ele>1739.536</ele>
        <time>2021-03-21T09:42:58Z</time>
      </trkpt>
      <trkpt lat="42.82941" lon="0.57369">
        <ele>1738.803</ele>
        <time>2021-03-21T09:43:00Z</time>
      </trkpt>
      <trkpt lat="42.82941" lon="0.57369">
        <ele>1738.861</ele>
        <time>2021-03-21T09:43:02Z</time>
      </trkpt>
      <trkpt lat="42.82941" lon="0.57369">
        <ele>1738.861</ele>
        <time>2021-03-21T09:43:04Z</time>
      </trkpt>
      <trkpt lat="42.82941" lon="0.57369">
        <ele>1738.859</ele>
        <time>2021-03-21T09:43:06Z</time>
      </trkpt>
      <trkpt lat="42.82941" lon="0.57369">
        <ele>1738.858</ele>
        <time>2021-03-21T09:43:08Z</time>
      </trkpt>
      <trkpt lat="42.82941" lon="0.57369">
        <ele>1738.868</ele>
        <time>2021-03-21T09:43:10Z</time>
      </trkpt>
      <trkpt lat="42.82941" lon="0.57369">
        <ele>1738.92</ele>
        <time>2021-03-21T09:43:12Z</time>
      </trkpt>
      <trkpt lat="42.82941" lon="0.57369">
        <ele>1738.916</ele>
        <time>2021-03-21T09:43:14Z</time>
      </trkpt>
      <trkpt lat="42.82941" lon="0.57368">
        <ele>1738.92</ele>
        <time>2021-03-21T09:43:16Z</time>
      </trkpt>
      <trkpt lat="42.82941" lon="0.57368">
        <ele>1738.918</ele>
        <time>2021-03-21T09:43:18Z</time>
      </trkpt>
      <trkpt lat="42.82941" lon="0.57368">
        <ele>1738.917</ele>
        <time>2021-03-21T09:43:20Z</time>
      </trkpt>
      <trkpt lat="42.82941" lon="0.57368">
        <ele>1738.917</ele>
        <time>2021-03-21T09:43:22Z</time>
      </trkpt>
      <trkpt lat="42.82941" lon="0.57368">
        <ele>1738.813</ele>
        <time>2021-03-21T09:43:24Z</time>
      </trkpt>
      <trkpt lat="42.8294" lon="0.57368">
        <ele>1738.809</ele>
        <time>2021-03-21T09:43:26Z</time>
      </trkpt>
      <trkpt lat="42.82941" lon="0.57368">
        <ele>1738.707</ele>
        <time>2021-03-21T09:43:28Z</time>
      </trkpt>
      <trkpt lat="42.82941" lon="0.57367">
        <ele>1739.539</ele>
        <time>2021-03-21T09:43:30Z</time>
      </trkpt>
      <trkpt lat="42.82942" lon="0.57366">
        <ele>1740.049</ele>
        <time>2021-03-21T09:43:32Z</time>
      </trkpt>
      <trkpt lat="42.82941" lon="0.57366">
        <ele>1740.041</ele>
        <time>2021-03-21T09:43:34Z</time>
      </trkpt>
      <trkpt lat="42.82941" lon="0.57366">
        <ele>1740.118</ele>
        <time>2021-03-21T09:43:36Z</time>
      </trkpt>
      <trkpt lat="42.82941" lon="0.57365">
        <ele>1740.252</ele>
        <time>2021-03-21T09:43:38Z</time>
      </trkpt>
      <trkpt lat="42.82941" lon="0.57365">
        <ele>1740.157</ele>
        <time>2021-03-21T09:43:40Z</time>
      </trkpt>
      <trkpt lat="42.82941" lon="0.57365">
        <ele>1740.16</ele>
        <time>2021-03-21T09:43:42Z</time>
      </trkpt>
      <trkpt lat="42.8294" lon="0.57365">
        <ele>1740.088</ele>
        <time>2021-03-21T09:43:44Z</time>
      </trkpt>
      <trkpt lat="42.8294" lon="0.57365">
        <ele>1740.087</ele>
        <time>2021-03-21T09:43:46Z</time>
      </trkpt>
      <trkpt lat="42.8294" lon="0.57365">
        <ele>1740.084</ele>
        <time>2021-03-21T09:43:48Z</time>
      </trkpt>
      <trkpt lat="42.8294" lon="0.57365">
        <ele>1740.081</ele>
        <time>2021-03-21T09:43:50Z</time>
      </trkpt>
      <trkpt lat="42.8294" lon="0.57365">
        <ele>1740.072</ele>
        <time>2021-03-21T09:43:52Z</time>
      </trkpt>
      <trkpt lat="42.8294" lon="0.57365">
        <ele>1740.07</ele>
        <time>2021-03-21T09:43:54Z</time>
      </trkpt>
      <trkpt lat="42.8294" lon="0.57365">
        <ele>1740.117</ele>
        <time>2021-03-21T09:43:56Z</time>
      </trkpt>
      <trkpt lat="42.8294" lon="0.57365">
        <ele>1740.137</ele>
        <time>2021-03-21T09:43:58Z</time>
      </trkpt>
      <trkpt lat="42.8294" lon="0.57365">
        <ele>1740.162</ele>
        <time>2021-03-21T09:44:00Z</time>
      </trkpt>
      <trkpt lat="42.8294" lon="0.57365">
        <ele>1740.148</ele>
        <time>2021-03-21T09:44:02Z</time>
      </trkpt>
      <trkpt lat="42.8294" lon="0.57365">
        <ele>1740.138</ele>
        <time>2021-03-21T09:44:04Z</time>
      </trkpt>
      <trkpt lat="42.8294" lon="0.57365">
        <ele>1740.132</ele>
        <time>2021-03-21T09:44:06Z</time>
      </trkpt>
      <trkpt lat="42.8294" lon="0.57365">
        <ele>1740.126</ele>
        <time>2021-03-21T09:44:09Z</time>
      </trkpt>
      <trkpt lat="42.8294" lon="0.57365">
        <ele>1740.123</ele>
        <time>2021-03-21T09:44:11Z</time>
      </trkpt>
      <trkpt lat="42.8294" lon="0.57364">
        <ele>1740.153</ele>
        <time>2021-03-21T09:44:13Z</time>
      </trkpt>
      <trkpt lat="42.8294" lon="0.57364">
        <ele>1740.007</ele>
        <time>2021-03-21T09:44:15Z</time>
      </trkpt>
      <trkpt lat="42.8294" lon="0.57364">
        <ele>1740.011</ele>
        <time>2021-03-21T09:44:17Z</time>
      </trkpt>
      <trkpt lat="42.8294" lon="0.57364">
        <ele>1740.011</ele>
        <time>2021-03-21T09:44:19Z</time>
      </trkpt>
      <trkpt lat="42.8294" lon="0.57364">
        <ele>1740.015</ele>
        <time>2021-03-21T09:44:21Z</time>
      </trkpt>
      <trkpt lat="42.8294" lon="0.57364">
        <ele>1740.017</ele>
        <time>2021-03-21T09:44:23Z</time>
      </trkpt>
      <trkpt lat="42.8294" lon="0.57364">
        <ele>1740.015</ele>
        <time>2021-03-21T09:44:25Z</time>
      </trkpt>
      <trkpt lat="42.8294" lon="0.57363">
        <ele>1740.016</ele>
        <time>2021-03-21T09:44:27Z</time>
      </trkpt>
      <trkpt lat="42.82941" lon="0.57363">
        <ele>1740.22</ele>
        <time>2021-03-21T09:44:29Z</time>
      </trkpt>
      <trkpt lat="42.82942" lon="0.57361">
        <ele>1740.471</ele>
        <time>2021-03-21T09:44:31Z</time>
      </trkpt>
      <trkpt lat="42.82944" lon="0.5736">
        <ele>1740.887</ele>
        <time>2021-03-21T09:44:33Z</time>
      </trkpt>
      <trkpt lat="42.82945" lon="0.57359">
        <ele>1741.626</ele>
        <time>2021-03-21T09:44:35Z</time>
      </trkpt>
      <trkpt lat="42.82947" lon="0.57358">
        <ele>1741.472</ele>
        <time>2021-03-21T09:44:37Z</time>
      </trkpt>
      <trkpt lat="42.82948" lon="0.57357">
        <ele>1741.588</ele>
        <time>2021-03-21T09:44:39Z</time>
      </trkpt>
      <trkpt lat="42.82948" lon="0.57356">
        <ele>1741.553</ele>
        <time>2021-03-21T09:44:41Z</time>
      </trkpt>
      <trkpt lat="42.82949" lon="0.57355">
        <ele>1741.479</ele>
        <time>2021-03-21T09:44:43Z</time>
      </trkpt>
      <trkpt lat="42.82951" lon="0.57354">
        <ele>1741.682</ele>
        <time>2021-03-21T09:44:45Z</time>
      </trkpt>
      <trkpt lat="42.82952" lon="0.57353">
        <ele>1741.443</ele>
        <time>2021-03-21T09:44:47Z</time>
      </trkpt>
      <trkpt lat="42.82953" lon="0.57352">
        <ele>1741.321</ele>
        <time>2021-03-21T09:44:49Z</time>
      </trkpt>
      <trkpt lat="42.82954" lon="0.57352">
        <ele>1741.454</ele>
        <time>2021-03-21T09:44:51Z</time>
      </trkpt>
      <trkpt lat="42.82956" lon="0.57351">
        <ele>1741.013</ele>
        <time>2021-03-21T09:44:53Z</time>
      </trkpt>
      <trkpt lat="42.82957" lon="0.5735">
        <ele>1741.192</ele>
        <time>2021-03-21T09:44:55Z</time>
      </trkpt>
      <trkpt lat="42.82959" lon="0.57349">
        <ele>1741.344</ele>
        <time>2021-03-21T09:44:57Z</time>
      </trkpt>
      <trkpt lat="42.8296" lon="0.57347">
        <ele>1741.362</ele>
        <time>2021-03-21T09:44:59Z</time>
      </trkpt>
      <trkpt lat="42.82962" lon="0.57346">
        <ele>1741.426</ele>
        <time>2021-03-21T09:45:01Z</time>
      </trkpt>
      <trkpt lat="42.82964" lon="0.57345">
        <ele>1741.544</ele>
        <time>2021-03-21T09:45:03Z</time>
      </trkpt>
      <trkpt lat="42.82965" lon="0.57344">
        <ele>1741.529</ele>
        <time>2021-03-21T09:45:05Z</time>
      </trkpt>
      <trkpt lat="42.82967" lon="0.57343">
        <ele>1741.644</ele>
        <time>2021-03-21T09:45:07Z</time>
      </trkpt>
      <trkpt lat="42.82969" lon="0.57342">
        <ele>1741.863</ele>
        <time>2021-03-21T09:45:09Z</time>
      </trkpt>
      <trkpt lat="42.82971" lon="0.57341">
        <ele>1741.729</ele>
        <time>2021-03-21T09:45:11Z</time>
      </trkpt>
      <trkpt lat="42.82973" lon="0.5734">
        <ele>1741.885</ele>
        <time>2021-03-21T09:45:13Z</time>
      </trkpt>
      <trkpt lat="42.82974" lon="0.57339">
        <ele>1742.212</ele>
        <time>2021-03-21T09:45:15Z</time>
      </trkpt>
      <trkpt lat="42.82976" lon="0.57339">
        <ele>1742.194</ele>
        <time>2021-03-21T09:45:17Z</time>
      </trkpt>
      <trkpt lat="42.82978" lon="0.57338">
        <ele>1742.556</ele>
        <time>2021-03-21T09:45:19Z</time>
      </trkpt>
      <trkpt lat="42.8298" lon="0.57336">
        <ele>1742.698</ele>
        <time>2021-03-21T09:45:21Z</time>
      </trkpt>
      <trkpt lat="42.82981" lon="0.57335">
        <ele>1742.747</ele>
        <time>2021-03-21T09:45:23Z</time>
      </trkpt>
      <trkpt lat="42.82983" lon="0.57334">
        <ele>1743.078</ele>
        <time>2021-03-21T09:45:25Z</time>
      </trkpt>
      <trkpt lat="42.82986" lon="0.57332">
        <ele>1743.073</ele>
        <time>2021-03-21T09:45:28Z</time>
      </trkpt>
      <trkpt lat="42.82988" lon="0.57331">
        <ele>1743.522</ele>
        <time>2021-03-21T09:45:30Z</time>
      </trkpt>
      <trkpt lat="42.82989" lon="0.5733">
        <ele>1743.742</ele>
        <time>2021-03-21T09:45:32Z</time>
      </trkpt>
      <trkpt lat="42.82991" lon="0.57329">
        <ele>1743.999</ele>
        <time>2021-03-21T09:45:34Z</time>
      </trkpt>
      <trkpt lat="42.82993" lon="0.57328">
        <ele>1743.979</ele>
        <time>2021-03-21T09:45:36Z</time>
      </trkpt>
      <trkpt lat="42.82995" lon="0.57327">
        <ele>1743.724</ele>
        <time>2021-03-21T09:45:38Z</time>
      </trkpt>
      <trkpt lat="42.82997" lon="0.57325">
        <ele>1743.868</ele>
        <time>2021-03-21T09:45:40Z</time>
      </trkpt>
      <trkpt lat="42.82998" lon="0.57324">
        <ele>1743.796</ele>
        <time>2021-03-21T09:45:42Z</time>
      </trkpt>
      <trkpt lat="42.83001" lon="0.57323">
        <ele>1744.234</ele>
        <time>2021-03-21T09:45:45Z</time>
      </trkpt>
      <trkpt lat="42.83003" lon="0.57322">
        <ele>1744.244</ele>
        <time>2021-03-21T09:45:47Z</time>
      </trkpt>
      <trkpt lat="42.83005" lon="0.57321">
        <ele>1744.798</ele>
        <time>2021-03-21T09:45:49Z</time>
      </trkpt>
      <trkpt lat="42.83006" lon="0.5732">
        <ele>1745.003</ele>
        <time>2021-03-21T09:45:51Z</time>
      </trkpt>
      <trkpt lat="42.83008" lon="0.57319">
        <ele>1745.125</ele>
        <time>2021-03-21T09:45:53Z</time>
      </trkpt>
      <trkpt lat="42.8301" lon="0.57318">
        <ele>1745.413</ele>
        <time>2021-03-21T09:45:55Z</time>
      </trkpt>
      <trkpt lat="42.83012" lon="0.57317">
        <ele>1745.51</ele>
        <time>2021-03-21T09:45:57Z</time>
      </trkpt>
      <trkpt lat="42.83013" lon="0.57316">
        <ele>1745.796</ele>
        <time>2021-03-21T09:45:59Z</time>
      </trkpt>
      <trkpt lat="42.83015" lon="0.57315">
        <ele>1745.986</ele>
        <time>2021-03-21T09:46:01Z</time>
      </trkpt>
      <trkpt lat="42.83017" lon="0.57314">
        <ele>1746.173</ele>
        <time>2021-03-21T09:46:03Z</time>
      </trkpt>
      <trkpt lat="42.83019" lon="0.57313">
        <ele>1746.144</ele>
        <time>2021-03-21T09:46:05Z</time>
      </trkpt>
      <trkpt lat="42.8302" lon="0.57312">
        <ele>1746.028</ele>
        <time>2021-03-21T09:46:07Z</time>
      </trkpt>
      <trkpt lat="42.83022" lon="0.57311">
        <ele>1745.901</ele>
        <time>2021-03-21T09:46:09Z</time>
      </trkpt>
      <trkpt lat="42.83024" lon="0.5731">
        <ele>1746.14</ele>
        <time>2021-03-21T09:46:11Z</time>
      </trkpt>
      <trkpt lat="42.83025" lon="0.57309">
        <ele>1746.319</ele>
        <time>2021-03-21T09:46:13Z</time>
      </trkpt>
      <trkpt lat="42.83026" lon="0.57308">
        <ele>1746.33</ele>
        <time>2021-03-21T09:46:14Z</time>
      </trkpt>
      <trkpt lat="42.83031" lon="0.57306">
        <ele>1746.893</ele>
        <time>2021-03-21T09:46:19Z</time>
      </trkpt>
      <trkpt lat="42.83032" lon="0.57305">
        <ele>1746.899</ele>
        <time>2021-03-21T09:46:21Z</time>
      </trkpt>
      <trkpt lat="42.83034" lon="0.57304">
        <ele>1746.583</ele>
        <time>2021-03-21T09:46:23Z</time>
      </trkpt>
      <trkpt lat="42.83036" lon="0.57303">
        <ele>1746.894</ele>
        <time>2021-03-21T09:46:25Z</time>
      </trkpt>
      <trkpt lat="42.83038" lon="0.57302">
        <ele>1747.185</ele>
        <time>2021-03-21T09:46:27Z</time>
      </trkpt>
      <trkpt lat="42.8304" lon="0.57301">
        <ele>1747.598</ele>
        <time>2021-03-21T09:46:29Z</time>
      </trkpt>
      <trkpt lat="42.83041" lon="0.573">
        <ele>1747.84</ele>
        <time>2021-03-21T09:46:31Z</time>
      </trkpt>
      <trkpt lat="42.83043" lon="0.573">
        <ele>1748.172</ele>
        <time>2021-03-21T09:46:33Z</time>
      </trkpt>
      <trkpt lat="42.83045" lon="0.57298">
        <ele>1748.223</ele>
        <time>2021-03-21T09:46:35Z</time>
      </trkpt>
      <trkpt lat="42.83046" lon="0.57297">
        <ele>1748.515</ele>
        <time>2021-03-21T09:46:37Z</time>
      </trkpt>
      <trkpt lat="42.83048" lon="0.57296">
        <ele>1748.707</ele>
        <time>2021-03-21T09:46:39Z</time>
      </trkpt>
      <trkpt lat="42.8305" lon="0.57295">
        <ele>1748.966</ele>
        <time>2021-03-21T09:46:41Z</time>
      </trkpt>
      <trkpt lat="42.83052" lon="0.57294">
        <ele>1749.06</ele>
        <time>2021-03-21T09:46:43Z</time>
      </trkpt>
      <trkpt lat="42.83053" lon="0.57293">
        <ele>1748.952</ele>
        <time>2021-03-21T09:46:45Z</time>
      </trkpt>
      <trkpt lat="42.83055" lon="0.57292">
        <ele>1749.259</ele>
        <time>2021-03-21T09:46:47Z</time>
      </trkpt>
      <trkpt lat="42.83057" lon="0.57291">
        <ele>1749.448</ele>
        <time>2021-03-21T09:46:49Z</time>
      </trkpt>
      <trkpt lat="42.83059" lon="0.5729">
        <ele>1749.369</ele>
        <time>2021-03-21T09:46:51Z</time>
      </trkpt>
      <trkpt lat="42.83061" lon="0.57289">
        <ele>1749.432</ele>
        <time>2021-03-21T09:46:53Z</time>
      </trkpt>
      <trkpt lat="42.83063" lon="0.57288">
        <ele>1750.062</ele>
        <time>2021-03-21T09:46:55Z</time>
      </trkpt>
      <trkpt lat="42.83064" lon="0.57287">
        <ele>1750.032</ele>
        <time>2021-03-21T09:46:57Z</time>
      </trkpt>
      <trkpt lat="42.83066" lon="0.57286">
        <ele>1750.382</ele>
        <time>2021-03-21T09:46:59Z</time>
      </trkpt>
      <trkpt lat="42.83068" lon="0.57285">
        <ele>1750.543</ele>
        <time>2021-03-21T09:47:01Z</time>
      </trkpt>
      <trkpt lat="42.8307" lon="0.57284">
        <ele>1750.796</ele>
        <time>2021-03-21T09:47:03Z</time>
      </trkpt>
      <trkpt lat="42.83072" lon="0.57283">
        <ele>1751.024</ele>
        <time>2021-03-21T09:47:05Z</time>
      </trkpt>
      <trkpt lat="42.83074" lon="0.57282">
        <ele>1751.274</ele>
        <time>2021-03-21T09:47:07Z</time>
      </trkpt>
      <trkpt lat="42.83076" lon="0.5728">
        <ele>1751.447</ele>
        <time>2021-03-21T09:47:09Z</time>
      </trkpt>
      <trkpt lat="42.83078" lon="0.57279">
        <ele>1752.076</ele>
        <time>2021-03-21T09:47:11Z</time>
      </trkpt>
      <trkpt lat="42.83079" lon="0.57278">
        <ele>1752.67</ele>
        <time>2021-03-21T09:47:13Z</time>
      </trkpt>
      <trkpt lat="42.83081" lon="0.57277">
        <ele>1752.865</ele>
        <time>2021-03-21T09:47:15Z</time>
      </trkpt>
      <trkpt lat="42.83083" lon="0.57275">
        <ele>1753.271</ele>
        <time>2021-03-21T09:47:17Z</time>
      </trkpt>
      <trkpt lat="42.83085" lon="0.57274">
        <ele>1753.445</ele>
        <time>2021-03-21T09:47:19Z</time>
      </trkpt>
      <trkpt lat="42.83086" lon="0.57273">
        <ele>1753.767</ele>
        <time>2021-03-21T09:47:21Z</time>
      </trkpt>
      <trkpt lat="42.83088" lon="0.57272">
        <ele>1753.687</ele>
        <time>2021-03-21T09:47:23Z</time>
      </trkpt>
      <trkpt lat="42.8309" lon="0.57271">
        <ele>1753.985</ele>
        <time>2021-03-21T09:47:25Z</time>
      </trkpt>
      <trkpt lat="42.83092" lon="0.5727">
        <ele>1754.238</ele>
        <time>2021-03-21T09:47:27Z</time>
      </trkpt>
      <trkpt lat="42.83094" lon="0.57269">
        <ele>1754.223</ele>
        <time>2021-03-21T09:47:29Z</time>
      </trkpt>
      <trkpt lat="42.83095" lon="0.57268">
        <ele>1754.327</ele>
        <time>2021-03-21T09:47:31Z</time>
      </trkpt>
      <trkpt lat="42.83097" lon="0.57267">
        <ele>1754.556</ele>
        <time>2021-03-21T09:47:33Z</time>
      </trkpt>
      <trkpt lat="42.83098" lon="0.57266">
        <ele>1754.815</ele>
        <time>2021-03-21T09:47:35Z</time>
      </trkpt>
      <trkpt lat="42.83098" lon="0.57264">
        <ele>1755.429</ele>
        <time>2021-03-21T09:47:37Z</time>
      </trkpt>
      <trkpt lat="42.83097" lon="0.57263">
        <ele>1755.628</ele>
        <time>2021-03-21T09:47:39Z</time>
      </trkpt>
      <trkpt lat="42.83097" lon="0.57263">
        <ele>1755.633</ele>
        <time>2021-03-21T09:47:41Z</time>
      </trkpt>
      <trkpt lat="42.83097" lon="0.57263">
        <ele>1755.63</ele>
        <time>2021-03-21T09:47:43Z</time>
      </trkpt>
      <trkpt lat="42.83097" lon="0.57263">
        <ele>1755.532</ele>
        <time>2021-03-21T09:47:45Z</time>
      </trkpt>
      <trkpt lat="42.83097" lon="0.57263">
        <ele>1755.536</ele>
        <time>2021-03-21T09:47:47Z</time>
      </trkpt>
      <trkpt lat="42.83097" lon="0.57263">
        <ele>1755.878</ele>
        <time>2021-03-21T09:47:49Z</time>
      </trkpt>
      <trkpt lat="42.83101" lon="0.57264">
        <ele>1754.571</ele>
        <time>2021-03-21T09:47:51Z</time>
      </trkpt>
      <trkpt lat="42.83103" lon="0.57263">
        <ele>1754.699</ele>
        <time>2021-03-21T09:47:53Z</time>
      </trkpt>
      <trkpt lat="42.83104" lon="0.57262">
        <ele>1754.844</ele>
        <time>2021-03-21T09:47:55Z</time>
      </trkpt>
      <trkpt lat="42.83106" lon="0.57261">
        <ele>1755.579</ele>
        <time>2021-03-21T09:47:57Z</time>
      </trkpt>
      <trkpt lat="42.83108" lon="0.5726">
        <ele>1755.872</ele>
        <time>2021-03-21T09:47:59Z</time>
      </trkpt>
      <trkpt lat="42.83109" lon="0.57259">
        <ele>1756.517</ele>
        <time>2021-03-21T09:48:01Z</time>
      </trkpt>
      <trkpt lat="42.83111" lon="0.57258">
        <ele>1756.872</ele>
        <time>2021-03-21T09:48:03Z</time>
      </trkpt>
      <trkpt lat="42.83113" lon="0.57257">
        <ele>1757.164</ele>
        <time>2021-03-21T09:48:05Z</time>
      </trkpt>
      <trkpt lat="42.83115" lon="0.57256">
        <ele>1757.281</ele>
        <time>2021-03-21T09:48:07Z</time>
      </trkpt>
      <trkpt lat="42.83116" lon="0.57255">
        <ele>1757.289</ele>
        <time>2021-03-21T09:48:09Z</time>
      </trkpt>
      <trkpt lat="42.83118" lon="0.57254">
        <ele>1757.508</ele>
        <time>2021-03-21T09:48:11Z</time>
      </trkpt>
      <trkpt lat="42.8312" lon="0.57252">
        <ele>1757.886</ele>
        <time>2021-03-21T09:48:13Z</time>
      </trkpt>
      <trkpt lat="42.83121" lon="0.57251">
        <ele>1758.325</ele>
        <time>2021-03-21T09:48:15Z</time>
      </trkpt>
      <trkpt lat="42.83123" lon="0.5725">
        <ele>1758.206</ele>
        <time>2021-03-21T09:48:17Z</time>
      </trkpt>
      <trkpt lat="42.83125" lon="0.57249">
        <ele>1758.272</ele>
        <time>2021-03-21T09:48:19Z</time>
      </trkpt>
      <trkpt lat="42.83127" lon="0.57248">
        <ele>1758.462</ele>
        <time>2021-03-21T09:48:21Z</time>
      </trkpt>
      <trkpt lat="42.83128" lon="0.57247">
        <ele>1758.652</ele>
        <time>2021-03-21T09:48:23Z</time>
      </trkpt>
      <trkpt lat="42.8313" lon="0.57246">
        <ele>1759.068</ele>
        <time>2021-03-21T09:48:25Z</time>
      </trkpt>
      <trkpt lat="42.83131" lon="0.57244">
        <ele>1759.632</ele>
        <time>2021-03-21T09:48:27Z</time>
      </trkpt>
      <trkpt lat="42.83133" lon="0.57244">
        <ele>1759.837</ele>
        <time>2021-03-21T09:48:29Z</time>
      </trkpt>
      <trkpt lat="42.83134" lon="0.57243">
        <ele>1760.032</ele>
        <time>2021-03-21T09:48:31Z</time>
      </trkpt>
      <trkpt lat="42.83136" lon="0.57243">
        <ele>1760.27</ele>
        <time>2021-03-21T09:48:33Z</time>
      </trkpt>
      <trkpt lat="42.83137" lon="0.57243">
        <ele>1760.244</ele>
        <time>2021-03-21T09:48:35Z</time>
      </trkpt>
      <trkpt lat="42.83139" lon="0.57242">
        <ele>1760.493</ele>
        <time>2021-03-21T09:48:37Z</time>
      </trkpt>
      <trkpt lat="42.8314" lon="0.57241">
        <ele>1761.489</ele>
        <time>2021-03-21T09:48:39Z</time>
      </trkpt>
      <trkpt lat="42.83142" lon="0.57241">
        <ele>1761.702</ele>
        <time>2021-03-21T09:48:41Z</time>
      </trkpt>
      <trkpt lat="42.83143" lon="0.57241">
        <ele>1762.022</ele>
        <time>2021-03-21T09:48:43Z</time>
      </trkpt>
      <trkpt lat="42.83145" lon="0.57241">
        <ele>1762.573</ele>
        <time>2021-03-21T09:48:45Z</time>
      </trkpt>
      <trkpt lat="42.83146" lon="0.5724">
        <ele>1762.658</ele>
        <time>2021-03-21T09:48:47Z</time>
      </trkpt>
      <trkpt lat="42.83148" lon="0.5724">
        <ele>1763.229</ele>
        <time>2021-03-21T09:48:49Z</time>
      </trkpt>
      <trkpt lat="42.83149" lon="0.57239">
        <ele>1763.76</ele>
        <time>2021-03-21T09:48:51Z</time>
      </trkpt>
      <trkpt lat="42.8315" lon="0.57239">
        <ele>1764.302</ele>
        <time>2021-03-21T09:48:52Z</time>
      </trkpt>
      <trkpt lat="42.83152" lon="0.57239">
        <ele>1764.336</ele>
        <time>2021-03-21T09:48:55Z</time>
      </trkpt>
      <trkpt lat="42.83154" lon="0.57238">
        <ele>1764.783</ele>
        <time>2021-03-21T09:48:57Z</time>
      </trkpt>
      <trkpt lat="42.83155" lon="0.57237">
        <ele>1764.865</ele>
        <time>2021-03-21T09:48:59Z</time>
      </trkpt>
      <trkpt lat="42.83157" lon="0.57237">
        <ele>1764.942</ele>
        <time>2021-03-21T09:49:01Z</time>
      </trkpt>
      <trkpt lat="42.83159" lon="0.57237">
        <ele>1765.158</ele>
        <time>2021-03-21T09:49:03Z</time>
      </trkpt>
      <trkpt lat="42.8316" lon="0.57237">
        <ele>1765.516</ele>
        <time>2021-03-21T09:49:05Z</time>
      </trkpt>
      <trkpt lat="42.83161" lon="0.57237">
        <ele>1765.613</ele>
        <time>2021-03-21T09:49:07Z</time>
      </trkpt>
      <trkpt lat="42.83163" lon="0.57236">
        <ele>1766.054</ele>
        <time>2021-03-21T09:49:09Z</time>
      </trkpt>
      <trkpt lat="42.83164" lon="0.57236">
        <ele>1766.286</ele>
        <time>2021-03-21T09:49:11Z</time>
      </trkpt>
      <trkpt lat="42.83166" lon="0.57236">
        <ele>1766.758</ele>
        <time>2021-03-21T09:49:13Z</time>
      </trkpt>
      <trkpt lat="42.83167" lon="0.57236">
        <ele>1766.64</ele>
        <time>2021-03-21T09:49:15Z</time>
      </trkpt>
      <trkpt lat="42.83168" lon="0.57235">
        <ele>1767.01</ele>
        <time>2021-03-21T09:49:17Z</time>
      </trkpt>
      <trkpt lat="42.8317" lon="0.57236">
        <ele>1767.004</ele>
        <time>2021-03-21T09:49:19Z</time>
      </trkpt>
      <trkpt lat="42.83171" lon="0.57236">
        <ele>1767.295</ele>
        <time>2021-03-21T09:49:21Z</time>
      </trkpt>
      <trkpt lat="42.83172" lon="0.57235">
        <ele>1767.52</ele>
        <time>2021-03-21T09:49:23Z</time>
      </trkpt>
      <trkpt lat="42.83173" lon="0.57235">
        <ele>1768.014</ele>
        <time>2021-03-21T09:49:25Z</time>
      </trkpt>
      <trkpt lat="42.83174" lon="0.57235">
        <ele>1768.453</ele>
        <time>2021-03-21T09:49:27Z</time>
      </trkpt>
      <trkpt lat="42.83176" lon="0.57235">
        <ele>1769.254</ele>
        <time>2021-03-21T09:49:29Z</time>
      </trkpt>
      <trkpt lat="42.83177" lon="0.57235">
        <ele>1769.492</ele>
        <time>2021-03-21T09:49:31Z</time>
      </trkpt>
      <trkpt lat="42.83178" lon="0.57235">
        <ele>1769.616</ele>
        <time>2021-03-21T09:49:33Z</time>
      </trkpt>
      <trkpt lat="42.83179" lon="0.57235">
        <ele>1770.279</ele>
        <time>2021-03-21T09:49:35Z</time>
      </trkpt>
      <trkpt lat="42.8318" lon="0.57236">
        <ele>1770.285</ele>
        <time>2021-03-21T09:49:37Z</time>
      </trkpt>
      <trkpt lat="42.83181" lon="0.57236">
        <ele>1770.668</ele>
        <time>2021-03-21T09:49:39Z</time>
      </trkpt>
      <trkpt lat="42.83183" lon="0.57235">
        <ele>1770.758</ele>
        <time>2021-03-21T09:49:41Z</time>
      </trkpt>
      <trkpt lat="42.83184" lon="0.57235">
        <ele>1770.854</ele>
        <time>2021-03-21T09:49:43Z</time>
      </trkpt>
      <trkpt lat="42.83184" lon="0.57235">
        <ele>1770.788</ele>
        <time>2021-03-21T09:49:45Z</time>
      </trkpt>
      <trkpt lat="42.83184" lon="0.57235">
        <ele>1770.79</ele>
        <time>2021-03-21T09:49:47Z</time>
      </trkpt>
      <trkpt lat="42.83184" lon="0.57235">
        <ele>1770.88</ele>
        <time>2021-03-21T09:49:49Z</time>
      </trkpt>
      <trkpt lat="42.83185" lon="0.57234">
        <ele>1771.016</ele>
        <time>2021-03-21T09:49:51Z</time>
      </trkpt>
      <trkpt lat="42.83185" lon="0.57234">
        <ele>1771.219</ele>
        <time>2021-03-21T09:49:53Z</time>
      </trkpt>
      <trkpt lat="42.83186" lon="0.57233">
        <ele>1771.201</ele>
        <time>2021-03-21T09:49:55Z</time>
      </trkpt>
      <trkpt lat="42.83187" lon="0.57233">
        <ele>1771.746</ele>
        <time>2021-03-21T09:49:57Z</time>
      </trkpt>
      <trkpt lat="42.83188" lon="0.57232">
        <ele>1771.941</ele>
        <time>2021-03-21T09:49:59Z</time>
      </trkpt>
      <trkpt lat="42.83189" lon="0.57232">
        <ele>1772.067</ele>
        <time>2021-03-21T09:50:01Z</time>
      </trkpt>
      <trkpt lat="42.8319" lon="0.57231">
        <ele>1772.741</ele>
        <time>2021-03-21T09:50:03Z</time>
      </trkpt>
      <trkpt lat="42.83191" lon="0.57231">
        <ele>1773.592</ele>
        <time>2021-03-21T09:50:05Z</time>
      </trkpt>
      <trkpt lat="42.83192" lon="0.5723">
        <ele>1773.962</ele>
        <time>2021-03-21T09:50:07Z</time>
      </trkpt>
      <trkpt lat="42.83193" lon="0.57229">
        <ele>1774.192</ele>
        <time>2021-03-21T09:50:09Z</time>
      </trkpt>
      <trkpt lat="42.83194" lon="0.57229">
        <ele>1774.415</ele>
        <time>2021-03-21T09:50:11Z</time>
      </trkpt>
      <trkpt lat="42.83195" lon="0.57228">
        <ele>1774.511</ele>
        <time>2021-03-21T09:50:13Z</time>
      </trkpt>
      <trkpt lat="42.83196" lon="0.57228">
        <ele>1774.924</ele>
        <time>2021-03-21T09:50:15Z</time>
      </trkpt>
      <trkpt lat="42.83197" lon="0.57227">
        <ele>1775.527</ele>
        <time>2021-03-21T09:50:17Z</time>
      </trkpt>
      <trkpt lat="42.83198" lon="0.57227">
        <ele>1775.613</ele>
        <time>2021-03-21T09:50:19Z</time>
      </trkpt>
      <trkpt lat="42.83199" lon="0.57226">
        <ele>1775.589</ele>
        <time>2021-03-21T09:50:21Z</time>
      </trkpt>
      <trkpt lat="42.832" lon="0.57226">
        <ele>1776.394</ele>
        <time>2021-03-21T09:50:23Z</time>
      </trkpt>
      <trkpt lat="42.83201" lon="0.57226">
        <ele>1776.379</ele>
        <time>2021-03-21T09:50:25Z</time>
      </trkpt>
      <trkpt lat="42.83202" lon="0.57225">
        <ele>1776.765</ele>
        <time>2021-03-21T09:50:27Z</time>
      </trkpt>
      <trkpt lat="42.83204" lon="0.57224">
        <ele>1776.886</ele>
        <time>2021-03-21T09:50:29Z</time>
      </trkpt>
      <trkpt lat="42.83205" lon="0.57223">
        <ele>1777.357</ele>
        <time>2021-03-21T09:50:31Z</time>
      </trkpt>
      <trkpt lat="42.83206" lon="0.57223">
        <ele>1777.505</ele>
        <time>2021-03-21T09:50:33Z</time>
      </trkpt>
      <trkpt lat="42.83207" lon="0.57222">
        <ele>1777.866</ele>
        <time>2021-03-21T09:50:35Z</time>
      </trkpt>
      <trkpt lat="42.83208" lon="0.5722">
        <ele>1778.464</ele>
        <time>2021-03-21T09:50:37Z</time>
      </trkpt>
      <trkpt lat="42.83208" lon="0.57219">
        <ele>1778.672</ele>
        <time>2021-03-21T09:50:39Z</time>
      </trkpt>
      <trkpt lat="42.8321" lon="0.57218">
        <ele>1779.045</ele>
        <time>2021-03-21T09:50:41Z</time>
      </trkpt>
      <trkpt lat="42.83211" lon="0.57218">
        <ele>1779.414</ele>
        <time>2021-03-21T09:50:43Z</time>
      </trkpt>
      <trkpt lat="42.83211" lon="0.57217">
        <ele>1779.712</ele>
        <time>2021-03-21T09:50:45Z</time>
      </trkpt>
      <trkpt lat="42.83212" lon="0.57216">
        <ele>1780.571</ele>
        <time>2021-03-21T09:50:47Z</time>
      </trkpt>
      <trkpt lat="42.83213" lon="0.57215">
        <ele>1780.729</ele>
        <time>2021-03-21T09:50:49Z</time>
      </trkpt>
      <trkpt lat="42.83214" lon="0.57214">
        <ele>1781.171</ele>
        <time>2021-03-21T09:50:51Z</time>
      </trkpt>
      <trkpt lat="42.83216" lon="0.57213">
        <ele>1781.815</ele>
        <time>2021-03-21T09:50:53Z</time>
      </trkpt>
      <trkpt lat="42.83217" lon="0.57212">
        <ele>1782.31</ele>
        <time>2021-03-21T09:50:55Z</time>
      </trkpt>
      <trkpt lat="42.83218" lon="0.57211">
        <ele>1782.539</ele>
        <time>2021-03-21T09:50:57Z</time>
      </trkpt>
      <trkpt lat="42.83219" lon="0.5721">
        <ele>1782.581</ele>
        <time>2021-03-21T09:50:59Z</time>
      </trkpt>
      <trkpt lat="42.8322" lon="0.57209">
        <ele>1783.012</ele>
        <time>2021-03-21T09:51:01Z</time>
      </trkpt>
      <trkpt lat="42.83221" lon="0.57208">
        <ele>1783.665</ele>
        <time>2021-03-21T09:51:03Z</time>
      </trkpt>
      <trkpt lat="42.83222" lon="0.57208">
        <ele>1783.863</ele>
        <time>2021-03-21T09:51:05Z</time>
      </trkpt>
      <trkpt lat="42.83223" lon="0.57207">
        <ele>1784.335</ele>
        <time>2021-03-21T09:51:07Z</time>
      </trkpt>
      <trkpt lat="42.83224" lon="0.57206">
        <ele>1784.653</ele>
        <time>2021-03-21T09:51:09Z</time>
      </trkpt>
      <trkpt lat="42.83225" lon="0.57206">
        <ele>1784.578</ele>
        <time>2021-03-21T09:51:11Z</time>
      </trkpt>
      <trkpt lat="42.83226" lon="0.57205">
        <ele>1784.816</ele>
        <time>2021-03-21T09:51:13Z</time>
      </trkpt>
      <trkpt lat="42.83227" lon="0.57203">
        <ele>1785.377</ele>
        <time>2021-03-21T09:51:15Z</time>
      </trkpt>
      <trkpt lat="42.83228" lon="0.57202">
        <ele>1785.883</ele>
        <time>2021-03-21T09:51:17Z</time>
      </trkpt>
      <trkpt lat="42.83229" lon="0.57201">
        <ele>1786.256</ele>
        <time>2021-03-21T09:51:19Z</time>
      </trkpt>
      <trkpt lat="42.83229" lon="0.57199">
        <ele>1786.282</ele>
        <time>2021-03-21T09:51:21Z</time>
      </trkpt>
      <trkpt lat="42.8323" lon="0.57198">
        <ele>1786.214</ele>
        <time>2021-03-21T09:51:23Z</time>
      </trkpt>
      <trkpt lat="42.83229" lon="0.57198">
        <ele>1786.22</ele>
        <time>2021-03-21T09:51:25Z</time>
      </trkpt>
      <trkpt lat="42.8323" lon="0.57196">
        <ele>1786.129</ele>
        <time>2021-03-21T09:51:27Z</time>
      </trkpt>
      <trkpt lat="42.8323" lon="0.57195">
        <ele>1786.252</ele>
        <time>2021-03-21T09:51:29Z</time>
      </trkpt>
      <trkpt lat="42.83231" lon="0.57193">
        <ele>1786.991</ele>
        <time>2021-03-21T09:51:31Z</time>
      </trkpt>
      <trkpt lat="42.83231" lon="0.57192">
        <ele>1787.267</ele>
        <time>2021-03-21T09:51:33Z</time>
      </trkpt>
      <trkpt lat="42.83232" lon="0.57191">
        <ele>1787.414</ele>
        <time>2021-03-21T09:51:35Z</time>
      </trkpt>
      <trkpt lat="42.83233" lon="0.57189">
        <ele>1787.749</ele>
        <time>2021-03-21T09:51:37Z</time>
      </trkpt>
      <trkpt lat="42.83234" lon="0.57188">
        <ele>1787.771</ele>
        <time>2021-03-21T09:51:39Z</time>
      </trkpt>
      <trkpt lat="42.83234" lon="0.57187">
        <ele>1787.841</ele>
        <time>2021-03-21T09:51:41Z</time>
      </trkpt>
      <trkpt lat="42.83235" lon="0.57186">
        <ele>1787.956</ele>
        <time>2021-03-21T09:51:43Z</time>
      </trkpt>
      <trkpt lat="42.83236" lon="0.57185">
        <ele>1788.366</ele>
        <time>2021-03-21T09:51:45Z</time>
      </trkpt>
      <trkpt lat="42.83237" lon="0.57184">
        <ele>1788.402</ele>
        <time>2021-03-21T09:51:47Z</time>
      </trkpt>
      <trkpt lat="42.83238" lon="0.57184">
        <ele>1788.576</ele>
        <time>2021-03-21T09:51:49Z</time>
      </trkpt>
      <trkpt lat="42.83239" lon="0.57183">
        <ele>1788.553</ele>
        <time>2021-03-21T09:51:51Z</time>
      </trkpt>
      <trkpt lat="42.8324" lon="0.57183">
        <ele>1788.817</ele>
        <time>2021-03-21T09:51:53Z</time>
      </trkpt>
      <trkpt lat="42.83241" lon="0.57182">
        <ele>1789.164</ele>
        <time>2021-03-21T09:51:55Z</time>
      </trkpt>
      <trkpt lat="42.83242" lon="0.57182">
        <ele>1789.023</ele>
        <time>2021-03-21T09:51:57Z</time>
      </trkpt>
      <trkpt lat="42.83242" lon="0.57181">
        <ele>1789.184</ele>
        <time>2021-03-21T09:51:59Z</time>
      </trkpt>
      <trkpt lat="42.83243" lon="0.57181">
        <ele>1789.391</ele>
        <time>2021-03-21T09:52:01Z</time>
      </trkpt>
      <trkpt lat="42.83244" lon="0.5718">
        <ele>1789.579</ele>
        <time>2021-03-21T09:52:03Z</time>
      </trkpt>
      <trkpt lat="42.83244" lon="0.57179">
        <ele>1789.362</ele>
        <time>2021-03-21T09:52:05Z</time>
      </trkpt>
      <trkpt lat="42.83245" lon="0.57178">
        <ele>1789.53</ele>
        <time>2021-03-21T09:52:07Z</time>
      </trkpt>
      <trkpt lat="42.83246" lon="0.57178">
        <ele>1789.599</ele>
        <time>2021-03-21T09:52:09Z</time>
      </trkpt>
      <trkpt lat="42.83247" lon="0.57177">
        <ele>1789.755</ele>
        <time>2021-03-21T09:52:11Z</time>
      </trkpt>
      <trkpt lat="42.83248" lon="0.57176">
        <ele>1789.604</ele>
        <time>2021-03-21T09:52:13Z</time>
      </trkpt>
      <trkpt lat="42.83249" lon="0.57175">
        <ele>1789.83</ele>
        <time>2021-03-21T09:52:15Z</time>
      </trkpt>
      <trkpt lat="42.8325" lon="0.57175">
        <ele>1790.522</ele>
        <time>2021-03-21T09:52:17Z</time>
      </trkpt>
      <trkpt lat="42.83251" lon="0.57173">
        <ele>1790.844</ele>
        <time>2021-03-21T09:52:19Z</time>
      </trkpt>
      <trkpt lat="42.83251" lon="0.57173">
        <ele>1791.364</ele>
        <time>2021-03-21T09:52:21Z</time>
      </trkpt>
      <trkpt lat="42.83253" lon="0.57172">
        <ele>1791.288</ele>
        <time>2021-03-21T09:52:23Z</time>
      </trkpt>
      <trkpt lat="42.83254" lon="0.57171">
        <ele>1791.355</ele>
        <time>2021-03-21T09:52:25Z</time>
      </trkpt>
      <trkpt lat="42.83255" lon="0.57171">
        <ele>1791.464</ele>
        <time>2021-03-21T09:52:27Z</time>
      </trkpt>
      <trkpt lat="42.83256" lon="0.5717">
        <ele>1791.677</ele>
        <time>2021-03-21T09:52:29Z</time>
      </trkpt>
      <trkpt lat="42.83257" lon="0.57169">
        <ele>1792.196</ele>
        <time>2021-03-21T09:52:31Z</time>
      </trkpt>
      <trkpt lat="42.83258" lon="0.57168">
        <ele>1792.058</ele>
        <time>2021-03-21T09:52:33Z</time>
      </trkpt>
      <trkpt lat="42.83259" lon="0.57167">
        <ele>1792.342</ele>
        <time>2021-03-21T09:52:35Z</time>
      </trkpt>
      <trkpt lat="42.8326" lon="0.57166">
        <ele>1792.912</ele>
        <time>2021-03-21T09:52:37Z</time>
      </trkpt>
      <trkpt lat="42.83262" lon="0.57166">
        <ele>1793.472</ele>
        <time>2021-03-21T09:52:39Z</time>
      </trkpt>
      <trkpt lat="42.83263" lon="0.57166">
        <ele>1794.055</ele>
        <time>2021-03-21T09:52:41Z</time>
      </trkpt>
      <trkpt lat="42.83264" lon="0.57167">
        <ele>1794.198</ele>
        <time>2021-03-21T09:52:43Z</time>
      </trkpt>
      <trkpt lat="42.83265" lon="0.57168">
        <ele>1794.484</ele>
        <time>2021-03-21T09:52:45Z</time>
      </trkpt>
      <trkpt lat="42.83266" lon="0.57168">
        <ele>1794.297</ele>
        <time>2021-03-21T09:52:47Z</time>
      </trkpt>
      <trkpt lat="42.83267" lon="0.57168">
        <ele>1794.557</ele>
        <time>2021-03-21T09:52:49Z</time>
      </trkpt>
      <trkpt lat="42.83268" lon="0.57167">
        <ele>1794.889</ele>
        <time>2021-03-21T09:52:51Z</time>
      </trkpt>
      <trkpt lat="42.83269" lon="0.57166">
        <ele>1794.914</ele>
        <time>2021-03-21T09:52:53Z</time>
      </trkpt>
      <trkpt lat="42.8327" lon="0.57165">
        <ele>1795.014</ele>
        <time>2021-03-21T09:52:55Z</time>
      </trkpt>
      <trkpt lat="42.83271" lon="0.57165">
        <ele>1795.199</ele>
        <time>2021-03-21T09:52:57Z</time>
      </trkpt>
      <trkpt lat="42.83272" lon="0.57164">
        <ele>1795.131</ele>
        <time>2021-03-21T09:52:59Z</time>
      </trkpt>
      <trkpt lat="42.83273" lon="0.57162">
        <ele>1795.304</ele>
        <time>2021-03-21T09:53:01Z</time>
      </trkpt>
      <trkpt lat="42.83274" lon="0.57162">
        <ele>1795.309</ele>
        <time>2021-03-21T09:53:03Z</time>
      </trkpt>
      <trkpt lat="42.83275" lon="0.57161">
        <ele>1795.041</ele>
        <time>2021-03-21T09:53:05Z</time>
      </trkpt>
      <trkpt lat="42.83276" lon="0.57159">
        <ele>1794.754</ele>
        <time>2021-03-21T09:53:07Z</time>
      </trkpt>
      <trkpt lat="42.83277" lon="0.57159">
        <ele>1794.972</ele>
        <time>2021-03-21T09:53:09Z</time>
      </trkpt>
      <trkpt lat="42.83279" lon="0.57158">
        <ele>1794.727</ele>
        <time>2021-03-21T09:53:11Z</time>
      </trkpt>
      <trkpt lat="42.8328" lon="0.57157">
        <ele>1795.001</ele>
        <time>2021-03-21T09:53:13Z</time>
      </trkpt>
      <trkpt lat="42.83281" lon="0.57155">
        <ele>1794.852</ele>
        <time>2021-03-21T09:53:15Z</time>
      </trkpt>
      <trkpt lat="42.83282" lon="0.57154">
        <ele>1794.307</ele>
        <time>2021-03-21T09:53:17Z</time>
      </trkpt>
      <trkpt lat="42.83283" lon="0.57153">
        <ele>1794.045</ele>
        <time>2021-03-21T09:53:19Z</time>
      </trkpt>
      <trkpt lat="42.83284" lon="0.57151">
        <ele>1794.031</ele>
        <time>2021-03-21T09:53:21Z</time>
      </trkpt>
      <trkpt lat="42.83286" lon="0.5715">
        <ele>1793.553</ele>
        <time>2021-03-21T09:53:23Z</time>
      </trkpt>
      <trkpt lat="42.83287" lon="0.57149">
        <ele>1793.479</ele>
        <time>2021-03-21T09:53:25Z</time>
      </trkpt>
      <trkpt lat="42.83288" lon="0.57149">
        <ele>1793.501</ele>
        <time>2021-03-21T09:53:27Z</time>
      </trkpt>
      <trkpt lat="42.8329" lon="0.57148">
        <ele>1793.674</ele>
        <time>2021-03-21T09:53:29Z</time>
      </trkpt>
      <trkpt lat="42.83291" lon="0.57147">
        <ele>1793.555</ele>
        <time>2021-03-21T09:53:31Z</time>
      </trkpt>
      <trkpt lat="42.83293" lon="0.57145">
        <ele>1793.08</ele>
        <time>2021-03-21T09:53:33Z</time>
      </trkpt>
      <trkpt lat="42.83294" lon="0.57144">
        <ele>1792.569</ele>
        <time>2021-03-21T09:53:35Z</time>
      </trkpt>
      <trkpt lat="42.83296" lon="0.57143">
        <ele>1792.461</ele>
        <time>2021-03-21T09:53:37Z</time>
      </trkpt>
      <trkpt lat="42.83297" lon="0.57142">
        <ele>1792.187</ele>
        <time>2021-03-21T09:53:39Z</time>
      </trkpt>
      <trkpt lat="42.83299" lon="0.57141">
        <ele>1791.433</ele>
        <time>2021-03-21T09:53:41Z</time>
      </trkpt>
      <trkpt lat="42.83301" lon="0.5714">
        <ele>1791.392</ele>
        <time>2021-03-21T09:53:43Z</time>
      </trkpt>
      <trkpt lat="42.83302" lon="0.57139">
        <ele>1790.896</ele>
        <time>2021-03-21T09:53:45Z</time>
      </trkpt>
      <trkpt lat="42.83304" lon="0.57138">
        <ele>1790.847</ele>
        <time>2021-03-21T09:53:47Z</time>
      </trkpt>
      <trkpt lat="42.83306" lon="0.57137">
        <ele>1790.644</ele>
        <time>2021-03-21T09:53:49Z</time>
      </trkpt>
      <trkpt lat="42.83307" lon="0.57135">
        <ele>1790.096</ele>
        <time>2021-03-21T09:53:51Z</time>
      </trkpt>
      <trkpt lat="42.83309" lon="0.57134">
        <ele>1790.099</ele>
        <time>2021-03-21T09:53:53Z</time>
      </trkpt>
      <trkpt lat="42.83311" lon="0.57134">
        <ele>1790.577</ele>
        <time>2021-03-21T09:53:55Z</time>
      </trkpt>
      <trkpt lat="42.83313" lon="0.57132">
        <ele>1790.493</ele>
        <time>2021-03-21T09:53:57Z</time>
      </trkpt>
      <trkpt lat="42.83315" lon="0.57131">
        <ele>1790.603</ele>
        <time>2021-03-21T09:53:59Z</time>
      </trkpt>
      <trkpt lat="42.83316" lon="0.5713">
        <ele>1790.232</ele>
        <time>2021-03-21T09:54:01Z</time>
      </trkpt>
      <trkpt lat="42.83318" lon="0.57129">
        <ele>1790.851</ele>
        <time>2021-03-21T09:54:03Z</time>
      </trkpt>
      <trkpt lat="42.8332" lon="0.57128">
        <ele>1790.983</ele>
        <time>2021-03-21T09:54:05Z</time>
      </trkpt>
      <trkpt lat="42.83322" lon="0.57127">
        <ele>1790.831</ele>
        <time>2021-03-21T09:54:07Z</time>
      </trkpt>
      <trkpt lat="42.83324" lon="0.57126">
        <ele>1790.456</ele>
        <time>2021-03-21T09:54:09Z</time>
      </trkpt>
      <trkpt lat="42.83326" lon="0.57125">
        <ele>1790.867</ele>
        <time>2021-03-21T09:54:11Z</time>
      </trkpt>
      <trkpt lat="42.83328" lon="0.57124">
        <ele>1790.474</ele>
        <time>2021-03-21T09:54:13Z</time>
      </trkpt>
      <trkpt lat="42.83329" lon="0.57123">
        <ele>1790.443</ele>
        <time>2021-03-21T09:54:15Z</time>
      </trkpt>
      <trkpt lat="42.83331" lon="0.57122">
        <ele>1790.397</ele>
        <time>2021-03-21T09:54:17Z</time>
      </trkpt>
      <trkpt lat="42.83334" lon="0.57121">
        <ele>1790.895</ele>
        <time>2021-03-21T09:54:19Z</time>
      </trkpt>
      <trkpt lat="42.83336" lon="0.57121">
        <ele>1790.874</ele>
        <time>2021-03-21T09:54:21Z</time>
      </trkpt>
      <trkpt lat="42.83338" lon="0.5712">
        <ele>1791.403</ele>
        <time>2021-03-21T09:54:23Z</time>
      </trkpt>
      <trkpt lat="42.8334" lon="0.57119">
        <ele>1791.096</ele>
        <time>2021-03-21T09:54:25Z</time>
      </trkpt>
      <trkpt lat="42.83341" lon="0.57119">
        <ele>1790.84</ele>
        <time>2021-03-21T09:54:27Z</time>
      </trkpt>
      <trkpt lat="42.83343" lon="0.57118">
        <ele>1790.482</ele>
        <time>2021-03-21T09:54:29Z</time>
      </trkpt>
      <trkpt lat="42.83345" lon="0.57117">
        <ele>1789.908</ele>
        <time>2021-03-21T09:54:31Z</time>
      </trkpt>
      <trkpt lat="42.83347" lon="0.57116">
        <ele>1789.7</ele>
        <time>2021-03-21T09:54:33Z</time>
      </trkpt>
      <trkpt lat="42.83349" lon="0.57116">
        <ele>1789.665</ele>
        <time>2021-03-21T09:54:35Z</time>
      </trkpt>
      <trkpt lat="42.83351" lon="0.57115">
        <ele>1789.254</ele>
        <time>2021-03-21T09:54:37Z</time>
      </trkpt>
      <trkpt lat="42.83353" lon="0.57115">
        <ele>1788.886</ele>
        <time>2021-03-21T09:54:39Z</time>
      </trkpt>
      <trkpt lat="42.83355" lon="0.57114">
        <ele>1788.735</ele>
        <time>2021-03-21T09:54:41Z</time>
      </trkpt>
      <trkpt lat="42.83357" lon="0.57113">
        <ele>1788.821</ele>
        <time>2021-03-21T09:54:43Z</time>
      </trkpt>
      <trkpt lat="42.83359" lon="0.57113">
        <ele>1788.277</ele>
        <time>2021-03-21T09:54:45Z</time>
      </trkpt>
      <trkpt lat="42.83361" lon="0.57112">
        <ele>1788.375</ele>
        <time>2021-03-21T09:54:47Z</time>
      </trkpt>
      <trkpt lat="42.83363" lon="0.57112">
        <ele>1788.308</ele>
        <time>2021-03-21T09:54:49Z</time>
      </trkpt>
      <trkpt lat="42.83366" lon="0.57111">
        <ele>1788.381</ele>
        <time>2021-03-21T09:54:51Z</time>
      </trkpt>
      <trkpt lat="42.83368" lon="0.57111">
        <ele>1788.358</ele>
        <time>2021-03-21T09:54:53Z</time>
      </trkpt>
      <trkpt lat="42.8337" lon="0.57111">
        <ele>1788.624</ele>
        <time>2021-03-21T09:54:55Z</time>
      </trkpt>
      <trkpt lat="42.83372" lon="0.57111">
        <ele>1788.853</ele>
        <time>2021-03-21T09:54:57Z</time>
      </trkpt>
      <trkpt lat="42.83375" lon="0.5711">
        <ele>1788.814</ele>
        <time>2021-03-21T09:54:59Z</time>
      </trkpt>
      <trkpt lat="42.83377" lon="0.5711">
        <ele>1788.656</ele>
        <time>2021-03-21T09:55:01Z</time>
      </trkpt>
      <trkpt lat="42.83379" lon="0.57109">
        <ele>1788.774</ele>
        <time>2021-03-21T09:55:03Z</time>
      </trkpt>
      <trkpt lat="42.83381" lon="0.57109">
        <ele>1788.491</ele>
        <time>2021-03-21T09:55:05Z</time>
      </trkpt>
      <trkpt lat="42.83384" lon="0.57109">
        <ele>1788.39</ele>
        <time>2021-03-21T09:55:07Z</time>
      </trkpt>
      <trkpt lat="42.83386" lon="0.57108">
        <ele>1788.295</ele>
        <time>2021-03-21T09:55:09Z</time>
      </trkpt>
      <trkpt lat="42.83388" lon="0.57108">
        <ele>1788.334</ele>
        <time>2021-03-21T09:55:11Z</time>
      </trkpt>
      <trkpt lat="42.8339" lon="0.57108">
        <ele>1788.298</ele>
        <time>2021-03-21T09:55:13Z</time>
      </trkpt>
      <trkpt lat="42.83392" lon="0.57107">
        <ele>1788.365</ele>
        <time>2021-03-21T09:55:15Z</time>
      </trkpt>
      <trkpt lat="42.83394" lon="0.57106">
        <ele>1788.381</ele>
        <time>2021-03-21T09:55:17Z</time>
      </trkpt>
      <trkpt lat="42.83396" lon="0.57105">
        <ele>1789.223</ele>
        <time>2021-03-21T09:55:19Z</time>
      </trkpt>
      <trkpt lat="42.83399" lon="0.57104">
        <ele>1789.669</ele>
        <time>2021-03-21T09:55:21Z</time>
      </trkpt>
      <trkpt lat="42.83401" lon="0.57103">
        <ele>1790.543</ele>
        <time>2021-03-21T09:55:23Z</time>
      </trkpt>
      <trkpt lat="42.83403" lon="0.57102">
        <ele>1791.345</ele>
        <time>2021-03-21T09:55:25Z</time>
      </trkpt>
      <trkpt lat="42.83406" lon="0.57101">
        <ele>1792.136</ele>
        <time>2021-03-21T09:55:27Z</time>
      </trkpt>
      <trkpt lat="42.83409" lon="0.571">
        <ele>1793.262</ele>
        <time>2021-03-21T09:55:29Z</time>
      </trkpt>
      <trkpt lat="42.8341" lon="0.571">
        <ele>1793.703</ele>
        <time>2021-03-21T09:55:30Z</time>
      </trkpt>
      <trkpt lat="42.83416" lon="0.57099">
        <ele>1795.767</ele>
        <time>2021-03-21T09:55:36Z</time>
      </trkpt>
      <trkpt lat="42.83417" lon="0.57099">
        <ele>1795.998</ele>
        <time>2021-03-21T09:55:38Z</time>
      </trkpt>
      <trkpt lat="42.83419" lon="0.57098">
        <ele>1796.592</ele>
        <time>2021-03-21T09:55:40Z</time>
      </trkpt>
      <trkpt lat="42.83421" lon="0.57098">
        <ele>1797.329</ele>
        <time>2021-03-21T09:55:42Z</time>
      </trkpt>
      <trkpt lat="42.83423" lon="0.57098">
        <ele>1798.049</ele>
        <time>2021-03-21T09:55:44Z</time>
      </trkpt>
      <trkpt lat="42.83424" lon="0.57098">
        <ele>1798.71</ele>
        <time>2021-03-21T09:55:46Z</time>
      </trkpt>
      <trkpt lat="42.83426" lon="0.57097">
        <ele>1799.203</ele>
        <time>2021-03-21T09:55:48Z</time>
      </trkpt>
      <trkpt lat="42.83427" lon="0.57097">
        <ele>1799.647</ele>
        <time>2021-03-21T09:55:50Z</time>
      </trkpt>
      <trkpt lat="42.83429" lon="0.57096">
        <ele>1799.661</ele>
        <time>2021-03-21T09:55:52Z</time>
      </trkpt>
      <trkpt lat="42.8343" lon="0.57096">
        <ele>1799.736</ele>
        <time>2021-03-21T09:55:54Z</time>
      </trkpt>
      <trkpt lat="42.83432" lon="0.57095">
        <ele>1799.966</ele>
        <time>2021-03-21T09:55:56Z</time>
      </trkpt>
      <trkpt lat="42.83433" lon="0.57095">
        <ele>1799.547</ele>
        <time>2021-03-21T09:55:58Z</time>
      </trkpt>
      <trkpt lat="42.83435" lon="0.57095">
        <ele>1800.396</ele>
        <time>2021-03-21T09:56:00Z</time>
      </trkpt>
      <trkpt lat="42.83436" lon="0.57094">
        <ele>1800.632</ele>
        <time>2021-03-21T09:56:02Z</time>
      </trkpt>
      <trkpt lat="42.83438" lon="0.57094">
        <ele>1800.926</ele>
        <time>2021-03-21T09:56:04Z</time>
      </trkpt>
      <trkpt lat="42.83439" lon="0.57094">
        <ele>1801.087</ele>
        <time>2021-03-21T09:56:06Z</time>
      </trkpt>
      <trkpt lat="42.83441" lon="0.57093">
        <ele>1801.398</ele>
        <time>2021-03-21T09:56:08Z</time>
      </trkpt>
      <trkpt lat="42.83442" lon="0.57093">
        <ele>1801.305</ele>
        <time>2021-03-21T09:56:10Z</time>
      </trkpt>
      <trkpt lat="42.83444" lon="0.57093">
        <ele>1801.439</ele>
        <time>2021-03-21T09:56:12Z</time>
      </trkpt>
      <trkpt lat="42.83446" lon="0.57092">
        <ele>1801.984</ele>
        <time>2021-03-21T09:56:14Z</time>
      </trkpt>
      <trkpt lat="42.83447" lon="0.57092">
        <ele>1802.205</ele>
        <time>2021-03-21T09:56:16Z</time>
      </trkpt>
      <trkpt lat="42.83449" lon="0.57092">
        <ele>1802.891</ele>
        <time>2021-03-21T09:56:18Z</time>
      </trkpt>
      <trkpt lat="42.8345" lon="0.57092">
        <ele>1802.965</ele>
        <time>2021-03-21T09:56:20Z</time>
      </trkpt>
      <trkpt lat="42.83452" lon="0.57092">
        <ele>1802.951</ele>
        <time>2021-03-21T09:56:22Z</time>
      </trkpt>
      <trkpt lat="42.83453" lon="0.57091">
        <ele>1803.382</ele>
        <time>2021-03-21T09:56:24Z</time>
      </trkpt>
      <trkpt lat="42.83455" lon="0.57091">
        <ele>1803.51</ele>
        <time>2021-03-21T09:56:26Z</time>
      </trkpt>
      <trkpt lat="42.83457" lon="0.57091">
        <ele>1803.931</ele>
        <time>2021-03-21T09:56:28Z</time>
      </trkpt>
      <trkpt lat="42.83458" lon="0.5709">
        <ele>1804.109</ele>
        <time>2021-03-21T09:56:30Z</time>
      </trkpt>
      <trkpt lat="42.8346" lon="0.57091">
        <ele>1804.222</ele>
        <time>2021-03-21T09:56:32Z</time>
      </trkpt>
      <trkpt lat="42.83462" lon="0.5709">
        <ele>1804.888</ele>
        <time>2021-03-21T09:56:34Z</time>
      </trkpt>
      <trkpt lat="42.83463" lon="0.57089">
        <ele>1804.389</ele>
        <time>2021-03-21T09:56:36Z</time>
      </trkpt>
      <trkpt lat="42.83464" lon="0.57089">
        <ele>1804.291</ele>
        <time>2021-03-21T09:56:37Z</time>
      </trkpt>
      <trkpt lat="42.83466" lon="0.57089">
        <ele>1804.731</ele>
        <time>2021-03-21T09:56:40Z</time>
      </trkpt>
      <trkpt lat="42.83468" lon="0.57088">
        <ele>1805.537</ele>
        <time>2021-03-21T09:56:42Z</time>
      </trkpt>
      <trkpt lat="42.83469" lon="0.57088">
        <ele>1806.181</ele>
        <time>2021-03-21T09:56:44Z</time>
      </trkpt>
      <trkpt lat="42.83471" lon="0.57088">
        <ele>1806.792</ele>
        <time>2021-03-21T09:56:46Z</time>
      </trkpt>
      <trkpt lat="42.83472" lon="0.57087">
        <ele>1807.466</ele>
        <time>2021-03-21T09:56:48Z</time>
      </trkpt>
      <trkpt lat="42.83474" lon="0.57087">
        <ele>1807.727</ele>
        <time>2021-03-21T09:56:50Z</time>
      </trkpt>
      <trkpt lat="42.83475" lon="0.57086">
        <ele>1807.636</ele>
        <time>2021-03-21T09:56:52Z</time>
      </trkpt>
      <trkpt lat="42.83476" lon="0.57086">
        <ele>1807.913</ele>
        <time>2021-03-21T09:56:54Z</time>
      </trkpt>
      <trkpt lat="42.83478" lon="0.57086">
        <ele>1807.866</ele>
        <time>2021-03-21T09:56:56Z</time>
      </trkpt>
      <trkpt lat="42.8348" lon="0.57085">
        <ele>1807.973</ele>
        <time>2021-03-21T09:56:58Z</time>
      </trkpt>
      <trkpt lat="42.83481" lon="0.57085">
        <ele>1808.802</ele>
        <time>2021-03-21T09:57:00Z</time>
      </trkpt>
      <trkpt lat="42.83483" lon="0.57084">
        <ele>1808.973</ele>
        <time>2021-03-21T09:57:02Z</time>
      </trkpt>
      <trkpt lat="42.83484" lon="0.57084">
        <ele>1809.16</ele>
        <time>2021-03-21T09:57:04Z</time>
      </trkpt>
      <trkpt lat="42.83486" lon="0.57083">
        <ele>1809.87</ele>
        <time>2021-03-21T09:57:06Z</time>
      </trkpt>
      <trkpt lat="42.83487" lon="0.57083">
        <ele>1810.176</ele>
        <time>2021-03-21T09:57:08Z</time>
      </trkpt>
      <trkpt lat="42.83489" lon="0.57083">
        <ele>1810.582</ele>
        <time>2021-03-21T09:57:10Z</time>
      </trkpt>
      <trkpt lat="42.8349" lon="0.57083">
        <ele>1811.396</ele>
        <time>2021-03-21T09:57:12Z</time>
      </trkpt>
      <trkpt lat="42.83491" lon="0.57083">
        <ele>1811.878</ele>
        <time>2021-03-21T09:57:14Z</time>
      </trkpt>
      <trkpt lat="42.83492" lon="0.57082">
        <ele>1811.707</ele>
        <time>2021-03-21T09:57:16Z</time>
      </trkpt>
      <trkpt lat="42.83494" lon="0.57082">
        <ele>1811.795</ele>
        <time>2021-03-21T09:57:18Z</time>
      </trkpt>
      <trkpt lat="42.83495" lon="0.57082">
        <ele>1812.161</ele>
        <time>2021-03-21T09:57:20Z</time>
      </trkpt>
      <trkpt lat="42.83497" lon="0.57081">
        <ele>1812.291</ele>
        <time>2021-03-21T09:57:22Z</time>
      </trkpt>
      <trkpt lat="42.83498" lon="0.5708">
        <ele>1813.203</ele>
        <time>2021-03-21T09:57:24Z</time>
      </trkpt>
      <trkpt lat="42.835" lon="0.5708">
        <ele>1812.977</ele>
        <time>2021-03-21T09:57:26Z</time>
      </trkpt>
      <trkpt lat="42.83501" lon="0.5708">
        <ele>1813.358</ele>
        <time>2021-03-21T09:57:28Z</time>
      </trkpt>
      <trkpt lat="42.83502" lon="0.5708">
        <ele>1813.454</ele>
        <time>2021-03-21T09:57:30Z</time>
      </trkpt>
      <trkpt lat="42.83503" lon="0.57079">
        <ele>1813.705</ele>
        <time>2021-03-21T09:57:32Z</time>
      </trkpt>
      <trkpt lat="42.83504" lon="0.57079">
        <ele>1813.801</ele>
        <time>2021-03-21T09:57:34Z</time>
      </trkpt>
      <trkpt lat="42.83505" lon="0.57078">
        <ele>1814.085</ele>
        <time>2021-03-21T09:57:36Z</time>
      </trkpt>
      <trkpt lat="42.83506" lon="0.57078">
        <ele>1813.836</ele>
        <time>2021-03-21T09:57:38Z</time>
      </trkpt>
      <trkpt lat="42.83507" lon="0.57077">
        <ele>1814.507</ele>
        <time>2021-03-21T09:57:40Z</time>
      </trkpt>
      <trkpt lat="42.83508" lon="0.57077">
        <ele>1814.717</ele>
        <time>2021-03-21T09:57:42Z</time>
      </trkpt>
      <trkpt lat="42.83509" lon="0.57077">
        <ele>1814.865</ele>
        <time>2021-03-21T09:57:44Z</time>
      </trkpt>
      <trkpt lat="42.8351" lon="0.57076">
        <ele>1815.521</ele>
        <time>2021-03-21T09:57:46Z</time>
      </trkpt>
      <trkpt lat="42.83511" lon="0.57075">
        <ele>1815.495</ele>
        <time>2021-03-21T09:57:48Z</time>
      </trkpt>
      <trkpt lat="42.83512" lon="0.57074">
        <ele>1815.362</ele>
        <time>2021-03-21T09:57:50Z</time>
      </trkpt>
      <trkpt lat="42.83512" lon="0.57073">
        <ele>1815.818</ele>
        <time>2021-03-21T09:57:52Z</time>
      </trkpt>
      <trkpt lat="42.83513" lon="0.57072">
        <ele>1816.259</ele>
        <time>2021-03-21T09:57:54Z</time>
      </trkpt>
      <trkpt lat="42.83514" lon="0.57071">
        <ele>1816.276</ele>
        <time>2021-03-21T09:57:56Z</time>
      </trkpt>
      <trkpt lat="42.83515" lon="0.5707">
        <ele>1817.049</ele>
        <time>2021-03-21T09:57:58Z</time>
      </trkpt>
      <trkpt lat="42.83515" lon="0.57069">
        <ele>1817.208</ele>
        <time>2021-03-21T09:58:00Z</time>
      </trkpt>
      <trkpt lat="42.83516" lon="0.57068">
        <ele>1817.313</ele>
        <time>2021-03-21T09:58:02Z</time>
      </trkpt>
      <trkpt lat="42.83517" lon="0.57067">
        <ele>1817.098</ele>
        <time>2021-03-21T09:58:04Z</time>
      </trkpt>
      <trkpt lat="42.83517" lon="0.57066">
        <ele>1817.47</ele>
        <time>2021-03-21T09:58:06Z</time>
      </trkpt>
      <trkpt lat="42.83517" lon="0.57065">
        <ele>1817.792</ele>
        <time>2021-03-21T09:58:08Z</time>
      </trkpt>
      <trkpt lat="42.83518" lon="0.57064">
        <ele>1818.189</ele>
        <time>2021-03-21T09:58:10Z</time>
      </trkpt>
      <trkpt lat="42.83519" lon="0.57063">
        <ele>1818.17</ele>
        <time>2021-03-21T09:58:12Z</time>
      </trkpt>
      <trkpt lat="42.8352" lon="0.57063">
        <ele>1817.939</ele>
        <time>2021-03-21T09:58:14Z</time>
      </trkpt>
      <trkpt lat="42.83521" lon="0.57062">
        <ele>1818.17</ele>
        <time>2021-03-21T09:58:16Z</time>
      </trkpt>
      <trkpt lat="42.83522" lon="0.57062">
        <ele>1818.613</ele>
        <time>2021-03-21T09:58:18Z</time>
      </trkpt>
      <trkpt lat="42.83523" lon="0.57061">
        <ele>1818.814</ele>
        <time>2021-03-21T09:58:20Z</time>
      </trkpt>
      <trkpt lat="42.83524" lon="0.5706">
        <ele>1818.658</ele>
        <time>2021-03-21T09:58:22Z</time>
      </trkpt>
      <trkpt lat="42.83525" lon="0.57059">
        <ele>1818.854</ele>
        <time>2021-03-21T09:58:24Z</time>
      </trkpt>
      <trkpt lat="42.83526" lon="0.57059">
        <ele>1819.201</ele>
        <time>2021-03-21T09:58:26Z</time>
      </trkpt>
      <trkpt lat="42.83527" lon="0.57059">
        <ele>1819.371</ele>
        <time>2021-03-21T09:58:28Z</time>
      </trkpt>
      <trkpt lat="42.83528" lon="0.57059">
        <ele>1819.924</ele>
        <time>2021-03-21T09:58:30Z</time>
      </trkpt>
      <trkpt lat="42.83529" lon="0.57059">
        <ele>1820.305</ele>
        <time>2021-03-21T09:58:32Z</time>
      </trkpt>
      <trkpt lat="42.8353" lon="0.57059">
        <ele>1820.427</ele>
        <time>2021-03-21T09:58:34Z</time>
      </trkpt>
      <trkpt lat="42.83531" lon="0.57058">
        <ele>1820.169</ele>
        <time>2021-03-21T09:58:36Z</time>
      </trkpt>
      <trkpt lat="42.83532" lon="0.57058">
        <ele>1820.642</ele>
        <time>2021-03-21T09:58:38Z</time>
      </trkpt>
      <trkpt lat="42.83534" lon="0.57058">
        <ele>1821.249</ele>
        <time>2021-03-21T09:58:40Z</time>
      </trkpt>
      <trkpt lat="42.83535" lon="0.57059">
        <ele>1821.681</ele>
        <time>2021-03-21T09:58:42Z</time>
      </trkpt>
      <trkpt lat="42.83536" lon="0.57059">
        <ele>1822.116</ele>
        <time>2021-03-21T09:58:44Z</time>
      </trkpt>
      <trkpt lat="42.83537" lon="0.57059">
        <ele>1822.228</ele>
        <time>2021-03-21T09:58:46Z</time>
      </trkpt>
      <trkpt lat="42.83537" lon="0.57059">
        <ele>1822.504</ele>
        <time>2021-03-21T09:58:48Z</time>
      </trkpt>
      <trkpt lat="42.83539" lon="0.5706">
        <ele>1822.755</ele>
        <time>2021-03-21T09:58:50Z</time>
      </trkpt>
      <trkpt lat="42.8354" lon="0.5706">
        <ele>1822.964</ele>
        <time>2021-03-21T09:58:52Z</time>
      </trkpt>
      <trkpt lat="42.83541" lon="0.57061">
        <ele>1823.425</ele>
        <time>2021-03-21T09:58:54Z</time>
      </trkpt>
      <trkpt lat="42.83542" lon="0.57061">
        <ele>1823.234</ele>
        <time>2021-03-21T09:58:56Z</time>
      </trkpt>
      <trkpt lat="42.83543" lon="0.57062">
        <ele>1823.15</ele>
        <time>2021-03-21T09:58:58Z</time>
      </trkpt>
      <trkpt lat="42.83544" lon="0.57062">
        <ele>1823.71</ele>
        <time>2021-03-21T09:59:00Z</time>
      </trkpt>
      <trkpt lat="42.83545" lon="0.57062">
        <ele>1823.971</ele>
        <time>2021-03-21T09:59:02Z</time>
      </trkpt>
      <trkpt lat="42.83545" lon="0.5706">
        <ele>1824.794</ele>
        <time>2021-03-21T09:59:04Z</time>
      </trkpt>
      <trkpt lat="42.83545" lon="0.5706">
        <ele>1824.73</ele>
        <time>2021-03-21T09:59:06Z</time>
      </trkpt>
      <trkpt lat="42.83546" lon="0.57061">
        <ele>1824.473</ele>
        <time>2021-03-21T09:59:08Z</time>
      </trkpt>
      <trkpt lat="42.83548" lon="0.5706">
        <ele>1824.339</ele>
        <time>2021-03-21T09:59:10Z</time>
      </trkpt>
      <trkpt lat="42.83549" lon="0.57061">
        <ele>1824.686</ele>
        <time>2021-03-21T09:59:12Z</time>
      </trkpt>
      <trkpt lat="42.8355" lon="0.57062">
        <ele>1824.618</ele>
        <time>2021-03-21T09:59:14Z</time>
      </trkpt>
      <trkpt lat="42.83552" lon="0.57063">
        <ele>1824.917</ele>
        <time>2021-03-21T09:59:16Z</time>
      </trkpt>
      <trkpt lat="42.83553" lon="0.57064">
        <ele>1825.428</ele>
        <time>2021-03-21T09:59:18Z</time>
      </trkpt>
      <trkpt lat="42.83555" lon="0.57064">
        <ele>1826.069</ele>
        <time>2021-03-21T09:59:20Z</time>
      </trkpt>
      <trkpt lat="42.83556" lon="0.57065">
        <ele>1826.458</ele>
        <time>2021-03-21T09:59:22Z</time>
      </trkpt>
      <trkpt lat="42.83558" lon="0.57066">
        <ele>1826.942</ele>
        <time>2021-03-21T09:59:24Z</time>
      </trkpt>
      <trkpt lat="42.83559" lon="0.57067">
        <ele>1827.23</ele>
        <time>2021-03-21T09:59:26Z</time>
      </trkpt>
      <trkpt lat="42.83561" lon="0.57068">
        <ele>1827.904</ele>
        <time>2021-03-21T09:59:28Z</time>
      </trkpt>
      <trkpt lat="42.83562" lon="0.57068">
        <ele>1828.933</ele>
        <time>2021-03-21T09:59:30Z</time>
      </trkpt>
      <trkpt lat="42.83562" lon="0.57067">
        <ele>1828.43</ele>
        <time>2021-03-21T09:59:32Z</time>
      </trkpt>
      <trkpt lat="42.83562" lon="0.57067">
        <ele>1828.412</ele>
        <time>2021-03-21T09:59:34Z</time>
      </trkpt>
      <trkpt lat="42.83562" lon="0.57067">
        <ele>1828.472</ele>
        <time>2021-03-21T09:59:36Z</time>
      </trkpt>
      <trkpt lat="42.83562" lon="0.57067">
        <ele>1828.468</ele>
        <time>2021-03-21T09:59:38Z</time>
      </trkpt>
      <trkpt lat="42.83562" lon="0.57067">
        <ele>1828.468</ele>
        <time>2021-03-21T09:59:40Z</time>
      </trkpt>
      <trkpt lat="42.83563" lon="0.57067">
        <ele>1828.727</ele>
        <time>2021-03-21T09:59:42Z</time>
      </trkpt>
      <trkpt lat="42.83564" lon="0.57068">
        <ele>1828.304</ele>
        <time>2021-03-21T09:59:44Z</time>
      </trkpt>
      <trkpt lat="42.83565" lon="0.57069">
        <ele>1827.882</ele>
        <time>2021-03-21T09:59:46Z</time>
      </trkpt>
      <trkpt lat="42.83566" lon="0.5707">
        <ele>1828.667</ele>
        <time>2021-03-21T09:59:48Z</time>
      </trkpt>
      <trkpt lat="42.83568" lon="0.57071">
        <ele>1828.734</ele>
        <time>2021-03-21T09:59:50Z</time>
      </trkpt>
      <trkpt lat="42.83569" lon="0.57071">
        <ele>1828.158</ele>
        <time>2021-03-21T09:59:52Z</time>
      </trkpt>
      <trkpt lat="42.83571" lon="0.57072">
        <ele>1829.05</ele>
        <time>2021-03-21T09:59:54Z</time>
      </trkpt>
      <trkpt lat="42.83572" lon="0.57073">
        <ele>1829.026</ele>
        <time>2021-03-21T09:59:56Z</time>
      </trkpt>
      <trkpt lat="42.83573" lon="0.57075">
        <ele>1829.115</ele>
        <time>2021-03-21T09:59:58Z</time>
      </trkpt>
      <trkpt lat="42.83574" lon="0.57076">
        <ele>1828.894</ele>
        <time>2021-03-21T10:00:00Z</time>
      </trkpt>
      <trkpt lat="42.83576" lon="0.57077">
        <ele>1829.327</ele>
        <time>2021-03-21T10:00:02Z</time>
      </trkpt>
      <trkpt lat="42.83578" lon="0.57077">
        <ele>1829.7</ele>
        <time>2021-03-21T10:00:05Z</time>
      </trkpt>
      <trkpt lat="42.8358" lon="0.57078">
        <ele>1830.175</ele>
        <time>2021-03-21T10:00:08Z</time>
      </trkpt>
      <trkpt lat="42.83582" lon="0.57078">
        <ele>1829.88</ele>
        <time>2021-03-21T10:00:10Z</time>
      </trkpt>
      <trkpt lat="42.83583" lon="0.57078">
        <ele>1829.96</ele>
        <time>2021-03-21T10:00:11Z</time>
      </trkpt>
      <trkpt lat="42.83587" lon="0.57078">
        <ele>1829.628</ele>
        <time>2021-03-21T10:00:17Z</time>
      </trkpt>
      <trkpt lat="42.83589" lon="0.57077">
        <ele>1829.511</ele>
        <time>2021-03-21T10:00:19Z</time>
      </trkpt>
      <trkpt lat="42.8359" lon="0.57077">
        <ele>1829.531</ele>
        <time>2021-03-21T10:00:21Z</time>
      </trkpt>
      <trkpt lat="42.83591" lon="0.57076">
        <ele>1829.126</ele>
        <time>2021-03-21T10:00:23Z</time>
      </trkpt>
      <trkpt lat="42.83593" lon="0.57076">
        <ele>1828.886</ele>
        <time>2021-03-21T10:00:25Z</time>
      </trkpt>
      <trkpt lat="42.83594" lon="0.57075">
        <ele>1828.825</ele>
        <time>2021-03-21T10:00:27Z</time>
      </trkpt>
      <trkpt lat="42.83596" lon="0.57075">
        <ele>1828.489</ele>
        <time>2021-03-21T10:00:29Z</time>
      </trkpt>
      <trkpt lat="42.83597" lon="0.57075">
        <ele>1828.74</ele>
        <time>2021-03-21T10:00:31Z</time>
      </trkpt>
      <trkpt lat="42.83599" lon="0.57075">
        <ele>1828.543</ele>
        <time>2021-03-21T10:00:33Z</time>
      </trkpt>
      <trkpt lat="42.836" lon="0.57074">
        <ele>1828.869</ele>
        <time>2021-03-21T10:00:35Z</time>
      </trkpt>
      <trkpt lat="42.83602" lon="0.57073">
        <ele>1828.344</ele>
        <time>2021-03-21T10:00:37Z</time>
      </trkpt>
      <trkpt lat="42.83603" lon="0.57073">
        <ele>1828.314</ele>
        <time>2021-03-21T10:00:39Z</time>
      </trkpt>
      <trkpt lat="42.83605" lon="0.57072">
        <ele>1828.621</ele>
        <time>2021-03-21T10:00:41Z</time>
      </trkpt>
      <trkpt lat="42.83606" lon="0.57072">
        <ele>1828.299</ele>
        <time>2021-03-21T10:00:43Z</time>
      </trkpt>
      <trkpt lat="42.83608" lon="0.57071">
        <ele>1828.294</ele>
        <time>2021-03-21T10:00:45Z</time>
      </trkpt>
      <trkpt lat="42.83609" lon="0.57071">
        <ele>1828.285</ele>
        <time>2021-03-21T10:00:47Z</time>
      </trkpt>
      <trkpt lat="42.83611" lon="0.57071">
        <ele>1828.904</ele>
        <time>2021-03-21T10:00:49Z</time>
      </trkpt>
      <trkpt lat="42.83613" lon="0.57071">
        <ele>1829.245</ele>
        <time>2021-03-21T10:00:51Z</time>
      </trkpt>
      <trkpt lat="42.83614" lon="0.57071">
        <ele>1830.195</ele>
        <time>2021-03-21T10:00:53Z</time>
      </trkpt>
      <trkpt lat="42.83616" lon="0.57071">
        <ele>1830.379</ele>
        <time>2021-03-21T10:00:55Z</time>
      </trkpt>
      <trkpt lat="42.83617" lon="0.57071">
        <ele>1831.155</ele>
        <time>2021-03-21T10:00:57Z</time>
      </trkpt>
      <trkpt lat="42.83619" lon="0.57071">
        <ele>1831.909</ele>
        <time>2021-03-21T10:00:59Z</time>
      </trkpt>
      <trkpt lat="42.8362" lon="0.5707">
        <ele>1832.309</ele>
        <time>2021-03-21T10:01:01Z</time>
      </trkpt>
      <trkpt lat="42.83621" lon="0.5707">
        <ele>1832.79</ele>
        <time>2021-03-21T10:01:03Z</time>
      </trkpt>
      <trkpt lat="42.83622" lon="0.57071">
        <ele>1832.887</ele>
        <time>2021-03-21T10:01:05Z</time>
      </trkpt>
      <trkpt lat="42.83623" lon="0.57071">
        <ele>1832.969</ele>
        <time>2021-03-21T10:01:07Z</time>
      </trkpt>
      <trkpt lat="42.83625" lon="0.5707">
        <ele>1832.9</ele>
        <time>2021-03-21T10:01:09Z</time>
      </trkpt>
      <trkpt lat="42.83626" lon="0.5707">
        <ele>1833.411</ele>
        <time>2021-03-21T10:01:11Z</time>
      </trkpt>
      <trkpt lat="42.83628" lon="0.5707">
        <ele>1833.5</ele>
        <time>2021-03-21T10:01:13Z</time>
      </trkpt>
      <trkpt lat="42.83629" lon="0.5707">
        <ele>1833.818</ele>
        <time>2021-03-21T10:01:15Z</time>
      </trkpt>
      <trkpt lat="42.83631" lon="0.5707">
        <ele>1833.682</ele>
        <time>2021-03-21T10:01:17Z</time>
      </trkpt>
      <trkpt lat="42.83632" lon="0.57069">
        <ele>1833.528</ele>
        <time>2021-03-21T10:01:19Z</time>
      </trkpt>
      <trkpt lat="42.83634" lon="0.57069">
        <ele>1833.579</ele>
        <time>2021-03-21T10:01:21Z</time>
      </trkpt>
      <trkpt lat="42.83635" lon="0.57068">
        <ele>1832.788</ele>
        <time>2021-03-21T10:01:23Z</time>
      </trkpt>
      <trkpt lat="42.83637" lon="0.57068">
        <ele>1832.919</ele>
        <time>2021-03-21T10:01:25Z</time>
      </trkpt>
      <trkpt lat="42.83638" lon="0.57067">
        <ele>1832.602</ele>
        <time>2021-03-21T10:01:27Z</time>
      </trkpt>
      <trkpt lat="42.8364" lon="0.57066">
        <ele>1832.298</ele>
        <time>2021-03-21T10:01:29Z</time>
      </trkpt>
      <trkpt lat="42.83642" lon="0.57065">
        <ele>1831.954</ele>
        <time>2021-03-21T10:01:31Z</time>
      </trkpt>
      <trkpt lat="42.83643" lon="0.57065">
        <ele>1831.982</ele>
        <time>2021-03-21T10:01:33Z</time>
      </trkpt>
      <trkpt lat="42.83645" lon="0.57064">
        <ele>1832.026</ele>
        <time>2021-03-21T10:01:35Z</time>
      </trkpt>
      <trkpt lat="42.83646" lon="0.57063">
        <ele>1831.471</ele>
        <time>2021-03-21T10:01:37Z</time>
      </trkpt>
      <trkpt lat="42.83648" lon="0.57062">
        <ele>1830.974</ele>
        <time>2021-03-21T10:01:39Z</time>
      </trkpt>
      <trkpt lat="42.8365" lon="0.57061">
        <ele>1830.516</ele>
        <time>2021-03-21T10:01:41Z</time>
      </trkpt>
      <trkpt lat="42.83652" lon="0.57061">
        <ele>1831.119</ele>
        <time>2021-03-21T10:01:43Z</time>
      </trkpt>
      <trkpt lat="42.83653" lon="0.5706">
        <ele>1831.116</ele>
        <time>2021-03-21T10:01:45Z</time>
      </trkpt>
      <trkpt lat="42.83656" lon="0.57059">
        <ele>1831.122</ele>
        <time>2021-03-21T10:01:47Z</time>
      </trkpt>
      <trkpt lat="42.83657" lon="0.57058">
        <ele>1831.026</ele>
        <time>2021-03-21T10:01:49Z</time>
      </trkpt>
      <trkpt lat="42.83659" lon="0.57057">
        <ele>1830.517</ele>
        <time>2021-03-21T10:01:51Z</time>
      </trkpt>
      <trkpt lat="42.83661" lon="0.57056">
        <ele>1830.106</ele>
        <time>2021-03-21T10:01:53Z</time>
      </trkpt>
      <trkpt lat="42.83663" lon="0.57055">
        <ele>1829.746</ele>
        <time>2021-03-21T10:01:55Z</time>
      </trkpt>
      <trkpt lat="42.83665" lon="0.57055">
        <ele>1829.347</ele>
        <time>2021-03-21T10:01:57Z</time>
      </trkpt>
      <trkpt lat="42.83666" lon="0.57054">
        <ele>1829.058</ele>
        <time>2021-03-21T10:01:58Z</time>
      </trkpt>
      <trkpt lat="42.83668" lon="0.57053">
        <ele>1828.232</ele>
        <time>2021-03-21T10:02:01Z</time>
      </trkpt>
      <trkpt lat="42.8367" lon="0.57052">
        <ele>1827.61</ele>
        <time>2021-03-21T10:02:03Z</time>
      </trkpt>
      <trkpt lat="42.83672" lon="0.57051">
        <ele>1827.441</ele>
        <time>2021-03-21T10:02:05Z</time>
      </trkpt>
      <trkpt lat="42.83673" lon="0.5705">
        <ele>1827.25</ele>
        <time>2021-03-21T10:02:07Z</time>
      </trkpt>
      <trkpt lat="42.8368" lon="0.57048">
        <ele>1825.839</ele>
        <time>2021-03-21T10:02:14Z</time>
      </trkpt>
      <trkpt lat="42.83681" lon="0.57047">
        <ele>1825.758</ele>
        <time>2021-03-21T10:02:16Z</time>
      </trkpt>
      <trkpt lat="42.83683" lon="0.57047">
        <ele>1825.267</ele>
        <time>2021-03-21T10:02:18Z</time>
      </trkpt>
      <trkpt lat="42.83685" lon="0.57046">
        <ele>1825.274</ele>
        <time>2021-03-21T10:02:20Z</time>
      </trkpt>
      <trkpt lat="42.83687" lon="0.57045">
        <ele>1825.012</ele>
        <time>2021-03-21T10:02:22Z</time>
      </trkpt>
      <trkpt lat="42.83688" lon="0.57044">
        <ele>1824.857</ele>
        <time>2021-03-21T10:02:24Z</time>
      </trkpt>
      <trkpt lat="42.8369" lon="0.57043">
        <ele>1824.133</ele>
        <time>2021-03-21T10:02:26Z</time>
      </trkpt>
      <trkpt lat="42.83692" lon="0.57042">
        <ele>1824.628</ele>
        <time>2021-03-21T10:02:28Z</time>
      </trkpt>
      <trkpt lat="42.83695" lon="0.57042">
        <ele>1824.57</ele>
        <time>2021-03-21T10:02:30Z</time>
      </trkpt>
      <trkpt lat="42.83697" lon="0.57041">
        <ele>1824.479</ele>
        <time>2021-03-21T10:02:32Z</time>
      </trkpt>
      <trkpt lat="42.83699" lon="0.5704">
        <ele>1824.117</ele>
        <time>2021-03-21T10:02:34Z</time>
      </trkpt>
      <trkpt lat="42.83702" lon="0.57039">
        <ele>1823.98</ele>
        <time>2021-03-21T10:02:36Z</time>
      </trkpt>
      <trkpt lat="42.83704" lon="0.57038">
        <ele>1824.086</ele>
        <time>2021-03-21T10:02:38Z</time>
      </trkpt>
      <trkpt lat="42.83706" lon="0.57036">
        <ele>1824.133</ele>
        <time>2021-03-21T10:02:40Z</time>
      </trkpt>
      <trkpt lat="42.83708" lon="0.57035">
        <ele>1824.278</ele>
        <time>2021-03-21T10:02:42Z</time>
      </trkpt>
      <trkpt lat="42.8371" lon="0.57034">
        <ele>1824.658</ele>
        <time>2021-03-21T10:02:44Z</time>
      </trkpt>
      <trkpt lat="42.83712" lon="0.57033">
        <ele>1824.493</ele>
        <time>2021-03-21T10:02:46Z</time>
      </trkpt>
      <trkpt lat="42.83715" lon="0.57031">
        <ele>1824.587</ele>
        <time>2021-03-21T10:02:48Z</time>
      </trkpt>
      <trkpt lat="42.83717" lon="0.57031">
        <ele>1824.278</ele>
        <time>2021-03-21T10:02:50Z</time>
      </trkpt>
      <trkpt lat="42.83719" lon="0.5703">
        <ele>1824.483</ele>
        <time>2021-03-21T10:02:52Z</time>
      </trkpt>
      <trkpt lat="42.83721" lon="0.57029">
        <ele>1825.041</ele>
        <time>2021-03-21T10:02:54Z</time>
      </trkpt>
      <trkpt lat="42.83723" lon="0.57028">
        <ele>1824.865</ele>
        <time>2021-03-21T10:02:56Z</time>
      </trkpt>
      <trkpt lat="42.83725" lon="0.57027">
        <ele>1825.024</ele>
        <time>2021-03-21T10:02:58Z</time>
      </trkpt>
      <trkpt lat="42.83727" lon="0.57026">
        <ele>1825.511</ele>
        <time>2021-03-21T10:03:00Z</time>
      </trkpt>
      <trkpt lat="42.83729" lon="0.57025">
        <ele>1826.006</ele>
        <time>2021-03-21T10:03:02Z</time>
      </trkpt>
      <trkpt lat="42.8373" lon="0.57024">
        <ele>1825.547</ele>
        <time>2021-03-21T10:03:04Z</time>
      </trkpt>
      <trkpt lat="42.83732" lon="0.57023">
        <ele>1825.967</ele>
        <time>2021-03-21T10:03:06Z</time>
      </trkpt>
      <trkpt lat="42.83734" lon="0.57022">
        <ele>1825.864</ele>
        <time>2021-03-21T10:03:08Z</time>
      </trkpt>
      <trkpt lat="42.83736" lon="0.57021">
        <ele>1825.985</ele>
        <time>2021-03-21T10:03:10Z</time>
      </trkpt>
      <trkpt lat="42.83737" lon="0.5702">
        <ele>1825.955</ele>
        <time>2021-03-21T10:03:12Z</time>
      </trkpt>
      <trkpt lat="42.83739" lon="0.57019">
        <ele>1826.608</ele>
        <time>2021-03-21T10:03:14Z</time>
      </trkpt>
      <trkpt lat="42.83741" lon="0.57018">
        <ele>1826.959</ele>
        <time>2021-03-21T10:03:16Z</time>
      </trkpt>
      <trkpt lat="42.83742" lon="0.57018">
        <ele>1826.752</ele>
        <time>2021-03-21T10:03:18Z</time>
      </trkpt>
      <trkpt lat="42.83744" lon="0.57017">
        <ele>1826.704</ele>
        <time>2021-03-21T10:03:20Z</time>
      </trkpt>
      <trkpt lat="42.83745" lon="0.57017">
        <ele>1826.548</ele>
        <time>2021-03-21T10:03:22Z</time>
      </trkpt>
      <trkpt lat="42.83747" lon="0.57017">
        <ele>1826.631</ele>
        <time>2021-03-21T10:03:24Z</time>
      </trkpt>
      <trkpt lat="42.83749" lon="0.57017">
        <ele>1826.759</ele>
        <time>2021-03-21T10:03:26Z</time>
      </trkpt>
      <trkpt lat="42.83751" lon="0.57017">
        <ele>1826.257</ele>
        <time>2021-03-21T10:03:28Z</time>
      </trkpt>
      <trkpt lat="42.83753" lon="0.57016">
        <ele>1826.157</ele>
        <time>2021-03-21T10:03:30Z</time>
      </trkpt>
      <trkpt lat="42.83755" lon="0.57016">
        <ele>1826.173</ele>
        <time>2021-03-21T10:03:32Z</time>
      </trkpt>
      <trkpt lat="42.83757" lon="0.57015">
        <ele>1826.189</ele>
        <time>2021-03-21T10:03:34Z</time>
      </trkpt>
      <trkpt lat="42.83759" lon="0.57015">
        <ele>1826.373</ele>
        <time>2021-03-21T10:03:36Z</time>
      </trkpt>
      <trkpt lat="42.83761" lon="0.57015">
        <ele>1826.005</ele>
        <time>2021-03-21T10:03:38Z</time>
      </trkpt>
      <trkpt lat="42.83763" lon="0.57014">
        <ele>1826.065</ele>
        <time>2021-03-21T10:03:40Z</time>
      </trkpt>
      <trkpt lat="42.83765" lon="0.57013">
        <ele>1825.654</ele>
        <time>2021-03-21T10:03:42Z</time>
      </trkpt>
      <trkpt lat="42.83767" lon="0.57012">
        <ele>1825.323</ele>
        <time>2021-03-21T10:03:44Z</time>
      </trkpt>
      <trkpt lat="42.83769" lon="0.57011">
        <ele>1825.369</ele>
        <time>2021-03-21T10:03:46Z</time>
      </trkpt>
      <trkpt lat="42.83771" lon="0.57011">
        <ele>1825.3</ele>
        <time>2021-03-21T10:03:48Z</time>
      </trkpt>
      <trkpt lat="42.83773" lon="0.5701">
        <ele>1825.709</ele>
        <time>2021-03-21T10:03:50Z</time>
      </trkpt>
      <trkpt lat="42.83776" lon="0.5701">
        <ele>1825.901</ele>
        <time>2021-03-21T10:03:52Z</time>
      </trkpt>
      <trkpt lat="42.83778" lon="0.5701">
        <ele>1825.708</ele>
        <time>2021-03-21T10:03:54Z</time>
      </trkpt>
      <trkpt lat="42.8378" lon="0.57009">
        <ele>1826.291</ele>
        <time>2021-03-21T10:03:56Z</time>
      </trkpt>
      <trkpt lat="42.83782" lon="0.57009">
        <ele>1826.34</ele>
        <time>2021-03-21T10:03:58Z</time>
      </trkpt>
      <trkpt lat="42.83784" lon="0.57009">
        <ele>1826.454</ele>
        <time>2021-03-21T10:04:00Z</time>
      </trkpt>
      <trkpt lat="42.83786" lon="0.57009">
        <ele>1826.164</ele>
        <time>2021-03-21T10:04:02Z</time>
      </trkpt>
      <trkpt lat="42.83788" lon="0.5701">
        <ele>1826.24</ele>
        <time>2021-03-21T10:04:04Z</time>
      </trkpt>
      <trkpt lat="42.8379" lon="0.5701">
        <ele>1826.484</ele>
        <time>2021-03-21T10:04:06Z</time>
      </trkpt>
      <trkpt lat="42.83792" lon="0.5701">
        <ele>1826.575</ele>
        <time>2021-03-21T10:04:08Z</time>
      </trkpt>
      <trkpt lat="42.83793" lon="0.5701">
        <ele>1826.581</ele>
        <time>2021-03-21T10:04:10Z</time>
      </trkpt>
      <trkpt lat="42.83795" lon="0.57009">
        <ele>1826.917</ele>
        <time>2021-03-21T10:04:12Z</time>
      </trkpt>
      <trkpt lat="42.83797" lon="0.57008">
        <ele>1827.374</ele>
        <time>2021-03-21T10:04:14Z</time>
      </trkpt>
      <trkpt lat="42.83798" lon="0.57007">
        <ele>1827.928</ele>
        <time>2021-03-21T10:04:16Z</time>
      </trkpt>
      <trkpt lat="42.838" lon="0.57006">
        <ele>1828.552</ele>
        <time>2021-03-21T10:04:18Z</time>
      </trkpt>
      <trkpt lat="42.83801" lon="0.57005">
        <ele>1828.992</ele>
        <time>2021-03-21T10:04:20Z</time>
      </trkpt>
      <trkpt lat="42.83802" lon="0.57003">
        <ele>1829.46</ele>
        <time>2021-03-21T10:04:22Z</time>
      </trkpt>
      <trkpt lat="42.83805" lon="0.57">
        <ele>1829.524</ele>
        <time>2021-03-21T10:04:24Z</time>
      </trkpt>
      <trkpt lat="42.83805" lon="0.56999">
        <ele>1829.776</ele>
        <time>2021-03-21T10:04:26Z</time>
      </trkpt>
      <trkpt lat="42.83807" lon="0.56999">
        <ele>1830.366</ele>
        <time>2021-03-21T10:04:28Z</time>
      </trkpt>
      <trkpt lat="42.83808" lon="0.56999">
        <ele>1830.936</ele>
        <time>2021-03-21T10:04:30Z</time>
      </trkpt>
      <trkpt lat="42.83809" lon="0.57">
        <ele>1831.838</ele>
        <time>2021-03-21T10:04:32Z</time>
      </trkpt>
      <trkpt lat="42.8381" lon="0.57">
        <ele>1832.389</ele>
        <time>2021-03-21T10:04:34Z</time>
      </trkpt>
      <trkpt lat="42.83811" lon="0.57001">
        <ele>1832.112</ele>
        <time>2021-03-21T10:04:36Z</time>
      </trkpt>
      <trkpt lat="42.83812" lon="0.57002">
        <ele>1832.055</ele>
        <time>2021-03-21T10:04:38Z</time>
      </trkpt>
      <trkpt lat="42.83814" lon="0.57002">
        <ele>1832.374</ele>
        <time>2021-03-21T10:04:40Z</time>
      </trkpt>
      <trkpt lat="42.83815" lon="0.57002">
        <ele>1832.948</ele>
        <time>2021-03-21T10:04:42Z</time>
      </trkpt>
      <trkpt lat="42.83816" lon="0.57003">
        <ele>1833.079</ele>
        <time>2021-03-21T10:04:44Z</time>
      </trkpt>
      <trkpt lat="42.83816" lon="0.57004">
        <ele>1832.776</ele>
        <time>2021-03-21T10:04:46Z</time>
      </trkpt>
      <trkpt lat="42.83817" lon="0.57005">
        <ele>1832.222</ele>
        <time>2021-03-21T10:04:48Z</time>
      </trkpt>
      <trkpt lat="42.83817" lon="0.57005">
        <ele>1832.662</ele>
        <time>2021-03-21T10:04:50Z</time>
      </trkpt>
      <trkpt lat="42.83818" lon="0.57005">
        <ele>1833.25</ele>
        <time>2021-03-21T10:04:52Z</time>
      </trkpt>
      <trkpt lat="42.83819" lon="0.57005">
        <ele>1833.658</ele>
        <time>2021-03-21T10:04:54Z</time>
      </trkpt>
      <trkpt lat="42.8382" lon="0.57005">
        <ele>1834.006</ele>
        <time>2021-03-21T10:04:56Z</time>
      </trkpt>
      <trkpt lat="42.8382" lon="0.57005">
        <ele>1833.975</ele>
        <time>2021-03-21T10:04:58Z</time>
      </trkpt>
      <trkpt lat="42.83821" lon="0.57006">
        <ele>1834.289</ele>
        <time>2021-03-21T10:05:00Z</time>
      </trkpt>
      <trkpt lat="42.83823" lon="0.57006">
        <ele>1835.085</ele>
        <time>2021-03-21T10:05:02Z</time>
      </trkpt>
      <trkpt lat="42.83824" lon="0.57006">
        <ele>1835.592</ele>
        <time>2021-03-21T10:05:04Z</time>
      </trkpt>
      <trkpt lat="42.83825" lon="0.57006">
        <ele>1835.409</ele>
        <time>2021-03-21T10:05:06Z</time>
      </trkpt>
      <trkpt lat="42.83825" lon="0.57006">
        <ele>1835.865</ele>
        <time>2021-03-21T10:05:08Z</time>
      </trkpt>
      <trkpt lat="42.83826" lon="0.57005">
        <ele>1836.245</ele>
        <time>2021-03-21T10:05:10Z</time>
      </trkpt>
      <trkpt lat="42.83826" lon="0.57004">
        <ele>1835.939</ele>
        <time>2021-03-21T10:05:12Z</time>
      </trkpt>
      <trkpt lat="42.83827" lon="0.57004">
        <ele>1836.485</ele>
        <time>2021-03-21T10:05:14Z</time>
      </trkpt>
      <trkpt lat="42.83828" lon="0.57003">
        <ele>1836.833</ele>
        <time>2021-03-21T10:05:16Z</time>
      </trkpt>
      <trkpt lat="42.83829" lon="0.57002">
        <ele>1837.11</ele>
        <time>2021-03-21T10:05:18Z</time>
      </trkpt>
      <trkpt lat="42.8383" lon="0.57001">
        <ele>1837.275</ele>
        <time>2021-03-21T10:05:20Z</time>
      </trkpt>
      <trkpt lat="42.8383" lon="0.57">
        <ele>1837.251</ele>
        <time>2021-03-21T10:05:22Z</time>
      </trkpt>
      <trkpt lat="42.83831" lon="0.57">
        <ele>1837.79</ele>
        <time>2021-03-21T10:05:24Z</time>
      </trkpt>
      <trkpt lat="42.83832" lon="0.56999">
        <ele>1837.65</ele>
        <time>2021-03-21T10:05:26Z</time>
      </trkpt>
      <trkpt lat="42.83833" lon="0.56998">
        <ele>1837.655</ele>
        <time>2021-03-21T10:05:28Z</time>
      </trkpt>
      <trkpt lat="42.83834" lon="0.56997">
        <ele>1838.094</ele>
        <time>2021-03-21T10:05:30Z</time>
      </trkpt>
      <trkpt lat="42.83834" lon="0.56996">
        <ele>1838.864</ele>
        <time>2021-03-21T10:05:32Z</time>
      </trkpt>
      <trkpt lat="42.83835" lon="0.56996">
        <ele>1839.108</ele>
        <time>2021-03-21T10:05:34Z</time>
      </trkpt>
      <trkpt lat="42.83836" lon="0.56995">
        <ele>1839.545</ele>
        <time>2021-03-21T10:05:36Z</time>
      </trkpt>
      <trkpt lat="42.83837" lon="0.56994">
        <ele>1839.594</ele>
        <time>2021-03-21T10:05:38Z</time>
      </trkpt>
      <trkpt lat="42.83838" lon="0.56994">
        <ele>1839.689</ele>
        <time>2021-03-21T10:05:40Z</time>
      </trkpt>
      <trkpt lat="42.83838" lon="0.56994">
        <ele>1840.082</ele>
        <time>2021-03-21T10:05:42Z</time>
      </trkpt>
      <trkpt lat="42.83839" lon="0.56994">
        <ele>1839.931</ele>
        <time>2021-03-21T10:05:44Z</time>
      </trkpt>
      <trkpt lat="42.8384" lon="0.56994">
        <ele>1839.766</ele>
        <time>2021-03-21T10:05:46Z</time>
      </trkpt>
      <trkpt lat="42.83841" lon="0.56993">
        <ele>1840.412</ele>
        <time>2021-03-21T10:05:48Z</time>
      </trkpt>
      <trkpt lat="42.83842" lon="0.56993">
        <ele>1840.677</ele>
        <time>2021-03-21T10:05:50Z</time>
      </trkpt>
      <trkpt lat="42.83842" lon="0.56992">
        <ele>1840.955</ele>
        <time>2021-03-21T10:05:52Z</time>
      </trkpt>
      <trkpt lat="42.83843" lon="0.56992">
        <ele>1841.307</ele>
        <time>2021-03-21T10:05:54Z</time>
      </trkpt>
      <trkpt lat="42.83844" lon="0.56992">
        <ele>1841.818</ele>
        <time>2021-03-21T10:05:56Z</time>
      </trkpt>
      <trkpt lat="42.83844" lon="0.56991">
        <ele>1842.109</ele>
        <time>2021-03-21T10:05:58Z</time>
      </trkpt>
      <trkpt lat="42.83845" lon="0.56991">
        <ele>1842.495</ele>
        <time>2021-03-21T10:06:00Z</time>
      </trkpt>
      <trkpt lat="42.83846" lon="0.56991">
        <ele>1842.424</ele>
        <time>2021-03-21T10:06:02Z</time>
      </trkpt>
      <trkpt lat="42.83847" lon="0.56991">
        <ele>1842.778</ele>
        <time>2021-03-21T10:06:04Z</time>
      </trkpt>
      <trkpt lat="42.83847" lon="0.56991">
        <ele>1843.23</ele>
        <time>2021-03-21T10:06:06Z</time>
      </trkpt>
      <trkpt lat="42.83848" lon="0.56991">
        <ele>1843.337</ele>
        <time>2021-03-21T10:06:08Z</time>
      </trkpt>
      <trkpt lat="42.83849" lon="0.56991">
        <ele>1843.574</ele>
        <time>2021-03-21T10:06:10Z</time>
      </trkpt>
      <trkpt lat="42.83849" lon="0.5699">
        <ele>1843.767</ele>
        <time>2021-03-21T10:06:12Z</time>
      </trkpt>
      <trkpt lat="42.8385" lon="0.5699">
        <ele>1844.035</ele>
        <time>2021-03-21T10:06:14Z</time>
      </trkpt>
      <trkpt lat="42.83851" lon="0.56989">
        <ele>1844.324</ele>
        <time>2021-03-21T10:06:16Z</time>
      </trkpt>
      <trkpt lat="42.83852" lon="0.56988">
        <ele>1844.549</ele>
        <time>2021-03-21T10:06:18Z</time>
      </trkpt>
      <trkpt lat="42.83853" lon="0.56987">
        <ele>1845.022</ele>
        <time>2021-03-21T10:06:20Z</time>
      </trkpt>
      <trkpt lat="42.83854" lon="0.56987">
        <ele>1844.891</ele>
        <time>2021-03-21T10:06:22Z</time>
      </trkpt>
      <trkpt lat="42.83855" lon="0.56986">
        <ele>1845.257</ele>
        <time>2021-03-21T10:06:24Z</time>
      </trkpt>
      <trkpt lat="42.83856" lon="0.56986">
        <ele>1845.334</ele>
        <time>2021-03-21T10:06:26Z</time>
      </trkpt>
      <trkpt lat="42.83856" lon="0.56985">
        <ele>1844.954</ele>
        <time>2021-03-21T10:06:28Z</time>
      </trkpt>
      <trkpt lat="42.83857" lon="0.56985">
        <ele>1845.823</ele>
        <time>2021-03-21T10:06:30Z</time>
      </trkpt>
      <trkpt lat="42.83858" lon="0.56984">
        <ele>1846.934</ele>
        <time>2021-03-21T10:06:32Z</time>
      </trkpt>
      <trkpt lat="42.83859" lon="0.56983">
        <ele>1847.11</ele>
        <time>2021-03-21T10:06:34Z</time>
      </trkpt>
      <trkpt lat="42.83859" lon="0.56983">
        <ele>1847.101</ele>
        <time>2021-03-21T10:06:36Z</time>
      </trkpt>
      <trkpt lat="42.83859" lon="0.56983">
        <ele>1847.388</ele>
        <time>2021-03-21T10:06:38Z</time>
      </trkpt>
      <trkpt lat="42.8386" lon="0.56983">
        <ele>1847.622</ele>
        <time>2021-03-21T10:06:40Z</time>
      </trkpt>
      <trkpt lat="42.83861" lon="0.56982">
        <ele>1848.256</ele>
        <time>2021-03-21T10:06:42Z</time>
      </trkpt>
      <trkpt lat="42.83862" lon="0.56981">
        <ele>1848.667</ele>
        <time>2021-03-21T10:06:44Z</time>
      </trkpt>
      <trkpt lat="42.83863" lon="0.5698">
        <ele>1848.82</ele>
        <time>2021-03-21T10:06:46Z</time>
      </trkpt>
      <trkpt lat="42.83864" lon="0.56978">
        <ele>1848.538</ele>
        <time>2021-03-21T10:06:48Z</time>
      </trkpt>
      <trkpt lat="42.83864" lon="0.56977">
        <ele>1848.692</ele>
        <time>2021-03-21T10:06:50Z</time>
      </trkpt>
      <trkpt lat="42.83865" lon="0.56977">
        <ele>1849.118</ele>
        <time>2021-03-21T10:06:52Z</time>
      </trkpt>
      <trkpt lat="42.83866" lon="0.56976">
        <ele>1849.18</ele>
        <time>2021-03-21T10:06:54Z</time>
      </trkpt>
      <trkpt lat="42.83867" lon="0.56976">
        <ele>1849.281</ele>
        <time>2021-03-21T10:06:56Z</time>
      </trkpt>
      <trkpt lat="42.83867" lon="0.56976">
        <ele>1849.275</ele>
        <time>2021-03-21T10:06:58Z</time>
      </trkpt>
      <trkpt lat="42.83867" lon="0.56976">
        <ele>1849.275</ele>
        <time>2021-03-21T10:07:00Z</time>
      </trkpt>
      <trkpt lat="42.83868" lon="0.56976">
        <ele>1849.162</ele>
        <time>2021-03-21T10:07:02Z</time>
      </trkpt>
      <trkpt lat="42.83869" lon="0.56976">
        <ele>1849.386</ele>
        <time>2021-03-21T10:07:04Z</time>
      </trkpt>
      <trkpt lat="42.8387" lon="0.56975">
        <ele>1849.558</ele>
        <time>2021-03-21T10:07:06Z</time>
      </trkpt>
      <trkpt lat="42.83872" lon="0.56975">
        <ele>1849.247</ele>
        <time>2021-03-21T10:07:08Z</time>
      </trkpt>
      <trkpt lat="42.83873" lon="0.56975">
        <ele>1849.813</ele>
        <time>2021-03-21T10:07:10Z</time>
      </trkpt>
      <trkpt lat="42.83873" lon="0.56976">
        <ele>1849.817</ele>
        <time>2021-03-21T10:07:12Z</time>
      </trkpt>
      <trkpt lat="42.83874" lon="0.56976">
        <ele>1850.146</ele>
        <time>2021-03-21T10:07:14Z</time>
      </trkpt>
      <trkpt lat="42.83874" lon="0.56975">
        <ele>1849.848</ele>
        <time>2021-03-21T10:07:16Z</time>
      </trkpt>
      <trkpt lat="42.83876" lon="0.56975">
        <ele>1850.347</ele>
        <time>2021-03-21T10:07:18Z</time>
      </trkpt>
      <trkpt lat="42.83877" lon="0.56975">
        <ele>1850.523</ele>
        <time>2021-03-21T10:07:20Z</time>
      </trkpt>
      <trkpt lat="42.83879" lon="0.56975">
        <ele>1850.58</ele>
        <time>2021-03-21T10:07:22Z</time>
      </trkpt>
      <trkpt lat="42.83881" lon="0.56975">
        <ele>1851.057</ele>
        <time>2021-03-21T10:07:24Z</time>
      </trkpt>
      <trkpt lat="42.83882" lon="0.56975">
        <ele>1850.796</ele>
        <time>2021-03-21T10:07:26Z</time>
      </trkpt>
      <trkpt lat="42.83884" lon="0.56975">
        <ele>1850.049</ele>
        <time>2021-03-21T10:07:28Z</time>
      </trkpt>
      <trkpt lat="42.83885" lon="0.56975">
        <ele>1849.909</ele>
        <time>2021-03-21T10:07:30Z</time>
      </trkpt>
      <trkpt lat="42.83887" lon="0.56975">
        <ele>1849.832</ele>
        <time>2021-03-21T10:07:32Z</time>
      </trkpt>
      <trkpt lat="42.83889" lon="0.56975">
        <ele>1849.133</ele>
        <time>2021-03-21T10:07:34Z</time>
      </trkpt>
      <trkpt lat="42.83891" lon="0.56975">
        <ele>1848.838</ele>
        <time>2021-03-21T10:07:36Z</time>
      </trkpt>
      <trkpt lat="42.83892" lon="0.56975">
        <ele>1847.71</ele>
        <time>2021-03-21T10:07:38Z</time>
      </trkpt>
      <trkpt lat="42.83894" lon="0.56975">
        <ele>1847.51</ele>
        <time>2021-03-21T10:07:40Z</time>
      </trkpt>
      <trkpt lat="42.83896" lon="0.56974">
        <ele>1847.555</ele>
        <time>2021-03-21T10:07:42Z</time>
      </trkpt>
      <trkpt lat="42.83897" lon="0.56974">
        <ele>1847.559</ele>
        <time>2021-03-21T10:07:44Z</time>
      </trkpt>
      <trkpt lat="42.83899" lon="0.56973">
        <ele>1847.035</ele>
        <time>2021-03-21T10:07:46Z</time>
      </trkpt>
      <trkpt lat="42.83901" lon="0.56973">
        <ele>1846.825</ele>
        <time>2021-03-21T10:07:48Z</time>
      </trkpt>
      <trkpt lat="42.83902" lon="0.56972">
        <ele>1846.742</ele>
        <time>2021-03-21T10:07:50Z</time>
      </trkpt>
      <trkpt lat="42.83904" lon="0.56972">
        <ele>1846.805</ele>
        <time>2021-03-21T10:07:52Z</time>
      </trkpt>
      <trkpt lat="42.83906" lon="0.56971">
        <ele>1846.201</ele>
        <time>2021-03-21T10:07:54Z</time>
      </trkpt>
      <trkpt lat="42.83908" lon="0.56971">
        <ele>1845.743</ele>
        <time>2021-03-21T10:07:56Z</time>
      </trkpt>
      <trkpt lat="42.83909" lon="0.5697">
        <ele>1846.055</ele>
        <time>2021-03-21T10:07:58Z</time>
      </trkpt>
      <trkpt lat="42.83911" lon="0.56969">
        <ele>1845.981</ele>
        <time>2021-03-21T10:08:00Z</time>
      </trkpt>
      <trkpt lat="42.83912" lon="0.56969">
        <ele>1845.23</ele>
        <time>2021-03-21T10:08:02Z</time>
      </trkpt>
      <trkpt lat="42.83914" lon="0.56968">
        <ele>1844.947</ele>
        <time>2021-03-21T10:08:04Z</time>
      </trkpt>
      <trkpt lat="42.83915" lon="0.56969">
        <ele>1844.566</ele>
        <time>2021-03-21T10:08:06Z</time>
      </trkpt>
      <trkpt lat="42.83916" lon="0.56969">
        <ele>1844.75</ele>
        <time>2021-03-21T10:08:08Z</time>
      </trkpt>
      <trkpt lat="42.83917" lon="0.5697">
        <ele>1844.367</ele>
        <time>2021-03-21T10:08:10Z</time>
      </trkpt>
      <trkpt lat="42.83918" lon="0.56971">
        <ele>1844.134</ele>
        <time>2021-03-21T10:08:12Z</time>
      </trkpt>
      <trkpt lat="42.83919" lon="0.56971">
        <ele>1844.699</ele>
        <time>2021-03-21T10:08:14Z</time>
      </trkpt>
      <trkpt lat="42.83921" lon="0.56972">
        <ele>1844.797</ele>
        <time>2021-03-21T10:08:16Z</time>
      </trkpt>
      <trkpt lat="42.83922" lon="0.56972">
        <ele>1844.497</ele>
        <time>2021-03-21T10:08:18Z</time>
      </trkpt>
      <trkpt lat="42.83923" lon="0.56972">
        <ele>1844.831</ele>
        <time>2021-03-21T10:08:20Z</time>
      </trkpt>
      <trkpt lat="42.83924" lon="0.56973">
        <ele>1844.619</ele>
        <time>2021-03-21T10:08:22Z</time>
      </trkpt>
      <trkpt lat="42.83925" lon="0.56973">
        <ele>1844.599</ele>
        <time>2021-03-21T10:08:24Z</time>
      </trkpt>
      <trkpt lat="42.83925" lon="0.56973">
        <ele>1844.594</ele>
        <time>2021-03-21T10:08:26Z</time>
      </trkpt>
      <trkpt lat="42.83926" lon="0.56973">
        <ele>1844.247</ele>
        <time>2021-03-21T10:08:28Z</time>
      </trkpt>
      <trkpt lat="42.83927" lon="0.56973">
        <ele>1844.268</ele>
        <time>2021-03-21T10:08:30Z</time>
      </trkpt>
      <trkpt lat="42.83929" lon="0.56972">
        <ele>1844.751</ele>
        <time>2021-03-21T10:08:32Z</time>
      </trkpt>
      <trkpt lat="42.8393" lon="0.56972">
        <ele>1844.999</ele>
        <time>2021-03-21T10:08:34Z</time>
      </trkpt>
      <trkpt lat="42.8393" lon="0.56972">
        <ele>1844.774</ele>
        <time>2021-03-21T10:08:35Z</time>
      </trkpt>
      <trkpt lat="42.83934" lon="0.56974">
        <ele>1844.22</ele>
        <time>2021-03-21T10:08:41Z</time>
      </trkpt>
      <trkpt lat="42.83935" lon="0.56975">
        <ele>1844.291</ele>
        <time>2021-03-21T10:08:43Z</time>
      </trkpt>
      <trkpt lat="42.83936" lon="0.56976">
        <ele>1844.68</ele>
        <time>2021-03-21T10:08:46Z</time>
      </trkpt>
      <trkpt lat="42.83937" lon="0.56977">
        <ele>1844.562</ele>
        <time>2021-03-21T10:08:48Z</time>
      </trkpt>
      <trkpt lat="42.83938" lon="0.56977">
        <ele>1844.316</ele>
        <time>2021-03-21T10:08:50Z</time>
      </trkpt>
      <trkpt lat="42.83939" lon="0.56977">
        <ele>1844.37</ele>
        <time>2021-03-21T10:08:52Z</time>
      </trkpt>
      <trkpt lat="42.8394" lon="0.56978">
        <ele>1844.995</ele>
        <time>2021-03-21T10:08:54Z</time>
      </trkpt>
      <trkpt lat="42.83941" lon="0.56979">
        <ele>1844.833</ele>
        <time>2021-03-21T10:08:56Z</time>
      </trkpt>
      <trkpt lat="42.83941" lon="0.56979">
        <ele>1845.02</ele>
        <time>2021-03-21T10:08:58Z</time>
      </trkpt>
      <trkpt lat="42.83942" lon="0.56978">
        <ele>1845.402</ele>
        <time>2021-03-21T10:09:00Z</time>
      </trkpt>
      <trkpt lat="42.83942" lon="0.56978">
        <ele>1845.399</ele>
        <time>2021-03-21T10:09:02Z</time>
      </trkpt>
      <trkpt lat="42.83942" lon="0.56978">
        <ele>1845.396</ele>
        <time>2021-03-21T10:09:04Z</time>
      </trkpt>
      <trkpt lat="42.83942" lon="0.56978">
        <ele>1845.397</ele>
        <time>2021-03-21T10:09:06Z</time>
      </trkpt>
      <trkpt lat="42.83942" lon="0.56978">
        <ele>1845.4</ele>
        <time>2021-03-21T10:09:08Z</time>
      </trkpt>
      <trkpt lat="42.83942" lon="0.56978">
        <ele>1845.396</ele>
        <time>2021-03-21T10:09:10Z</time>
      </trkpt>
      <trkpt lat="42.83942" lon="0.56978">
        <ele>1845.396</ele>
        <time>2021-03-21T10:09:12Z</time>
      </trkpt>
      <trkpt lat="42.83942" lon="0.56978">
        <ele>1845.076</ele>
        <time>2021-03-21T10:09:14Z</time>
      </trkpt>
      <trkpt lat="42.83942" lon="0.56978">
        <ele>1845.082</ele>
        <time>2021-03-21T10:09:16Z</time>
      </trkpt>
      <trkpt lat="42.83942" lon="0.56978">
        <ele>1845.082</ele>
        <time>2021-03-21T10:09:18Z</time>
      </trkpt>
      <trkpt lat="42.83942" lon="0.56978">
        <ele>1845.079</ele>
        <time>2021-03-21T10:09:20Z</time>
      </trkpt>
      <trkpt lat="42.83942" lon="0.56978">
        <ele>1845.004</ele>
        <time>2021-03-21T10:09:22Z</time>
      </trkpt>
      <trkpt lat="42.83941" lon="0.56978">
        <ele>1844.748</ele>
        <time>2021-03-21T10:09:24Z</time>
      </trkpt>
      <trkpt lat="42.83941" lon="0.56978">
        <ele>1844.726</ele>
        <time>2021-03-21T10:09:26Z</time>
      </trkpt>
      <trkpt lat="42.83941" lon="0.56978">
        <ele>1844.719</ele>
        <time>2021-03-21T10:09:28Z</time>
      </trkpt>
      <trkpt lat="42.83941" lon="0.56978">
        <ele>1844.717</ele>
        <time>2021-03-21T10:09:30Z</time>
      </trkpt>
      <trkpt lat="42.83941" lon="0.56978">
        <ele>1844.715</ele>
        <time>2021-03-21T10:09:32Z</time>
      </trkpt>
      <trkpt lat="42.83941" lon="0.56978">
        <ele>1844.711</ele>
        <time>2021-03-21T10:09:34Z</time>
      </trkpt>
      <trkpt lat="42.83941" lon="0.56978">
        <ele>1844.71</ele>
        <time>2021-03-21T10:09:36Z</time>
      </trkpt>
      <trkpt lat="42.83941" lon="0.56978">
        <ele>1844.71</ele>
        <time>2021-03-21T10:09:38Z</time>
      </trkpt>
      <trkpt lat="42.83941" lon="0.56978">
        <ele>1844.706</ele>
        <time>2021-03-21T10:09:40Z</time>
      </trkpt>
      <trkpt lat="42.83941" lon="0.56978">
        <ele>1844.638</ele>
        <time>2021-03-21T10:09:42Z</time>
      </trkpt>
      <trkpt lat="42.83941" lon="0.56978">
        <ele>1844.65</ele>
        <time>2021-03-21T10:09:44Z</time>
      </trkpt>
      <trkpt lat="42.83941" lon="0.56978">
        <ele>1844.657</ele>
        <time>2021-03-21T10:09:46Z</time>
      </trkpt>
      <trkpt lat="42.83941" lon="0.56978">
        <ele>1844.655</ele>
        <time>2021-03-21T10:09:48Z</time>
      </trkpt>
      <trkpt lat="42.83941" lon="0.56978">
        <ele>1844.657</ele>
        <time>2021-03-21T10:09:50Z</time>
      </trkpt>
      <trkpt lat="42.83941" lon="0.56978">
        <ele>1844.66</ele>
        <time>2021-03-21T10:09:52Z</time>
      </trkpt>
      <trkpt lat="42.83941" lon="0.56978">
        <ele>1844.661</ele>
        <time>2021-03-21T10:09:54Z</time>
      </trkpt>
      <trkpt lat="42.83941" lon="0.56978">
        <ele>1844.66</ele>
        <time>2021-03-21T10:09:56Z</time>
      </trkpt>
      <trkpt lat="42.83941" lon="0.56978">
        <ele>1844.663</ele>
        <time>2021-03-21T10:09:58Z</time>
      </trkpt>
      <trkpt lat="42.83941" lon="0.56978">
        <ele>1844.667</ele>
        <time>2021-03-21T10:10:00Z</time>
      </trkpt>
      <trkpt lat="42.83941" lon="0.56978">
        <ele>1844.666</ele>
        <time>2021-03-21T10:10:02Z</time>
      </trkpt>
      <trkpt lat="42.83941" lon="0.56978">
        <ele>1844.668</ele>
        <time>2021-03-21T10:10:04Z</time>
      </trkpt>
      <trkpt lat="42.83941" lon="0.56978">
        <ele>1844.671</ele>
        <time>2021-03-21T10:10:06Z</time>
      </trkpt>
      <trkpt lat="42.83941" lon="0.56978">
        <ele>1844.672</ele>
        <time>2021-03-21T10:10:08Z</time>
      </trkpt>
      <trkpt lat="42.83941" lon="0.56978">
        <ele>1844.676</ele>
        <time>2021-03-21T10:10:10Z</time>
      </trkpt>
      <trkpt lat="42.83941" lon="0.56978">
        <ele>1844.679</ele>
        <time>2021-03-21T10:10:12Z</time>
      </trkpt>
      <trkpt lat="42.83941" lon="0.56978">
        <ele>1844.891</ele>
        <time>2021-03-21T10:10:14Z</time>
      </trkpt>
      <trkpt lat="42.83941" lon="0.56978">
        <ele>1844.898</ele>
        <time>2021-03-21T10:10:16Z</time>
      </trkpt>
      <trkpt lat="42.83941" lon="0.56978">
        <ele>1844.9</ele>
        <time>2021-03-21T10:10:18Z</time>
      </trkpt>
      <trkpt lat="42.83941" lon="0.56978">
        <ele>1844.906</ele>
        <time>2021-03-21T10:10:20Z</time>
      </trkpt>
      <trkpt lat="42.83941" lon="0.56978">
        <ele>1844.906</ele>
        <time>2021-03-21T10:10:22Z</time>
      </trkpt>
      <trkpt lat="42.83941" lon="0.56978">
        <ele>1844.903</ele>
        <time>2021-03-21T10:10:24Z</time>
      </trkpt>
      <trkpt lat="42.83941" lon="0.56978">
        <ele>1844.902</ele>
        <time>2021-03-21T10:10:26Z</time>
      </trkpt>
      <trkpt lat="42.83941" lon="0.56978">
        <ele>1844.902</ele>
        <time>2021-03-21T10:10:28Z</time>
      </trkpt>
      <trkpt lat="42.83941" lon="0.56978">
        <ele>1844.905</ele>
        <time>2021-03-21T10:10:30Z</time>
      </trkpt>
      <trkpt lat="42.83941" lon="0.56978">
        <ele>1844.909</ele>
        <time>2021-03-21T10:10:32Z</time>
      </trkpt>
      <trkpt lat="42.83941" lon="0.56978">
        <ele>1844.907</ele>
        <time>2021-03-21T10:10:34Z</time>
      </trkpt>
      <trkpt lat="42.83941" lon="0.56978">
        <ele>1844.909</ele>
        <time>2021-03-21T10:10:36Z</time>
      </trkpt>
      <trkpt lat="42.83941" lon="0.56978">
        <ele>1844.906</ele>
        <time>2021-03-21T10:10:38Z</time>
      </trkpt>
      <trkpt lat="42.83941" lon="0.56978">
        <ele>1844.906</ele>
        <time>2021-03-21T10:10:40Z</time>
      </trkpt>
      <trkpt lat="42.83941" lon="0.56978">
        <ele>1844.829</ele>
        <time>2021-03-21T10:10:42Z</time>
      </trkpt>
      <trkpt lat="42.83941" lon="0.56978">
        <ele>1844.861</ele>
        <time>2021-03-21T10:10:44Z</time>
      </trkpt>
      <trkpt lat="42.83941" lon="0.56978">
        <ele>1844.863</ele>
        <time>2021-03-21T10:10:46Z</time>
      </trkpt>
      <trkpt lat="42.83941" lon="0.56978">
        <ele>1844.864</ele>
        <time>2021-03-21T10:10:48Z</time>
      </trkpt>
      <trkpt lat="42.83941" lon="0.56978">
        <ele>1844.863</ele>
        <time>2021-03-21T10:10:50Z</time>
      </trkpt>
      <trkpt lat="42.83941" lon="0.56978">
        <ele>1844.864</ele>
        <time>2021-03-21T10:10:52Z</time>
      </trkpt>
      <trkpt lat="42.83941" lon="0.56978">
        <ele>1844.867</ele>
        <time>2021-03-21T10:10:54Z</time>
      </trkpt>
      <trkpt lat="42.83941" lon="0.56978">
        <ele>1845.016</ele>
        <time>2021-03-21T10:10:56Z</time>
      </trkpt>
      <trkpt lat="42.83941" lon="0.56978">
        <ele>1845.025</ele>
        <time>2021-03-21T10:10:58Z</time>
      </trkpt>
      <trkpt lat="42.83941" lon="0.56978">
        <ele>1845.024</ele>
        <time>2021-03-21T10:11:00Z</time>
      </trkpt>
      <trkpt lat="42.83941" lon="0.56978">
        <ele>1845.027</ele>
        <time>2021-03-21T10:11:02Z</time>
      </trkpt>
      <trkpt lat="42.83941" lon="0.56978">
        <ele>1845.03</ele>
        <time>2021-03-21T10:11:04Z</time>
      </trkpt>
      <trkpt lat="42.83941" lon="0.56978">
        <ele>1845.033</ele>
        <time>2021-03-21T10:11:06Z</time>
      </trkpt>
      <trkpt lat="42.83941" lon="0.56978">
        <ele>1845.033</ele>
        <time>2021-03-21T10:11:08Z</time>
      </trkpt>
      <trkpt lat="42.83941" lon="0.56978">
        <ele>1844.793</ele>
        <time>2021-03-21T10:11:10Z</time>
      </trkpt>
      <trkpt lat="42.83941" lon="0.56978">
        <ele>1844.814</ele>
        <time>2021-03-21T10:11:12Z</time>
      </trkpt>
      <trkpt lat="42.83941" lon="0.56978">
        <ele>1844.814</ele>
        <time>2021-03-21T10:11:14Z</time>
      </trkpt>
      <trkpt lat="42.83941" lon="0.56978">
        <ele>1844.813</ele>
        <time>2021-03-21T10:11:16Z</time>
      </trkpt>
      <trkpt lat="42.83941" lon="0.56978">
        <ele>1844.813</ele>
        <time>2021-03-21T10:11:18Z</time>
      </trkpt>
      <trkpt lat="42.83941" lon="0.56978">
        <ele>1844.318</ele>
        <time>2021-03-21T10:11:20Z</time>
      </trkpt>
      <trkpt lat="42.83941" lon="0.56978">
        <ele>1844.125</ele>
        <time>2021-03-21T10:11:22Z</time>
      </trkpt>
      <trkpt lat="42.83941" lon="0.56978">
        <ele>1844.429</ele>
        <time>2021-03-21T10:11:24Z</time>
      </trkpt>
      <trkpt lat="42.83941" lon="0.56978">
        <ele>1844.704</ele>
        <time>2021-03-21T10:11:26Z</time>
      </trkpt>
      <trkpt lat="42.83941" lon="0.56978">
        <ele>1844.706</ele>
        <time>2021-03-21T10:11:28Z</time>
      </trkpt>
      <trkpt lat="42.83941" lon="0.56978">
        <ele>1844.705</ele>
        <time>2021-03-21T10:11:30Z</time>
      </trkpt>
      <trkpt lat="42.83941" lon="0.56978">
        <ele>1844.704</ele>
        <time>2021-03-21T10:11:32Z</time>
      </trkpt>
      <trkpt lat="42.83941" lon="0.56978">
        <ele>1844.705</ele>
        <time>2021-03-21T10:11:34Z</time>
      </trkpt>
      <trkpt lat="42.83941" lon="0.56978">
        <ele>1844.704</ele>
        <time>2021-03-21T10:11:36Z</time>
      </trkpt>
      <trkpt lat="42.83941" lon="0.56978">
        <ele>1844.703</ele>
        <time>2021-03-21T10:11:38Z</time>
      </trkpt>
      <trkpt lat="42.83941" lon="0.56978">
        <ele>1844.702</ele>
        <time>2021-03-21T10:11:40Z</time>
      </trkpt>
      <trkpt lat="42.83941" lon="0.56978">
        <ele>1844.703</ele>
        <time>2021-03-21T10:11:42Z</time>
      </trkpt>
      <trkpt lat="42.83941" lon="0.56978">
        <ele>1844.702</ele>
        <time>2021-03-21T10:11:44Z</time>
      </trkpt>
      <trkpt lat="42.83941" lon="0.56978">
        <ele>1844.702</ele>
        <time>2021-03-21T10:11:46Z</time>
      </trkpt>
      <trkpt lat="42.83941" lon="0.56978">
        <ele>1844.701</ele>
        <time>2021-03-21T10:11:48Z</time>
      </trkpt>
      <trkpt lat="42.83941" lon="0.56978">
        <ele>1844.702</ele>
        <time>2021-03-21T10:11:50Z</time>
      </trkpt>
      <trkpt lat="42.83941" lon="0.56978">
        <ele>1844.7</ele>
        <time>2021-03-21T10:11:52Z</time>
      </trkpt>
      <trkpt lat="42.83941" lon="0.56978">
        <ele>1844.7</ele>
        <time>2021-03-21T10:11:54Z</time>
      </trkpt>
      <trkpt lat="42.83941" lon="0.56978">
        <ele>1844.699</ele>
        <time>2021-03-21T10:11:56Z</time>
      </trkpt>
      <trkpt lat="42.83941" lon="0.56978">
        <ele>1844.698</ele>
        <time>2021-03-21T10:11:58Z</time>
      </trkpt>
      <trkpt lat="42.83941" lon="0.56978">
        <ele>1844.696</ele>
        <time>2021-03-21T10:12:00Z</time>
      </trkpt>
      <trkpt lat="42.83941" lon="0.56978">
        <ele>1844.695</ele>
        <time>2021-03-21T10:12:02Z</time>
      </trkpt>
      <trkpt lat="42.83941" lon="0.56978">
        <ele>1844.693</ele>
        <time>2021-03-21T10:12:04Z</time>
      </trkpt>
      <trkpt lat="42.83941" lon="0.56978">
        <ele>1844.691</ele>
        <time>2021-03-21T10:12:06Z</time>
      </trkpt>
      <trkpt lat="42.83941" lon="0.56978">
        <ele>1844.691</ele>
        <time>2021-03-21T10:12:08Z</time>
      </trkpt>
      <trkpt lat="42.83941" lon="0.56978">
        <ele>1844.69</ele>
        <time>2021-03-21T10:12:10Z</time>
      </trkpt>
      <trkpt lat="42.83941" lon="0.56978">
        <ele>1844.691</ele>
        <time>2021-03-21T10:12:12Z</time>
      </trkpt>
      <trkpt lat="42.83941" lon="0.56978">
        <ele>1844.691</ele>
        <time>2021-03-21T10:12:14Z</time>
      </trkpt>
      <trkpt lat="42.83941" lon="0.56978">
        <ele>1844.692</ele>
        <time>2021-03-21T10:12:16Z</time>
      </trkpt>
      <trkpt lat="42.83941" lon="0.56978">
        <ele>1844.691</ele>
        <time>2021-03-21T10:12:18Z</time>
      </trkpt>
      <trkpt lat="42.83941" lon="0.56978">
        <ele>1844.693</ele>
        <time>2021-03-21T10:12:20Z</time>
      </trkpt>
      <trkpt lat="42.83941" lon="0.56978">
        <ele>1844.688</ele>
        <time>2021-03-21T10:12:22Z</time>
      </trkpt>
      <trkpt lat="42.83941" lon="0.56978">
        <ele>1845.128</ele>
        <time>2021-03-21T10:12:24Z</time>
      </trkpt>
      <trkpt lat="42.83941" lon="0.56978">
        <ele>1845.297</ele>
        <time>2021-03-21T10:12:26Z</time>
      </trkpt>
      <trkpt lat="42.83941" lon="0.56978">
        <ele>1845.298</ele>
        <time>2021-03-21T10:12:29Z</time>
      </trkpt>
      <trkpt lat="42.83941" lon="0.56978">
        <ele>1845.299</ele>
        <time>2021-03-21T10:12:31Z</time>
      </trkpt>
      <trkpt lat="42.83941" lon="0.56978">
        <ele>1845.297</ele>
        <time>2021-03-21T10:12:33Z</time>
      </trkpt>
      <trkpt lat="42.83941" lon="0.56978">
        <ele>1845.297</ele>
        <time>2021-03-21T10:12:35Z</time>
      </trkpt>
      <trkpt lat="42.83941" lon="0.56978">
        <ele>1845.296</ele>
        <time>2021-03-21T10:12:37Z</time>
      </trkpt>
      <trkpt lat="42.83941" lon="0.56978">
        <ele>1845.522</ele>
        <time>2021-03-21T10:12:40Z</time>
      </trkpt>
      <trkpt lat="42.83941" lon="0.56978">
        <ele>1845.516</ele>
        <time>2021-03-21T10:12:42Z</time>
      </trkpt>
      <trkpt lat="42.8394" lon="0.56978">
        <ele>1845.164</ele>
        <time>2021-03-21T10:12:44Z</time>
      </trkpt>
      <trkpt lat="42.8394" lon="0.56978">
        <ele>1845.153</ele>
        <time>2021-03-21T10:12:46Z</time>
      </trkpt>
      <trkpt lat="42.8394" lon="0.56978">
        <ele>1845.149</ele>
        <time>2021-03-21T10:12:48Z</time>
      </trkpt>
      <trkpt lat="42.8394" lon="0.56978">
        <ele>1845.145</ele>
        <time>2021-03-21T10:12:50Z</time>
      </trkpt>
      <trkpt lat="42.8394" lon="0.56978">
        <ele>1845.151</ele>
        <time>2021-03-21T10:12:52Z</time>
      </trkpt>
      <trkpt lat="42.8394" lon="0.56978">
        <ele>1845.148</ele>
        <time>2021-03-21T10:12:54Z</time>
      </trkpt>
      <trkpt lat="42.8394" lon="0.56978">
        <ele>1845.15</ele>
        <time>2021-03-21T10:12:56Z</time>
      </trkpt>
      <trkpt lat="42.8394" lon="0.56978">
        <ele>1845.148</ele>
        <time>2021-03-21T10:12:58Z</time>
      </trkpt>
      <trkpt lat="42.8394" lon="0.56978">
        <ele>1845.146</ele>
        <time>2021-03-21T10:13:00Z</time>
      </trkpt>
      <trkpt lat="42.8394" lon="0.56978">
        <ele>1845.187</ele>
        <time>2021-03-21T10:13:02Z</time>
      </trkpt>
      <trkpt lat="42.8394" lon="0.56978">
        <ele>1845.379</ele>
        <time>2021-03-21T10:13:04Z</time>
      </trkpt>
      <trkpt lat="42.83941" lon="0.56977">
        <ele>1845.519</ele>
        <time>2021-03-21T10:13:06Z</time>
      </trkpt>
      <trkpt lat="42.83941" lon="0.56978">
        <ele>1845.216</ele>
        <time>2021-03-21T10:13:08Z</time>
      </trkpt>
      <trkpt lat="42.83941" lon="0.56978">
        <ele>1845.202</ele>
        <time>2021-03-21T10:13:10Z</time>
      </trkpt>
      <trkpt lat="42.83941" lon="0.56978">
        <ele>1845.25</ele>
        <time>2021-03-21T10:13:12Z</time>
      </trkpt>
      <trkpt lat="42.83943" lon="0.56978">
        <ele>1845.005</ele>
        <time>2021-03-21T10:13:14Z</time>
      </trkpt>
      <trkpt lat="42.83945" lon="0.56978">
        <ele>1844.927</ele>
        <time>2021-03-21T10:13:16Z</time>
      </trkpt>
      <trkpt lat="42.83946" lon="0.56978">
        <ele>1844.672</ele>
        <time>2021-03-21T10:13:18Z</time>
      </trkpt>
      <trkpt lat="42.83948" lon="0.56978">
        <ele>1844.267</ele>
        <time>2021-03-21T10:13:20Z</time>
      </trkpt>
      <trkpt lat="42.8395" lon="0.56978">
        <ele>1843.995</ele>
        <time>2021-03-21T10:13:22Z</time>
      </trkpt>
      <trkpt lat="42.83951" lon="0.56979">
        <ele>1843.455</ele>
        <time>2021-03-21T10:13:24Z</time>
      </trkpt>
      <trkpt lat="42.83953" lon="0.56979">
        <ele>1843.132</ele>
        <time>2021-03-21T10:13:26Z</time>
      </trkpt>
      <trkpt lat="42.83954" lon="0.56979">
        <ele>1842.274</ele>
        <time>2021-03-21T10:13:28Z</time>
      </trkpt>
      <trkpt lat="42.83955" lon="0.56979">
        <ele>1842.169</ele>
        <time>2021-03-21T10:13:30Z</time>
      </trkpt>
      <trkpt lat="42.83957" lon="0.56979">
        <ele>1841.8</ele>
        <time>2021-03-21T10:13:32Z</time>
      </trkpt>
      <trkpt lat="42.83958" lon="0.56978">
        <ele>1840.983</ele>
        <time>2021-03-21T10:13:34Z</time>
      </trkpt>
      <trkpt lat="42.8396" lon="0.56978">
        <ele>1840.485</ele>
        <time>2021-03-21T10:13:36Z</time>
      </trkpt>
      <trkpt lat="42.83962" lon="0.56978">
        <ele>1840.347</ele>
        <time>2021-03-21T10:13:38Z</time>
      </trkpt>
      <trkpt lat="42.83964" lon="0.56978">
        <ele>1839.968</ele>
        <time>2021-03-21T10:13:40Z</time>
      </trkpt>
      <trkpt lat="42.83966" lon="0.56977">
        <ele>1839.745</ele>
        <time>2021-03-21T10:13:42Z</time>
      </trkpt>
      <trkpt lat="42.83967" lon="0.56977">
        <ele>1839.497</ele>
        <time>2021-03-21T10:13:44Z</time>
      </trkpt>
      <trkpt lat="42.83969" lon="0.56976">
        <ele>1839.28</ele>
        <time>2021-03-21T10:13:46Z</time>
      </trkpt>
      <trkpt lat="42.83971" lon="0.56976">
        <ele>1839.43</ele>
        <time>2021-03-21T10:13:48Z</time>
      </trkpt>
      <trkpt lat="42.83973" lon="0.56976">
        <ele>1839.057</ele>
        <time>2021-03-21T10:13:50Z</time>
      </trkpt>
      <trkpt lat="42.83975" lon="0.56976">
        <ele>1838.845</ele>
        <time>2021-03-21T10:13:52Z</time>
      </trkpt>
      <trkpt lat="42.83976" lon="0.56976">
        <ele>1838.326</ele>
        <time>2021-03-21T10:13:54Z</time>
      </trkpt>
      <trkpt lat="42.83978" lon="0.56976">
        <ele>1837.759</ele>
        <time>2021-03-21T10:13:56Z</time>
      </trkpt>
      <trkpt lat="42.83979" lon="0.56976">
        <ele>1837.164</ele>
        <time>2021-03-21T10:13:58Z</time>
      </trkpt>
      <trkpt lat="42.8398" lon="0.56977">
        <ele>1836.347</ele>
        <time>2021-03-21T10:14:00Z</time>
      </trkpt>
      <trkpt lat="42.83982" lon="0.56977">
        <ele>1836.498</ele>
        <time>2021-03-21T10:14:02Z</time>
      </trkpt>
      <trkpt lat="42.83984" lon="0.56977">
        <ele>1837.332</ele>
        <time>2021-03-21T10:14:04Z</time>
      </trkpt>
      <trkpt lat="42.83986" lon="0.56978">
        <ele>1836.996</ele>
        <time>2021-03-21T10:14:06Z</time>
      </trkpt>
      <trkpt lat="42.83988" lon="0.56977">
        <ele>1837.265</ele>
        <time>2021-03-21T10:14:08Z</time>
      </trkpt>
      <trkpt lat="42.8399" lon="0.56978">
        <ele>1837.636</ele>
        <time>2021-03-21T10:14:10Z</time>
      </trkpt>
      <trkpt lat="42.83991" lon="0.56978">
        <ele>1837.823</ele>
        <time>2021-03-21T10:14:12Z</time>
      </trkpt>
      <trkpt lat="42.83993" lon="0.56978">
        <ele>1838.058</ele>
        <time>2021-03-21T10:14:14Z</time>
      </trkpt>
      <trkpt lat="42.83995" lon="0.56979">
        <ele>1838.113</ele>
        <time>2021-03-21T10:14:16Z</time>
      </trkpt>
      <trkpt lat="42.83998" lon="0.5698">
        <ele>1838.563</ele>
        <time>2021-03-21T10:14:18Z</time>
      </trkpt>
      <trkpt lat="42.84" lon="0.5698">
        <ele>1839.073</ele>
        <time>2021-03-21T10:14:20Z</time>
      </trkpt>
      <trkpt lat="42.84002" lon="0.5698">
        <ele>1839.118</ele>
        <time>2021-03-21T10:14:22Z</time>
      </trkpt>
      <trkpt lat="42.84003" lon="0.56981">
        <ele>1838.763</ele>
        <time>2021-03-21T10:14:24Z</time>
      </trkpt>
      <trkpt lat="42.84005" lon="0.56981">
        <ele>1838.491</ele>
        <time>2021-03-21T10:14:26Z</time>
      </trkpt>
      <trkpt lat="42.84006" lon="0.56981">
        <ele>1838.136</ele>
        <time>2021-03-21T10:14:28Z</time>
      </trkpt>
      <trkpt lat="42.84008" lon="0.56981">
        <ele>1837.743</ele>
        <time>2021-03-21T10:14:30Z</time>
      </trkpt>
      <trkpt lat="42.84009" lon="0.56982">
        <ele>1837.782</ele>
        <time>2021-03-21T10:14:32Z</time>
      </trkpt>
      <trkpt lat="42.84011" lon="0.56982">
        <ele>1838.505</ele>
        <time>2021-03-21T10:14:34Z</time>
      </trkpt>
      <trkpt lat="42.84013" lon="0.56982">
        <ele>1838.557</ele>
        <time>2021-03-21T10:14:36Z</time>
      </trkpt>
      <trkpt lat="42.84015" lon="0.56983">
        <ele>1838.893</ele>
        <time>2021-03-21T10:14:38Z</time>
      </trkpt>
      <trkpt lat="42.84017" lon="0.56983">
        <ele>1839.094</ele>
        <time>2021-03-21T10:14:40Z</time>
      </trkpt>
      <trkpt lat="42.84018" lon="0.56983">
        <ele>1839.058</ele>
        <time>2021-03-21T10:14:42Z</time>
      </trkpt>
      <trkpt lat="42.8402" lon="0.56983">
        <ele>1838.605</ele>
        <time>2021-03-21T10:14:44Z</time>
      </trkpt>
      <trkpt lat="42.84022" lon="0.56983">
        <ele>1838.531</ele>
        <time>2021-03-21T10:14:46Z</time>
      </trkpt>
      <trkpt lat="42.84023" lon="0.56983">
        <ele>1838.436</ele>
        <time>2021-03-21T10:14:48Z</time>
      </trkpt>
      <trkpt lat="42.84025" lon="0.56983">
        <ele>1838.265</ele>
        <time>2021-03-21T10:14:50Z</time>
      </trkpt>
      <trkpt lat="42.84027" lon="0.56984">
        <ele>1838.374</ele>
        <time>2021-03-21T10:14:52Z</time>
      </trkpt>
      <trkpt lat="42.84028" lon="0.56984">
        <ele>1837.925</ele>
        <time>2021-03-21T10:14:54Z</time>
      </trkpt>
      <trkpt lat="42.84029" lon="0.56984">
        <ele>1836.87</ele>
        <time>2021-03-21T10:14:56Z</time>
      </trkpt>
      <trkpt lat="42.84031" lon="0.56984">
        <ele>1836.469</ele>
        <time>2021-03-21T10:14:58Z</time>
      </trkpt>
      <trkpt lat="42.84032" lon="0.56984">
        <ele>1835.54</ele>
        <time>2021-03-21T10:15:00Z</time>
      </trkpt>
      <trkpt lat="42.84034" lon="0.56984">
        <ele>1835.533</ele>
        <time>2021-03-21T10:15:02Z</time>
      </trkpt>
      <trkpt lat="42.84035" lon="0.56984">
        <ele>1834.903</ele>
        <time>2021-03-21T10:15:04Z</time>
      </trkpt>
      <trkpt lat="42.84037" lon="0.56984">
        <ele>1834.48</ele>
        <time>2021-03-21T10:15:06Z</time>
      </trkpt>
      <trkpt lat="42.84038" lon="0.56984">
        <ele>1834.179</ele>
        <time>2021-03-21T10:15:08Z</time>
      </trkpt>
      <trkpt lat="42.8404" lon="0.56984">
        <ele>1833.971</ele>
        <time>2021-03-21T10:15:10Z</time>
      </trkpt>
      <trkpt lat="42.84042" lon="0.56984">
        <ele>1833.678</ele>
        <time>2021-03-21T10:15:12Z</time>
      </trkpt>
      <trkpt lat="42.84044" lon="0.56984">
        <ele>1833.275</ele>
        <time>2021-03-21T10:15:14Z</time>
      </trkpt>
      <trkpt lat="42.84046" lon="0.56984">
        <ele>1832.737</ele>
        <time>2021-03-21T10:15:16Z</time>
      </trkpt>
      <trkpt lat="42.84047" lon="0.56984">
        <ele>1832.495</ele>
        <time>2021-03-21T10:15:18Z</time>
      </trkpt>
      <trkpt lat="42.84048" lon="0.56983">
        <ele>1831.87</ele>
        <time>2021-03-21T10:15:20Z</time>
      </trkpt>
      <trkpt lat="42.8405" lon="0.56984">
        <ele>1831.434</ele>
        <time>2021-03-21T10:15:22Z</time>
      </trkpt>
      <trkpt lat="42.84053" lon="0.56984">
        <ele>1831.559</ele>
        <time>2021-03-21T10:15:24Z</time>
      </trkpt>
      <trkpt lat="42.84056" lon="0.56983">
        <ele>1831.853</ele>
        <time>2021-03-21T10:15:26Z</time>
      </trkpt>
      <trkpt lat="42.8406" lon="0.56983">
        <ele>1832.868</ele>
        <time>2021-03-21T10:15:28Z</time>
      </trkpt>
      <trkpt lat="42.84062" lon="0.56983">
        <ele>1833.924</ele>
        <time>2021-03-21T10:15:30Z</time>
      </trkpt>
      <trkpt lat="42.84065" lon="0.56984">
        <ele>1833.361</ele>
        <time>2021-03-21T10:15:32Z</time>
      </trkpt>
      <trkpt lat="42.84067" lon="0.56984">
        <ele>1833.287</ele>
        <time>2021-03-21T10:15:34Z</time>
      </trkpt>
      <trkpt lat="42.84069" lon="0.56984">
        <ele>1833.132</ele>
        <time>2021-03-21T10:15:36Z</time>
      </trkpt>
      <trkpt lat="42.8407" lon="0.56984">
        <ele>1833.18</ele>
        <time>2021-03-21T10:15:38Z</time>
      </trkpt>
      <trkpt lat="42.84072" lon="0.56984">
        <ele>1832.93</ele>
        <time>2021-03-21T10:15:40Z</time>
      </trkpt>
      <trkpt lat="42.84073" lon="0.56984">
        <ele>1832.257</ele>
        <time>2021-03-21T10:15:42Z</time>
      </trkpt>
      <trkpt lat="42.84074" lon="0.56984">
        <ele>1831.838</ele>
        <time>2021-03-21T10:15:44Z</time>
      </trkpt>
      <trkpt lat="42.84075" lon="0.56983">
        <ele>1831.75</ele>
        <time>2021-03-21T10:15:46Z</time>
      </trkpt>
      <trkpt lat="42.84077" lon="0.56983">
        <ele>1832.006</ele>
        <time>2021-03-21T10:15:48Z</time>
      </trkpt>
      <trkpt lat="42.84079" lon="0.56983">
        <ele>1831.86</ele>
        <time>2021-03-21T10:15:50Z</time>
      </trkpt>
      <trkpt lat="42.8408" lon="0.56983">
        <ele>1831.827</ele>
        <time>2021-03-21T10:15:52Z</time>
      </trkpt>
      <trkpt lat="42.84081" lon="0.56983">
        <ele>1831.693</ele>
        <time>2021-03-21T10:15:54Z</time>
      </trkpt>
      <trkpt lat="42.84083" lon="0.56983">
        <ele>1831.027</ele>
        <time>2021-03-21T10:15:56Z</time>
      </trkpt>
      <trkpt lat="42.84085" lon="0.56983">
        <ele>1830.873</ele>
        <time>2021-03-21T10:15:58Z</time>
      </trkpt>
      <trkpt lat="42.84086" lon="0.56983">
        <ele>1830.186</ele>
        <time>2021-03-21T10:16:00Z</time>
      </trkpt>
      <trkpt lat="42.84087" lon="0.56982">
        <ele>1829.549</ele>
        <time>2021-03-21T10:16:02Z</time>
      </trkpt>
      <trkpt lat="42.84089" lon="0.56982">
        <ele>1829.786</ele>
        <time>2021-03-21T10:16:04Z</time>
      </trkpt>
      <trkpt lat="42.84091" lon="0.56981">
        <ele>1829.607</ele>
        <time>2021-03-21T10:16:06Z</time>
      </trkpt>
      <trkpt lat="42.84093" lon="0.56981">
        <ele>1829.267</ele>
        <time>2021-03-21T10:16:08Z</time>
      </trkpt>
      <trkpt lat="42.84095" lon="0.5698">
        <ele>1829.17</ele>
        <time>2021-03-21T10:16:10Z</time>
      </trkpt>
      <trkpt lat="42.84097" lon="0.5698">
        <ele>1829.251</ele>
        <time>2021-03-21T10:16:12Z</time>
      </trkpt>
      <trkpt lat="42.84099" lon="0.56979">
        <ele>1829.406</ele>
        <time>2021-03-21T10:16:14Z</time>
      </trkpt>
      <trkpt lat="42.841" lon="0.56978">
        <ele>1829.09</ele>
        <time>2021-03-21T10:16:16Z</time>
      </trkpt>
      <trkpt lat="42.84102" lon="0.56977">
        <ele>1828.944</ele>
        <time>2021-03-21T10:16:18Z</time>
      </trkpt>
      <trkpt lat="42.84105" lon="0.56976">
        <ele>1829.442</ele>
        <time>2021-03-21T10:16:20Z</time>
      </trkpt>
      <trkpt lat="42.84107" lon="0.56975">
        <ele>1829.56</ele>
        <time>2021-03-21T10:16:22Z</time>
      </trkpt>
      <trkpt lat="42.84108" lon="0.56974">
        <ele>1829.559</ele>
        <time>2021-03-21T10:16:24Z</time>
      </trkpt>
      <trkpt lat="42.8411" lon="0.56974">
        <ele>1829.402</ele>
        <time>2021-03-21T10:16:26Z</time>
      </trkpt>
      <trkpt lat="42.84111" lon="0.56973">
        <ele>1828.755</ele>
        <time>2021-03-21T10:16:28Z</time>
      </trkpt>
      <trkpt lat="42.84113" lon="0.56972">
        <ele>1828.604</ele>
        <time>2021-03-21T10:16:30Z</time>
      </trkpt>
      <trkpt lat="42.84114" lon="0.56972">
        <ele>1827.95</ele>
        <time>2021-03-21T10:16:32Z</time>
      </trkpt>
      <trkpt lat="42.84116" lon="0.56971">
        <ele>1827.667</ele>
        <time>2021-03-21T10:16:34Z</time>
      </trkpt>
      <trkpt lat="42.84118" lon="0.5697">
        <ele>1827.973</ele>
        <time>2021-03-21T10:16:36Z</time>
      </trkpt>
      <trkpt lat="42.8412" lon="0.5697">
        <ele>1828.492</ele>
        <time>2021-03-21T10:16:38Z</time>
      </trkpt>
      <trkpt lat="42.84121" lon="0.56969">
        <ele>1828.285</ele>
        <time>2021-03-21T10:16:40Z</time>
      </trkpt>
      <trkpt lat="42.84123" lon="0.56968">
        <ele>1828.408</ele>
        <time>2021-03-21T10:16:42Z</time>
      </trkpt>
      <trkpt lat="42.84125" lon="0.56967">
        <ele>1828.347</ele>
        <time>2021-03-21T10:16:44Z</time>
      </trkpt>
      <trkpt lat="42.84126" lon="0.56966">
        <ele>1828.834</ele>
        <time>2021-03-21T10:16:46Z</time>
      </trkpt>
      <trkpt lat="42.84129" lon="0.56965">
        <ele>1828.952</ele>
        <time>2021-03-21T10:16:48Z</time>
      </trkpt>
      <trkpt lat="42.8413" lon="0.56964">
        <ele>1829.133</ele>
        <time>2021-03-21T10:16:50Z</time>
      </trkpt>
      <trkpt lat="42.84132" lon="0.56964">
        <ele>1829.374</ele>
        <time>2021-03-21T10:16:52Z</time>
      </trkpt>
      <trkpt lat="42.84134" lon="0.56963">
        <ele>1829.98</ele>
        <time>2021-03-21T10:16:54Z</time>
      </trkpt>
      <trkpt lat="42.84136" lon="0.56962">
        <ele>1829.847</ele>
        <time>2021-03-21T10:16:56Z</time>
      </trkpt>
      <trkpt lat="42.84138" lon="0.56961">
        <ele>1829.625</ele>
        <time>2021-03-21T10:16:58Z</time>
      </trkpt>
      <trkpt lat="42.84139" lon="0.56961">
        <ele>1829.66</ele>
        <time>2021-03-21T10:17:00Z</time>
      </trkpt>
      <trkpt lat="42.84141" lon="0.5696">
        <ele>1829.722</ele>
        <time>2021-03-21T10:17:02Z</time>
      </trkpt>
      <trkpt lat="42.84143" lon="0.56959">
        <ele>1829.896</ele>
        <time>2021-03-21T10:17:04Z</time>
      </trkpt>
      <trkpt lat="42.84144" lon="0.56959">
        <ele>1830.408</ele>
        <time>2021-03-21T10:17:06Z</time>
      </trkpt>
      <trkpt lat="42.84146" lon="0.56958">
        <ele>1830.637</ele>
        <time>2021-03-21T10:17:08Z</time>
      </trkpt>
      <trkpt lat="42.84148" lon="0.56958">
        <ele>1830.85</ele>
        <time>2021-03-21T10:17:10Z</time>
      </trkpt>
      <trkpt lat="42.8415" lon="0.56957">
        <ele>1831.01</ele>
        <time>2021-03-21T10:17:12Z</time>
      </trkpt>
      <trkpt lat="42.84152" lon="0.56956">
        <ele>1831.235</ele>
        <time>2021-03-21T10:17:14Z</time>
      </trkpt>
      <trkpt lat="42.84153" lon="0.56955">
        <ele>1831.358</ele>
        <time>2021-03-21T10:17:16Z</time>
      </trkpt>
      <trkpt lat="42.84155" lon="0.56954">
        <ele>1832.337</ele>
        <time>2021-03-21T10:17:18Z</time>
      </trkpt>
      <trkpt lat="42.84157" lon="0.56953">
        <ele>1831.939</ele>
        <time>2021-03-21T10:17:20Z</time>
      </trkpt>
      <trkpt lat="42.84158" lon="0.56953">
        <ele>1832.3</ele>
        <time>2021-03-21T10:17:22Z</time>
      </trkpt>
      <trkpt lat="42.8416" lon="0.56952">
        <ele>1832.48</ele>
        <time>2021-03-21T10:17:24Z</time>
      </trkpt>
      <trkpt lat="42.84162" lon="0.56952">
        <ele>1832.485</ele>
        <time>2021-03-21T10:17:27Z</time>
      </trkpt>
      <trkpt lat="42.84164" lon="0.56951">
        <ele>1832.678</ele>
        <time>2021-03-21T10:17:29Z</time>
      </trkpt>
      <trkpt lat="42.84165" lon="0.5695">
        <ele>1833.297</ele>
        <time>2021-03-21T10:17:31Z</time>
      </trkpt>
      <trkpt lat="42.84166" lon="0.56949">
        <ele>1833.332</ele>
        <time>2021-03-21T10:17:33Z</time>
      </trkpt>
      <trkpt lat="42.84167" lon="0.56948">
        <ele>1833.434</ele>
        <time>2021-03-21T10:17:34Z</time>
      </trkpt>
      <trkpt lat="42.84169" lon="0.56947">
        <ele>1834.09</ele>
        <time>2021-03-21T10:17:37Z</time>
      </trkpt>
      <trkpt lat="42.84171" lon="0.56947">
        <ele>1834.231</ele>
        <time>2021-03-21T10:17:39Z</time>
      </trkpt>
      <trkpt lat="42.84172" lon="0.56947">
        <ele>1834.449</ele>
        <time>2021-03-21T10:17:41Z</time>
      </trkpt>
      <trkpt lat="42.84174" lon="0.56946">
        <ele>1835.12</ele>
        <time>2021-03-21T10:17:43Z</time>
      </trkpt>
      <trkpt lat="42.84175" lon="0.56946">
        <ele>1835.086</ele>
        <time>2021-03-21T10:17:44Z</time>
      </trkpt>
      <trkpt lat="42.84177" lon="0.56946">
        <ele>1835.417</ele>
        <time>2021-03-21T10:17:47Z</time>
      </trkpt>
      <trkpt lat="42.84179" lon="0.56945">
        <ele>1835.785</ele>
        <time>2021-03-21T10:17:49Z</time>
      </trkpt>
      <trkpt lat="42.8418" lon="0.56945">
        <ele>1835.692</ele>
        <time>2021-03-21T10:17:51Z</time>
      </trkpt>
      <trkpt lat="42.84182" lon="0.56945">
        <ele>1835.785</ele>
        <time>2021-03-21T10:17:53Z</time>
      </trkpt>
      <trkpt lat="42.84183" lon="0.56944">
        <ele>1836.354</ele>
        <time>2021-03-21T10:17:55Z</time>
      </trkpt>
      <trkpt lat="42.84185" lon="0.56943">
        <ele>1836.518</ele>
        <time>2021-03-21T10:17:57Z</time>
      </trkpt>
      <trkpt lat="42.84186" lon="0.56943">
        <ele>1836.427</ele>
        <time>2021-03-21T10:17:59Z</time>
      </trkpt>
      <trkpt lat="42.84187" lon="0.56942">
        <ele>1836.362</ele>
        <time>2021-03-21T10:18:01Z</time>
      </trkpt>
      <trkpt lat="42.84188" lon="0.56942">
        <ele>1836.48</ele>
        <time>2021-03-21T10:18:03Z</time>
      </trkpt>
      <trkpt lat="42.84189" lon="0.56941">
        <ele>1836.405</ele>
        <time>2021-03-21T10:18:05Z</time>
      </trkpt>
      <trkpt lat="42.84191" lon="0.56941">
        <ele>1836.161</ele>
        <time>2021-03-21T10:18:07Z</time>
      </trkpt>
      <trkpt lat="42.84192" lon="0.5694">
        <ele>1836.279</ele>
        <time>2021-03-21T10:18:09Z</time>
      </trkpt>
      <trkpt lat="42.84193" lon="0.56939">
        <ele>1836.307</ele>
        <time>2021-03-21T10:18:11Z</time>
      </trkpt>
      <trkpt lat="42.84194" lon="0.56939">
        <ele>1836.467</ele>
        <time>2021-03-21T10:18:13Z</time>
      </trkpt>
      <trkpt lat="42.84196" lon="0.56938">
        <ele>1836.545</ele>
        <time>2021-03-21T10:18:15Z</time>
      </trkpt>
      <trkpt lat="42.84197" lon="0.56938">
        <ele>1836.58</ele>
        <time>2021-03-21T10:18:17Z</time>
      </trkpt>
      <trkpt lat="42.84198" lon="0.56937">
        <ele>1836.53</ele>
        <time>2021-03-21T10:18:19Z</time>
      </trkpt>
      <trkpt lat="42.842" lon="0.56936">
        <ele>1837.116</ele>
        <time>2021-03-21T10:18:21Z</time>
      </trkpt>
      <trkpt lat="42.84201" lon="0.56935">
        <ele>1837.545</ele>
        <time>2021-03-21T10:18:23Z</time>
      </trkpt>
      <trkpt lat="42.84203" lon="0.56934">
        <ele>1838.095</ele>
        <time>2021-03-21T10:18:25Z</time>
      </trkpt>
      <trkpt lat="42.84205" lon="0.56933">
        <ele>1838.646</ele>
        <time>2021-03-21T10:18:27Z</time>
      </trkpt>
      <trkpt lat="42.84207" lon="0.56933">
        <ele>1838.911</ele>
        <time>2021-03-21T10:18:29Z</time>
      </trkpt>
      <trkpt lat="42.84208" lon="0.56932">
        <ele>1839.321</ele>
        <time>2021-03-21T10:18:31Z</time>
      </trkpt>
      <trkpt lat="42.84209" lon="0.56932">
        <ele>1839.575</ele>
        <time>2021-03-21T10:18:33Z</time>
      </trkpt>
      <trkpt lat="42.84211" lon="0.56932">
        <ele>1839.387</ele>
        <time>2021-03-21T10:18:35Z</time>
      </trkpt>
      <trkpt lat="42.84212" lon="0.56932">
        <ele>1840.002</ele>
        <time>2021-03-21T10:18:37Z</time>
      </trkpt>
      <trkpt lat="42.84214" lon="0.56931">
        <ele>1839.914</ele>
        <time>2021-03-21T10:18:39Z</time>
      </trkpt>
      <trkpt lat="42.84215" lon="0.56931">
        <ele>1840.357</ele>
        <time>2021-03-21T10:18:41Z</time>
      </trkpt>
      <trkpt lat="42.84216" lon="0.56931">
        <ele>1840.603</ele>
        <time>2021-03-21T10:18:43Z</time>
      </trkpt>
      <trkpt lat="42.84217" lon="0.56932">
        <ele>1840.791</ele>
        <time>2021-03-21T10:18:45Z</time>
      </trkpt>
      <trkpt lat="42.84219" lon="0.56932">
        <ele>1840.916</ele>
        <time>2021-03-21T10:18:47Z</time>
      </trkpt>
      <trkpt lat="42.8422" lon="0.56933">
        <ele>1841.279</ele>
        <time>2021-03-21T10:18:49Z</time>
      </trkpt>
      <trkpt lat="42.84221" lon="0.56933">
        <ele>1841.416</ele>
        <time>2021-03-21T10:18:51Z</time>
      </trkpt>
      <trkpt lat="42.84222" lon="0.56933">
        <ele>1842.023</ele>
        <time>2021-03-21T10:18:53Z</time>
      </trkpt>
      <trkpt lat="42.84223" lon="0.56932">
        <ele>1842.141</ele>
        <time>2021-03-21T10:18:55Z</time>
      </trkpt>
      <trkpt lat="42.84224" lon="0.56932">
        <ele>1842.333</ele>
        <time>2021-03-21T10:18:57Z</time>
      </trkpt>
      <trkpt lat="42.84226" lon="0.56931">
        <ele>1842.752</ele>
        <time>2021-03-21T10:18:59Z</time>
      </trkpt>
      <trkpt lat="42.84226" lon="0.5693">
        <ele>1843.05</ele>
        <time>2021-03-21T10:19:01Z</time>
      </trkpt>
      <trkpt lat="42.84227" lon="0.56929">
        <ele>1843.314</ele>
        <time>2021-03-21T10:19:03Z</time>
      </trkpt>
      <trkpt lat="42.84229" lon="0.56929">
        <ele>1843.826</ele>
        <time>2021-03-21T10:19:05Z</time>
      </trkpt>
      <trkpt lat="42.8423" lon="0.56928">
        <ele>1844.126</ele>
        <time>2021-03-21T10:19:07Z</time>
      </trkpt>
      <trkpt lat="42.84231" lon="0.56927">
        <ele>1844.441</ele>
        <time>2021-03-21T10:19:09Z</time>
      </trkpt>
      <trkpt lat="42.84232" lon="0.56926">
        <ele>1844.6</ele>
        <time>2021-03-21T10:19:11Z</time>
      </trkpt>
      <trkpt lat="42.84233" lon="0.56926">
        <ele>1844.935</ele>
        <time>2021-03-21T10:19:13Z</time>
      </trkpt>
      <trkpt lat="42.84235" lon="0.56925">
        <ele>1845.34</ele>
        <time>2021-03-21T10:19:15Z</time>
      </trkpt>
      <trkpt lat="42.84236" lon="0.56924">
        <ele>1845.704</ele>
        <time>2021-03-21T10:19:17Z</time>
      </trkpt>
      <trkpt lat="42.84237" lon="0.56924">
        <ele>1845.824</ele>
        <time>2021-03-21T10:19:19Z</time>
      </trkpt>
      <trkpt lat="42.84238" lon="0.56923">
        <ele>1846.348</ele>
        <time>2021-03-21T10:19:21Z</time>
      </trkpt>
      <trkpt lat="42.8424" lon="0.56923">
        <ele>1846.79</ele>
        <time>2021-03-21T10:19:23Z</time>
      </trkpt>
      <trkpt lat="42.84241" lon="0.56922">
        <ele>1846.746</ele>
        <time>2021-03-21T10:19:25Z</time>
      </trkpt>
      <trkpt lat="42.84242" lon="0.56922">
        <ele>1847.168</ele>
        <time>2021-03-21T10:19:27Z</time>
      </trkpt>
      <trkpt lat="42.84244" lon="0.56921">
        <ele>1847.39</ele>
        <time>2021-03-21T10:19:29Z</time>
      </trkpt>
      <trkpt lat="42.84245" lon="0.56921">
        <ele>1847.812</ele>
        <time>2021-03-21T10:19:31Z</time>
      </trkpt>
      <trkpt lat="42.84246" lon="0.5692">
        <ele>1847.844</ele>
        <time>2021-03-21T10:19:33Z</time>
      </trkpt>
      <trkpt lat="42.84247" lon="0.5692">
        <ele>1848.093</ele>
        <time>2021-03-21T10:19:35Z</time>
      </trkpt>
      <trkpt lat="42.84248" lon="0.56919">
        <ele>1848.517</ele>
        <time>2021-03-21T10:19:37Z</time>
      </trkpt>
      <trkpt lat="42.8425" lon="0.56919">
        <ele>1848.673</ele>
        <time>2021-03-21T10:19:39Z</time>
      </trkpt>
      <trkpt lat="42.84251" lon="0.56917">
        <ele>1849.413</ele>
        <time>2021-03-21T10:19:41Z</time>
      </trkpt>
      <trkpt lat="42.84253" lon="0.56917">
        <ele>1849.939</ele>
        <time>2021-03-21T10:19:43Z</time>
      </trkpt>
      <trkpt lat="42.84254" lon="0.56916">
        <ele>1850.654</ele>
        <time>2021-03-21T10:19:45Z</time>
      </trkpt>
      <trkpt lat="42.84256" lon="0.56915">
        <ele>1851.233</ele>
        <time>2021-03-21T10:19:47Z</time>
      </trkpt>
      <trkpt lat="42.84257" lon="0.56914">
        <ele>1851.33</ele>
        <time>2021-03-21T10:19:49Z</time>
      </trkpt>
      <trkpt lat="42.84258" lon="0.56913">
        <ele>1851.81</ele>
        <time>2021-03-21T10:19:51Z</time>
      </trkpt>
      <trkpt lat="42.84259" lon="0.56912">
        <ele>1852.398</ele>
        <time>2021-03-21T10:19:53Z</time>
      </trkpt>
      <trkpt lat="42.84261" lon="0.56912">
        <ele>1852.64</ele>
        <time>2021-03-21T10:19:55Z</time>
      </trkpt>
      <trkpt lat="42.84262" lon="0.56911">
        <ele>1852.974</ele>
        <time>2021-03-21T10:19:57Z</time>
      </trkpt>
      <trkpt lat="42.84263" lon="0.5691">
        <ele>1852.825</ele>
        <time>2021-03-21T10:19:59Z</time>
      </trkpt>
      <trkpt lat="42.84264" lon="0.56909">
        <ele>1853.286</ele>
        <time>2021-03-21T10:20:01Z</time>
      </trkpt>
      <trkpt lat="42.84265" lon="0.56909">
        <ele>1853.605</ele>
        <time>2021-03-21T10:20:03Z</time>
      </trkpt>
      <trkpt lat="42.84266" lon="0.56908">
        <ele>1853.302</ele>
        <time>2021-03-21T10:20:05Z</time>
      </trkpt>
      <trkpt lat="42.84267" lon="0.56907">
        <ele>1853.921</ele>
        <time>2021-03-21T10:20:07Z</time>
      </trkpt>
      <trkpt lat="42.84269" lon="0.56906">
        <ele>1854.612</ele>
        <time>2021-03-21T10:20:09Z</time>
      </trkpt>
      <trkpt lat="42.8427" lon="0.56906">
        <ele>1855.118</ele>
        <time>2021-03-21T10:20:11Z</time>
      </trkpt>
      <trkpt lat="42.84271" lon="0.56905">
        <ele>1855.475</ele>
        <time>2021-03-21T10:20:13Z</time>
      </trkpt>
      <trkpt lat="42.84272" lon="0.56904">
        <ele>1855.706</ele>
        <time>2021-03-21T10:20:15Z</time>
      </trkpt>
      <trkpt lat="42.84273" lon="0.56904">
        <ele>1856.233</ele>
        <time>2021-03-21T10:20:17Z</time>
      </trkpt>
      <trkpt lat="42.84275" lon="0.56903">
        <ele>1856.662</ele>
        <time>2021-03-21T10:20:19Z</time>
      </trkpt>
      <trkpt lat="42.84276" lon="0.56902">
        <ele>1857.007</ele>
        <time>2021-03-21T10:20:21Z</time>
      </trkpt>
      <trkpt lat="42.84277" lon="0.56901">
        <ele>1857.555</ele>
        <time>2021-03-21T10:20:23Z</time>
      </trkpt>
      <trkpt lat="42.84278" lon="0.569">
        <ele>1857.607</ele>
        <time>2021-03-21T10:20:25Z</time>
      </trkpt>
      <trkpt lat="42.84279" lon="0.56899">
        <ele>1857.399</ele>
        <time>2021-03-21T10:20:27Z</time>
      </trkpt>
      <trkpt lat="42.84281" lon="0.56899">
        <ele>1857.304</ele>
        <time>2021-03-21T10:20:29Z</time>
      </trkpt>
      <trkpt lat="42.84282" lon="0.56898">
        <ele>1857.039</ele>
        <time>2021-03-21T10:20:31Z</time>
      </trkpt>
      <trkpt lat="42.84283" lon="0.56898">
        <ele>1857.061</ele>
        <time>2021-03-21T10:20:33Z</time>
      </trkpt>
      <trkpt lat="42.84285" lon="0.56898">
        <ele>1856.844</ele>
        <time>2021-03-21T10:20:35Z</time>
      </trkpt>
      <trkpt lat="42.84286" lon="0.56897">
        <ele>1856.665</ele>
        <time>2021-03-21T10:20:37Z</time>
      </trkpt>
      <trkpt lat="42.84287" lon="0.56897">
        <ele>1856.246</ele>
        <time>2021-03-21T10:20:39Z</time>
      </trkpt>
      <trkpt lat="42.84289" lon="0.56897">
        <ele>1856.131</ele>
        <time>2021-03-21T10:20:41Z</time>
      </trkpt>
      <trkpt lat="42.8429" lon="0.56897">
        <ele>1856.292</ele>
        <time>2021-03-21T10:20:43Z</time>
      </trkpt>
      <trkpt lat="42.84292" lon="0.56897">
        <ele>1856.222</ele>
        <time>2021-03-21T10:20:45Z</time>
      </trkpt>
      <trkpt lat="42.84293" lon="0.56896">
        <ele>1856.117</ele>
        <time>2021-03-21T10:20:47Z</time>
      </trkpt>
      <trkpt lat="42.84295" lon="0.56896">
        <ele>1856.394</ele>
        <time>2021-03-21T10:20:49Z</time>
      </trkpt>
      <trkpt lat="42.84296" lon="0.56896">
        <ele>1856.236</ele>
        <time>2021-03-21T10:20:51Z</time>
      </trkpt>
      <trkpt lat="42.84298" lon="0.56895">
        <ele>1856.044</ele>
        <time>2021-03-21T10:20:53Z</time>
      </trkpt>
      <trkpt lat="42.843" lon="0.56895">
        <ele>1856.002</ele>
        <time>2021-03-21T10:20:55Z</time>
      </trkpt>
      <trkpt lat="42.84301" lon="0.56895">
        <ele>1856.259</ele>
        <time>2021-03-21T10:20:57Z</time>
      </trkpt>
      <trkpt lat="42.84303" lon="0.56895">
        <ele>1855.771</ele>
        <time>2021-03-21T10:20:59Z</time>
      </trkpt>
      <trkpt lat="42.84304" lon="0.56894">
        <ele>1856.023</ele>
        <time>2021-03-21T10:21:01Z</time>
      </trkpt>
      <trkpt lat="42.84306" lon="0.56894">
        <ele>1855.875</ele>
        <time>2021-03-21T10:21:03Z</time>
      </trkpt>
      <trkpt lat="42.84307" lon="0.56894">
        <ele>1855.747</ele>
        <time>2021-03-21T10:21:04Z</time>
      </trkpt>
      <trkpt lat="42.84309" lon="0.56893">
        <ele>1855.463</ele>
        <time>2021-03-21T10:21:07Z</time>
      </trkpt>
      <trkpt lat="42.84311" lon="0.56893">
        <ele>1855.514</ele>
        <time>2021-03-21T10:21:09Z</time>
      </trkpt>
      <trkpt lat="42.84312" lon="0.56893">
        <ele>1855.431</ele>
        <time>2021-03-21T10:21:10Z</time>
      </trkpt>
      <trkpt lat="42.84313" lon="0.56892">
        <ele>1855.468</ele>
        <time>2021-03-21T10:21:11Z</time>
      </trkpt>
      <trkpt lat="42.84319" lon="0.5689">
        <ele>1856.764</ele>
        <time>2021-03-21T10:21:19Z</time>
      </trkpt>
      <trkpt lat="42.84321" lon="0.56889">
        <ele>1857.162</ele>
        <time>2021-03-21T10:21:21Z</time>
      </trkpt>
      <trkpt lat="42.84323" lon="0.56889">
        <ele>1857.892</ele>
        <time>2021-03-21T10:21:23Z</time>
      </trkpt>
      <trkpt lat="42.84325" lon="0.56888">
        <ele>1857.833</ele>
        <time>2021-03-21T10:21:25Z</time>
      </trkpt>
      <trkpt lat="42.84326" lon="0.56887">
        <ele>1858.16</ele>
        <time>2021-03-21T10:21:27Z</time>
      </trkpt>
      <trkpt lat="42.84328" lon="0.56886">
        <ele>1858.378</ele>
        <time>2021-03-21T10:21:29Z</time>
      </trkpt>
      <trkpt lat="42.84329" lon="0.56886">
        <ele>1858.871</ele>
        <time>2021-03-21T10:21:31Z</time>
      </trkpt>
      <trkpt lat="42.84331" lon="0.56885">
        <ele>1858.96</ele>
        <time>2021-03-21T10:21:33Z</time>
      </trkpt>
      <trkpt lat="42.84332" lon="0.56885">
        <ele>1858.579</ele>
        <time>2021-03-21T10:21:35Z</time>
      </trkpt>
      <trkpt lat="42.84334" lon="0.56884">
        <ele>1858.891</ele>
        <time>2021-03-21T10:21:37Z</time>
      </trkpt>
      <trkpt lat="42.84334" lon="0.56884">
        <ele>1858.881</ele>
        <time>2021-03-21T10:21:39Z</time>
      </trkpt>
      <trkpt lat="42.84334" lon="0.56884">
        <ele>1859.052</ele>
        <time>2021-03-21T10:21:41Z</time>
      </trkpt>
      <trkpt lat="42.84336" lon="0.56883">
        <ele>1858.879</ele>
        <time>2021-03-21T10:21:43Z</time>
      </trkpt>
      <trkpt lat="42.84338" lon="0.56882">
        <ele>1858.911</ele>
        <time>2021-03-21T10:21:45Z</time>
      </trkpt>
      <trkpt lat="42.84339" lon="0.56882">
        <ele>1859.004</ele>
        <time>2021-03-21T10:21:47Z</time>
      </trkpt>
      <trkpt lat="42.8434" lon="0.56881">
        <ele>1859.031</ele>
        <time>2021-03-21T10:21:49Z</time>
      </trkpt>
      <trkpt lat="42.84342" lon="0.56881">
        <ele>1858.505</ele>
        <time>2021-03-21T10:21:51Z</time>
      </trkpt>
      <trkpt lat="42.84343" lon="0.56881">
        <ele>1858.079</ele>
        <time>2021-03-21T10:21:53Z</time>
      </trkpt>
      <trkpt lat="42.84345" lon="0.5688">
        <ele>1857.461</ele>
        <time>2021-03-21T10:21:55Z</time>
      </trkpt>
      <trkpt lat="42.84346" lon="0.5688">
        <ele>1857.27</ele>
        <time>2021-03-21T10:21:57Z</time>
      </trkpt>
      <trkpt lat="42.84348" lon="0.56879">
        <ele>1857.11</ele>
        <time>2021-03-21T10:21:59Z</time>
      </trkpt>
      <trkpt lat="42.84349" lon="0.56879">
        <ele>1856.731</ele>
        <time>2021-03-21T10:22:01Z</time>
      </trkpt>
      <trkpt lat="42.84351" lon="0.56878">
        <ele>1856.902</ele>
        <time>2021-03-21T10:22:03Z</time>
      </trkpt>
      <trkpt lat="42.84352" lon="0.56877">
        <ele>1856.877</ele>
        <time>2021-03-21T10:22:05Z</time>
      </trkpt>
      <trkpt lat="42.84354" lon="0.56876">
        <ele>1856.275</ele>
        <time>2021-03-21T10:22:07Z</time>
      </trkpt>
      <trkpt lat="42.84356" lon="0.56876">
        <ele>1855.982</ele>
        <time>2021-03-21T10:22:09Z</time>
      </trkpt>
      <trkpt lat="42.84358" lon="0.56874">
        <ele>1855.948</ele>
        <time>2021-03-21T10:22:11Z</time>
      </trkpt>
      <trkpt lat="42.8436" lon="0.56873">
        <ele>1856.196</ele>
        <time>2021-03-21T10:22:13Z</time>
      </trkpt>
      <trkpt lat="42.84362" lon="0.56871">
        <ele>1856.684</ele>
        <time>2021-03-21T10:22:15Z</time>
      </trkpt>
      <trkpt lat="42.84363" lon="0.5687">
        <ele>1857.233</ele>
        <time>2021-03-21T10:22:17Z</time>
      </trkpt>
      <trkpt lat="42.84365" lon="0.5687">
        <ele>1857.554</ele>
        <time>2021-03-21T10:22:19Z</time>
      </trkpt>
      <trkpt lat="42.84367" lon="0.56869">
        <ele>1857.665</ele>
        <time>2021-03-21T10:22:21Z</time>
      </trkpt>
      <trkpt lat="42.84368" lon="0.56869">
        <ele>1857.538</ele>
        <time>2021-03-21T10:22:23Z</time>
      </trkpt>
      <trkpt lat="42.84368" lon="0.56869">
        <ele>1857.533</ele>
        <time>2021-03-21T10:22:25Z</time>
      </trkpt>
      <trkpt lat="42.84368" lon="0.56869">
        <ele>1857.525</ele>
        <time>2021-03-21T10:22:27Z</time>
      </trkpt>
      <trkpt lat="42.84368" lon="0.56869">
        <ele>1857.388</ele>
        <time>2021-03-21T10:22:29Z</time>
      </trkpt>
      <trkpt lat="42.84368" lon="0.56869">
        <ele>1857.39</ele>
        <time>2021-03-21T10:22:31Z</time>
      </trkpt>
      <trkpt lat="42.8437" lon="0.56869">
        <ele>1857.298</ele>
        <time>2021-03-21T10:22:33Z</time>
      </trkpt>
      <trkpt lat="42.84371" lon="0.56868">
        <ele>1857.071</ele>
        <time>2021-03-21T10:22:35Z</time>
      </trkpt>
      <trkpt lat="42.84373" lon="0.56867">
        <ele>1857.598</ele>
        <time>2021-03-21T10:22:37Z</time>
      </trkpt>
      <trkpt lat="42.84374" lon="0.56867">
        <ele>1857.723</ele>
        <time>2021-03-21T10:22:39Z</time>
      </trkpt>
      <trkpt lat="42.84374" lon="0.56867">
        <ele>1857.483</ele>
        <time>2021-03-21T10:22:41Z</time>
      </trkpt>
      <trkpt lat="42.84374" lon="0.56867">
        <ele>1857.481</ele>
        <time>2021-03-21T10:22:43Z</time>
      </trkpt>
      <trkpt lat="42.84374" lon="0.56867">
        <ele>1857.48</ele>
        <time>2021-03-21T10:22:45Z</time>
      </trkpt>
      <trkpt lat="42.84374" lon="0.56867">
        <ele>1857.48</ele>
        <time>2021-03-21T10:22:47Z</time>
      </trkpt>
      <trkpt lat="42.84374" lon="0.56867">
        <ele>1857.482</ele>
        <time>2021-03-21T10:22:49Z</time>
      </trkpt>
      <trkpt lat="42.84374" lon="0.56867">
        <ele>1857.48</ele>
        <time>2021-03-21T10:22:51Z</time>
      </trkpt>
      <trkpt lat="42.84374" lon="0.56867">
        <ele>1857.482</ele>
        <time>2021-03-21T10:22:53Z</time>
      </trkpt>
      <trkpt lat="42.84374" lon="0.56867">
        <ele>1857.478</ele>
        <time>2021-03-21T10:22:56Z</time>
      </trkpt>
      <trkpt lat="42.84374" lon="0.56867">
        <ele>1857.48</ele>
        <time>2021-03-21T10:22:58Z</time>
      </trkpt>
      <trkpt lat="42.84374" lon="0.56867">
        <ele>1857.482</ele>
        <time>2021-03-21T10:23:00Z</time>
      </trkpt>
      <trkpt lat="42.84374" lon="0.56867">
        <ele>1857.481</ele>
        <time>2021-03-21T10:23:02Z</time>
      </trkpt>
      <trkpt lat="42.84374" lon="0.56867">
        <ele>1857.48</ele>
        <time>2021-03-21T10:23:04Z</time>
      </trkpt>
      <trkpt lat="42.84374" lon="0.56867">
        <ele>1857.479</ele>
        <time>2021-03-21T10:23:06Z</time>
      </trkpt>
      <trkpt lat="42.84374" lon="0.56867">
        <ele>1857.481</ele>
        <time>2021-03-21T10:23:08Z</time>
      </trkpt>
      <trkpt lat="42.84374" lon="0.56867">
        <ele>1857.486</ele>
        <time>2021-03-21T10:23:10Z</time>
      </trkpt>
      <trkpt lat="42.84374" lon="0.56867">
        <ele>1857.487</ele>
        <time>2021-03-21T10:23:12Z</time>
      </trkpt>
      <trkpt lat="42.84374" lon="0.56867">
        <ele>1857.487</ele>
        <time>2021-03-21T10:23:14Z</time>
      </trkpt>
      <trkpt lat="42.84374" lon="0.56867">
        <ele>1857.487</ele>
        <time>2021-03-21T10:23:16Z</time>
      </trkpt>
      <trkpt lat="42.84374" lon="0.56867">
        <ele>1857.487</ele>
        <time>2021-03-21T10:23:17Z</time>
      </trkpt>
      <trkpt lat="42.84374" lon="0.56867">
        <ele>1857.49</ele>
        <time>2021-03-21T10:23:20Z</time>
      </trkpt>
      <trkpt lat="42.84374" lon="0.56867">
        <ele>1857.491</ele>
        <time>2021-03-21T10:23:22Z</time>
      </trkpt>
      <trkpt lat="42.84375" lon="0.56866">
        <ele>1857.6</ele>
        <time>2021-03-21T10:23:24Z</time>
      </trkpt>
      <trkpt lat="42.84377" lon="0.56866">
        <ele>1857.638</ele>
        <time>2021-03-21T10:23:26Z</time>
      </trkpt>
      <trkpt lat="42.84379" lon="0.56865">
        <ele>1858.207</ele>
        <time>2021-03-21T10:23:28Z</time>
      </trkpt>
      <trkpt lat="42.8438" lon="0.56864">
        <ele>1858.451</ele>
        <time>2021-03-21T10:23:30Z</time>
      </trkpt>
      <trkpt lat="42.84382" lon="0.56862">
        <ele>1858.565</ele>
        <time>2021-03-21T10:23:32Z</time>
      </trkpt>
      <trkpt lat="42.84383" lon="0.56861">
        <ele>1858.662</ele>
        <time>2021-03-21T10:23:34Z</time>
      </trkpt>
      <trkpt lat="42.84385" lon="0.5686">
        <ele>1858.903</ele>
        <time>2021-03-21T10:23:36Z</time>
      </trkpt>
      <trkpt lat="42.84387" lon="0.5686">
        <ele>1859.139</ele>
        <time>2021-03-21T10:23:38Z</time>
      </trkpt>
      <trkpt lat="42.84388" lon="0.56859">
        <ele>1859.164</ele>
        <time>2021-03-21T10:23:40Z</time>
      </trkpt>
      <trkpt lat="42.8439" lon="0.5686">
        <ele>1859.326</ele>
        <time>2021-03-21T10:23:42Z</time>
      </trkpt>
      <trkpt lat="42.84391" lon="0.56859">
        <ele>1858.917</ele>
        <time>2021-03-21T10:23:44Z</time>
      </trkpt>
      <trkpt lat="42.84393" lon="0.56859">
        <ele>1859.092</ele>
        <time>2021-03-21T10:23:46Z</time>
      </trkpt>
      <trkpt lat="42.84394" lon="0.56858">
        <ele>1859.04</ele>
        <time>2021-03-21T10:23:48Z</time>
      </trkpt>
      <trkpt lat="42.84396" lon="0.56858">
        <ele>1859.324</ele>
        <time>2021-03-21T10:23:50Z</time>
      </trkpt>
      <trkpt lat="42.84398" lon="0.56857">
        <ele>1859.185</ele>
        <time>2021-03-21T10:23:53Z</time>
      </trkpt>
      <trkpt lat="42.84399" lon="0.56856">
        <ele>1859.214</ele>
        <time>2021-03-21T10:23:55Z</time>
      </trkpt>
      <trkpt lat="42.84401" lon="0.56856">
        <ele>1859.184</ele>
        <time>2021-03-21T10:23:57Z</time>
      </trkpt>
      <trkpt lat="42.84403" lon="0.56855">
        <ele>1859.331</ele>
        <time>2021-03-21T10:23:59Z</time>
      </trkpt>
      <trkpt lat="42.84404" lon="0.56855">
        <ele>1859.498</ele>
        <time>2021-03-21T10:24:01Z</time>
      </trkpt>
      <trkpt lat="42.84406" lon="0.56854">
        <ele>1859.706</ele>
        <time>2021-03-21T10:24:03Z</time>
      </trkpt>
      <trkpt lat="42.84407" lon="0.56854">
        <ele>1859.823</ele>
        <time>2021-03-21T10:24:05Z</time>
      </trkpt>
      <trkpt lat="42.84408" lon="0.56854">
        <ele>1860.218</ele>
        <time>2021-03-21T10:24:06Z</time>
      </trkpt>
      <trkpt lat="42.8441" lon="0.56852">
        <ele>1860.902</ele>
        <time>2021-03-21T10:24:09Z</time>
      </trkpt>
      <trkpt lat="42.84411" lon="0.56852">
        <ele>1861.391</ele>
        <time>2021-03-21T10:24:11Z</time>
      </trkpt>
      <trkpt lat="42.84413" lon="0.56851">
        <ele>1861.648</ele>
        <time>2021-03-21T10:24:13Z</time>
      </trkpt>
      <trkpt lat="42.84414" lon="0.56851">
        <ele>1861.836</ele>
        <time>2021-03-21T10:24:15Z</time>
      </trkpt>
      <trkpt lat="42.84416" lon="0.56851">
        <ele>1862.201</ele>
        <time>2021-03-21T10:24:17Z</time>
      </trkpt>
      <trkpt lat="42.84417" lon="0.5685">
        <ele>1862.066</ele>
        <time>2021-03-21T10:24:19Z</time>
      </trkpt>
      <trkpt lat="42.84418" lon="0.5685">
        <ele>1862.426</ele>
        <time>2021-03-21T10:24:21Z</time>
      </trkpt>
      <trkpt lat="42.84419" lon="0.5685">
        <ele>1862.403</ele>
        <time>2021-03-21T10:24:23Z</time>
      </trkpt>
      <trkpt lat="42.84421" lon="0.5685">
        <ele>1863.628</ele>
        <time>2021-03-21T10:24:25Z</time>
      </trkpt>
      <trkpt lat="42.84423" lon="0.56849">
        <ele>1863.5</ele>
        <time>2021-03-21T10:24:27Z</time>
      </trkpt>
      <trkpt lat="42.84424" lon="0.56849">
        <ele>1863.479</ele>
        <time>2021-03-21T10:24:29Z</time>
      </trkpt>
      <trkpt lat="42.84426" lon="0.56849">
        <ele>1863.359</ele>
        <time>2021-03-21T10:24:31Z</time>
      </trkpt>
      <trkpt lat="42.84427" lon="0.56849">
        <ele>1863.258</ele>
        <time>2021-03-21T10:24:33Z</time>
      </trkpt>
      <trkpt lat="42.84429" lon="0.56849">
        <ele>1863.051</ele>
        <time>2021-03-21T10:24:35Z</time>
      </trkpt>
      <trkpt lat="42.84431" lon="0.56849">
        <ele>1862.817</ele>
        <time>2021-03-21T10:24:37Z</time>
      </trkpt>
      <trkpt lat="42.84432" lon="0.56849">
        <ele>1862.772</ele>
        <time>2021-03-21T10:24:39Z</time>
      </trkpt>
      <trkpt lat="42.84434" lon="0.56849">
        <ele>1862.516</ele>
        <time>2021-03-21T10:24:41Z</time>
      </trkpt>
      <trkpt lat="42.84435" lon="0.56849">
        <ele>1862.523</ele>
        <time>2021-03-21T10:24:43Z</time>
      </trkpt>
      <trkpt lat="42.84437" lon="0.56849">
        <ele>1862.643</ele>
        <time>2021-03-21T10:24:45Z</time>
      </trkpt>
      <trkpt lat="42.84438" lon="0.56849">
        <ele>1862.662</ele>
        <time>2021-03-21T10:24:47Z</time>
      </trkpt>
      <trkpt lat="42.84439" lon="0.56848">
        <ele>1862.832</ele>
        <time>2021-03-21T10:24:49Z</time>
      </trkpt>
      <trkpt lat="42.84441" lon="0.56848">
        <ele>1863.076</ele>
        <time>2021-03-21T10:24:51Z</time>
      </trkpt>
      <trkpt lat="42.84443" lon="0.56848">
        <ele>1862.768</ele>
        <time>2021-03-21T10:24:53Z</time>
      </trkpt>
      <trkpt lat="42.84444" lon="0.56848">
        <ele>1862.833</ele>
        <time>2021-03-21T10:24:55Z</time>
      </trkpt>
      <trkpt lat="42.84446" lon="0.56847">
        <ele>1863.154</ele>
        <time>2021-03-21T10:24:57Z</time>
      </trkpt>
      <trkpt lat="42.84447" lon="0.56847">
        <ele>1863.399</ele>
        <time>2021-03-21T10:24:59Z</time>
      </trkpt>
      <trkpt lat="42.84449" lon="0.56847">
        <ele>1864.098</ele>
        <time>2021-03-21T10:25:01Z</time>
      </trkpt>
      <trkpt lat="42.8445" lon="0.56847">
        <ele>1863.732</ele>
        <time>2021-03-21T10:25:03Z</time>
      </trkpt>
      <trkpt lat="42.84452" lon="0.56847">
        <ele>1864.331</ele>
        <time>2021-03-21T10:25:05Z</time>
      </trkpt>
      <trkpt lat="42.84454" lon="0.56847">
        <ele>1863.981</ele>
        <time>2021-03-21T10:25:07Z</time>
      </trkpt>
      <trkpt lat="42.84455" lon="0.56847">
        <ele>1864.602</ele>
        <time>2021-03-21T10:25:09Z</time>
      </trkpt>
      <trkpt lat="42.84457" lon="0.56847">
        <ele>1864.789</ele>
        <time>2021-03-21T10:25:11Z</time>
      </trkpt>
      <trkpt lat="42.84458" lon="0.56846">
        <ele>1865.06</ele>
        <time>2021-03-21T10:25:13Z</time>
      </trkpt>
      <trkpt lat="42.8446" lon="0.56846">
        <ele>1865.515</ele>
        <time>2021-03-21T10:25:15Z</time>
      </trkpt>
      <trkpt lat="42.84461" lon="0.56846">
        <ele>1866.043</ele>
        <time>2021-03-21T10:25:17Z</time>
      </trkpt>
      <trkpt lat="42.84463" lon="0.56845">
        <ele>1866.349</ele>
        <time>2021-03-21T10:25:19Z</time>
      </trkpt>
      <trkpt lat="42.84464" lon="0.56845">
        <ele>1866.481</ele>
        <time>2021-03-21T10:25:21Z</time>
      </trkpt>
      <trkpt lat="42.84466" lon="0.56844">
        <ele>1867.054</ele>
        <time>2021-03-21T10:25:23Z</time>
      </trkpt>
      <trkpt lat="42.84467" lon="0.56844">
        <ele>1867.567</ele>
        <time>2021-03-21T10:25:25Z</time>
      </trkpt>
      <trkpt lat="42.84469" lon="0.56843">
        <ele>1867.957</ele>
        <time>2021-03-21T10:25:27Z</time>
      </trkpt>
      <trkpt lat="42.8447" lon="0.56842">
        <ele>1868.628</ele>
        <time>2021-03-21T10:25:29Z</time>
      </trkpt>
      <trkpt lat="42.84472" lon="0.56841">
        <ele>1869.384</ele>
        <time>2021-03-21T10:25:31Z</time>
      </trkpt>
      <trkpt lat="42.84473" lon="0.56841">
        <ele>1869.959</ele>
        <time>2021-03-21T10:25:33Z</time>
      </trkpt>
      <trkpt lat="42.84474" lon="0.5684">
        <ele>1870.57</ele>
        <time>2021-03-21T10:25:35Z</time>
      </trkpt>
      <trkpt lat="42.84475" lon="0.56839">
        <ele>1871.365</ele>
        <time>2021-03-21T10:25:37Z</time>
      </trkpt>
      <trkpt lat="42.84476" lon="0.56839">
        <ele>1871.562</ele>
        <time>2021-03-21T10:25:39Z</time>
      </trkpt>
      <trkpt lat="42.84478" lon="0.56838">
        <ele>1872.083</ele>
        <time>2021-03-21T10:25:41Z</time>
      </trkpt>
      <trkpt lat="42.84479" lon="0.56837">
        <ele>1872.502</ele>
        <time>2021-03-21T10:25:43Z</time>
      </trkpt>
      <trkpt lat="42.8448" lon="0.56836">
        <ele>1872.59</ele>
        <time>2021-03-21T10:25:45Z</time>
      </trkpt>
      <trkpt lat="42.84481" lon="0.56835">
        <ele>1873.082</ele>
        <time>2021-03-21T10:25:47Z</time>
      </trkpt>
      <trkpt lat="42.84482" lon="0.56834">
        <ele>1873.049</ele>
        <time>2021-03-21T10:25:49Z</time>
      </trkpt>
      <trkpt lat="42.84483" lon="0.56832">
        <ele>1873.384</ele>
        <time>2021-03-21T10:25:51Z</time>
      </trkpt>
      <trkpt lat="42.84484" lon="0.56832">
        <ele>1874.03</ele>
        <time>2021-03-21T10:25:53Z</time>
      </trkpt>
      <trkpt lat="42.84485" lon="0.56831">
        <ele>1874.237</ele>
        <time>2021-03-21T10:25:55Z</time>
      </trkpt>
      <trkpt lat="42.84486" lon="0.5683">
        <ele>1874.544</ele>
        <time>2021-03-21T10:25:57Z</time>
      </trkpt>
      <trkpt lat="42.84486" lon="0.5683">
        <ele>1874.55</ele>
        <time>2021-03-21T10:25:59Z</time>
      </trkpt>
      <trkpt lat="42.84486" lon="0.5683">
        <ele>1874.549</ele>
        <time>2021-03-21T10:26:01Z</time>
      </trkpt>
      <trkpt lat="42.84486" lon="0.5683">
        <ele>1874.547</ele>
        <time>2021-03-21T10:26:03Z</time>
      </trkpt>
      <trkpt lat="42.84486" lon="0.5683">
        <ele>1874.545</ele>
        <time>2021-03-21T10:26:05Z</time>
      </trkpt>
      <trkpt lat="42.84486" lon="0.5683">
        <ele>1874.544</ele>
        <time>2021-03-21T10:26:07Z</time>
      </trkpt>
      <trkpt lat="42.84486" lon="0.5683">
        <ele>1874.542</ele>
        <time>2021-03-21T10:26:09Z</time>
      </trkpt>
      <trkpt lat="42.84486" lon="0.5683">
        <ele>1874.543</ele>
        <time>2021-03-21T10:26:11Z</time>
      </trkpt>
      <trkpt lat="42.84486" lon="0.5683">
        <ele>1874.542</ele>
        <time>2021-03-21T10:26:13Z</time>
      </trkpt>
      <trkpt lat="42.84486" lon="0.5683">
        <ele>1874.541</ele>
        <time>2021-03-21T10:26:15Z</time>
      </trkpt>
      <trkpt lat="42.84486" lon="0.5683">
        <ele>1874.537</ele>
        <time>2021-03-21T10:26:17Z</time>
      </trkpt>
      <trkpt lat="42.84486" lon="0.5683">
        <ele>1874.539</ele>
        <time>2021-03-21T10:26:19Z</time>
      </trkpt>
      <trkpt lat="42.84486" lon="0.5683">
        <ele>1874.539</ele>
        <time>2021-03-21T10:26:21Z</time>
      </trkpt>
      <trkpt lat="42.84486" lon="0.5683">
        <ele>1874.537</ele>
        <time>2021-03-21T10:26:23Z</time>
      </trkpt>
      <trkpt lat="42.84486" lon="0.5683">
        <ele>1874.352</ele>
        <time>2021-03-21T10:26:25Z</time>
      </trkpt>
      <trkpt lat="42.84486" lon="0.5683">
        <ele>1874.346</ele>
        <time>2021-03-21T10:26:27Z</time>
      </trkpt>
      <trkpt lat="42.84486" lon="0.5683">
        <ele>1874.344</ele>
        <time>2021-03-21T10:26:29Z</time>
      </trkpt>
      <trkpt lat="42.84486" lon="0.5683">
        <ele>1874.341</ele>
        <time>2021-03-21T10:26:31Z</time>
      </trkpt>
      <trkpt lat="42.84486" lon="0.5683">
        <ele>1874.34</ele>
        <time>2021-03-21T10:26:33Z</time>
      </trkpt>
      <trkpt lat="42.84486" lon="0.5683">
        <ele>1874.339</ele>
        <time>2021-03-21T10:26:35Z</time>
      </trkpt>
      <trkpt lat="42.84486" lon="0.5683">
        <ele>1874.337</ele>
        <time>2021-03-21T10:26:37Z</time>
      </trkpt>
      <trkpt lat="42.84486" lon="0.5683">
        <ele>1874.334</ele>
        <time>2021-03-21T10:26:39Z</time>
      </trkpt>
      <trkpt lat="42.84486" lon="0.5683">
        <ele>1874.333</ele>
        <time>2021-03-21T10:26:41Z</time>
      </trkpt>
      <trkpt lat="42.84486" lon="0.5683">
        <ele>1874.331</ele>
        <time>2021-03-21T10:26:43Z</time>
      </trkpt>
      <trkpt lat="42.84486" lon="0.5683">
        <ele>1874.328</ele>
        <time>2021-03-21T10:26:45Z</time>
      </trkpt>
      <trkpt lat="42.84486" lon="0.5683">
        <ele>1874.325</ele>
        <time>2021-03-21T10:26:47Z</time>
      </trkpt>
      <trkpt lat="42.84486" lon="0.5683">
        <ele>1874.324</ele>
        <time>2021-03-21T10:26:49Z</time>
      </trkpt>
      <trkpt lat="42.84486" lon="0.5683">
        <ele>1874.322</ele>
        <time>2021-03-21T10:26:51Z</time>
      </trkpt>
      <trkpt lat="42.84486" lon="0.5683">
        <ele>1874.322</ele>
        <time>2021-03-21T10:26:53Z</time>
      </trkpt>
      <trkpt lat="42.84486" lon="0.5683">
        <ele>1874.317</ele>
        <time>2021-03-21T10:26:55Z</time>
      </trkpt>
      <trkpt lat="42.84486" lon="0.5683">
        <ele>1874.315</ele>
        <time>2021-03-21T10:26:57Z</time>
      </trkpt>
      <trkpt lat="42.84486" lon="0.5683">
        <ele>1874.315</ele>
        <time>2021-03-21T10:26:59Z</time>
      </trkpt>
      <trkpt lat="42.84486" lon="0.5683">
        <ele>1874.315</ele>
        <time>2021-03-21T10:27:01Z</time>
      </trkpt>
      <trkpt lat="42.84486" lon="0.5683">
        <ele>1874.311</ele>
        <time>2021-03-21T10:27:03Z</time>
      </trkpt>
      <trkpt lat="42.84486" lon="0.5683">
        <ele>1874.558</ele>
        <time>2021-03-21T10:27:05Z</time>
      </trkpt>
      <trkpt lat="42.84487" lon="0.56828">
        <ele>1875.252</ele>
        <time>2021-03-21T10:27:07Z</time>
      </trkpt>
      <trkpt lat="42.84488" lon="0.56828">
        <ele>1875.804</ele>
        <time>2021-03-21T10:27:09Z</time>
      </trkpt>
      <trkpt lat="42.84489" lon="0.56828">
        <ele>1876.7</ele>
        <time>2021-03-21T10:27:11Z</time>
      </trkpt>
      <trkpt lat="42.84491" lon="0.56827">
        <ele>1877.109</ele>
        <time>2021-03-21T10:27:13Z</time>
      </trkpt>
      <trkpt lat="42.84492" lon="0.56828">
        <ele>1877.299</ele>
        <time>2021-03-21T10:27:15Z</time>
      </trkpt>
      <trkpt lat="42.84493" lon="0.56828">
        <ele>1877.951</ele>
        <time>2021-03-21T10:27:17Z</time>
      </trkpt>
      <trkpt lat="42.84494" lon="0.56828">
        <ele>1878.031</ele>
        <time>2021-03-21T10:27:19Z</time>
      </trkpt>
      <trkpt lat="42.84496" lon="0.56828">
        <ele>1878.326</ele>
        <time>2021-03-21T10:27:21Z</time>
      </trkpt>
      <trkpt lat="42.84497" lon="0.56827">
        <ele>1878.51</ele>
        <time>2021-03-21T10:27:23Z</time>
      </trkpt>
      <trkpt lat="42.84498" lon="0.56827">
        <ele>1878.367</ele>
        <time>2021-03-21T10:27:25Z</time>
      </trkpt>
      <trkpt lat="42.84499" lon="0.56826">
        <ele>1878.192</ele>
        <time>2021-03-21T10:27:27Z</time>
      </trkpt>
      <trkpt lat="42.845" lon="0.56826">
        <ele>1878.101</ele>
        <time>2021-03-21T10:27:29Z</time>
      </trkpt>
      <trkpt lat="42.84501" lon="0.56826">
        <ele>1877.966</ele>
        <time>2021-03-21T10:27:31Z</time>
      </trkpt>
      <trkpt lat="42.84503" lon="0.56825">
        <ele>1878.265</ele>
        <time>2021-03-21T10:27:33Z</time>
      </trkpt>
      <trkpt lat="42.84504" lon="0.56824">
        <ele>1878.352</ele>
        <time>2021-03-21T10:27:35Z</time>
      </trkpt>
      <trkpt lat="42.84505" lon="0.56823">
        <ele>1878.071</ele>
        <time>2021-03-21T10:27:37Z</time>
      </trkpt>
      <trkpt lat="42.84506" lon="0.56822">
        <ele>1878.071</ele>
        <time>2021-03-21T10:27:39Z</time>
      </trkpt>
      <trkpt lat="42.84508" lon="0.56821">
        <ele>1877.615</ele>
        <time>2021-03-21T10:27:41Z</time>
      </trkpt>
      <trkpt lat="42.84509" lon="0.5682">
        <ele>1877.796</ele>
        <time>2021-03-21T10:27:43Z</time>
      </trkpt>
      <trkpt lat="42.8451" lon="0.56819">
        <ele>1877.875</ele>
        <time>2021-03-21T10:27:45Z</time>
      </trkpt>
      <trkpt lat="42.84511" lon="0.56817">
        <ele>1877.635</ele>
        <time>2021-03-21T10:27:47Z</time>
      </trkpt>
      <trkpt lat="42.84512" lon="0.56817">
        <ele>1877.332</ele>
        <time>2021-03-21T10:27:49Z</time>
      </trkpt>
      <trkpt lat="42.84513" lon="0.56815">
        <ele>1877.116</ele>
        <time>2021-03-21T10:27:51Z</time>
      </trkpt>
      <trkpt lat="42.84515" lon="0.56814">
        <ele>1876.53</ele>
        <time>2021-03-21T10:27:53Z</time>
      </trkpt>
      <trkpt lat="42.84516" lon="0.56813">
        <ele>1876.453</ele>
        <time>2021-03-21T10:27:55Z</time>
      </trkpt>
      <trkpt lat="42.84517" lon="0.56812">
        <ele>1876.567</ele>
        <time>2021-03-21T10:27:57Z</time>
      </trkpt>
      <trkpt lat="42.84519" lon="0.56811">
        <ele>1876.588</ele>
        <time>2021-03-21T10:27:59Z</time>
      </trkpt>
      <trkpt lat="42.8452" lon="0.5681">
        <ele>1876.624</ele>
        <time>2021-03-21T10:28:01Z</time>
      </trkpt>
      <trkpt lat="42.8452" lon="0.56809">
        <ele>1876.379</ele>
        <time>2021-03-21T10:28:03Z</time>
      </trkpt>
      <trkpt lat="42.84522" lon="0.56808">
        <ele>1875.904</ele>
        <time>2021-03-21T10:28:05Z</time>
      </trkpt>
      <trkpt lat="42.84523" lon="0.56807">
        <ele>1876.072</ele>
        <time>2021-03-21T10:28:07Z</time>
      </trkpt>
      <trkpt lat="42.84524" lon="0.56806">
        <ele>1875.72</ele>
        <time>2021-03-21T10:28:09Z</time>
      </trkpt>
      <trkpt lat="42.84526" lon="0.56805">
        <ele>1875.837</ele>
        <time>2021-03-21T10:28:11Z</time>
      </trkpt>
      <trkpt lat="42.84527" lon="0.56804">
        <ele>1875.64</ele>
        <time>2021-03-21T10:28:13Z</time>
      </trkpt>
      <trkpt lat="42.84529" lon="0.56803">
        <ele>1875.674</ele>
        <time>2021-03-21T10:28:15Z</time>
      </trkpt>
      <trkpt lat="42.8453" lon="0.56802">
        <ele>1875.329</ele>
        <time>2021-03-21T10:28:17Z</time>
      </trkpt>
      <trkpt lat="42.84532" lon="0.56802">
        <ele>1875.249</ele>
        <time>2021-03-21T10:28:19Z</time>
      </trkpt>
      <trkpt lat="42.84533" lon="0.568">
        <ele>1875.224</ele>
        <time>2021-03-21T10:28:21Z</time>
      </trkpt>
      <trkpt lat="42.84535" lon="0.56799">
        <ele>1875.624</ele>
        <time>2021-03-21T10:28:23Z</time>
      </trkpt>
      <trkpt lat="42.84536" lon="0.56798">
        <ele>1875.4</ele>
        <time>2021-03-21T10:28:25Z</time>
      </trkpt>
      <trkpt lat="42.84537" lon="0.56797">
        <ele>1875.114</ele>
        <time>2021-03-21T10:28:27Z</time>
      </trkpt>
      <trkpt lat="42.84538" lon="0.56795">
        <ele>1875.203</ele>
        <time>2021-03-21T10:28:29Z</time>
      </trkpt>
      <trkpt lat="42.84539" lon="0.56794">
        <ele>1875.496</ele>
        <time>2021-03-21T10:28:31Z</time>
      </trkpt>
      <trkpt lat="42.8454" lon="0.56792">
        <ele>1875.456</ele>
        <time>2021-03-21T10:28:33Z</time>
      </trkpt>
      <trkpt lat="42.84542" lon="0.56791">
        <ele>1875.325</ele>
        <time>2021-03-21T10:28:35Z</time>
      </trkpt>
      <trkpt lat="42.84543" lon="0.56789">
        <ele>1875.728</ele>
        <time>2021-03-21T10:28:37Z</time>
      </trkpt>
      <trkpt lat="42.84544" lon="0.56787">
        <ele>1875.647</ele>
        <time>2021-03-21T10:28:39Z</time>
      </trkpt>
      <trkpt lat="42.84545" lon="0.56786">
        <ele>1875.552</ele>
        <time>2021-03-21T10:28:41Z</time>
      </trkpt>
      <trkpt lat="42.84546" lon="0.56784">
        <ele>1875.518</ele>
        <time>2021-03-21T10:28:43Z</time>
      </trkpt>
      <trkpt lat="42.84548" lon="0.56783">
        <ele>1876.258</ele>
        <time>2021-03-21T10:28:45Z</time>
      </trkpt>
      <trkpt lat="42.84549" lon="0.56782">
        <ele>1876.124</ele>
        <time>2021-03-21T10:28:47Z</time>
      </trkpt>
      <trkpt lat="42.8455" lon="0.5678">
        <ele>1876.067</ele>
        <time>2021-03-21T10:28:49Z</time>
      </trkpt>
      <trkpt lat="42.84551" lon="0.56779">
        <ele>1876.071</ele>
        <time>2021-03-21T10:28:51Z</time>
      </trkpt>
      <trkpt lat="42.84552" lon="0.56777">
        <ele>1875.976</ele>
        <time>2021-03-21T10:28:53Z</time>
      </trkpt>
      <trkpt lat="42.84553" lon="0.56776">
        <ele>1876.051</ele>
        <time>2021-03-21T10:28:55Z</time>
      </trkpt>
      <trkpt lat="42.84554" lon="0.56775">
        <ele>1876.162</ele>
        <time>2021-03-21T10:28:57Z</time>
      </trkpt>
      <trkpt lat="42.84556" lon="0.56774">
        <ele>1876.589</ele>
        <time>2021-03-21T10:28:59Z</time>
      </trkpt>
      <trkpt lat="42.84557" lon="0.56773">
        <ele>1877.038</ele>
        <time>2021-03-21T10:29:01Z</time>
      </trkpt>
      <trkpt lat="42.84558" lon="0.56772">
        <ele>1876.964</ele>
        <time>2021-03-21T10:29:03Z</time>
      </trkpt>
      <trkpt lat="42.84559" lon="0.56772">
        <ele>1876.756</ele>
        <time>2021-03-21T10:29:05Z</time>
      </trkpt>
      <trkpt lat="42.84561" lon="0.56771">
        <ele>1877.109</ele>
        <time>2021-03-21T10:29:07Z</time>
      </trkpt>
      <trkpt lat="42.84562" lon="0.5677">
        <ele>1877.204</ele>
        <time>2021-03-21T10:29:09Z</time>
      </trkpt>
      <trkpt lat="42.84564" lon="0.5677">
        <ele>1877.817</ele>
        <time>2021-03-21T10:29:11Z</time>
      </trkpt>
      <trkpt lat="42.84565" lon="0.56769">
        <ele>1878.333</ele>
        <time>2021-03-21T10:29:13Z</time>
      </trkpt>
      <trkpt lat="42.84567" lon="0.56768">
        <ele>1878.292</ele>
        <time>2021-03-21T10:29:15Z</time>
      </trkpt>
      <trkpt lat="42.84568" lon="0.56767">
        <ele>1878.758</ele>
        <time>2021-03-21T10:29:17Z</time>
      </trkpt>
      <trkpt lat="42.8457" lon="0.56767">
        <ele>1879.159</ele>
        <time>2021-03-21T10:29:19Z</time>
      </trkpt>
      <trkpt lat="42.84571" lon="0.56766">
        <ele>1878.952</ele>
        <time>2021-03-21T10:29:21Z</time>
      </trkpt>
      <trkpt lat="42.84572" lon="0.56765">
        <ele>1879.661</ele>
        <time>2021-03-21T10:29:23Z</time>
      </trkpt>
      <trkpt lat="42.84574" lon="0.56764">
        <ele>1879.84</ele>
        <time>2021-03-21T10:29:25Z</time>
      </trkpt>
      <trkpt lat="42.84575" lon="0.56763">
        <ele>1880.362</ele>
        <time>2021-03-21T10:29:27Z</time>
      </trkpt>
      <trkpt lat="42.84576" lon="0.56762">
        <ele>1880.758</ele>
        <time>2021-03-21T10:29:29Z</time>
      </trkpt>
      <trkpt lat="42.84577" lon="0.56761">
        <ele>1881.551</ele>
        <time>2021-03-21T10:29:31Z</time>
      </trkpt>
      <trkpt lat="42.84577" lon="0.56761">
        <ele>1881.443</ele>
        <time>2021-03-21T10:29:33Z</time>
      </trkpt>
      <trkpt lat="42.84579" lon="0.56759">
        <ele>1881.564</ele>
        <time>2021-03-21T10:29:35Z</time>
      </trkpt>
      <trkpt lat="42.8458" lon="0.56758">
        <ele>1882.068</ele>
        <time>2021-03-21T10:29:37Z</time>
      </trkpt>
      <trkpt lat="42.84581" lon="0.56758">
        <ele>1881.602</ele>
        <time>2021-03-21T10:29:39Z</time>
      </trkpt>
      <trkpt lat="42.84583" lon="0.56757">
        <ele>1881.592</ele>
        <time>2021-03-21T10:29:41Z</time>
      </trkpt>
      <trkpt lat="42.84584" lon="0.56756">
        <ele>1881.412</ele>
        <time>2021-03-21T10:29:43Z</time>
      </trkpt>
      <trkpt lat="42.84586" lon="0.56755">
        <ele>1881.312</ele>
        <time>2021-03-21T10:29:45Z</time>
      </trkpt>
      <trkpt lat="42.84587" lon="0.56754">
        <ele>1881.531</ele>
        <time>2021-03-21T10:29:47Z</time>
      </trkpt>
      <trkpt lat="42.84588" lon="0.56753">
        <ele>1880.867</ele>
        <time>2021-03-21T10:29:49Z</time>
      </trkpt>
      <trkpt lat="42.8459" lon="0.56753">
        <ele>1880.495</ele>
        <time>2021-03-21T10:29:51Z</time>
      </trkpt>
      <trkpt lat="42.84591" lon="0.56753">
        <ele>1880.535</ele>
        <time>2021-03-21T10:29:53Z</time>
      </trkpt>
      <trkpt lat="42.84592" lon="0.56753">
        <ele>1880.103</ele>
        <time>2021-03-21T10:29:55Z</time>
      </trkpt>
      <trkpt lat="42.84594" lon="0.56753">
        <ele>1879.974</ele>
        <time>2021-03-21T10:29:57Z</time>
      </trkpt>
      <trkpt lat="42.84595" lon="0.56755">
        <ele>1880.067</ele>
        <time>2021-03-21T10:29:59Z</time>
      </trkpt>
      <trkpt lat="42.84596" lon="0.56756">
        <ele>1880.074</ele>
        <time>2021-03-21T10:30:01Z</time>
      </trkpt>
      <trkpt lat="42.84597" lon="0.56758">
        <ele>1880.385</ele>
        <time>2021-03-21T10:30:03Z</time>
      </trkpt>
      <trkpt lat="42.84597" lon="0.56758">
        <ele>1880.671</ele>
        <time>2021-03-21T10:30:04Z</time>
      </trkpt>
      <trkpt lat="42.84599" lon="0.5676">
        <ele>1881.94</ele>
        <time>2021-03-21T10:30:07Z</time>
      </trkpt>
      <trkpt lat="42.84599" lon="0.56762">
        <ele>1881.864</ele>
        <time>2021-03-21T10:30:09Z</time>
      </trkpt>
      <trkpt lat="42.846" lon="0.56764">
        <ele>1882.132</ele>
        <time>2021-03-21T10:30:11Z</time>
      </trkpt>
      <trkpt lat="42.84601" lon="0.56765">
        <ele>1882.687</ele>
        <time>2021-03-21T10:30:13Z</time>
      </trkpt>
      <trkpt lat="42.84601" lon="0.56765">
        <ele>1883.039</ele>
        <time>2021-03-21T10:30:14Z</time>
      </trkpt>
      <trkpt lat="42.84603" lon="0.56767">
        <ele>1883.756</ele>
        <time>2021-03-21T10:30:17Z</time>
      </trkpt>
      <trkpt lat="42.84603" lon="0.56767">
        <ele>1883.632</ele>
        <time>2021-03-21T10:30:19Z</time>
      </trkpt>
      <trkpt lat="42.84604" lon="0.56767">
        <ele>1883.916</ele>
        <time>2021-03-21T10:30:21Z</time>
      </trkpt>
      <trkpt lat="42.84604" lon="0.56767">
        <ele>1883.886</ele>
        <time>2021-03-21T10:30:22Z</time>
      </trkpt>
      <trkpt lat="42.84604" lon="0.56767">
        <ele>1884.059</ele>
        <time>2021-03-21T10:30:24Z</time>
      </trkpt>
      <trkpt lat="42.84604" lon="0.56767">
        <ele>1884.156</ele>
        <time>2021-03-21T10:30:27Z</time>
      </trkpt>
      <trkpt lat="42.84605" lon="0.56768">
        <ele>1884.511</ele>
        <time>2021-03-21T10:30:29Z</time>
      </trkpt>
      <trkpt lat="42.84606" lon="0.56768">
        <ele>1884.627</ele>
        <time>2021-03-21T10:30:31Z</time>
      </trkpt>
      <trkpt lat="42.84607" lon="0.56769">
        <ele>1884.777</ele>
        <time>2021-03-21T10:30:33Z</time>
      </trkpt>
      <trkpt lat="42.84608" lon="0.5677">
        <ele>1884.932</ele>
        <time>2021-03-21T10:30:35Z</time>
      </trkpt>
      <trkpt lat="42.84609" lon="0.56771">
        <ele>1885.767</ele>
        <time>2021-03-21T10:30:37Z</time>
      </trkpt>
      <trkpt lat="42.8461" lon="0.56772">
        <ele>1885.851</ele>
        <time>2021-03-21T10:30:39Z</time>
      </trkpt>
      <trkpt lat="42.8461" lon="0.56773">
        <ele>1885.38</ele>
        <time>2021-03-21T10:30:41Z</time>
      </trkpt>
      <trkpt lat="42.84611" lon="0.56773">
        <ele>1885.331</ele>
        <time>2021-03-21T10:30:42Z</time>
      </trkpt>
      <trkpt lat="42.84611" lon="0.56774">
        <ele>1885.323</ele>
        <time>2021-03-21T10:30:45Z</time>
      </trkpt>
      <trkpt lat="42.84611" lon="0.56774">
        <ele>1884.837</ele>
        <time>2021-03-21T10:30:47Z</time>
      </trkpt>
      <trkpt lat="42.84611" lon="0.56775">
        <ele>1884.322</ele>
        <time>2021-03-21T10:30:49Z</time>
      </trkpt>
      <trkpt lat="42.84611" lon="0.56776">
        <ele>1884.044</ele>
        <time>2021-03-21T10:30:51Z</time>
      </trkpt>
      <trkpt lat="42.84611" lon="0.56776">
        <ele>1883.95</ele>
        <time>2021-03-21T10:30:53Z</time>
      </trkpt>
      <trkpt lat="42.84611" lon="0.56776">
        <ele>1883.94</ele>
        <time>2021-03-21T10:30:55Z</time>
      </trkpt>
      <trkpt lat="42.84611" lon="0.56776">
        <ele>1883.934</ele>
        <time>2021-03-21T10:30:57Z</time>
      </trkpt>
      <trkpt lat="42.84611" lon="0.56776">
        <ele>1883.931</ele>
        <time>2021-03-21T10:30:59Z</time>
      </trkpt>
      <trkpt lat="42.84611" lon="0.56777">
        <ele>1883.879</ele>
        <time>2021-03-21T10:31:01Z</time>
      </trkpt>
      <trkpt lat="42.84612" lon="0.56778">
        <ele>1883.666</ele>
        <time>2021-03-21T10:31:03Z</time>
      </trkpt>
      <trkpt lat="42.84613" lon="0.56779">
        <ele>1883.167</ele>
        <time>2021-03-21T10:31:05Z</time>
      </trkpt>
      <trkpt lat="42.84613" lon="0.56781">
        <ele>1883.376</ele>
        <time>2021-03-21T10:31:07Z</time>
      </trkpt>
      <trkpt lat="42.84614" lon="0.56781">
        <ele>1883.485</ele>
        <time>2021-03-21T10:31:09Z</time>
      </trkpt>
      <trkpt lat="42.84614" lon="0.56781">
        <ele>1883.487</ele>
        <time>2021-03-21T10:31:11Z</time>
      </trkpt>
      <trkpt lat="42.84614" lon="0.56782">
        <ele>1883.222</ele>
        <time>2021-03-21T10:31:13Z</time>
      </trkpt>
      <trkpt lat="42.84616" lon="0.56784">
        <ele>1882.354</ele>
        <time>2021-03-21T10:31:15Z</time>
      </trkpt>
      <trkpt lat="42.84617" lon="0.56785">
        <ele>1881.868</ele>
        <time>2021-03-21T10:31:17Z</time>
      </trkpt>
      <trkpt lat="42.84617" lon="0.56787">
        <ele>1880.485</ele>
        <time>2021-03-21T10:31:19Z</time>
      </trkpt>
      <trkpt lat="42.84618" lon="0.56788">
        <ele>1880.4</ele>
        <time>2021-03-21T10:31:21Z</time>
      </trkpt>
      <trkpt lat="42.8462" lon="0.56788">
        <ele>1880.002</ele>
        <time>2021-03-21T10:31:23Z</time>
      </trkpt>
      <trkpt lat="42.84621" lon="0.56789">
        <ele>1879.334</ele>
        <time>2021-03-21T10:31:25Z</time>
      </trkpt>
      <trkpt lat="42.84622" lon="0.56789">
        <ele>1879.216</ele>
        <time>2021-03-21T10:31:27Z</time>
      </trkpt>
      <trkpt lat="42.84624" lon="0.56791">
        <ele>1879.121</ele>
        <time>2021-03-21T10:31:29Z</time>
      </trkpt>
      <trkpt lat="42.84625" lon="0.56792">
        <ele>1878.796</ele>
        <time>2021-03-21T10:31:31Z</time>
      </trkpt>
      <trkpt lat="42.84627" lon="0.56793">
        <ele>1878.428</ele>
        <time>2021-03-21T10:31:33Z</time>
      </trkpt>
      <trkpt lat="42.84628" lon="0.56795">
        <ele>1877.655</ele>
        <time>2021-03-21T10:31:35Z</time>
      </trkpt>
      <trkpt lat="42.84629" lon="0.56796">
        <ele>1877.13</ele>
        <time>2021-03-21T10:31:37Z</time>
      </trkpt>
      <trkpt lat="42.84631" lon="0.56797">
        <ele>1876.93</ele>
        <time>2021-03-21T10:31:39Z</time>
      </trkpt>
      <trkpt lat="42.84632" lon="0.56799">
        <ele>1877.155</ele>
        <time>2021-03-21T10:31:41Z</time>
      </trkpt>
      <trkpt lat="42.84633" lon="0.568">
        <ele>1876.881</ele>
        <time>2021-03-21T10:31:43Z</time>
      </trkpt>
      <trkpt lat="42.84635" lon="0.56801">
        <ele>1876.743</ele>
        <time>2021-03-21T10:31:45Z</time>
      </trkpt>
      <trkpt lat="42.84636" lon="0.56802">
        <ele>1876.394</ele>
        <time>2021-03-21T10:31:47Z</time>
      </trkpt>
      <trkpt lat="42.84637" lon="0.56803">
        <ele>1875.99</ele>
        <time>2021-03-21T10:31:49Z</time>
      </trkpt>
      <trkpt lat="42.84639" lon="0.56805">
        <ele>1875.613</ele>
        <time>2021-03-21T10:31:51Z</time>
      </trkpt>
      <trkpt lat="42.8464" lon="0.56806">
        <ele>1875.365</ele>
        <time>2021-03-21T10:31:53Z</time>
      </trkpt>
      <trkpt lat="42.84641" lon="0.56807">
        <ele>1874.977</ele>
        <time>2021-03-21T10:31:55Z</time>
      </trkpt>
      <trkpt lat="42.84643" lon="0.56807">
        <ele>1874.561</ele>
        <time>2021-03-21T10:31:57Z</time>
      </trkpt>
      <trkpt lat="42.84644" lon="0.56809">
        <ele>1874.623</ele>
        <time>2021-03-21T10:31:59Z</time>
      </trkpt>
      <trkpt lat="42.84645" lon="0.5681">
        <ele>1874.199</ele>
        <time>2021-03-21T10:32:01Z</time>
      </trkpt>
      <trkpt lat="42.84647" lon="0.56811">
        <ele>1874.441</ele>
        <time>2021-03-21T10:32:03Z</time>
      </trkpt>
      <trkpt lat="42.84649" lon="0.56812">
        <ele>1874.156</ele>
        <time>2021-03-21T10:32:05Z</time>
      </trkpt>
      <trkpt lat="42.8465" lon="0.56813">
        <ele>1874.016</ele>
        <time>2021-03-21T10:32:07Z</time>
      </trkpt>
      <trkpt lat="42.84652" lon="0.56814">
        <ele>1873.531</ele>
        <time>2021-03-21T10:32:09Z</time>
      </trkpt>
      <trkpt lat="42.84653" lon="0.56815">
        <ele>1873.271</ele>
        <time>2021-03-21T10:32:11Z</time>
      </trkpt>
      <trkpt lat="42.84655" lon="0.56816">
        <ele>1873.177</ele>
        <time>2021-03-21T10:32:13Z</time>
      </trkpt>
      <trkpt lat="42.84656" lon="0.56816">
        <ele>1873.375</ele>
        <time>2021-03-21T10:32:15Z</time>
      </trkpt>
      <trkpt lat="42.84658" lon="0.56817">
        <ele>1873.604</ele>
        <time>2021-03-21T10:32:17Z</time>
      </trkpt>
      <trkpt lat="42.84659" lon="0.56817">
        <ele>1873.698</ele>
        <time>2021-03-21T10:32:19Z</time>
      </trkpt>
      <trkpt lat="42.84661" lon="0.56818">
        <ele>1873.864</ele>
        <time>2021-03-21T10:32:21Z</time>
      </trkpt>
      <trkpt lat="42.84662" lon="0.56819">
        <ele>1873.883</ele>
        <time>2021-03-21T10:32:23Z</time>
      </trkpt>
      <trkpt lat="42.84664" lon="0.56819">
        <ele>1874.024</ele>
        <time>2021-03-21T10:32:25Z</time>
      </trkpt>
      <trkpt lat="42.84666" lon="0.5682">
        <ele>1874.478</ele>
        <time>2021-03-21T10:32:27Z</time>
      </trkpt>
      <trkpt lat="42.84667" lon="0.56821">
        <ele>1875.069</ele>
        <time>2021-03-21T10:32:29Z</time>
      </trkpt>
      <trkpt lat="42.84668" lon="0.56821">
        <ele>1875.038</ele>
        <time>2021-03-21T10:32:31Z</time>
      </trkpt>
      <trkpt lat="42.8467" lon="0.56821">
        <ele>1875.638</ele>
        <time>2021-03-21T10:32:33Z</time>
      </trkpt>
      <trkpt lat="42.84672" lon="0.56822">
        <ele>1875.995</ele>
        <time>2021-03-21T10:32:35Z</time>
      </trkpt>
      <trkpt lat="42.84673" lon="0.56822">
        <ele>1876.66</ele>
        <time>2021-03-21T10:32:37Z</time>
      </trkpt>
      <trkpt lat="42.84675" lon="0.56823">
        <ele>1877.273</ele>
        <time>2021-03-21T10:32:39Z</time>
      </trkpt>
      <trkpt lat="42.84677" lon="0.56823">
        <ele>1877.517</ele>
        <time>2021-03-21T10:32:41Z</time>
      </trkpt>
      <trkpt lat="42.84678" lon="0.56824">
        <ele>1877.92</ele>
        <time>2021-03-21T10:32:43Z</time>
      </trkpt>
      <trkpt lat="42.84679" lon="0.56824">
        <ele>1878.55</ele>
        <time>2021-03-21T10:32:45Z</time>
      </trkpt>
      <trkpt lat="42.84681" lon="0.56825">
        <ele>1879.429</ele>
        <time>2021-03-21T10:32:47Z</time>
      </trkpt>
      <trkpt lat="42.84682" lon="0.56825">
        <ele>1879.749</ele>
        <time>2021-03-21T10:32:49Z</time>
      </trkpt>
      <trkpt lat="42.84684" lon="0.56825">
        <ele>1880.196</ele>
        <time>2021-03-21T10:32:51Z</time>
      </trkpt>
      <trkpt lat="42.84685" lon="0.56826">
        <ele>1880.393</ele>
        <time>2021-03-21T10:32:53Z</time>
      </trkpt>
      <trkpt lat="42.84686" lon="0.56826">
        <ele>1881.06</ele>
        <time>2021-03-21T10:32:55Z</time>
      </trkpt>
      <trkpt lat="42.84687" lon="0.56826">
        <ele>1880.857</ele>
        <time>2021-03-21T10:32:57Z</time>
      </trkpt>
      <trkpt lat="42.84689" lon="0.56826">
        <ele>1881.156</ele>
        <time>2021-03-21T10:32:59Z</time>
      </trkpt>
      <trkpt lat="42.8469" lon="0.56827">
        <ele>1881.85</ele>
        <time>2021-03-21T10:33:01Z</time>
      </trkpt>
      <trkpt lat="42.84691" lon="0.56827">
        <ele>1881.649</ele>
        <time>2021-03-21T10:33:03Z</time>
      </trkpt>
      <trkpt lat="42.84692" lon="0.56828">
        <ele>1882.306</ele>
        <time>2021-03-21T10:33:05Z</time>
      </trkpt>
      <trkpt lat="42.84694" lon="0.56829">
        <ele>1882.42</ele>
        <time>2021-03-21T10:33:07Z</time>
      </trkpt>
      <trkpt lat="42.84695" lon="0.56829">
        <ele>1883.012</ele>
        <time>2021-03-21T10:33:09Z</time>
      </trkpt>
      <trkpt lat="42.84696" lon="0.56829">
        <ele>1883.526</ele>
        <time>2021-03-21T10:33:11Z</time>
      </trkpt>
      <trkpt lat="42.84697" lon="0.5683">
        <ele>1883.914</ele>
        <time>2021-03-21T10:33:13Z</time>
      </trkpt>
      <trkpt lat="42.84698" lon="0.56831">
        <ele>1884.339</ele>
        <time>2021-03-21T10:33:15Z</time>
      </trkpt>
      <trkpt lat="42.84699" lon="0.56831">
        <ele>1884.354</ele>
        <time>2021-03-21T10:33:17Z</time>
      </trkpt>
      <trkpt lat="42.847" lon="0.56832">
        <ele>1885.15</ele>
        <time>2021-03-21T10:33:19Z</time>
      </trkpt>
      <trkpt lat="42.84701" lon="0.56832">
        <ele>1885.384</ele>
        <time>2021-03-21T10:33:21Z</time>
      </trkpt>
      <trkpt lat="42.84702" lon="0.56833">
        <ele>1885.514</ele>
        <time>2021-03-21T10:33:23Z</time>
      </trkpt>
      <trkpt lat="42.84703" lon="0.56834">
        <ele>1886.29</ele>
        <time>2021-03-21T10:33:25Z</time>
      </trkpt>
      <trkpt lat="42.84704" lon="0.56834">
        <ele>1886.621</ele>
        <time>2021-03-21T10:33:27Z</time>
      </trkpt>
      <trkpt lat="42.84706" lon="0.56835">
        <ele>1887.072</ele>
        <time>2021-03-21T10:33:29Z</time>
      </trkpt>
      <trkpt lat="42.84706" lon="0.56835">
        <ele>1887.087</ele>
        <time>2021-03-21T10:33:31Z</time>
      </trkpt>
      <trkpt lat="42.84707" lon="0.56835">
        <ele>1887.388</ele>
        <time>2021-03-21T10:33:33Z</time>
      </trkpt>
      <trkpt lat="42.84708" lon="0.56835">
        <ele>1887.528</ele>
        <time>2021-03-21T10:33:35Z</time>
      </trkpt>
      <trkpt lat="42.84708" lon="0.56835">
        <ele>1887.354</ele>
        <time>2021-03-21T10:33:37Z</time>
      </trkpt>
      <trkpt lat="42.84708" lon="0.56835">
        <ele>1887.35</ele>
        <time>2021-03-21T10:33:39Z</time>
      </trkpt>
      <trkpt lat="42.84708" lon="0.56835">
        <ele>1887.35</ele>
        <time>2021-03-21T10:33:41Z</time>
      </trkpt>
      <trkpt lat="42.84709" lon="0.56836">
        <ele>1887.34</ele>
        <time>2021-03-21T10:33:43Z</time>
      </trkpt>
      <trkpt lat="42.8471" lon="0.56836">
        <ele>1886.996</ele>
        <time>2021-03-21T10:33:45Z</time>
      </trkpt>
      <trkpt lat="42.84711" lon="0.56837">
        <ele>1886.848</ele>
        <time>2021-03-21T10:33:47Z</time>
      </trkpt>
      <trkpt lat="42.84713" lon="0.56837">
        <ele>1886.531</ele>
        <time>2021-03-21T10:33:49Z</time>
      </trkpt>
      <trkpt lat="42.84714" lon="0.56838">
        <ele>1886.694</ele>
        <time>2021-03-21T10:33:51Z</time>
      </trkpt>
      <trkpt lat="42.84715" lon="0.56839">
        <ele>1886.803</ele>
        <time>2021-03-21T10:33:53Z</time>
      </trkpt>
      <trkpt lat="42.84717" lon="0.56839">
        <ele>1886.652</ele>
        <time>2021-03-21T10:33:55Z</time>
      </trkpt>
      <trkpt lat="42.84718" lon="0.56839">
        <ele>1886.76</ele>
        <time>2021-03-21T10:33:57Z</time>
      </trkpt>
      <trkpt lat="42.8472" lon="0.5684">
        <ele>1885.953</ele>
        <time>2021-03-21T10:34:00Z</time>
      </trkpt>
      <trkpt lat="42.84721" lon="0.56841">
        <ele>1885.744</ele>
        <time>2021-03-21T10:34:02Z</time>
      </trkpt>
      <trkpt lat="42.84722" lon="0.56842">
        <ele>1885.35</ele>
        <time>2021-03-21T10:34:04Z</time>
      </trkpt>
      <trkpt lat="42.84724" lon="0.56843">
        <ele>1884.899</ele>
        <time>2021-03-21T10:34:06Z</time>
      </trkpt>
      <trkpt lat="42.84725" lon="0.56843">
        <ele>1884.712</ele>
        <time>2021-03-21T10:34:08Z</time>
      </trkpt>
      <trkpt lat="42.84726" lon="0.56844">
        <ele>1884.603</ele>
        <time>2021-03-21T10:34:10Z</time>
      </trkpt>
      <trkpt lat="42.84728" lon="0.56844">
        <ele>1884.182</ele>
        <time>2021-03-21T10:34:12Z</time>
      </trkpt>
      <trkpt lat="42.84729" lon="0.56845">
        <ele>1884.18</ele>
        <time>2021-03-21T10:34:14Z</time>
      </trkpt>
      <trkpt lat="42.8473" lon="0.56845">
        <ele>1884.624</ele>
        <time>2021-03-21T10:34:16Z</time>
      </trkpt>
      <trkpt lat="42.84731" lon="0.56846">
        <ele>1884.828</ele>
        <time>2021-03-21T10:34:18Z</time>
      </trkpt>
      <trkpt lat="42.84733" lon="0.56847">
        <ele>1884.74</ele>
        <time>2021-03-21T10:34:20Z</time>
      </trkpt>
      <trkpt lat="42.84734" lon="0.56847">
        <ele>1885.317</ele>
        <time>2021-03-21T10:34:22Z</time>
      </trkpt>
      <trkpt lat="42.84736" lon="0.56847">
        <ele>1886.234</ele>
        <time>2021-03-21T10:34:24Z</time>
      </trkpt>
      <trkpt lat="42.84737" lon="0.56848">
        <ele>1886.563</ele>
        <time>2021-03-21T10:34:26Z</time>
      </trkpt>
      <trkpt lat="42.84739" lon="0.56848">
        <ele>1886.888</ele>
        <time>2021-03-21T10:34:28Z</time>
      </trkpt>
      <trkpt lat="42.8474" lon="0.56848">
        <ele>1887.71</ele>
        <time>2021-03-21T10:34:30Z</time>
      </trkpt>
      <trkpt lat="42.84742" lon="0.56848">
        <ele>1887.996</ele>
        <time>2021-03-21T10:34:32Z</time>
      </trkpt>
      <trkpt lat="42.84743" lon="0.56849">
        <ele>1887.853</ele>
        <time>2021-03-21T10:34:34Z</time>
      </trkpt>
      <trkpt lat="42.84745" lon="0.56849">
        <ele>1887.798</ele>
        <time>2021-03-21T10:34:36Z</time>
      </trkpt>
      <trkpt lat="42.84746" lon="0.56849">
        <ele>1887.847</ele>
        <time>2021-03-21T10:34:38Z</time>
      </trkpt>
      <trkpt lat="42.84747" lon="0.5685">
        <ele>1888.242</ele>
        <time>2021-03-21T10:34:40Z</time>
      </trkpt>
      <trkpt lat="42.84749" lon="0.56851">
        <ele>1888.611</ele>
        <time>2021-03-21T10:34:42Z</time>
      </trkpt>
      <trkpt lat="42.8475" lon="0.56851">
        <ele>1889.131</ele>
        <time>2021-03-21T10:34:44Z</time>
      </trkpt>
      <trkpt lat="42.84751" lon="0.56852">
        <ele>1889.776</ele>
        <time>2021-03-21T10:34:46Z</time>
      </trkpt>
      <trkpt lat="42.84752" lon="0.56852">
        <ele>1890.668</ele>
        <time>2021-03-21T10:34:48Z</time>
      </trkpt>
      <trkpt lat="42.84753" lon="0.56852">
        <ele>1891.618</ele>
        <time>2021-03-21T10:34:50Z</time>
      </trkpt>
      <trkpt lat="42.84755" lon="0.56853">
        <ele>1891.887</ele>
        <time>2021-03-21T10:34:52Z</time>
      </trkpt>
      <trkpt lat="42.84756" lon="0.56854">
        <ele>1892.166</ele>
        <time>2021-03-21T10:34:54Z</time>
      </trkpt>
      <trkpt lat="42.84757" lon="0.56854">
        <ele>1892.08</ele>
        <time>2021-03-21T10:34:56Z</time>
      </trkpt>
      <trkpt lat="42.84758" lon="0.56854">
        <ele>1892.322</ele>
        <time>2021-03-21T10:34:58Z</time>
      </trkpt>
      <trkpt lat="42.8476" lon="0.56854">
        <ele>1892.692</ele>
        <time>2021-03-21T10:35:00Z</time>
      </trkpt>
      <trkpt lat="42.84761" lon="0.56854">
        <ele>1892.696</ele>
        <time>2021-03-21T10:35:02Z</time>
      </trkpt>
      <trkpt lat="42.84762" lon="0.56854">
        <ele>1893.368</ele>
        <time>2021-03-21T10:35:04Z</time>
      </trkpt>
      <trkpt lat="42.84763" lon="0.56854">
        <ele>1893.269</ele>
        <time>2021-03-21T10:35:06Z</time>
      </trkpt>
      <trkpt lat="42.84764" lon="0.56854">
        <ele>1893.988</ele>
        <time>2021-03-21T10:35:08Z</time>
      </trkpt>
      <trkpt lat="42.84765" lon="0.56854">
        <ele>1893.852</ele>
        <time>2021-03-21T10:35:10Z</time>
      </trkpt>
      <trkpt lat="42.84767" lon="0.56854">
        <ele>1894.639</ele>
        <time>2021-03-21T10:35:12Z</time>
      </trkpt>
      <trkpt lat="42.84768" lon="0.56854">
        <ele>1895.027</ele>
        <time>2021-03-21T10:35:14Z</time>
      </trkpt>
      <trkpt lat="42.84768" lon="0.56854">
        <ele>1895.259</ele>
        <time>2021-03-21T10:35:16Z</time>
      </trkpt>
      <trkpt lat="42.84769" lon="0.56855">
        <ele>1895.174</ele>
        <time>2021-03-21T10:35:18Z</time>
      </trkpt>
      <trkpt lat="42.8477" lon="0.56855">
        <ele>1896.201</ele>
        <time>2021-03-21T10:35:20Z</time>
      </trkpt>
      <trkpt lat="42.84772" lon="0.56856">
        <ele>1896.219</ele>
        <time>2021-03-21T10:35:23Z</time>
      </trkpt>
      <trkpt lat="42.84773" lon="0.56857">
        <ele>1895.791</ele>
        <time>2021-03-21T10:35:25Z</time>
      </trkpt>
      <trkpt lat="42.84774" lon="0.56857">
        <ele>1896.339</ele>
        <time>2021-03-21T10:35:27Z</time>
      </trkpt>
      <trkpt lat="42.84776" lon="0.56858">
        <ele>1896.529</ele>
        <time>2021-03-21T10:35:29Z</time>
      </trkpt>
      <trkpt lat="42.84776" lon="0.56858">
        <ele>1897.099</ele>
        <time>2021-03-21T10:35:31Z</time>
      </trkpt>
      <trkpt lat="42.84778" lon="0.56858">
        <ele>1898.019</ele>
        <time>2021-03-21T10:35:34Z</time>
      </trkpt>
      <trkpt lat="42.84779" lon="0.56858">
        <ele>1898.622</ele>
        <time>2021-03-21T10:35:36Z</time>
      </trkpt>
      <trkpt lat="42.8478" lon="0.56858">
        <ele>1898.326</ele>
        <time>2021-03-21T10:35:38Z</time>
      </trkpt>
      <trkpt lat="42.8478" lon="0.56858">
        <ele>1898.321</ele>
        <time>2021-03-21T10:35:40Z</time>
      </trkpt>
      <trkpt lat="42.8478" lon="0.56858">
        <ele>1898.319</ele>
        <time>2021-03-21T10:35:42Z</time>
      </trkpt>
      <trkpt lat="42.8478" lon="0.56858">
        <ele>1898.315</ele>
        <time>2021-03-21T10:35:44Z</time>
      </trkpt>
      <trkpt lat="42.84781" lon="0.56858">
        <ele>1898.224</ele>
        <time>2021-03-21T10:35:46Z</time>
      </trkpt>
      <trkpt lat="42.84781" lon="0.56857">
        <ele>1898.222</ele>
        <time>2021-03-21T10:35:48Z</time>
      </trkpt>
      <trkpt lat="42.84782" lon="0.56857">
        <ele>1898.564</ele>
        <time>2021-03-21T10:35:50Z</time>
      </trkpt>
      <trkpt lat="42.84783" lon="0.56856">
        <ele>1899.253</ele>
        <time>2021-03-21T10:35:52Z</time>
      </trkpt>
      <trkpt lat="42.84783" lon="0.56856">
        <ele>1899.307</ele>
        <time>2021-03-21T10:35:54Z</time>
      </trkpt>
      <trkpt lat="42.84783" lon="0.56856">
        <ele>1899.313</ele>
        <time>2021-03-21T10:35:56Z</time>
      </trkpt>
      <trkpt lat="42.84784" lon="0.56856">
        <ele>1899.574</ele>
        <time>2021-03-21T10:35:58Z</time>
      </trkpt>
      <trkpt lat="42.84785" lon="0.56854">
        <ele>1899.939</ele>
        <time>2021-03-21T10:36:00Z</time>
      </trkpt>
      <trkpt lat="42.84786" lon="0.56854">
        <ele>1900.002</ele>
        <time>2021-03-21T10:36:02Z</time>
      </trkpt>
      <trkpt lat="42.84787" lon="0.56853">
        <ele>1900.239</ele>
        <time>2021-03-21T10:36:04Z</time>
      </trkpt>
      <trkpt lat="42.84788" lon="0.56852">
        <ele>1900.249</ele>
        <time>2021-03-21T10:36:06Z</time>
      </trkpt>
      <trkpt lat="42.84789" lon="0.56852">
        <ele>1900.469</ele>
        <time>2021-03-21T10:36:08Z</time>
      </trkpt>
      <trkpt lat="42.8479" lon="0.5685">
        <ele>1900.211</ele>
        <time>2021-03-21T10:36:10Z</time>
      </trkpt>
      <trkpt lat="42.84791" lon="0.56849">
        <ele>1900.268</ele>
        <time>2021-03-21T10:36:12Z</time>
      </trkpt>
      <trkpt lat="42.84792" lon="0.56847">
        <ele>1900.224</ele>
        <time>2021-03-21T10:36:14Z</time>
      </trkpt>
      <trkpt lat="42.84792" lon="0.56846">
        <ele>1900.292</ele>
        <time>2021-03-21T10:36:16Z</time>
      </trkpt>
      <trkpt lat="42.84793" lon="0.56844">
        <ele>1900.532</ele>
        <time>2021-03-21T10:36:18Z</time>
      </trkpt>
      <trkpt lat="42.84794" lon="0.56843">
        <ele>1900.921</ele>
        <time>2021-03-21T10:36:20Z</time>
      </trkpt>
      <trkpt lat="42.84795" lon="0.56842">
        <ele>1901.477</ele>
        <time>2021-03-21T10:36:22Z</time>
      </trkpt>
      <trkpt lat="42.84796" lon="0.5684">
        <ele>1901.951</ele>
        <time>2021-03-21T10:36:24Z</time>
      </trkpt>
      <trkpt lat="42.84797" lon="0.56838">
        <ele>1901.933</ele>
        <time>2021-03-21T10:36:26Z</time>
      </trkpt>
      <trkpt lat="42.84797" lon="0.56837">
        <ele>1902.175</ele>
        <time>2021-03-21T10:36:28Z</time>
      </trkpt>
      <trkpt lat="42.84797" lon="0.56835">
        <ele>1902.198</ele>
        <time>2021-03-21T10:36:30Z</time>
      </trkpt>
      <trkpt lat="42.84798" lon="0.56834">
        <ele>1902.207</ele>
        <time>2021-03-21T10:36:32Z</time>
      </trkpt>
      <trkpt lat="42.84799" lon="0.56833">
        <ele>1901.84</ele>
        <time>2021-03-21T10:36:34Z</time>
      </trkpt>
      <trkpt lat="42.848" lon="0.56831">
        <ele>1902.592</ele>
        <time>2021-03-21T10:36:36Z</time>
      </trkpt>
      <trkpt lat="42.848" lon="0.56829">
        <ele>1903.41</ele>
        <time>2021-03-21T10:36:38Z</time>
      </trkpt>
      <trkpt lat="42.84801" lon="0.56828">
        <ele>1903.591</ele>
        <time>2021-03-21T10:36:40Z</time>
      </trkpt>
      <trkpt lat="42.84801" lon="0.56826">
        <ele>1903.521</ele>
        <time>2021-03-21T10:36:42Z</time>
      </trkpt>
      <trkpt lat="42.84802" lon="0.56825">
        <ele>1903.22</ele>
        <time>2021-03-21T10:36:44Z</time>
      </trkpt>
      <trkpt lat="42.84803" lon="0.56823">
        <ele>1903.332</ele>
        <time>2021-03-21T10:36:46Z</time>
      </trkpt>
      <trkpt lat="42.84803" lon="0.56822">
        <ele>1903.323</ele>
        <time>2021-03-21T10:36:48Z</time>
      </trkpt>
      <trkpt lat="42.84804" lon="0.5682">
        <ele>1903.2</ele>
        <time>2021-03-21T10:36:50Z</time>
      </trkpt>
      <trkpt lat="42.84805" lon="0.56818">
        <ele>1903.103</ele>
        <time>2021-03-21T10:36:52Z</time>
      </trkpt>
      <trkpt lat="42.84806" lon="0.56817">
        <ele>1903.334</ele>
        <time>2021-03-21T10:36:54Z</time>
      </trkpt>
      <trkpt lat="42.84806" lon="0.56815">
        <ele>1903.037</ele>
        <time>2021-03-21T10:36:56Z</time>
      </trkpt>
      <trkpt lat="42.84807" lon="0.56813">
        <ele>1903.128</ele>
        <time>2021-03-21T10:36:58Z</time>
      </trkpt>
      <trkpt lat="42.84808" lon="0.56812">
        <ele>1903.521</ele>
        <time>2021-03-21T10:37:00Z</time>
      </trkpt>
      <trkpt lat="42.84809" lon="0.56811">
        <ele>1903.55</ele>
        <time>2021-03-21T10:37:02Z</time>
      </trkpt>
      <trkpt lat="42.84809" lon="0.5681">
        <ele>1903.51</ele>
        <time>2021-03-21T10:37:03Z</time>
      </trkpt>
      <trkpt lat="42.84811" lon="0.56807">
        <ele>1903.499</ele>
        <time>2021-03-21T10:37:06Z</time>
      </trkpt>
      <trkpt lat="42.84811" lon="0.56806">
        <ele>1903.466</ele>
        <time>2021-03-21T10:37:08Z</time>
      </trkpt>
      <trkpt lat="42.84813" lon="0.56804">
        <ele>1903.785</ele>
        <time>2021-03-21T10:37:10Z</time>
      </trkpt>
      <trkpt lat="42.84814" lon="0.56802">
        <ele>1903.525</ele>
        <time>2021-03-21T10:37:12Z</time>
      </trkpt>
      <trkpt lat="42.84814" lon="0.568">
        <ele>1903.647</ele>
        <time>2021-03-21T10:37:14Z</time>
      </trkpt>
      <trkpt lat="42.84815" lon="0.56798">
        <ele>1903.616</ele>
        <time>2021-03-21T10:37:16Z</time>
      </trkpt>
      <trkpt lat="42.84816" lon="0.56797">
        <ele>1903.888</ele>
        <time>2021-03-21T10:37:18Z</time>
      </trkpt>
      <trkpt lat="42.84817" lon="0.56795">
        <ele>1903.687</ele>
        <time>2021-03-21T10:37:20Z</time>
      </trkpt>
      <trkpt lat="42.84818" lon="0.56793">
        <ele>1903.994</ele>
        <time>2021-03-21T10:37:22Z</time>
      </trkpt>
      <trkpt lat="42.84819" lon="0.56792">
        <ele>1904.241</ele>
        <time>2021-03-21T10:37:24Z</time>
      </trkpt>
      <trkpt lat="42.8482" lon="0.5679">
        <ele>1904.155</ele>
        <time>2021-03-21T10:37:26Z</time>
      </trkpt>
      <trkpt lat="42.84821" lon="0.56789">
        <ele>1904.162</ele>
        <time>2021-03-21T10:37:28Z</time>
      </trkpt>
      <trkpt lat="42.84823" lon="0.56787">
        <ele>1904.501</ele>
        <time>2021-03-21T10:37:30Z</time>
      </trkpt>
      <trkpt lat="42.84824" lon="0.56786">
        <ele>1904.583</ele>
        <time>2021-03-21T10:37:32Z</time>
      </trkpt>
      <trkpt lat="42.84825" lon="0.56784">
        <ele>1904.928</ele>
        <time>2021-03-21T10:37:34Z</time>
      </trkpt>
      <trkpt lat="42.84826" lon="0.56783">
        <ele>1905.101</ele>
        <time>2021-03-21T10:37:36Z</time>
      </trkpt>
      <trkpt lat="42.84827" lon="0.56781">
        <ele>1905.32</ele>
        <time>2021-03-21T10:37:38Z</time>
      </trkpt>
      <trkpt lat="42.84829" lon="0.5678">
        <ele>1905.243</ele>
        <time>2021-03-21T10:37:40Z</time>
      </trkpt>
      <trkpt lat="42.8483" lon="0.56778">
        <ele>1905.53</ele>
        <time>2021-03-21T10:37:42Z</time>
      </trkpt>
      <trkpt lat="42.84831" lon="0.56777">
        <ele>1905.584</ele>
        <time>2021-03-21T10:37:44Z</time>
      </trkpt>
      <trkpt lat="42.84833" lon="0.56775">
        <ele>1905.955</ele>
        <time>2021-03-21T10:37:46Z</time>
      </trkpt>
      <trkpt lat="42.84834" lon="0.56774">
        <ele>1906.203</ele>
        <time>2021-03-21T10:37:48Z</time>
      </trkpt>
      <trkpt lat="42.84835" lon="0.56774">
        <ele>1905.941</ele>
        <time>2021-03-21T10:37:50Z</time>
      </trkpt>
      <trkpt lat="42.84836" lon="0.56773">
        <ele>1906.053</ele>
        <time>2021-03-21T10:37:52Z</time>
      </trkpt>
      <trkpt lat="42.84837" lon="0.56772">
        <ele>1906.269</ele>
        <time>2021-03-21T10:37:54Z</time>
      </trkpt>
      <trkpt lat="42.84838" lon="0.56771">
        <ele>1906.76</ele>
        <time>2021-03-21T10:37:56Z</time>
      </trkpt>
      <trkpt lat="42.8484" lon="0.5677">
        <ele>1907.024</ele>
        <time>2021-03-21T10:37:58Z</time>
      </trkpt>
      <trkpt lat="42.84841" lon="0.56769">
        <ele>1906.849</ele>
        <time>2021-03-21T10:38:00Z</time>
      </trkpt>
      <trkpt lat="42.84842" lon="0.56768">
        <ele>1907.007</ele>
        <time>2021-03-21T10:38:02Z</time>
      </trkpt>
      <trkpt lat="42.84843" lon="0.56767">
        <ele>1906.548</ele>
        <time>2021-03-21T10:38:04Z</time>
      </trkpt>
      <trkpt lat="42.84844" lon="0.56766">
        <ele>1906.76</ele>
        <time>2021-03-21T10:38:06Z</time>
      </trkpt>
      <trkpt lat="42.84845" lon="0.56766">
        <ele>1906.902</ele>
        <time>2021-03-21T10:38:08Z</time>
      </trkpt>
      <trkpt lat="42.84846" lon="0.56765">
        <ele>1906.994</ele>
        <time>2021-03-21T10:38:10Z</time>
      </trkpt>
      <trkpt lat="42.84847" lon="0.56764">
        <ele>1907.285</ele>
        <time>2021-03-21T10:38:12Z</time>
      </trkpt>
      <trkpt lat="42.84848" lon="0.56764">
        <ele>1907.887</ele>
        <time>2021-03-21T10:38:14Z</time>
      </trkpt>
      <trkpt lat="42.8485" lon="0.56763">
        <ele>1908.245</ele>
        <time>2021-03-21T10:38:16Z</time>
      </trkpt>
      <trkpt lat="42.84851" lon="0.56762">
        <ele>1908.281</ele>
        <time>2021-03-21T10:38:18Z</time>
      </trkpt>
      <trkpt lat="42.84852" lon="0.56761">
        <ele>1909.143</ele>
        <time>2021-03-21T10:38:20Z</time>
      </trkpt>
      <trkpt lat="42.84853" lon="0.56761">
        <ele>1909.33</ele>
        <time>2021-03-21T10:38:22Z</time>
      </trkpt>
      <trkpt lat="42.84854" lon="0.56761">
        <ele>1909.448</ele>
        <time>2021-03-21T10:38:24Z</time>
      </trkpt>
      <trkpt lat="42.84855" lon="0.5676">
        <ele>1909.863</ele>
        <time>2021-03-21T10:38:26Z</time>
      </trkpt>
      <trkpt lat="42.84856" lon="0.5676">
        <ele>1910.274</ele>
        <time>2021-03-21T10:38:28Z</time>
      </trkpt>
      <trkpt lat="42.84857" lon="0.56759">
        <ele>1910.636</ele>
        <time>2021-03-21T10:38:30Z</time>
      </trkpt>
      <trkpt lat="42.84858" lon="0.56759">
        <ele>1911.1</ele>
        <time>2021-03-21T10:38:32Z</time>
      </trkpt>
      <trkpt lat="42.84859" lon="0.56758">
        <ele>1911.084</ele>
        <time>2021-03-21T10:38:34Z</time>
      </trkpt>
      <trkpt lat="42.8486" lon="0.56757">
        <ele>1911.472</ele>
        <time>2021-03-21T10:38:36Z</time>
      </trkpt>
      <trkpt lat="42.84861" lon="0.56756">
        <ele>1911.47</ele>
        <time>2021-03-21T10:38:38Z</time>
      </trkpt>
      <trkpt lat="42.84862" lon="0.56755">
        <ele>1911.828</ele>
        <time>2021-03-21T10:38:40Z</time>
      </trkpt>
      <trkpt lat="42.84863" lon="0.56754">
        <ele>1911.836</ele>
        <time>2021-03-21T10:38:42Z</time>
      </trkpt>
      <trkpt lat="42.84864" lon="0.56753">
        <ele>1911.864</ele>
        <time>2021-03-21T10:38:44Z</time>
      </trkpt>
      <trkpt lat="42.84865" lon="0.56753">
        <ele>1912.192</ele>
        <time>2021-03-21T10:38:46Z</time>
      </trkpt>
      <trkpt lat="42.84866" lon="0.56752">
        <ele>1912.442</ele>
        <time>2021-03-21T10:38:48Z</time>
      </trkpt>
      <trkpt lat="42.84866" lon="0.56752">
        <ele>1912.709</ele>
        <time>2021-03-21T10:38:50Z</time>
      </trkpt>
      <trkpt lat="42.84866" lon="0.56751">
        <ele>1912.783</ele>
        <time>2021-03-21T10:38:52Z</time>
      </trkpt>
      <trkpt lat="42.84867" lon="0.56751">
        <ele>1912.66</ele>
        <time>2021-03-21T10:38:54Z</time>
      </trkpt>
      <trkpt lat="42.84867" lon="0.5675">
        <ele>1912.519</ele>
        <time>2021-03-21T10:38:56Z</time>
      </trkpt>
      <trkpt lat="42.84868" lon="0.56749">
        <ele>1913.01</ele>
        <time>2021-03-21T10:38:58Z</time>
      </trkpt>
      <trkpt lat="42.84868" lon="0.56748">
        <ele>1913.064</ele>
        <time>2021-03-21T10:39:00Z</time>
      </trkpt>
      <trkpt lat="42.84869" lon="0.56746">
        <ele>1913.536</ele>
        <time>2021-03-21T10:39:02Z</time>
      </trkpt>
      <trkpt lat="42.8487" lon="0.56744">
        <ele>1913.638</ele>
        <time>2021-03-21T10:39:04Z</time>
      </trkpt>
      <trkpt lat="42.84871" lon="0.56743">
        <ele>1913.599</ele>
        <time>2021-03-21T10:39:06Z</time>
      </trkpt>
      <trkpt lat="42.84871" lon="0.56742">
        <ele>1913.561</ele>
        <time>2021-03-21T10:39:08Z</time>
      </trkpt>
      <trkpt lat="42.84871" lon="0.56742">
        <ele>1913.556</ele>
        <time>2021-03-21T10:39:10Z</time>
      </trkpt>
      <trkpt lat="42.84871" lon="0.56742">
        <ele>1913.559</ele>
        <time>2021-03-21T10:39:12Z</time>
      </trkpt>
      <trkpt lat="42.84871" lon="0.56742">
        <ele>1913.562</ele>
        <time>2021-03-21T10:39:14Z</time>
      </trkpt>
      <trkpt lat="42.84871" lon="0.56741">
        <ele>1913.699</ele>
        <time>2021-03-21T10:39:16Z</time>
      </trkpt>
      <trkpt lat="42.84872" lon="0.56741">
        <ele>1913.691</ele>
        <time>2021-03-21T10:39:18Z</time>
      </trkpt>
      <trkpt lat="42.84872" lon="0.56741">
        <ele>1913.689</ele>
        <time>2021-03-21T10:39:20Z</time>
      </trkpt>
      <trkpt lat="42.84872" lon="0.56741">
        <ele>1913.685</ele>
        <time>2021-03-21T10:39:22Z</time>
      </trkpt>
      <trkpt lat="42.84872" lon="0.5674">
        <ele>1914.129</ele>
        <time>2021-03-21T10:39:24Z</time>
      </trkpt>
      <trkpt lat="42.84872" lon="0.5674">
        <ele>1914.134</ele>
        <time>2021-03-21T10:39:26Z</time>
      </trkpt>
      <trkpt lat="42.84873" lon="0.56739">
        <ele>1914.042</ele>
        <time>2021-03-21T10:39:28Z</time>
      </trkpt>
      <trkpt lat="42.84874" lon="0.56737">
        <ele>1914.272</ele>
        <time>2021-03-21T10:39:30Z</time>
      </trkpt>
      <trkpt lat="42.84874" lon="0.56736">
        <ele>1914.663</ele>
        <time>2021-03-21T10:39:32Z</time>
      </trkpt>
      <trkpt lat="42.84875" lon="0.56734">
        <ele>1914.562</ele>
        <time>2021-03-21T10:39:34Z</time>
      </trkpt>
      <trkpt lat="42.84876" lon="0.56733">
        <ele>1914.467</ele>
        <time>2021-03-21T10:39:36Z</time>
      </trkpt>
      <trkpt lat="42.84877" lon="0.56732">
        <ele>1914.447</ele>
        <time>2021-03-21T10:39:38Z</time>
      </trkpt>
      <trkpt lat="42.84878" lon="0.5673">
        <ele>1914.009</ele>
        <time>2021-03-21T10:39:40Z</time>
      </trkpt>
      <trkpt lat="42.8488" lon="0.56729">
        <ele>1913.543</ele>
        <time>2021-03-21T10:39:42Z</time>
      </trkpt>
      <trkpt lat="42.84881" lon="0.56728">
        <ele>1913.078</ele>
        <time>2021-03-21T10:39:44Z</time>
      </trkpt>
      <trkpt lat="42.84883" lon="0.56728">
        <ele>1912.781</ele>
        <time>2021-03-21T10:39:46Z</time>
      </trkpt>
      <trkpt lat="42.84884" lon="0.56726">
        <ele>1912.824</ele>
        <time>2021-03-21T10:39:48Z</time>
      </trkpt>
      <trkpt lat="42.84886" lon="0.56726">
        <ele>1912.658</ele>
        <time>2021-03-21T10:39:50Z</time>
      </trkpt>
      <trkpt lat="42.84888" lon="0.56725">
        <ele>1912.588</ele>
        <time>2021-03-21T10:39:52Z</time>
      </trkpt>
      <trkpt lat="42.84889" lon="0.56725">
        <ele>1912.708</ele>
        <time>2021-03-21T10:39:54Z</time>
      </trkpt>
      <trkpt lat="42.84891" lon="0.56724">
        <ele>1912.785</ele>
        <time>2021-03-21T10:39:56Z</time>
      </trkpt>
      <trkpt lat="42.84892" lon="0.56723">
        <ele>1912.857</ele>
        <time>2021-03-21T10:39:58Z</time>
      </trkpt>
      <trkpt lat="42.84894" lon="0.56723">
        <ele>1913.039</ele>
        <time>2021-03-21T10:40:00Z</time>
      </trkpt>
      <trkpt lat="42.84895" lon="0.56722">
        <ele>1913.096</ele>
        <time>2021-03-21T10:40:02Z</time>
      </trkpt>
      <trkpt lat="42.84897" lon="0.56722">
        <ele>1913.284</ele>
        <time>2021-03-21T10:40:04Z</time>
      </trkpt>
      <trkpt lat="42.84898" lon="0.56722">
        <ele>1913.538</ele>
        <time>2021-03-21T10:40:06Z</time>
      </trkpt>
      <trkpt lat="42.849" lon="0.56722">
        <ele>1913.678</ele>
        <time>2021-03-21T10:40:08Z</time>
      </trkpt>
      <trkpt lat="42.84901" lon="0.56721">
        <ele>1913.879</ele>
        <time>2021-03-21T10:40:10Z</time>
      </trkpt>
      <trkpt lat="42.84903" lon="0.56721">
        <ele>1914.177</ele>
        <time>2021-03-21T10:40:12Z</time>
      </trkpt>
      <trkpt lat="42.84904" lon="0.5672">
        <ele>1914.272</ele>
        <time>2021-03-21T10:40:14Z</time>
      </trkpt>
      <trkpt lat="42.84906" lon="0.56719">
        <ele>1914.757</ele>
        <time>2021-03-21T10:40:16Z</time>
      </trkpt>
      <trkpt lat="42.84907" lon="0.56718">
        <ele>1914.85</ele>
        <time>2021-03-21T10:40:18Z</time>
      </trkpt>
      <trkpt lat="42.84909" lon="0.56718">
        <ele>1915.12</ele>
        <time>2021-03-21T10:40:20Z</time>
      </trkpt>
      <trkpt lat="42.8491" lon="0.56718">
        <ele>1914.982</ele>
        <time>2021-03-21T10:40:22Z</time>
      </trkpt>
      <trkpt lat="42.84912" lon="0.56718">
        <ele>1915.28</ele>
        <time>2021-03-21T10:40:24Z</time>
      </trkpt>
      <trkpt lat="42.84913" lon="0.56717">
        <ele>1915.483</ele>
        <time>2021-03-21T10:40:26Z</time>
      </trkpt>
      <trkpt lat="42.84915" lon="0.56716">
        <ele>1915.312</ele>
        <time>2021-03-21T10:40:28Z</time>
      </trkpt>
      <trkpt lat="42.84916" lon="0.56716">
        <ele>1915.254</ele>
        <time>2021-03-21T10:40:30Z</time>
      </trkpt>
      <trkpt lat="42.84917" lon="0.56715">
        <ele>1915.723</ele>
        <time>2021-03-21T10:40:32Z</time>
      </trkpt>
      <trkpt lat="42.84919" lon="0.56715">
        <ele>1915.668</ele>
        <time>2021-03-21T10:40:34Z</time>
      </trkpt>
      <trkpt lat="42.8492" lon="0.56715">
        <ele>1915.684</ele>
        <time>2021-03-21T10:40:36Z</time>
      </trkpt>
      <trkpt lat="42.84921" lon="0.56714">
        <ele>1915.983</ele>
        <time>2021-03-21T10:40:38Z</time>
      </trkpt>
      <trkpt lat="42.84923" lon="0.56714">
        <ele>1916.079</ele>
        <time>2021-03-21T10:40:40Z</time>
      </trkpt>
      <trkpt lat="42.84924" lon="0.56713">
        <ele>1916.314</ele>
        <time>2021-03-21T10:40:42Z</time>
      </trkpt>
      <trkpt lat="42.84925" lon="0.56713">
        <ele>1916.744</ele>
        <time>2021-03-21T10:40:44Z</time>
      </trkpt>
      <trkpt lat="42.84926" lon="0.56713">
        <ele>1916.865</ele>
        <time>2021-03-21T10:40:46Z</time>
      </trkpt>
      <trkpt lat="42.84928" lon="0.56713">
        <ele>1916.876</ele>
        <time>2021-03-21T10:40:48Z</time>
      </trkpt>
      <trkpt lat="42.84929" lon="0.56713">
        <ele>1917.265</ele>
        <time>2021-03-21T10:40:50Z</time>
      </trkpt>
      <trkpt lat="42.8493" lon="0.56713">
        <ele>1917.207</ele>
        <time>2021-03-21T10:40:52Z</time>
      </trkpt>
      <trkpt lat="42.84932" lon="0.56712">
        <ele>1917.256</ele>
        <time>2021-03-21T10:40:54Z</time>
      </trkpt>
      <trkpt lat="42.84933" lon="0.56711">
        <ele>1917.674</ele>
        <time>2021-03-21T10:40:56Z</time>
      </trkpt>
      <trkpt lat="42.84935" lon="0.5671">
        <ele>1917.45</ele>
        <time>2021-03-21T10:40:58Z</time>
      </trkpt>
      <trkpt lat="42.84936" lon="0.56709">
        <ele>1917.733</ele>
        <time>2021-03-21T10:41:00Z</time>
      </trkpt>
      <trkpt lat="42.84937" lon="0.56709">
        <ele>1917.959</ele>
        <time>2021-03-21T10:41:02Z</time>
      </trkpt>
      <trkpt lat="42.84939" lon="0.56708">
        <ele>1917.996</ele>
        <time>2021-03-21T10:41:04Z</time>
      </trkpt>
      <trkpt lat="42.8494" lon="0.56707">
        <ele>1917.828</ele>
        <time>2021-03-21T10:41:06Z</time>
      </trkpt>
      <trkpt lat="42.84941" lon="0.56706">
        <ele>1918.083</ele>
        <time>2021-03-21T10:41:08Z</time>
      </trkpt>
      <trkpt lat="42.84943" lon="0.56706">
        <ele>1918.286</ele>
        <time>2021-03-21T10:41:10Z</time>
      </trkpt>
      <trkpt lat="42.84944" lon="0.56705">
        <ele>1918.686</ele>
        <time>2021-03-21T10:41:12Z</time>
      </trkpt>
      <trkpt lat="42.84945" lon="0.56704">
        <ele>1918.633</ele>
        <time>2021-03-21T10:41:14Z</time>
      </trkpt>
      <trkpt lat="42.84947" lon="0.56703">
        <ele>1918.633</ele>
        <time>2021-03-21T10:41:16Z</time>
      </trkpt>
      <trkpt lat="42.84948" lon="0.56702">
        <ele>1918.83</ele>
        <time>2021-03-21T10:41:18Z</time>
      </trkpt>
      <trkpt lat="42.8495" lon="0.56702">
        <ele>1919.484</ele>
        <time>2021-03-21T10:41:20Z</time>
      </trkpt>
      <trkpt lat="42.84951" lon="0.56702">
        <ele>1919.893</ele>
        <time>2021-03-21T10:41:22Z</time>
      </trkpt>
      <trkpt lat="42.84953" lon="0.56702">
        <ele>1919.957</ele>
        <time>2021-03-21T10:41:24Z</time>
      </trkpt>
      <trkpt lat="42.84954" lon="0.56702">
        <ele>1919.709</ele>
        <time>2021-03-21T10:41:26Z</time>
      </trkpt>
      <trkpt lat="42.84956" lon="0.56701">
        <ele>1919.797</ele>
        <time>2021-03-21T10:41:28Z</time>
      </trkpt>
      <trkpt lat="42.84958" lon="0.56701">
        <ele>1919.759</ele>
        <time>2021-03-21T10:41:30Z</time>
      </trkpt>
      <trkpt lat="42.84959" lon="0.567">
        <ele>1920.012</ele>
        <time>2021-03-21T10:41:32Z</time>
      </trkpt>
      <trkpt lat="42.8496" lon="0.567">
        <ele>1919.959</ele>
        <time>2021-03-21T10:41:34Z</time>
      </trkpt>
      <trkpt lat="42.84962" lon="0.56699">
        <ele>1919.813</ele>
        <time>2021-03-21T10:41:36Z</time>
      </trkpt>
      <trkpt lat="42.84963" lon="0.56699">
        <ele>1919.845</ele>
        <time>2021-03-21T10:41:38Z</time>
      </trkpt>
      <trkpt lat="42.84965" lon="0.56698">
        <ele>1919.803</ele>
        <time>2021-03-21T10:41:40Z</time>
      </trkpt>
      <trkpt lat="42.84966" lon="0.56698">
        <ele>1919.894</ele>
        <time>2021-03-21T10:41:42Z</time>
      </trkpt>
      <trkpt lat="42.84967" lon="0.56697">
        <ele>1919.87</ele>
        <time>2021-03-21T10:41:44Z</time>
      </trkpt>
      <trkpt lat="42.84969" lon="0.56697">
        <ele>1919.968</ele>
        <time>2021-03-21T10:41:46Z</time>
      </trkpt>
      <trkpt lat="42.8497" lon="0.56696">
        <ele>1920.278</ele>
        <time>2021-03-21T10:41:48Z</time>
      </trkpt>
      <trkpt lat="42.84972" lon="0.56695">
        <ele>1920.33</ele>
        <time>2021-03-21T10:41:50Z</time>
      </trkpt>
      <trkpt lat="42.84973" lon="0.56695">
        <ele>1920.394</ele>
        <time>2021-03-21T10:41:52Z</time>
      </trkpt>
      <trkpt lat="42.84974" lon="0.56695">
        <ele>1920.902</ele>
        <time>2021-03-21T10:41:54Z</time>
      </trkpt>
      <trkpt lat="42.84976" lon="0.56694">
        <ele>1920.674</ele>
        <time>2021-03-21T10:41:56Z</time>
      </trkpt>
      <trkpt lat="42.84977" lon="0.56694">
        <ele>1920.748</ele>
        <time>2021-03-21T10:41:58Z</time>
      </trkpt>
      <trkpt lat="42.84979" lon="0.56693">
        <ele>1921.048</ele>
        <time>2021-03-21T10:42:00Z</time>
      </trkpt>
      <trkpt lat="42.8498" lon="0.56692">
        <ele>1920.91</ele>
        <time>2021-03-21T10:42:02Z</time>
      </trkpt>
      <trkpt lat="42.84982" lon="0.56691">
        <ele>1921.097</ele>
        <time>2021-03-21T10:42:04Z</time>
      </trkpt>
      <trkpt lat="42.84983" lon="0.56691">
        <ele>1921.618</ele>
        <time>2021-03-21T10:42:06Z</time>
      </trkpt>
      <trkpt lat="42.84984" lon="0.5669">
        <ele>1921.633</ele>
        <time>2021-03-21T10:42:08Z</time>
      </trkpt>
      <trkpt lat="42.84986" lon="0.5669">
        <ele>1921.256</ele>
        <time>2021-03-21T10:42:10Z</time>
      </trkpt>
      <trkpt lat="42.84987" lon="0.56689">
        <ele>1921.328</ele>
        <time>2021-03-21T10:42:12Z</time>
      </trkpt>
      <trkpt lat="42.84989" lon="0.56689">
        <ele>1921.413</ele>
        <time>2021-03-21T10:42:14Z</time>
      </trkpt>
      <trkpt lat="42.8499" lon="0.56689">
        <ele>1921.251</ele>
        <time>2021-03-21T10:42:16Z</time>
      </trkpt>
      <trkpt lat="42.84992" lon="0.56689">
        <ele>1921.097</ele>
        <time>2021-03-21T10:42:18Z</time>
      </trkpt>
      <trkpt lat="42.84993" lon="0.56689">
        <ele>1921.241</ele>
        <time>2021-03-21T10:42:20Z</time>
      </trkpt>
      <trkpt lat="42.84995" lon="0.56689">
        <ele>1921.678</ele>
        <time>2021-03-21T10:42:22Z</time>
      </trkpt>
      <trkpt lat="42.84996" lon="0.56689">
        <ele>1921.65</ele>
        <time>2021-03-21T10:42:24Z</time>
      </trkpt>
      <trkpt lat="42.84998" lon="0.56689">
        <ele>1921.587</ele>
        <time>2021-03-21T10:42:26Z</time>
      </trkpt>
      <trkpt lat="42.84999" lon="0.56689">
        <ele>1921.768</ele>
        <time>2021-03-21T10:42:28Z</time>
      </trkpt>
      <trkpt lat="42.85001" lon="0.56689">
        <ele>1921.839</ele>
        <time>2021-03-21T10:42:30Z</time>
      </trkpt>
      <trkpt lat="42.85002" lon="0.56689">
        <ele>1921.884</ele>
        <time>2021-03-21T10:42:32Z</time>
      </trkpt>
      <trkpt lat="42.85004" lon="0.56689">
        <ele>1921.564</ele>
        <time>2021-03-21T10:42:34Z</time>
      </trkpt>
      <trkpt lat="42.85005" lon="0.56689">
        <ele>1921.556</ele>
        <time>2021-03-21T10:42:36Z</time>
      </trkpt>
      <trkpt lat="42.85007" lon="0.56689">
        <ele>1921.772</ele>
        <time>2021-03-21T10:42:38Z</time>
      </trkpt>
      <trkpt lat="42.85008" lon="0.5669">
        <ele>1921.66</ele>
        <time>2021-03-21T10:42:40Z</time>
      </trkpt>
      <trkpt lat="42.8501" lon="0.5669">
        <ele>1921.623</ele>
        <time>2021-03-21T10:42:42Z</time>
      </trkpt>
      <trkpt lat="42.85012" lon="0.56689">
        <ele>1922.06</ele>
        <time>2021-03-21T10:42:44Z</time>
      </trkpt>
      <trkpt lat="42.85013" lon="0.56689">
        <ele>1922.025</ele>
        <time>2021-03-21T10:42:46Z</time>
      </trkpt>
      <trkpt lat="42.85014" lon="0.5669">
        <ele>1921.928</ele>
        <time>2021-03-21T10:42:48Z</time>
      </trkpt>
      <trkpt lat="42.85016" lon="0.56689">
        <ele>1921.785</ele>
        <time>2021-03-21T10:42:50Z</time>
      </trkpt>
      <trkpt lat="42.85018" lon="0.56689">
        <ele>1921.645</ele>
        <time>2021-03-21T10:42:52Z</time>
      </trkpt>
      <trkpt lat="42.85019" lon="0.56689">
        <ele>1921.763</ele>
        <time>2021-03-21T10:42:54Z</time>
      </trkpt>
      <trkpt lat="42.85021" lon="0.56689">
        <ele>1921.774</ele>
        <time>2021-03-21T10:42:56Z</time>
      </trkpt>
      <trkpt lat="42.85023" lon="0.56689">
        <ele>1922.292</ele>
        <time>2021-03-21T10:42:58Z</time>
      </trkpt>
      <trkpt lat="42.85025" lon="0.56689">
        <ele>1922.082</ele>
        <time>2021-03-21T10:43:00Z</time>
      </trkpt>
      <trkpt lat="42.85027" lon="0.56689">
        <ele>1921.804</ele>
        <time>2021-03-21T10:43:02Z</time>
      </trkpt>
      <trkpt lat="42.85028" lon="0.56689">
        <ele>1921.943</ele>
        <time>2021-03-21T10:43:04Z</time>
      </trkpt>
      <trkpt lat="42.8503" lon="0.56689">
        <ele>1921.826</ele>
        <time>2021-03-21T10:43:06Z</time>
      </trkpt>
      <trkpt lat="42.85031" lon="0.56689">
        <ele>1922.376</ele>
        <time>2021-03-21T10:43:08Z</time>
      </trkpt>
      <trkpt lat="42.85033" lon="0.56689">
        <ele>1922.707</ele>
        <time>2021-03-21T10:43:10Z</time>
      </trkpt>
      <trkpt lat="42.85035" lon="0.56689">
        <ele>1923.157</ele>
        <time>2021-03-21T10:43:12Z</time>
      </trkpt>
      <trkpt lat="42.85036" lon="0.56688">
        <ele>1923.395</ele>
        <time>2021-03-21T10:43:14Z</time>
      </trkpt>
      <trkpt lat="42.85037" lon="0.56688">
        <ele>1923.428</ele>
        <time>2021-03-21T10:43:16Z</time>
      </trkpt>
      <trkpt lat="42.85039" lon="0.56688">
        <ele>1923.33</ele>
        <time>2021-03-21T10:43:18Z</time>
      </trkpt>
      <trkpt lat="42.85041" lon="0.56687">
        <ele>1923.862</ele>
        <time>2021-03-21T10:43:20Z</time>
      </trkpt>
      <trkpt lat="42.85043" lon="0.56687">
        <ele>1924.326</ele>
        <time>2021-03-21T10:43:22Z</time>
      </trkpt>
      <trkpt lat="42.85045" lon="0.56687">
        <ele>1924.341</ele>
        <time>2021-03-21T10:43:24Z</time>
      </trkpt>
      <trkpt lat="42.85047" lon="0.56687">
        <ele>1924.236</ele>
        <time>2021-03-21T10:43:26Z</time>
      </trkpt>
      <trkpt lat="42.85048" lon="0.56687">
        <ele>1924.005</ele>
        <time>2021-03-21T10:43:28Z</time>
      </trkpt>
      <trkpt lat="42.8505" lon="0.56686">
        <ele>1924.354</ele>
        <time>2021-03-21T10:43:30Z</time>
      </trkpt>
      <trkpt lat="42.85051" lon="0.56686">
        <ele>1924.473</ele>
        <time>2021-03-21T10:43:32Z</time>
      </trkpt>
      <trkpt lat="42.85052" lon="0.56686">
        <ele>1924.411</ele>
        <time>2021-03-21T10:43:34Z</time>
      </trkpt>
      <trkpt lat="42.85054" lon="0.56686">
        <ele>1924.598</ele>
        <time>2021-03-21T10:43:36Z</time>
      </trkpt>
      <trkpt lat="42.85055" lon="0.56686">
        <ele>1924.784</ele>
        <time>2021-03-21T10:43:38Z</time>
      </trkpt>
      <trkpt lat="42.85057" lon="0.56686">
        <ele>1924.641</ele>
        <time>2021-03-21T10:43:40Z</time>
      </trkpt>
      <trkpt lat="42.85058" lon="0.56687">
        <ele>1925.08</ele>
        <time>2021-03-21T10:43:42Z</time>
      </trkpt>
      <trkpt lat="42.8506" lon="0.56687">
        <ele>1925.106</ele>
        <time>2021-03-21T10:43:44Z</time>
      </trkpt>
      <trkpt lat="42.85061" lon="0.56686">
        <ele>1925.253</ele>
        <time>2021-03-21T10:43:46Z</time>
      </trkpt>
      <trkpt lat="42.85063" lon="0.56686">
        <ele>1925.469</ele>
        <time>2021-03-21T10:43:48Z</time>
      </trkpt>
      <trkpt lat="42.85064" lon="0.56687">
        <ele>1925.573</ele>
        <time>2021-03-21T10:43:50Z</time>
      </trkpt>
      <trkpt lat="42.85065" lon="0.56687">
        <ele>1925.515</ele>
        <time>2021-03-21T10:43:52Z</time>
      </trkpt>
      <trkpt lat="42.85067" lon="0.56686">
        <ele>1926.058</ele>
        <time>2021-03-21T10:43:54Z</time>
      </trkpt>
      <trkpt lat="42.85068" lon="0.56687">
        <ele>1926.271</ele>
        <time>2021-03-21T10:43:56Z</time>
      </trkpt>
      <trkpt lat="42.8507" lon="0.56687">
        <ele>1926.854</ele>
        <time>2021-03-21T10:43:58Z</time>
      </trkpt>
      <trkpt lat="42.85071" lon="0.56687">
        <ele>1927.203</ele>
        <time>2021-03-21T10:44:00Z</time>
      </trkpt>
      <trkpt lat="42.85072" lon="0.56687">
        <ele>1927.563</ele>
        <time>2021-03-21T10:44:02Z</time>
      </trkpt>
      <trkpt lat="42.85074" lon="0.56687">
        <ele>1927.997</ele>
        <time>2021-03-21T10:44:04Z</time>
      </trkpt>
      <trkpt lat="42.85075" lon="0.56687">
        <ele>1928.739</ele>
        <time>2021-03-21T10:44:06Z</time>
      </trkpt>
      <trkpt lat="42.85076" lon="0.56687">
        <ele>1928.766</ele>
        <time>2021-03-21T10:44:08Z</time>
      </trkpt>
      <trkpt lat="42.85078" lon="0.56688">
        <ele>1928.727</ele>
        <time>2021-03-21T10:44:10Z</time>
      </trkpt>
      <trkpt lat="42.85079" lon="0.56688">
        <ele>1929.154</ele>
        <time>2021-03-21T10:44:12Z</time>
      </trkpt>
      <trkpt lat="42.85081" lon="0.56688">
        <ele>1929.41</ele>
        <time>2021-03-21T10:44:14Z</time>
      </trkpt>
      <trkpt lat="42.85082" lon="0.56688">
        <ele>1929.329</ele>
        <time>2021-03-21T10:44:16Z</time>
      </trkpt>
      <trkpt lat="42.85083" lon="0.56687">
        <ele>1929.965</ele>
        <time>2021-03-21T10:44:18Z</time>
      </trkpt>
      <trkpt lat="42.85084" lon="0.56687">
        <ele>1930.449</ele>
        <time>2021-03-21T10:44:20Z</time>
      </trkpt>
      <trkpt lat="42.85085" lon="0.56687">
        <ele>1930.888</ele>
        <time>2021-03-21T10:44:22Z</time>
      </trkpt>
      <trkpt lat="42.85087" lon="0.56686">
        <ele>1931.021</ele>
        <time>2021-03-21T10:44:24Z</time>
      </trkpt>
      <trkpt lat="42.85087" lon="0.56686">
        <ele>1931.259</ele>
        <time>2021-03-21T10:44:26Z</time>
      </trkpt>
      <trkpt lat="42.85087" lon="0.56686">
        <ele>1931.261</ele>
        <time>2021-03-21T10:44:28Z</time>
      </trkpt>
      <trkpt lat="42.85087" lon="0.56686">
        <ele>1931.262</ele>
        <time>2021-03-21T10:44:30Z</time>
      </trkpt>
      <trkpt lat="42.85087" lon="0.56686">
        <ele>1931.264</ele>
        <time>2021-03-21T10:44:32Z</time>
      </trkpt>
      <trkpt lat="42.85087" lon="0.56686">
        <ele>1931.266</ele>
        <time>2021-03-21T10:44:34Z</time>
      </trkpt>
      <trkpt lat="42.85087" lon="0.56686">
        <ele>1931.269</ele>
        <time>2021-03-21T10:44:36Z</time>
      </trkpt>
      <trkpt lat="42.85087" lon="0.56686">
        <ele>1931.269</ele>
        <time>2021-03-21T10:44:38Z</time>
      </trkpt>
      <trkpt lat="42.85087" lon="0.56686">
        <ele>1931.269</ele>
        <time>2021-03-21T10:44:40Z</time>
      </trkpt>
      <trkpt lat="42.85087" lon="0.56686">
        <ele>1931.272</ele>
        <time>2021-03-21T10:44:42Z</time>
      </trkpt>
      <trkpt lat="42.85087" lon="0.56686">
        <ele>1931.356</ele>
        <time>2021-03-21T10:44:44Z</time>
      </trkpt>
      <trkpt lat="42.85088" lon="0.56686">
        <ele>1931.539</ele>
        <time>2021-03-21T10:44:46Z</time>
      </trkpt>
      <trkpt lat="42.85088" lon="0.56686">
        <ele>1931.75</ele>
        <time>2021-03-21T10:44:48Z</time>
      </trkpt>
      <trkpt lat="42.8509" lon="0.56687">
        <ele>1931.905</ele>
        <time>2021-03-21T10:44:50Z</time>
      </trkpt>
      <trkpt lat="42.85091" lon="0.56688">
        <ele>1932.507</ele>
        <time>2021-03-21T10:44:52Z</time>
      </trkpt>
      <trkpt lat="42.85092" lon="0.56688">
        <ele>1932.868</ele>
        <time>2021-03-21T10:44:54Z</time>
      </trkpt>
      <trkpt lat="42.85093" lon="0.56688">
        <ele>1932.515</ele>
        <time>2021-03-21T10:44:56Z</time>
      </trkpt>
      <trkpt lat="42.85094" lon="0.56689">
        <ele>1932.743</ele>
        <time>2021-03-21T10:44:58Z</time>
      </trkpt>
      <trkpt lat="42.85096" lon="0.56689">
        <ele>1933.135</ele>
        <time>2021-03-21T10:45:00Z</time>
      </trkpt>
      <trkpt lat="42.85097" lon="0.56689">
        <ele>1933.302</ele>
        <time>2021-03-21T10:45:02Z</time>
      </trkpt>
      <trkpt lat="42.85099" lon="0.56689">
        <ele>1933.122</ele>
        <time>2021-03-21T10:45:04Z</time>
      </trkpt>
      <trkpt lat="42.851" lon="0.56689">
        <ele>1933.449</ele>
        <time>2021-03-21T10:45:06Z</time>
      </trkpt>
      <trkpt lat="42.85102" lon="0.56689">
        <ele>1933.472</ele>
        <time>2021-03-21T10:45:08Z</time>
      </trkpt>
      <trkpt lat="42.85104" lon="0.56689">
        <ele>1933.849</ele>
        <time>2021-03-21T10:45:10Z</time>
      </trkpt>
      <trkpt lat="42.85105" lon="0.56689">
        <ele>1933.932</ele>
        <time>2021-03-21T10:45:12Z</time>
      </trkpt>
      <trkpt lat="42.85107" lon="0.56689">
        <ele>1934.125</ele>
        <time>2021-03-21T10:45:14Z</time>
      </trkpt>
      <trkpt lat="42.85108" lon="0.56689">
        <ele>1934.522</ele>
        <time>2021-03-21T10:45:16Z</time>
      </trkpt>
      <trkpt lat="42.85109" lon="0.56689">
        <ele>1934.979</ele>
        <time>2021-03-21T10:45:18Z</time>
      </trkpt>
      <trkpt lat="42.85111" lon="0.56689">
        <ele>1935.159</ele>
        <time>2021-03-21T10:45:20Z</time>
      </trkpt>
      <trkpt lat="42.85112" lon="0.5669">
        <ele>1935.368</ele>
        <time>2021-03-21T10:45:22Z</time>
      </trkpt>
      <trkpt lat="42.85113" lon="0.5669">
        <ele>1935.081</ele>
        <time>2021-03-21T10:45:24Z</time>
      </trkpt>
      <trkpt lat="42.85114" lon="0.5669">
        <ele>1935.628</ele>
        <time>2021-03-21T10:45:26Z</time>
      </trkpt>
      <trkpt lat="42.85116" lon="0.5669">
        <ele>1935.938</ele>
        <time>2021-03-21T10:45:29Z</time>
      </trkpt>
      <trkpt lat="42.85118" lon="0.5669">
        <ele>1936.259</ele>
        <time>2021-03-21T10:45:31Z</time>
      </trkpt>
      <trkpt lat="42.85119" lon="0.56691">
        <ele>1936.108</ele>
        <time>2021-03-21T10:45:33Z</time>
      </trkpt>
      <trkpt lat="42.8512" lon="0.56691">
        <ele>1936.371</ele>
        <time>2021-03-21T10:45:35Z</time>
      </trkpt>
      <trkpt lat="42.8512" lon="0.56692">
        <ele>1936.96</ele>
        <time>2021-03-21T10:45:37Z</time>
      </trkpt>
      <trkpt lat="42.85122" lon="0.56692">
        <ele>1936.907</ele>
        <time>2021-03-21T10:45:39Z</time>
      </trkpt>
      <trkpt lat="42.85123" lon="0.56692">
        <ele>1937.157</ele>
        <time>2021-03-21T10:45:41Z</time>
      </trkpt>
      <trkpt lat="42.85124" lon="0.56692">
        <ele>1937.167</ele>
        <time>2021-03-21T10:45:43Z</time>
      </trkpt>
      <trkpt lat="42.85125" lon="0.56693">
        <ele>1937.764</ele>
        <time>2021-03-21T10:45:45Z</time>
      </trkpt>
      <trkpt lat="42.85126" lon="0.56693">
        <ele>1938.096</ele>
        <time>2021-03-21T10:45:47Z</time>
      </trkpt>
      <trkpt lat="42.85127" lon="0.56693">
        <ele>1938.762</ele>
        <time>2021-03-21T10:45:49Z</time>
      </trkpt>
      <trkpt lat="42.85127" lon="0.56693">
        <ele>1939.182</ele>
        <time>2021-03-21T10:45:51Z</time>
      </trkpt>
      <trkpt lat="42.85128" lon="0.56693">
        <ele>1939.33</ele>
        <time>2021-03-21T10:45:53Z</time>
      </trkpt>
      <trkpt lat="42.8513" lon="0.56693">
        <ele>1940.109</ele>
        <time>2021-03-21T10:45:55Z</time>
      </trkpt>
      <trkpt lat="42.85131" lon="0.56693">
        <ele>1940.466</ele>
        <time>2021-03-21T10:45:57Z</time>
      </trkpt>
      <trkpt lat="42.85132" lon="0.56693">
        <ele>1940.424</ele>
        <time>2021-03-21T10:45:59Z</time>
      </trkpt>
      <trkpt lat="42.85133" lon="0.56693">
        <ele>1940.787</ele>
        <time>2021-03-21T10:46:01Z</time>
      </trkpt>
      <trkpt lat="42.85134" lon="0.56693">
        <ele>1941.177</ele>
        <time>2021-03-21T10:46:03Z</time>
      </trkpt>
      <trkpt lat="42.85135" lon="0.56693">
        <ele>1941.071</ele>
        <time>2021-03-21T10:46:05Z</time>
      </trkpt>
      <trkpt lat="42.85135" lon="0.56693">
        <ele>1941.366</ele>
        <time>2021-03-21T10:46:07Z</time>
      </trkpt>
      <trkpt lat="42.85136" lon="0.56692">
        <ele>1941.66</ele>
        <time>2021-03-21T10:46:09Z</time>
      </trkpt>
      <trkpt lat="42.85137" lon="0.56692">
        <ele>1941.968</ele>
        <time>2021-03-21T10:46:11Z</time>
      </trkpt>
      <trkpt lat="42.85138" lon="0.56692">
        <ele>1941.991</ele>
        <time>2021-03-21T10:46:13Z</time>
      </trkpt>
      <trkpt lat="42.85138" lon="0.56692">
        <ele>1942.073</ele>
        <time>2021-03-21T10:46:15Z</time>
      </trkpt>
      <trkpt lat="42.85139" lon="0.56692">
        <ele>1942.297</ele>
        <time>2021-03-21T10:46:17Z</time>
      </trkpt>
      <trkpt lat="42.8514" lon="0.56692">
        <ele>1942.972</ele>
        <time>2021-03-21T10:46:19Z</time>
      </trkpt>
      <trkpt lat="42.85141" lon="0.56692">
        <ele>1943.04</ele>
        <time>2021-03-21T10:46:21Z</time>
      </trkpt>
      <trkpt lat="42.85142" lon="0.56692">
        <ele>1943.273</ele>
        <time>2021-03-21T10:46:23Z</time>
      </trkpt>
      <trkpt lat="42.85142" lon="0.56692">
        <ele>1943.274</ele>
        <time>2021-03-21T10:46:25Z</time>
      </trkpt>
      <trkpt lat="42.85142" lon="0.56692">
        <ele>1943.273</ele>
        <time>2021-03-21T10:46:27Z</time>
      </trkpt>
      <trkpt lat="42.85142" lon="0.56692">
        <ele>1943.273</ele>
        <time>2021-03-21T10:46:29Z</time>
      </trkpt>
      <trkpt lat="42.85142" lon="0.56692">
        <ele>1943.268</ele>
        <time>2021-03-21T10:46:31Z</time>
      </trkpt>
      <trkpt lat="42.85142" lon="0.56692">
        <ele>1943.079</ele>
        <time>2021-03-21T10:46:33Z</time>
      </trkpt>
      <trkpt lat="42.85142" lon="0.56692">
        <ele>1943.267</ele>
        <time>2021-03-21T10:46:35Z</time>
      </trkpt>
      <trkpt lat="42.85143" lon="0.56692">
        <ele>1943.446</ele>
        <time>2021-03-21T10:46:37Z</time>
      </trkpt>
      <trkpt lat="42.85143" lon="0.56692">
        <ele>1943.394</ele>
        <time>2021-03-21T10:46:39Z</time>
      </trkpt>
      <trkpt lat="42.85143" lon="0.56692">
        <ele>1943.248</ele>
        <time>2021-03-21T10:46:41Z</time>
      </trkpt>
      <trkpt lat="42.85144" lon="0.56692">
        <ele>1943.464</ele>
        <time>2021-03-21T10:46:43Z</time>
      </trkpt>
      <trkpt lat="42.85145" lon="0.56693">
        <ele>1943.625</ele>
        <time>2021-03-21T10:46:45Z</time>
      </trkpt>
      <trkpt lat="42.85146" lon="0.56693">
        <ele>1943.898</ele>
        <time>2021-03-21T10:46:47Z</time>
      </trkpt>
      <trkpt lat="42.85147" lon="0.56693">
        <ele>1944.032</ele>
        <time>2021-03-21T10:46:49Z</time>
      </trkpt>
      <trkpt lat="42.85149" lon="0.56694">
        <ele>1944.488</ele>
        <time>2021-03-21T10:46:51Z</time>
      </trkpt>
      <trkpt lat="42.85149" lon="0.56694">
        <ele>1944.849</ele>
        <time>2021-03-21T10:46:53Z</time>
      </trkpt>
      <trkpt lat="42.8515" lon="0.56693">
        <ele>1945.075</ele>
        <time>2021-03-21T10:46:55Z</time>
      </trkpt>
      <trkpt lat="42.85151" lon="0.56693">
        <ele>1945.111</ele>
        <time>2021-03-21T10:46:57Z</time>
      </trkpt>
      <trkpt lat="42.85152" lon="0.56693">
        <ele>1945.295</ele>
        <time>2021-03-21T10:46:59Z</time>
      </trkpt>
      <trkpt lat="42.85154" lon="0.56693">
        <ele>1945.503</ele>
        <time>2021-03-21T10:47:01Z</time>
      </trkpt>
      <trkpt lat="42.85155" lon="0.56692">
        <ele>1945.743</ele>
        <time>2021-03-21T10:47:03Z</time>
      </trkpt>
      <trkpt lat="42.85156" lon="0.56692">
        <ele>1945.646</ele>
        <time>2021-03-21T10:47:05Z</time>
      </trkpt>
      <trkpt lat="42.85157" lon="0.56691">
        <ele>1945.91</ele>
        <time>2021-03-21T10:47:07Z</time>
      </trkpt>
      <trkpt lat="42.85158" lon="0.56691">
        <ele>1946.065</ele>
        <time>2021-03-21T10:47:09Z</time>
      </trkpt>
      <trkpt lat="42.85159" lon="0.5669">
        <ele>1946.364</ele>
        <time>2021-03-21T10:47:11Z</time>
      </trkpt>
      <trkpt lat="42.8516" lon="0.5669">
        <ele>1946.729</ele>
        <time>2021-03-21T10:47:13Z</time>
      </trkpt>
      <trkpt lat="42.85161" lon="0.56689">
        <ele>1947.011</ele>
        <time>2021-03-21T10:47:15Z</time>
      </trkpt>
      <trkpt lat="42.85162" lon="0.56688">
        <ele>1947.529</ele>
        <time>2021-03-21T10:47:17Z</time>
      </trkpt>
      <trkpt lat="42.85163" lon="0.56688">
        <ele>1947.579</ele>
        <time>2021-03-21T10:47:19Z</time>
      </trkpt>
      <trkpt lat="42.85165" lon="0.56687">
        <ele>1947.83</ele>
        <time>2021-03-21T10:47:21Z</time>
      </trkpt>
      <trkpt lat="42.85166" lon="0.56686">
        <ele>1948.067</ele>
        <time>2021-03-21T10:47:23Z</time>
      </trkpt>
      <trkpt lat="42.85167" lon="0.56686">
        <ele>1948.304</ele>
        <time>2021-03-21T10:47:25Z</time>
      </trkpt>
      <trkpt lat="42.85167" lon="0.56686">
        <ele>1948.323</ele>
        <time>2021-03-21T10:47:27Z</time>
      </trkpt>
      <trkpt lat="42.85167" lon="0.56686">
        <ele>1948.322</ele>
        <time>2021-03-21T10:47:29Z</time>
      </trkpt>
      <trkpt lat="42.85167" lon="0.56685">
        <ele>1948.305</ele>
        <time>2021-03-21T10:47:31Z</time>
      </trkpt>
      <trkpt lat="42.85169" lon="0.56685">
        <ele>1948.602</ele>
        <time>2021-03-21T10:47:33Z</time>
      </trkpt>
      <trkpt lat="42.8517" lon="0.56684">
        <ele>1948.676</ele>
        <time>2021-03-21T10:47:35Z</time>
      </trkpt>
      <trkpt lat="42.85171" lon="0.56684">
        <ele>1948.852</ele>
        <time>2021-03-21T10:47:37Z</time>
      </trkpt>
      <trkpt lat="42.85172" lon="0.56684">
        <ele>1949.159</ele>
        <time>2021-03-21T10:47:39Z</time>
      </trkpt>
      <trkpt lat="42.85172" lon="0.56684">
        <ele>1949.171</ele>
        <time>2021-03-21T10:47:41Z</time>
      </trkpt>
      <trkpt lat="42.85173" lon="0.56685">
        <ele>1949.228</ele>
        <time>2021-03-21T10:47:43Z</time>
      </trkpt>
      <trkpt lat="42.85173" lon="0.56686">
        <ele>1949.616</ele>
        <time>2021-03-21T10:47:45Z</time>
      </trkpt>
      <trkpt lat="42.85174" lon="0.56687">
        <ele>1950.174</ele>
        <time>2021-03-21T10:47:47Z</time>
      </trkpt>
      <trkpt lat="42.85175" lon="0.56688">
        <ele>1950.474</ele>
        <time>2021-03-21T10:47:49Z</time>
      </trkpt>
      <trkpt lat="42.85176" lon="0.56688">
        <ele>1950.71</ele>
        <time>2021-03-21T10:47:51Z</time>
      </trkpt>
      <trkpt lat="42.85177" lon="0.56689">
        <ele>1950.658</ele>
        <time>2021-03-21T10:47:53Z</time>
      </trkpt>
      <trkpt lat="42.85178" lon="0.56689">
        <ele>1951.102</ele>
        <time>2021-03-21T10:47:55Z</time>
      </trkpt>
      <trkpt lat="42.85179" lon="0.56689">
        <ele>1951.308</ele>
        <time>2021-03-21T10:47:57Z</time>
      </trkpt>
      <trkpt lat="42.8518" lon="0.5669">
        <ele>1951.719</ele>
        <time>2021-03-21T10:47:59Z</time>
      </trkpt>
      <trkpt lat="42.85182" lon="0.5669">
        <ele>1952.317</ele>
        <time>2021-03-21T10:48:01Z</time>
      </trkpt>
      <trkpt lat="42.85182" lon="0.5669">
        <ele>1952.705</ele>
        <time>2021-03-21T10:48:03Z</time>
      </trkpt>
      <trkpt lat="42.85182" lon="0.5669">
        <ele>1952.707</ele>
        <time>2021-03-21T10:48:05Z</time>
      </trkpt>
      <trkpt lat="42.85183" lon="0.5669">
        <ele>1952.637</ele>
        <time>2021-03-21T10:48:07Z</time>
      </trkpt>
      <trkpt lat="42.85183" lon="0.5669">
        <ele>1952.757</ele>
        <time>2021-03-21T10:48:09Z</time>
      </trkpt>
      <trkpt lat="42.85185" lon="0.5669">
        <ele>1953.117</ele>
        <time>2021-03-21T10:48:11Z</time>
      </trkpt>
      <trkpt lat="42.85186" lon="0.5669">
        <ele>1953.296</ele>
        <time>2021-03-21T10:48:13Z</time>
      </trkpt>
      <trkpt lat="42.85187" lon="0.5669">
        <ele>1953.515</ele>
        <time>2021-03-21T10:48:15Z</time>
      </trkpt>
      <trkpt lat="42.85187" lon="0.56691">
        <ele>1953.772</ele>
        <time>2021-03-21T10:48:17Z</time>
      </trkpt>
      <trkpt lat="42.85188" lon="0.56691">
        <ele>1954.49</ele>
        <time>2021-03-21T10:48:19Z</time>
      </trkpt>
      <trkpt lat="42.85188" lon="0.56692">
        <ele>1954.59</ele>
        <time>2021-03-21T10:48:21Z</time>
      </trkpt>
      <trkpt lat="42.85189" lon="0.56692">
        <ele>1955.072</ele>
        <time>2021-03-21T10:48:23Z</time>
      </trkpt>
      <trkpt lat="42.85189" lon="0.56693">
        <ele>1955.313</ele>
        <time>2021-03-21T10:48:25Z</time>
      </trkpt>
      <trkpt lat="42.8519" lon="0.56693">
        <ele>1955.305</ele>
        <time>2021-03-21T10:48:27Z</time>
      </trkpt>
      <trkpt lat="42.85189" lon="0.56693">
        <ele>1955.306</ele>
        <time>2021-03-21T10:48:29Z</time>
      </trkpt>
      <trkpt lat="42.8519" lon="0.56693">
        <ele>1955.306</ele>
        <time>2021-03-21T10:48:31Z</time>
      </trkpt>
      <trkpt lat="42.8519" lon="0.56693">
        <ele>1955.47</ele>
        <time>2021-03-21T10:48:33Z</time>
      </trkpt>
      <trkpt lat="42.85191" lon="0.56692">
        <ele>1955.728</ele>
        <time>2021-03-21T10:48:35Z</time>
      </trkpt>
      <trkpt lat="42.85192" lon="0.56692">
        <ele>1956.085</ele>
        <time>2021-03-21T10:48:37Z</time>
      </trkpt>
      <trkpt lat="42.85193" lon="0.56693">
        <ele>1956.411</ele>
        <time>2021-03-21T10:48:39Z</time>
      </trkpt>
      <trkpt lat="42.85194" lon="0.56694">
        <ele>1956.646</ele>
        <time>2021-03-21T10:48:41Z</time>
      </trkpt>
      <trkpt lat="42.85195" lon="0.56694">
        <ele>1956.813</ele>
        <time>2021-03-21T10:48:43Z</time>
      </trkpt>
      <trkpt lat="42.85196" lon="0.56695">
        <ele>1957.1</ele>
        <time>2021-03-21T10:48:45Z</time>
      </trkpt>
      <trkpt lat="42.85197" lon="0.56695">
        <ele>1956.923</ele>
        <time>2021-03-21T10:48:47Z</time>
      </trkpt>
      <trkpt lat="42.85198" lon="0.56695">
        <ele>1956.876</ele>
        <time>2021-03-21T10:48:49Z</time>
      </trkpt>
      <trkpt lat="42.85199" lon="0.56694">
        <ele>1956.841</ele>
        <time>2021-03-21T10:48:51Z</time>
      </trkpt>
      <trkpt lat="42.852" lon="0.56695">
        <ele>1957.082</ele>
        <time>2021-03-21T10:48:53Z</time>
      </trkpt>
      <trkpt lat="42.85201" lon="0.56696">
        <ele>1957.759</ele>
        <time>2021-03-21T10:48:55Z</time>
      </trkpt>
      <trkpt lat="42.85202" lon="0.56696">
        <ele>1957.829</ele>
        <time>2021-03-21T10:48:57Z</time>
      </trkpt>
      <trkpt lat="42.85203" lon="0.56697">
        <ele>1957.958</ele>
        <time>2021-03-21T10:48:59Z</time>
      </trkpt>
      <trkpt lat="42.85204" lon="0.56699">
        <ele>1958.241</ele>
        <time>2021-03-21T10:49:01Z</time>
      </trkpt>
      <trkpt lat="42.85205" lon="0.56699">
        <ele>1958.324</ele>
        <time>2021-03-21T10:49:03Z</time>
      </trkpt>
      <trkpt lat="42.85205" lon="0.567">
        <ele>1958.776</ele>
        <time>2021-03-21T10:49:05Z</time>
      </trkpt>
      <trkpt lat="42.85205" lon="0.567">
        <ele>1958.887</ele>
        <time>2021-03-21T10:49:07Z</time>
      </trkpt>
      <trkpt lat="42.85205" lon="0.567">
        <ele>1958.886</ele>
        <time>2021-03-21T10:49:09Z</time>
      </trkpt>
      <trkpt lat="42.85205" lon="0.567">
        <ele>1958.884</ele>
        <time>2021-03-21T10:49:11Z</time>
      </trkpt>
      <trkpt lat="42.85205" lon="0.567">
        <ele>1958.82</ele>
        <time>2021-03-21T10:49:13Z</time>
      </trkpt>
      <trkpt lat="42.85206" lon="0.567">
        <ele>1958.674</ele>
        <time>2021-03-21T10:49:15Z</time>
      </trkpt>
      <trkpt lat="42.85206" lon="0.567">
        <ele>1958.907</ele>
        <time>2021-03-21T10:49:17Z</time>
      </trkpt>
      <trkpt lat="42.85206" lon="0.567">
        <ele>1958.908</ele>
        <time>2021-03-21T10:49:19Z</time>
      </trkpt>
      <trkpt lat="42.85206" lon="0.567">
        <ele>1958.912</ele>
        <time>2021-03-21T10:49:21Z</time>
      </trkpt>
      <trkpt lat="42.85206" lon="0.567">
        <ele>1958.911</ele>
        <time>2021-03-21T10:49:23Z</time>
      </trkpt>
      <trkpt lat="42.85206" lon="0.567">
        <ele>1958.909</ele>
        <time>2021-03-21T10:49:25Z</time>
      </trkpt>
      <trkpt lat="42.85206" lon="0.567">
        <ele>1958.911</ele>
        <time>2021-03-21T10:49:27Z</time>
      </trkpt>
      <trkpt lat="42.85206" lon="0.567">
        <ele>1958.908</ele>
        <time>2021-03-21T10:49:29Z</time>
      </trkpt>
      <trkpt lat="42.85206" lon="0.567">
        <ele>1958.907</ele>
        <time>2021-03-21T10:49:31Z</time>
      </trkpt>
      <trkpt lat="42.85206" lon="0.567">
        <ele>1958.909</ele>
        <time>2021-03-21T10:49:33Z</time>
      </trkpt>
      <trkpt lat="42.85206" lon="0.56701">
        <ele>1958.982</ele>
        <time>2021-03-21T10:49:35Z</time>
      </trkpt>
      <trkpt lat="42.85207" lon="0.56701">
        <ele>1959.06</ele>
        <time>2021-03-21T10:49:37Z</time>
      </trkpt>
      <trkpt lat="42.85208" lon="0.56702">
        <ele>1959.607</ele>
        <time>2021-03-21T10:49:39Z</time>
      </trkpt>
      <trkpt lat="42.85209" lon="0.56703">
        <ele>1960.352</ele>
        <time>2021-03-21T10:49:41Z</time>
      </trkpt>
      <trkpt lat="42.85211" lon="0.56704">
        <ele>1960.268</ele>
        <time>2021-03-21T10:49:43Z</time>
      </trkpt>
      <trkpt lat="42.85212" lon="0.56704">
        <ele>1960.707</ele>
        <time>2021-03-21T10:49:45Z</time>
      </trkpt>
      <trkpt lat="42.85213" lon="0.56705">
        <ele>1961.208</ele>
        <time>2021-03-21T10:49:47Z</time>
      </trkpt>
      <trkpt lat="42.85213" lon="0.56706">
        <ele>1961.215</ele>
        <time>2021-03-21T10:49:49Z</time>
      </trkpt>
      <trkpt lat="42.85214" lon="0.56706">
        <ele>1961.538</ele>
        <time>2021-03-21T10:49:51Z</time>
      </trkpt>
      <trkpt lat="42.85215" lon="0.56707">
        <ele>1961.838</ele>
        <time>2021-03-21T10:49:53Z</time>
      </trkpt>
      <trkpt lat="42.85215" lon="0.56707">
        <ele>1961.727</ele>
        <time>2021-03-21T10:49:55Z</time>
      </trkpt>
      <trkpt lat="42.85216" lon="0.56708">
        <ele>1961.375</ele>
        <time>2021-03-21T10:49:57Z</time>
      </trkpt>
      <trkpt lat="42.85217" lon="0.56709">
        <ele>1961.188</ele>
        <time>2021-03-21T10:49:59Z</time>
      </trkpt>
      <trkpt lat="42.85218" lon="0.5671">
        <ele>1961.557</ele>
        <time>2021-03-21T10:50:01Z</time>
      </trkpt>
      <trkpt lat="42.85219" lon="0.5671">
        <ele>1961.661</ele>
        <time>2021-03-21T10:50:03Z</time>
      </trkpt>
      <trkpt lat="42.8522" lon="0.56711">
        <ele>1961.746</ele>
        <time>2021-03-21T10:50:05Z</time>
      </trkpt>
      <trkpt lat="42.85221" lon="0.56712">
        <ele>1961.784</ele>
        <time>2021-03-21T10:50:07Z</time>
      </trkpt>
      <trkpt lat="42.85222" lon="0.56713">
        <ele>1961.956</ele>
        <time>2021-03-21T10:50:09Z</time>
      </trkpt>
      <trkpt lat="42.85223" lon="0.56714">
        <ele>1962.002</ele>
        <time>2021-03-21T10:50:11Z</time>
      </trkpt>
      <trkpt lat="42.85224" lon="0.56715">
        <ele>1962.807</ele>
        <time>2021-03-21T10:50:13Z</time>
      </trkpt>
      <trkpt lat="42.85225" lon="0.56715">
        <ele>1963.445</ele>
        <time>2021-03-21T10:50:15Z</time>
      </trkpt>
      <trkpt lat="42.85226" lon="0.56716">
        <ele>1963.521</ele>
        <time>2021-03-21T10:50:17Z</time>
      </trkpt>
      <trkpt lat="42.85227" lon="0.56716">
        <ele>1963.545</ele>
        <time>2021-03-21T10:50:19Z</time>
      </trkpt>
      <trkpt lat="42.85228" lon="0.56716">
        <ele>1963.497</ele>
        <time>2021-03-21T10:50:21Z</time>
      </trkpt>
      <trkpt lat="42.85229" lon="0.56716">
        <ele>1963.754</ele>
        <time>2021-03-21T10:50:23Z</time>
      </trkpt>
      <trkpt lat="42.85229" lon="0.56716">
        <ele>1963.753</ele>
        <time>2021-03-21T10:50:25Z</time>
      </trkpt>
      <trkpt lat="42.85229" lon="0.56716">
        <ele>1963.768</ele>
        <time>2021-03-21T10:50:27Z</time>
      </trkpt>
      <trkpt lat="42.85229" lon="0.56716">
        <ele>1963.895</ele>
        <time>2021-03-21T10:50:29Z</time>
      </trkpt>
      <trkpt lat="42.8523" lon="0.56715">
        <ele>1964.075</ele>
        <time>2021-03-21T10:50:31Z</time>
      </trkpt>
      <trkpt lat="42.85231" lon="0.56715">
        <ele>1964.318</ele>
        <time>2021-03-21T10:50:33Z</time>
      </trkpt>
      <trkpt lat="42.85232" lon="0.56714">
        <ele>1964.285</ele>
        <time>2021-03-21T10:50:35Z</time>
      </trkpt>
      <trkpt lat="42.85233" lon="0.56714">
        <ele>1964.342</ele>
        <time>2021-03-21T10:50:37Z</time>
      </trkpt>
      <trkpt lat="42.85235" lon="0.56714">
        <ele>1964.759</ele>
        <time>2021-03-21T10:50:39Z</time>
      </trkpt>
      <trkpt lat="42.85236" lon="0.56714">
        <ele>1964.737</ele>
        <time>2021-03-21T10:50:41Z</time>
      </trkpt>
      <trkpt lat="42.85237" lon="0.56714">
        <ele>1964.889</ele>
        <time>2021-03-21T10:50:43Z</time>
      </trkpt>
      <trkpt lat="42.85238" lon="0.56714">
        <ele>1964.922</ele>
        <time>2021-03-21T10:50:45Z</time>
      </trkpt>
      <trkpt lat="42.85239" lon="0.56714">
        <ele>1965.32</ele>
        <time>2021-03-21T10:50:47Z</time>
      </trkpt>
      <trkpt lat="42.8524" lon="0.56714">
        <ele>1965.391</ele>
        <time>2021-03-21T10:50:49Z</time>
      </trkpt>
      <trkpt lat="42.8524" lon="0.56714">
        <ele>1965.389</ele>
        <time>2021-03-21T10:50:51Z</time>
      </trkpt>
      <trkpt lat="42.8524" lon="0.56714">
        <ele>1965.386</ele>
        <time>2021-03-21T10:50:53Z</time>
      </trkpt>
      <trkpt lat="42.8524" lon="0.56714">
        <ele>1965.385</ele>
        <time>2021-03-21T10:50:55Z</time>
      </trkpt>
      <trkpt lat="42.8524" lon="0.56714">
        <ele>1965.466</ele>
        <time>2021-03-21T10:50:57Z</time>
      </trkpt>
      <trkpt lat="42.85241" lon="0.56714">
        <ele>1965.445</ele>
        <time>2021-03-21T10:50:59Z</time>
      </trkpt>
      <trkpt lat="42.85243" lon="0.56714">
        <ele>1965.53</ele>
        <time>2021-03-21T10:51:01Z</time>
      </trkpt>
      <trkpt lat="42.85245" lon="0.56713">
        <ele>1966.179</ele>
        <time>2021-03-21T10:51:03Z</time>
      </trkpt>
      <trkpt lat="42.85246" lon="0.56713">
        <ele>1966.588</ele>
        <time>2021-03-21T10:51:05Z</time>
      </trkpt>
      <trkpt lat="42.85247" lon="0.56714">
        <ele>1967.003</ele>
        <time>2021-03-21T10:51:07Z</time>
      </trkpt>
      <trkpt lat="42.85247" lon="0.56714">
        <ele>1966.994</ele>
        <time>2021-03-21T10:51:09Z</time>
      </trkpt>
      <trkpt lat="42.85247" lon="0.56714">
        <ele>1966.991</ele>
        <time>2021-03-21T10:51:11Z</time>
      </trkpt>
      <trkpt lat="42.85247" lon="0.56714">
        <ele>1966.99</ele>
        <time>2021-03-21T10:51:13Z</time>
      </trkpt>
      <trkpt lat="42.85247" lon="0.56714">
        <ele>1966.99</ele>
        <time>2021-03-21T10:51:15Z</time>
      </trkpt>
      <trkpt lat="42.85247" lon="0.56714">
        <ele>1966.988</ele>
        <time>2021-03-21T10:51:17Z</time>
      </trkpt>
      <trkpt lat="42.85247" lon="0.56713">
        <ele>1966.997</ele>
        <time>2021-03-21T10:51:19Z</time>
      </trkpt>
      <trkpt lat="42.85247" lon="0.56713">
        <ele>1966.999</ele>
        <time>2021-03-21T10:51:21Z</time>
      </trkpt>
      <trkpt lat="42.85247" lon="0.56713">
        <ele>1967.001</ele>
        <time>2021-03-21T10:51:23Z</time>
      </trkpt>
      <trkpt lat="42.85247" lon="0.56713">
        <ele>1967.004</ele>
        <time>2021-03-21T10:51:25Z</time>
      </trkpt>
      <trkpt lat="42.85247" lon="0.56713">
        <ele>1967.004</ele>
        <time>2021-03-21T10:51:27Z</time>
      </trkpt>
      <trkpt lat="42.85247" lon="0.56713">
        <ele>1967.006</ele>
        <time>2021-03-21T10:51:29Z</time>
      </trkpt>
      <trkpt lat="42.85248" lon="0.56713">
        <ele>1967.102</ele>
        <time>2021-03-21T10:51:31Z</time>
      </trkpt>
      <trkpt lat="42.85249" lon="0.56713">
        <ele>1967.361</ele>
        <time>2021-03-21T10:51:33Z</time>
      </trkpt>
      <trkpt lat="42.8525" lon="0.56713">
        <ele>1967.568</ele>
        <time>2021-03-21T10:51:35Z</time>
      </trkpt>
      <trkpt lat="42.85251" lon="0.56714">
        <ele>1967.597</ele>
        <time>2021-03-21T10:51:37Z</time>
      </trkpt>
      <trkpt lat="42.85253" lon="0.56714">
        <ele>1967.702</ele>
        <time>2021-03-21T10:51:39Z</time>
      </trkpt>
      <trkpt lat="42.85254" lon="0.56714">
        <ele>1967.597</ele>
        <time>2021-03-21T10:51:41Z</time>
      </trkpt>
      <trkpt lat="42.85255" lon="0.56714">
        <ele>1967.637</ele>
        <time>2021-03-21T10:51:43Z</time>
      </trkpt>
      <trkpt lat="42.85256" lon="0.56714">
        <ele>1968.171</ele>
        <time>2021-03-21T10:51:45Z</time>
      </trkpt>
      <trkpt lat="42.85257" lon="0.56714">
        <ele>1968.492</ele>
        <time>2021-03-21T10:51:47Z</time>
      </trkpt>
      <trkpt lat="42.85259" lon="0.56714">
        <ele>1968.714</ele>
        <time>2021-03-21T10:51:49Z</time>
      </trkpt>
      <trkpt lat="42.8526" lon="0.56714">
        <ele>1968.45</ele>
        <time>2021-03-21T10:51:51Z</time>
      </trkpt>
      <trkpt lat="42.85261" lon="0.56713">
        <ele>1968.319</ele>
        <time>2021-03-21T10:51:53Z</time>
      </trkpt>
      <trkpt lat="42.85262" lon="0.56713">
        <ele>1968.251</ele>
        <time>2021-03-21T10:51:55Z</time>
      </trkpt>
      <trkpt lat="42.85263" lon="0.56713">
        <ele>1968.4</ele>
        <time>2021-03-21T10:51:57Z</time>
      </trkpt>
      <trkpt lat="42.85264" lon="0.56713">
        <ele>1968.506</ele>
        <time>2021-03-21T10:51:59Z</time>
      </trkpt>
      <trkpt lat="42.85265" lon="0.56712">
        <ele>1968.629</ele>
        <time>2021-03-21T10:52:01Z</time>
      </trkpt>
      <trkpt lat="42.85266" lon="0.56712">
        <ele>1968.745</ele>
        <time>2021-03-21T10:52:03Z</time>
      </trkpt>
      <trkpt lat="42.85267" lon="0.56711">
        <ele>1969.279</ele>
        <time>2021-03-21T10:52:05Z</time>
      </trkpt>
      <trkpt lat="42.85267" lon="0.5671">
        <ele>1969.303</ele>
        <time>2021-03-21T10:52:07Z</time>
      </trkpt>
      <trkpt lat="42.85267" lon="0.5671">
        <ele>1969.309</ele>
        <time>2021-03-21T10:52:09Z</time>
      </trkpt>
      <trkpt lat="42.85267" lon="0.5671">
        <ele>1969.215</ele>
        <time>2021-03-21T10:52:11Z</time>
      </trkpt>
      <trkpt lat="42.85267" lon="0.5671">
        <ele>1969.221</ele>
        <time>2021-03-21T10:52:13Z</time>
      </trkpt>
      <trkpt lat="42.85267" lon="0.5671">
        <ele>1969.217</ele>
        <time>2021-03-21T10:52:15Z</time>
      </trkpt>
      <trkpt lat="42.85267" lon="0.5671">
        <ele>1969.213</ele>
        <time>2021-03-21T10:52:17Z</time>
      </trkpt>
      <trkpt lat="42.85267" lon="0.5671">
        <ele>1969.216</ele>
        <time>2021-03-21T10:52:19Z</time>
      </trkpt>
      <trkpt lat="42.85267" lon="0.5671">
        <ele>1969.215</ele>
        <time>2021-03-21T10:52:21Z</time>
      </trkpt>
      <trkpt lat="42.85267" lon="0.5671">
        <ele>1969.217</ele>
        <time>2021-03-21T10:52:23Z</time>
      </trkpt>
      <trkpt lat="42.85267" lon="0.5671">
        <ele>1969.289</ele>
        <time>2021-03-21T10:52:25Z</time>
      </trkpt>
      <trkpt lat="42.85267" lon="0.5671">
        <ele>1969.29</ele>
        <time>2021-03-21T10:52:27Z</time>
      </trkpt>
      <trkpt lat="42.85267" lon="0.5671">
        <ele>1969.288</ele>
        <time>2021-03-21T10:52:29Z</time>
      </trkpt>
      <trkpt lat="42.85267" lon="0.5671">
        <ele>1969.286</ele>
        <time>2021-03-21T10:52:31Z</time>
      </trkpt>
      <trkpt lat="42.85267" lon="0.5671">
        <ele>1969.288</ele>
        <time>2021-03-21T10:52:33Z</time>
      </trkpt>
      <trkpt lat="42.85267" lon="0.5671">
        <ele>1969.294</ele>
        <time>2021-03-21T10:52:35Z</time>
      </trkpt>
      <trkpt lat="42.85267" lon="0.5671">
        <ele>1969.3</ele>
        <time>2021-03-21T10:52:37Z</time>
      </trkpt>
      <trkpt lat="42.85267" lon="0.5671">
        <ele>1969.305</ele>
        <time>2021-03-21T10:52:39Z</time>
      </trkpt>
      <trkpt lat="42.85267" lon="0.5671">
        <ele>1969.307</ele>
        <time>2021-03-21T10:52:41Z</time>
      </trkpt>
      <trkpt lat="42.85267" lon="0.5671">
        <ele>1969.308</ele>
        <time>2021-03-21T10:52:43Z</time>
      </trkpt>
      <trkpt lat="42.85267" lon="0.5671">
        <ele>1969.309</ele>
        <time>2021-03-21T10:52:45Z</time>
      </trkpt>
      <trkpt lat="42.85267" lon="0.5671">
        <ele>1969.311</ele>
        <time>2021-03-21T10:52:46Z</time>
      </trkpt>
      <trkpt lat="42.85267" lon="0.5671">
        <ele>1969.315</ele>
        <time>2021-03-21T10:52:49Z</time>
      </trkpt>
      <trkpt lat="42.85267" lon="0.5671">
        <ele>1969.318</ele>
        <time>2021-03-21T10:52:51Z</time>
      </trkpt>
      <trkpt lat="42.85266" lon="0.5671">
        <ele>1969.263</ele>
        <time>2021-03-21T10:52:53Z</time>
      </trkpt>
      <trkpt lat="42.85266" lon="0.56709">
        <ele>1969.115</ele>
        <time>2021-03-21T10:52:55Z</time>
      </trkpt>
      <trkpt lat="42.85265" lon="0.56709">
        <ele>1968.77</ele>
        <time>2021-03-21T10:52:57Z</time>
      </trkpt>
      <trkpt lat="42.85265" lon="0.56709">
        <ele>1968.921</ele>
        <time>2021-03-21T10:52:59Z</time>
      </trkpt>
      <trkpt lat="42.85264" lon="0.56709">
        <ele>1968.688</ele>
        <time>2021-03-21T10:53:01Z</time>
      </trkpt>
      <trkpt lat="42.85264" lon="0.56709">
        <ele>1968.682</ele>
        <time>2021-03-21T10:53:03Z</time>
      </trkpt>
      <trkpt lat="42.85263" lon="0.56709">
        <ele>1968.364</ele>
        <time>2021-03-21T10:53:05Z</time>
      </trkpt>
      <trkpt lat="42.85262" lon="0.56709">
        <ele>1968.109</ele>
        <time>2021-03-21T10:53:07Z</time>
      </trkpt>
      <trkpt lat="42.85262" lon="0.56713">
        <ele>1968.31</ele>
        <time>2021-03-21T10:53:09Z</time>
      </trkpt>
      <trkpt lat="42.8526" lon="0.56713">
        <ele>1968.246</ele>
        <time>2021-03-21T10:53:11Z</time>
      </trkpt>
      <trkpt lat="42.85259" lon="0.56712">
        <ele>1968.321</ele>
        <time>2021-03-21T10:53:13Z</time>
      </trkpt>
      <trkpt lat="42.85255" lon="0.56712">
        <ele>1968.078</ele>
        <time>2021-03-21T10:53:15Z</time>
      </trkpt>
      <trkpt lat="42.85253" lon="0.56712">
        <ele>1968.198</ele>
        <time>2021-03-21T10:53:17Z</time>
      </trkpt>
      <trkpt lat="42.85251" lon="0.56712">
        <ele>1967.71</ele>
        <time>2021-03-21T10:53:19Z</time>
      </trkpt>
      <trkpt lat="42.8525" lon="0.56711">
        <ele>1967.242</ele>
        <time>2021-03-21T10:53:21Z</time>
      </trkpt>
      <trkpt lat="42.85249" lon="0.56711">
        <ele>1967.016</ele>
        <time>2021-03-21T10:53:23Z</time>
      </trkpt>
      <trkpt lat="42.85247" lon="0.56711">
        <ele>1966.955</ele>
        <time>2021-03-21T10:53:25Z</time>
      </trkpt>
      <trkpt lat="42.85246" lon="0.56711">
        <ele>1967</ele>
        <time>2021-03-21T10:53:27Z</time>
      </trkpt>
      <trkpt lat="42.85245" lon="0.56711">
        <ele>1966.846</ele>
        <time>2021-03-21T10:53:29Z</time>
      </trkpt>
      <trkpt lat="42.85243" lon="0.56711">
        <ele>1966.6</ele>
        <time>2021-03-21T10:53:31Z</time>
      </trkpt>
      <trkpt lat="42.85242" lon="0.56711">
        <ele>1966.177</ele>
        <time>2021-03-21T10:53:33Z</time>
      </trkpt>
      <trkpt lat="42.85241" lon="0.5671">
        <ele>1965.95</ele>
        <time>2021-03-21T10:53:35Z</time>
      </trkpt>
      <trkpt lat="42.85239" lon="0.5671">
        <ele>1965.49</ele>
        <time>2021-03-21T10:53:37Z</time>
      </trkpt>
      <trkpt lat="42.85238" lon="0.56709">
        <ele>1965.352</ele>
        <time>2021-03-21T10:53:39Z</time>
      </trkpt>
      <trkpt lat="42.85236" lon="0.56709">
        <ele>1964.808</ele>
        <time>2021-03-21T10:53:41Z</time>
      </trkpt>
      <trkpt lat="42.85235" lon="0.56709">
        <ele>1964.676</ele>
        <time>2021-03-21T10:53:43Z</time>
      </trkpt>
      <trkpt lat="42.85233" lon="0.56708">
        <ele>1964.263</ele>
        <time>2021-03-21T10:53:45Z</time>
      </trkpt>
      <trkpt lat="42.85232" lon="0.56708">
        <ele>1964.253</ele>
        <time>2021-03-21T10:53:47Z</time>
      </trkpt>
      <trkpt lat="42.85232" lon="0.56707">
        <ele>1964.388</ele>
        <time>2021-03-21T10:53:49Z</time>
      </trkpt>
      <trkpt lat="42.85232" lon="0.56707">
        <ele>1964.387</ele>
        <time>2021-03-21T10:53:51Z</time>
      </trkpt>
      <trkpt lat="42.85232" lon="0.56707">
        <ele>1964.388</ele>
        <time>2021-03-21T10:53:53Z</time>
      </trkpt>
      <trkpt lat="42.85231" lon="0.56707">
        <ele>1964.331</ele>
        <time>2021-03-21T10:53:55Z</time>
      </trkpt>
      <trkpt lat="42.8523" lon="0.56707">
        <ele>1963.926</ele>
        <time>2021-03-21T10:53:57Z</time>
      </trkpt>
      <trkpt lat="42.85229" lon="0.56706">
        <ele>1963.713</ele>
        <time>2021-03-21T10:53:59Z</time>
      </trkpt>
      <trkpt lat="42.85227" lon="0.56706">
        <ele>1963.736</ele>
        <time>2021-03-21T10:54:01Z</time>
      </trkpt>
      <trkpt lat="42.85226" lon="0.56707">
        <ele>1963.365</ele>
        <time>2021-03-21T10:54:03Z</time>
      </trkpt>
      <trkpt lat="42.85225" lon="0.56706">
        <ele>1963.338</ele>
        <time>2021-03-21T10:54:05Z</time>
      </trkpt>
      <trkpt lat="42.85223" lon="0.56706">
        <ele>1962.783</ele>
        <time>2021-03-21T10:54:07Z</time>
      </trkpt>
      <trkpt lat="42.85222" lon="0.56706">
        <ele>1962.564</ele>
        <time>2021-03-21T10:54:09Z</time>
      </trkpt>
      <trkpt lat="42.85221" lon="0.56706">
        <ele>1962.405</ele>
        <time>2021-03-21T10:54:11Z</time>
      </trkpt>
      <trkpt lat="42.8522" lon="0.56705">
        <ele>1962.643</ele>
        <time>2021-03-21T10:54:13Z</time>
      </trkpt>
      <trkpt lat="42.85218" lon="0.56705">
        <ele>1962.264</ele>
        <time>2021-03-21T10:54:15Z</time>
      </trkpt>
      <trkpt lat="42.85217" lon="0.56704">
        <ele>1961.744</ele>
        <time>2021-03-21T10:54:17Z</time>
      </trkpt>
      <trkpt lat="42.85216" lon="0.56704">
        <ele>1961.693</ele>
        <time>2021-03-21T10:54:19Z</time>
      </trkpt>
      <trkpt lat="42.85214" lon="0.56703">
        <ele>1961.371</ele>
        <time>2021-03-21T10:54:21Z</time>
      </trkpt>
      <trkpt lat="42.85213" lon="0.56702">
        <ele>1960.657</ele>
        <time>2021-03-21T10:54:23Z</time>
      </trkpt>
      <trkpt lat="42.85211" lon="0.56702">
        <ele>1960.029</ele>
        <time>2021-03-21T10:54:25Z</time>
      </trkpt>
      <trkpt lat="42.8521" lon="0.56701">
        <ele>1959.263</ele>
        <time>2021-03-21T10:54:27Z</time>
      </trkpt>
      <trkpt lat="42.85209" lon="0.56701">
        <ele>1958.544</ele>
        <time>2021-03-21T10:54:29Z</time>
      </trkpt>
      <trkpt lat="42.85208" lon="0.567">
        <ele>1957.747</ele>
        <time>2021-03-21T10:54:31Z</time>
      </trkpt>
      <trkpt lat="42.85206" lon="0.56699">
        <ele>1957.203</ele>
        <time>2021-03-21T10:54:33Z</time>
      </trkpt>
      <trkpt lat="42.85204" lon="0.56699">
        <ele>1956.886</ele>
        <time>2021-03-21T10:54:35Z</time>
      </trkpt>
      <trkpt lat="42.85203" lon="0.56698">
        <ele>1956.531</ele>
        <time>2021-03-21T10:54:37Z</time>
      </trkpt>
      <trkpt lat="42.85202" lon="0.56698">
        <ele>1955.914</ele>
        <time>2021-03-21T10:54:39Z</time>
      </trkpt>
      <trkpt lat="42.852" lon="0.56697">
        <ele>1955.703</ele>
        <time>2021-03-21T10:54:41Z</time>
      </trkpt>
      <trkpt lat="42.85199" lon="0.56696">
        <ele>1955.545</ele>
        <time>2021-03-21T10:54:43Z</time>
      </trkpt>
      <trkpt lat="42.85197" lon="0.56695">
        <ele>1955.297</ele>
        <time>2021-03-21T10:54:45Z</time>
      </trkpt>
      <trkpt lat="42.85196" lon="0.56695">
        <ele>1955.006</ele>
        <time>2021-03-21T10:54:47Z</time>
      </trkpt>
      <trkpt lat="42.85194" lon="0.56694">
        <ele>1954.672</ele>
        <time>2021-03-21T10:54:49Z</time>
      </trkpt>
      <trkpt lat="42.85193" lon="0.56694">
        <ele>1954.494</ele>
        <time>2021-03-21T10:54:51Z</time>
      </trkpt>
      <trkpt lat="42.85192" lon="0.56693">
        <ele>1954.179</ele>
        <time>2021-03-21T10:54:53Z</time>
      </trkpt>
      <trkpt lat="42.8519" lon="0.56693">
        <ele>1953.798</ele>
        <time>2021-03-21T10:54:55Z</time>
      </trkpt>
      <trkpt lat="42.85189" lon="0.56692">
        <ele>1953.636</ele>
        <time>2021-03-21T10:54:57Z</time>
      </trkpt>
      <trkpt lat="42.85188" lon="0.56692">
        <ele>1953.343</ele>
        <time>2021-03-21T10:54:59Z</time>
      </trkpt>
      <trkpt lat="42.85186" lon="0.56691">
        <ele>1953.097</ele>
        <time>2021-03-21T10:55:01Z</time>
      </trkpt>
      <trkpt lat="42.85184" lon="0.5669">
        <ele>1952.698</ele>
        <time>2021-03-21T10:55:03Z</time>
      </trkpt>
      <trkpt lat="42.85182" lon="0.56689">
        <ele>1952.232</ele>
        <time>2021-03-21T10:55:05Z</time>
      </trkpt>
      <trkpt lat="42.8518" lon="0.56689">
        <ele>1951.739</ele>
        <time>2021-03-21T10:55:07Z</time>
      </trkpt>
      <trkpt lat="42.85177" lon="0.56688">
        <ele>1951.405</ele>
        <time>2021-03-21T10:55:09Z</time>
      </trkpt>
      <trkpt lat="42.85176" lon="0.56688">
        <ele>1951.097</ele>
        <time>2021-03-21T10:55:11Z</time>
      </trkpt>
      <trkpt lat="42.85174" lon="0.56687">
        <ele>1951.051</ele>
        <time>2021-03-21T10:55:13Z</time>
      </trkpt>
      <trkpt lat="42.85173" lon="0.56686">
        <ele>1950.751</ele>
        <time>2021-03-21T10:55:15Z</time>
      </trkpt>
      <trkpt lat="42.85171" lon="0.56685">
        <ele>1950.409</ele>
        <time>2021-03-21T10:55:17Z</time>
      </trkpt>
      <trkpt lat="42.8517" lon="0.56684">
        <ele>1949.921</ele>
        <time>2021-03-21T10:55:19Z</time>
      </trkpt>
      <trkpt lat="42.85168" lon="0.56684">
        <ele>1949.271</ele>
        <time>2021-03-21T10:55:21Z</time>
      </trkpt>
      <trkpt lat="42.85168" lon="0.56684">
        <ele>1949.197</ele>
        <time>2021-03-21T10:55:22Z</time>
      </trkpt>
      <trkpt lat="42.85166" lon="0.56685">
        <ele>1948.03</ele>
        <time>2021-03-21T10:55:25Z</time>
      </trkpt>
      <trkpt lat="42.85164" lon="0.56686">
        <ele>1947.713</ele>
        <time>2021-03-21T10:55:27Z</time>
      </trkpt>
      <trkpt lat="42.85163" lon="0.56687">
        <ele>1947.269</ele>
        <time>2021-03-21T10:55:29Z</time>
      </trkpt>
      <trkpt lat="42.85161" lon="0.56688">
        <ele>1946.984</ele>
        <time>2021-03-21T10:55:31Z</time>
      </trkpt>
      <trkpt lat="42.8516" lon="0.56688">
        <ele>1946.558</ele>
        <time>2021-03-21T10:55:33Z</time>
      </trkpt>
      <trkpt lat="42.85159" lon="0.56689">
        <ele>1945.949</ele>
        <time>2021-03-21T10:55:35Z</time>
      </trkpt>
      <trkpt lat="42.85157" lon="0.5669">
        <ele>1945.435</ele>
        <time>2021-03-21T10:55:37Z</time>
      </trkpt>
      <trkpt lat="42.85156" lon="0.5669">
        <ele>1945.05</ele>
        <time>2021-03-21T10:55:39Z</time>
      </trkpt>
      <trkpt lat="42.85154" lon="0.56691">
        <ele>1944.629</ele>
        <time>2021-03-21T10:55:41Z</time>
      </trkpt>
      <trkpt lat="42.85153" lon="0.56691">
        <ele>1944.471</ele>
        <time>2021-03-21T10:55:43Z</time>
      </trkpt>
      <trkpt lat="42.85151" lon="0.56691">
        <ele>1943.792</ele>
        <time>2021-03-21T10:55:45Z</time>
      </trkpt>
      <trkpt lat="42.8515" lon="0.56692">
        <ele>1943.12</ele>
        <time>2021-03-21T10:55:47Z</time>
      </trkpt>
      <trkpt lat="42.85148" lon="0.56692">
        <ele>1942.996</ele>
        <time>2021-03-21T10:55:49Z</time>
      </trkpt>
      <trkpt lat="42.85147" lon="0.56692">
        <ele>1942.775</ele>
        <time>2021-03-21T10:55:51Z</time>
      </trkpt>
      <trkpt lat="42.85145" lon="0.56692">
        <ele>1942.438</ele>
        <time>2021-03-21T10:55:53Z</time>
      </trkpt>
      <trkpt lat="42.85143" lon="0.56692">
        <ele>1941.669</ele>
        <time>2021-03-21T10:55:55Z</time>
      </trkpt>
      <trkpt lat="42.85142" lon="0.56692">
        <ele>1941.339</ele>
        <time>2021-03-21T10:55:57Z</time>
      </trkpt>
      <trkpt lat="42.8514" lon="0.56691">
        <ele>1940.924</ele>
        <time>2021-03-21T10:55:59Z</time>
      </trkpt>
      <trkpt lat="42.85139" lon="0.56692">
        <ele>1940.657</ele>
        <time>2021-03-21T10:56:01Z</time>
      </trkpt>
      <trkpt lat="42.85138" lon="0.56692">
        <ele>1940.207</ele>
        <time>2021-03-21T10:56:03Z</time>
      </trkpt>
      <trkpt lat="42.85136" lon="0.56692">
        <ele>1939.749</ele>
        <time>2021-03-21T10:56:05Z</time>
      </trkpt>
      <trkpt lat="42.85135" lon="0.56692">
        <ele>1939.342</ele>
        <time>2021-03-21T10:56:07Z</time>
      </trkpt>
      <trkpt lat="42.85133" lon="0.56692">
        <ele>1938.697</ele>
        <time>2021-03-21T10:56:09Z</time>
      </trkpt>
      <trkpt lat="42.85132" lon="0.56692">
        <ele>1938.686</ele>
        <time>2021-03-21T10:56:11Z</time>
      </trkpt>
      <trkpt lat="42.85131" lon="0.56692">
        <ele>1938.623</ele>
        <time>2021-03-21T10:56:13Z</time>
      </trkpt>
      <trkpt lat="42.85129" lon="0.56692">
        <ele>1938.255</ele>
        <time>2021-03-21T10:56:15Z</time>
      </trkpt>
      <trkpt lat="42.85128" lon="0.56692">
        <ele>1937.791</ele>
        <time>2021-03-21T10:56:17Z</time>
      </trkpt>
      <trkpt lat="42.85126" lon="0.56692">
        <ele>1937.329</ele>
        <time>2021-03-21T10:56:19Z</time>
      </trkpt>
      <trkpt lat="42.85125" lon="0.56692">
        <ele>1936.734</ele>
        <time>2021-03-21T10:56:21Z</time>
      </trkpt>
      <trkpt lat="42.85123" lon="0.56692">
        <ele>1936.28</ele>
        <time>2021-03-21T10:56:23Z</time>
      </trkpt>
      <trkpt lat="42.85121" lon="0.56692">
        <ele>1935.934</ele>
        <time>2021-03-21T10:56:25Z</time>
      </trkpt>
      <trkpt lat="42.85119" lon="0.56691">
        <ele>1935.558</ele>
        <time>2021-03-21T10:56:27Z</time>
      </trkpt>
      <trkpt lat="42.85118" lon="0.56691">
        <ele>1935.382</ele>
        <time>2021-03-21T10:56:29Z</time>
      </trkpt>
      <trkpt lat="42.85116" lon="0.5669">
        <ele>1934.959</ele>
        <time>2021-03-21T10:56:31Z</time>
      </trkpt>
      <trkpt lat="42.85115" lon="0.5669">
        <ele>1934.857</ele>
        <time>2021-03-21T10:56:33Z</time>
      </trkpt>
      <trkpt lat="42.85113" lon="0.5669">
        <ele>1934.453</ele>
        <time>2021-03-21T10:56:35Z</time>
      </trkpt>
      <trkpt lat="42.85111" lon="0.5669">
        <ele>1934.09</ele>
        <time>2021-03-21T10:56:37Z</time>
      </trkpt>
      <trkpt lat="42.85109" lon="0.5669">
        <ele>1933.699</ele>
        <time>2021-03-21T10:56:39Z</time>
      </trkpt>
      <trkpt lat="42.85107" lon="0.5669">
        <ele>1933.518</ele>
        <time>2021-03-21T10:56:41Z</time>
      </trkpt>
      <trkpt lat="42.85105" lon="0.5669">
        <ele>1933.264</ele>
        <time>2021-03-21T10:56:43Z</time>
      </trkpt>
      <trkpt lat="42.85103" lon="0.5669">
        <ele>1933.299</ele>
        <time>2021-03-21T10:56:45Z</time>
      </trkpt>
      <trkpt lat="42.85101" lon="0.5669">
        <ele>1933.035</ele>
        <time>2021-03-21T10:56:47Z</time>
      </trkpt>
      <trkpt lat="42.85099" lon="0.5669">
        <ele>1932.646</ele>
        <time>2021-03-21T10:56:49Z</time>
      </trkpt>
      <trkpt lat="42.85097" lon="0.56689">
        <ele>1932.453</ele>
        <time>2021-03-21T10:56:51Z</time>
      </trkpt>
      <trkpt lat="42.85096" lon="0.56689">
        <ele>1932.585</ele>
        <time>2021-03-21T10:56:53Z</time>
      </trkpt>
      <trkpt lat="42.85094" lon="0.56688">
        <ele>1932.599</ele>
        <time>2021-03-21T10:56:55Z</time>
      </trkpt>
      <trkpt lat="42.85092" lon="0.56688">
        <ele>1932.558</ele>
        <time>2021-03-21T10:56:57Z</time>
      </trkpt>
      <trkpt lat="42.85091" lon="0.56688">
        <ele>1932.39</ele>
        <time>2021-03-21T10:56:59Z</time>
      </trkpt>
      <trkpt lat="42.85089" lon="0.56688">
        <ele>1931.906</ele>
        <time>2021-03-21T10:57:01Z</time>
      </trkpt>
      <trkpt lat="42.85088" lon="0.56687">
        <ele>1931.857</ele>
        <time>2021-03-21T10:57:03Z</time>
      </trkpt>
      <trkpt lat="42.85086" lon="0.56687">
        <ele>1931.342</ele>
        <time>2021-03-21T10:57:05Z</time>
      </trkpt>
      <trkpt lat="42.85085" lon="0.56686">
        <ele>1930.769</ele>
        <time>2021-03-21T10:57:07Z</time>
      </trkpt>
      <trkpt lat="42.85084" lon="0.56687">
        <ele>1930.764</ele>
        <time>2021-03-21T10:57:09Z</time>
      </trkpt>
      <trkpt lat="42.85084" lon="0.56687">
        <ele>1930.751</ele>
        <time>2021-03-21T10:57:11Z</time>
      </trkpt>
      <trkpt lat="42.85083" lon="0.56687">
        <ele>1930.401</ele>
        <time>2021-03-21T10:57:13Z</time>
      </trkpt>
      <trkpt lat="42.85082" lon="0.56687">
        <ele>1930.166</ele>
        <time>2021-03-21T10:57:15Z</time>
      </trkpt>
      <trkpt lat="42.85081" lon="0.56688">
        <ele>1929.641</ele>
        <time>2021-03-21T10:57:17Z</time>
      </trkpt>
      <trkpt lat="42.8508" lon="0.56688">
        <ele>1929.249</ele>
        <time>2021-03-21T10:57:19Z</time>
      </trkpt>
      <trkpt lat="42.85079" lon="0.56688">
        <ele>1928.927</ele>
        <time>2021-03-21T10:57:21Z</time>
      </trkpt>
      <trkpt lat="42.85077" lon="0.56688">
        <ele>1928.974</ele>
        <time>2021-03-21T10:57:23Z</time>
      </trkpt>
      <trkpt lat="42.85075" lon="0.56687">
        <ele>1928.395</ele>
        <time>2021-03-21T10:57:25Z</time>
      </trkpt>
      <trkpt lat="42.85074" lon="0.56688">
        <ele>1927.904</ele>
        <time>2021-03-21T10:57:27Z</time>
      </trkpt>
      <trkpt lat="42.85072" lon="0.56688">
        <ele>1927.59</ele>
        <time>2021-03-21T10:57:29Z</time>
      </trkpt>
      <trkpt lat="42.8507" lon="0.56687">
        <ele>1927.544</ele>
        <time>2021-03-21T10:57:31Z</time>
      </trkpt>
      <trkpt lat="42.85069" lon="0.56686">
        <ele>1927.533</ele>
        <time>2021-03-21T10:57:33Z</time>
      </trkpt>
      <trkpt lat="42.85068" lon="0.56685">
        <ele>1928.678</ele>
        <time>2021-03-21T10:57:35Z</time>
      </trkpt>
      <trkpt lat="42.85068" lon="0.56685">
        <ele>1928.673</ele>
        <time>2021-03-21T10:57:37Z</time>
      </trkpt>
      <trkpt lat="42.85067" lon="0.56685">
        <ele>1928.627</ele>
        <time>2021-03-21T10:57:39Z</time>
      </trkpt>
      <trkpt lat="42.85066" lon="0.56685">
        <ele>1928.134</ele>
        <time>2021-03-21T10:57:41Z</time>
      </trkpt>
      <trkpt lat="42.85065" lon="0.56685">
        <ele>1927.847</ele>
        <time>2021-03-21T10:57:43Z</time>
      </trkpt>
      <trkpt lat="42.85063" lon="0.56686">
        <ele>1928.049</ele>
        <time>2021-03-21T10:57:45Z</time>
      </trkpt>
      <trkpt lat="42.85062" lon="0.56686">
        <ele>1927.65</ele>
        <time>2021-03-21T10:57:47Z</time>
      </trkpt>
      <trkpt lat="42.85063" lon="0.56686">
        <ele>1927.646</ele>
        <time>2021-03-21T10:57:49Z</time>
      </trkpt>
      <trkpt lat="42.85063" lon="0.56686">
        <ele>1927.643</ele>
        <time>2021-03-21T10:57:51Z</time>
      </trkpt>
      <trkpt lat="42.85062" lon="0.56686">
        <ele>1927.645</ele>
        <time>2021-03-21T10:57:53Z</time>
      </trkpt>
      <trkpt lat="42.85062" lon="0.56686">
        <ele>1927.499</ele>
        <time>2021-03-21T10:57:55Z</time>
      </trkpt>
      <trkpt lat="42.85061" lon="0.56686">
        <ele>1927.076</ele>
        <time>2021-03-21T10:57:57Z</time>
      </trkpt>
      <trkpt lat="42.85059" lon="0.56686">
        <ele>1926.824</ele>
        <time>2021-03-21T10:57:59Z</time>
      </trkpt>
      <trkpt lat="42.85058" lon="0.56686">
        <ele>1926.832</ele>
        <time>2021-03-21T10:58:01Z</time>
      </trkpt>
      <trkpt lat="42.85056" lon="0.56686">
        <ele>1926.593</ele>
        <time>2021-03-21T10:58:03Z</time>
      </trkpt>
      <trkpt lat="42.85055" lon="0.56686">
        <ele>1926.364</ele>
        <time>2021-03-21T10:58:05Z</time>
      </trkpt>
      <trkpt lat="42.85053" lon="0.56687">
        <ele>1926.064</ele>
        <time>2021-03-21T10:58:07Z</time>
      </trkpt>
      <trkpt lat="42.85052" lon="0.56687">
        <ele>1925.395</ele>
        <time>2021-03-21T10:58:09Z</time>
      </trkpt>
      <trkpt lat="42.85051" lon="0.56688">
        <ele>1925.357</ele>
        <time>2021-03-21T10:58:11Z</time>
      </trkpt>
      <trkpt lat="42.85049" lon="0.56688">
        <ele>1925.108</ele>
        <time>2021-03-21T10:58:13Z</time>
      </trkpt>
      <trkpt lat="42.85047" lon="0.56688">
        <ele>1925.043</ele>
        <time>2021-03-21T10:58:15Z</time>
      </trkpt>
      <trkpt lat="42.85045" lon="0.56688">
        <ele>1924.948</ele>
        <time>2021-03-21T10:58:17Z</time>
      </trkpt>
      <trkpt lat="42.85044" lon="0.56689">
        <ele>1924.668</ele>
        <time>2021-03-21T10:58:19Z</time>
      </trkpt>
      <trkpt lat="42.85042" lon="0.56689">
        <ele>1924.302</ele>
        <time>2021-03-21T10:58:21Z</time>
      </trkpt>
      <trkpt lat="42.8504" lon="0.56689">
        <ele>1924.064</ele>
        <time>2021-03-21T10:58:23Z</time>
      </trkpt>
      <trkpt lat="42.85038" lon="0.5669">
        <ele>1923.135</ele>
        <time>2021-03-21T10:58:25Z</time>
      </trkpt>
      <trkpt lat="42.85036" lon="0.5669">
        <ele>1922.881</ele>
        <time>2021-03-21T10:58:27Z</time>
      </trkpt>
      <trkpt lat="42.85034" lon="0.56689">
        <ele>1922.921</ele>
        <time>2021-03-21T10:58:29Z</time>
      </trkpt>
      <trkpt lat="42.85032" lon="0.56689">
        <ele>1923.119</ele>
        <time>2021-03-21T10:58:31Z</time>
      </trkpt>
      <trkpt lat="42.8503" lon="0.56689">
        <ele>1923.057</ele>
        <time>2021-03-21T10:58:33Z</time>
      </trkpt>
      <trkpt lat="42.85028" lon="0.5669">
        <ele>1923.305</ele>
        <time>2021-03-21T10:58:35Z</time>
      </trkpt>
      <trkpt lat="42.85027" lon="0.56689">
        <ele>1923.441</ele>
        <time>2021-03-21T10:58:37Z</time>
      </trkpt>
      <trkpt lat="42.85025" lon="0.56689">
        <ele>1922.954</ele>
        <time>2021-03-21T10:58:39Z</time>
      </trkpt>
      <trkpt lat="42.85023" lon="0.56689">
        <ele>1922.827</ele>
        <time>2021-03-21T10:58:41Z</time>
      </trkpt>
      <trkpt lat="42.85021" lon="0.56689">
        <ele>1922.391</ele>
        <time>2021-03-21T10:58:43Z</time>
      </trkpt>
      <trkpt lat="42.85019" lon="0.56689">
        <ele>1922.02</ele>
        <time>2021-03-21T10:58:45Z</time>
      </trkpt>
      <trkpt lat="42.85017" lon="0.56689">
        <ele>1921.795</ele>
        <time>2021-03-21T10:58:47Z</time>
      </trkpt>
      <trkpt lat="42.85015" lon="0.56689">
        <ele>1921.482</ele>
        <time>2021-03-21T10:58:49Z</time>
      </trkpt>
      <trkpt lat="42.85013" lon="0.56689">
        <ele>1921.352</ele>
        <time>2021-03-21T10:58:51Z</time>
      </trkpt>
      <trkpt lat="42.85011" lon="0.56689">
        <ele>1921.295</ele>
        <time>2021-03-21T10:58:53Z</time>
      </trkpt>
      <trkpt lat="42.8501" lon="0.56689">
        <ele>1921.221</ele>
        <time>2021-03-21T10:58:55Z</time>
      </trkpt>
      <trkpt lat="42.85008" lon="0.56689">
        <ele>1921.098</ele>
        <time>2021-03-21T10:58:57Z</time>
      </trkpt>
      <trkpt lat="42.85006" lon="0.56689">
        <ele>1920.789</ele>
        <time>2021-03-21T10:58:59Z</time>
      </trkpt>
      <trkpt lat="42.85004" lon="0.56689">
        <ele>1920.357</ele>
        <time>2021-03-21T10:59:01Z</time>
      </trkpt>
      <trkpt lat="42.85002" lon="0.56689">
        <ele>1920.082</ele>
        <time>2021-03-21T10:59:03Z</time>
      </trkpt>
      <trkpt lat="42.85001" lon="0.5669">
        <ele>1920.002</ele>
        <time>2021-03-21T10:59:05Z</time>
      </trkpt>
      <trkpt lat="42.84999" lon="0.5669">
        <ele>1919.942</ele>
        <time>2021-03-21T10:59:07Z</time>
      </trkpt>
      <trkpt lat="42.84997" lon="0.5669">
        <ele>1919.88</ele>
        <time>2021-03-21T10:59:09Z</time>
      </trkpt>
      <trkpt lat="42.84995" lon="0.5669">
        <ele>1919.801</ele>
        <time>2021-03-21T10:59:11Z</time>
      </trkpt>
      <trkpt lat="42.84993" lon="0.5669">
        <ele>1919.593</ele>
        <time>2021-03-21T10:59:13Z</time>
      </trkpt>
      <trkpt lat="42.84991" lon="0.5669">
        <ele>1919.529</ele>
        <time>2021-03-21T10:59:15Z</time>
      </trkpt>
      <trkpt lat="42.8499" lon="0.56691">
        <ele>1919.517</ele>
        <time>2021-03-21T10:59:17Z</time>
      </trkpt>
      <trkpt lat="42.84988" lon="0.56692">
        <ele>1919.51</ele>
        <time>2021-03-21T10:59:19Z</time>
      </trkpt>
      <trkpt lat="42.84986" lon="0.56692">
        <ele>1919.788</ele>
        <time>2021-03-21T10:59:21Z</time>
      </trkpt>
      <trkpt lat="42.84984" lon="0.56693">
        <ele>1919.262</ele>
        <time>2021-03-21T10:59:23Z</time>
      </trkpt>
      <trkpt lat="42.84982" lon="0.56694">
        <ele>1919.483</ele>
        <time>2021-03-21T10:59:25Z</time>
      </trkpt>
      <trkpt lat="42.8498" lon="0.56694">
        <ele>1919.407</ele>
        <time>2021-03-21T10:59:27Z</time>
      </trkpt>
      <trkpt lat="42.84978" lon="0.56695">
        <ele>1919.707</ele>
        <time>2021-03-21T10:59:29Z</time>
      </trkpt>
      <trkpt lat="42.84976" lon="0.56696">
        <ele>1920.134</ele>
        <time>2021-03-21T10:59:31Z</time>
      </trkpt>
      <trkpt lat="42.84976" lon="0.56696">
        <ele>1919.947</ele>
        <time>2021-03-21T10:59:33Z</time>
      </trkpt>
      <trkpt lat="42.84976" lon="0.56696">
        <ele>1919.937</ele>
        <time>2021-03-21T10:59:35Z</time>
      </trkpt>
      <trkpt lat="42.84976" lon="0.56696">
        <ele>1919.928</ele>
        <time>2021-03-21T10:59:37Z</time>
      </trkpt>
      <trkpt lat="42.84975" lon="0.56696">
        <ele>1919.923</ele>
        <time>2021-03-21T10:59:39Z</time>
      </trkpt>
      <trkpt lat="42.84975" lon="0.56696">
        <ele>1919.918</ele>
        <time>2021-03-21T10:59:41Z</time>
      </trkpt>
      <trkpt lat="42.84975" lon="0.56696">
        <ele>1919.914</ele>
        <time>2021-03-21T10:59:43Z</time>
      </trkpt>
      <trkpt lat="42.84975" lon="0.56696">
        <ele>1919.833</ele>
        <time>2021-03-21T10:59:45Z</time>
      </trkpt>
      <trkpt lat="42.84975" lon="0.56697">
        <ele>1919.859</ele>
        <time>2021-03-21T10:59:47Z</time>
      </trkpt>
      <trkpt lat="42.84973" lon="0.56697">
        <ele>1919.786</ele>
        <time>2021-03-21T10:59:49Z</time>
      </trkpt>
      <trkpt lat="42.84971" lon="0.56698">
        <ele>1919.774</ele>
        <time>2021-03-21T10:59:51Z</time>
      </trkpt>
      <trkpt lat="42.84969" lon="0.56698">
        <ele>1919.802</ele>
        <time>2021-03-21T10:59:53Z</time>
      </trkpt>
      <trkpt lat="42.84967" lon="0.56699">
        <ele>1919.605</ele>
        <time>2021-03-21T10:59:55Z</time>
      </trkpt>
      <trkpt lat="42.84965" lon="0.56698">
        <ele>1919.764</ele>
        <time>2021-03-21T10:59:57Z</time>
      </trkpt>
      <trkpt lat="42.84963" lon="0.56699">
        <ele>1919.844</ele>
        <time>2021-03-21T10:59:59Z</time>
      </trkpt>
      <trkpt lat="42.84961" lon="0.56699">
        <ele>1920.051</ele>
        <time>2021-03-21T11:00:01Z</time>
      </trkpt>
      <trkpt lat="42.84959" lon="0.567">
        <ele>1919.706</ele>
        <time>2021-03-21T11:00:03Z</time>
      </trkpt>
      <trkpt lat="42.84958" lon="0.56701">
        <ele>1919.41</ele>
        <time>2021-03-21T11:00:05Z</time>
      </trkpt>
      <trkpt lat="42.84956" lon="0.56702">
        <ele>1919.457</ele>
        <time>2021-03-21T11:00:07Z</time>
      </trkpt>
      <trkpt lat="42.84953" lon="0.56703">
        <ele>1918.885</ele>
        <time>2021-03-21T11:00:10Z</time>
      </trkpt>
      <trkpt lat="42.84952" lon="0.56703">
        <ele>1918.566</ele>
        <time>2021-03-21T11:00:12Z</time>
      </trkpt>
      <trkpt lat="42.8495" lon="0.56703">
        <ele>1918.027</ele>
        <time>2021-03-21T11:00:14Z</time>
      </trkpt>
      <trkpt lat="42.84948" lon="0.56704">
        <ele>1917.631</ele>
        <time>2021-03-21T11:00:16Z</time>
      </trkpt>
      <trkpt lat="42.84946" lon="0.56705">
        <ele>1918.004</ele>
        <time>2021-03-21T11:00:18Z</time>
      </trkpt>
      <trkpt lat="42.84944" lon="0.56706">
        <ele>1917.501</ele>
        <time>2021-03-21T11:00:20Z</time>
      </trkpt>
      <trkpt lat="42.84942" lon="0.56706">
        <ele>1917.249</ele>
        <time>2021-03-21T11:00:22Z</time>
      </trkpt>
      <trkpt lat="42.84941" lon="0.56707">
        <ele>1916.8</ele>
        <time>2021-03-21T11:00:24Z</time>
      </trkpt>
      <trkpt lat="42.84939" lon="0.56708">
        <ele>1916.647</ele>
        <time>2021-03-21T11:00:26Z</time>
      </trkpt>
      <trkpt lat="42.84938" lon="0.56709">
        <ele>1916.275</ele>
        <time>2021-03-21T11:00:28Z</time>
      </trkpt>
      <trkpt lat="42.84936" lon="0.5671">
        <ele>1915.845</ele>
        <time>2021-03-21T11:00:30Z</time>
      </trkpt>
      <trkpt lat="42.84934" lon="0.56711">
        <ele>1915.485</ele>
        <time>2021-03-21T11:00:32Z</time>
      </trkpt>
      <trkpt lat="42.84932" lon="0.56712">
        <ele>1915.207</ele>
        <time>2021-03-21T11:00:34Z</time>
      </trkpt>
      <trkpt lat="42.8493" lon="0.56713">
        <ele>1914.992</ele>
        <time>2021-03-21T11:00:36Z</time>
      </trkpt>
      <trkpt lat="42.84929" lon="0.56714">
        <ele>1914.909</ele>
        <time>2021-03-21T11:00:38Z</time>
      </trkpt>
      <trkpt lat="42.84927" lon="0.56714">
        <ele>1914.649</ele>
        <time>2021-03-21T11:00:40Z</time>
      </trkpt>
      <trkpt lat="42.84925" lon="0.56715">
        <ele>1914.578</ele>
        <time>2021-03-21T11:00:42Z</time>
      </trkpt>
      <trkpt lat="42.84923" lon="0.56716">
        <ele>1914.416</ele>
        <time>2021-03-21T11:00:44Z</time>
      </trkpt>
      <trkpt lat="42.84921" lon="0.56717">
        <ele>1914.272</ele>
        <time>2021-03-21T11:00:46Z</time>
      </trkpt>
      <trkpt lat="42.84919" lon="0.56717">
        <ele>1914.052</ele>
        <time>2021-03-21T11:00:48Z</time>
      </trkpt>
      <trkpt lat="42.84917" lon="0.56718">
        <ele>1914.168</ele>
        <time>2021-03-21T11:00:50Z</time>
      </trkpt>
      <trkpt lat="42.84914" lon="0.56719">
        <ele>1913.97</ele>
        <time>2021-03-21T11:00:52Z</time>
      </trkpt>
      <trkpt lat="42.84912" lon="0.56719">
        <ele>1914.157</ele>
        <time>2021-03-21T11:00:54Z</time>
      </trkpt>
      <trkpt lat="42.8491" lon="0.5672">
        <ele>1914.066</ele>
        <time>2021-03-21T11:00:56Z</time>
      </trkpt>
      <trkpt lat="42.84908" lon="0.56721">
        <ele>1913.624</ele>
        <time>2021-03-21T11:00:58Z</time>
      </trkpt>
      <trkpt lat="42.84906" lon="0.56722">
        <ele>1913.575</ele>
        <time>2021-03-21T11:01:00Z</time>
      </trkpt>
      <trkpt lat="42.84904" lon="0.56722">
        <ele>1913.431</ele>
        <time>2021-03-21T11:01:02Z</time>
      </trkpt>
      <trkpt lat="42.84902" lon="0.56723">
        <ele>1913.133</ele>
        <time>2021-03-21T11:01:04Z</time>
      </trkpt>
      <trkpt lat="42.849" lon="0.56724">
        <ele>1912.762</ele>
        <time>2021-03-21T11:01:06Z</time>
      </trkpt>
      <trkpt lat="42.84898" lon="0.56725">
        <ele>1912.829</ele>
        <time>2021-03-21T11:01:08Z</time>
      </trkpt>
      <trkpt lat="42.84896" lon="0.56726">
        <ele>1912.462</ele>
        <time>2021-03-21T11:01:10Z</time>
      </trkpt>
      <trkpt lat="42.84894" lon="0.56727">
        <ele>1912.103</ele>
        <time>2021-03-21T11:01:12Z</time>
      </trkpt>
      <trkpt lat="42.84892" lon="0.56728">
        <ele>1911.987</ele>
        <time>2021-03-21T11:01:14Z</time>
      </trkpt>
      <trkpt lat="42.84891" lon="0.56729">
        <ele>1912.04</ele>
        <time>2021-03-21T11:01:16Z</time>
      </trkpt>
      <trkpt lat="42.84889" lon="0.56731">
        <ele>1911.865</ele>
        <time>2021-03-21T11:01:18Z</time>
      </trkpt>
      <trkpt lat="42.84887" lon="0.56732">
        <ele>1911.736</ele>
        <time>2021-03-21T11:01:20Z</time>
      </trkpt>
      <trkpt lat="42.84886" lon="0.56733">
        <ele>1912.065</ele>
        <time>2021-03-21T11:01:22Z</time>
      </trkpt>
      <trkpt lat="42.84884" lon="0.56735">
        <ele>1912.009</ele>
        <time>2021-03-21T11:01:24Z</time>
      </trkpt>
      <trkpt lat="42.84882" lon="0.56736">
        <ele>1912.516</ele>
        <time>2021-03-21T11:01:26Z</time>
      </trkpt>
      <trkpt lat="42.84881" lon="0.56738">
        <ele>1912.666</ele>
        <time>2021-03-21T11:01:28Z</time>
      </trkpt>
      <trkpt lat="42.8488" lon="0.5674">
        <ele>1912.597</ele>
        <time>2021-03-21T11:01:30Z</time>
      </trkpt>
      <trkpt lat="42.84878" lon="0.56741">
        <ele>1912.975</ele>
        <time>2021-03-21T11:01:32Z</time>
      </trkpt>
      <trkpt lat="42.84877" lon="0.56742">
        <ele>1913.4</ele>
        <time>2021-03-21T11:01:34Z</time>
      </trkpt>
      <trkpt lat="42.84876" lon="0.56744">
        <ele>1913.522</ele>
        <time>2021-03-21T11:01:36Z</time>
      </trkpt>
      <trkpt lat="42.84874" lon="0.56745">
        <ele>1913.848</ele>
        <time>2021-03-21T11:01:38Z</time>
      </trkpt>
      <trkpt lat="42.84873" lon="0.56746">
        <ele>1914.02</ele>
        <time>2021-03-21T11:01:40Z</time>
      </trkpt>
      <trkpt lat="42.84871" lon="0.56747">
        <ele>1913.747</ele>
        <time>2021-03-21T11:01:42Z</time>
      </trkpt>
      <trkpt lat="42.8487" lon="0.56748">
        <ele>1913.56</ele>
        <time>2021-03-21T11:01:44Z</time>
      </trkpt>
      <trkpt lat="42.84868" lon="0.56748">
        <ele>1913.08</ele>
        <time>2021-03-21T11:01:46Z</time>
      </trkpt>
      <trkpt lat="42.84867" lon="0.5675">
        <ele>1912.786</ele>
        <time>2021-03-21T11:01:48Z</time>
      </trkpt>
      <trkpt lat="42.84865" lon="0.56751">
        <ele>1912.148</ele>
        <time>2021-03-21T11:01:50Z</time>
      </trkpt>
      <trkpt lat="42.84864" lon="0.56753">
        <ele>1911.337</ele>
        <time>2021-03-21T11:01:52Z</time>
      </trkpt>
      <trkpt lat="42.84862" lon="0.56754">
        <ele>1911.186</ele>
        <time>2021-03-21T11:01:54Z</time>
      </trkpt>
      <trkpt lat="42.84861" lon="0.56756">
        <ele>1910.856</ele>
        <time>2021-03-21T11:01:56Z</time>
      </trkpt>
      <trkpt lat="42.84859" lon="0.56758">
        <ele>1910.232</ele>
        <time>2021-03-21T11:01:59Z</time>
      </trkpt>
      <trkpt lat="42.84857" lon="0.56759">
        <ele>1909.777</ele>
        <time>2021-03-21T11:02:01Z</time>
      </trkpt>
      <trkpt lat="42.84856" lon="0.5676">
        <ele>1909.706</ele>
        <time>2021-03-21T11:02:03Z</time>
      </trkpt>
      <trkpt lat="42.84854" lon="0.56761">
        <ele>1909.379</ele>
        <time>2021-03-21T11:02:05Z</time>
      </trkpt>
      <trkpt lat="42.84852" lon="0.56762">
        <ele>1908.85</ele>
        <time>2021-03-21T11:02:07Z</time>
      </trkpt>
      <trkpt lat="42.8485" lon="0.56763">
        <ele>1908.259</ele>
        <time>2021-03-21T11:02:09Z</time>
      </trkpt>
      <trkpt lat="42.84849" lon="0.56764">
        <ele>1908.032</ele>
        <time>2021-03-21T11:02:11Z</time>
      </trkpt>
      <trkpt lat="42.84847" lon="0.56765">
        <ele>1907.798</ele>
        <time>2021-03-21T11:02:13Z</time>
      </trkpt>
      <trkpt lat="42.84845" lon="0.56767">
        <ele>1907.281</ele>
        <time>2021-03-21T11:02:15Z</time>
      </trkpt>
      <trkpt lat="42.84844" lon="0.56768">
        <ele>1906.989</ele>
        <time>2021-03-21T11:02:17Z</time>
      </trkpt>
      <trkpt lat="42.84842" lon="0.56769">
        <ele>1906.232</ele>
        <time>2021-03-21T11:02:19Z</time>
      </trkpt>
      <trkpt lat="42.8484" lon="0.5677">
        <ele>1905.685</ele>
        <time>2021-03-21T11:02:21Z</time>
      </trkpt>
      <trkpt lat="42.84839" lon="0.56772">
        <ele>1905.114</ele>
        <time>2021-03-21T11:02:23Z</time>
      </trkpt>
      <trkpt lat="42.84837" lon="0.56773">
        <ele>1905.042</ele>
        <time>2021-03-21T11:02:25Z</time>
      </trkpt>
      <trkpt lat="42.84835" lon="0.56774">
        <ele>1904.767</ele>
        <time>2021-03-21T11:02:27Z</time>
      </trkpt>
      <trkpt lat="42.84834" lon="0.56775">
        <ele>1904.527</ele>
        <time>2021-03-21T11:02:29Z</time>
      </trkpt>
      <trkpt lat="42.84832" lon="0.56776">
        <ele>1904.499</ele>
        <time>2021-03-21T11:02:31Z</time>
      </trkpt>
      <trkpt lat="42.84831" lon="0.56778">
        <ele>1904.263</ele>
        <time>2021-03-21T11:02:33Z</time>
      </trkpt>
      <trkpt lat="42.84829" lon="0.5678">
        <ele>1904.265</ele>
        <time>2021-03-21T11:02:35Z</time>
      </trkpt>
      <trkpt lat="42.84828" lon="0.56782">
        <ele>1904.05</ele>
        <time>2021-03-21T11:02:37Z</time>
      </trkpt>
      <trkpt lat="42.84827" lon="0.56783">
        <ele>1903.924</ele>
        <time>2021-03-21T11:02:39Z</time>
      </trkpt>
      <trkpt lat="42.84825" lon="0.56785">
        <ele>1903.761</ele>
        <time>2021-03-21T11:02:41Z</time>
      </trkpt>
      <trkpt lat="42.84823" lon="0.56787">
        <ele>1903.858</ele>
        <time>2021-03-21T11:02:43Z</time>
      </trkpt>
      <trkpt lat="42.84822" lon="0.56789">
        <ele>1903.695</ele>
        <time>2021-03-21T11:02:45Z</time>
      </trkpt>
      <trkpt lat="42.84821" lon="0.56791">
        <ele>1903.504</ele>
        <time>2021-03-21T11:02:47Z</time>
      </trkpt>
      <trkpt lat="42.8482" lon="0.56792">
        <ele>1903.708</ele>
        <time>2021-03-21T11:02:49Z</time>
      </trkpt>
      <trkpt lat="42.84818" lon="0.56794">
        <ele>1903.572</ele>
        <time>2021-03-21T11:02:51Z</time>
      </trkpt>
      <trkpt lat="42.84817" lon="0.56796">
        <ele>1903.707</ele>
        <time>2021-03-21T11:02:53Z</time>
      </trkpt>
      <trkpt lat="42.84816" lon="0.56798">
        <ele>1903.681</ele>
        <time>2021-03-21T11:02:55Z</time>
      </trkpt>
      <trkpt lat="42.84814" lon="0.56799">
        <ele>1903.724</ele>
        <time>2021-03-21T11:02:57Z</time>
      </trkpt>
      <trkpt lat="42.84813" lon="0.56801">
        <ele>1903.857</ele>
        <time>2021-03-21T11:02:59Z</time>
      </trkpt>
      <trkpt lat="42.84812" lon="0.56803">
        <ele>1903.943</ele>
        <time>2021-03-21T11:03:01Z</time>
      </trkpt>
      <trkpt lat="42.84812" lon="0.56806">
        <ele>1903.927</ele>
        <time>2021-03-21T11:03:03Z</time>
      </trkpt>
      <trkpt lat="42.84811" lon="0.56808">
        <ele>1903.786</ele>
        <time>2021-03-21T11:03:05Z</time>
      </trkpt>
      <trkpt lat="42.84809" lon="0.56809">
        <ele>1904.098</ele>
        <time>2021-03-21T11:03:07Z</time>
      </trkpt>
      <trkpt lat="42.84808" lon="0.56812">
        <ele>1904.154</ele>
        <time>2021-03-21T11:03:09Z</time>
      </trkpt>
      <trkpt lat="42.84807" lon="0.56814">
        <ele>1904.481</ele>
        <time>2021-03-21T11:03:11Z</time>
      </trkpt>
      <trkpt lat="42.84806" lon="0.56816">
        <ele>1904.402</ele>
        <time>2021-03-21T11:03:13Z</time>
      </trkpt>
      <trkpt lat="42.84805" lon="0.56818">
        <ele>1904.208</ele>
        <time>2021-03-21T11:03:15Z</time>
      </trkpt>
      <trkpt lat="42.84804" lon="0.5682">
        <ele>1903.988</ele>
        <time>2021-03-21T11:03:17Z</time>
      </trkpt>
      <trkpt lat="42.84804" lon="0.56822">
        <ele>1903.909</ele>
        <time>2021-03-21T11:03:19Z</time>
      </trkpt>
      <trkpt lat="42.84803" lon="0.56825">
        <ele>1903.606</ele>
        <time>2021-03-21T11:03:21Z</time>
      </trkpt>
      <trkpt lat="42.84802" lon="0.56827">
        <ele>1903.498</ele>
        <time>2021-03-21T11:03:23Z</time>
      </trkpt>
      <trkpt lat="42.84801" lon="0.56829">
        <ele>1903.21</ele>
        <time>2021-03-21T11:03:25Z</time>
      </trkpt>
      <trkpt lat="42.848" lon="0.56831">
        <ele>1902.875</ele>
        <time>2021-03-21T11:03:27Z</time>
      </trkpt>
      <trkpt lat="42.84799" lon="0.56833">
        <ele>1902.749</ele>
        <time>2021-03-21T11:03:29Z</time>
      </trkpt>
      <trkpt lat="42.84798" lon="0.56835">
        <ele>1902.392</ele>
        <time>2021-03-21T11:03:31Z</time>
      </trkpt>
      <trkpt lat="42.84797" lon="0.56837">
        <ele>1901.911</ele>
        <time>2021-03-21T11:03:33Z</time>
      </trkpt>
      <trkpt lat="42.84796" lon="0.56839">
        <ele>1901.386</ele>
        <time>2021-03-21T11:03:35Z</time>
      </trkpt>
      <trkpt lat="42.84795" lon="0.56841">
        <ele>1900.921</ele>
        <time>2021-03-21T11:03:37Z</time>
      </trkpt>
      <trkpt lat="42.84793" lon="0.56843">
        <ele>1900.422</ele>
        <time>2021-03-21T11:03:39Z</time>
      </trkpt>
      <trkpt lat="42.84792" lon="0.56846">
        <ele>1899.783</ele>
        <time>2021-03-21T11:03:41Z</time>
      </trkpt>
      <trkpt lat="42.84791" lon="0.56848">
        <ele>1900.179</ele>
        <time>2021-03-21T11:03:43Z</time>
      </trkpt>
      <trkpt lat="42.84789" lon="0.5685">
        <ele>1899.691</ele>
        <time>2021-03-21T11:03:45Z</time>
      </trkpt>
      <trkpt lat="42.84788" lon="0.56851">
        <ele>1898.891</ele>
        <time>2021-03-21T11:03:47Z</time>
      </trkpt>
      <trkpt lat="42.84786" lon="0.56852">
        <ele>1898.35</ele>
        <time>2021-03-21T11:03:49Z</time>
      </trkpt>
      <trkpt lat="42.84784" lon="0.56853">
        <ele>1897.896</ele>
        <time>2021-03-21T11:03:51Z</time>
      </trkpt>
      <trkpt lat="42.84782" lon="0.56854">
        <ele>1897.634</ele>
        <time>2021-03-21T11:03:53Z</time>
      </trkpt>
      <trkpt lat="42.8478" lon="0.56854">
        <ele>1897.413</ele>
        <time>2021-03-21T11:03:55Z</time>
      </trkpt>
      <trkpt lat="42.84778" lon="0.56855">
        <ele>1897.131</ele>
        <time>2021-03-21T11:03:57Z</time>
      </trkpt>
      <trkpt lat="42.84776" lon="0.56855">
        <ele>1896.942</ele>
        <time>2021-03-21T11:03:59Z</time>
      </trkpt>
      <trkpt lat="42.84774" lon="0.56855">
        <ele>1896.935</ele>
        <time>2021-03-21T11:04:01Z</time>
      </trkpt>
      <trkpt lat="42.84772" lon="0.56854">
        <ele>1896.309</ele>
        <time>2021-03-21T11:04:03Z</time>
      </trkpt>
      <trkpt lat="42.8477" lon="0.56853">
        <ele>1895.797</ele>
        <time>2021-03-21T11:04:05Z</time>
      </trkpt>
      <trkpt lat="42.84768" lon="0.56853">
        <ele>1895.162</ele>
        <time>2021-03-21T11:04:07Z</time>
      </trkpt>
      <trkpt lat="42.84765" lon="0.56853">
        <ele>1894.747</ele>
        <time>2021-03-21T11:04:09Z</time>
      </trkpt>
      <trkpt lat="42.84763" lon="0.56853">
        <ele>1894.397</ele>
        <time>2021-03-21T11:04:11Z</time>
      </trkpt>
      <trkpt lat="42.84761" lon="0.56854">
        <ele>1893.837</ele>
        <time>2021-03-21T11:04:13Z</time>
      </trkpt>
      <trkpt lat="42.84759" lon="0.56855">
        <ele>1893.678</ele>
        <time>2021-03-21T11:04:15Z</time>
      </trkpt>
      <trkpt lat="42.84757" lon="0.56855">
        <ele>1893.458</ele>
        <time>2021-03-21T11:04:17Z</time>
      </trkpt>
      <trkpt lat="42.84755" lon="0.56855">
        <ele>1893.219</ele>
        <time>2021-03-21T11:04:19Z</time>
      </trkpt>
      <trkpt lat="42.84752" lon="0.56854">
        <ele>1893.435</ele>
        <time>2021-03-21T11:04:21Z</time>
      </trkpt>
      <trkpt lat="42.8475" lon="0.56852">
        <ele>1893.532</ele>
        <time>2021-03-21T11:04:23Z</time>
      </trkpt>
      <trkpt lat="42.84749" lon="0.56851">
        <ele>1893.116</ele>
        <time>2021-03-21T11:04:25Z</time>
      </trkpt>
      <trkpt lat="42.84747" lon="0.5685">
        <ele>1893.085</ele>
        <time>2021-03-21T11:04:27Z</time>
      </trkpt>
      <trkpt lat="42.84745" lon="0.56849">
        <ele>1892.751</ele>
        <time>2021-03-21T11:04:29Z</time>
      </trkpt>
      <trkpt lat="42.84743" lon="0.56848">
        <ele>1892.391</ele>
        <time>2021-03-21T11:04:31Z</time>
      </trkpt>
      <trkpt lat="42.84741" lon="0.56849">
        <ele>1891.739</ele>
        <time>2021-03-21T11:04:33Z</time>
      </trkpt>
      <trkpt lat="42.84739" lon="0.56849">
        <ele>1891.685</ele>
        <time>2021-03-21T11:04:35Z</time>
      </trkpt>
      <trkpt lat="42.84737" lon="0.56849">
        <ele>1891.09</ele>
        <time>2021-03-21T11:04:37Z</time>
      </trkpt>
      <trkpt lat="42.84735" lon="0.56848">
        <ele>1891.119</ele>
        <time>2021-03-21T11:04:39Z</time>
      </trkpt>
      <trkpt lat="42.84732" lon="0.56847">
        <ele>1891.715</ele>
        <time>2021-03-21T11:04:41Z</time>
      </trkpt>
      <trkpt lat="42.8473" lon="0.56846">
        <ele>1891.395</ele>
        <time>2021-03-21T11:04:43Z</time>
      </trkpt>
      <trkpt lat="42.84728" lon="0.56845">
        <ele>1891.321</ele>
        <time>2021-03-21T11:04:45Z</time>
      </trkpt>
      <trkpt lat="42.84726" lon="0.56844">
        <ele>1891.375</ele>
        <time>2021-03-21T11:04:47Z</time>
      </trkpt>
      <trkpt lat="42.84724" lon="0.56843">
        <ele>1891.494</ele>
        <time>2021-03-21T11:04:49Z</time>
      </trkpt>
      <trkpt lat="42.84722" lon="0.56842">
        <ele>1891.678</ele>
        <time>2021-03-21T11:04:51Z</time>
      </trkpt>
      <trkpt lat="42.8472" lon="0.56841">
        <ele>1892.074</ele>
        <time>2021-03-21T11:04:53Z</time>
      </trkpt>
      <trkpt lat="42.84718" lon="0.5684">
        <ele>1892.282</ele>
        <time>2021-03-21T11:04:55Z</time>
      </trkpt>
      <trkpt lat="42.84716" lon="0.56839">
        <ele>1892.399</ele>
        <time>2021-03-21T11:04:57Z</time>
      </trkpt>
      <trkpt lat="42.84714" lon="0.56839">
        <ele>1891.852</ele>
        <time>2021-03-21T11:04:59Z</time>
      </trkpt>
      <trkpt lat="42.84712" lon="0.56838">
        <ele>1891.961</ele>
        <time>2021-03-21T11:05:01Z</time>
      </trkpt>
      <trkpt lat="42.8471" lon="0.56838">
        <ele>1892.523</ele>
        <time>2021-03-21T11:05:03Z</time>
      </trkpt>
      <trkpt lat="42.84708" lon="0.56836">
        <ele>1892.809</ele>
        <time>2021-03-21T11:05:05Z</time>
      </trkpt>
      <trkpt lat="42.84706" lon="0.56836">
        <ele>1892.187</ele>
        <time>2021-03-21T11:05:07Z</time>
      </trkpt>
      <trkpt lat="42.84705" lon="0.56835">
        <ele>1891.635</ele>
        <time>2021-03-21T11:05:09Z</time>
      </trkpt>
      <trkpt lat="42.84703" lon="0.56835">
        <ele>1891.523</ele>
        <time>2021-03-21T11:05:11Z</time>
      </trkpt>
      <trkpt lat="42.84701" lon="0.56833">
        <ele>1891.384</ele>
        <time>2021-03-21T11:05:13Z</time>
      </trkpt>
      <trkpt lat="42.847" lon="0.56833">
        <ele>1891.036</ele>
        <time>2021-03-21T11:05:15Z</time>
      </trkpt>
      <trkpt lat="42.84698" lon="0.56833">
        <ele>1890.458</ele>
        <time>2021-03-21T11:05:17Z</time>
      </trkpt>
      <trkpt lat="42.84696" lon="0.56832">
        <ele>1889.963</ele>
        <time>2021-03-21T11:05:19Z</time>
      </trkpt>
      <trkpt lat="42.84695" lon="0.56831">
        <ele>1889.435</ele>
        <time>2021-03-21T11:05:21Z</time>
      </trkpt>
      <trkpt lat="42.84694" lon="0.5683">
        <ele>1888.842</ele>
        <time>2021-03-21T11:05:23Z</time>
      </trkpt>
      <trkpt lat="42.84692" lon="0.56829">
        <ele>1887.895</ele>
        <time>2021-03-21T11:05:25Z</time>
      </trkpt>
      <trkpt lat="42.8469" lon="0.56828">
        <ele>1887.15</ele>
        <time>2021-03-21T11:05:27Z</time>
      </trkpt>
      <trkpt lat="42.84688" lon="0.56827">
        <ele>1886.839</ele>
        <time>2021-03-21T11:05:29Z</time>
      </trkpt>
      <trkpt lat="42.84686" lon="0.56826">
        <ele>1886.2</ele>
        <time>2021-03-21T11:05:31Z</time>
      </trkpt>
      <trkpt lat="42.84685" lon="0.56826">
        <ele>1885.195</ele>
        <time>2021-03-21T11:05:33Z</time>
      </trkpt>
      <trkpt lat="42.84683" lon="0.56826">
        <ele>1884.304</ele>
        <time>2021-03-21T11:05:35Z</time>
      </trkpt>
      <trkpt lat="42.84682" lon="0.56825">
        <ele>1883.751</ele>
        <time>2021-03-21T11:05:37Z</time>
      </trkpt>
      <trkpt lat="42.8468" lon="0.56825">
        <ele>1883.099</ele>
        <time>2021-03-21T11:05:39Z</time>
      </trkpt>
      <trkpt lat="42.84678" lon="0.56825">
        <ele>1882.542</ele>
        <time>2021-03-21T11:05:41Z</time>
      </trkpt>
      <trkpt lat="42.84676" lon="0.56824">
        <ele>1881.768</ele>
        <time>2021-03-21T11:05:44Z</time>
      </trkpt>
      <trkpt lat="42.84674" lon="0.56824">
        <ele>1881.302</ele>
        <time>2021-03-21T11:05:46Z</time>
      </trkpt>
      <trkpt lat="42.84672" lon="0.56823">
        <ele>1880.769</ele>
        <time>2021-03-21T11:05:48Z</time>
      </trkpt>
      <trkpt lat="42.84671" lon="0.56822">
        <ele>1880.33</ele>
        <time>2021-03-21T11:05:50Z</time>
      </trkpt>
      <trkpt lat="42.84669" lon="0.56822">
        <ele>1879.906</ele>
        <time>2021-03-21T11:05:52Z</time>
      </trkpt>
      <trkpt lat="42.84667" lon="0.56821">
        <ele>1879.208</ele>
        <time>2021-03-21T11:05:54Z</time>
      </trkpt>
      <trkpt lat="42.84665" lon="0.56821">
        <ele>1878.843</ele>
        <time>2021-03-21T11:05:56Z</time>
      </trkpt>
      <trkpt lat="42.84664" lon="0.5682">
        <ele>1878.532</ele>
        <time>2021-03-21T11:05:58Z</time>
      </trkpt>
      <trkpt lat="42.84662" lon="0.56819">
        <ele>1878.211</ele>
        <time>2021-03-21T11:06:00Z</time>
      </trkpt>
      <trkpt lat="42.8466" lon="0.56819">
        <ele>1878.055</ele>
        <time>2021-03-21T11:06:02Z</time>
      </trkpt>
      <trkpt lat="42.84658" lon="0.56818">
        <ele>1877.803</ele>
        <time>2021-03-21T11:06:04Z</time>
      </trkpt>
      <trkpt lat="42.84656" lon="0.56817">
        <ele>1877.378</ele>
        <time>2021-03-21T11:06:06Z</time>
      </trkpt>
      <trkpt lat="42.84654" lon="0.56816">
        <ele>1877.586</ele>
        <time>2021-03-21T11:06:08Z</time>
      </trkpt>
      <trkpt lat="42.84652" lon="0.56815">
        <ele>1877.391</ele>
        <time>2021-03-21T11:06:10Z</time>
      </trkpt>
      <trkpt lat="42.84651" lon="0.56814">
        <ele>1877.411</ele>
        <time>2021-03-21T11:06:12Z</time>
      </trkpt>
      <trkpt lat="42.84649" lon="0.56813">
        <ele>1877.398</ele>
        <time>2021-03-21T11:06:14Z</time>
      </trkpt>
      <trkpt lat="42.84648" lon="0.56812">
        <ele>1877.304</ele>
        <time>2021-03-21T11:06:16Z</time>
      </trkpt>
      <trkpt lat="42.84646" lon="0.56811">
        <ele>1877.536</ele>
        <time>2021-03-21T11:06:18Z</time>
      </trkpt>
      <trkpt lat="42.84644" lon="0.5681">
        <ele>1877.519</ele>
        <time>2021-03-21T11:06:20Z</time>
      </trkpt>
      <trkpt lat="42.84643" lon="0.56809">
        <ele>1877.384</ele>
        <time>2021-03-21T11:06:22Z</time>
      </trkpt>
      <trkpt lat="42.84642" lon="0.56808">
        <ele>1877.381</ele>
        <time>2021-03-21T11:06:24Z</time>
      </trkpt>
      <trkpt lat="42.8464" lon="0.56807">
        <ele>1877.546</ele>
        <time>2021-03-21T11:06:26Z</time>
      </trkpt>
      <trkpt lat="42.84639" lon="0.56805">
        <ele>1877.891</ele>
        <time>2021-03-21T11:06:28Z</time>
      </trkpt>
      <trkpt lat="42.84637" lon="0.56804">
        <ele>1877.522</ele>
        <time>2021-03-21T11:06:30Z</time>
      </trkpt>
      <trkpt lat="42.84636" lon="0.56802">
        <ele>1877.001</ele>
        <time>2021-03-21T11:06:32Z</time>
      </trkpt>
      <trkpt lat="42.84634" lon="0.56801">
        <ele>1876.541</ele>
        <time>2021-03-21T11:06:34Z</time>
      </trkpt>
      <trkpt lat="42.84633" lon="0.568">
        <ele>1876.235</ele>
        <time>2021-03-21T11:06:36Z</time>
      </trkpt>
      <trkpt lat="42.84631" lon="0.56798">
        <ele>1875.83</ele>
        <time>2021-03-21T11:06:38Z</time>
      </trkpt>
      <trkpt lat="42.8463" lon="0.56796">
        <ele>1875.669</ele>
        <time>2021-03-21T11:06:40Z</time>
      </trkpt>
      <trkpt lat="42.84629" lon="0.56795">
        <ele>1875.886</ele>
        <time>2021-03-21T11:06:42Z</time>
      </trkpt>
      <trkpt lat="42.84627" lon="0.56794">
        <ele>1875.874</ele>
        <time>2021-03-21T11:06:44Z</time>
      </trkpt>
      <trkpt lat="42.84625" lon="0.56792">
        <ele>1876.126</ele>
        <time>2021-03-21T11:06:46Z</time>
      </trkpt>
      <trkpt lat="42.84624" lon="0.56791">
        <ele>1876.478</ele>
        <time>2021-03-21T11:06:48Z</time>
      </trkpt>
      <trkpt lat="42.84622" lon="0.5679">
        <ele>1876.891</ele>
        <time>2021-03-21T11:06:50Z</time>
      </trkpt>
      <trkpt lat="42.8462" lon="0.5679">
        <ele>1877.544</ele>
        <time>2021-03-21T11:06:52Z</time>
      </trkpt>
      <trkpt lat="42.84619" lon="0.56789">
        <ele>1877.991</ele>
        <time>2021-03-21T11:06:54Z</time>
      </trkpt>
      <trkpt lat="42.84618" lon="0.56788">
        <ele>1878.211</ele>
        <time>2021-03-21T11:06:56Z</time>
      </trkpt>
      <trkpt lat="42.84616" lon="0.56787">
        <ele>1878.358</ele>
        <time>2021-03-21T11:06:58Z</time>
      </trkpt>
      <trkpt lat="42.84616" lon="0.56786">
        <ele>1878.338</ele>
        <time>2021-03-21T11:07:00Z</time>
      </trkpt>
      <trkpt lat="42.84614" lon="0.56784">
        <ele>1878.22</ele>
        <time>2021-03-21T11:07:02Z</time>
      </trkpt>
      <trkpt lat="42.84614" lon="0.56783">
        <ele>1878.526</ele>
        <time>2021-03-21T11:07:04Z</time>
      </trkpt>
      <trkpt lat="42.84613" lon="0.56782">
        <ele>1878.439</ele>
        <time>2021-03-21T11:07:06Z</time>
      </trkpt>
      <trkpt lat="42.84612" lon="0.5678">
        <ele>1878.356</ele>
        <time>2021-03-21T11:07:08Z</time>
      </trkpt>
      <trkpt lat="42.84611" lon="0.56779">
        <ele>1878.528</ele>
        <time>2021-03-21T11:07:10Z</time>
      </trkpt>
      <trkpt lat="42.8461" lon="0.56777">
        <ele>1878.503</ele>
        <time>2021-03-21T11:07:12Z</time>
      </trkpt>
      <trkpt lat="42.84609" lon="0.56776">
        <ele>1879.074</ele>
        <time>2021-03-21T11:07:14Z</time>
      </trkpt>
      <trkpt lat="42.84608" lon="0.56775">
        <ele>1879.214</ele>
        <time>2021-03-21T11:07:16Z</time>
      </trkpt>
      <trkpt lat="42.84607" lon="0.56774">
        <ele>1879.695</ele>
        <time>2021-03-21T11:07:18Z</time>
      </trkpt>
      <trkpt lat="42.84606" lon="0.56773">
        <ele>1880.259</ele>
        <time>2021-03-21T11:07:20Z</time>
      </trkpt>
      <trkpt lat="42.84606" lon="0.56773">
        <ele>1880.233</ele>
        <time>2021-03-21T11:07:22Z</time>
      </trkpt>
      <trkpt lat="42.84606" lon="0.56773">
        <ele>1880.232</ele>
        <time>2021-03-21T11:07:24Z</time>
      </trkpt>
      <trkpt lat="42.84606" lon="0.56773">
        <ele>1880.231</ele>
        <time>2021-03-21T11:07:26Z</time>
      </trkpt>
      <trkpt lat="42.84606" lon="0.56774">
        <ele>1880.271</ele>
        <time>2021-03-21T11:07:28Z</time>
      </trkpt>
      <trkpt lat="42.84605" lon="0.56774">
        <ele>1880.195</ele>
        <time>2021-03-21T11:07:30Z</time>
      </trkpt>
      <trkpt lat="42.84605" lon="0.56774">
        <ele>1880.18</ele>
        <time>2021-03-21T11:07:32Z</time>
      </trkpt>
      <trkpt lat="42.84605" lon="0.56774">
        <ele>1880.177</ele>
        <time>2021-03-21T11:07:34Z</time>
      </trkpt>
      <trkpt lat="42.84604" lon="0.56773">
        <ele>1880.101</ele>
        <time>2021-03-21T11:07:36Z</time>
      </trkpt>
      <trkpt lat="42.84604" lon="0.56774">
        <ele>1879.855</ele>
        <time>2021-03-21T11:07:38Z</time>
      </trkpt>
      <trkpt lat="42.84602" lon="0.56773">
        <ele>1880.6</ele>
        <time>2021-03-21T11:07:40Z</time>
      </trkpt>
      <trkpt lat="42.84602" lon="0.56773">
        <ele>1880.65</ele>
        <time>2021-03-21T11:07:42Z</time>
      </trkpt>
      <trkpt lat="42.84602" lon="0.56774">
        <ele>1880.715</ele>
        <time>2021-03-21T11:07:44Z</time>
      </trkpt>
      <trkpt lat="42.84601" lon="0.56773">
        <ele>1880.267</ele>
        <time>2021-03-21T11:07:46Z</time>
      </trkpt>
      <trkpt lat="42.846" lon="0.56771">
        <ele>1880.233</ele>
        <time>2021-03-21T11:07:48Z</time>
      </trkpt>
      <trkpt lat="42.84599" lon="0.56769">
        <ele>1880.005</ele>
        <time>2021-03-21T11:07:50Z</time>
      </trkpt>
      <trkpt lat="42.84599" lon="0.56769">
        <ele>1879.119</ele>
        <time>2021-03-21T11:07:52Z</time>
      </trkpt>
      <trkpt lat="42.84598" lon="0.56768">
        <ele>1879.152</ele>
        <time>2021-03-21T11:07:54Z</time>
      </trkpt>
      <trkpt lat="42.84597" lon="0.56766">
        <ele>1879.147</ele>
        <time>2021-03-21T11:07:56Z</time>
      </trkpt>
      <trkpt lat="42.84596" lon="0.56764">
        <ele>1878.978</ele>
        <time>2021-03-21T11:07:58Z</time>
      </trkpt>
      <trkpt lat="42.84596" lon="0.56763">
        <ele>1878.328</ele>
        <time>2021-03-21T11:08:00Z</time>
      </trkpt>
      <trkpt lat="42.84595" lon="0.56762">
        <ele>1878.212</ele>
        <time>2021-03-21T11:08:02Z</time>
      </trkpt>
      <trkpt lat="42.84595" lon="0.5676">
        <ele>1877.971</ele>
        <time>2021-03-21T11:08:04Z</time>
      </trkpt>
      <trkpt lat="42.84593" lon="0.56759">
        <ele>1878.021</ele>
        <time>2021-03-21T11:08:06Z</time>
      </trkpt>
      <trkpt lat="42.84591" lon="0.56758">
        <ele>1878.177</ele>
        <time>2021-03-21T11:08:08Z</time>
      </trkpt>
      <trkpt lat="42.8459" lon="0.56758">
        <ele>1878.823</ele>
        <time>2021-03-21T11:08:10Z</time>
      </trkpt>
      <trkpt lat="42.84588" lon="0.56758">
        <ele>1878.902</ele>
        <time>2021-03-21T11:08:12Z</time>
      </trkpt>
      <trkpt lat="42.84586" lon="0.56758">
        <ele>1878.989</ele>
        <time>2021-03-21T11:08:14Z</time>
      </trkpt>
      <trkpt lat="42.84584" lon="0.56758">
        <ele>1879.402</ele>
        <time>2021-03-21T11:08:16Z</time>
      </trkpt>
      <trkpt lat="42.84583" lon="0.56759">
        <ele>1879.441</ele>
        <time>2021-03-21T11:08:18Z</time>
      </trkpt>
      <trkpt lat="42.84581" lon="0.5676">
        <ele>1879.449</ele>
        <time>2021-03-21T11:08:20Z</time>
      </trkpt>
      <trkpt lat="42.84579" lon="0.56761">
        <ele>1879.467</ele>
        <time>2021-03-21T11:08:22Z</time>
      </trkpt>
      <trkpt lat="42.84578" lon="0.56762">
        <ele>1879.281</ele>
        <time>2021-03-21T11:08:24Z</time>
      </trkpt>
      <trkpt lat="42.84576" lon="0.56763">
        <ele>1878.792</ele>
        <time>2021-03-21T11:08:26Z</time>
      </trkpt>
      <trkpt lat="42.84575" lon="0.56765">
        <ele>1878.547</ele>
        <time>2021-03-21T11:08:28Z</time>
      </trkpt>
      <trkpt lat="42.84573" lon="0.56766">
        <ele>1878.268</ele>
        <time>2021-03-21T11:08:30Z</time>
      </trkpt>
      <trkpt lat="42.84571" lon="0.56767">
        <ele>1877.677</ele>
        <time>2021-03-21T11:08:32Z</time>
      </trkpt>
      <trkpt lat="42.84569" lon="0.56768">
        <ele>1877.233</ele>
        <time>2021-03-21T11:08:34Z</time>
      </trkpt>
      <trkpt lat="42.84567" lon="0.56769">
        <ele>1876.946</ele>
        <time>2021-03-21T11:08:36Z</time>
      </trkpt>
      <trkpt lat="42.84565" lon="0.5677">
        <ele>1876.821</ele>
        <time>2021-03-21T11:08:38Z</time>
      </trkpt>
      <trkpt lat="42.84563" lon="0.56771">
        <ele>1876.94</ele>
        <time>2021-03-21T11:08:40Z</time>
      </trkpt>
      <trkpt lat="42.84562" lon="0.56772">
        <ele>1876.631</ele>
        <time>2021-03-21T11:08:42Z</time>
      </trkpt>
      <trkpt lat="42.84559" lon="0.56773">
        <ele>1876.689</ele>
        <time>2021-03-21T11:08:44Z</time>
      </trkpt>
      <trkpt lat="42.84557" lon="0.56774">
        <ele>1876.688</ele>
        <time>2021-03-21T11:08:46Z</time>
      </trkpt>
      <trkpt lat="42.84555" lon="0.56775">
        <ele>1876.21</ele>
        <time>2021-03-21T11:08:48Z</time>
      </trkpt>
      <trkpt lat="42.84554" lon="0.56776">
        <ele>1876.019</ele>
        <time>2021-03-21T11:08:50Z</time>
      </trkpt>
      <trkpt lat="42.84552" lon="0.56778">
        <ele>1876.084</ele>
        <time>2021-03-21T11:08:52Z</time>
      </trkpt>
      <trkpt lat="42.8455" lon="0.56779">
        <ele>1876.304</ele>
        <time>2021-03-21T11:08:54Z</time>
      </trkpt>
      <trkpt lat="42.84549" lon="0.56779">
        <ele>1876.757</ele>
        <time>2021-03-21T11:08:56Z</time>
      </trkpt>
      <trkpt lat="42.84547" lon="0.56781">
        <ele>1876.831</ele>
        <time>2021-03-21T11:08:58Z</time>
      </trkpt>
      <trkpt lat="42.84545" lon="0.56782">
        <ele>1877.041</ele>
        <time>2021-03-21T11:09:00Z</time>
      </trkpt>
      <trkpt lat="42.84544" lon="0.56783">
        <ele>1877.176</ele>
        <time>2021-03-21T11:09:02Z</time>
      </trkpt>
      <trkpt lat="42.84542" lon="0.56784">
        <ele>1877.108</ele>
        <time>2021-03-21T11:09:04Z</time>
      </trkpt>
      <trkpt lat="42.84541" lon="0.56785">
        <ele>1877.188</ele>
        <time>2021-03-21T11:09:06Z</time>
      </trkpt>
      <trkpt lat="42.84539" lon="0.56787">
        <ele>1877.228</ele>
        <time>2021-03-21T11:09:08Z</time>
      </trkpt>
      <trkpt lat="42.84538" lon="0.56788">
        <ele>1877.113</ele>
        <time>2021-03-21T11:09:10Z</time>
      </trkpt>
      <trkpt lat="42.84536" lon="0.56788">
        <ele>1877.647</ele>
        <time>2021-03-21T11:09:12Z</time>
      </trkpt>
      <trkpt lat="42.84535" lon="0.56789">
        <ele>1877.838</ele>
        <time>2021-03-21T11:09:14Z</time>
      </trkpt>
      <trkpt lat="42.84533" lon="0.56789">
        <ele>1877.847</ele>
        <time>2021-03-21T11:09:16Z</time>
      </trkpt>
      <trkpt lat="42.84532" lon="0.5679">
        <ele>1878.184</ele>
        <time>2021-03-21T11:09:18Z</time>
      </trkpt>
      <trkpt lat="42.8453" lon="0.56791">
        <ele>1877.916</ele>
        <time>2021-03-21T11:09:20Z</time>
      </trkpt>
      <trkpt lat="42.84528" lon="0.56792">
        <ele>1877.892</ele>
        <time>2021-03-21T11:09:22Z</time>
      </trkpt>
      <trkpt lat="42.84527" lon="0.56792">
        <ele>1878.285</ele>
        <time>2021-03-21T11:09:24Z</time>
      </trkpt>
      <trkpt lat="42.84525" lon="0.56793">
        <ele>1877.916</ele>
        <time>2021-03-21T11:09:26Z</time>
      </trkpt>
      <trkpt lat="42.84524" lon="0.56795">
        <ele>1878.059</ele>
        <time>2021-03-21T11:09:28Z</time>
      </trkpt>
      <trkpt lat="42.84523" lon="0.56796">
        <ele>1878.367</ele>
        <time>2021-03-21T11:09:30Z</time>
      </trkpt>
      <trkpt lat="42.84522" lon="0.56797">
        <ele>1878.482</ele>
        <time>2021-03-21T11:09:32Z</time>
      </trkpt>
      <trkpt lat="42.8452" lon="0.56799">
        <ele>1878.581</ele>
        <time>2021-03-21T11:09:34Z</time>
      </trkpt>
      <trkpt lat="42.84519" lon="0.568">
        <ele>1878.516</ele>
        <time>2021-03-21T11:09:36Z</time>
      </trkpt>
      <trkpt lat="42.84517" lon="0.56801">
        <ele>1878.463</ele>
        <time>2021-03-21T11:09:38Z</time>
      </trkpt>
      <trkpt lat="42.84516" lon="0.56802">
        <ele>1878.402</ele>
        <time>2021-03-21T11:09:40Z</time>
      </trkpt>
      <trkpt lat="42.84515" lon="0.56803">
        <ele>1878.724</ele>
        <time>2021-03-21T11:09:42Z</time>
      </trkpt>
      <trkpt lat="42.84514" lon="0.56805">
        <ele>1878.704</ele>
        <time>2021-03-21T11:09:44Z</time>
      </trkpt>
      <trkpt lat="42.84513" lon="0.56807">
        <ele>1878.685</ele>
        <time>2021-03-21T11:09:46Z</time>
      </trkpt>
      <trkpt lat="42.84512" lon="0.56808">
        <ele>1878.622</ele>
        <time>2021-03-21T11:09:48Z</time>
      </trkpt>
      <trkpt lat="42.84511" lon="0.56809">
        <ele>1878.814</ele>
        <time>2021-03-21T11:09:50Z</time>
      </trkpt>
      <trkpt lat="42.8451" lon="0.5681">
        <ele>1878.79</ele>
        <time>2021-03-21T11:09:52Z</time>
      </trkpt>
      <trkpt lat="42.84509" lon="0.56811">
        <ele>1878.468</ele>
        <time>2021-03-21T11:09:54Z</time>
      </trkpt>
      <trkpt lat="42.84507" lon="0.56812">
        <ele>1878.67</ele>
        <time>2021-03-21T11:09:56Z</time>
      </trkpt>
      <trkpt lat="42.84506" lon="0.56814">
        <ele>1878.873</ele>
        <time>2021-03-21T11:09:58Z</time>
      </trkpt>
      <trkpt lat="42.84505" lon="0.56815">
        <ele>1878.968</ele>
        <time>2021-03-21T11:10:00Z</time>
      </trkpt>
      <trkpt lat="42.84504" lon="0.56817">
        <ele>1878.773</ele>
        <time>2021-03-21T11:10:03Z</time>
      </trkpt>
      <trkpt lat="42.84503" lon="0.56818">
        <ele>1878.879</ele>
        <time>2021-03-21T11:10:05Z</time>
      </trkpt>
      <trkpt lat="42.84501" lon="0.5682">
        <ele>1878.775</ele>
        <time>2021-03-21T11:10:07Z</time>
      </trkpt>
      <trkpt lat="42.845" lon="0.56821">
        <ele>1878.673</ele>
        <time>2021-03-21T11:10:09Z</time>
      </trkpt>
      <trkpt lat="42.84499" lon="0.56822">
        <ele>1878.569</ele>
        <time>2021-03-21T11:10:11Z</time>
      </trkpt>
      <trkpt lat="42.84497" lon="0.56822">
        <ele>1878.684</ele>
        <time>2021-03-21T11:10:13Z</time>
      </trkpt>
      <trkpt lat="42.84496" lon="0.56823">
        <ele>1878.425</ele>
        <time>2021-03-21T11:10:15Z</time>
      </trkpt>
      <trkpt lat="42.84495" lon="0.56824">
        <ele>1877.933</ele>
        <time>2021-03-21T11:10:17Z</time>
      </trkpt>
      <trkpt lat="42.84494" lon="0.56824">
        <ele>1877.551</ele>
        <time>2021-03-21T11:10:19Z</time>
      </trkpt>
      <trkpt lat="42.84493" lon="0.56825">
        <ele>1877.68</ele>
        <time>2021-03-21T11:10:21Z</time>
      </trkpt>
      <trkpt lat="42.84491" lon="0.56824">
        <ele>1877.487</ele>
        <time>2021-03-21T11:10:23Z</time>
      </trkpt>
      <trkpt lat="42.8449" lon="0.56825">
        <ele>1876.95</ele>
        <time>2021-03-21T11:10:25Z</time>
      </trkpt>
      <trkpt lat="42.84488" lon="0.56826">
        <ele>1876.536</ele>
        <time>2021-03-21T11:10:27Z</time>
      </trkpt>
      <trkpt lat="42.84487" lon="0.56827">
        <ele>1876.23</ele>
        <time>2021-03-21T11:10:29Z</time>
      </trkpt>
      <trkpt lat="42.84486" lon="0.56828">
        <ele>1875.822</ele>
        <time>2021-03-21T11:10:31Z</time>
      </trkpt>
      <trkpt lat="42.84483" lon="0.56828">
        <ele>1874.823</ele>
        <time>2021-03-21T11:10:34Z</time>
      </trkpt>
      <trkpt lat="42.84482" lon="0.56829">
        <ele>1874.255</ele>
        <time>2021-03-21T11:10:36Z</time>
      </trkpt>
      <trkpt lat="42.8448" lon="0.5683">
        <ele>1873.798</ele>
        <time>2021-03-21T11:10:38Z</time>
      </trkpt>
      <trkpt lat="42.84479" lon="0.56831">
        <ele>1873.307</ele>
        <time>2021-03-21T11:10:40Z</time>
      </trkpt>
      <trkpt lat="42.84477" lon="0.56832">
        <ele>1873.276</ele>
        <time>2021-03-21T11:10:42Z</time>
      </trkpt>
      <trkpt lat="42.84476" lon="0.56833">
        <ele>1872.748</ele>
        <time>2021-03-21T11:10:44Z</time>
      </trkpt>
      <trkpt lat="42.84474" lon="0.56835">
        <ele>1872.382</ele>
        <time>2021-03-21T11:10:46Z</time>
      </trkpt>
      <trkpt lat="42.84473" lon="0.56836">
        <ele>1872.058</ele>
        <time>2021-03-21T11:10:48Z</time>
      </trkpt>
      <trkpt lat="42.84472" lon="0.56837">
        <ele>1871.847</ele>
        <time>2021-03-21T11:10:50Z</time>
      </trkpt>
      <trkpt lat="42.8447" lon="0.56837">
        <ele>1871.248</ele>
        <time>2021-03-21T11:10:52Z</time>
      </trkpt>
      <trkpt lat="42.84469" lon="0.56838">
        <ele>1871.043</ele>
        <time>2021-03-21T11:10:54Z</time>
      </trkpt>
      <trkpt lat="42.84467" lon="0.56838">
        <ele>1870.832</ele>
        <time>2021-03-21T11:10:56Z</time>
      </trkpt>
      <trkpt lat="42.84466" lon="0.56839">
        <ele>1870.289</ele>
        <time>2021-03-21T11:10:58Z</time>
      </trkpt>
      <trkpt lat="42.84464" lon="0.56839">
        <ele>1870.377</ele>
        <time>2021-03-21T11:11:00Z</time>
      </trkpt>
      <trkpt lat="42.84463" lon="0.5684">
        <ele>1869.88</ele>
        <time>2021-03-21T11:11:02Z</time>
      </trkpt>
      <trkpt lat="42.84461" lon="0.56842">
        <ele>1870.046</ele>
        <time>2021-03-21T11:11:04Z</time>
      </trkpt>
      <trkpt lat="42.8446" lon="0.56844">
        <ele>1869.701</ele>
        <time>2021-03-21T11:11:06Z</time>
      </trkpt>
      <trkpt lat="42.84459" lon="0.56846">
        <ele>1869.386</ele>
        <time>2021-03-21T11:11:08Z</time>
      </trkpt>
      <trkpt lat="42.84458" lon="0.56847">
        <ele>1869.467</ele>
        <time>2021-03-21T11:11:10Z</time>
      </trkpt>
      <trkpt lat="42.84457" lon="0.56848">
        <ele>1868.681</ele>
        <time>2021-03-21T11:11:12Z</time>
      </trkpt>
      <trkpt lat="42.84455" lon="0.56849">
        <ele>1868.032</ele>
        <time>2021-03-21T11:11:14Z</time>
      </trkpt>
      <trkpt lat="42.84454" lon="0.56849">
        <ele>1867.637</ele>
        <time>2021-03-21T11:11:16Z</time>
      </trkpt>
      <trkpt lat="42.84452" lon="0.56848">
        <ele>1867.452</ele>
        <time>2021-03-21T11:11:18Z</time>
      </trkpt>
      <trkpt lat="42.8445" lon="0.56848">
        <ele>1867.09</ele>
        <time>2021-03-21T11:11:20Z</time>
      </trkpt>
      <trkpt lat="42.84448" lon="0.56848">
        <ele>1866.491</ele>
        <time>2021-03-21T11:11:22Z</time>
      </trkpt>
      <trkpt lat="42.84446" lon="0.56848">
        <ele>1866.291</ele>
        <time>2021-03-21T11:11:24Z</time>
      </trkpt>
      <trkpt lat="42.84444" lon="0.56849">
        <ele>1866.151</ele>
        <time>2021-03-21T11:11:26Z</time>
      </trkpt>
      <trkpt lat="42.84442" lon="0.56849">
        <ele>1865.782</ele>
        <time>2021-03-21T11:11:28Z</time>
      </trkpt>
      <trkpt lat="42.8444" lon="0.5685">
        <ele>1865.308</ele>
        <time>2021-03-21T11:11:30Z</time>
      </trkpt>
      <trkpt lat="42.84439" lon="0.5685">
        <ele>1865.34</ele>
        <time>2021-03-21T11:11:32Z</time>
      </trkpt>
      <trkpt lat="42.84437" lon="0.5685">
        <ele>1865.246</ele>
        <time>2021-03-21T11:11:34Z</time>
      </trkpt>
      <trkpt lat="42.84435" lon="0.5685">
        <ele>1865.567</ele>
        <time>2021-03-21T11:11:36Z</time>
      </trkpt>
      <trkpt lat="42.84433" lon="0.5685">
        <ele>1865.569</ele>
        <time>2021-03-21T11:11:38Z</time>
      </trkpt>
      <trkpt lat="42.84431" lon="0.5685">
        <ele>1865.351</ele>
        <time>2021-03-21T11:11:40Z</time>
      </trkpt>
      <trkpt lat="42.84429" lon="0.5685">
        <ele>1865.218</ele>
        <time>2021-03-21T11:11:42Z</time>
      </trkpt>
      <trkpt lat="42.84427" lon="0.5685">
        <ele>1865.071</ele>
        <time>2021-03-21T11:11:44Z</time>
      </trkpt>
      <trkpt lat="42.84425" lon="0.5685">
        <ele>1864.803</ele>
        <time>2021-03-21T11:11:46Z</time>
      </trkpt>
      <trkpt lat="42.84423" lon="0.5685">
        <ele>1864.223</ele>
        <time>2021-03-21T11:11:48Z</time>
      </trkpt>
      <trkpt lat="42.84421" lon="0.56851">
        <ele>1863.648</ele>
        <time>2021-03-21T11:11:50Z</time>
      </trkpt>
      <trkpt lat="42.8442" lon="0.56852">
        <ele>1863.348</ele>
        <time>2021-03-21T11:11:52Z</time>
      </trkpt>
      <trkpt lat="42.84418" lon="0.56852">
        <ele>1863.142</ele>
        <time>2021-03-21T11:11:54Z</time>
      </trkpt>
      <trkpt lat="42.84416" lon="0.56852">
        <ele>1862.892</ele>
        <time>2021-03-21T11:11:56Z</time>
      </trkpt>
      <trkpt lat="42.84414" lon="0.56853">
        <ele>1861.834</ele>
        <time>2021-03-21T11:11:58Z</time>
      </trkpt>
      <trkpt lat="42.84412" lon="0.56853">
        <ele>1861.317</ele>
        <time>2021-03-21T11:12:00Z</time>
      </trkpt>
      <trkpt lat="42.8441" lon="0.56854">
        <ele>1860.779</ele>
        <time>2021-03-21T11:12:02Z</time>
      </trkpt>
      <trkpt lat="42.84408" lon="0.56855">
        <ele>1860.122</ele>
        <time>2021-03-21T11:12:04Z</time>
      </trkpt>
      <trkpt lat="42.84406" lon="0.56856">
        <ele>1859.826</ele>
        <time>2021-03-21T11:12:06Z</time>
      </trkpt>
      <trkpt lat="42.84404" lon="0.56857">
        <ele>1859.034</ele>
        <time>2021-03-21T11:12:08Z</time>
      </trkpt>
      <trkpt lat="42.84402" lon="0.56857">
        <ele>1858.281</ele>
        <time>2021-03-21T11:12:10Z</time>
      </trkpt>
      <trkpt lat="42.844" lon="0.56857">
        <ele>1857.764</ele>
        <time>2021-03-21T11:12:12Z</time>
      </trkpt>
      <trkpt lat="42.84398" lon="0.56859">
        <ele>1857.458</ele>
        <time>2021-03-21T11:12:14Z</time>
      </trkpt>
      <trkpt lat="42.84396" lon="0.56859">
        <ele>1857.353</ele>
        <time>2021-03-21T11:12:16Z</time>
      </trkpt>
      <trkpt lat="42.84394" lon="0.5686">
        <ele>1857.11</ele>
        <time>2021-03-21T11:12:18Z</time>
      </trkpt>
      <trkpt lat="42.84392" lon="0.56861">
        <ele>1857.072</ele>
        <time>2021-03-21T11:12:20Z</time>
      </trkpt>
      <trkpt lat="42.8439" lon="0.56861">
        <ele>1857.076</ele>
        <time>2021-03-21T11:12:22Z</time>
      </trkpt>
      <trkpt lat="42.84388" lon="0.56862">
        <ele>1856.933</ele>
        <time>2021-03-21T11:12:24Z</time>
      </trkpt>
      <trkpt lat="42.84386" lon="0.56862">
        <ele>1856.92</ele>
        <time>2021-03-21T11:12:26Z</time>
      </trkpt>
      <trkpt lat="42.84384" lon="0.56862">
        <ele>1856.931</ele>
        <time>2021-03-21T11:12:28Z</time>
      </trkpt>
      <trkpt lat="42.84382" lon="0.56862">
        <ele>1856.918</ele>
        <time>2021-03-21T11:12:30Z</time>
      </trkpt>
      <trkpt lat="42.8438" lon="0.56862">
        <ele>1856.779</ele>
        <time>2021-03-21T11:12:32Z</time>
      </trkpt>
      <trkpt lat="42.84378" lon="0.56863">
        <ele>1856.865</ele>
        <time>2021-03-21T11:12:34Z</time>
      </trkpt>
      <trkpt lat="42.84376" lon="0.56863">
        <ele>1856.818</ele>
        <time>2021-03-21T11:12:36Z</time>
      </trkpt>
      <trkpt lat="42.84374" lon="0.56863">
        <ele>1856.829</ele>
        <time>2021-03-21T11:12:38Z</time>
      </trkpt>
      <trkpt lat="42.84372" lon="0.56864">
        <ele>1856.501</ele>
        <time>2021-03-21T11:12:40Z</time>
      </trkpt>
      <trkpt lat="42.8437" lon="0.56864">
        <ele>1856.492</ele>
        <time>2021-03-21T11:12:42Z</time>
      </trkpt>
      <trkpt lat="42.84368" lon="0.56865">
        <ele>1856.44</ele>
        <time>2021-03-21T11:12:44Z</time>
      </trkpt>
      <trkpt lat="42.84366" lon="0.56866">
        <ele>1856.2</ele>
        <time>2021-03-21T11:12:46Z</time>
      </trkpt>
      <trkpt lat="42.84364" lon="0.56866">
        <ele>1856.548</ele>
        <time>2021-03-21T11:12:48Z</time>
      </trkpt>
      <trkpt lat="42.84362" lon="0.56867">
        <ele>1856.773</ele>
        <time>2021-03-21T11:12:50Z</time>
      </trkpt>
      <trkpt lat="42.84361" lon="0.56868">
        <ele>1856.916</ele>
        <time>2021-03-21T11:12:52Z</time>
      </trkpt>
      <trkpt lat="42.84359" lon="0.56869">
        <ele>1856.769</ele>
        <time>2021-03-21T11:12:54Z</time>
      </trkpt>
      <trkpt lat="42.84357" lon="0.56871">
        <ele>1857.06</ele>
        <time>2021-03-21T11:12:56Z</time>
      </trkpt>
      <trkpt lat="42.84356" lon="0.56871">
        <ele>1857.232</ele>
        <time>2021-03-21T11:12:58Z</time>
      </trkpt>
      <trkpt lat="42.84354" lon="0.56872">
        <ele>1857.647</ele>
        <time>2021-03-21T11:13:00Z</time>
      </trkpt>
      <trkpt lat="42.84352" lon="0.56872">
        <ele>1857.532</ele>
        <time>2021-03-21T11:13:02Z</time>
      </trkpt>
      <trkpt lat="42.84351" lon="0.56873">
        <ele>1857.079</ele>
        <time>2021-03-21T11:13:04Z</time>
      </trkpt>
      <trkpt lat="42.84349" lon="0.56875">
        <ele>1857.07</ele>
        <time>2021-03-21T11:13:06Z</time>
      </trkpt>
      <trkpt lat="42.84347" lon="0.56876">
        <ele>1857.03</ele>
        <time>2021-03-21T11:13:08Z</time>
      </trkpt>
      <trkpt lat="42.84346" lon="0.56877">
        <ele>1857.031</ele>
        <time>2021-03-21T11:13:10Z</time>
      </trkpt>
      <trkpt lat="42.84344" lon="0.56878">
        <ele>1856.803</ele>
        <time>2021-03-21T11:13:12Z</time>
      </trkpt>
      <trkpt lat="42.84342" lon="0.56879">
        <ele>1856.917</ele>
        <time>2021-03-21T11:13:14Z</time>
      </trkpt>
      <trkpt lat="42.8434" lon="0.5688">
        <ele>1856.951</ele>
        <time>2021-03-21T11:13:16Z</time>
      </trkpt>
      <trkpt lat="42.84338" lon="0.56881">
        <ele>1856.87</ele>
        <time>2021-03-21T11:13:18Z</time>
      </trkpt>
      <trkpt lat="42.84336" lon="0.56882">
        <ele>1857.183</ele>
        <time>2021-03-21T11:13:20Z</time>
      </trkpt>
      <trkpt lat="42.84334" lon="0.56883">
        <ele>1856.682</ele>
        <time>2021-03-21T11:13:22Z</time>
      </trkpt>
      <trkpt lat="42.84333" lon="0.56885">
        <ele>1856.553</ele>
        <time>2021-03-21T11:13:24Z</time>
      </trkpt>
      <trkpt lat="42.84331" lon="0.56885">
        <ele>1856.923</ele>
        <time>2021-03-21T11:13:26Z</time>
      </trkpt>
      <trkpt lat="42.84329" lon="0.56886">
        <ele>1856.856</ele>
        <time>2021-03-21T11:13:28Z</time>
      </trkpt>
      <trkpt lat="42.84328" lon="0.56887">
        <ele>1856.916</ele>
        <time>2021-03-21T11:13:30Z</time>
      </trkpt>
      <trkpt lat="42.84326" lon="0.56889">
        <ele>1856.825</ele>
        <time>2021-03-21T11:13:32Z</time>
      </trkpt>
      <trkpt lat="42.84325" lon="0.5689">
        <ele>1856.612</ele>
        <time>2021-03-21T11:13:34Z</time>
      </trkpt>
      <trkpt lat="42.84323" lon="0.56892">
        <ele>1856.271</ele>
        <time>2021-03-21T11:13:36Z</time>
      </trkpt>
      <trkpt lat="42.84321" lon="0.56893">
        <ele>1856.06</ele>
        <time>2021-03-21T11:13:38Z</time>
      </trkpt>
      <trkpt lat="42.84319" lon="0.56893">
        <ele>1855.962</ele>
        <time>2021-03-21T11:13:40Z</time>
      </trkpt>
      <trkpt lat="42.84317" lon="0.56894">
        <ele>1855.743</ele>
        <time>2021-03-21T11:13:42Z</time>
      </trkpt>
      <trkpt lat="42.84315" lon="0.56894">
        <ele>1855.539</ele>
        <time>2021-03-21T11:13:44Z</time>
      </trkpt>
      <trkpt lat="42.84313" lon="0.56895">
        <ele>1855.208</ele>
        <time>2021-03-21T11:13:46Z</time>
      </trkpt>
      <trkpt lat="42.84311" lon="0.56896">
        <ele>1854.997</ele>
        <time>2021-03-21T11:13:48Z</time>
      </trkpt>
      <trkpt lat="42.8431" lon="0.56896">
        <ele>1854.72</ele>
        <time>2021-03-21T11:13:50Z</time>
      </trkpt>
      <trkpt lat="42.84308" lon="0.56896">
        <ele>1854.706</ele>
        <time>2021-03-21T11:13:52Z</time>
      </trkpt>
      <trkpt lat="42.84306" lon="0.56897">
        <ele>1854.783</ele>
        <time>2021-03-21T11:13:54Z</time>
      </trkpt>
      <trkpt lat="42.84303" lon="0.56897">
        <ele>1855.005</ele>
        <time>2021-03-21T11:13:56Z</time>
      </trkpt>
      <trkpt lat="42.84301" lon="0.56898">
        <ele>1854.857</ele>
        <time>2021-03-21T11:13:58Z</time>
      </trkpt>
      <trkpt lat="42.84299" lon="0.56898">
        <ele>1854.818</ele>
        <time>2021-03-21T11:14:00Z</time>
      </trkpt>
      <trkpt lat="42.84297" lon="0.56898">
        <ele>1854.572</ele>
        <time>2021-03-21T11:14:02Z</time>
      </trkpt>
      <trkpt lat="42.84295" lon="0.56899">
        <ele>1855.038</ele>
        <time>2021-03-21T11:14:04Z</time>
      </trkpt>
      <trkpt lat="42.84293" lon="0.56899">
        <ele>1855.367</ele>
        <time>2021-03-21T11:14:06Z</time>
      </trkpt>
      <trkpt lat="42.84292" lon="0.56899">
        <ele>1855.467</ele>
        <time>2021-03-21T11:14:08Z</time>
      </trkpt>
      <trkpt lat="42.8429" lon="0.56899">
        <ele>1855.529</ele>
        <time>2021-03-21T11:14:10Z</time>
      </trkpt>
      <trkpt lat="42.84288" lon="0.569">
        <ele>1855.547</ele>
        <time>2021-03-21T11:14:12Z</time>
      </trkpt>
      <trkpt lat="42.84286" lon="0.569">
        <ele>1855.421</ele>
        <time>2021-03-21T11:14:14Z</time>
      </trkpt>
      <trkpt lat="42.84284" lon="0.569">
        <ele>1855.445</ele>
        <time>2021-03-21T11:14:16Z</time>
      </trkpt>
      <trkpt lat="42.84283" lon="0.56901">
        <ele>1855.591</ele>
        <time>2021-03-21T11:14:18Z</time>
      </trkpt>
      <trkpt lat="42.84281" lon="0.56901">
        <ele>1855.277</ele>
        <time>2021-03-21T11:14:20Z</time>
      </trkpt>
      <trkpt lat="42.84279" lon="0.56902">
        <ele>1855.168</ele>
        <time>2021-03-21T11:14:22Z</time>
      </trkpt>
      <trkpt lat="42.84277" lon="0.56903">
        <ele>1855.072</ele>
        <time>2021-03-21T11:14:24Z</time>
      </trkpt>
      <trkpt lat="42.84275" lon="0.56905">
        <ele>1854.822</ele>
        <time>2021-03-21T11:14:26Z</time>
      </trkpt>
      <trkpt lat="42.84272" lon="0.56907">
        <ele>1855.883</ele>
        <time>2021-03-21T11:14:28Z</time>
      </trkpt>
      <trkpt lat="42.8427" lon="0.56909">
        <ele>1855.855</ele>
        <time>2021-03-21T11:14:30Z</time>
      </trkpt>
      <trkpt lat="42.84268" lon="0.5691">
        <ele>1855.389</ele>
        <time>2021-03-21T11:14:32Z</time>
      </trkpt>
      <trkpt lat="42.84266" lon="0.56912">
        <ele>1855.191</ele>
        <time>2021-03-21T11:14:34Z</time>
      </trkpt>
      <trkpt lat="42.84265" lon="0.56913">
        <ele>1855.446</ele>
        <time>2021-03-21T11:14:36Z</time>
      </trkpt>
      <trkpt lat="42.84263" lon="0.56914">
        <ele>1855.302</ele>
        <time>2021-03-21T11:14:38Z</time>
      </trkpt>
      <trkpt lat="42.84261" lon="0.56915">
        <ele>1855.129</ele>
        <time>2021-03-21T11:14:40Z</time>
      </trkpt>
      <trkpt lat="42.84259" lon="0.56916">
        <ele>1854.819</ele>
        <time>2021-03-21T11:14:42Z</time>
      </trkpt>
      <trkpt lat="42.84258" lon="0.56917">
        <ele>1854.603</ele>
        <time>2021-03-21T11:14:44Z</time>
      </trkpt>
      <trkpt lat="42.84257" lon="0.56918">
        <ele>1854.541</ele>
        <time>2021-03-21T11:14:46Z</time>
      </trkpt>
      <trkpt lat="42.84256" lon="0.56918">
        <ele>1854.021</ele>
        <time>2021-03-21T11:14:48Z</time>
      </trkpt>
      <trkpt lat="42.84254" lon="0.56919">
        <ele>1853.624</ele>
        <time>2021-03-21T11:14:50Z</time>
      </trkpt>
      <trkpt lat="42.84253" lon="0.5692">
        <ele>1853.024</ele>
        <time>2021-03-21T11:14:52Z</time>
      </trkpt>
      <trkpt lat="42.84251" lon="0.56921">
        <ele>1852.212</ele>
        <time>2021-03-21T11:14:54Z</time>
      </trkpt>
      <trkpt lat="42.8425" lon="0.56922">
        <ele>1851.977</ele>
        <time>2021-03-21T11:14:56Z</time>
      </trkpt>
      <trkpt lat="42.84248" lon="0.56923">
        <ele>1851.19</ele>
        <time>2021-03-21T11:14:58Z</time>
      </trkpt>
      <trkpt lat="42.84246" lon="0.56924">
        <ele>1850.52</ele>
        <time>2021-03-21T11:15:00Z</time>
      </trkpt>
      <trkpt lat="42.84244" lon="0.56925">
        <ele>1850.219</ele>
        <time>2021-03-21T11:15:02Z</time>
      </trkpt>
      <trkpt lat="42.84242" lon="0.56925">
        <ele>1849.346</ele>
        <time>2021-03-21T11:15:04Z</time>
      </trkpt>
      <trkpt lat="42.8424" lon="0.56926">
        <ele>1848.975</ele>
        <time>2021-03-21T11:15:06Z</time>
      </trkpt>
      <trkpt lat="42.84238" lon="0.56927">
        <ele>1848.516</ele>
        <time>2021-03-21T11:15:08Z</time>
      </trkpt>
      <trkpt lat="42.84235" lon="0.56928">
        <ele>1848.417</ele>
        <time>2021-03-21T11:15:10Z</time>
      </trkpt>
      <trkpt lat="42.84233" lon="0.56929">
        <ele>1847.779</ele>
        <time>2021-03-21T11:15:12Z</time>
      </trkpt>
      <trkpt lat="42.84232" lon="0.5693">
        <ele>1846.981</ele>
        <time>2021-03-21T11:15:14Z</time>
      </trkpt>
      <trkpt lat="42.8423" lon="0.56931">
        <ele>1846.602</ele>
        <time>2021-03-21T11:15:16Z</time>
      </trkpt>
      <trkpt lat="42.84228" lon="0.56932">
        <ele>1845.831</ele>
        <time>2021-03-21T11:15:18Z</time>
      </trkpt>
      <trkpt lat="42.84226" lon="0.56934">
        <ele>1845.198</ele>
        <time>2021-03-21T11:15:20Z</time>
      </trkpt>
      <trkpt lat="42.84224" lon="0.56935">
        <ele>1844.749</ele>
        <time>2021-03-21T11:15:22Z</time>
      </trkpt>
      <trkpt lat="42.84223" lon="0.56935">
        <ele>1844.094</ele>
        <time>2021-03-21T11:15:24Z</time>
      </trkpt>
      <trkpt lat="42.84221" lon="0.56937">
        <ele>1843.456</ele>
        <time>2021-03-21T11:15:26Z</time>
      </trkpt>
      <trkpt lat="42.84219" lon="0.56938">
        <ele>1843.099</ele>
        <time>2021-03-21T11:15:28Z</time>
      </trkpt>
      <trkpt lat="42.84217" lon="0.56938">
        <ele>1842.789</ele>
        <time>2021-03-21T11:15:30Z</time>
      </trkpt>
      <trkpt lat="42.84215" lon="0.56939">
        <ele>1842.85</ele>
        <time>2021-03-21T11:15:32Z</time>
      </trkpt>
      <trkpt lat="42.84213" lon="0.5694">
        <ele>1842.661</ele>
        <time>2021-03-21T11:15:34Z</time>
      </trkpt>
      <trkpt lat="42.84211" lon="0.56942">
        <ele>1841.984</ele>
        <time>2021-03-21T11:15:36Z</time>
      </trkpt>
      <trkpt lat="42.8421" lon="0.56943">
        <ele>1841.741</ele>
        <time>2021-03-21T11:15:38Z</time>
      </trkpt>
      <trkpt lat="42.84209" lon="0.56943">
        <ele>1841.949</ele>
        <time>2021-03-21T11:15:40Z</time>
      </trkpt>
      <trkpt lat="42.84206" lon="0.56945">
        <ele>1841.534</ele>
        <time>2021-03-21T11:15:42Z</time>
      </trkpt>
      <trkpt lat="42.84203" lon="0.56947">
        <ele>1840.821</ele>
        <time>2021-03-21T11:15:44Z</time>
      </trkpt>
      <trkpt lat="42.842" lon="0.56949">
        <ele>1840.767</ele>
        <time>2021-03-21T11:15:46Z</time>
      </trkpt>
      <trkpt lat="42.84198" lon="0.5695">
        <ele>1840.996</ele>
        <time>2021-03-21T11:15:48Z</time>
      </trkpt>
      <trkpt lat="42.84196" lon="0.56951">
        <ele>1841.071</ele>
        <time>2021-03-21T11:15:50Z</time>
      </trkpt>
      <trkpt lat="42.84194" lon="0.56952">
        <ele>1841.321</ele>
        <time>2021-03-21T11:15:52Z</time>
      </trkpt>
      <trkpt lat="42.84192" lon="0.56953">
        <ele>1841.087</ele>
        <time>2021-03-21T11:15:54Z</time>
      </trkpt>
      <trkpt lat="42.8419" lon="0.56954">
        <ele>1840.994</ele>
        <time>2021-03-21T11:15:56Z</time>
      </trkpt>
      <trkpt lat="42.84188" lon="0.56955">
        <ele>1840.969</ele>
        <time>2021-03-21T11:15:58Z</time>
      </trkpt>
      <trkpt lat="42.84185" lon="0.56956">
        <ele>1841.304</ele>
        <time>2021-03-21T11:16:00Z</time>
      </trkpt>
      <trkpt lat="42.84183" lon="0.56957">
        <ele>1840.946</ele>
        <time>2021-03-21T11:16:02Z</time>
      </trkpt>
      <trkpt lat="42.84181" lon="0.56958">
        <ele>1840.331</ele>
        <time>2021-03-21T11:16:04Z</time>
      </trkpt>
      <trkpt lat="42.84179" lon="0.56959">
        <ele>1839.511</ele>
        <time>2021-03-21T11:16:06Z</time>
      </trkpt>
      <trkpt lat="42.84176" lon="0.56959">
        <ele>1839.243</ele>
        <time>2021-03-21T11:16:08Z</time>
      </trkpt>
      <trkpt lat="42.84174" lon="0.5696">
        <ele>1838.871</ele>
        <time>2021-03-21T11:16:10Z</time>
      </trkpt>
      <trkpt lat="42.84172" lon="0.5696">
        <ele>1838.047</ele>
        <time>2021-03-21T11:16:12Z</time>
      </trkpt>
      <trkpt lat="42.84169" lon="0.56962">
        <ele>1838.377</ele>
        <time>2021-03-21T11:16:14Z</time>
      </trkpt>
      <trkpt lat="42.84167" lon="0.56962">
        <ele>1838.387</ele>
        <time>2021-03-21T11:16:16Z</time>
      </trkpt>
      <trkpt lat="42.84165" lon="0.56963">
        <ele>1838.791</ele>
        <time>2021-03-21T11:16:18Z</time>
      </trkpt>
      <trkpt lat="42.84162" lon="0.56963">
        <ele>1838.357</ele>
        <time>2021-03-21T11:16:20Z</time>
      </trkpt>
      <trkpt lat="42.8416" lon="0.56964">
        <ele>1837.925</ele>
        <time>2021-03-21T11:16:22Z</time>
      </trkpt>
      <trkpt lat="42.84157" lon="0.56965">
        <ele>1838.759</ele>
        <time>2021-03-21T11:16:24Z</time>
      </trkpt>
      <trkpt lat="42.84154" lon="0.56966">
        <ele>1838.257</ele>
        <time>2021-03-21T11:16:26Z</time>
      </trkpt>
      <trkpt lat="42.84152" lon="0.56967">
        <ele>1837.571</ele>
        <time>2021-03-21T11:16:28Z</time>
      </trkpt>
      <trkpt lat="42.8415" lon="0.56968">
        <ele>1837.343</ele>
        <time>2021-03-21T11:16:30Z</time>
      </trkpt>
      <trkpt lat="42.84148" lon="0.56968">
        <ele>1837.095</ele>
        <time>2021-03-21T11:16:32Z</time>
      </trkpt>
      <trkpt lat="42.84146" lon="0.56969">
        <ele>1836.591</ele>
        <time>2021-03-21T11:16:34Z</time>
      </trkpt>
      <trkpt lat="42.84144" lon="0.5697">
        <ele>1836.22</ele>
        <time>2021-03-21T11:16:36Z</time>
      </trkpt>
      <trkpt lat="42.84143" lon="0.5697">
        <ele>1836.426</ele>
        <time>2021-03-21T11:16:38Z</time>
      </trkpt>
      <trkpt lat="42.84144" lon="0.56971">
        <ele>1836.051</ele>
        <time>2021-03-21T11:16:40Z</time>
      </trkpt>
      <trkpt lat="42.84144" lon="0.5697">
        <ele>1835.514</ele>
        <time>2021-03-21T11:16:42Z</time>
      </trkpt>
      <trkpt lat="42.84144" lon="0.5697">
        <ele>1835.512</ele>
        <time>2021-03-21T11:16:44Z</time>
      </trkpt>
      <trkpt lat="42.84144" lon="0.5697">
        <ele>1835.507</ele>
        <time>2021-03-21T11:16:46Z</time>
      </trkpt>
      <trkpt lat="42.84144" lon="0.5697">
        <ele>1835.506</ele>
        <time>2021-03-21T11:16:48Z</time>
      </trkpt>
      <trkpt lat="42.84144" lon="0.5697">
        <ele>1835.506</ele>
        <time>2021-03-21T11:16:50Z</time>
      </trkpt>
      <trkpt lat="42.84145" lon="0.5697">
        <ele>1835.584</ele>
        <time>2021-03-21T11:16:52Z</time>
      </trkpt>
      <trkpt lat="42.84145" lon="0.5697">
        <ele>1835.577</ele>
        <time>2021-03-21T11:16:54Z</time>
      </trkpt>
      <trkpt lat="42.84145" lon="0.5697">
        <ele>1835.571</ele>
        <time>2021-03-21T11:16:56Z</time>
      </trkpt>
      <trkpt lat="42.84145" lon="0.5697">
        <ele>1835.567</ele>
        <time>2021-03-21T11:16:58Z</time>
      </trkpt>
      <trkpt lat="42.84145" lon="0.5697">
        <ele>1835.563</ele>
        <time>2021-03-21T11:17:00Z</time>
      </trkpt>
      <trkpt lat="42.84145" lon="0.5697">
        <ele>1835.559</ele>
        <time>2021-03-21T11:17:02Z</time>
      </trkpt>
      <trkpt lat="42.84145" lon="0.5697">
        <ele>1835.556</ele>
        <time>2021-03-21T11:17:04Z</time>
      </trkpt>
      <trkpt lat="42.84145" lon="0.5697">
        <ele>1835.551</ele>
        <time>2021-03-21T11:17:06Z</time>
      </trkpt>
      <trkpt lat="42.84145" lon="0.5697">
        <ele>1835.547</ele>
        <time>2021-03-21T11:17:08Z</time>
      </trkpt>
      <trkpt lat="42.84145" lon="0.5697">
        <ele>1835.544</ele>
        <time>2021-03-21T11:17:10Z</time>
      </trkpt>
      <trkpt lat="42.84145" lon="0.5697">
        <ele>1835.432</ele>
        <time>2021-03-21T11:17:12Z</time>
      </trkpt>
      <trkpt lat="42.84145" lon="0.56969">
        <ele>1835.418</ele>
        <time>2021-03-21T11:17:14Z</time>
      </trkpt>
      <trkpt lat="42.84145" lon="0.56969">
        <ele>1835.415</ele>
        <time>2021-03-21T11:17:16Z</time>
      </trkpt>
      <trkpt lat="42.84145" lon="0.56969">
        <ele>1835.414</ele>
        <time>2021-03-21T11:17:18Z</time>
      </trkpt>
      <trkpt lat="42.84145" lon="0.56969">
        <ele>1835.414</ele>
        <time>2021-03-21T11:17:20Z</time>
      </trkpt>
      <trkpt lat="42.84145" lon="0.56969">
        <ele>1835.416</ele>
        <time>2021-03-21T11:17:22Z</time>
      </trkpt>
      <trkpt lat="42.84145" lon="0.56969">
        <ele>1835.415</ele>
        <time>2021-03-21T11:17:24Z</time>
      </trkpt>
      <trkpt lat="42.84145" lon="0.56969">
        <ele>1835.417</ele>
        <time>2021-03-21T11:17:26Z</time>
      </trkpt>
      <trkpt lat="42.84145" lon="0.56969">
        <ele>1835.417</ele>
        <time>2021-03-21T11:17:28Z</time>
      </trkpt>
      <trkpt lat="42.84145" lon="0.56969">
        <ele>1835.416</ele>
        <time>2021-03-21T11:17:30Z</time>
      </trkpt>
      <trkpt lat="42.84145" lon="0.56969">
        <ele>1835.415</ele>
        <time>2021-03-21T11:17:32Z</time>
      </trkpt>
      <trkpt lat="42.84145" lon="0.56969">
        <ele>1835.414</ele>
        <time>2021-03-21T11:17:34Z</time>
      </trkpt>
      <trkpt lat="42.84145" lon="0.56969">
        <ele>1835.415</ele>
        <time>2021-03-21T11:17:36Z</time>
      </trkpt>
      <trkpt lat="42.84145" lon="0.56969">
        <ele>1835.416</ele>
        <time>2021-03-21T11:17:38Z</time>
      </trkpt>
      <trkpt lat="42.84145" lon="0.56969">
        <ele>1835.416</ele>
        <time>2021-03-21T11:17:40Z</time>
      </trkpt>
      <trkpt lat="42.84145" lon="0.56969">
        <ele>1835.725</ele>
        <time>2021-03-21T11:17:42Z</time>
      </trkpt>
      <trkpt lat="42.84145" lon="0.56968">
        <ele>1835.543</ele>
        <time>2021-03-21T11:17:44Z</time>
      </trkpt>
      <trkpt lat="42.84145" lon="0.56968">
        <ele>1835.728</ele>
        <time>2021-03-21T11:17:46Z</time>
      </trkpt>
      <trkpt lat="42.84145" lon="0.56968">
        <ele>1835.724</ele>
        <time>2021-03-21T11:17:48Z</time>
      </trkpt>
      <trkpt lat="42.84144" lon="0.56968">
        <ele>1836.096</ele>
        <time>2021-03-21T11:17:50Z</time>
      </trkpt>
      <trkpt lat="42.84143" lon="0.56967">
        <ele>1835.829</ele>
        <time>2021-03-21T11:17:52Z</time>
      </trkpt>
      <trkpt lat="42.84142" lon="0.56965">
        <ele>1835.623</ele>
        <time>2021-03-21T11:17:54Z</time>
      </trkpt>
      <trkpt lat="42.8414" lon="0.56964">
        <ele>1835.587</ele>
        <time>2021-03-21T11:17:56Z</time>
      </trkpt>
      <trkpt lat="42.84139" lon="0.56965">
        <ele>1835.327</ele>
        <time>2021-03-21T11:17:58Z</time>
      </trkpt>
      <trkpt lat="42.84137" lon="0.56965">
        <ele>1834.655</ele>
        <time>2021-03-21T11:18:00Z</time>
      </trkpt>
      <trkpt lat="42.84135" lon="0.56966">
        <ele>1834.589</ele>
        <time>2021-03-21T11:18:02Z</time>
      </trkpt>
      <trkpt lat="42.84133" lon="0.56967">
        <ele>1834.269</ele>
        <time>2021-03-21T11:18:04Z</time>
      </trkpt>
      <trkpt lat="42.84131" lon="0.56968">
        <ele>1834.051</ele>
        <time>2021-03-21T11:18:06Z</time>
      </trkpt>
      <trkpt lat="42.84129" lon="0.56969">
        <ele>1834.143</ele>
        <time>2021-03-21T11:18:08Z</time>
      </trkpt>
      <trkpt lat="42.84127" lon="0.56969">
        <ele>1834.141</ele>
        <time>2021-03-21T11:18:10Z</time>
      </trkpt>
      <trkpt lat="42.84125" lon="0.5697">
        <ele>1834.146</ele>
        <time>2021-03-21T11:18:12Z</time>
      </trkpt>
      <trkpt lat="42.84123" lon="0.56971">
        <ele>1833.355</ele>
        <time>2021-03-21T11:18:14Z</time>
      </trkpt>
      <trkpt lat="42.84121" lon="0.56971">
        <ele>1833.217</ele>
        <time>2021-03-21T11:18:16Z</time>
      </trkpt>
      <trkpt lat="42.84119" lon="0.56972">
        <ele>1833.07</ele>
        <time>2021-03-21T11:18:18Z</time>
      </trkpt>
      <trkpt lat="42.84117" lon="0.56973">
        <ele>1833.128</ele>
        <time>2021-03-21T11:18:20Z</time>
      </trkpt>
      <trkpt lat="42.84115" lon="0.56974">
        <ele>1833.272</ele>
        <time>2021-03-21T11:18:22Z</time>
      </trkpt>
      <trkpt lat="42.84113" lon="0.56975">
        <ele>1833.437</ele>
        <time>2021-03-21T11:18:24Z</time>
      </trkpt>
      <trkpt lat="42.84111" lon="0.56976">
        <ele>1833.551</ele>
        <time>2021-03-21T11:18:26Z</time>
      </trkpt>
      <trkpt lat="42.84109" lon="0.56977">
        <ele>1833.303</ele>
        <time>2021-03-21T11:18:28Z</time>
      </trkpt>
      <trkpt lat="42.84107" lon="0.56978">
        <ele>1833.779</ele>
        <time>2021-03-21T11:18:30Z</time>
      </trkpt>
      <trkpt lat="42.84105" lon="0.56979">
        <ele>1833.425</ele>
        <time>2021-03-21T11:18:32Z</time>
      </trkpt>
      <trkpt lat="42.84103" lon="0.5698">
        <ele>1833.499</ele>
        <time>2021-03-21T11:18:34Z</time>
      </trkpt>
      <trkpt lat="42.841" lon="0.56981">
        <ele>1833.692</ele>
        <time>2021-03-21T11:18:36Z</time>
      </trkpt>
      <trkpt lat="42.84098" lon="0.56982">
        <ele>1833.494</ele>
        <time>2021-03-21T11:18:38Z</time>
      </trkpt>
      <trkpt lat="42.84097" lon="0.56982">
        <ele>1833.643</ele>
        <time>2021-03-21T11:18:40Z</time>
      </trkpt>
      <trkpt lat="42.84095" lon="0.56983">
        <ele>1834.019</ele>
        <time>2021-03-21T11:18:42Z</time>
      </trkpt>
      <trkpt lat="42.84093" lon="0.56983">
        <ele>1834.186</ele>
        <time>2021-03-21T11:18:44Z</time>
      </trkpt>
      <trkpt lat="42.84091" lon="0.56984">
        <ele>1834.301</ele>
        <time>2021-03-21T11:18:46Z</time>
      </trkpt>
      <trkpt lat="42.84089" lon="0.56984">
        <ele>1834.535</ele>
        <time>2021-03-21T11:18:48Z</time>
      </trkpt>
      <trkpt lat="42.84088" lon="0.56984">
        <ele>1834.591</ele>
        <time>2021-03-21T11:18:50Z</time>
      </trkpt>
      <trkpt lat="42.84086" lon="0.56984">
        <ele>1835.045</ele>
        <time>2021-03-21T11:18:52Z</time>
      </trkpt>
      <trkpt lat="42.84084" lon="0.56984">
        <ele>1835.297</ele>
        <time>2021-03-21T11:18:54Z</time>
      </trkpt>
      <trkpt lat="42.84082" lon="0.56984">
        <ele>1835.671</ele>
        <time>2021-03-21T11:18:56Z</time>
      </trkpt>
      <trkpt lat="42.8408" lon="0.56985">
        <ele>1835.91</ele>
        <time>2021-03-21T11:18:58Z</time>
      </trkpt>
      <trkpt lat="42.84079" lon="0.56984">
        <ele>1836.028</ele>
        <time>2021-03-21T11:19:00Z</time>
      </trkpt>
      <trkpt lat="42.84077" lon="0.56984">
        <ele>1836.166</ele>
        <time>2021-03-21T11:19:02Z</time>
      </trkpt>
      <trkpt lat="42.84075" lon="0.56984">
        <ele>1836.341</ele>
        <time>2021-03-21T11:19:04Z</time>
      </trkpt>
      <trkpt lat="42.84073" lon="0.56984">
        <ele>1836.557</ele>
        <time>2021-03-21T11:19:06Z</time>
      </trkpt>
      <trkpt lat="42.84072" lon="0.56984">
        <ele>1836.619</ele>
        <time>2021-03-21T11:19:08Z</time>
      </trkpt>
      <trkpt lat="42.8407" lon="0.56983">
        <ele>1836.424</ele>
        <time>2021-03-21T11:19:10Z</time>
      </trkpt>
      <trkpt lat="42.84068" lon="0.56983">
        <ele>1836.592</ele>
        <time>2021-03-21T11:19:12Z</time>
      </trkpt>
      <trkpt lat="42.84067" lon="0.56983">
        <ele>1836.473</ele>
        <time>2021-03-21T11:19:14Z</time>
      </trkpt>
      <trkpt lat="42.84065" lon="0.56983">
        <ele>1836.748</ele>
        <time>2021-03-21T11:19:16Z</time>
      </trkpt>
      <trkpt lat="42.84063" lon="0.56983">
        <ele>1836.9</ele>
        <time>2021-03-21T11:19:18Z</time>
      </trkpt>
      <trkpt lat="42.84061" lon="0.56983">
        <ele>1837.548</ele>
        <time>2021-03-21T11:19:20Z</time>
      </trkpt>
      <trkpt lat="42.8406" lon="0.56983">
        <ele>1837.493</ele>
        <time>2021-03-21T11:19:22Z</time>
      </trkpt>
      <trkpt lat="42.84058" lon="0.56983">
        <ele>1837.914</ele>
        <time>2021-03-21T11:19:24Z</time>
      </trkpt>
      <trkpt lat="42.84056" lon="0.56983">
        <ele>1838.28</ele>
        <time>2021-03-21T11:19:26Z</time>
      </trkpt>
      <trkpt lat="42.84055" lon="0.56984">
        <ele>1838.615</ele>
        <time>2021-03-21T11:19:28Z</time>
      </trkpt>
      <trkpt lat="42.84053" lon="0.56983">
        <ele>1838.581</ele>
        <time>2021-03-21T11:19:30Z</time>
      </trkpt>
      <trkpt lat="42.84052" lon="0.56983">
        <ele>1838.806</ele>
        <time>2021-03-21T11:19:32Z</time>
      </trkpt>
      <trkpt lat="42.84051" lon="0.56983">
        <ele>1839.36</ele>
        <time>2021-03-21T11:19:34Z</time>
      </trkpt>
      <trkpt lat="42.84049" lon="0.56983">
        <ele>1839.363</ele>
        <time>2021-03-21T11:19:36Z</time>
      </trkpt>
      <trkpt lat="42.84047" lon="0.56983">
        <ele>1839.442</ele>
        <time>2021-03-21T11:19:38Z</time>
      </trkpt>
      <trkpt lat="42.84046" lon="0.56983">
        <ele>1839.433</ele>
        <time>2021-03-21T11:19:40Z</time>
      </trkpt>
      <trkpt lat="42.84044" lon="0.56983">
        <ele>1840.001</ele>
        <time>2021-03-21T11:19:42Z</time>
      </trkpt>
      <trkpt lat="42.84043" lon="0.56983">
        <ele>1840.418</ele>
        <time>2021-03-21T11:19:44Z</time>
      </trkpt>
      <trkpt lat="42.84041" lon="0.56983">
        <ele>1840.603</ele>
        <time>2021-03-21T11:19:46Z</time>
      </trkpt>
      <trkpt lat="42.8404" lon="0.56983">
        <ele>1840.77</ele>
        <time>2021-03-21T11:19:48Z</time>
      </trkpt>
      <trkpt lat="42.84038" lon="0.56984">
        <ele>1840.91</ele>
        <time>2021-03-21T11:19:50Z</time>
      </trkpt>
      <trkpt lat="42.84037" lon="0.56983">
        <ele>1841.32</ele>
        <time>2021-03-21T11:19:52Z</time>
      </trkpt>
      <trkpt lat="42.84036" lon="0.56983">
        <ele>1842.141</ele>
        <time>2021-03-21T11:19:54Z</time>
      </trkpt>
      <trkpt lat="42.84034" lon="0.56983">
        <ele>1842.483</ele>
        <time>2021-03-21T11:19:56Z</time>
      </trkpt>
      <trkpt lat="42.84033" lon="0.56983">
        <ele>1842.586</ele>
        <time>2021-03-21T11:19:58Z</time>
      </trkpt>
      <trkpt lat="42.84031" lon="0.56983">
        <ele>1842.96</ele>
        <time>2021-03-21T11:20:00Z</time>
      </trkpt>
      <trkpt lat="42.8403" lon="0.56983">
        <ele>1842.945</ele>
        <time>2021-03-21T11:20:02Z</time>
      </trkpt>
      <trkpt lat="42.84029" lon="0.56983">
        <ele>1842.991</ele>
        <time>2021-03-21T11:20:04Z</time>
      </trkpt>
      <trkpt lat="42.84027" lon="0.56983">
        <ele>1843.227</ele>
        <time>2021-03-21T11:20:06Z</time>
      </trkpt>
      <trkpt lat="42.84026" lon="0.56983">
        <ele>1843.521</ele>
        <time>2021-03-21T11:20:08Z</time>
      </trkpt>
      <trkpt lat="42.84025" lon="0.56982">
        <ele>1844.294</ele>
        <time>2021-03-21T11:20:10Z</time>
      </trkpt>
      <trkpt lat="42.84025" lon="0.56982">
        <ele>1844.207</ele>
        <time>2021-03-21T11:20:12Z</time>
      </trkpt>
      <trkpt lat="42.84025" lon="0.56982">
        <ele>1844.208</ele>
        <time>2021-03-21T11:20:14Z</time>
      </trkpt>
      <trkpt lat="42.84024" lon="0.56982">
        <ele>1844.517</ele>
        <time>2021-03-21T11:20:16Z</time>
      </trkpt>
      <trkpt lat="42.84024" lon="0.56982">
        <ele>1844.217</ele>
        <time>2021-03-21T11:20:18Z</time>
      </trkpt>
      <trkpt lat="42.84024" lon="0.56983">
        <ele>1844.193</ele>
        <time>2021-03-21T11:20:20Z</time>
      </trkpt>
      <trkpt lat="42.84024" lon="0.56983">
        <ele>1844.103</ele>
        <time>2021-03-21T11:20:22Z</time>
      </trkpt>
      <trkpt lat="42.84024" lon="0.56983">
        <ele>1843.816</ele>
        <time>2021-03-21T11:20:24Z</time>
      </trkpt>
      <trkpt lat="42.84024" lon="0.56982">
        <ele>1843.81</ele>
        <time>2021-03-21T11:20:26Z</time>
      </trkpt>
      <trkpt lat="42.84024" lon="0.56982">
        <ele>1843.808</ele>
        <time>2021-03-21T11:20:28Z</time>
      </trkpt>
      <trkpt lat="42.84024" lon="0.56982">
        <ele>1843.807</ele>
        <time>2021-03-21T11:20:30Z</time>
      </trkpt>
      <trkpt lat="42.84024" lon="0.56982">
        <ele>1843.802</ele>
        <time>2021-03-21T11:20:32Z</time>
      </trkpt>
      <trkpt lat="42.84024" lon="0.56982">
        <ele>1843.8</ele>
        <time>2021-03-21T11:20:34Z</time>
      </trkpt>
      <trkpt lat="42.84024" lon="0.56983">
        <ele>1843.798</ele>
        <time>2021-03-21T11:20:36Z</time>
      </trkpt>
      <trkpt lat="42.84024" lon="0.56982">
        <ele>1843.944</ele>
        <time>2021-03-21T11:20:38Z</time>
      </trkpt>
      <trkpt lat="42.84023" lon="0.56982">
        <ele>1844.019</ele>
        <time>2021-03-21T11:20:40Z</time>
      </trkpt>
      <trkpt lat="42.84021" lon="0.56982">
        <ele>1843.886</ele>
        <time>2021-03-21T11:20:42Z</time>
      </trkpt>
      <trkpt lat="42.8402" lon="0.56982">
        <ele>1844.078</ele>
        <time>2021-03-21T11:20:44Z</time>
      </trkpt>
      <trkpt lat="42.84018" lon="0.56982">
        <ele>1843.799</ele>
        <time>2021-03-21T11:20:46Z</time>
      </trkpt>
      <trkpt lat="42.84015" lon="0.56982">
        <ele>1844.014</ele>
        <time>2021-03-21T11:20:49Z</time>
      </trkpt>
      <trkpt lat="42.84014" lon="0.56982">
        <ele>1844.023</ele>
        <time>2021-03-21T11:20:51Z</time>
      </trkpt>
      <trkpt lat="42.84012" lon="0.56982">
        <ele>1843.973</ele>
        <time>2021-03-21T11:20:53Z</time>
      </trkpt>
      <trkpt lat="42.8401" lon="0.56981">
        <ele>1844.121</ele>
        <time>2021-03-21T11:20:55Z</time>
      </trkpt>
      <trkpt lat="42.84009" lon="0.56981">
        <ele>1844.016</ele>
        <time>2021-03-21T11:20:57Z</time>
      </trkpt>
      <trkpt lat="42.84007" lon="0.56981">
        <ele>1843.862</ele>
        <time>2021-03-21T11:20:59Z</time>
      </trkpt>
      <trkpt lat="42.84006" lon="0.56981">
        <ele>1844.092</ele>
        <time>2021-03-21T11:21:01Z</time>
      </trkpt>
      <trkpt lat="42.84004" lon="0.5698">
        <ele>1844.091</ele>
        <time>2021-03-21T11:21:03Z</time>
      </trkpt>
      <trkpt lat="42.84002" lon="0.56979">
        <ele>1844.049</ele>
        <time>2021-03-21T11:21:05Z</time>
      </trkpt>
      <trkpt lat="42.84001" lon="0.56979">
        <ele>1844</ele>
        <time>2021-03-21T11:21:07Z</time>
      </trkpt>
      <trkpt lat="42.83999" lon="0.56978">
        <ele>1844.257</ele>
        <time>2021-03-21T11:21:09Z</time>
      </trkpt>
      <trkpt lat="42.83997" lon="0.56978">
        <ele>1843.899</ele>
        <time>2021-03-21T11:21:11Z</time>
      </trkpt>
      <trkpt lat="42.83995" lon="0.56978">
        <ele>1844.094</ele>
        <time>2021-03-21T11:21:13Z</time>
      </trkpt>
      <trkpt lat="42.83993" lon="0.56978">
        <ele>1843.913</ele>
        <time>2021-03-21T11:21:15Z</time>
      </trkpt>
      <trkpt lat="42.83992" lon="0.56977">
        <ele>1843.966</ele>
        <time>2021-03-21T11:21:17Z</time>
      </trkpt>
      <trkpt lat="42.8399" lon="0.56977">
        <ele>1844</ele>
        <time>2021-03-21T11:21:19Z</time>
      </trkpt>
      <trkpt lat="42.83988" lon="0.56977">
        <ele>1843.728</ele>
        <time>2021-03-21T11:21:21Z</time>
      </trkpt>
      <trkpt lat="42.83986" lon="0.56977">
        <ele>1843.655</ele>
        <time>2021-03-21T11:21:23Z</time>
      </trkpt>
      <trkpt lat="42.83984" lon="0.56977">
        <ele>1843.769</ele>
        <time>2021-03-21T11:21:25Z</time>
      </trkpt>
      <trkpt lat="42.83982" lon="0.56977">
        <ele>1844.056</ele>
        <time>2021-03-21T11:21:27Z</time>
      </trkpt>
      <trkpt lat="42.8398" lon="0.56977">
        <ele>1844.848</ele>
        <time>2021-03-21T11:21:29Z</time>
      </trkpt>
      <trkpt lat="42.83977" lon="0.56976">
        <ele>1845.196</ele>
        <time>2021-03-21T11:21:31Z</time>
      </trkpt>
      <trkpt lat="42.83975" lon="0.56976">
        <ele>1845.382</ele>
        <time>2021-03-21T11:21:33Z</time>
      </trkpt>
      <trkpt lat="42.83973" lon="0.56976">
        <ele>1845.829</ele>
        <time>2021-03-21T11:21:35Z</time>
      </trkpt>
      <trkpt lat="42.83972" lon="0.56976">
        <ele>1845.935</ele>
        <time>2021-03-21T11:21:37Z</time>
      </trkpt>
      <trkpt lat="42.83971" lon="0.56976">
        <ele>1845.848</ele>
        <time>2021-03-21T11:21:39Z</time>
      </trkpt>
      <trkpt lat="42.83969" lon="0.56976">
        <ele>1845.707</ele>
        <time>2021-03-21T11:21:41Z</time>
      </trkpt>
      <trkpt lat="42.83968" lon="0.56977">
        <ele>1845.594</ele>
        <time>2021-03-21T11:21:43Z</time>
      </trkpt>
      <trkpt lat="42.83966" lon="0.56977">
        <ele>1845.27</ele>
        <time>2021-03-21T11:21:45Z</time>
      </trkpt>
      <trkpt lat="42.83965" lon="0.56978">
        <ele>1844.489</ele>
        <time>2021-03-21T11:21:47Z</time>
      </trkpt>
      <trkpt lat="42.83964" lon="0.56978">
        <ele>1844.559</ele>
        <time>2021-03-21T11:21:49Z</time>
      </trkpt>
      <trkpt lat="42.83962" lon="0.56978">
        <ele>1844.346</ele>
        <time>2021-03-21T11:21:51Z</time>
      </trkpt>
      <trkpt lat="42.83961" lon="0.56978">
        <ele>1844.144</ele>
        <time>2021-03-21T11:21:53Z</time>
      </trkpt>
      <trkpt lat="42.8396" lon="0.56978">
        <ele>1844.002</ele>
        <time>2021-03-21T11:21:54Z</time>
      </trkpt>
      <trkpt lat="42.83959" lon="0.56979">
        <ele>1844.312</ele>
        <time>2021-03-21T11:21:56Z</time>
      </trkpt>
      <trkpt lat="42.83957" lon="0.56979">
        <ele>1844.365</ele>
        <time>2021-03-21T11:21:59Z</time>
      </trkpt>
      <trkpt lat="42.83956" lon="0.56979">
        <ele>1844.584</ele>
        <time>2021-03-21T11:22:01Z</time>
      </trkpt>
      <trkpt lat="42.83955" lon="0.5698">
        <ele>1844.903</ele>
        <time>2021-03-21T11:22:03Z</time>
      </trkpt>
      <trkpt lat="42.83954" lon="0.5698">
        <ele>1845.277</ele>
        <time>2021-03-21T11:22:05Z</time>
      </trkpt>
      <trkpt lat="42.83953" lon="0.5698">
        <ele>1845.624</ele>
        <time>2021-03-21T11:22:07Z</time>
      </trkpt>
      <trkpt lat="42.83951" lon="0.5698">
        <ele>1846.249</ele>
        <time>2021-03-21T11:22:09Z</time>
      </trkpt>
      <trkpt lat="42.8395" lon="0.56981">
        <ele>1846.38</ele>
        <time>2021-03-21T11:22:11Z</time>
      </trkpt>
      <trkpt lat="42.83948" lon="0.56981">
        <ele>1846.731</ele>
        <time>2021-03-21T11:22:13Z</time>
      </trkpt>
      <trkpt lat="42.83947" lon="0.56981">
        <ele>1847.257</ele>
        <time>2021-03-21T11:22:15Z</time>
      </trkpt>
      <trkpt lat="42.83945" lon="0.56981">
        <ele>1847.453</ele>
        <time>2021-03-21T11:22:17Z</time>
      </trkpt>
      <trkpt lat="42.83944" lon="0.56981">
        <ele>1847.909</ele>
        <time>2021-03-21T11:22:19Z</time>
      </trkpt>
      <trkpt lat="42.83942" lon="0.56981">
        <ele>1848.353</ele>
        <time>2021-03-21T11:22:21Z</time>
      </trkpt>
      <trkpt lat="42.8394" lon="0.56981">
        <ele>1848.462</ele>
        <time>2021-03-21T11:22:23Z</time>
      </trkpt>
      <trkpt lat="42.83939" lon="0.56981">
        <ele>1848.513</ele>
        <time>2021-03-21T11:22:25Z</time>
      </trkpt>
      <trkpt lat="42.83937" lon="0.5698">
        <ele>1848.706</ele>
        <time>2021-03-21T11:22:27Z</time>
      </trkpt>
      <trkpt lat="42.83936" lon="0.56979">
        <ele>1848.785</ele>
        <time>2021-03-21T11:22:29Z</time>
      </trkpt>
      <trkpt lat="42.83934" lon="0.56978">
        <ele>1848.585</ele>
        <time>2021-03-21T11:22:31Z</time>
      </trkpt>
      <trkpt lat="42.83933" lon="0.56976">
        <ele>1848.498</ele>
        <time>2021-03-21T11:22:33Z</time>
      </trkpt>
      <trkpt lat="42.83932" lon="0.56975">
        <ele>1848.487</ele>
        <time>2021-03-21T11:22:35Z</time>
      </trkpt>
      <trkpt lat="42.8393" lon="0.56974">
        <ele>1848.7</ele>
        <time>2021-03-21T11:22:37Z</time>
      </trkpt>
      <trkpt lat="42.83929" lon="0.56973">
        <ele>1848.711</ele>
        <time>2021-03-21T11:22:39Z</time>
      </trkpt>
      <trkpt lat="42.83928" lon="0.56973">
        <ele>1848.543</ele>
        <time>2021-03-21T11:22:41Z</time>
      </trkpt>
      <trkpt lat="42.83927" lon="0.56972">
        <ele>1849.215</ele>
        <time>2021-03-21T11:22:43Z</time>
      </trkpt>
      <trkpt lat="42.83925" lon="0.56972">
        <ele>1849.477</ele>
        <time>2021-03-21T11:22:45Z</time>
      </trkpt>
      <trkpt lat="42.83924" lon="0.56971">
        <ele>1849.348</ele>
        <time>2021-03-21T11:22:47Z</time>
      </trkpt>
      <trkpt lat="42.83922" lon="0.5697">
        <ele>1849.709</ele>
        <time>2021-03-21T11:22:49Z</time>
      </trkpt>
      <trkpt lat="42.8392" lon="0.56969">
        <ele>1849.803</ele>
        <time>2021-03-21T11:22:51Z</time>
      </trkpt>
      <trkpt lat="42.83918" lon="0.56968">
        <ele>1849.648</ele>
        <time>2021-03-21T11:22:53Z</time>
      </trkpt>
      <trkpt lat="42.83917" lon="0.56967">
        <ele>1849.7</ele>
        <time>2021-03-21T11:22:55Z</time>
      </trkpt>
      <trkpt lat="42.83915" lon="0.56966">
        <ele>1849.705</ele>
        <time>2021-03-21T11:22:57Z</time>
      </trkpt>
      <trkpt lat="42.83913" lon="0.56965">
        <ele>1849.892</ele>
        <time>2021-03-21T11:22:59Z</time>
      </trkpt>
      <trkpt lat="42.83912" lon="0.56964">
        <ele>1849.798</ele>
        <time>2021-03-21T11:23:01Z</time>
      </trkpt>
      <trkpt lat="42.8391" lon="0.56964">
        <ele>1849.73</ele>
        <time>2021-03-21T11:23:03Z</time>
      </trkpt>
      <trkpt lat="42.83909" lon="0.56963">
        <ele>1849.76</ele>
        <time>2021-03-21T11:23:05Z</time>
      </trkpt>
      <trkpt lat="42.83908" lon="0.56962">
        <ele>1850.129</ele>
        <time>2021-03-21T11:23:07Z</time>
      </trkpt>
      <trkpt lat="42.83906" lon="0.56961">
        <ele>1850.005</ele>
        <time>2021-03-21T11:23:09Z</time>
      </trkpt>
      <trkpt lat="42.83904" lon="0.5696">
        <ele>1849.925</ele>
        <time>2021-03-21T11:23:11Z</time>
      </trkpt>
      <trkpt lat="42.83903" lon="0.56958">
        <ele>1850.134</ele>
        <time>2021-03-21T11:23:13Z</time>
      </trkpt>
      <trkpt lat="42.83901" lon="0.56957">
        <ele>1850.018</ele>
        <time>2021-03-21T11:23:15Z</time>
      </trkpt>
      <trkpt lat="42.83899" lon="0.56956">
        <ele>1850.18</ele>
        <time>2021-03-21T11:23:17Z</time>
      </trkpt>
      <trkpt lat="42.83898" lon="0.56955">
        <ele>1849.997</ele>
        <time>2021-03-21T11:23:19Z</time>
      </trkpt>
      <trkpt lat="42.83897" lon="0.56954">
        <ele>1849.917</ele>
        <time>2021-03-21T11:23:21Z</time>
      </trkpt>
      <trkpt lat="42.83895" lon="0.56953">
        <ele>1849.743</ele>
        <time>2021-03-21T11:23:23Z</time>
      </trkpt>
      <trkpt lat="42.83894" lon="0.56952">
        <ele>1849.619</ele>
        <time>2021-03-21T11:23:25Z</time>
      </trkpt>
      <trkpt lat="42.83892" lon="0.5695">
        <ele>1849.788</ele>
        <time>2021-03-21T11:23:27Z</time>
      </trkpt>
      <trkpt lat="42.83891" lon="0.56949">
        <ele>1850.284</ele>
        <time>2021-03-21T11:23:29Z</time>
      </trkpt>
      <trkpt lat="42.8389" lon="0.56948">
        <ele>1850.688</ele>
        <time>2021-03-21T11:23:31Z</time>
      </trkpt>
      <trkpt lat="42.83888" lon="0.56947">
        <ele>1850.523</ele>
        <time>2021-03-21T11:23:33Z</time>
      </trkpt>
      <trkpt lat="42.83887" lon="0.56945">
        <ele>1850.842</ele>
        <time>2021-03-21T11:23:35Z</time>
      </trkpt>
      <trkpt lat="42.83885" lon="0.56945">
        <ele>1850.905</ele>
        <time>2021-03-21T11:23:37Z</time>
      </trkpt>
      <trkpt lat="42.83884" lon="0.56944">
        <ele>1851.116</ele>
        <time>2021-03-21T11:23:39Z</time>
      </trkpt>
      <trkpt lat="42.83882" lon="0.56943">
        <ele>1851.387</ele>
        <time>2021-03-21T11:23:41Z</time>
      </trkpt>
      <trkpt lat="42.83881" lon="0.56942">
        <ele>1851.18</ele>
        <time>2021-03-21T11:23:43Z</time>
      </trkpt>
      <trkpt lat="42.83879" lon="0.56941">
        <ele>1851.205</ele>
        <time>2021-03-21T11:23:45Z</time>
      </trkpt>
      <trkpt lat="42.83878" lon="0.56941">
        <ele>1851.022</ele>
        <time>2021-03-21T11:23:47Z</time>
      </trkpt>
      <trkpt lat="42.83876" lon="0.5694">
        <ele>1850.906</ele>
        <time>2021-03-21T11:23:49Z</time>
      </trkpt>
      <trkpt lat="42.83875" lon="0.56939">
        <ele>1850.752</ele>
        <time>2021-03-21T11:23:51Z</time>
      </trkpt>
      <trkpt lat="42.83874" lon="0.56939">
        <ele>1851.013</ele>
        <time>2021-03-21T11:23:53Z</time>
      </trkpt>
      <trkpt lat="42.83872" lon="0.56938">
        <ele>1851.274</ele>
        <time>2021-03-21T11:23:55Z</time>
      </trkpt>
      <trkpt lat="42.83871" lon="0.56938">
        <ele>1851.15</ele>
        <time>2021-03-21T11:23:57Z</time>
      </trkpt>
      <trkpt lat="42.83869" lon="0.56937">
        <ele>1851.108</ele>
        <time>2021-03-21T11:23:59Z</time>
      </trkpt>
      <trkpt lat="42.83867" lon="0.56937">
        <ele>1850.812</ele>
        <time>2021-03-21T11:24:01Z</time>
      </trkpt>
      <trkpt lat="42.83866" lon="0.56938">
        <ele>1850.691</ele>
        <time>2021-03-21T11:24:03Z</time>
      </trkpt>
      <trkpt lat="42.83864" lon="0.56939">
        <ele>1850.214</ele>
        <time>2021-03-21T11:24:05Z</time>
      </trkpt>
      <trkpt lat="42.83863" lon="0.56939">
        <ele>1850.121</ele>
        <time>2021-03-21T11:24:07Z</time>
      </trkpt>
      <trkpt lat="42.83861" lon="0.56939">
        <ele>1850.055</ele>
        <time>2021-03-21T11:24:09Z</time>
      </trkpt>
      <trkpt lat="42.8386" lon="0.5694">
        <ele>1849.578</ele>
        <time>2021-03-21T11:24:11Z</time>
      </trkpt>
      <trkpt lat="42.83858" lon="0.56941">
        <ele>1849.591</ele>
        <time>2021-03-21T11:24:13Z</time>
      </trkpt>
      <trkpt lat="42.83856" lon="0.56942">
        <ele>1849.065</ele>
        <time>2021-03-21T11:24:15Z</time>
      </trkpt>
      <trkpt lat="42.83854" lon="0.56943">
        <ele>1849.321</ele>
        <time>2021-03-21T11:24:17Z</time>
      </trkpt>
      <trkpt lat="42.83852" lon="0.56944">
        <ele>1851.027</ele>
        <time>2021-03-21T11:24:19Z</time>
      </trkpt>
      <trkpt lat="42.8385" lon="0.56943">
        <ele>1852.98</ele>
        <time>2021-03-21T11:24:21Z</time>
      </trkpt>
      <trkpt lat="42.8385" lon="0.56943">
        <ele>1852.439</ele>
        <time>2021-03-21T11:24:23Z</time>
      </trkpt>
      <trkpt lat="42.83849" lon="0.56944">
        <ele>1852.5</ele>
        <time>2021-03-21T11:24:25Z</time>
      </trkpt>
      <trkpt lat="42.83848" lon="0.56945">
        <ele>1851.62</ele>
        <time>2021-03-21T11:24:27Z</time>
      </trkpt>
      <trkpt lat="42.83848" lon="0.56947">
        <ele>1850.496</ele>
        <time>2021-03-21T11:24:29Z</time>
      </trkpt>
      <trkpt lat="42.83847" lon="0.5695">
        <ele>1850.048</ele>
        <time>2021-03-21T11:24:31Z</time>
      </trkpt>
      <trkpt lat="42.83845" lon="0.56952">
        <ele>1849.371</ele>
        <time>2021-03-21T11:24:33Z</time>
      </trkpt>
      <trkpt lat="42.83844" lon="0.56954">
        <ele>1848.688</ele>
        <time>2021-03-21T11:24:35Z</time>
      </trkpt>
      <trkpt lat="42.83843" lon="0.56956">
        <ele>1847.979</ele>
        <time>2021-03-21T11:24:37Z</time>
      </trkpt>
      <trkpt lat="42.83841" lon="0.56958">
        <ele>1847.835</ele>
        <time>2021-03-21T11:24:39Z</time>
      </trkpt>
      <trkpt lat="42.8384" lon="0.5696">
        <ele>1847.403</ele>
        <time>2021-03-21T11:24:41Z</time>
      </trkpt>
      <trkpt lat="42.83839" lon="0.5696">
        <ele>1846.785</ele>
        <time>2021-03-21T11:24:43Z</time>
      </trkpt>
      <trkpt lat="42.83838" lon="0.56962">
        <ele>1846.239</ele>
        <time>2021-03-21T11:24:45Z</time>
      </trkpt>
      <trkpt lat="42.83836" lon="0.56963">
        <ele>1846.012</ele>
        <time>2021-03-21T11:24:47Z</time>
      </trkpt>
      <trkpt lat="42.83835" lon="0.56965">
        <ele>1845.555</ele>
        <time>2021-03-21T11:24:49Z</time>
      </trkpt>
      <trkpt lat="42.83834" lon="0.56966">
        <ele>1845.179</ele>
        <time>2021-03-21T11:24:51Z</time>
      </trkpt>
      <trkpt lat="42.83833" lon="0.56968">
        <ele>1844.524</ele>
        <time>2021-03-21T11:24:53Z</time>
      </trkpt>
      <trkpt lat="42.83832" lon="0.56969">
        <ele>1843.79</ele>
        <time>2021-03-21T11:24:55Z</time>
      </trkpt>
      <trkpt lat="42.8383" lon="0.56971">
        <ele>1843.167</ele>
        <time>2021-03-21T11:24:57Z</time>
      </trkpt>
      <trkpt lat="42.83829" lon="0.56971">
        <ele>1842.583</ele>
        <time>2021-03-21T11:24:59Z</time>
      </trkpt>
      <trkpt lat="42.83827" lon="0.56973">
        <ele>1842.246</ele>
        <time>2021-03-21T11:25:01Z</time>
      </trkpt>
      <trkpt lat="42.83826" lon="0.56974">
        <ele>1841.104</ele>
        <time>2021-03-21T11:25:03Z</time>
      </trkpt>
      <trkpt lat="42.83824" lon="0.56976">
        <ele>1840.229</ele>
        <time>2021-03-21T11:25:05Z</time>
      </trkpt>
      <trkpt lat="42.83823" lon="0.56978">
        <ele>1839.923</ele>
        <time>2021-03-21T11:25:07Z</time>
      </trkpt>
      <trkpt lat="42.83821" lon="0.56979">
        <ele>1839.346</ele>
        <time>2021-03-21T11:25:09Z</time>
      </trkpt>
      <trkpt lat="42.8382" lon="0.56981">
        <ele>1839.275</ele>
        <time>2021-03-21T11:25:11Z</time>
      </trkpt>
      <trkpt lat="42.83818" lon="0.56983">
        <ele>1838.626</ele>
        <time>2021-03-21T11:25:13Z</time>
      </trkpt>
      <trkpt lat="42.83817" lon="0.56985">
        <ele>1838.288</ele>
        <time>2021-03-21T11:25:15Z</time>
      </trkpt>
      <trkpt lat="42.83815" lon="0.56987">
        <ele>1837.735</ele>
        <time>2021-03-21T11:25:17Z</time>
      </trkpt>
      <trkpt lat="42.83814" lon="0.56989">
        <ele>1837.287</ele>
        <time>2021-03-21T11:25:19Z</time>
      </trkpt>
      <trkpt lat="42.83812" lon="0.56991">
        <ele>1836.785</ele>
        <time>2021-03-21T11:25:21Z</time>
      </trkpt>
      <trkpt lat="42.83811" lon="0.56992">
        <ele>1836.335</ele>
        <time>2021-03-21T11:25:23Z</time>
      </trkpt>
      <trkpt lat="42.83809" lon="0.56994">
        <ele>1835.953</ele>
        <time>2021-03-21T11:25:25Z</time>
      </trkpt>
      <trkpt lat="42.83808" lon="0.56996">
        <ele>1835.507</ele>
        <time>2021-03-21T11:25:27Z</time>
      </trkpt>
      <trkpt lat="42.83807" lon="0.56999">
        <ele>1835.057</ele>
        <time>2021-03-21T11:25:29Z</time>
      </trkpt>
      <trkpt lat="42.83805" lon="0.57001">
        <ele>1834.553</ele>
        <time>2021-03-21T11:25:31Z</time>
      </trkpt>
      <trkpt lat="42.83804" lon="0.57003">
        <ele>1834.254</ele>
        <time>2021-03-21T11:25:33Z</time>
      </trkpt>
      <trkpt lat="42.83803" lon="0.57005">
        <ele>1834.039</ele>
        <time>2021-03-21T11:25:35Z</time>
      </trkpt>
      <trkpt lat="42.83802" lon="0.57006">
        <ele>1833.402</ele>
        <time>2021-03-21T11:25:37Z</time>
      </trkpt>
      <trkpt lat="42.838" lon="0.57008">
        <ele>1833.039</ele>
        <time>2021-03-21T11:25:39Z</time>
      </trkpt>
      <trkpt lat="42.83798" lon="0.5701">
        <ele>1832.82</ele>
        <time>2021-03-21T11:25:41Z</time>
      </trkpt>
      <trkpt lat="42.83796" lon="0.57011">
        <ele>1832.685</ele>
        <time>2021-03-21T11:25:43Z</time>
      </trkpt>
      <trkpt lat="42.83794" lon="0.57011">
        <ele>1832.461</ele>
        <time>2021-03-21T11:25:45Z</time>
      </trkpt>
      <trkpt lat="42.83792" lon="0.57012">
        <ele>1831.957</ele>
        <time>2021-03-21T11:25:47Z</time>
      </trkpt>
      <trkpt lat="42.8379" lon="0.57013">
        <ele>1831.985</ele>
        <time>2021-03-21T11:25:49Z</time>
      </trkpt>
      <trkpt lat="42.83788" lon="0.57013">
        <ele>1831.781</ele>
        <time>2021-03-21T11:25:51Z</time>
      </trkpt>
      <trkpt lat="42.83786" lon="0.57013">
        <ele>1831.558</ele>
        <time>2021-03-21T11:25:53Z</time>
      </trkpt>
      <trkpt lat="42.83784" lon="0.57013">
        <ele>1831.163</ele>
        <time>2021-03-21T11:25:55Z</time>
      </trkpt>
      <trkpt lat="42.83782" lon="0.57013">
        <ele>1830.979</ele>
        <time>2021-03-21T11:25:57Z</time>
      </trkpt>
      <trkpt lat="42.8378" lon="0.57013">
        <ele>1830.906</ele>
        <time>2021-03-21T11:25:59Z</time>
      </trkpt>
      <trkpt lat="42.83778" lon="0.57013">
        <ele>1830.991</ele>
        <time>2021-03-21T11:26:01Z</time>
      </trkpt>
      <trkpt lat="42.83776" lon="0.57013">
        <ele>1831.095</ele>
        <time>2021-03-21T11:26:03Z</time>
      </trkpt>
      <trkpt lat="42.83774" lon="0.57014">
        <ele>1830.884</ele>
        <time>2021-03-21T11:26:05Z</time>
      </trkpt>
      <trkpt lat="42.83772" lon="0.57014">
        <ele>1830.691</ele>
        <time>2021-03-21T11:26:07Z</time>
      </trkpt>
      <trkpt lat="42.8377" lon="0.57015">
        <ele>1830.735</ele>
        <time>2021-03-21T11:26:09Z</time>
      </trkpt>
      <trkpt lat="42.83768" lon="0.57015">
        <ele>1830.555</ele>
        <time>2021-03-21T11:26:11Z</time>
      </trkpt>
      <trkpt lat="42.83766" lon="0.57016">
        <ele>1830.478</ele>
        <time>2021-03-21T11:26:13Z</time>
      </trkpt>
      <trkpt lat="42.83764" lon="0.57016">
        <ele>1830.276</ele>
        <time>2021-03-21T11:26:15Z</time>
      </trkpt>
      <trkpt lat="42.83762" lon="0.57017">
        <ele>1830.16</ele>
        <time>2021-03-21T11:26:17Z</time>
      </trkpt>
      <trkpt lat="42.8376" lon="0.57017">
        <ele>1830.142</ele>
        <time>2021-03-21T11:26:19Z</time>
      </trkpt>
      <trkpt lat="42.83758" lon="0.57018">
        <ele>1830.325</ele>
        <time>2021-03-21T11:26:21Z</time>
      </trkpt>
      <trkpt lat="42.83756" lon="0.57018">
        <ele>1830.516</ele>
        <time>2021-03-21T11:26:23Z</time>
      </trkpt>
      <trkpt lat="42.83754" lon="0.57019">
        <ele>1830.772</ele>
        <time>2021-03-21T11:26:25Z</time>
      </trkpt>
      <trkpt lat="42.83752" lon="0.57019">
        <ele>1830.842</ele>
        <time>2021-03-21T11:26:27Z</time>
      </trkpt>
      <trkpt lat="42.8375" lon="0.57019">
        <ele>1831.232</ele>
        <time>2021-03-21T11:26:29Z</time>
      </trkpt>
      <trkpt lat="42.83749" lon="0.57019">
        <ele>1831.787</ele>
        <time>2021-03-21T11:26:31Z</time>
      </trkpt>
      <trkpt lat="42.83747" lon="0.5702">
        <ele>1832.219</ele>
        <time>2021-03-21T11:26:33Z</time>
      </trkpt>
      <trkpt lat="42.83745" lon="0.5702">
        <ele>1832.537</ele>
        <time>2021-03-21T11:26:35Z</time>
      </trkpt>
      <trkpt lat="42.83743" lon="0.57021">
        <ele>1832.714</ele>
        <time>2021-03-21T11:26:37Z</time>
      </trkpt>
      <trkpt lat="42.83742" lon="0.57022">
        <ele>1832.333</ele>
        <time>2021-03-21T11:26:39Z</time>
      </trkpt>
      <trkpt lat="42.8374" lon="0.57023">
        <ele>1832.411</ele>
        <time>2021-03-21T11:26:41Z</time>
      </trkpt>
      <trkpt lat="42.83738" lon="0.57023">
        <ele>1832.012</ele>
        <time>2021-03-21T11:26:43Z</time>
      </trkpt>
      <trkpt lat="42.83737" lon="0.57024">
        <ele>1831.895</ele>
        <time>2021-03-21T11:26:45Z</time>
      </trkpt>
      <trkpt lat="42.83735" lon="0.57025">
        <ele>1831.589</ele>
        <time>2021-03-21T11:26:47Z</time>
      </trkpt>
      <trkpt lat="42.83733" lon="0.57027">
        <ele>1831.253</ele>
        <time>2021-03-21T11:26:49Z</time>
      </trkpt>
      <trkpt lat="42.83731" lon="0.57028">
        <ele>1831.075</ele>
        <time>2021-03-21T11:26:51Z</time>
      </trkpt>
      <trkpt lat="42.83729" lon="0.57029">
        <ele>1830.772</ele>
        <time>2021-03-21T11:26:53Z</time>
      </trkpt>
      <trkpt lat="42.83728" lon="0.5703">
        <ele>1830.7</ele>
        <time>2021-03-21T11:26:55Z</time>
      </trkpt>
      <trkpt lat="42.83726" lon="0.57031">
        <ele>1830.815</ele>
        <time>2021-03-21T11:26:57Z</time>
      </trkpt>
      <trkpt lat="42.83724" lon="0.57031">
        <ele>1831.021</ele>
        <time>2021-03-21T11:26:59Z</time>
      </trkpt>
      <trkpt lat="42.83722" lon="0.57032">
        <ele>1830.704</ele>
        <time>2021-03-21T11:27:01Z</time>
      </trkpt>
      <trkpt lat="42.8372" lon="0.57033">
        <ele>1830.564</ele>
        <time>2021-03-21T11:27:03Z</time>
      </trkpt>
      <trkpt lat="42.83718" lon="0.57034">
        <ele>1830.495</ele>
        <time>2021-03-21T11:27:05Z</time>
      </trkpt>
      <trkpt lat="42.83716" lon="0.57036">
        <ele>1830.298</ele>
        <time>2021-03-21T11:27:07Z</time>
      </trkpt>
      <trkpt lat="42.83714" lon="0.57037">
        <ele>1830.111</ele>
        <time>2021-03-21T11:27:09Z</time>
      </trkpt>
      <trkpt lat="42.83712" lon="0.57038">
        <ele>1829.781</ele>
        <time>2021-03-21T11:27:11Z</time>
      </trkpt>
      <trkpt lat="42.8371" lon="0.57039">
        <ele>1829.864</ele>
        <time>2021-03-21T11:27:13Z</time>
      </trkpt>
      <trkpt lat="42.83708" lon="0.5704">
        <ele>1829.852</ele>
        <time>2021-03-21T11:27:15Z</time>
      </trkpt>
      <trkpt lat="42.83706" lon="0.57041">
        <ele>1829.724</ele>
        <time>2021-03-21T11:27:17Z</time>
      </trkpt>
      <trkpt lat="42.83705" lon="0.57042">
        <ele>1829.471</ele>
        <time>2021-03-21T11:27:19Z</time>
      </trkpt>
      <trkpt lat="42.83703" lon="0.57043">
        <ele>1829.573</ele>
        <time>2021-03-21T11:27:21Z</time>
      </trkpt>
      <trkpt lat="42.83701" lon="0.57043">
        <ele>1829.647</ele>
        <time>2021-03-21T11:27:23Z</time>
      </trkpt>
      <trkpt lat="42.83699" lon="0.57043">
        <ele>1829.943</ele>
        <time>2021-03-21T11:27:25Z</time>
      </trkpt>
      <trkpt lat="42.83697" lon="0.57044">
        <ele>1830.048</ele>
        <time>2021-03-21T11:27:27Z</time>
      </trkpt>
      <trkpt lat="42.83695" lon="0.57045">
        <ele>1830.29</ele>
        <time>2021-03-21T11:27:29Z</time>
      </trkpt>
      <trkpt lat="42.83694" lon="0.57045">
        <ele>1830.563</ele>
        <time>2021-03-21T11:27:31Z</time>
      </trkpt>
      <trkpt lat="42.83692" lon="0.57045">
        <ele>1830.845</ele>
        <time>2021-03-21T11:27:33Z</time>
      </trkpt>
      <trkpt lat="42.8369" lon="0.57046">
        <ele>1831.148</ele>
        <time>2021-03-21T11:27:35Z</time>
      </trkpt>
      <trkpt lat="42.83689" lon="0.57047">
        <ele>1831.624</ele>
        <time>2021-03-21T11:27:37Z</time>
      </trkpt>
      <trkpt lat="42.83687" lon="0.57047">
        <ele>1831.484</ele>
        <time>2021-03-21T11:27:39Z</time>
      </trkpt>
      <trkpt lat="42.83685" lon="0.57048">
        <ele>1831.327</ele>
        <time>2021-03-21T11:27:41Z</time>
      </trkpt>
      <trkpt lat="42.83684" lon="0.57049">
        <ele>1831.825</ele>
        <time>2021-03-21T11:27:43Z</time>
      </trkpt>
      <trkpt lat="42.83682" lon="0.5705">
        <ele>1831.3</ele>
        <time>2021-03-21T11:27:45Z</time>
      </trkpt>
      <trkpt lat="42.8368" lon="0.57051">
        <ele>1831.498</ele>
        <time>2021-03-21T11:27:47Z</time>
      </trkpt>
      <trkpt lat="42.83678" lon="0.57052">
        <ele>1831.293</ele>
        <time>2021-03-21T11:27:49Z</time>
      </trkpt>
      <trkpt lat="42.83676" lon="0.57053">
        <ele>1831.368</ele>
        <time>2021-03-21T11:27:51Z</time>
      </trkpt>
      <trkpt lat="42.83674" lon="0.57054">
        <ele>1831.262</ele>
        <time>2021-03-21T11:27:53Z</time>
      </trkpt>
      <trkpt lat="42.83672" lon="0.57054">
        <ele>1831.469</ele>
        <time>2021-03-21T11:27:55Z</time>
      </trkpt>
      <trkpt lat="42.83671" lon="0.57055">
        <ele>1831.479</ele>
        <time>2021-03-21T11:27:57Z</time>
      </trkpt>
      <trkpt lat="42.83669" lon="0.57055">
        <ele>1831.871</ele>
        <time>2021-03-21T11:27:59Z</time>
      </trkpt>
      <trkpt lat="42.83667" lon="0.57056">
        <ele>1832.336</ele>
        <time>2021-03-21T11:28:01Z</time>
      </trkpt>
      <trkpt lat="42.83665" lon="0.57057">
        <ele>1832.728</ele>
        <time>2021-03-21T11:28:03Z</time>
      </trkpt>
      <trkpt lat="42.83664" lon="0.57058">
        <ele>1832.899</ele>
        <time>2021-03-21T11:28:05Z</time>
      </trkpt>
      <trkpt lat="42.83662" lon="0.57059">
        <ele>1832.881</ele>
        <time>2021-03-21T11:28:07Z</time>
      </trkpt>
      <trkpt lat="42.8366" lon="0.5706">
        <ele>1833.376</ele>
        <time>2021-03-21T11:28:09Z</time>
      </trkpt>
      <trkpt lat="42.83659" lon="0.57061">
        <ele>1833.644</ele>
        <time>2021-03-21T11:28:11Z</time>
      </trkpt>
      <trkpt lat="42.83657" lon="0.57061">
        <ele>1834.013</ele>
        <time>2021-03-21T11:28:13Z</time>
      </trkpt>
      <trkpt lat="42.83655" lon="0.57062">
        <ele>1834.143</ele>
        <time>2021-03-21T11:28:15Z</time>
      </trkpt>
      <trkpt lat="42.83654" lon="0.57063">
        <ele>1834.271</ele>
        <time>2021-03-21T11:28:17Z</time>
      </trkpt>
      <trkpt lat="42.83652" lon="0.57064">
        <ele>1834.781</ele>
        <time>2021-03-21T11:28:19Z</time>
      </trkpt>
      <trkpt lat="42.8365" lon="0.57065">
        <ele>1835.092</ele>
        <time>2021-03-21T11:28:21Z</time>
      </trkpt>
      <trkpt lat="42.83648" lon="0.57066">
        <ele>1835.413</ele>
        <time>2021-03-21T11:28:23Z</time>
      </trkpt>
      <trkpt lat="42.83646" lon="0.57067">
        <ele>1835.466</ele>
        <time>2021-03-21T11:28:25Z</time>
      </trkpt>
      <trkpt lat="42.83645" lon="0.57069">
        <ele>1835.763</ele>
        <time>2021-03-21T11:28:27Z</time>
      </trkpt>
      <trkpt lat="42.83643" lon="0.5707">
        <ele>1836.057</ele>
        <time>2021-03-21T11:28:29Z</time>
      </trkpt>
      <trkpt lat="42.83642" lon="0.57071">
        <ele>1836.537</ele>
        <time>2021-03-21T11:28:31Z</time>
      </trkpt>
      <trkpt lat="42.8364" lon="0.57072">
        <ele>1836.734</ele>
        <time>2021-03-21T11:28:33Z</time>
      </trkpt>
      <trkpt lat="42.83638" lon="0.57072">
        <ele>1836.853</ele>
        <time>2021-03-21T11:28:35Z</time>
      </trkpt>
      <trkpt lat="42.83636" lon="0.57073">
        <ele>1837.022</ele>
        <time>2021-03-21T11:28:37Z</time>
      </trkpt>
      <trkpt lat="42.83634" lon="0.57074">
        <ele>1837.31</ele>
        <time>2021-03-21T11:28:39Z</time>
      </trkpt>
      <trkpt lat="42.83632" lon="0.57074">
        <ele>1837.308</ele>
        <time>2021-03-21T11:28:41Z</time>
      </trkpt>
      <trkpt lat="42.83631" lon="0.57075">
        <ele>1837.568</ele>
        <time>2021-03-21T11:28:43Z</time>
      </trkpt>
      <trkpt lat="42.83629" lon="0.57073">
        <ele>1839.082</ele>
        <time>2021-03-21T11:28:45Z</time>
      </trkpt>
      <trkpt lat="42.83628" lon="0.57071">
        <ele>1840.751</ele>
        <time>2021-03-21T11:28:47Z</time>
      </trkpt>
      <trkpt lat="42.83627" lon="0.57071">
        <ele>1840.712</ele>
        <time>2021-03-21T11:28:49Z</time>
      </trkpt>
      <trkpt lat="42.83626" lon="0.57071">
        <ele>1841.457</ele>
        <time>2021-03-21T11:28:51Z</time>
      </trkpt>
      <trkpt lat="42.83622" lon="0.57072">
        <ele>1842.692</ele>
        <time>2021-03-21T11:28:53Z</time>
      </trkpt>
      <trkpt lat="42.83622" lon="0.57072">
        <ele>1842.439</ele>
        <time>2021-03-21T11:28:55Z</time>
      </trkpt>
      <trkpt lat="42.83622" lon="0.57072">
        <ele>1842.434</ele>
        <time>2021-03-21T11:28:57Z</time>
      </trkpt>
      <trkpt lat="42.83622" lon="0.57072">
        <ele>1842.428</ele>
        <time>2021-03-21T11:28:59Z</time>
      </trkpt>
      <trkpt lat="42.83622" lon="0.57072">
        <ele>1842.428</ele>
        <time>2021-03-21T11:29:01Z</time>
      </trkpt>
      <trkpt lat="42.83622" lon="0.57072">
        <ele>1842.427</ele>
        <time>2021-03-21T11:29:03Z</time>
      </trkpt>
      <trkpt lat="42.83622" lon="0.57072">
        <ele>1842.425</ele>
        <time>2021-03-21T11:29:05Z</time>
      </trkpt>
      <trkpt lat="42.83622" lon="0.57072">
        <ele>1842.423</ele>
        <time>2021-03-21T11:29:07Z</time>
      </trkpt>
      <trkpt lat="42.83622" lon="0.57072">
        <ele>1842.422</ele>
        <time>2021-03-21T11:29:09Z</time>
      </trkpt>
      <trkpt lat="42.83622" lon="0.57072">
        <ele>1842.001</ele>
        <time>2021-03-21T11:29:11Z</time>
      </trkpt>
      <trkpt lat="42.83623" lon="0.57071">
        <ele>1842.329</ele>
        <time>2021-03-21T11:29:13Z</time>
      </trkpt>
      <trkpt lat="42.83623" lon="0.57071">
        <ele>1842.339</ele>
        <time>2021-03-21T11:29:15Z</time>
      </trkpt>
      <trkpt lat="42.83623" lon="0.57071">
        <ele>1842.343</ele>
        <time>2021-03-21T11:29:17Z</time>
      </trkpt>
      <trkpt lat="42.83623" lon="0.57071">
        <ele>1842.348</ele>
        <time>2021-03-21T11:29:19Z</time>
      </trkpt>
      <trkpt lat="42.83623" lon="0.57071">
        <ele>1842.359</ele>
        <time>2021-03-21T11:29:22Z</time>
      </trkpt>
      <trkpt lat="42.83623" lon="0.57071">
        <ele>1842.363</ele>
        <time>2021-03-21T11:29:24Z</time>
      </trkpt>
      <trkpt lat="42.83623" lon="0.57071">
        <ele>1842.366</ele>
        <time>2021-03-21T11:29:26Z</time>
      </trkpt>
      <trkpt lat="42.83623" lon="0.57071">
        <ele>1842.366</ele>
        <time>2021-03-21T11:29:28Z</time>
      </trkpt>
      <trkpt lat="42.83623" lon="0.57071">
        <ele>1842.364</ele>
        <time>2021-03-21T11:29:30Z</time>
      </trkpt>
      <trkpt lat="42.83623" lon="0.57071">
        <ele>1842.36</ele>
        <time>2021-03-21T11:29:32Z</time>
      </trkpt>
      <trkpt lat="42.83623" lon="0.57071">
        <ele>1842.356</ele>
        <time>2021-03-21T11:29:34Z</time>
      </trkpt>
      <trkpt lat="42.83623" lon="0.57071">
        <ele>1842.349</ele>
        <time>2021-03-21T11:29:36Z</time>
      </trkpt>
      <trkpt lat="42.83623" lon="0.57071">
        <ele>1842.349</ele>
        <time>2021-03-21T11:29:38Z</time>
      </trkpt>
      <trkpt lat="42.83623" lon="0.57071">
        <ele>1842.35</ele>
        <time>2021-03-21T11:29:40Z</time>
      </trkpt>
      <trkpt lat="42.83623" lon="0.57071">
        <ele>1842.347</ele>
        <time>2021-03-21T11:29:42Z</time>
      </trkpt>
      <trkpt lat="42.83623" lon="0.57071">
        <ele>1842.368</ele>
        <time>2021-03-21T11:29:44Z</time>
      </trkpt>
      <trkpt lat="42.83622" lon="0.57071">
        <ele>1841.672</ele>
        <time>2021-03-21T11:29:46Z</time>
      </trkpt>
      <trkpt lat="42.8362" lon="0.57074">
        <ele>1841.21</ele>
        <time>2021-03-21T11:29:48Z</time>
      </trkpt>
      <trkpt lat="42.83618" lon="0.57073">
        <ele>1841.26</ele>
        <time>2021-03-21T11:29:50Z</time>
      </trkpt>
      <trkpt lat="42.83616" lon="0.57073">
        <ele>1841.136</ele>
        <time>2021-03-21T11:29:52Z</time>
      </trkpt>
      <trkpt lat="42.83613" lon="0.57073">
        <ele>1841.757</ele>
        <time>2021-03-21T11:29:54Z</time>
      </trkpt>
      <trkpt lat="42.83611" lon="0.57074">
        <ele>1842.094</ele>
        <time>2021-03-21T11:29:56Z</time>
      </trkpt>
      <trkpt lat="42.83609" lon="0.57075">
        <ele>1841.423</ele>
        <time>2021-03-21T11:29:58Z</time>
      </trkpt>
      <trkpt lat="42.83607" lon="0.57075">
        <ele>1840.312</ele>
        <time>2021-03-21T11:30:00Z</time>
      </trkpt>
      <trkpt lat="42.83605" lon="0.57076">
        <ele>1839.496</ele>
        <time>2021-03-21T11:30:02Z</time>
      </trkpt>
      <trkpt lat="42.83603" lon="0.57076">
        <ele>1840.138</ele>
        <time>2021-03-21T11:30:04Z</time>
      </trkpt>
      <trkpt lat="42.836" lon="0.57077">
        <ele>1840.581</ele>
        <time>2021-03-21T11:30:06Z</time>
      </trkpt>
      <trkpt lat="42.83597" lon="0.57078">
        <ele>1840.729</ele>
        <time>2021-03-21T11:30:08Z</time>
      </trkpt>
      <trkpt lat="42.83594" lon="0.57079">
        <ele>1840.464</ele>
        <time>2021-03-21T11:30:10Z</time>
      </trkpt>
      <trkpt lat="42.83591" lon="0.5708">
        <ele>1839.596</ele>
        <time>2021-03-21T11:30:12Z</time>
      </trkpt>
      <trkpt lat="42.83589" lon="0.57081">
        <ele>1840.164</ele>
        <time>2021-03-21T11:30:14Z</time>
      </trkpt>
      <trkpt lat="42.83587" lon="0.57082">
        <ele>1839.964</ele>
        <time>2021-03-21T11:30:16Z</time>
      </trkpt>
      <trkpt lat="42.83586" lon="0.57082">
        <ele>1838.271</ele>
        <time>2021-03-21T11:30:18Z</time>
      </trkpt>
      <trkpt lat="42.83585" lon="0.57083">
        <ele>1837.709</ele>
        <time>2021-03-21T11:30:20Z</time>
      </trkpt>
      <trkpt lat="42.83583" lon="0.57083">
        <ele>1837.03</ele>
        <time>2021-03-21T11:30:22Z</time>
      </trkpt>
      <trkpt lat="42.83582" lon="0.57083">
        <ele>1836.315</ele>
        <time>2021-03-21T11:30:24Z</time>
      </trkpt>
      <trkpt lat="42.8358" lon="0.57083">
        <ele>1835.566</ele>
        <time>2021-03-21T11:30:26Z</time>
      </trkpt>
      <trkpt lat="42.83579" lon="0.57083">
        <ele>1834.977</ele>
        <time>2021-03-21T11:30:28Z</time>
      </trkpt>
      <trkpt lat="42.83577" lon="0.57083">
        <ele>1834.798</ele>
        <time>2021-03-21T11:30:30Z</time>
      </trkpt>
      <trkpt lat="42.83575" lon="0.57083">
        <ele>1834.425</ele>
        <time>2021-03-21T11:30:32Z</time>
      </trkpt>
      <trkpt lat="42.83573" lon="0.57083">
        <ele>1834.222</ele>
        <time>2021-03-21T11:30:34Z</time>
      </trkpt>
      <trkpt lat="42.83571" lon="0.57082">
        <ele>1833.752</ele>
        <time>2021-03-21T11:30:36Z</time>
      </trkpt>
      <trkpt lat="42.8357" lon="0.57082">
        <ele>1833.332</ele>
        <time>2021-03-21T11:30:38Z</time>
      </trkpt>
      <trkpt lat="42.83568" lon="0.57081">
        <ele>1832.89</ele>
        <time>2021-03-21T11:30:40Z</time>
      </trkpt>
      <trkpt lat="42.83566" lon="0.5708">
        <ele>1832.69</ele>
        <time>2021-03-21T11:30:42Z</time>
      </trkpt>
      <trkpt lat="42.83564" lon="0.57078">
        <ele>1832.171</ele>
        <time>2021-03-21T11:30:44Z</time>
      </trkpt>
      <trkpt lat="42.83562" lon="0.57077">
        <ele>1831.705</ele>
        <time>2021-03-21T11:30:46Z</time>
      </trkpt>
      <trkpt lat="42.8356" lon="0.57075">
        <ele>1831.687</ele>
        <time>2021-03-21T11:30:48Z</time>
      </trkpt>
      <trkpt lat="42.83558" lon="0.57074">
        <ele>1831.466</ele>
        <time>2021-03-21T11:30:50Z</time>
      </trkpt>
      <trkpt lat="42.83556" lon="0.57073">
        <ele>1831.289</ele>
        <time>2021-03-21T11:30:52Z</time>
      </trkpt>
      <trkpt lat="42.83553" lon="0.57071">
        <ele>1831.053</ele>
        <time>2021-03-21T11:30:54Z</time>
      </trkpt>
      <trkpt lat="42.83551" lon="0.5707">
        <ele>1830.822</ele>
        <time>2021-03-21T11:30:56Z</time>
      </trkpt>
      <trkpt lat="42.83549" lon="0.57069">
        <ele>1829.785</ele>
        <time>2021-03-21T11:30:58Z</time>
      </trkpt>
      <trkpt lat="42.83547" lon="0.57068">
        <ele>1829.415</ele>
        <time>2021-03-21T11:31:00Z</time>
      </trkpt>
      <trkpt lat="42.83545" lon="0.57067">
        <ele>1829.4</ele>
        <time>2021-03-21T11:31:02Z</time>
      </trkpt>
      <trkpt lat="42.83543" lon="0.57066">
        <ele>1828.984</ele>
        <time>2021-03-21T11:31:04Z</time>
      </trkpt>
      <trkpt lat="42.83541" lon="0.57066">
        <ele>1828.668</ele>
        <time>2021-03-21T11:31:06Z</time>
      </trkpt>
      <trkpt lat="42.83539" lon="0.57065">
        <ele>1828.928</ele>
        <time>2021-03-21T11:31:08Z</time>
      </trkpt>
      <trkpt lat="42.83537" lon="0.57064">
        <ele>1828.136</ele>
        <time>2021-03-21T11:31:10Z</time>
      </trkpt>
      <trkpt lat="42.83535" lon="0.57064">
        <ele>1827.841</ele>
        <time>2021-03-21T11:31:12Z</time>
      </trkpt>
      <trkpt lat="42.83533" lon="0.57064">
        <ele>1827.439</ele>
        <time>2021-03-21T11:31:14Z</time>
      </trkpt>
      <trkpt lat="42.83531" lon="0.57063">
        <ele>1827.198</ele>
        <time>2021-03-21T11:31:16Z</time>
      </trkpt>
      <trkpt lat="42.8353" lon="0.57063">
        <ele>1827.319</ele>
        <time>2021-03-21T11:31:18Z</time>
      </trkpt>
      <trkpt lat="42.83528" lon="0.57063">
        <ele>1827.307</ele>
        <time>2021-03-21T11:31:20Z</time>
      </trkpt>
      <trkpt lat="42.83526" lon="0.57063">
        <ele>1827.046</ele>
        <time>2021-03-21T11:31:22Z</time>
      </trkpt>
      <trkpt lat="42.83524" lon="0.57063">
        <ele>1826.53</ele>
        <time>2021-03-21T11:31:24Z</time>
      </trkpt>
      <trkpt lat="42.83523" lon="0.57063">
        <ele>1826.271</ele>
        <time>2021-03-21T11:31:26Z</time>
      </trkpt>
      <trkpt lat="42.83521" lon="0.57064">
        <ele>1825.47</ele>
        <time>2021-03-21T11:31:28Z</time>
      </trkpt>
      <trkpt lat="42.8352" lon="0.57066">
        <ele>1825.23</ele>
        <time>2021-03-21T11:31:30Z</time>
      </trkpt>
      <trkpt lat="42.83519" lon="0.57067">
        <ele>1824.922</ele>
        <time>2021-03-21T11:31:32Z</time>
      </trkpt>
      <trkpt lat="42.83518" lon="0.57068">
        <ele>1824.824</ele>
        <time>2021-03-21T11:31:34Z</time>
      </trkpt>
      <trkpt lat="42.83516" lon="0.5707">
        <ele>1824.366</ele>
        <time>2021-03-21T11:31:36Z</time>
      </trkpt>
      <trkpt lat="42.83516" lon="0.57071">
        <ele>1824.119</ele>
        <time>2021-03-21T11:31:38Z</time>
      </trkpt>
      <trkpt lat="42.83515" lon="0.57073">
        <ele>1823.807</ele>
        <time>2021-03-21T11:31:40Z</time>
      </trkpt>
      <trkpt lat="42.83514" lon="0.57074">
        <ele>1823.108</ele>
        <time>2021-03-21T11:31:42Z</time>
      </trkpt>
      <trkpt lat="42.83512" lon="0.57076">
        <ele>1822.248</ele>
        <time>2021-03-21T11:31:44Z</time>
      </trkpt>
      <trkpt lat="42.83511" lon="0.57077">
        <ele>1821.435</ele>
        <time>2021-03-21T11:31:46Z</time>
      </trkpt>
      <trkpt lat="42.8351" lon="0.57079">
        <ele>1820.788</ele>
        <time>2021-03-21T11:31:48Z</time>
      </trkpt>
      <trkpt lat="42.83508" lon="0.57082">
        <ele>1819.777</ele>
        <time>2021-03-21T11:31:50Z</time>
      </trkpt>
      <trkpt lat="42.83506" lon="0.57085">
        <ele>1819.06</ele>
        <time>2021-03-21T11:31:52Z</time>
      </trkpt>
      <trkpt lat="42.83504" lon="0.57086">
        <ele>1818.343</ele>
        <time>2021-03-21T11:31:54Z</time>
      </trkpt>
      <trkpt lat="42.83502" lon="0.57088">
        <ele>1817.663</ele>
        <time>2021-03-21T11:31:56Z</time>
      </trkpt>
      <trkpt lat="42.835" lon="0.57089">
        <ele>1816.732</ele>
        <time>2021-03-21T11:31:58Z</time>
      </trkpt>
      <trkpt lat="42.83498" lon="0.5709">
        <ele>1816.888</ele>
        <time>2021-03-21T11:32:00Z</time>
      </trkpt>
      <trkpt lat="42.83497" lon="0.5709">
        <ele>1817.1</ele>
        <time>2021-03-21T11:32:02Z</time>
      </trkpt>
      <trkpt lat="42.83496" lon="0.5709">
        <ele>1816.439</ele>
        <time>2021-03-21T11:32:04Z</time>
      </trkpt>
      <trkpt lat="42.83494" lon="0.5709">
        <ele>1815.804</ele>
        <time>2021-03-21T11:32:06Z</time>
      </trkpt>
      <trkpt lat="42.83493" lon="0.5709">
        <ele>1815.002</ele>
        <time>2021-03-21T11:32:08Z</time>
      </trkpt>
      <trkpt lat="42.83492" lon="0.5709">
        <ele>1814.536</ele>
        <time>2021-03-21T11:32:10Z</time>
      </trkpt>
      <trkpt lat="42.8349" lon="0.5709">
        <ele>1814.163</ele>
        <time>2021-03-21T11:32:12Z</time>
      </trkpt>
      <trkpt lat="42.83489" lon="0.5709">
        <ele>1813.357</ele>
        <time>2021-03-21T11:32:14Z</time>
      </trkpt>
      <trkpt lat="42.83488" lon="0.5709">
        <ele>1812.716</ele>
        <time>2021-03-21T11:32:16Z</time>
      </trkpt>
      <trkpt lat="42.83486" lon="0.5709">
        <ele>1812.284</ele>
        <time>2021-03-21T11:32:18Z</time>
      </trkpt>
      <trkpt lat="42.83484" lon="0.5709">
        <ele>1811.966</ele>
        <time>2021-03-21T11:32:20Z</time>
      </trkpt>
      <trkpt lat="42.83482" lon="0.57091">
        <ele>1811.108</ele>
        <time>2021-03-21T11:32:22Z</time>
      </trkpt>
      <trkpt lat="42.8348" lon="0.57091">
        <ele>1810.705</ele>
        <time>2021-03-21T11:32:24Z</time>
      </trkpt>
      <trkpt lat="42.83479" lon="0.57091">
        <ele>1810.265</ele>
        <time>2021-03-21T11:32:26Z</time>
      </trkpt>
      <trkpt lat="42.83477" lon="0.57091">
        <ele>1809.942</ele>
        <time>2021-03-21T11:32:28Z</time>
      </trkpt>
      <trkpt lat="42.83474" lon="0.57091">
        <ele>1810.114</ele>
        <time>2021-03-21T11:32:30Z</time>
      </trkpt>
      <trkpt lat="42.83472" lon="0.57091">
        <ele>1809.835</ele>
        <time>2021-03-21T11:32:32Z</time>
      </trkpt>
      <trkpt lat="42.83471" lon="0.57091">
        <ele>1809.212</ele>
        <time>2021-03-21T11:32:34Z</time>
      </trkpt>
      <trkpt lat="42.83469" lon="0.57091">
        <ele>1808.929</ele>
        <time>2021-03-21T11:32:36Z</time>
      </trkpt>
      <trkpt lat="42.83467" lon="0.57092">
        <ele>1808.411</ele>
        <time>2021-03-21T11:32:38Z</time>
      </trkpt>
      <trkpt lat="42.83465" lon="0.57092">
        <ele>1808.161</ele>
        <time>2021-03-21T11:32:40Z</time>
      </trkpt>
      <trkpt lat="42.83463" lon="0.57092">
        <ele>1807.003</ele>
        <time>2021-03-21T11:32:42Z</time>
      </trkpt>
      <trkpt lat="42.83462" lon="0.57092">
        <ele>1806.285</ele>
        <time>2021-03-21T11:32:44Z</time>
      </trkpt>
      <trkpt lat="42.8346" lon="0.57092">
        <ele>1805.462</ele>
        <time>2021-03-21T11:32:46Z</time>
      </trkpt>
      <trkpt lat="42.83458" lon="0.57092">
        <ele>1805.481</ele>
        <time>2021-03-21T11:32:48Z</time>
      </trkpt>
      <trkpt lat="42.83456" lon="0.57093">
        <ele>1804.979</ele>
        <time>2021-03-21T11:32:50Z</time>
      </trkpt>
      <trkpt lat="42.83453" lon="0.57093">
        <ele>1804.96</ele>
        <time>2021-03-21T11:32:52Z</time>
      </trkpt>
      <trkpt lat="42.83451" lon="0.57094">
        <ele>1804.933</ele>
        <time>2021-03-21T11:32:54Z</time>
      </trkpt>
      <trkpt lat="42.83449" lon="0.57095">
        <ele>1804.412</ele>
        <time>2021-03-21T11:32:56Z</time>
      </trkpt>
      <trkpt lat="42.83447" lon="0.57096">
        <ele>1804.352</ele>
        <time>2021-03-21T11:32:58Z</time>
      </trkpt>
      <trkpt lat="42.83445" lon="0.57096">
        <ele>1804.453</ele>
        <time>2021-03-21T11:33:00Z</time>
      </trkpt>
      <trkpt lat="42.83443" lon="0.57096">
        <ele>1805.761</ele>
        <time>2021-03-21T11:33:02Z</time>
      </trkpt>
      <trkpt lat="42.83442" lon="0.57094">
        <ele>1807.279</ele>
        <time>2021-03-21T11:33:04Z</time>
      </trkpt>
      <trkpt lat="42.83439" lon="0.57094">
        <ele>1807.339</ele>
        <time>2021-03-21T11:33:06Z</time>
      </trkpt>
      <trkpt lat="42.83437" lon="0.57095">
        <ele>1807.062</ele>
        <time>2021-03-21T11:33:08Z</time>
      </trkpt>
      <trkpt lat="42.83436" lon="0.57096">
        <ele>1806.881</ele>
        <time>2021-03-21T11:33:10Z</time>
      </trkpt>
      <trkpt lat="42.83434" lon="0.57096">
        <ele>1806.912</ele>
        <time>2021-03-21T11:33:12Z</time>
      </trkpt>
      <trkpt lat="42.83432" lon="0.57096">
        <ele>1806.394</ele>
        <time>2021-03-21T11:33:14Z</time>
      </trkpt>
      <trkpt lat="42.8343" lon="0.57097">
        <ele>1806.079</ele>
        <time>2021-03-21T11:33:16Z</time>
      </trkpt>
      <trkpt lat="42.83428" lon="0.57096">
        <ele>1805.973</ele>
        <time>2021-03-21T11:33:18Z</time>
      </trkpt>
      <trkpt lat="42.83427" lon="0.57098">
        <ele>1805.074</ele>
        <time>2021-03-21T11:33:20Z</time>
      </trkpt>
      <trkpt lat="42.83425" lon="0.57099">
        <ele>1804.475</ele>
        <time>2021-03-21T11:33:22Z</time>
      </trkpt>
      <trkpt lat="42.83423" lon="0.571">
        <ele>1804.28</ele>
        <time>2021-03-21T11:33:24Z</time>
      </trkpt>
      <trkpt lat="42.83421" lon="0.571">
        <ele>1803.548</ele>
        <time>2021-03-21T11:33:26Z</time>
      </trkpt>
      <trkpt lat="42.8342" lon="0.57101">
        <ele>1802.775</ele>
        <time>2021-03-21T11:33:28Z</time>
      </trkpt>
      <trkpt lat="42.83418" lon="0.57101">
        <ele>1802.57</ele>
        <time>2021-03-21T11:33:30Z</time>
      </trkpt>
      <trkpt lat="42.83417" lon="0.57101">
        <ele>1802.841</ele>
        <time>2021-03-21T11:33:32Z</time>
      </trkpt>
      <trkpt lat="42.83415" lon="0.57102">
        <ele>1802.445</ele>
        <time>2021-03-21T11:33:34Z</time>
      </trkpt>
      <trkpt lat="42.83414" lon="0.57102">
        <ele>1802.994</ele>
        <time>2021-03-21T11:33:36Z</time>
      </trkpt>
      <trkpt lat="42.83413" lon="0.57103">
        <ele>1801.587</ele>
        <time>2021-03-21T11:33:38Z</time>
      </trkpt>
      <trkpt lat="42.83411" lon="0.57103">
        <ele>1800.71</ele>
        <time>2021-03-21T11:33:40Z</time>
      </trkpt>
      <trkpt lat="42.83409" lon="0.57104">
        <ele>1799.743</ele>
        <time>2021-03-21T11:33:42Z</time>
      </trkpt>
      <trkpt lat="42.83407" lon="0.57104">
        <ele>1799.073</ele>
        <time>2021-03-21T11:33:44Z</time>
      </trkpt>
      <trkpt lat="42.83406" lon="0.57105">
        <ele>1798.403</ele>
        <time>2021-03-21T11:33:46Z</time>
      </trkpt>
      <trkpt lat="42.83404" lon="0.57105">
        <ele>1797.674</ele>
        <time>2021-03-21T11:33:48Z</time>
      </trkpt>
      <trkpt lat="42.83402" lon="0.57106">
        <ele>1797.42</ele>
        <time>2021-03-21T11:33:50Z</time>
      </trkpt>
      <trkpt lat="42.834" lon="0.57106">
        <ele>1796.862</ele>
        <time>2021-03-21T11:33:52Z</time>
      </trkpt>
      <trkpt lat="42.83398" lon="0.57106">
        <ele>1796.59</ele>
        <time>2021-03-21T11:33:54Z</time>
      </trkpt>
      <trkpt lat="42.83396" lon="0.57107">
        <ele>1796.356</ele>
        <time>2021-03-21T11:33:56Z</time>
      </trkpt>
      <trkpt lat="42.83394" lon="0.57107">
        <ele>1796.235</ele>
        <time>2021-03-21T11:33:58Z</time>
      </trkpt>
      <trkpt lat="42.83393" lon="0.57107">
        <ele>1795.9</ele>
        <time>2021-03-21T11:34:00Z</time>
      </trkpt>
      <trkpt lat="42.83391" lon="0.57108">
        <ele>1795.924</ele>
        <time>2021-03-21T11:34:02Z</time>
      </trkpt>
      <trkpt lat="42.83389" lon="0.57108">
        <ele>1795.613</ele>
        <time>2021-03-21T11:34:04Z</time>
      </trkpt>
      <trkpt lat="42.83387" lon="0.57109">
        <ele>1795.518</ele>
        <time>2021-03-21T11:34:06Z</time>
      </trkpt>
      <trkpt lat="42.83385" lon="0.57109">
        <ele>1795.176</ele>
        <time>2021-03-21T11:34:08Z</time>
      </trkpt>
      <trkpt lat="42.83383" lon="0.57109">
        <ele>1795.061</ele>
        <time>2021-03-21T11:34:10Z</time>
      </trkpt>
      <trkpt lat="42.83382" lon="0.57109">
        <ele>1794.712</ele>
        <time>2021-03-21T11:34:12Z</time>
      </trkpt>
      <trkpt lat="42.8338" lon="0.5711">
        <ele>1794.043</ele>
        <time>2021-03-21T11:34:14Z</time>
      </trkpt>
      <trkpt lat="42.83378" lon="0.5711">
        <ele>1793.614</ele>
        <time>2021-03-21T11:34:16Z</time>
      </trkpt>
      <trkpt lat="42.83376" lon="0.5711">
        <ele>1793.364</ele>
        <time>2021-03-21T11:34:18Z</time>
      </trkpt>
      <trkpt lat="42.83374" lon="0.5711">
        <ele>1793.45</ele>
        <time>2021-03-21T11:34:20Z</time>
      </trkpt>
      <trkpt lat="42.83372" lon="0.5711">
        <ele>1793.485</ele>
        <time>2021-03-21T11:34:22Z</time>
      </trkpt>
      <trkpt lat="42.8337" lon="0.5711">
        <ele>1793.289</ele>
        <time>2021-03-21T11:34:24Z</time>
      </trkpt>
      <trkpt lat="42.83368" lon="0.57111">
        <ele>1792.838</ele>
        <time>2021-03-21T11:34:26Z</time>
      </trkpt>
      <trkpt lat="42.83366" lon="0.57112">
        <ele>1792.632</ele>
        <time>2021-03-21T11:34:28Z</time>
      </trkpt>
      <trkpt lat="42.83364" lon="0.57112">
        <ele>1792.965</ele>
        <time>2021-03-21T11:34:30Z</time>
      </trkpt>
      <trkpt lat="42.83362" lon="0.57112">
        <ele>1792.94</ele>
        <time>2021-03-21T11:34:32Z</time>
      </trkpt>
      <trkpt lat="42.8336" lon="0.57113">
        <ele>1792.686</ele>
        <time>2021-03-21T11:34:34Z</time>
      </trkpt>
      <trkpt lat="42.83358" lon="0.57114">
        <ele>1792.533</ele>
        <time>2021-03-21T11:34:36Z</time>
      </trkpt>
      <trkpt lat="42.83356" lon="0.57115">
        <ele>1792.082</ele>
        <time>2021-03-21T11:34:38Z</time>
      </trkpt>
      <trkpt lat="42.83353" lon="0.57115">
        <ele>1792.255</ele>
        <time>2021-03-21T11:34:40Z</time>
      </trkpt>
      <trkpt lat="42.83351" lon="0.57116">
        <ele>1792.469</ele>
        <time>2021-03-21T11:34:42Z</time>
      </trkpt>
      <trkpt lat="42.8335" lon="0.57117">
        <ele>1792.57</ele>
        <time>2021-03-21T11:34:44Z</time>
      </trkpt>
      <trkpt lat="42.83348" lon="0.57117">
        <ele>1792.671</ele>
        <time>2021-03-21T11:34:46Z</time>
      </trkpt>
      <trkpt lat="42.83346" lon="0.57117">
        <ele>1792.782</ele>
        <time>2021-03-21T11:34:48Z</time>
      </trkpt>
      <trkpt lat="42.83344" lon="0.57118">
        <ele>1792.779</ele>
        <time>2021-03-21T11:34:50Z</time>
      </trkpt>
      <trkpt lat="42.83342" lon="0.57119">
        <ele>1792.865</ele>
        <time>2021-03-21T11:34:52Z</time>
      </trkpt>
      <trkpt lat="42.83341" lon="0.5712">
        <ele>1793.05</ele>
        <time>2021-03-21T11:34:54Z</time>
      </trkpt>
      <trkpt lat="42.83339" lon="0.5712">
        <ele>1793.21</ele>
        <time>2021-03-21T11:34:56Z</time>
      </trkpt>
      <trkpt lat="42.83337" lon="0.5712">
        <ele>1793.453</ele>
        <time>2021-03-21T11:34:58Z</time>
      </trkpt>
      <trkpt lat="42.83335" lon="0.5712">
        <ele>1793.564</ele>
        <time>2021-03-21T11:35:00Z</time>
      </trkpt>
      <trkpt lat="42.83334" lon="0.57121">
        <ele>1793.521</ele>
        <time>2021-03-21T11:35:02Z</time>
      </trkpt>
      <trkpt lat="42.83332" lon="0.57122">
        <ele>1793.817</ele>
        <time>2021-03-21T11:35:04Z</time>
      </trkpt>
      <trkpt lat="42.8333" lon="0.57123">
        <ele>1793.525</ele>
        <time>2021-03-21T11:35:06Z</time>
      </trkpt>
      <trkpt lat="42.83328" lon="0.57123">
        <ele>1793.915</ele>
        <time>2021-03-21T11:35:08Z</time>
      </trkpt>
      <trkpt lat="42.83327" lon="0.57124">
        <ele>1793.77</ele>
        <time>2021-03-21T11:35:10Z</time>
      </trkpt>
      <trkpt lat="42.83325" lon="0.57125">
        <ele>1794.363</ele>
        <time>2021-03-21T11:35:12Z</time>
      </trkpt>
      <trkpt lat="42.83324" lon="0.57126">
        <ele>1793.943</ele>
        <time>2021-03-21T11:35:14Z</time>
      </trkpt>
      <trkpt lat="42.83322" lon="0.57127">
        <ele>1794.146</ele>
        <time>2021-03-21T11:35:16Z</time>
      </trkpt>
      <trkpt lat="42.8332" lon="0.57128">
        <ele>1793.913</ele>
        <time>2021-03-21T11:35:18Z</time>
      </trkpt>
      <trkpt lat="42.83318" lon="0.57129">
        <ele>1794.094</ele>
        <time>2021-03-21T11:35:20Z</time>
      </trkpt>
      <trkpt lat="42.83316" lon="0.5713">
        <ele>1794.047</ele>
        <time>2021-03-21T11:35:22Z</time>
      </trkpt>
      <trkpt lat="42.83315" lon="0.57131">
        <ele>1793.959</ele>
        <time>2021-03-21T11:35:24Z</time>
      </trkpt>
      <trkpt lat="42.83313" lon="0.57132">
        <ele>1794.177</ele>
        <time>2021-03-21T11:35:26Z</time>
      </trkpt>
      <trkpt lat="42.83311" lon="0.57133">
        <ele>1794.404</ele>
        <time>2021-03-21T11:35:28Z</time>
      </trkpt>
      <trkpt lat="42.83309" lon="0.57134">
        <ele>1794.649</ele>
        <time>2021-03-21T11:35:30Z</time>
      </trkpt>
      <trkpt lat="42.83307" lon="0.57134">
        <ele>1794.709</ele>
        <time>2021-03-21T11:35:32Z</time>
      </trkpt>
      <trkpt lat="42.83306" lon="0.57135">
        <ele>1794.58</ele>
        <time>2021-03-21T11:35:34Z</time>
      </trkpt>
      <trkpt lat="42.83304" lon="0.57136">
        <ele>1794.177</ele>
        <time>2021-03-21T11:35:36Z</time>
      </trkpt>
      <trkpt lat="42.83302" lon="0.57137">
        <ele>1794.325</ele>
        <time>2021-03-21T11:35:38Z</time>
      </trkpt>
      <trkpt lat="42.83301" lon="0.57138">
        <ele>1794.58</ele>
        <time>2021-03-21T11:35:40Z</time>
      </trkpt>
      <trkpt lat="42.83299" lon="0.57139">
        <ele>1794.304</ele>
        <time>2021-03-21T11:35:42Z</time>
      </trkpt>
      <trkpt lat="42.83298" lon="0.5714">
        <ele>1794.654</ele>
        <time>2021-03-21T11:35:44Z</time>
      </trkpt>
      <trkpt lat="42.83296" lon="0.57141">
        <ele>1794.703</ele>
        <time>2021-03-21T11:35:46Z</time>
      </trkpt>
      <trkpt lat="42.83294" lon="0.57142">
        <ele>1794.894</ele>
        <time>2021-03-21T11:35:48Z</time>
      </trkpt>
      <trkpt lat="42.83293" lon="0.57143">
        <ele>1795.022</ele>
        <time>2021-03-21T11:35:50Z</time>
      </trkpt>
      <trkpt lat="42.83292" lon="0.57144">
        <ele>1795.017</ele>
        <time>2021-03-21T11:35:52Z</time>
      </trkpt>
      <trkpt lat="42.83291" lon="0.57145">
        <ele>1795.16</ele>
        <time>2021-03-21T11:35:54Z</time>
      </trkpt>
      <trkpt lat="42.83289" lon="0.57147">
        <ele>1795.712</ele>
        <time>2021-03-21T11:35:56Z</time>
      </trkpt>
      <trkpt lat="42.83288" lon="0.57148">
        <ele>1795.905</ele>
        <time>2021-03-21T11:35:58Z</time>
      </trkpt>
      <trkpt lat="42.83286" lon="0.57149">
        <ele>1795.774</ele>
        <time>2021-03-21T11:36:00Z</time>
      </trkpt>
      <trkpt lat="42.83285" lon="0.5715">
        <ele>1796.165</ele>
        <time>2021-03-21T11:36:02Z</time>
      </trkpt>
      <trkpt lat="42.83284" lon="0.57151">
        <ele>1796.08</ele>
        <time>2021-03-21T11:36:04Z</time>
      </trkpt>
      <trkpt lat="42.83283" lon="0.57153">
        <ele>1795.857</ele>
        <time>2021-03-21T11:36:06Z</time>
      </trkpt>
      <trkpt lat="42.8328" lon="0.57155">
        <ele>1795.873</ele>
        <time>2021-03-21T11:36:09Z</time>
      </trkpt>
      <trkpt lat="42.83279" lon="0.57157">
        <ele>1795.907</ele>
        <time>2021-03-21T11:36:11Z</time>
      </trkpt>
      <trkpt lat="42.83277" lon="0.57158">
        <ele>1795.622</ele>
        <time>2021-03-21T11:36:13Z</time>
      </trkpt>
      <trkpt lat="42.83276" lon="0.57159">
        <ele>1795.995</ele>
        <time>2021-03-21T11:36:15Z</time>
      </trkpt>
      <trkpt lat="42.83274" lon="0.57159">
        <ele>1795.759</ele>
        <time>2021-03-21T11:36:17Z</time>
      </trkpt>
      <trkpt lat="42.83272" lon="0.5716">
        <ele>1795.178</ele>
        <time>2021-03-21T11:36:19Z</time>
      </trkpt>
      <trkpt lat="42.8327" lon="0.57162">
        <ele>1795.225</ele>
        <time>2021-03-21T11:36:21Z</time>
      </trkpt>
      <trkpt lat="42.83269" lon="0.57163">
        <ele>1795.314</ele>
        <time>2021-03-21T11:36:23Z</time>
      </trkpt>
      <trkpt lat="42.83268" lon="0.57164">
        <ele>1795.346</ele>
        <time>2021-03-21T11:36:24Z</time>
      </trkpt>
      <trkpt lat="42.83266" lon="0.57165">
        <ele>1795.287</ele>
        <time>2021-03-21T11:36:27Z</time>
      </trkpt>
      <trkpt lat="42.83264" lon="0.57166">
        <ele>1795.19</ele>
        <time>2021-03-21T11:36:29Z</time>
      </trkpt>
      <trkpt lat="42.83261" lon="0.57166">
        <ele>1795.072</ele>
        <time>2021-03-21T11:36:31Z</time>
      </trkpt>
      <trkpt lat="42.8326" lon="0.57166">
        <ele>1795.279</ele>
        <time>2021-03-21T11:36:32Z</time>
      </trkpt>
      <trkpt lat="42.83257" lon="0.57167">
        <ele>1794.697</ele>
        <time>2021-03-21T11:36:35Z</time>
      </trkpt>
      <trkpt lat="42.83256" lon="0.57168">
        <ele>1794.241</ele>
        <time>2021-03-21T11:36:37Z</time>
      </trkpt>
      <trkpt lat="42.83255" lon="0.57168">
        <ele>1793.977</ele>
        <time>2021-03-21T11:36:39Z</time>
      </trkpt>
      <trkpt lat="42.83253" lon="0.57169">
        <ele>1793.613</ele>
        <time>2021-03-21T11:36:41Z</time>
      </trkpt>
      <trkpt lat="42.83252" lon="0.5717">
        <ele>1793.57</ele>
        <time>2021-03-21T11:36:43Z</time>
      </trkpt>
      <trkpt lat="42.83251" lon="0.57171">
        <ele>1793.088</ele>
        <time>2021-03-21T11:36:45Z</time>
      </trkpt>
      <trkpt lat="42.83249" lon="0.57171">
        <ele>1793.055</ele>
        <time>2021-03-21T11:36:47Z</time>
      </trkpt>
      <trkpt lat="42.83248" lon="0.57171">
        <ele>1792.643</ele>
        <time>2021-03-21T11:36:49Z</time>
      </trkpt>
      <trkpt lat="42.83247" lon="0.57172">
        <ele>1791.937</ele>
        <time>2021-03-21T11:36:51Z</time>
      </trkpt>
      <trkpt lat="42.83245" lon="0.57171">
        <ele>1791.378</ele>
        <time>2021-03-21T11:36:53Z</time>
      </trkpt>
      <trkpt lat="42.83243" lon="0.57171">
        <ele>1791.242</ele>
        <time>2021-03-21T11:36:55Z</time>
      </trkpt>
      <trkpt lat="42.83242" lon="0.57171">
        <ele>1790.338</ele>
        <time>2021-03-21T11:36:57Z</time>
      </trkpt>
      <trkpt lat="42.83241" lon="0.57171">
        <ele>1789.834</ele>
        <time>2021-03-21T11:36:59Z</time>
      </trkpt>
      <trkpt lat="42.83239" lon="0.5717">
        <ele>1789.521</ele>
        <time>2021-03-21T11:37:01Z</time>
      </trkpt>
      <trkpt lat="42.83237" lon="0.5717">
        <ele>1788.967</ele>
        <time>2021-03-21T11:37:03Z</time>
      </trkpt>
      <trkpt lat="42.83236" lon="0.5717">
        <ele>1788.36</ele>
        <time>2021-03-21T11:37:05Z</time>
      </trkpt>
      <trkpt lat="42.83234" lon="0.57169">
        <ele>1787.483</ele>
        <time>2021-03-21T11:37:07Z</time>
      </trkpt>
      <trkpt lat="42.83233" lon="0.57169">
        <ele>1786.848</ele>
        <time>2021-03-21T11:37:09Z</time>
      </trkpt>
      <trkpt lat="42.83231" lon="0.57169">
        <ele>1785.518</ele>
        <time>2021-03-21T11:37:11Z</time>
      </trkpt>
      <trkpt lat="42.83229" lon="0.57168">
        <ele>1784.457</ele>
        <time>2021-03-21T11:37:13Z</time>
      </trkpt>
      <trkpt lat="42.83228" lon="0.57168">
        <ele>1784.267</ele>
        <time>2021-03-21T11:37:15Z</time>
      </trkpt>
      <trkpt lat="42.83226" lon="0.57168">
        <ele>1783.578</ele>
        <time>2021-03-21T11:37:17Z</time>
      </trkpt>
      <trkpt lat="42.83224" lon="0.57169">
        <ele>1782.881</ele>
        <time>2021-03-21T11:37:19Z</time>
      </trkpt>
      <trkpt lat="42.83222" lon="0.57169">
        <ele>1782.184</ele>
        <time>2021-03-21T11:37:21Z</time>
      </trkpt>
      <trkpt lat="42.8322" lon="0.57169">
        <ele>1781.563</ele>
        <time>2021-03-21T11:37:23Z</time>
      </trkpt>
      <trkpt lat="42.83219" lon="0.57169">
        <ele>1780.722</ele>
        <time>2021-03-21T11:37:25Z</time>
      </trkpt>
      <trkpt lat="42.83217" lon="0.57168">
        <ele>1779.486</ele>
        <time>2021-03-21T11:37:27Z</time>
      </trkpt>
      <trkpt lat="42.83215" lon="0.57168">
        <ele>1778.527</ele>
        <time>2021-03-21T11:37:29Z</time>
      </trkpt>
      <trkpt lat="42.83213" lon="0.57168">
        <ele>1777.486</ele>
        <time>2021-03-21T11:37:31Z</time>
      </trkpt>
      <trkpt lat="42.83211" lon="0.57168">
        <ele>1776.867</ele>
        <time>2021-03-21T11:37:33Z</time>
      </trkpt>
      <trkpt lat="42.83209" lon="0.57168">
        <ele>1776.303</ele>
        <time>2021-03-21T11:37:35Z</time>
      </trkpt>
      <trkpt lat="42.83207" lon="0.57168">
        <ele>1775.255</ele>
        <time>2021-03-21T11:37:37Z</time>
      </trkpt>
      <trkpt lat="42.83206" lon="0.57167">
        <ele>1774.633</ele>
        <time>2021-03-21T11:37:39Z</time>
      </trkpt>
      <trkpt lat="42.83204" lon="0.57166">
        <ele>1774.056</ele>
        <time>2021-03-21T11:37:41Z</time>
      </trkpt>
      <trkpt lat="42.83202" lon="0.57165">
        <ele>1773.575</ele>
        <time>2021-03-21T11:37:43Z</time>
      </trkpt>
      <trkpt lat="42.832" lon="0.57165">
        <ele>1773.086</ele>
        <time>2021-03-21T11:37:45Z</time>
      </trkpt>
      <trkpt lat="42.83198" lon="0.57164">
        <ele>1772.348</ele>
        <time>2021-03-21T11:37:47Z</time>
      </trkpt>
      <trkpt lat="42.83196" lon="0.57163">
        <ele>1771.473</ele>
        <time>2021-03-21T11:37:49Z</time>
      </trkpt>
      <trkpt lat="42.83194" lon="0.57162">
        <ele>1771.168</ele>
        <time>2021-03-21T11:37:51Z</time>
      </trkpt>
      <trkpt lat="42.83192" lon="0.57161">
        <ele>1770.889</ele>
        <time>2021-03-21T11:37:53Z</time>
      </trkpt>
      <trkpt lat="42.8319" lon="0.57159">
        <ele>1770.408</ele>
        <time>2021-03-21T11:37:55Z</time>
      </trkpt>
      <trkpt lat="42.83188" lon="0.57158">
        <ele>1770.375</ele>
        <time>2021-03-21T11:37:57Z</time>
      </trkpt>
      <trkpt lat="42.83187" lon="0.57157">
        <ele>1770.325</ele>
        <time>2021-03-21T11:37:59Z</time>
      </trkpt>
      <trkpt lat="42.83185" lon="0.57156">
        <ele>1770.009</ele>
        <time>2021-03-21T11:38:01Z</time>
      </trkpt>
      <trkpt lat="42.83183" lon="0.57156">
        <ele>1769.459</ele>
        <time>2021-03-21T11:38:03Z</time>
      </trkpt>
      <trkpt lat="42.83182" lon="0.57154">
        <ele>1768.826</ele>
        <time>2021-03-21T11:38:05Z</time>
      </trkpt>
      <trkpt lat="42.8318" lon="0.57154">
        <ele>1768.244</ele>
        <time>2021-03-21T11:38:07Z</time>
      </trkpt>
      <trkpt lat="42.83178" lon="0.57153">
        <ele>1767.577</ele>
        <time>2021-03-21T11:38:09Z</time>
      </trkpt>
      <trkpt lat="42.83177" lon="0.57152">
        <ele>1766.829</ele>
        <time>2021-03-21T11:38:11Z</time>
      </trkpt>
      <trkpt lat="42.83175" lon="0.57152">
        <ele>1766.112</ele>
        <time>2021-03-21T11:38:13Z</time>
      </trkpt>
      <trkpt lat="42.83173" lon="0.57151">
        <ele>1765.924</ele>
        <time>2021-03-21T11:38:15Z</time>
      </trkpt>
      <trkpt lat="42.83172" lon="0.5715">
        <ele>1765.615</ele>
        <time>2021-03-21T11:38:17Z</time>
      </trkpt>
      <trkpt lat="42.8317" lon="0.5715">
        <ele>1765.223</ele>
        <time>2021-03-21T11:38:19Z</time>
      </trkpt>
      <trkpt lat="42.83168" lon="0.57149">
        <ele>1764.577</ele>
        <time>2021-03-21T11:38:21Z</time>
      </trkpt>
      <trkpt lat="42.83166" lon="0.57148">
        <ele>1763.594</ele>
        <time>2021-03-21T11:38:23Z</time>
      </trkpt>
      <trkpt lat="42.83164" lon="0.57148">
        <ele>1762.791</ele>
        <time>2021-03-21T11:38:25Z</time>
      </trkpt>
      <trkpt lat="42.83162" lon="0.57147">
        <ele>1761.969</ele>
        <time>2021-03-21T11:38:27Z</time>
      </trkpt>
      <trkpt lat="42.83161" lon="0.57146">
        <ele>1761.308</ele>
        <time>2021-03-21T11:38:29Z</time>
      </trkpt>
      <trkpt lat="42.83159" lon="0.57145">
        <ele>1760.995</ele>
        <time>2021-03-21T11:38:31Z</time>
      </trkpt>
      <trkpt lat="42.83159" lon="0.57145">
        <ele>1761.355</ele>
        <time>2021-03-21T11:38:33Z</time>
      </trkpt>
      <trkpt lat="42.83158" lon="0.57144">
        <ele>1761.182</ele>
        <time>2021-03-21T11:38:35Z</time>
      </trkpt>
      <trkpt lat="42.83158" lon="0.57144">
        <ele>1761.11</ele>
        <time>2021-03-21T11:38:37Z</time>
      </trkpt>
      <trkpt lat="42.83157" lon="0.57143">
        <ele>1760.685</ele>
        <time>2021-03-21T11:38:39Z</time>
      </trkpt>
      <trkpt lat="42.83157" lon="0.57143">
        <ele>1760.589</ele>
        <time>2021-03-21T11:38:41Z</time>
      </trkpt>
      <trkpt lat="42.83156" lon="0.57142">
        <ele>1760.24</ele>
        <time>2021-03-21T11:38:43Z</time>
      </trkpt>
      <trkpt lat="42.83155" lon="0.57142">
        <ele>1760.349</ele>
        <time>2021-03-21T11:38:45Z</time>
      </trkpt>
      <trkpt lat="42.83155" lon="0.57142">
        <ele>1760.343</ele>
        <time>2021-03-21T11:38:47Z</time>
      </trkpt>
      <trkpt lat="42.83155" lon="0.57142">
        <ele>1760.341</ele>
        <time>2021-03-21T11:38:49Z</time>
      </trkpt>
      <trkpt lat="42.83155" lon="0.57142">
        <ele>1760.029</ele>
        <time>2021-03-21T11:38:51Z</time>
      </trkpt>
      <trkpt lat="42.83153" lon="0.5714">
        <ele>1759.922</ele>
        <time>2021-03-21T11:38:53Z</time>
      </trkpt>
      <trkpt lat="42.83151" lon="0.57138">
        <ele>1759.271</ele>
        <time>2021-03-21T11:38:55Z</time>
      </trkpt>
      <trkpt lat="42.8315" lon="0.57138">
        <ele>1759.252</ele>
        <time>2021-03-21T11:38:57Z</time>
      </trkpt>
      <trkpt lat="42.83148" lon="0.57137">
        <ele>1758.545</ele>
        <time>2021-03-21T11:38:59Z</time>
      </trkpt>
      <trkpt lat="42.83147" lon="0.57135">
        <ele>1757.503</ele>
        <time>2021-03-21T11:39:01Z</time>
      </trkpt>
      <trkpt lat="42.83146" lon="0.57134">
        <ele>1756.52</ele>
        <time>2021-03-21T11:39:03Z</time>
      </trkpt>
      <trkpt lat="42.83144" lon="0.57133">
        <ele>1755.895</ele>
        <time>2021-03-21T11:39:05Z</time>
      </trkpt>
      <trkpt lat="42.83143" lon="0.57131">
        <ele>1755.196</ele>
        <time>2021-03-21T11:39:07Z</time>
      </trkpt>
      <trkpt lat="42.83141" lon="0.57129">
        <ele>1755.049</ele>
        <time>2021-03-21T11:39:09Z</time>
      </trkpt>
      <trkpt lat="42.8314" lon="0.57128">
        <ele>1754.252</ele>
        <time>2021-03-21T11:39:11Z</time>
      </trkpt>
      <trkpt lat="42.83139" lon="0.57126">
        <ele>1753.753</ele>
        <time>2021-03-21T11:39:13Z</time>
      </trkpt>
      <trkpt lat="42.83137" lon="0.57125">
        <ele>1753.135</ele>
        <time>2021-03-21T11:39:15Z</time>
      </trkpt>
      <trkpt lat="42.83135" lon="0.57124">
        <ele>1752.36</ele>
        <time>2021-03-21T11:39:17Z</time>
      </trkpt>
      <trkpt lat="42.83134" lon="0.57122">
        <ele>1751.535</ele>
        <time>2021-03-21T11:39:19Z</time>
      </trkpt>
      <trkpt lat="42.83132" lon="0.57121">
        <ele>1750.977</ele>
        <time>2021-03-21T11:39:21Z</time>
      </trkpt>
      <trkpt lat="42.8313" lon="0.5712">
        <ele>1750.2</ele>
        <time>2021-03-21T11:39:23Z</time>
      </trkpt>
      <trkpt lat="42.83129" lon="0.57119">
        <ele>1749.682</ele>
        <time>2021-03-21T11:39:25Z</time>
      </trkpt>
      <trkpt lat="42.83127" lon="0.57118">
        <ele>1748.916</ele>
        <time>2021-03-21T11:39:27Z</time>
      </trkpt>
      <trkpt lat="42.83126" lon="0.57116">
        <ele>1748.337</ele>
        <time>2021-03-21T11:39:29Z</time>
      </trkpt>
      <trkpt lat="42.83124" lon="0.57114">
        <ele>1747.92</ele>
        <time>2021-03-21T11:39:31Z</time>
      </trkpt>
      <trkpt lat="42.83123" lon="0.57113">
        <ele>1747.09</ele>
        <time>2021-03-21T11:39:33Z</time>
      </trkpt>
      <trkpt lat="42.83121" lon="0.57112">
        <ele>1746.583</ele>
        <time>2021-03-21T11:39:35Z</time>
      </trkpt>
      <trkpt lat="42.8312" lon="0.57111">
        <ele>1746.243</ele>
        <time>2021-03-21T11:39:37Z</time>
      </trkpt>
      <trkpt lat="42.83119" lon="0.57111">
        <ele>1745.238</ele>
        <time>2021-03-21T11:39:39Z</time>
      </trkpt>
      <trkpt lat="42.83117" lon="0.5711">
        <ele>1744.593</ele>
        <time>2021-03-21T11:39:41Z</time>
      </trkpt>
      <trkpt lat="42.83116" lon="0.57109">
        <ele>1744.227</ele>
        <time>2021-03-21T11:39:43Z</time>
      </trkpt>
      <trkpt lat="42.83114" lon="0.57107">
        <ele>1743.348</ele>
        <time>2021-03-21T11:39:45Z</time>
      </trkpt>
      <trkpt lat="42.83113" lon="0.57106">
        <ele>1743.066</ele>
        <time>2021-03-21T11:39:47Z</time>
      </trkpt>
      <trkpt lat="42.83111" lon="0.57105">
        <ele>1742.691</ele>
        <time>2021-03-21T11:39:49Z</time>
      </trkpt>
      <trkpt lat="42.8311" lon="0.57103">
        <ele>1742.018</ele>
        <time>2021-03-21T11:39:51Z</time>
      </trkpt>
      <trkpt lat="42.83109" lon="0.57103">
        <ele>1741.671</ele>
        <time>2021-03-21T11:39:53Z</time>
      </trkpt>
      <trkpt lat="42.83107" lon="0.57101">
        <ele>1741.061</ele>
        <time>2021-03-21T11:39:55Z</time>
      </trkpt>
      <trkpt lat="42.83106" lon="0.571">
        <ele>1740.714</ele>
        <time>2021-03-21T11:39:57Z</time>
      </trkpt>
      <trkpt lat="42.83104" lon="0.571">
        <ele>1740.13</ele>
        <time>2021-03-21T11:39:59Z</time>
      </trkpt>
      <trkpt lat="42.83103" lon="0.57099">
        <ele>1740.29</ele>
        <time>2021-03-21T11:40:01Z</time>
      </trkpt>
      <trkpt lat="42.83101" lon="0.57098">
        <ele>1739.96</ele>
        <time>2021-03-21T11:40:03Z</time>
      </trkpt>
      <trkpt lat="42.831" lon="0.57097">
        <ele>1739.966</ele>
        <time>2021-03-21T11:40:05Z</time>
      </trkpt>
      <trkpt lat="42.83098" lon="0.57096">
        <ele>1739.603</ele>
        <time>2021-03-21T11:40:07Z</time>
      </trkpt>
      <trkpt lat="42.83096" lon="0.57095">
        <ele>1739.523</ele>
        <time>2021-03-21T11:40:09Z</time>
      </trkpt>
      <trkpt lat="42.83095" lon="0.57095">
        <ele>1738.947</ele>
        <time>2021-03-21T11:40:11Z</time>
      </trkpt>
      <trkpt lat="42.83093" lon="0.57094">
        <ele>1738.831</ele>
        <time>2021-03-21T11:40:13Z</time>
      </trkpt>
      <trkpt lat="42.83091" lon="0.57093">
        <ele>1738.418</ele>
        <time>2021-03-21T11:40:15Z</time>
      </trkpt>
      <trkpt lat="42.83089" lon="0.57093">
        <ele>1737.874</ele>
        <time>2021-03-21T11:40:17Z</time>
      </trkpt>
      <trkpt lat="42.83087" lon="0.57093">
        <ele>1737.802</ele>
        <time>2021-03-21T11:40:19Z</time>
      </trkpt>
      <trkpt lat="42.83085" lon="0.57092">
        <ele>1737.294</ele>
        <time>2021-03-21T11:40:21Z</time>
      </trkpt>
      <trkpt lat="42.83083" lon="0.57091">
        <ele>1736.8</ele>
        <time>2021-03-21T11:40:23Z</time>
      </trkpt>
      <trkpt lat="42.83081" lon="0.57091">
        <ele>1736.234</ele>
        <time>2021-03-21T11:40:25Z</time>
      </trkpt>
      <trkpt lat="42.83079" lon="0.5709">
        <ele>1735.903</ele>
        <time>2021-03-21T11:40:27Z</time>
      </trkpt>
      <trkpt lat="42.83077" lon="0.5709">
        <ele>1735.315</ele>
        <time>2021-03-21T11:40:29Z</time>
      </trkpt>
      <trkpt lat="42.83075" lon="0.5709">
        <ele>1734.856</ele>
        <time>2021-03-21T11:40:31Z</time>
      </trkpt>
      <trkpt lat="42.83074" lon="0.57087">
        <ele>1735.54</ele>
        <time>2021-03-21T11:40:33Z</time>
      </trkpt>
      <trkpt lat="42.83073" lon="0.57085">
        <ele>1736.808</ele>
        <time>2021-03-21T11:40:35Z</time>
      </trkpt>
      <trkpt lat="42.83071" lon="0.57085">
        <ele>1736.589</ele>
        <time>2021-03-21T11:40:37Z</time>
      </trkpt>
      <trkpt lat="42.83069" lon="0.57084">
        <ele>1736.427</ele>
        <time>2021-03-21T11:40:39Z</time>
      </trkpt>
      <trkpt lat="42.83068" lon="0.57082">
        <ele>1735.922</ele>
        <time>2021-03-21T11:40:41Z</time>
      </trkpt>
      <trkpt lat="42.83067" lon="0.57081">
        <ele>1735.164</ele>
        <time>2021-03-21T11:40:43Z</time>
      </trkpt>
      <trkpt lat="42.83066" lon="0.57079">
        <ele>1734.55</ele>
        <time>2021-03-21T11:40:45Z</time>
      </trkpt>
      <trkpt lat="42.83065" lon="0.57077">
        <ele>1734.171</ele>
        <time>2021-03-21T11:40:47Z</time>
      </trkpt>
      <trkpt lat="42.83064" lon="0.57076">
        <ele>1733.299</ele>
        <time>2021-03-21T11:40:49Z</time>
      </trkpt>
      <trkpt lat="42.83063" lon="0.57074">
        <ele>1732.662</ele>
        <time>2021-03-21T11:40:51Z</time>
      </trkpt>
      <trkpt lat="42.83062" lon="0.57073">
        <ele>1731.874</ele>
        <time>2021-03-21T11:40:53Z</time>
      </trkpt>
      <trkpt lat="42.83061" lon="0.57071">
        <ele>1731.243</ele>
        <time>2021-03-21T11:40:55Z</time>
      </trkpt>
      <trkpt lat="42.8306" lon="0.5707">
        <ele>1730.388</ele>
        <time>2021-03-21T11:40:57Z</time>
      </trkpt>
      <trkpt lat="42.83059" lon="0.57068">
        <ele>1729.704</ele>
        <time>2021-03-21T11:40:59Z</time>
      </trkpt>
      <trkpt lat="42.83059" lon="0.57067">
        <ele>1728.975</ele>
        <time>2021-03-21T11:41:01Z</time>
      </trkpt>
      <trkpt lat="42.83058" lon="0.57065">
        <ele>1728.737</ele>
        <time>2021-03-21T11:41:03Z</time>
      </trkpt>
      <trkpt lat="42.83057" lon="0.57063">
        <ele>1728.046</ele>
        <time>2021-03-21T11:41:05Z</time>
      </trkpt>
      <trkpt lat="42.83056" lon="0.57061">
        <ele>1727.349</ele>
        <time>2021-03-21T11:41:07Z</time>
      </trkpt>
      <trkpt lat="42.83055" lon="0.57059">
        <ele>1727.185</ele>
        <time>2021-03-21T11:41:09Z</time>
      </trkpt>
      <trkpt lat="42.83054" lon="0.57057">
        <ele>1726.346</ele>
        <time>2021-03-21T11:41:11Z</time>
      </trkpt>
      <trkpt lat="42.83054" lon="0.57056">
        <ele>1725.755</ele>
        <time>2021-03-21T11:41:13Z</time>
      </trkpt>
      <trkpt lat="42.83052" lon="0.57054">
        <ele>1725.175</ele>
        <time>2021-03-21T11:41:15Z</time>
      </trkpt>
      <trkpt lat="42.83051" lon="0.57052">
        <ele>1724.661</ele>
        <time>2021-03-21T11:41:17Z</time>
      </trkpt>
      <trkpt lat="42.8305" lon="0.5705">
        <ele>1723.924</ele>
        <time>2021-03-21T11:41:19Z</time>
      </trkpt>
      <trkpt lat="42.83049" lon="0.57048">
        <ele>1723.087</ele>
        <time>2021-03-21T11:41:21Z</time>
      </trkpt>
      <trkpt lat="42.83048" lon="0.57047">
        <ele>1722.54</ele>
        <time>2021-03-21T11:41:23Z</time>
      </trkpt>
      <trkpt lat="42.83047" lon="0.57046">
        <ele>1721.817</ele>
        <time>2021-03-21T11:41:25Z</time>
      </trkpt>
      <trkpt lat="42.83046" lon="0.57045">
        <ele>1721.41</ele>
        <time>2021-03-21T11:41:27Z</time>
      </trkpt>
      <trkpt lat="42.83045" lon="0.57043">
        <ele>1721.057</ele>
        <time>2021-03-21T11:41:29Z</time>
      </trkpt>
      <trkpt lat="42.83045" lon="0.57041">
        <ele>1722.831</ele>
        <time>2021-03-21T11:41:31Z</time>
      </trkpt>
      <trkpt lat="42.83045" lon="0.5704">
        <ele>1722.079</ele>
        <time>2021-03-21T11:41:33Z</time>
      </trkpt>
      <trkpt lat="42.83044" lon="0.57039">
        <ele>1720.895</ele>
        <time>2021-03-21T11:41:35Z</time>
      </trkpt>
      <trkpt lat="42.83043" lon="0.57037">
        <ele>1720.198</ele>
        <time>2021-03-21T11:41:37Z</time>
      </trkpt>
      <trkpt lat="42.83042" lon="0.57036">
        <ele>1719.374</ele>
        <time>2021-03-21T11:41:39Z</time>
      </trkpt>
      <trkpt lat="42.83041" lon="0.57034">
        <ele>1718.496</ele>
        <time>2021-03-21T11:41:41Z</time>
      </trkpt>
      <trkpt lat="42.8304" lon="0.57033">
        <ele>1718.062</ele>
        <time>2021-03-21T11:41:43Z</time>
      </trkpt>
      <trkpt lat="42.83038" lon="0.57032">
        <ele>1717.325</ele>
        <time>2021-03-21T11:41:45Z</time>
      </trkpt>
      <trkpt lat="42.83037" lon="0.57031">
        <ele>1716.506</ele>
        <time>2021-03-21T11:41:47Z</time>
      </trkpt>
      <trkpt lat="42.83036" lon="0.5703">
        <ele>1715.712</ele>
        <time>2021-03-21T11:41:49Z</time>
      </trkpt>
      <trkpt lat="42.83035" lon="0.57029">
        <ele>1714.842</ele>
        <time>2021-03-21T11:41:51Z</time>
      </trkpt>
      <trkpt lat="42.83034" lon="0.57028">
        <ele>1714.195</ele>
        <time>2021-03-21T11:41:53Z</time>
      </trkpt>
      <trkpt lat="42.83033" lon="0.57027">
        <ele>1713.332</ele>
        <time>2021-03-21T11:41:55Z</time>
      </trkpt>
      <trkpt lat="42.83032" lon="0.57026">
        <ele>1712.319</ele>
        <time>2021-03-21T11:41:57Z</time>
      </trkpt>
      <trkpt lat="42.83031" lon="0.57025">
        <ele>1711.744</ele>
        <time>2021-03-21T11:41:58Z</time>
      </trkpt>
      <trkpt lat="42.8303" lon="0.57025">
        <ele>1711.667</ele>
        <time>2021-03-21T11:42:01Z</time>
      </trkpt>
      <trkpt lat="42.83029" lon="0.57024">
        <ele>1711.153</ele>
        <time>2021-03-21T11:42:03Z</time>
      </trkpt>
      <trkpt lat="42.83028" lon="0.57023">
        <ele>1710.524</ele>
        <time>2021-03-21T11:42:05Z</time>
      </trkpt>
      <trkpt lat="42.83026" lon="0.57022">
        <ele>1709.692</ele>
        <time>2021-03-21T11:42:07Z</time>
      </trkpt>
      <trkpt lat="42.83023" lon="0.5702">
        <ele>1709.989</ele>
        <time>2021-03-21T11:42:09Z</time>
      </trkpt>
      <trkpt lat="42.83021" lon="0.57018">
        <ele>1711.388</ele>
        <time>2021-03-21T11:42:11Z</time>
      </trkpt>
      <trkpt lat="42.83019" lon="0.57018">
        <ele>1711.92</ele>
        <time>2021-03-21T11:42:13Z</time>
      </trkpt>
      <trkpt lat="42.83017" lon="0.57018">
        <ele>1711.285</ele>
        <time>2021-03-21T11:42:15Z</time>
      </trkpt>
      <trkpt lat="42.83016" lon="0.57017">
        <ele>1710.597</ele>
        <time>2021-03-21T11:42:17Z</time>
      </trkpt>
      <trkpt lat="42.83015" lon="0.57017">
        <ele>1710.962</ele>
        <time>2021-03-21T11:42:19Z</time>
      </trkpt>
      <trkpt lat="42.83014" lon="0.57017">
        <ele>1710.592</ele>
        <time>2021-03-21T11:42:21Z</time>
      </trkpt>
      <trkpt lat="42.83013" lon="0.57016">
        <ele>1710.011</ele>
        <time>2021-03-21T11:42:23Z</time>
      </trkpt>
      <trkpt lat="42.83012" lon="0.57016">
        <ele>1710.735</ele>
        <time>2021-03-21T11:42:25Z</time>
      </trkpt>
      <trkpt lat="42.83012" lon="0.57016">
        <ele>1710.773</ele>
        <time>2021-03-21T11:42:27Z</time>
      </trkpt>
      <trkpt lat="42.83011" lon="0.57016">
        <ele>1711.658</ele>
        <time>2021-03-21T11:42:29Z</time>
      </trkpt>
      <trkpt lat="42.8301" lon="0.57015">
        <ele>1710.486</ele>
        <time>2021-03-21T11:42:31Z</time>
      </trkpt>
      <trkpt lat="42.8301" lon="0.57014">
        <ele>1710.327</ele>
        <time>2021-03-21T11:42:33Z</time>
      </trkpt>
      <trkpt lat="42.8301" lon="0.57014">
        <ele>1710.32</ele>
        <time>2021-03-21T11:42:35Z</time>
      </trkpt>
      <trkpt lat="42.8301" lon="0.57014">
        <ele>1709.84</ele>
        <time>2021-03-21T11:42:37Z</time>
      </trkpt>
      <trkpt lat="42.83011" lon="0.57013">
        <ele>1709.752</ele>
        <time>2021-03-21T11:42:39Z</time>
      </trkpt>
      <trkpt lat="42.83011" lon="0.57012">
        <ele>1709.324</ele>
        <time>2021-03-21T11:42:41Z</time>
      </trkpt>
      <trkpt lat="42.83012" lon="0.57012">
        <ele>1709.24</ele>
        <time>2021-03-21T11:42:43Z</time>
      </trkpt>
      <trkpt lat="42.83012" lon="0.57011">
        <ele>1708.874</ele>
        <time>2021-03-21T11:42:45Z</time>
      </trkpt>
      <trkpt lat="42.83013" lon="0.57009">
        <ele>1708.947</ele>
        <time>2021-03-21T11:42:47Z</time>
      </trkpt>
      <trkpt lat="42.83014" lon="0.57006">
        <ele>1709.625</ele>
        <time>2021-03-21T11:42:49Z</time>
      </trkpt>
      <trkpt lat="42.83013" lon="0.57003">
        <ele>1709.824</ele>
        <time>2021-03-21T11:42:51Z</time>
      </trkpt>
      <trkpt lat="42.83012" lon="0.57001">
        <ele>1709.696</ele>
        <time>2021-03-21T11:42:53Z</time>
      </trkpt>
      <trkpt lat="42.83012" lon="0.57">
        <ele>1710.274</ele>
        <time>2021-03-21T11:42:55Z</time>
      </trkpt>
      <trkpt lat="42.83012" lon="0.56997">
        <ele>1709.897</ele>
        <time>2021-03-21T11:42:57Z</time>
      </trkpt>
      <trkpt lat="42.83015" lon="0.57002">
        <ele>1703.119</ele>
        <time>2021-03-21T11:42:59Z</time>
      </trkpt>
      <trkpt lat="42.83014" lon="0.56999">
        <ele>1702.723</ele>
        <time>2021-03-21T11:43:01Z</time>
      </trkpt>
      <trkpt lat="42.83014" lon="0.56997">
        <ele>1702.24</ele>
        <time>2021-03-21T11:43:03Z</time>
      </trkpt>
      <trkpt lat="42.83013" lon="0.56995">
        <ele>1701.829</ele>
        <time>2021-03-21T11:43:05Z</time>
      </trkpt>
      <trkpt lat="42.83012" lon="0.56994">
        <ele>1701.286</ele>
        <time>2021-03-21T11:43:07Z</time>
      </trkpt>
      <trkpt lat="42.83011" lon="0.56993">
        <ele>1700.475</ele>
        <time>2021-03-21T11:43:09Z</time>
      </trkpt>
      <trkpt lat="42.83011" lon="0.56992">
        <ele>1700.276</ele>
        <time>2021-03-21T11:43:11Z</time>
      </trkpt>
      <trkpt lat="42.8301" lon="0.56991">
        <ele>1699.943</ele>
        <time>2021-03-21T11:43:13Z</time>
      </trkpt>
      <trkpt lat="42.8301" lon="0.5699">
        <ele>1699.609</ele>
        <time>2021-03-21T11:43:15Z</time>
      </trkpt>
      <trkpt lat="42.83009" lon="0.56988">
        <ele>1699.364</ele>
        <time>2021-03-21T11:43:17Z</time>
      </trkpt>
      <trkpt lat="42.83009" lon="0.56986">
        <ele>1699.116</ele>
        <time>2021-03-21T11:43:19Z</time>
      </trkpt>
      <trkpt lat="42.83009" lon="0.56984">
        <ele>1698.816</ele>
        <time>2021-03-21T11:43:21Z</time>
      </trkpt>
      <trkpt lat="42.83009" lon="0.56982">
        <ele>1698.665</ele>
        <time>2021-03-21T11:43:23Z</time>
      </trkpt>
      <trkpt lat="42.83009" lon="0.5698">
        <ele>1697.853</ele>
        <time>2021-03-21T11:43:25Z</time>
      </trkpt>
      <trkpt lat="42.83009" lon="0.56978">
        <ele>1697.436</ele>
        <time>2021-03-21T11:43:27Z</time>
      </trkpt>
      <trkpt lat="42.83009" lon="0.56976">
        <ele>1696.643</ele>
        <time>2021-03-21T11:43:29Z</time>
      </trkpt>
      <trkpt lat="42.83009" lon="0.56973">
        <ele>1696.069</ele>
        <time>2021-03-21T11:43:31Z</time>
      </trkpt>
      <trkpt lat="42.8301" lon="0.56971">
        <ele>1695.34</ele>
        <time>2021-03-21T11:43:33Z</time>
      </trkpt>
      <trkpt lat="42.8301" lon="0.5697">
        <ele>1694.629</ele>
        <time>2021-03-21T11:43:35Z</time>
      </trkpt>
      <trkpt lat="42.83009" lon="0.56968">
        <ele>1694.032</ele>
        <time>2021-03-21T11:43:37Z</time>
      </trkpt>
      <trkpt lat="42.83009" lon="0.56965">
        <ele>1694.113</ele>
        <time>2021-03-21T11:43:39Z</time>
      </trkpt>
      <trkpt lat="42.83009" lon="0.56962">
        <ele>1693.109</ele>
        <time>2021-03-21T11:43:41Z</time>
      </trkpt>
      <trkpt lat="42.83008" lon="0.56961">
        <ele>1692.533</ele>
        <time>2021-03-21T11:43:43Z</time>
      </trkpt>
      <trkpt lat="42.83008" lon="0.56958">
        <ele>1692.095</ele>
        <time>2021-03-21T11:43:45Z</time>
      </trkpt>
      <trkpt lat="42.83008" lon="0.56957">
        <ele>1691.411</ele>
        <time>2021-03-21T11:43:47Z</time>
      </trkpt>
      <trkpt lat="42.83007" lon="0.56955">
        <ele>1690.522</ele>
        <time>2021-03-21T11:43:49Z</time>
      </trkpt>
      <trkpt lat="42.83006" lon="0.56953">
        <ele>1690.233</ele>
        <time>2021-03-21T11:43:51Z</time>
      </trkpt>
      <trkpt lat="42.83005" lon="0.56951">
        <ele>1689.81</ele>
        <time>2021-03-21T11:43:53Z</time>
      </trkpt>
      <trkpt lat="42.83004" lon="0.56949">
        <ele>1689.522</ele>
        <time>2021-03-21T11:43:55Z</time>
      </trkpt>
      <trkpt lat="42.83003" lon="0.56948">
        <ele>1689.047</ele>
        <time>2021-03-21T11:43:57Z</time>
      </trkpt>
      <trkpt lat="42.83002" lon="0.56947">
        <ele>1688.356</ele>
        <time>2021-03-21T11:43:59Z</time>
      </trkpt>
      <trkpt lat="42.83001" lon="0.56945">
        <ele>1688.598</ele>
        <time>2021-03-21T11:44:01Z</time>
      </trkpt>
      <trkpt lat="42.83" lon="0.56944">
        <ele>1688.801</ele>
        <time>2021-03-21T11:44:03Z</time>
      </trkpt>
      <trkpt lat="42.82998" lon="0.56942">
        <ele>1689.135</ele>
        <time>2021-03-21T11:44:05Z</time>
      </trkpt>
      <trkpt lat="42.82997" lon="0.56941">
        <ele>1688.756</ele>
        <time>2021-03-21T11:44:07Z</time>
      </trkpt>
      <trkpt lat="42.82996" lon="0.5694">
        <ele>1689.082</ele>
        <time>2021-03-21T11:44:09Z</time>
      </trkpt>
      <trkpt lat="42.82994" lon="0.56939">
        <ele>1689.081</ele>
        <time>2021-03-21T11:44:11Z</time>
      </trkpt>
      <trkpt lat="42.82993" lon="0.56939">
        <ele>1688.903</ele>
        <time>2021-03-21T11:44:13Z</time>
      </trkpt>
      <trkpt lat="42.82991" lon="0.56938">
        <ele>1688.821</ele>
        <time>2021-03-21T11:44:15Z</time>
      </trkpt>
      <trkpt lat="42.82989" lon="0.56937">
        <ele>1689.054</ele>
        <time>2021-03-21T11:44:17Z</time>
      </trkpt>
      <trkpt lat="42.82987" lon="0.56936">
        <ele>1689.372</ele>
        <time>2021-03-21T11:44:19Z</time>
      </trkpt>
      <trkpt lat="42.82986" lon="0.56935">
        <ele>1689.391</ele>
        <time>2021-03-21T11:44:21Z</time>
      </trkpt>
      <trkpt lat="42.82984" lon="0.56933">
        <ele>1689.764</ele>
        <time>2021-03-21T11:44:23Z</time>
      </trkpt>
      <trkpt lat="42.82983" lon="0.56932">
        <ele>1689.624</ele>
        <time>2021-03-21T11:44:25Z</time>
      </trkpt>
      <trkpt lat="42.82981" lon="0.56931">
        <ele>1690.201</ele>
        <time>2021-03-21T11:44:27Z</time>
      </trkpt>
      <trkpt lat="42.8298" lon="0.5693">
        <ele>1690.593</ele>
        <time>2021-03-21T11:44:29Z</time>
      </trkpt>
      <trkpt lat="42.82978" lon="0.5693">
        <ele>1690.538</ele>
        <time>2021-03-21T11:44:31Z</time>
      </trkpt>
      <trkpt lat="42.82976" lon="0.56929">
        <ele>1691.233</ele>
        <time>2021-03-21T11:44:33Z</time>
      </trkpt>
      <trkpt lat="42.82975" lon="0.5693">
        <ele>1691.089</ele>
        <time>2021-03-21T11:44:35Z</time>
      </trkpt>
      <trkpt lat="42.82973" lon="0.5693">
        <ele>1691.482</ele>
        <time>2021-03-21T11:44:37Z</time>
      </trkpt>
      <trkpt lat="42.82972" lon="0.56931">
        <ele>1691.623</ele>
        <time>2021-03-21T11:44:39Z</time>
      </trkpt>
      <trkpt lat="42.82971" lon="0.56932">
        <ele>1691.164</ele>
        <time>2021-03-21T11:44:41Z</time>
      </trkpt>
      <trkpt lat="42.8297" lon="0.56933">
        <ele>1691.262</ele>
        <time>2021-03-21T11:44:43Z</time>
      </trkpt>
      <trkpt lat="42.82968" lon="0.56935">
        <ele>1690.724</ele>
        <time>2021-03-21T11:44:45Z</time>
      </trkpt>
      <trkpt lat="42.82967" lon="0.56936">
        <ele>1690.37</ele>
        <time>2021-03-21T11:44:47Z</time>
      </trkpt>
      <trkpt lat="42.82966" lon="0.56937">
        <ele>1690.41</ele>
        <time>2021-03-21T11:44:49Z</time>
      </trkpt>
      <trkpt lat="42.82964" lon="0.56938">
        <ele>1690.696</ele>
        <time>2021-03-21T11:44:51Z</time>
      </trkpt>
      <trkpt lat="42.82962" lon="0.56939">
        <ele>1690.662</ele>
        <time>2021-03-21T11:44:53Z</time>
      </trkpt>
      <trkpt lat="42.82961" lon="0.5694">
        <ele>1691.031</ele>
        <time>2021-03-21T11:44:55Z</time>
      </trkpt>
      <trkpt lat="42.82959" lon="0.56941">
        <ele>1690.946</ele>
        <time>2021-03-21T11:44:57Z</time>
      </trkpt>
      <trkpt lat="42.82958" lon="0.56942">
        <ele>1690.799</ele>
        <time>2021-03-21T11:44:59Z</time>
      </trkpt>
      <trkpt lat="42.82956" lon="0.56943">
        <ele>1690.914</ele>
        <time>2021-03-21T11:45:01Z</time>
      </trkpt>
      <trkpt lat="42.82955" lon="0.56944">
        <ele>1691.003</ele>
        <time>2021-03-21T11:45:03Z</time>
      </trkpt>
      <trkpt lat="42.82954" lon="0.56945">
        <ele>1691.769</ele>
        <time>2021-03-21T11:45:05Z</time>
      </trkpt>
      <trkpt lat="42.82953" lon="0.56947">
        <ele>1691.5</ele>
        <time>2021-03-21T11:45:07Z</time>
      </trkpt>
      <trkpt lat="42.82952" lon="0.56948">
        <ele>1691.169</ele>
        <time>2021-03-21T11:45:09Z</time>
      </trkpt>
      <trkpt lat="42.82951" lon="0.5695">
        <ele>1690.73</ele>
        <time>2021-03-21T11:45:11Z</time>
      </trkpt>
      <trkpt lat="42.82949" lon="0.56951">
        <ele>1690.577</ele>
        <time>2021-03-21T11:45:13Z</time>
      </trkpt>
      <trkpt lat="42.82948" lon="0.56952">
        <ele>1690.401</ele>
        <time>2021-03-21T11:45:15Z</time>
      </trkpt>
      <trkpt lat="42.82946" lon="0.56953">
        <ele>1690.813</ele>
        <time>2021-03-21T11:45:17Z</time>
      </trkpt>
      <trkpt lat="42.82945" lon="0.56954">
        <ele>1691.276</ele>
        <time>2021-03-21T11:45:19Z</time>
      </trkpt>
      <trkpt lat="42.82944" lon="0.56956">
        <ele>1691.239</ele>
        <time>2021-03-21T11:45:21Z</time>
      </trkpt>
      <trkpt lat="42.82943" lon="0.56958">
        <ele>1691.004</ele>
        <time>2021-03-21T11:45:23Z</time>
      </trkpt>
      <trkpt lat="42.82942" lon="0.56959">
        <ele>1690.957</ele>
        <time>2021-03-21T11:45:25Z</time>
      </trkpt>
      <trkpt lat="42.8294" lon="0.5696">
        <ele>1690.79</ele>
        <time>2021-03-21T11:45:27Z</time>
      </trkpt>
      <trkpt lat="42.82939" lon="0.56961">
        <ele>1690.647</ele>
        <time>2021-03-21T11:45:29Z</time>
      </trkpt>
      <trkpt lat="42.82938" lon="0.56961">
        <ele>1690.885</ele>
        <time>2021-03-21T11:45:31Z</time>
      </trkpt>
      <trkpt lat="42.82936" lon="0.56959">
        <ele>1691.885</ele>
        <time>2021-03-21T11:45:33Z</time>
      </trkpt>
      <trkpt lat="42.82935" lon="0.56958">
        <ele>1692.568</ele>
        <time>2021-03-21T11:45:35Z</time>
      </trkpt>
      <trkpt lat="42.82935" lon="0.56956">
        <ele>1694.361</ele>
        <time>2021-03-21T11:45:37Z</time>
      </trkpt>
      <trkpt lat="42.82935" lon="0.56955">
        <ele>1694.688</ele>
        <time>2021-03-21T11:45:39Z</time>
      </trkpt>
      <trkpt lat="42.82936" lon="0.56954">
        <ele>1693.835</ele>
        <time>2021-03-21T11:45:41Z</time>
      </trkpt>
      <trkpt lat="42.82936" lon="0.56954">
        <ele>1693.819</ele>
        <time>2021-03-21T11:45:43Z</time>
      </trkpt>
      <trkpt lat="42.82936" lon="0.56954">
        <ele>1692.642</ele>
        <time>2021-03-21T11:45:45Z</time>
      </trkpt>
      <trkpt lat="42.82936" lon="0.56955">
        <ele>1692.439</ele>
        <time>2021-03-21T11:45:47Z</time>
      </trkpt>
      <trkpt lat="42.82936" lon="0.56955">
        <ele>1692.426</ele>
        <time>2021-03-21T11:45:49Z</time>
      </trkpt>
      <trkpt lat="42.82936" lon="0.56955">
        <ele>1692.422</ele>
        <time>2021-03-21T11:45:51Z</time>
      </trkpt>
      <trkpt lat="42.82936" lon="0.56955">
        <ele>1692.412</ele>
        <time>2021-03-21T11:45:53Z</time>
      </trkpt>
      <trkpt lat="42.82936" lon="0.56955">
        <ele>1692.399</ele>
        <time>2021-03-21T11:45:55Z</time>
      </trkpt>
      <trkpt lat="42.82936" lon="0.56955">
        <ele>1691.696</ele>
        <time>2021-03-21T11:45:57Z</time>
      </trkpt>
      <trkpt lat="42.82937" lon="0.56956">
        <ele>1691.244</ele>
        <time>2021-03-21T11:45:59Z</time>
      </trkpt>
      <trkpt lat="42.82938" lon="0.56957">
        <ele>1691.156</ele>
        <time>2021-03-21T11:46:01Z</time>
      </trkpt>
      <trkpt lat="42.82938" lon="0.56957">
        <ele>1691.149</ele>
        <time>2021-03-21T11:46:03Z</time>
      </trkpt>
      <trkpt lat="42.82938" lon="0.56957">
        <ele>1691.144</ele>
        <time>2021-03-21T11:46:05Z</time>
      </trkpt>
      <trkpt lat="42.82938" lon="0.56957">
        <ele>1691.043</ele>
        <time>2021-03-21T11:46:07Z</time>
      </trkpt>
      <trkpt lat="42.82938" lon="0.56957">
        <ele>1691.328</ele>
        <time>2021-03-21T11:46:09Z</time>
      </trkpt>
      <trkpt lat="42.82938" lon="0.56956">
        <ele>1691.33</ele>
        <time>2021-03-21T11:46:11Z</time>
      </trkpt>
      <trkpt lat="42.82938" lon="0.56956">
        <ele>1691.329</ele>
        <time>2021-03-21T11:46:13Z</time>
      </trkpt>
      <trkpt lat="42.82938" lon="0.56956">
        <ele>1691.328</ele>
        <time>2021-03-21T11:46:15Z</time>
      </trkpt>
      <trkpt lat="42.82938" lon="0.56956">
        <ele>1691.326</ele>
        <time>2021-03-21T11:46:17Z</time>
      </trkpt>
      <trkpt lat="42.82938" lon="0.56956">
        <ele>1691.325</ele>
        <time>2021-03-21T11:46:19Z</time>
      </trkpt>
      <trkpt lat="42.82938" lon="0.56956">
        <ele>1691.322</ele>
        <time>2021-03-21T11:46:21Z</time>
      </trkpt>
      <trkpt lat="42.82938" lon="0.56956">
        <ele>1691.324</ele>
        <time>2021-03-21T11:46:23Z</time>
      </trkpt>
      <trkpt lat="42.82938" lon="0.56956">
        <ele>1691.349</ele>
        <time>2021-03-21T11:46:25Z</time>
      </trkpt>
      <trkpt lat="42.82938" lon="0.56957">
        <ele>1691.355</ele>
        <time>2021-03-21T11:46:27Z</time>
      </trkpt>
      <trkpt lat="42.82938" lon="0.56957">
        <ele>1691.354</ele>
        <time>2021-03-21T11:46:29Z</time>
      </trkpt>
      <trkpt lat="42.82938" lon="0.56957">
        <ele>1691.352</ele>
        <time>2021-03-21T11:46:31Z</time>
      </trkpt>
      <trkpt lat="42.82938" lon="0.56957">
        <ele>1691.351</ele>
        <time>2021-03-21T11:46:33Z</time>
      </trkpt>
      <trkpt lat="42.82938" lon="0.56957">
        <ele>1691.065</ele>
        <time>2021-03-21T11:46:35Z</time>
      </trkpt>
      <trkpt lat="42.82938" lon="0.56957">
        <ele>1691.059</ele>
        <time>2021-03-21T11:46:37Z</time>
      </trkpt>
      <trkpt lat="42.82938" lon="0.56957">
        <ele>1691.057</ele>
        <time>2021-03-21T11:46:39Z</time>
      </trkpt>
      <trkpt lat="42.82938" lon="0.56957">
        <ele>1691.06</ele>
        <time>2021-03-21T11:46:41Z</time>
      </trkpt>
      <trkpt lat="42.82938" lon="0.56956">
        <ele>1690.983</ele>
        <time>2021-03-21T11:46:43Z</time>
      </trkpt>
      <trkpt lat="42.82937" lon="0.56956">
        <ele>1690.803</ele>
        <time>2021-03-21T11:46:45Z</time>
      </trkpt>
      <trkpt lat="42.82937" lon="0.56956">
        <ele>1690.663</ele>
        <time>2021-03-21T11:46:47Z</time>
      </trkpt>
      <trkpt lat="42.82937" lon="0.56956">
        <ele>1690.664</ele>
        <time>2021-03-21T11:46:49Z</time>
      </trkpt>
      <trkpt lat="42.82937" lon="0.56957">
        <ele>1690.737</ele>
        <time>2021-03-21T11:46:51Z</time>
      </trkpt>
      <trkpt lat="42.82937" lon="0.56957">
        <ele>1690.73</ele>
        <time>2021-03-21T11:46:53Z</time>
      </trkpt>
      <trkpt lat="42.82937" lon="0.56957">
        <ele>1690.706</ele>
        <time>2021-03-21T11:46:55Z</time>
      </trkpt>
      <trkpt lat="42.82937" lon="0.56957">
        <ele>1690.37</ele>
        <time>2021-03-21T11:46:57Z</time>
      </trkpt>
      <trkpt lat="42.82937" lon="0.56957">
        <ele>1690.369</ele>
        <time>2021-03-21T11:46:59Z</time>
      </trkpt>
      <trkpt lat="42.82937" lon="0.56957">
        <ele>1690.367</ele>
        <time>2021-03-21T11:47:01Z</time>
      </trkpt>
      <trkpt lat="42.82937" lon="0.56957">
        <ele>1690.366</ele>
        <time>2021-03-21T11:47:03Z</time>
      </trkpt>
      <trkpt lat="42.82937" lon="0.56957">
        <ele>1690.36</ele>
        <time>2021-03-21T11:47:05Z</time>
      </trkpt>
      <trkpt lat="42.82937" lon="0.56957">
        <ele>1690.357</ele>
        <time>2021-03-21T11:47:07Z</time>
      </trkpt>
      <trkpt lat="42.82937" lon="0.56957">
        <ele>1690.251</ele>
        <time>2021-03-21T11:47:09Z</time>
      </trkpt>
      <trkpt lat="42.82937" lon="0.56957">
        <ele>1690.324</ele>
        <time>2021-03-21T11:47:11Z</time>
      </trkpt>
      <trkpt lat="42.82937" lon="0.56958">
        <ele>1690.523</ele>
        <time>2021-03-21T11:47:13Z</time>
      </trkpt>
      <trkpt lat="42.82937" lon="0.56958">
        <ele>1690.886</ele>
        <time>2021-03-21T11:47:15Z</time>
      </trkpt>
      <trkpt lat="42.82937" lon="0.56959">
        <ele>1691.015</ele>
        <time>2021-03-21T11:47:17Z</time>
      </trkpt>
      <trkpt lat="42.82937" lon="0.56959">
        <ele>1690.8</ele>
        <time>2021-03-21T11:47:19Z</time>
      </trkpt>
      <trkpt lat="42.82937" lon="0.56959">
        <ele>1690.799</ele>
        <time>2021-03-21T11:47:21Z</time>
      </trkpt>
      <trkpt lat="42.82937" lon="0.56959">
        <ele>1690.791</ele>
        <time>2021-03-21T11:47:23Z</time>
      </trkpt>
      <trkpt lat="42.82937" lon="0.56959">
        <ele>1690.79</ele>
        <time>2021-03-21T11:47:25Z</time>
      </trkpt>
      <trkpt lat="42.82937" lon="0.56959">
        <ele>1690.788</ele>
        <time>2021-03-21T11:47:27Z</time>
      </trkpt>
      <trkpt lat="42.82937" lon="0.56959">
        <ele>1690.605</ele>
        <time>2021-03-21T11:47:29Z</time>
      </trkpt>
      <trkpt lat="42.82937" lon="0.56958">
        <ele>1690.876</ele>
        <time>2021-03-21T11:47:31Z</time>
      </trkpt>
      <trkpt lat="42.82937" lon="0.56958">
        <ele>1690.888</ele>
        <time>2021-03-21T11:47:33Z</time>
      </trkpt>
      <trkpt lat="42.82937" lon="0.56958">
        <ele>1690.882</ele>
        <time>2021-03-21T11:47:35Z</time>
      </trkpt>
      <trkpt lat="42.82937" lon="0.56958">
        <ele>1691.135</ele>
        <time>2021-03-21T11:47:37Z</time>
      </trkpt>
      <trkpt lat="42.82937" lon="0.56958">
        <ele>1691.142</ele>
        <time>2021-03-21T11:47:39Z</time>
      </trkpt>
      <trkpt lat="42.82937" lon="0.56958">
        <ele>1691.468</ele>
        <time>2021-03-21T11:47:41Z</time>
      </trkpt>
      <trkpt lat="42.82937" lon="0.56958">
        <ele>1691.53</ele>
        <time>2021-03-21T11:47:43Z</time>
      </trkpt>
      <trkpt lat="42.82937" lon="0.56958">
        <ele>1691.12</ele>
        <time>2021-03-21T11:47:45Z</time>
      </trkpt>
      <trkpt lat="42.82938" lon="0.56958">
        <ele>1691.882</ele>
        <time>2021-03-21T11:47:47Z</time>
      </trkpt>
      <trkpt lat="42.82938" lon="0.56958">
        <ele>1691.731</ele>
        <time>2021-03-21T11:47:49Z</time>
      </trkpt>
      <trkpt lat="42.82938" lon="0.56958">
        <ele>1692.078</ele>
        <time>2021-03-21T11:47:51Z</time>
      </trkpt>
      <trkpt lat="42.82938" lon="0.56959">
        <ele>1691.897</ele>
        <time>2021-03-21T11:47:53Z</time>
      </trkpt>
      <trkpt lat="42.82938" lon="0.56959">
        <ele>1691.407</ele>
        <time>2021-03-21T11:47:55Z</time>
      </trkpt>
      <trkpt lat="42.82938" lon="0.56959">
        <ele>1691.188</ele>
        <time>2021-03-21T11:47:57Z</time>
      </trkpt>
      <trkpt lat="42.82938" lon="0.56959">
        <ele>1691.132</ele>
        <time>2021-03-21T11:47:59Z</time>
      </trkpt>
      <trkpt lat="42.82938" lon="0.56959">
        <ele>1690.872</ele>
        <time>2021-03-21T11:48:01Z</time>
      </trkpt>
      <trkpt lat="42.82938" lon="0.56959">
        <ele>1690.449</ele>
        <time>2021-03-21T11:48:03Z</time>
      </trkpt>
      <trkpt lat="42.82938" lon="0.56959">
        <ele>1690.442</ele>
        <time>2021-03-21T11:48:05Z</time>
      </trkpt>
      <trkpt lat="42.82938" lon="0.5696">
        <ele>1690.434</ele>
        <time>2021-03-21T11:48:07Z</time>
      </trkpt>
      <trkpt lat="42.82938" lon="0.56959">
        <ele>1690.409</ele>
        <time>2021-03-21T11:48:09Z</time>
      </trkpt>
      <trkpt lat="42.82938" lon="0.5696">
        <ele>1690.385</ele>
        <time>2021-03-21T11:48:11Z</time>
      </trkpt>
      <trkpt lat="42.82938" lon="0.5696">
        <ele>1690.759</ele>
        <time>2021-03-21T11:48:13Z</time>
      </trkpt>
      <trkpt lat="42.82938" lon="0.56959">
        <ele>1690.444</ele>
        <time>2021-03-21T11:48:15Z</time>
      </trkpt>
      <trkpt lat="42.82938" lon="0.56959">
        <ele>1690.443</ele>
        <time>2021-03-21T11:48:17Z</time>
      </trkpt>
      <trkpt lat="42.82938" lon="0.5696">
        <ele>1690.12</ele>
        <time>2021-03-21T11:48:19Z</time>
      </trkpt>
      <trkpt lat="42.82938" lon="0.5696">
        <ele>1689.827</ele>
        <time>2021-03-21T11:48:21Z</time>
      </trkpt>
      <trkpt lat="42.82938" lon="0.5696">
        <ele>1690.048</ele>
        <time>2021-03-21T11:48:23Z</time>
      </trkpt>
      <trkpt lat="42.82938" lon="0.56959">
        <ele>1689.675</ele>
        <time>2021-03-21T11:48:25Z</time>
      </trkpt>
      <trkpt lat="42.82938" lon="0.5696">
        <ele>1689.137</ele>
        <time>2021-03-21T11:48:27Z</time>
      </trkpt>
      <trkpt lat="42.82938" lon="0.5696">
        <ele>1689.169</ele>
        <time>2021-03-21T11:48:29Z</time>
      </trkpt>
      <trkpt lat="42.82938" lon="0.5696">
        <ele>1688.911</ele>
        <time>2021-03-21T11:48:31Z</time>
      </trkpt>
      <trkpt lat="42.82938" lon="0.56959">
        <ele>1688.904</ele>
        <time>2021-03-21T11:48:33Z</time>
      </trkpt>
      <trkpt lat="42.82938" lon="0.56959">
        <ele>1688.901</ele>
        <time>2021-03-21T11:48:35Z</time>
      </trkpt>
      <trkpt lat="42.82938" lon="0.56959">
        <ele>1689.06</ele>
        <time>2021-03-21T11:48:37Z</time>
      </trkpt>
      <trkpt lat="42.82938" lon="0.56959">
        <ele>1689.06</ele>
        <time>2021-03-21T11:48:39Z</time>
      </trkpt>
      <trkpt lat="42.82938" lon="0.56959">
        <ele>1689.06</ele>
        <time>2021-03-21T11:48:41Z</time>
      </trkpt>
      <trkpt lat="42.82938" lon="0.56959">
        <ele>1689.057</ele>
        <time>2021-03-21T11:48:43Z</time>
      </trkpt>
      <trkpt lat="42.82938" lon="0.56959">
        <ele>1689.056</ele>
        <time>2021-03-21T11:48:45Z</time>
      </trkpt>
      <trkpt lat="42.82938" lon="0.56959">
        <ele>1689.06</ele>
        <time>2021-03-21T11:48:47Z</time>
      </trkpt>
      <trkpt lat="42.82938" lon="0.56959">
        <ele>1689.059</ele>
        <time>2021-03-21T11:48:49Z</time>
      </trkpt>
      <trkpt lat="42.82938" lon="0.56959">
        <ele>1689.055</ele>
        <time>2021-03-21T11:48:51Z</time>
      </trkpt>
      <trkpt lat="42.82938" lon="0.56959">
        <ele>1689.06</ele>
        <time>2021-03-21T11:48:53Z</time>
      </trkpt>
      <trkpt lat="42.82938" lon="0.56959">
        <ele>1689.061</ele>
        <time>2021-03-21T11:48:55Z</time>
      </trkpt>
      <trkpt lat="42.82938" lon="0.56959">
        <ele>1689.064</ele>
        <time>2021-03-21T11:48:57Z</time>
      </trkpt>
      <trkpt lat="42.82938" lon="0.56959">
        <ele>1689.06</ele>
        <time>2021-03-21T11:48:59Z</time>
      </trkpt>
      <trkpt lat="42.82938" lon="0.56959">
        <ele>1688.955</ele>
        <time>2021-03-21T11:49:01Z</time>
      </trkpt>
      <trkpt lat="42.82938" lon="0.56959">
        <ele>1688.963</ele>
        <time>2021-03-21T11:49:03Z</time>
      </trkpt>
      <trkpt lat="42.82938" lon="0.56959">
        <ele>1688.911</ele>
        <time>2021-03-21T11:49:05Z</time>
      </trkpt>
      <trkpt lat="42.82938" lon="0.5696">
        <ele>1689.051</ele>
        <time>2021-03-21T11:49:07Z</time>
      </trkpt>
      <trkpt lat="42.82938" lon="0.56961">
        <ele>1688.757</ele>
        <time>2021-03-21T11:49:09Z</time>
      </trkpt>
      <trkpt lat="42.82939" lon="0.56961">
        <ele>1688.242</ele>
        <time>2021-03-21T11:49:11Z</time>
      </trkpt>
      <trkpt lat="42.82939" lon="0.56961">
        <ele>1688.243</ele>
        <time>2021-03-21T11:49:13Z</time>
      </trkpt>
      <trkpt lat="42.82939" lon="0.56961">
        <ele>1688.244</ele>
        <time>2021-03-21T11:49:15Z</time>
      </trkpt>
      <trkpt lat="42.82939" lon="0.56961">
        <ele>1688.243</ele>
        <time>2021-03-21T11:49:17Z</time>
      </trkpt>
      <trkpt lat="42.82939" lon="0.56961">
        <ele>1688.659</ele>
        <time>2021-03-21T11:49:19Z</time>
      </trkpt>
      <trkpt lat="42.82939" lon="0.56961">
        <ele>1688.674</ele>
        <time>2021-03-21T11:49:21Z</time>
      </trkpt>
      <trkpt lat="42.82939" lon="0.56961">
        <ele>1688.673</ele>
        <time>2021-03-21T11:49:23Z</time>
      </trkpt>
      <trkpt lat="42.82939" lon="0.56961">
        <ele>1688.677</ele>
        <time>2021-03-21T11:49:25Z</time>
      </trkpt>
      <trkpt lat="42.82939" lon="0.56961">
        <ele>1688.679</ele>
        <time>2021-03-21T11:49:27Z</time>
      </trkpt>
      <trkpt lat="42.82939" lon="0.56961">
        <ele>1688.677</ele>
        <time>2021-03-21T11:49:29Z</time>
      </trkpt>
      <trkpt lat="42.82939" lon="0.5696">
        <ele>1688.191</ele>
        <time>2021-03-21T11:49:31Z</time>
      </trkpt>
      <trkpt lat="42.82939" lon="0.56959">
        <ele>1687.625</ele>
        <time>2021-03-21T11:49:33Z</time>
      </trkpt>
      <trkpt lat="42.82939" lon="0.56959">
        <ele>1687.296</ele>
        <time>2021-03-21T11:49:35Z</time>
      </trkpt>
      <trkpt lat="42.82939" lon="0.56959">
        <ele>1687.27</ele>
        <time>2021-03-21T11:49:37Z</time>
      </trkpt>
      <trkpt lat="42.82939" lon="0.56959">
        <ele>1687.264</ele>
        <time>2021-03-21T11:49:39Z</time>
      </trkpt>
      <trkpt lat="42.82939" lon="0.56959">
        <ele>1687.26</ele>
        <time>2021-03-21T11:49:41Z</time>
      </trkpt>
      <trkpt lat="42.82939" lon="0.56959">
        <ele>1687.255</ele>
        <time>2021-03-21T11:49:43Z</time>
      </trkpt>
      <trkpt lat="42.82939" lon="0.56959">
        <ele>1687.247</ele>
        <time>2021-03-21T11:49:45Z</time>
      </trkpt>
      <trkpt lat="42.82939" lon="0.56959">
        <ele>1687.244</ele>
        <time>2021-03-21T11:49:47Z</time>
      </trkpt>
      <trkpt lat="42.82939" lon="0.5696">
        <ele>1687.468</ele>
        <time>2021-03-21T11:49:49Z</time>
      </trkpt>
      <trkpt lat="42.82939" lon="0.5696">
        <ele>1687.467</ele>
        <time>2021-03-21T11:49:51Z</time>
      </trkpt>
      <trkpt lat="42.82939" lon="0.5696">
        <ele>1687.24</ele>
        <time>2021-03-21T11:49:53Z</time>
      </trkpt>
      <trkpt lat="42.82939" lon="0.56959">
        <ele>1687.243</ele>
        <time>2021-03-21T11:49:55Z</time>
      </trkpt>
      <trkpt lat="42.82939" lon="0.56959">
        <ele>1687.111</ele>
        <time>2021-03-21T11:49:57Z</time>
      </trkpt>
      <trkpt lat="42.82939" lon="0.56959">
        <ele>1687.109</ele>
        <time>2021-03-21T11:49:59Z</time>
      </trkpt>
      <trkpt lat="42.82939" lon="0.56959">
        <ele>1687.106</ele>
        <time>2021-03-21T11:50:01Z</time>
      </trkpt>
      <trkpt lat="42.82939" lon="0.56959">
        <ele>1687.105</ele>
        <time>2021-03-21T11:50:03Z</time>
      </trkpt>
      <trkpt lat="42.82939" lon="0.56959">
        <ele>1687.114</ele>
        <time>2021-03-21T11:50:05Z</time>
      </trkpt>
      <trkpt lat="42.82939" lon="0.56959">
        <ele>1687.111</ele>
        <time>2021-03-21T11:50:07Z</time>
      </trkpt>
      <trkpt lat="42.82939" lon="0.56959">
        <ele>1687.113</ele>
        <time>2021-03-21T11:50:09Z</time>
      </trkpt>
      <trkpt lat="42.82939" lon="0.56959">
        <ele>1687.112</ele>
        <time>2021-03-21T11:50:11Z</time>
      </trkpt>
      <trkpt lat="42.82939" lon="0.5696">
        <ele>1687.531</ele>
        <time>2021-03-21T11:50:13Z</time>
      </trkpt>
      <trkpt lat="42.82939" lon="0.5696">
        <ele>1687.404</ele>
        <time>2021-03-21T11:50:15Z</time>
      </trkpt>
      <trkpt lat="42.82938" lon="0.5696">
        <ele>1687.281</ele>
        <time>2021-03-21T11:50:17Z</time>
      </trkpt>
      <trkpt lat="42.82938" lon="0.56959">
        <ele>1687.162</ele>
        <time>2021-03-21T11:50:19Z</time>
      </trkpt>
      <trkpt lat="42.82937" lon="0.56959">
        <ele>1687.154</ele>
        <time>2021-03-21T11:50:21Z</time>
      </trkpt>
      <trkpt lat="42.82937" lon="0.56959">
        <ele>1687.155</ele>
        <time>2021-03-21T11:50:23Z</time>
      </trkpt>
      <trkpt lat="42.82937" lon="0.56959">
        <ele>1686.772</ele>
        <time>2021-03-21T11:50:25Z</time>
      </trkpt>
      <trkpt lat="42.82937" lon="0.56959">
        <ele>1686.775</ele>
        <time>2021-03-21T11:50:27Z</time>
      </trkpt>
      <trkpt lat="42.82937" lon="0.56959">
        <ele>1686.783</ele>
        <time>2021-03-21T11:50:29Z</time>
      </trkpt>
      <trkpt lat="42.82937" lon="0.56959">
        <ele>1686.793</ele>
        <time>2021-03-21T11:50:31Z</time>
      </trkpt>
      <trkpt lat="42.82937" lon="0.56959">
        <ele>1686.8</ele>
        <time>2021-03-21T11:50:33Z</time>
      </trkpt>
      <trkpt lat="42.82937" lon="0.56959">
        <ele>1686.807</ele>
        <time>2021-03-21T11:50:35Z</time>
      </trkpt>
      <trkpt lat="42.82937" lon="0.56959">
        <ele>1686.811</ele>
        <time>2021-03-21T11:50:37Z</time>
      </trkpt>
      <trkpt lat="42.82937" lon="0.56959">
        <ele>1686.818</ele>
        <time>2021-03-21T11:50:39Z</time>
      </trkpt>
      <trkpt lat="42.82937" lon="0.56959">
        <ele>1686.828</ele>
        <time>2021-03-21T11:50:41Z</time>
      </trkpt>
      <trkpt lat="42.82937" lon="0.56959">
        <ele>1686.837</ele>
        <time>2021-03-21T11:50:43Z</time>
      </trkpt>
      <trkpt lat="42.82937" lon="0.56959">
        <ele>1686.843</ele>
        <time>2021-03-21T11:50:45Z</time>
      </trkpt>
      <trkpt lat="42.82937" lon="0.56959">
        <ele>1686.845</ele>
        <time>2021-03-21T11:50:47Z</time>
      </trkpt>
      <trkpt lat="42.82937" lon="0.56959">
        <ele>1686.852</ele>
        <time>2021-03-21T11:50:49Z</time>
      </trkpt>
      <trkpt lat="42.82937" lon="0.56959">
        <ele>1686.855</ele>
        <time>2021-03-21T11:50:51Z</time>
      </trkpt>
      <trkpt lat="42.82937" lon="0.56959">
        <ele>1686.861</ele>
        <time>2021-03-21T11:50:53Z</time>
      </trkpt>
      <trkpt lat="42.82937" lon="0.56959">
        <ele>1686.864</ele>
        <time>2021-03-21T11:50:55Z</time>
      </trkpt>
      <trkpt lat="42.82937" lon="0.56959">
        <ele>1686.993</ele>
        <time>2021-03-21T11:50:57Z</time>
      </trkpt>
      <trkpt lat="42.82937" lon="0.56959">
        <ele>1686.996</ele>
        <time>2021-03-21T11:50:59Z</time>
      </trkpt>
      <trkpt lat="42.82937" lon="0.56958">
        <ele>1686.99</ele>
        <time>2021-03-21T11:51:01Z</time>
      </trkpt>
      <trkpt lat="42.82937" lon="0.56958">
        <ele>1687.196</ele>
        <time>2021-03-21T11:51:03Z</time>
      </trkpt>
      <trkpt lat="42.82937" lon="0.56958">
        <ele>1687.201</ele>
        <time>2021-03-21T11:51:05Z</time>
      </trkpt>
      <trkpt lat="42.82937" lon="0.56958">
        <ele>1687.075</ele>
        <time>2021-03-21T11:51:07Z</time>
      </trkpt>
      <trkpt lat="42.82938" lon="0.56958">
        <ele>1687.014</ele>
        <time>2021-03-21T11:51:09Z</time>
      </trkpt>
      <trkpt lat="42.82938" lon="0.56958">
        <ele>1686.692</ele>
        <time>2021-03-21T11:51:11Z</time>
      </trkpt>
      <trkpt lat="42.82938" lon="0.56958">
        <ele>1687.046</ele>
        <time>2021-03-21T11:51:13Z</time>
      </trkpt>
      <trkpt lat="42.82938" lon="0.56958">
        <ele>1687.205</ele>
        <time>2021-03-21T11:51:15Z</time>
      </trkpt>
      <trkpt lat="42.82938" lon="0.56958">
        <ele>1687.179</ele>
        <time>2021-03-21T11:51:17Z</time>
      </trkpt>
      <trkpt lat="42.82937" lon="0.56958">
        <ele>1686.879</ele>
        <time>2021-03-21T11:51:19Z</time>
      </trkpt>
      <trkpt lat="42.82937" lon="0.56957">
        <ele>1686.886</ele>
        <time>2021-03-21T11:51:21Z</time>
      </trkpt>
      <trkpt lat="42.82937" lon="0.56956">
        <ele>1686.708</ele>
        <time>2021-03-21T11:51:23Z</time>
      </trkpt>
      <trkpt lat="42.82937" lon="0.56956">
        <ele>1686.7</ele>
        <time>2021-03-21T11:51:25Z</time>
      </trkpt>
      <trkpt lat="42.82937" lon="0.56956">
        <ele>1686.701</ele>
        <time>2021-03-21T11:51:27Z</time>
      </trkpt>
      <trkpt lat="42.82937" lon="0.56956">
        <ele>1686.698</ele>
        <time>2021-03-21T11:51:29Z</time>
      </trkpt>
      <trkpt lat="42.82937" lon="0.56956">
        <ele>1686.49</ele>
        <time>2021-03-21T11:51:31Z</time>
      </trkpt>
      <trkpt lat="42.82937" lon="0.56956">
        <ele>1686.541</ele>
        <time>2021-03-21T11:51:33Z</time>
      </trkpt>
      <trkpt lat="42.82937" lon="0.56956">
        <ele>1686.533</ele>
        <time>2021-03-21T11:51:35Z</time>
      </trkpt>
      <trkpt lat="42.82937" lon="0.56956">
        <ele>1686.542</ele>
        <time>2021-03-21T11:51:37Z</time>
      </trkpt>
      <trkpt lat="42.82937" lon="0.56956">
        <ele>1686.648</ele>
        <time>2021-03-21T11:51:39Z</time>
      </trkpt>
      <trkpt lat="42.82938" lon="0.56956">
        <ele>1687.062</ele>
        <time>2021-03-21T11:51:41Z</time>
      </trkpt>
      <trkpt lat="42.82937" lon="0.56955">
        <ele>1686.989</ele>
        <time>2021-03-21T11:51:43Z</time>
      </trkpt>
      <trkpt lat="42.82937" lon="0.56956">
        <ele>1686.883</ele>
        <time>2021-03-21T11:51:45Z</time>
      </trkpt>
      <trkpt lat="42.82936" lon="0.56954">
        <ele>1686.352</ele>
        <time>2021-03-21T11:51:47Z</time>
      </trkpt>
      <trkpt lat="42.82936" lon="0.56954">
        <ele>1686.351</ele>
        <time>2021-03-21T11:51:49Z</time>
      </trkpt>
      <trkpt lat="42.82936" lon="0.56954">
        <ele>1686.351</ele>
        <time>2021-03-21T11:51:51Z</time>
      </trkpt>
      <trkpt lat="42.82936" lon="0.56954">
        <ele>1686.352</ele>
        <time>2021-03-21T11:51:53Z</time>
      </trkpt>
      <trkpt lat="42.82936" lon="0.56954">
        <ele>1686.351</ele>
        <time>2021-03-21T11:51:55Z</time>
      </trkpt>
      <trkpt lat="42.82936" lon="0.56954">
        <ele>1686.679</ele>
        <time>2021-03-21T11:51:57Z</time>
      </trkpt>
      <trkpt lat="42.82936" lon="0.56954">
        <ele>1686.685</ele>
        <time>2021-03-21T11:51:59Z</time>
      </trkpt>
      <trkpt lat="42.82936" lon="0.56954">
        <ele>1686.691</ele>
        <time>2021-03-21T11:52:01Z</time>
      </trkpt>
      <trkpt lat="42.82936" lon="0.56954">
        <ele>1686.687</ele>
        <time>2021-03-21T11:52:03Z</time>
      </trkpt>
      <trkpt lat="42.82936" lon="0.56954">
        <ele>1686.691</ele>
        <time>2021-03-21T11:52:05Z</time>
      </trkpt>
      <trkpt lat="42.82936" lon="0.56954">
        <ele>1686.7</ele>
        <time>2021-03-21T11:52:07Z</time>
      </trkpt>
      <trkpt lat="42.82936" lon="0.56954">
        <ele>1686.697</ele>
        <time>2021-03-21T11:52:09Z</time>
      </trkpt>
      <trkpt lat="42.82936" lon="0.56954">
        <ele>1686.699</ele>
        <time>2021-03-21T11:52:11Z</time>
      </trkpt>
      <trkpt lat="42.82936" lon="0.56954">
        <ele>1686.703</ele>
        <time>2021-03-21T11:52:13Z</time>
      </trkpt>
      <trkpt lat="42.82936" lon="0.56954">
        <ele>1686.7</ele>
        <time>2021-03-21T11:52:15Z</time>
      </trkpt>
      <trkpt lat="42.82936" lon="0.56954">
        <ele>1687.131</ele>
        <time>2021-03-21T11:52:17Z</time>
      </trkpt>
      <trkpt lat="42.82937" lon="0.56955">
        <ele>1685.934</ele>
        <time>2021-03-21T11:52:19Z</time>
      </trkpt>
      <trkpt lat="42.82938" lon="0.56954">
        <ele>1686.103</ele>
        <time>2021-03-21T11:52:21Z</time>
      </trkpt>
      <trkpt lat="42.82939" lon="0.56954">
        <ele>1685.909</ele>
        <time>2021-03-21T11:52:23Z</time>
      </trkpt>
      <trkpt lat="42.82939" lon="0.56954">
        <ele>1685.889</ele>
        <time>2021-03-21T11:52:25Z</time>
      </trkpt>
      <trkpt lat="42.82938" lon="0.56954">
        <ele>1684.786</ele>
        <time>2021-03-21T11:52:27Z</time>
      </trkpt>
      <trkpt lat="42.82938" lon="0.56953">
        <ele>1684.463</ele>
        <time>2021-03-21T11:52:29Z</time>
      </trkpt>
      <trkpt lat="42.82939" lon="0.56953">
        <ele>1684.301</ele>
        <time>2021-03-21T11:52:31Z</time>
      </trkpt>
      <trkpt lat="42.82939" lon="0.56953">
        <ele>1684.265</ele>
        <time>2021-03-21T11:52:33Z</time>
      </trkpt>
      <trkpt lat="42.82939" lon="0.56953">
        <ele>1684.259</ele>
        <time>2021-03-21T11:52:35Z</time>
      </trkpt>
      <trkpt lat="42.82939" lon="0.56953">
        <ele>1684.257</ele>
        <time>2021-03-21T11:52:37Z</time>
      </trkpt>
      <trkpt lat="42.82939" lon="0.56953">
        <ele>1684.246</ele>
        <time>2021-03-21T11:52:39Z</time>
      </trkpt>
      <trkpt lat="42.82939" lon="0.56953">
        <ele>1684.258</ele>
        <time>2021-03-21T11:52:41Z</time>
      </trkpt>
      <trkpt lat="42.82939" lon="0.56953">
        <ele>1684.256</ele>
        <time>2021-03-21T11:52:43Z</time>
      </trkpt>
      <trkpt lat="42.82939" lon="0.56953">
        <ele>1684.442</ele>
        <time>2021-03-21T11:52:45Z</time>
      </trkpt>
      <trkpt lat="42.82939" lon="0.56953">
        <ele>1683.755</ele>
        <time>2021-03-21T11:52:47Z</time>
      </trkpt>
      <trkpt lat="42.82939" lon="0.56953">
        <ele>1683.756</ele>
        <time>2021-03-21T11:52:49Z</time>
      </trkpt>
      <trkpt lat="42.82939" lon="0.56952">
        <ele>1683.633</ele>
        <time>2021-03-21T11:52:51Z</time>
      </trkpt>
      <trkpt lat="42.82939" lon="0.56952">
        <ele>1683.634</ele>
        <time>2021-03-21T11:52:53Z</time>
      </trkpt>
      <trkpt lat="42.82938" lon="0.56953">
        <ele>1683.39</ele>
        <time>2021-03-21T11:52:55Z</time>
      </trkpt>
      <trkpt lat="42.82938" lon="0.56953">
        <ele>1683.522</ele>
        <time>2021-03-21T11:52:57Z</time>
      </trkpt>
      <trkpt lat="42.82938" lon="0.56953">
        <ele>1684.247</ele>
        <time>2021-03-21T11:52:59Z</time>
      </trkpt>
      <trkpt lat="42.82938" lon="0.56953">
        <ele>1684.244</ele>
        <time>2021-03-21T11:53:01Z</time>
      </trkpt>
      <trkpt lat="42.82938" lon="0.56953">
        <ele>1684.244</ele>
        <time>2021-03-21T11:53:03Z</time>
      </trkpt>
      <trkpt lat="42.82939" lon="0.56953">
        <ele>1684.843</ele>
        <time>2021-03-21T11:53:05Z</time>
      </trkpt>
      <trkpt lat="42.82939" lon="0.56953">
        <ele>1684.819</ele>
        <time>2021-03-21T11:53:07Z</time>
      </trkpt>
      <trkpt lat="42.82938" lon="0.56953">
        <ele>1685.763</ele>
        <time>2021-03-21T11:53:09Z</time>
      </trkpt>
      <trkpt lat="42.82938" lon="0.56952">
        <ele>1685.662</ele>
        <time>2021-03-21T11:53:11Z</time>
      </trkpt>
      <trkpt lat="42.82937" lon="0.56951">
        <ele>1685.689</ele>
        <time>2021-03-21T11:53:13Z</time>
      </trkpt>
      <trkpt lat="42.82937" lon="0.56951">
        <ele>1685.696</ele>
        <time>2021-03-21T11:53:15Z</time>
      </trkpt>
      <trkpt lat="42.82937" lon="0.56951">
        <ele>1685.696</ele>
        <time>2021-03-21T11:53:17Z</time>
      </trkpt>
      <trkpt lat="42.82937" lon="0.56951">
        <ele>1685.697</ele>
        <time>2021-03-21T11:53:19Z</time>
      </trkpt>
      <trkpt lat="42.82937" lon="0.56951">
        <ele>1685.696</ele>
        <time>2021-03-21T11:53:21Z</time>
      </trkpt>
      <trkpt lat="42.82937" lon="0.56951">
        <ele>1685.697</ele>
        <time>2021-03-21T11:53:23Z</time>
      </trkpt>
      <trkpt lat="42.82937" lon="0.56951">
        <ele>1685.697</ele>
        <time>2021-03-21T11:53:25Z</time>
      </trkpt>
      <trkpt lat="42.82937" lon="0.56951">
        <ele>1685.697</ele>
        <time>2021-03-21T11:53:27Z</time>
      </trkpt>
      <trkpt lat="42.82937" lon="0.56951">
        <ele>1685.697</ele>
        <time>2021-03-21T11:53:29Z</time>
      </trkpt>
      <trkpt lat="42.82937" lon="0.56951">
        <ele>1685.699</ele>
        <time>2021-03-21T11:53:31Z</time>
      </trkpt>
      <trkpt lat="42.82937" lon="0.56951">
        <ele>1685.701</ele>
        <time>2021-03-21T11:53:33Z</time>
      </trkpt>
      <trkpt lat="42.82937" lon="0.56951">
        <ele>1685.7</ele>
        <time>2021-03-21T11:53:35Z</time>
      </trkpt>
      <trkpt lat="42.82937" lon="0.56951">
        <ele>1685.7</ele>
        <time>2021-03-21T11:53:37Z</time>
      </trkpt>
      <trkpt lat="42.82937" lon="0.56951">
        <ele>1685.699</ele>
        <time>2021-03-21T11:53:39Z</time>
      </trkpt>
      <trkpt lat="42.82937" lon="0.56951">
        <ele>1685.7</ele>
        <time>2021-03-21T11:53:41Z</time>
      </trkpt>
      <trkpt lat="42.82937" lon="0.56951">
        <ele>1685.7</ele>
        <time>2021-03-21T11:53:43Z</time>
      </trkpt>
      <trkpt lat="42.82937" lon="0.56951">
        <ele>1685.701</ele>
        <time>2021-03-21T11:53:45Z</time>
      </trkpt>
      <trkpt lat="42.82937" lon="0.56951">
        <ele>1685.699</ele>
        <time>2021-03-21T11:53:47Z</time>
      </trkpt>
      <trkpt lat="42.82937" lon="0.56951">
        <ele>1685.699</ele>
        <time>2021-03-21T11:53:49Z</time>
      </trkpt>
      <trkpt lat="42.82937" lon="0.56951">
        <ele>1685.699</ele>
        <time>2021-03-21T11:53:51Z</time>
      </trkpt>
      <trkpt lat="42.82937" lon="0.56951">
        <ele>1685.7</ele>
        <time>2021-03-21T11:53:53Z</time>
      </trkpt>
      <trkpt lat="42.82937" lon="0.56951">
        <ele>1686.026</ele>
        <time>2021-03-21T11:53:55Z</time>
      </trkpt>
      <trkpt lat="42.82938" lon="0.56951">
        <ele>1686.084</ele>
        <time>2021-03-21T11:53:57Z</time>
      </trkpt>
      <trkpt lat="42.82938" lon="0.56951">
        <ele>1686.079</ele>
        <time>2021-03-21T11:53:59Z</time>
      </trkpt>
      <trkpt lat="42.82938" lon="0.56951">
        <ele>1686.081</ele>
        <time>2021-03-21T11:54:01Z</time>
      </trkpt>
      <trkpt lat="42.82938" lon="0.56951">
        <ele>1686.083</ele>
        <time>2021-03-21T11:54:03Z</time>
      </trkpt>
      <trkpt lat="42.82938" lon="0.56951">
        <ele>1686.084</ele>
        <time>2021-03-21T11:54:05Z</time>
      </trkpt>
      <trkpt lat="42.82938" lon="0.56951">
        <ele>1686.085</ele>
        <time>2021-03-21T11:54:07Z</time>
      </trkpt>
      <trkpt lat="42.82938" lon="0.56951">
        <ele>1686.089</ele>
        <time>2021-03-21T11:54:09Z</time>
      </trkpt>
      <trkpt lat="42.82938" lon="0.56951">
        <ele>1686.089</ele>
        <time>2021-03-21T11:54:11Z</time>
      </trkpt>
      <trkpt lat="42.82938" lon="0.56951">
        <ele>1686.09</ele>
        <time>2021-03-21T11:54:13Z</time>
      </trkpt>
      <trkpt lat="42.82938" lon="0.56951">
        <ele>1686.09</ele>
        <time>2021-03-21T11:54:15Z</time>
      </trkpt>
      <trkpt lat="42.82938" lon="0.56951">
        <ele>1686.09</ele>
        <time>2021-03-21T11:54:17Z</time>
      </trkpt>
      <trkpt lat="42.82938" lon="0.56951">
        <ele>1686.09</ele>
        <time>2021-03-21T11:54:19Z</time>
      </trkpt>
      <trkpt lat="42.82938" lon="0.56951">
        <ele>1686.091</ele>
        <time>2021-03-21T11:54:21Z</time>
      </trkpt>
      <trkpt lat="42.82938" lon="0.56951">
        <ele>1686.091</ele>
        <time>2021-03-21T11:54:23Z</time>
      </trkpt>
      <trkpt lat="42.82938" lon="0.56951">
        <ele>1686.091</ele>
        <time>2021-03-21T11:54:25Z</time>
      </trkpt>
      <trkpt lat="42.82938" lon="0.56951">
        <ele>1686.091</ele>
        <time>2021-03-21T11:54:27Z</time>
      </trkpt>
      <trkpt lat="42.82938" lon="0.56951">
        <ele>1686.091</ele>
        <time>2021-03-21T11:54:29Z</time>
      </trkpt>
      <trkpt lat="42.82938" lon="0.56951">
        <ele>1686.091</ele>
        <time>2021-03-21T11:54:31Z</time>
      </trkpt>
      <trkpt lat="42.82938" lon="0.56951">
        <ele>1686.093</ele>
        <time>2021-03-21T11:54:33Z</time>
      </trkpt>
      <trkpt lat="42.82938" lon="0.56951">
        <ele>1686.093</ele>
        <time>2021-03-21T11:54:35Z</time>
      </trkpt>
      <trkpt lat="42.82938" lon="0.56951">
        <ele>1686.097</ele>
        <time>2021-03-21T11:54:37Z</time>
      </trkpt>
      <trkpt lat="42.82938" lon="0.56951">
        <ele>1686.096</ele>
        <time>2021-03-21T11:54:39Z</time>
      </trkpt>
      <trkpt lat="42.82938" lon="0.56951">
        <ele>1686.097</ele>
        <time>2021-03-21T11:54:41Z</time>
      </trkpt>
      <trkpt lat="42.82938" lon="0.56951">
        <ele>1686.097</ele>
        <time>2021-03-21T11:54:43Z</time>
      </trkpt>
      <trkpt lat="42.82938" lon="0.56951">
        <ele>1686.098</ele>
        <time>2021-03-21T11:54:45Z</time>
      </trkpt>
      <trkpt lat="42.82938" lon="0.56951">
        <ele>1686.095</ele>
        <time>2021-03-21T11:54:47Z</time>
      </trkpt>
      <trkpt lat="42.82938" lon="0.56951">
        <ele>1686.095</ele>
        <time>2021-03-21T11:54:49Z</time>
      </trkpt>
      <trkpt lat="42.82938" lon="0.56951">
        <ele>1686.095</ele>
        <time>2021-03-21T11:54:51Z</time>
      </trkpt>
      <trkpt lat="42.82938" lon="0.56951">
        <ele>1686.095</ele>
        <time>2021-03-21T11:54:53Z</time>
      </trkpt>
      <trkpt lat="42.82938" lon="0.56951">
        <ele>1686.095</ele>
        <time>2021-03-21T11:54:55Z</time>
      </trkpt>
      <trkpt lat="42.82938" lon="0.56951">
        <ele>1686.098</ele>
        <time>2021-03-21T11:54:57Z</time>
      </trkpt>
      <trkpt lat="42.82938" lon="0.56951">
        <ele>1686.098</ele>
        <time>2021-03-21T11:54:59Z</time>
      </trkpt>
      <trkpt lat="42.82938" lon="0.56951">
        <ele>1686.092</ele>
        <time>2021-03-21T11:55:01Z</time>
      </trkpt>
      <trkpt lat="42.82938" lon="0.56951">
        <ele>1686.093</ele>
        <time>2021-03-21T11:55:03Z</time>
      </trkpt>
      <trkpt lat="42.82938" lon="0.56951">
        <ele>1686.095</ele>
        <time>2021-03-21T11:55:05Z</time>
      </trkpt>
      <trkpt lat="42.82938" lon="0.56951">
        <ele>1686.096</ele>
        <time>2021-03-21T11:55:07Z</time>
      </trkpt>
      <trkpt lat="42.82938" lon="0.56951">
        <ele>1686.097</ele>
        <time>2021-03-21T11:55:09Z</time>
      </trkpt>
      <trkpt lat="42.82938" lon="0.56951">
        <ele>1686.096</ele>
        <time>2021-03-21T11:55:11Z</time>
      </trkpt>
      <trkpt lat="42.82938" lon="0.56951">
        <ele>1686.096</ele>
        <time>2021-03-21T11:55:13Z</time>
      </trkpt>
      <trkpt lat="42.82938" lon="0.56951">
        <ele>1686.098</ele>
        <time>2021-03-21T11:55:15Z</time>
      </trkpt>
      <trkpt lat="42.82938" lon="0.56951">
        <ele>1686.099</ele>
        <time>2021-03-21T11:55:17Z</time>
      </trkpt>
      <trkpt lat="42.82938" lon="0.56951">
        <ele>1686.097</ele>
        <time>2021-03-21T11:55:19Z</time>
      </trkpt>
      <trkpt lat="42.82938" lon="0.56951">
        <ele>1686.094</ele>
        <time>2021-03-21T11:55:21Z</time>
      </trkpt>
      <trkpt lat="42.82938" lon="0.56951">
        <ele>1686.092</ele>
        <time>2021-03-21T11:55:23Z</time>
      </trkpt>
      <trkpt lat="42.82938" lon="0.56951">
        <ele>1686.094</ele>
        <time>2021-03-21T11:55:25Z</time>
      </trkpt>
      <trkpt lat="42.82938" lon="0.56951">
        <ele>1686.092</ele>
        <time>2021-03-21T11:55:27Z</time>
      </trkpt>
      <trkpt lat="42.82938" lon="0.56951">
        <ele>1686.096</ele>
        <time>2021-03-21T11:55:29Z</time>
      </trkpt>
      <trkpt lat="42.82938" lon="0.56951">
        <ele>1686.096</ele>
        <time>2021-03-21T11:55:31Z</time>
      </trkpt>
      <trkpt lat="42.82938" lon="0.56951">
        <ele>1686.095</ele>
        <time>2021-03-21T11:55:33Z</time>
      </trkpt>
      <trkpt lat="42.82938" lon="0.56951">
        <ele>1686.096</ele>
        <time>2021-03-21T11:55:35Z</time>
      </trkpt>
      <trkpt lat="42.82938" lon="0.56951">
        <ele>1686.094</ele>
        <time>2021-03-21T11:55:37Z</time>
      </trkpt>
      <trkpt lat="42.82938" lon="0.56951">
        <ele>1686.095</ele>
        <time>2021-03-21T11:55:39Z</time>
      </trkpt>
      <trkpt lat="42.82938" lon="0.56951">
        <ele>1686.095</ele>
        <time>2021-03-21T11:55:41Z</time>
      </trkpt>
      <trkpt lat="42.82938" lon="0.56951">
        <ele>1686.097</ele>
        <time>2021-03-21T11:55:43Z</time>
      </trkpt>
      <trkpt lat="42.82938" lon="0.56951">
        <ele>1686.097</ele>
        <time>2021-03-21T11:55:45Z</time>
      </trkpt>
      <trkpt lat="42.82938" lon="0.56951">
        <ele>1686.098</ele>
        <time>2021-03-21T11:55:47Z</time>
      </trkpt>
      <trkpt lat="42.82938" lon="0.56951">
        <ele>1686.099</ele>
        <time>2021-03-21T11:55:49Z</time>
      </trkpt>
      <trkpt lat="42.82938" lon="0.56951">
        <ele>1686.098</ele>
        <time>2021-03-21T11:55:51Z</time>
      </trkpt>
      <trkpt lat="42.82938" lon="0.56951">
        <ele>1686.1</ele>
        <time>2021-03-21T11:55:53Z</time>
      </trkpt>
      <trkpt lat="42.82938" lon="0.56951">
        <ele>1686.1</ele>
        <time>2021-03-21T11:55:55Z</time>
      </trkpt>
      <trkpt lat="42.82938" lon="0.56951">
        <ele>1686.1</ele>
        <time>2021-03-21T11:55:57Z</time>
      </trkpt>
      <trkpt lat="42.82938" lon="0.56951">
        <ele>1686.101</ele>
        <time>2021-03-21T11:55:59Z</time>
      </trkpt>
      <trkpt lat="42.82938" lon="0.56951">
        <ele>1686.102</ele>
        <time>2021-03-21T11:56:01Z</time>
      </trkpt>
      <trkpt lat="42.82938" lon="0.56951">
        <ele>1686.103</ele>
        <time>2021-03-21T11:56:03Z</time>
      </trkpt>
      <trkpt lat="42.82938" lon="0.56951">
        <ele>1686.102</ele>
        <time>2021-03-21T11:56:05Z</time>
      </trkpt>
      <trkpt lat="42.82938" lon="0.56951">
        <ele>1686.104</ele>
        <time>2021-03-21T11:56:07Z</time>
      </trkpt>
      <trkpt lat="42.82938" lon="0.56951">
        <ele>1686.102</ele>
        <time>2021-03-21T11:56:09Z</time>
      </trkpt>
      <trkpt lat="42.82938" lon="0.56951">
        <ele>1686.101</ele>
        <time>2021-03-21T11:56:11Z</time>
      </trkpt>
      <trkpt lat="42.82938" lon="0.56951">
        <ele>1686.099</ele>
        <time>2021-03-21T11:56:13Z</time>
      </trkpt>
      <trkpt lat="42.82938" lon="0.56951">
        <ele>1686.098</ele>
        <time>2021-03-21T11:56:15Z</time>
      </trkpt>
      <trkpt lat="42.82938" lon="0.56951">
        <ele>1686.097</ele>
        <time>2021-03-21T11:56:17Z</time>
      </trkpt>
      <trkpt lat="42.82938" lon="0.56951">
        <ele>1686.098</ele>
        <time>2021-03-21T11:56:19Z</time>
      </trkpt>
      <trkpt lat="42.82938" lon="0.56951">
        <ele>1686.099</ele>
        <time>2021-03-21T11:56:21Z</time>
      </trkpt>
      <trkpt lat="42.82938" lon="0.56951">
        <ele>1686.095</ele>
        <time>2021-03-21T11:56:23Z</time>
      </trkpt>
      <trkpt lat="42.82938" lon="0.56951">
        <ele>1686.094</ele>
        <time>2021-03-21T11:56:25Z</time>
      </trkpt>
      <trkpt lat="42.82938" lon="0.56951">
        <ele>1686.091</ele>
        <time>2021-03-21T11:56:27Z</time>
      </trkpt>
      <trkpt lat="42.82938" lon="0.56951">
        <ele>1686.096</ele>
        <time>2021-03-21T11:56:29Z</time>
      </trkpt>
      <trkpt lat="42.82938" lon="0.56951">
        <ele>1686.093</ele>
        <time>2021-03-21T11:56:31Z</time>
      </trkpt>
      <trkpt lat="42.82938" lon="0.56951">
        <ele>1686.095</ele>
        <time>2021-03-21T11:56:33Z</time>
      </trkpt>
      <trkpt lat="42.82938" lon="0.56951">
        <ele>1686.094</ele>
        <time>2021-03-21T11:56:35Z</time>
      </trkpt>
      <trkpt lat="42.82938" lon="0.56951">
        <ele>1686.099</ele>
        <time>2021-03-21T11:56:37Z</time>
      </trkpt>
      <trkpt lat="42.82938" lon="0.56951">
        <ele>1686.098</ele>
        <time>2021-03-21T11:56:39Z</time>
      </trkpt>
      <trkpt lat="42.82938" lon="0.56951">
        <ele>1686.1</ele>
        <time>2021-03-21T11:56:41Z</time>
      </trkpt>
      <trkpt lat="42.82938" lon="0.56951">
        <ele>1686.098</ele>
        <time>2021-03-21T11:56:43Z</time>
      </trkpt>
      <trkpt lat="42.82938" lon="0.56951">
        <ele>1686.103</ele>
        <time>2021-03-21T11:56:45Z</time>
      </trkpt>
      <trkpt lat="42.82938" lon="0.56951">
        <ele>1686.103</ele>
        <time>2021-03-21T11:56:47Z</time>
      </trkpt>
      <trkpt lat="42.82938" lon="0.56951">
        <ele>1686.1</ele>
        <time>2021-03-21T11:56:49Z</time>
      </trkpt>
      <trkpt lat="42.82938" lon="0.56951">
        <ele>1686.098</ele>
        <time>2021-03-21T11:56:51Z</time>
      </trkpt>
      <trkpt lat="42.82938" lon="0.56951">
        <ele>1686.096</ele>
        <time>2021-03-21T11:56:53Z</time>
      </trkpt>
      <trkpt lat="42.82938" lon="0.56951">
        <ele>1686.095</ele>
        <time>2021-03-21T11:56:55Z</time>
      </trkpt>
      <trkpt lat="42.82938" lon="0.56951">
        <ele>1686.097</ele>
        <time>2021-03-21T11:56:57Z</time>
      </trkpt>
      <trkpt lat="42.82938" lon="0.56951">
        <ele>1686.097</ele>
        <time>2021-03-21T11:56:58Z</time>
      </trkpt>
      <trkpt lat="42.82938" lon="0.56951">
        <ele>1686.131</ele>
        <time>2021-03-21T11:57:01Z</time>
      </trkpt>
      <trkpt lat="42.82938" lon="0.56951">
        <ele>1686.131</ele>
        <time>2021-03-21T11:57:03Z</time>
      </trkpt>
      <trkpt lat="42.82938" lon="0.56951">
        <ele>1686.13</ele>
        <time>2021-03-21T11:57:05Z</time>
      </trkpt>
      <trkpt lat="42.82938" lon="0.56951">
        <ele>1686.129</ele>
        <time>2021-03-21T11:57:07Z</time>
      </trkpt>
      <trkpt lat="42.82938" lon="0.56951">
        <ele>1686.129</ele>
        <time>2021-03-21T11:57:09Z</time>
      </trkpt>
      <trkpt lat="42.82938" lon="0.56951">
        <ele>1686.129</ele>
        <time>2021-03-21T11:57:11Z</time>
      </trkpt>
      <trkpt lat="42.82938" lon="0.56951">
        <ele>1686.129</ele>
        <time>2021-03-21T11:57:13Z</time>
      </trkpt>
      <trkpt lat="42.82938" lon="0.56951">
        <ele>1686.128</ele>
        <time>2021-03-21T11:57:15Z</time>
      </trkpt>
      <trkpt lat="42.82938" lon="0.56951">
        <ele>1686.129</ele>
        <time>2021-03-21T11:57:17Z</time>
      </trkpt>
      <trkpt lat="42.82938" lon="0.56951">
        <ele>1686.129</ele>
        <time>2021-03-21T11:57:19Z</time>
      </trkpt>
      <trkpt lat="42.82938" lon="0.56951">
        <ele>1686.129</ele>
        <time>2021-03-21T11:57:21Z</time>
      </trkpt>
      <trkpt lat="42.82938" lon="0.56951">
        <ele>1686.128</ele>
        <time>2021-03-21T11:57:23Z</time>
      </trkpt>
      <trkpt lat="42.82938" lon="0.56951">
        <ele>1686.126</ele>
        <time>2021-03-21T11:57:25Z</time>
      </trkpt>
      <trkpt lat="42.82938" lon="0.56951">
        <ele>1686.124</ele>
        <time>2021-03-21T11:57:27Z</time>
      </trkpt>
      <trkpt lat="42.82938" lon="0.56951">
        <ele>1686.124</ele>
        <time>2021-03-21T11:57:29Z</time>
      </trkpt>
      <trkpt lat="42.82938" lon="0.56951">
        <ele>1686.127</ele>
        <time>2021-03-21T11:57:31Z</time>
      </trkpt>
      <trkpt lat="42.82938" lon="0.56951">
        <ele>1686.128</ele>
        <time>2021-03-21T11:57:33Z</time>
      </trkpt>
      <trkpt lat="42.82938" lon="0.56951">
        <ele>1686.129</ele>
        <time>2021-03-21T11:57:35Z</time>
      </trkpt>
      <trkpt lat="42.82938" lon="0.56951">
        <ele>1686.129</ele>
        <time>2021-03-21T11:57:37Z</time>
      </trkpt>
      <trkpt lat="42.82938" lon="0.56951">
        <ele>1686.131</ele>
        <time>2021-03-21T11:57:39Z</time>
      </trkpt>
      <trkpt lat="42.82938" lon="0.56951">
        <ele>1686.128</ele>
        <time>2021-03-21T11:57:41Z</time>
      </trkpt>
      <trkpt lat="42.82938" lon="0.56951">
        <ele>1686.13</ele>
        <time>2021-03-21T11:57:43Z</time>
      </trkpt>
      <trkpt lat="42.82938" lon="0.56951">
        <ele>1686.136</ele>
        <time>2021-03-21T11:57:45Z</time>
      </trkpt>
      <trkpt lat="42.82938" lon="0.56951">
        <ele>1686.131</ele>
        <time>2021-03-21T11:57:47Z</time>
      </trkpt>
      <trkpt lat="42.82938" lon="0.56951">
        <ele>1686.129</ele>
        <time>2021-03-21T11:57:49Z</time>
      </trkpt>
      <trkpt lat="42.82938" lon="0.56951">
        <ele>1686.128</ele>
        <time>2021-03-21T11:57:51Z</time>
      </trkpt>
      <trkpt lat="42.82938" lon="0.56951">
        <ele>1686.128</ele>
        <time>2021-03-21T11:57:53Z</time>
      </trkpt>
      <trkpt lat="42.82938" lon="0.56951">
        <ele>1686.128</ele>
        <time>2021-03-21T11:57:55Z</time>
      </trkpt>
      <trkpt lat="42.82938" lon="0.56951">
        <ele>1686.127</ele>
        <time>2021-03-21T11:57:57Z</time>
      </trkpt>
      <trkpt lat="42.82938" lon="0.56951">
        <ele>1686.128</ele>
        <time>2021-03-21T11:57:59Z</time>
      </trkpt>
      <trkpt lat="42.82938" lon="0.56951">
        <ele>1686.127</ele>
        <time>2021-03-21T11:58:01Z</time>
      </trkpt>
      <trkpt lat="42.82938" lon="0.56951">
        <ele>1686.128</ele>
        <time>2021-03-21T11:58:03Z</time>
      </trkpt>
      <trkpt lat="42.82938" lon="0.56951">
        <ele>1686.037</ele>
        <time>2021-03-21T11:58:05Z</time>
      </trkpt>
      <trkpt lat="42.82938" lon="0.56951">
        <ele>1685.956</ele>
        <time>2021-03-21T11:58:07Z</time>
      </trkpt>
      <trkpt lat="42.82938" lon="0.56951">
        <ele>1685.962</ele>
        <time>2021-03-21T11:58:09Z</time>
      </trkpt>
      <trkpt lat="42.82938" lon="0.56952">
        <ele>1686.144</ele>
        <time>2021-03-21T11:58:11Z</time>
      </trkpt>
      <trkpt lat="42.82938" lon="0.56952">
        <ele>1686.517</ele>
        <time>2021-03-21T11:58:13Z</time>
      </trkpt>
      <trkpt lat="42.82939" lon="0.56952">
        <ele>1686.567</ele>
        <time>2021-03-21T11:58:15Z</time>
      </trkpt>
      <trkpt lat="42.82939" lon="0.56952">
        <ele>1686.566</ele>
        <time>2021-03-21T11:58:17Z</time>
      </trkpt>
      <trkpt lat="42.82939" lon="0.56952">
        <ele>1686.565</ele>
        <time>2021-03-21T11:58:19Z</time>
      </trkpt>
      <trkpt lat="42.82939" lon="0.56952">
        <ele>1686.565</ele>
        <time>2021-03-21T11:58:21Z</time>
      </trkpt>
      <trkpt lat="42.82939" lon="0.56952">
        <ele>1686.564</ele>
        <time>2021-03-21T11:58:23Z</time>
      </trkpt>
      <trkpt lat="42.82939" lon="0.56952">
        <ele>1686.565</ele>
        <time>2021-03-21T11:58:25Z</time>
      </trkpt>
      <trkpt lat="42.82939" lon="0.56952">
        <ele>1686.565</ele>
        <time>2021-03-21T11:58:27Z</time>
      </trkpt>
      <trkpt lat="42.82939" lon="0.56952">
        <ele>1686.564</ele>
        <time>2021-03-21T11:58:29Z</time>
      </trkpt>
      <trkpt lat="42.82939" lon="0.56952">
        <ele>1686.563</ele>
        <time>2021-03-21T11:58:31Z</time>
      </trkpt>
      <trkpt lat="42.82939" lon="0.56952">
        <ele>1686.565</ele>
        <time>2021-03-21T11:58:33Z</time>
      </trkpt>
      <trkpt lat="42.82939" lon="0.56952">
        <ele>1686.564</ele>
        <time>2021-03-21T11:58:35Z</time>
      </trkpt>
      <trkpt lat="42.82939" lon="0.56952">
        <ele>1686.565</ele>
        <time>2021-03-21T11:58:37Z</time>
      </trkpt>
      <trkpt lat="42.82939" lon="0.56952">
        <ele>1686.565</ele>
        <time>2021-03-21T11:58:39Z</time>
      </trkpt>
      <trkpt lat="42.82939" lon="0.56952">
        <ele>1686.565</ele>
        <time>2021-03-21T11:58:41Z</time>
      </trkpt>
      <trkpt lat="42.82939" lon="0.56952">
        <ele>1686.567</ele>
        <time>2021-03-21T11:58:43Z</time>
      </trkpt>
      <trkpt lat="42.82939" lon="0.56952">
        <ele>1686.567</ele>
        <time>2021-03-21T11:58:45Z</time>
      </trkpt>
      <trkpt lat="42.82938" lon="0.56952">
        <ele>1686.326</ele>
        <time>2021-03-21T11:58:47Z</time>
      </trkpt>
      <trkpt lat="42.82938" lon="0.56952">
        <ele>1686.324</ele>
        <time>2021-03-21T11:58:49Z</time>
      </trkpt>
      <trkpt lat="42.82938" lon="0.56952">
        <ele>1686.323</ele>
        <time>2021-03-21T11:58:51Z</time>
      </trkpt>
      <trkpt lat="42.82938" lon="0.56952">
        <ele>1686.327</ele>
        <time>2021-03-21T11:58:53Z</time>
      </trkpt>
      <trkpt lat="42.82938" lon="0.56952">
        <ele>1686.328</ele>
        <time>2021-03-21T11:58:55Z</time>
      </trkpt>
      <trkpt lat="42.82938" lon="0.56952">
        <ele>1686.326</ele>
        <time>2021-03-21T11:58:57Z</time>
      </trkpt>
      <trkpt lat="42.82938" lon="0.56952">
        <ele>1686.328</ele>
        <time>2021-03-21T11:58:59Z</time>
      </trkpt>
      <trkpt lat="42.82938" lon="0.56952">
        <ele>1686.327</ele>
        <time>2021-03-21T11:59:01Z</time>
      </trkpt>
      <trkpt lat="42.82938" lon="0.56952">
        <ele>1686.327</ele>
        <time>2021-03-21T11:59:03Z</time>
      </trkpt>
      <trkpt lat="42.82938" lon="0.56952">
        <ele>1686.326</ele>
        <time>2021-03-21T11:59:05Z</time>
      </trkpt>
      <trkpt lat="42.82938" lon="0.56952">
        <ele>1686.325</ele>
        <time>2021-03-21T11:59:07Z</time>
      </trkpt>
      <trkpt lat="42.82938" lon="0.56952">
        <ele>1686.323</ele>
        <time>2021-03-21T11:59:09Z</time>
      </trkpt>
      <trkpt lat="42.82938" lon="0.56952">
        <ele>1686.323</ele>
        <time>2021-03-21T11:59:11Z</time>
      </trkpt>
      <trkpt lat="42.82938" lon="0.56952">
        <ele>1686.321</ele>
        <time>2021-03-21T11:59:13Z</time>
      </trkpt>
      <trkpt lat="42.82938" lon="0.56952">
        <ele>1686.32</ele>
        <time>2021-03-21T11:59:15Z</time>
      </trkpt>
      <trkpt lat="42.82938" lon="0.56952">
        <ele>1686.319</ele>
        <time>2021-03-21T11:59:17Z</time>
      </trkpt>
      <trkpt lat="42.82938" lon="0.56952">
        <ele>1686.371</ele>
        <time>2021-03-21T11:59:19Z</time>
      </trkpt>
      <trkpt lat="42.82938" lon="0.56952">
        <ele>1686.372</ele>
        <time>2021-03-21T11:59:21Z</time>
      </trkpt>
      <trkpt lat="42.82938" lon="0.56952">
        <ele>1686.375</ele>
        <time>2021-03-21T11:59:23Z</time>
      </trkpt>
      <trkpt lat="42.82938" lon="0.56952">
        <ele>1686.381</ele>
        <time>2021-03-21T11:59:25Z</time>
      </trkpt>
      <trkpt lat="42.82938" lon="0.56952">
        <ele>1686.381</ele>
        <time>2021-03-21T11:59:27Z</time>
      </trkpt>
      <trkpt lat="42.82938" lon="0.56952">
        <ele>1686.381</ele>
        <time>2021-03-21T11:59:29Z</time>
      </trkpt>
      <trkpt lat="42.82938" lon="0.56952">
        <ele>1686.381</ele>
        <time>2021-03-21T11:59:31Z</time>
      </trkpt>
      <trkpt lat="42.82938" lon="0.56952">
        <ele>1686.383</ele>
        <time>2021-03-21T11:59:33Z</time>
      </trkpt>
      <trkpt lat="42.82938" lon="0.56952">
        <ele>1686.386</ele>
        <time>2021-03-21T11:59:35Z</time>
      </trkpt>
      <trkpt lat="42.82938" lon="0.56952">
        <ele>1686.388</ele>
        <time>2021-03-21T11:59:37Z</time>
      </trkpt>
      <trkpt lat="42.82938" lon="0.56952">
        <ele>1686.386</ele>
        <time>2021-03-21T11:59:39Z</time>
      </trkpt>
      <trkpt lat="42.82938" lon="0.56952">
        <ele>1686.39</ele>
        <time>2021-03-21T11:59:41Z</time>
      </trkpt>
      <trkpt lat="42.82938" lon="0.56952">
        <ele>1686.394</ele>
        <time>2021-03-21T11:59:43Z</time>
      </trkpt>
      <trkpt lat="42.82938" lon="0.56952">
        <ele>1686.398</ele>
        <time>2021-03-21T11:59:45Z</time>
      </trkpt>
      <trkpt lat="42.82938" lon="0.56952">
        <ele>1686.388</ele>
        <time>2021-03-21T11:59:47Z</time>
      </trkpt>
      <trkpt lat="42.82938" lon="0.56952">
        <ele>1686.392</ele>
        <time>2021-03-21T11:59:49Z</time>
      </trkpt>
      <trkpt lat="42.82938" lon="0.56952">
        <ele>1686.387</ele>
        <time>2021-03-21T11:59:51Z</time>
      </trkpt>
      <trkpt lat="42.82938" lon="0.56952">
        <ele>1686.384</ele>
        <time>2021-03-21T11:59:53Z</time>
      </trkpt>
      <trkpt lat="42.82938" lon="0.56952">
        <ele>1686.392</ele>
        <time>2021-03-21T11:59:55Z</time>
      </trkpt>
      <trkpt lat="42.82938" lon="0.56952">
        <ele>1686.385</ele>
        <time>2021-03-21T11:59:57Z</time>
      </trkpt>
      <trkpt lat="42.82938" lon="0.56952">
        <ele>1686.385</ele>
        <time>2021-03-21T11:59:59Z</time>
      </trkpt>
      <trkpt lat="42.82938" lon="0.56952">
        <ele>1686.401</ele>
        <time>2021-03-21T12:00:01Z</time>
      </trkpt>
      <trkpt lat="42.82938" lon="0.56952">
        <ele>1686.398</ele>
        <time>2021-03-21T12:00:03Z</time>
      </trkpt>
      <trkpt lat="42.82938" lon="0.56952">
        <ele>1686.393</ele>
        <time>2021-03-21T12:00:05Z</time>
      </trkpt>
      <trkpt lat="42.82938" lon="0.56952">
        <ele>1686.391</ele>
        <time>2021-03-21T12:00:07Z</time>
      </trkpt>
      <trkpt lat="42.82938" lon="0.56952">
        <ele>1686.39</ele>
        <time>2021-03-21T12:00:09Z</time>
      </trkpt>
      <trkpt lat="42.82938" lon="0.56952">
        <ele>1686.388</ele>
        <time>2021-03-21T12:00:11Z</time>
      </trkpt>
      <trkpt lat="42.82938" lon="0.56952">
        <ele>1686.393</ele>
        <time>2021-03-21T12:00:13Z</time>
      </trkpt>
      <trkpt lat="42.82938" lon="0.56952">
        <ele>1686.396</ele>
        <time>2021-03-21T12:00:15Z</time>
      </trkpt>
      <trkpt lat="42.82938" lon="0.56952">
        <ele>1686.392</ele>
        <time>2021-03-21T12:00:17Z</time>
      </trkpt>
      <trkpt lat="42.82938" lon="0.56952">
        <ele>1686.392</ele>
        <time>2021-03-21T12:00:19Z</time>
      </trkpt>
      <trkpt lat="42.82938" lon="0.56952">
        <ele>1686.392</ele>
        <time>2021-03-21T12:00:21Z</time>
      </trkpt>
      <trkpt lat="42.82938" lon="0.56952">
        <ele>1686.392</ele>
        <time>2021-03-21T12:00:23Z</time>
      </trkpt>
      <trkpt lat="42.82938" lon="0.56952">
        <ele>1686.393</ele>
        <time>2021-03-21T12:00:25Z</time>
      </trkpt>
      <trkpt lat="42.82938" lon="0.56952">
        <ele>1686.391</ele>
        <time>2021-03-21T12:00:27Z</time>
      </trkpt>
      <trkpt lat="42.82938" lon="0.56952">
        <ele>1686.39</ele>
        <time>2021-03-21T12:00:29Z</time>
      </trkpt>
      <trkpt lat="42.82938" lon="0.56952">
        <ele>1686.389</ele>
        <time>2021-03-21T12:00:31Z</time>
      </trkpt>
      <trkpt lat="42.82938" lon="0.56952">
        <ele>1686.383</ele>
        <time>2021-03-21T12:00:33Z</time>
      </trkpt>
      <trkpt lat="42.82938" lon="0.56952">
        <ele>1686.38</ele>
        <time>2021-03-21T12:00:35Z</time>
      </trkpt>
      <trkpt lat="42.82938" lon="0.56952">
        <ele>1686.378</ele>
        <time>2021-03-21T12:00:37Z</time>
      </trkpt>
      <trkpt lat="42.82938" lon="0.56952">
        <ele>1686.38</ele>
        <time>2021-03-21T12:00:39Z</time>
      </trkpt>
      <trkpt lat="42.82938" lon="0.56952">
        <ele>1686.379</ele>
        <time>2021-03-21T12:00:41Z</time>
      </trkpt>
      <trkpt lat="42.82938" lon="0.56952">
        <ele>1686.378</ele>
        <time>2021-03-21T12:00:43Z</time>
      </trkpt>
      <trkpt lat="42.82938" lon="0.56952">
        <ele>1686.385</ele>
        <time>2021-03-21T12:00:45Z</time>
      </trkpt>
      <trkpt lat="42.82938" lon="0.56952">
        <ele>1686.388</ele>
        <time>2021-03-21T12:00:47Z</time>
      </trkpt>
      <trkpt lat="42.82938" lon="0.56952">
        <ele>1686.388</ele>
        <time>2021-03-21T12:00:49Z</time>
      </trkpt>
      <trkpt lat="42.82938" lon="0.56952">
        <ele>1686.391</ele>
        <time>2021-03-21T12:00:51Z</time>
      </trkpt>
      <trkpt lat="42.82938" lon="0.56952">
        <ele>1686.381</ele>
        <time>2021-03-21T12:00:53Z</time>
      </trkpt>
      <trkpt lat="42.82938" lon="0.56952">
        <ele>1686.379</ele>
        <time>2021-03-21T12:00:55Z</time>
      </trkpt>
      <trkpt lat="42.82938" lon="0.56952">
        <ele>1686.381</ele>
        <time>2021-03-21T12:00:57Z</time>
      </trkpt>
      <trkpt lat="42.82938" lon="0.56952">
        <ele>1686.386</ele>
        <time>2021-03-21T12:00:59Z</time>
      </trkpt>
      <trkpt lat="42.82938" lon="0.56952">
        <ele>1686.387</ele>
        <time>2021-03-21T12:01:01Z</time>
      </trkpt>
      <trkpt lat="42.82938" lon="0.56952">
        <ele>1686.389</ele>
        <time>2021-03-21T12:01:03Z</time>
      </trkpt>
      <trkpt lat="42.82938" lon="0.56952">
        <ele>1686.39</ele>
        <time>2021-03-21T12:01:05Z</time>
      </trkpt>
      <trkpt lat="42.82938" lon="0.56951">
        <ele>1686.58</ele>
        <time>2021-03-21T12:01:07Z</time>
      </trkpt>
      <trkpt lat="42.82938" lon="0.56951">
        <ele>1686.588</ele>
        <time>2021-03-21T12:01:09Z</time>
      </trkpt>
      <trkpt lat="42.82938" lon="0.56951">
        <ele>1686.59</ele>
        <time>2021-03-21T12:01:11Z</time>
      </trkpt>
      <trkpt lat="42.82938" lon="0.56951">
        <ele>1686.591</ele>
        <time>2021-03-21T12:01:13Z</time>
      </trkpt>
      <trkpt lat="42.82938" lon="0.56951">
        <ele>1686.591</ele>
        <time>2021-03-21T12:01:15Z</time>
      </trkpt>
      <trkpt lat="42.82938" lon="0.56951">
        <ele>1686.593</ele>
        <time>2021-03-21T12:01:17Z</time>
      </trkpt>
      <trkpt lat="42.82938" lon="0.56951">
        <ele>1686.592</ele>
        <time>2021-03-21T12:01:19Z</time>
      </trkpt>
      <trkpt lat="42.82938" lon="0.56951">
        <ele>1686.592</ele>
        <time>2021-03-21T12:01:21Z</time>
      </trkpt>
      <trkpt lat="42.82938" lon="0.56951">
        <ele>1686.591</ele>
        <time>2021-03-21T12:01:23Z</time>
      </trkpt>
      <trkpt lat="42.82938" lon="0.56951">
        <ele>1686.593</ele>
        <time>2021-03-21T12:01:25Z</time>
      </trkpt>
      <trkpt lat="42.82938" lon="0.56951">
        <ele>1686.593</ele>
        <time>2021-03-21T12:01:27Z</time>
      </trkpt>
      <trkpt lat="42.82938" lon="0.56951">
        <ele>1686.593</ele>
        <time>2021-03-21T12:01:29Z</time>
      </trkpt>
      <trkpt lat="42.82938" lon="0.56951">
        <ele>1686.593</ele>
        <time>2021-03-21T12:01:31Z</time>
      </trkpt>
      <trkpt lat="42.82938" lon="0.56951">
        <ele>1686.593</ele>
        <time>2021-03-21T12:01:33Z</time>
      </trkpt>
      <trkpt lat="42.82938" lon="0.56951">
        <ele>1686.593</ele>
        <time>2021-03-21T12:01:35Z</time>
      </trkpt>
      <trkpt lat="42.82938" lon="0.56951">
        <ele>1686.595</ele>
        <time>2021-03-21T12:01:37Z</time>
      </trkpt>
      <trkpt lat="42.82938" lon="0.56951">
        <ele>1686.599</ele>
        <time>2021-03-21T12:01:39Z</time>
      </trkpt>
      <trkpt lat="42.82938" lon="0.56951">
        <ele>1686.599</ele>
        <time>2021-03-21T12:01:41Z</time>
      </trkpt>
      <trkpt lat="42.82938" lon="0.56951">
        <ele>1686.598</ele>
        <time>2021-03-21T12:01:43Z</time>
      </trkpt>
      <trkpt lat="42.82938" lon="0.56951">
        <ele>1686.596</ele>
        <time>2021-03-21T12:01:45Z</time>
      </trkpt>
      <trkpt lat="42.82938" lon="0.56951">
        <ele>1686.6</ele>
        <time>2021-03-21T12:01:47Z</time>
      </trkpt>
      <trkpt lat="42.82938" lon="0.56951">
        <ele>1686.598</ele>
        <time>2021-03-21T12:01:49Z</time>
      </trkpt>
      <trkpt lat="42.82938" lon="0.56951">
        <ele>1686.82</ele>
        <time>2021-03-21T12:01:51Z</time>
      </trkpt>
      <trkpt lat="42.82938" lon="0.56951">
        <ele>1686.957</ele>
        <time>2021-03-21T12:01:53Z</time>
      </trkpt>
      <trkpt lat="42.82938" lon="0.56951">
        <ele>1686.96</ele>
        <time>2021-03-21T12:01:55Z</time>
      </trkpt>
      <trkpt lat="42.82938" lon="0.56951">
        <ele>1686.962</ele>
        <time>2021-03-21T12:01:57Z</time>
      </trkpt>
      <trkpt lat="42.82938" lon="0.56951">
        <ele>1686.962</ele>
        <time>2021-03-21T12:01:59Z</time>
      </trkpt>
      <trkpt lat="42.82938" lon="0.56951">
        <ele>1686.961</ele>
        <time>2021-03-21T12:02:01Z</time>
      </trkpt>
      <trkpt lat="42.82938" lon="0.56951">
        <ele>1686.961</ele>
        <time>2021-03-21T12:02:03Z</time>
      </trkpt>
      <trkpt lat="42.82938" lon="0.56951">
        <ele>1686.962</ele>
        <time>2021-03-21T12:02:05Z</time>
      </trkpt>
      <trkpt lat="42.82938" lon="0.56951">
        <ele>1686.963</ele>
        <time>2021-03-21T12:02:07Z</time>
      </trkpt>
      <trkpt lat="42.82938" lon="0.56951">
        <ele>1686.963</ele>
        <time>2021-03-21T12:02:09Z</time>
      </trkpt>
      <trkpt lat="42.82938" lon="0.56951">
        <ele>1686.965</ele>
        <time>2021-03-21T12:02:11Z</time>
      </trkpt>
      <trkpt lat="42.82938" lon="0.56951">
        <ele>1686.962</ele>
        <time>2021-03-21T12:02:13Z</time>
      </trkpt>
      <trkpt lat="42.82938" lon="0.56951">
        <ele>1686.965</ele>
        <time>2021-03-21T12:02:15Z</time>
      </trkpt>
      <trkpt lat="42.82938" lon="0.56951">
        <ele>1687.283</ele>
        <time>2021-03-21T12:02:17Z</time>
      </trkpt>
      <trkpt lat="42.82938" lon="0.56951">
        <ele>1687.401</ele>
        <time>2021-03-21T12:02:19Z</time>
      </trkpt>
      <trkpt lat="42.82938" lon="0.56951">
        <ele>1687.402</ele>
        <time>2021-03-21T12:02:21Z</time>
      </trkpt>
      <trkpt lat="42.82938" lon="0.56951">
        <ele>1687.405</ele>
        <time>2021-03-21T12:02:23Z</time>
      </trkpt>
      <trkpt lat="42.82938" lon="0.56951">
        <ele>1687.399</ele>
        <time>2021-03-21T12:02:25Z</time>
      </trkpt>
      <trkpt lat="42.82938" lon="0.56951">
        <ele>1687.398</ele>
        <time>2021-03-21T12:02:27Z</time>
      </trkpt>
      <trkpt lat="42.82938" lon="0.56951">
        <ele>1687.399</ele>
        <time>2021-03-21T12:02:29Z</time>
      </trkpt>
      <trkpt lat="42.82938" lon="0.56951">
        <ele>1687.398</ele>
        <time>2021-03-21T12:02:31Z</time>
      </trkpt>
      <trkpt lat="42.82938" lon="0.56951">
        <ele>1687.396</ele>
        <time>2021-03-21T12:02:33Z</time>
      </trkpt>
      <trkpt lat="42.82938" lon="0.56951">
        <ele>1687.391</ele>
        <time>2021-03-21T12:02:35Z</time>
      </trkpt>
      <trkpt lat="42.82938" lon="0.56951">
        <ele>1687.389</ele>
        <time>2021-03-21T12:02:37Z</time>
      </trkpt>
      <trkpt lat="42.82938" lon="0.56951">
        <ele>1687.39</ele>
        <time>2021-03-21T12:02:39Z</time>
      </trkpt>
      <trkpt lat="42.82938" lon="0.56951">
        <ele>1687.392</ele>
        <time>2021-03-21T12:02:41Z</time>
      </trkpt>
      <trkpt lat="42.82938" lon="0.56951">
        <ele>1687.392</ele>
        <time>2021-03-21T12:02:43Z</time>
      </trkpt>
      <trkpt lat="42.82938" lon="0.56951">
        <ele>1687.393</ele>
        <time>2021-03-21T12:02:45Z</time>
      </trkpt>
      <trkpt lat="42.82938" lon="0.56951">
        <ele>1687.392</ele>
        <time>2021-03-21T12:02:47Z</time>
      </trkpt>
      <trkpt lat="42.82938" lon="0.56951">
        <ele>1687.392</ele>
        <time>2021-03-21T12:02:49Z</time>
      </trkpt>
      <trkpt lat="42.82938" lon="0.56951">
        <ele>1687.39</ele>
        <time>2021-03-21T12:02:51Z</time>
      </trkpt>
      <trkpt lat="42.82938" lon="0.56951">
        <ele>1687.388</ele>
        <time>2021-03-21T12:02:53Z</time>
      </trkpt>
      <trkpt lat="42.82938" lon="0.56951">
        <ele>1687.391</ele>
        <time>2021-03-21T12:02:55Z</time>
      </trkpt>
      <trkpt lat="42.82938" lon="0.56951">
        <ele>1687.392</ele>
        <time>2021-03-21T12:02:57Z</time>
      </trkpt>
      <trkpt lat="42.82938" lon="0.56951">
        <ele>1687.394</ele>
        <time>2021-03-21T12:02:59Z</time>
      </trkpt>
      <trkpt lat="42.82938" lon="0.56951">
        <ele>1687.391</ele>
        <time>2021-03-21T12:03:01Z</time>
      </trkpt>
      <trkpt lat="42.82938" lon="0.56951">
        <ele>1687.392</ele>
        <time>2021-03-21T12:03:03Z</time>
      </trkpt>
      <trkpt lat="42.82938" lon="0.56951">
        <ele>1687.391</ele>
        <time>2021-03-21T12:03:05Z</time>
      </trkpt>
      <trkpt lat="42.82938" lon="0.56951">
        <ele>1687.392</ele>
        <time>2021-03-21T12:03:07Z</time>
      </trkpt>
      <trkpt lat="42.82938" lon="0.56951">
        <ele>1687.405</ele>
        <time>2021-03-21T12:03:09Z</time>
      </trkpt>
      <trkpt lat="42.82938" lon="0.56951">
        <ele>1687.402</ele>
        <time>2021-03-21T12:03:11Z</time>
      </trkpt>
      <trkpt lat="42.82938" lon="0.56951">
        <ele>1687.399</ele>
        <time>2021-03-21T12:03:13Z</time>
      </trkpt>
      <trkpt lat="42.82938" lon="0.56951">
        <ele>1687.396</ele>
        <time>2021-03-21T12:03:15Z</time>
      </trkpt>
      <trkpt lat="42.82938" lon="0.56951">
        <ele>1687.402</ele>
        <time>2021-03-21T12:03:17Z</time>
      </trkpt>
      <trkpt lat="42.82938" lon="0.56951">
        <ele>1687.391</ele>
        <time>2021-03-21T12:03:19Z</time>
      </trkpt>
      <trkpt lat="42.82938" lon="0.56951">
        <ele>1687.392</ele>
        <time>2021-03-21T12:03:21Z</time>
      </trkpt>
      <trkpt lat="42.82938" lon="0.56951">
        <ele>1687.399</ele>
        <time>2021-03-21T12:03:23Z</time>
      </trkpt>
      <trkpt lat="42.82938" lon="0.56951">
        <ele>1687.391</ele>
        <time>2021-03-21T12:03:25Z</time>
      </trkpt>
      <trkpt lat="42.82938" lon="0.56951">
        <ele>1687.392</ele>
        <time>2021-03-21T12:03:27Z</time>
      </trkpt>
      <trkpt lat="42.82938" lon="0.56951">
        <ele>1687.391</ele>
        <time>2021-03-21T12:03:29Z</time>
      </trkpt>
      <trkpt lat="42.82938" lon="0.56951">
        <ele>1687.387</ele>
        <time>2021-03-21T12:03:31Z</time>
      </trkpt>
      <trkpt lat="42.82938" lon="0.56951">
        <ele>1687.39</ele>
        <time>2021-03-21T12:03:33Z</time>
      </trkpt>
      <trkpt lat="42.82938" lon="0.56951">
        <ele>1687.389</ele>
        <time>2021-03-21T12:03:35Z</time>
      </trkpt>
      <trkpt lat="42.82938" lon="0.56951">
        <ele>1687.378</ele>
        <time>2021-03-21T12:03:37Z</time>
      </trkpt>
      <trkpt lat="42.82938" lon="0.56951">
        <ele>1687.378</ele>
        <time>2021-03-21T12:03:39Z</time>
      </trkpt>
      <trkpt lat="42.82938" lon="0.56951">
        <ele>1687.383</ele>
        <time>2021-03-21T12:03:41Z</time>
      </trkpt>
      <trkpt lat="42.82938" lon="0.56951">
        <ele>1687.382</ele>
        <time>2021-03-21T12:03:43Z</time>
      </trkpt>
      <trkpt lat="42.82938" lon="0.56952">
        <ele>1687.421</ele>
        <time>2021-03-21T12:03:45Z</time>
      </trkpt>
      <trkpt lat="42.82938" lon="0.56952">
        <ele>1687.394</ele>
        <time>2021-03-21T12:03:47Z</time>
      </trkpt>
      <trkpt lat="42.82938" lon="0.56951">
        <ele>1687.397</ele>
        <time>2021-03-21T12:03:49Z</time>
      </trkpt>
      <trkpt lat="42.82938" lon="0.56952">
        <ele>1687.399</ele>
        <time>2021-03-21T12:03:51Z</time>
      </trkpt>
      <trkpt lat="42.82938" lon="0.56952">
        <ele>1687.398</ele>
        <time>2021-03-21T12:03:53Z</time>
      </trkpt>
      <trkpt lat="42.82938" lon="0.56951">
        <ele>1687.395</ele>
        <time>2021-03-21T12:03:55Z</time>
      </trkpt>
      <trkpt lat="42.82938" lon="0.56952">
        <ele>1687.403</ele>
        <time>2021-03-21T12:03:57Z</time>
      </trkpt>
      <trkpt lat="42.82938" lon="0.56952">
        <ele>1687.403</ele>
        <time>2021-03-21T12:03:59Z</time>
      </trkpt>
      <trkpt lat="42.82938" lon="0.56952">
        <ele>1687.401</ele>
        <time>2021-03-21T12:04:01Z</time>
      </trkpt>
      <trkpt lat="42.82938" lon="0.56952">
        <ele>1687.401</ele>
        <time>2021-03-21T12:04:03Z</time>
      </trkpt>
      <trkpt lat="42.82938" lon="0.56952">
        <ele>1687.402</ele>
        <time>2021-03-21T12:04:05Z</time>
      </trkpt>
      <trkpt lat="42.82938" lon="0.56952">
        <ele>1687.402</ele>
        <time>2021-03-21T12:04:07Z</time>
      </trkpt>
      <trkpt lat="42.82938" lon="0.56952">
        <ele>1687.402</ele>
        <time>2021-03-21T12:04:09Z</time>
      </trkpt>
      <trkpt lat="42.82938" lon="0.56952">
        <ele>1687.401</ele>
        <time>2021-03-21T12:04:11Z</time>
      </trkpt>
      <trkpt lat="42.82938" lon="0.56952">
        <ele>1687.4</ele>
        <time>2021-03-21T12:04:13Z</time>
      </trkpt>
      <trkpt lat="42.82938" lon="0.56952">
        <ele>1687.4</ele>
        <time>2021-03-21T12:04:15Z</time>
      </trkpt>
      <trkpt lat="42.82938" lon="0.56952">
        <ele>1687.4</ele>
        <time>2021-03-21T12:04:17Z</time>
      </trkpt>
      <trkpt lat="42.82938" lon="0.56952">
        <ele>1687.4</ele>
        <time>2021-03-21T12:04:19Z</time>
      </trkpt>
      <trkpt lat="42.82938" lon="0.56952">
        <ele>1687.401</ele>
        <time>2021-03-21T12:04:21Z</time>
      </trkpt>
      <trkpt lat="42.82938" lon="0.56952">
        <ele>1687.399</ele>
        <time>2021-03-21T12:04:23Z</time>
      </trkpt>
      <trkpt lat="42.82938" lon="0.56952">
        <ele>1687.407</ele>
        <time>2021-03-21T12:04:25Z</time>
      </trkpt>
      <trkpt lat="42.82938" lon="0.56952">
        <ele>1687.406</ele>
        <time>2021-03-21T12:04:27Z</time>
      </trkpt>
      <trkpt lat="42.82938" lon="0.56952">
        <ele>1687.402</ele>
        <time>2021-03-21T12:04:29Z</time>
      </trkpt>
      <trkpt lat="42.82938" lon="0.56952">
        <ele>1687.394</ele>
        <time>2021-03-21T12:04:31Z</time>
      </trkpt>
      <trkpt lat="42.82938" lon="0.56952">
        <ele>1687.389</ele>
        <time>2021-03-21T12:04:33Z</time>
      </trkpt>
      <trkpt lat="42.82938" lon="0.56952">
        <ele>1687.39</ele>
        <time>2021-03-21T12:04:35Z</time>
      </trkpt>
      <trkpt lat="42.82938" lon="0.56952">
        <ele>1687.392</ele>
        <time>2021-03-21T12:04:37Z</time>
      </trkpt>
      <trkpt lat="42.82938" lon="0.56952">
        <ele>1687.39</ele>
        <time>2021-03-21T12:04:39Z</time>
      </trkpt>
      <trkpt lat="42.82938" lon="0.56952">
        <ele>1687.388</ele>
        <time>2021-03-21T12:04:41Z</time>
      </trkpt>
      <trkpt lat="42.82938" lon="0.56952">
        <ele>1687.388</ele>
        <time>2021-03-21T12:04:43Z</time>
      </trkpt>
      <trkpt lat="42.82938" lon="0.56952">
        <ele>1687.388</ele>
        <time>2021-03-21T12:04:45Z</time>
      </trkpt>
      <trkpt lat="42.82938" lon="0.56952">
        <ele>1687.39</ele>
        <time>2021-03-21T12:04:47Z</time>
      </trkpt>
      <trkpt lat="42.82938" lon="0.56952">
        <ele>1687.392</ele>
        <time>2021-03-21T12:04:49Z</time>
      </trkpt>
      <trkpt lat="42.82938" lon="0.56952">
        <ele>1687.394</ele>
        <time>2021-03-21T12:04:51Z</time>
      </trkpt>
      <trkpt lat="42.82938" lon="0.56952">
        <ele>1687.395</ele>
        <time>2021-03-21T12:04:53Z</time>
      </trkpt>
      <trkpt lat="42.82938" lon="0.56952">
        <ele>1687.391</ele>
        <time>2021-03-21T12:04:55Z</time>
      </trkpt>
      <trkpt lat="42.82938" lon="0.56952">
        <ele>1687.397</ele>
        <time>2021-03-21T12:04:57Z</time>
      </trkpt>
      <trkpt lat="42.82938" lon="0.56952">
        <ele>1687.398</ele>
        <time>2021-03-21T12:04:59Z</time>
      </trkpt>
      <trkpt lat="42.82938" lon="0.56952">
        <ele>1687.398</ele>
        <time>2021-03-21T12:05:01Z</time>
      </trkpt>
      <trkpt lat="42.82938" lon="0.56952">
        <ele>1687.399</ele>
        <time>2021-03-21T12:05:03Z</time>
      </trkpt>
      <trkpt lat="42.82938" lon="0.56952">
        <ele>1687.402</ele>
        <time>2021-03-21T12:05:05Z</time>
      </trkpt>
      <trkpt lat="42.82938" lon="0.56952">
        <ele>1687.401</ele>
        <time>2021-03-21T12:05:07Z</time>
      </trkpt>
      <trkpt lat="42.82938" lon="0.56952">
        <ele>1687.401</ele>
        <time>2021-03-21T12:05:09Z</time>
      </trkpt>
      <trkpt lat="42.82938" lon="0.56952">
        <ele>1687.403</ele>
        <time>2021-03-21T12:05:11Z</time>
      </trkpt>
      <trkpt lat="42.82938" lon="0.56952">
        <ele>1687.384</ele>
        <time>2021-03-21T12:05:13Z</time>
      </trkpt>
      <trkpt lat="42.82937" lon="0.56952">
        <ele>1688.718</ele>
        <time>2021-03-21T12:05:15Z</time>
      </trkpt>
      <trkpt lat="42.82937" lon="0.56954">
        <ele>1688.909</ele>
        <time>2021-03-21T12:05:17Z</time>
      </trkpt>
      <trkpt lat="42.82936" lon="0.56954">
        <ele>1688.916</ele>
        <time>2021-03-21T12:05:19Z</time>
      </trkpt>
      <trkpt lat="42.82936" lon="0.56954">
        <ele>1688.908</ele>
        <time>2021-03-21T12:05:21Z</time>
      </trkpt>
      <trkpt lat="42.82936" lon="0.56954">
        <ele>1688.908</ele>
        <time>2021-03-21T12:05:23Z</time>
      </trkpt>
      <trkpt lat="42.82937" lon="0.56954">
        <ele>1688.901</ele>
        <time>2021-03-21T12:05:25Z</time>
      </trkpt>
      <trkpt lat="42.82937" lon="0.56954">
        <ele>1688.877</ele>
        <time>2021-03-21T12:05:27Z</time>
      </trkpt>
      <trkpt lat="42.82937" lon="0.56954">
        <ele>1688.867</ele>
        <time>2021-03-21T12:05:29Z</time>
      </trkpt>
      <trkpt lat="42.82937" lon="0.56954">
        <ele>1688.871</ele>
        <time>2021-03-21T12:05:31Z</time>
      </trkpt>
      <trkpt lat="42.82937" lon="0.56954">
        <ele>1688.883</ele>
        <time>2021-03-21T12:05:33Z</time>
      </trkpt>
      <trkpt lat="42.82937" lon="0.56954">
        <ele>1688.884</ele>
        <time>2021-03-21T12:05:35Z</time>
      </trkpt>
      <trkpt lat="42.82937" lon="0.56954">
        <ele>1688.894</ele>
        <time>2021-03-21T12:05:37Z</time>
      </trkpt>
      <trkpt lat="42.82937" lon="0.56954">
        <ele>1688.873</ele>
        <time>2021-03-21T12:05:39Z</time>
      </trkpt>
      <trkpt lat="42.82937" lon="0.56954">
        <ele>1688.868</ele>
        <time>2021-03-21T12:05:41Z</time>
      </trkpt>
      <trkpt lat="42.82937" lon="0.56954">
        <ele>1688.832</ele>
        <time>2021-03-21T12:05:43Z</time>
      </trkpt>
      <trkpt lat="42.82937" lon="0.56954">
        <ele>1688.835</ele>
        <time>2021-03-21T12:05:45Z</time>
      </trkpt>
      <trkpt lat="42.82937" lon="0.56954">
        <ele>1688.815</ele>
        <time>2021-03-21T12:05:47Z</time>
      </trkpt>
      <trkpt lat="42.82937" lon="0.56954">
        <ele>1688.815</ele>
        <time>2021-03-21T12:05:49Z</time>
      </trkpt>
      <trkpt lat="42.82937" lon="0.56954">
        <ele>1688.792</ele>
        <time>2021-03-21T12:05:51Z</time>
      </trkpt>
      <trkpt lat="42.82937" lon="0.56954">
        <ele>1688.79</ele>
        <time>2021-03-21T12:05:53Z</time>
      </trkpt>
      <trkpt lat="42.82937" lon="0.56954">
        <ele>1688.78</ele>
        <time>2021-03-21T12:05:55Z</time>
      </trkpt>
      <trkpt lat="42.82937" lon="0.56954">
        <ele>1688.778</ele>
        <time>2021-03-21T12:05:57Z</time>
      </trkpt>
      <trkpt lat="42.82937" lon="0.56954">
        <ele>1688.772</ele>
        <time>2021-03-21T12:05:59Z</time>
      </trkpt>
      <trkpt lat="42.82937" lon="0.56954">
        <ele>1688.779</ele>
        <time>2021-03-21T12:06:01Z</time>
      </trkpt>
      <trkpt lat="42.82937" lon="0.56954">
        <ele>1688.779</ele>
        <time>2021-03-21T12:06:03Z</time>
      </trkpt>
      <trkpt lat="42.82937" lon="0.56954">
        <ele>1688.769</ele>
        <time>2021-03-21T12:06:05Z</time>
      </trkpt>
      <trkpt lat="42.82937" lon="0.56954">
        <ele>1688.776</ele>
        <time>2021-03-21T12:06:07Z</time>
      </trkpt>
      <trkpt lat="42.82937" lon="0.56954">
        <ele>1688.764</ele>
        <time>2021-03-21T12:06:09Z</time>
      </trkpt>
      <trkpt lat="42.82937" lon="0.56954">
        <ele>1688.76</ele>
        <time>2021-03-21T12:06:11Z</time>
      </trkpt>
      <trkpt lat="42.82937" lon="0.56954">
        <ele>1688.746</ele>
        <time>2021-03-21T12:06:13Z</time>
      </trkpt>
      <trkpt lat="42.82937" lon="0.56954">
        <ele>1688.736</ele>
        <time>2021-03-21T12:06:15Z</time>
      </trkpt>
      <trkpt lat="42.82937" lon="0.56954">
        <ele>1688.73</ele>
        <time>2021-03-21T12:06:17Z</time>
      </trkpt>
      <trkpt lat="42.82937" lon="0.56954">
        <ele>1688.709</ele>
        <time>2021-03-21T12:06:19Z</time>
      </trkpt>
      <trkpt lat="42.82937" lon="0.56954">
        <ele>1688.71</ele>
        <time>2021-03-21T12:06:21Z</time>
      </trkpt>
      <trkpt lat="42.82937" lon="0.56954">
        <ele>1688.711</ele>
        <time>2021-03-21T12:06:23Z</time>
      </trkpt>
      <trkpt lat="42.82937" lon="0.56954">
        <ele>1688.703</ele>
        <time>2021-03-21T12:06:25Z</time>
      </trkpt>
      <trkpt lat="42.82937" lon="0.56954">
        <ele>1688.707</ele>
        <time>2021-03-21T12:06:27Z</time>
      </trkpt>
      <trkpt lat="42.82937" lon="0.56954">
        <ele>1688.705</ele>
        <time>2021-03-21T12:06:29Z</time>
      </trkpt>
      <trkpt lat="42.82937" lon="0.56954">
        <ele>1688.7</ele>
        <time>2021-03-21T12:06:31Z</time>
      </trkpt>
      <trkpt lat="42.82937" lon="0.56954">
        <ele>1688.713</ele>
        <time>2021-03-21T12:06:33Z</time>
      </trkpt>
      <trkpt lat="42.82937" lon="0.56954">
        <ele>1688.714</ele>
        <time>2021-03-21T12:06:35Z</time>
      </trkpt>
      <trkpt lat="42.82937" lon="0.56954">
        <ele>1688.696</ele>
        <time>2021-03-21T12:06:37Z</time>
      </trkpt>
      <trkpt lat="42.82937" lon="0.56954">
        <ele>1688.685</ele>
        <time>2021-03-21T12:06:39Z</time>
      </trkpt>
      <trkpt lat="42.82937" lon="0.56954">
        <ele>1688.682</ele>
        <time>2021-03-21T12:06:41Z</time>
      </trkpt>
      <trkpt lat="42.82937" lon="0.56954">
        <ele>1688.669</ele>
        <time>2021-03-21T12:06:43Z</time>
      </trkpt>
      <trkpt lat="42.82937" lon="0.56954">
        <ele>1688.661</ele>
        <time>2021-03-21T12:06:45Z</time>
      </trkpt>
      <trkpt lat="42.82937" lon="0.56954">
        <ele>1688.66</ele>
        <time>2021-03-21T12:06:47Z</time>
      </trkpt>
      <trkpt lat="42.82937" lon="0.56954">
        <ele>1688.66</ele>
        <time>2021-03-21T12:06:49Z</time>
      </trkpt>
      <trkpt lat="42.82937" lon="0.56954">
        <ele>1688.658</ele>
        <time>2021-03-21T12:06:51Z</time>
      </trkpt>
      <trkpt lat="42.82937" lon="0.56954">
        <ele>1688.656</ele>
        <time>2021-03-21T12:06:53Z</time>
      </trkpt>
      <trkpt lat="42.82937" lon="0.56954">
        <ele>1688.654</ele>
        <time>2021-03-21T12:06:55Z</time>
      </trkpt>
      <trkpt lat="42.82937" lon="0.56954">
        <ele>1688.649</ele>
        <time>2021-03-21T12:06:57Z</time>
      </trkpt>
      <trkpt lat="42.82937" lon="0.56954">
        <ele>1688.65</ele>
        <time>2021-03-21T12:06:59Z</time>
      </trkpt>
      <trkpt lat="42.82937" lon="0.56954">
        <ele>1688.64</ele>
        <time>2021-03-21T12:07:01Z</time>
      </trkpt>
      <trkpt lat="42.82937" lon="0.56954">
        <ele>1688.64</ele>
        <time>2021-03-21T12:07:03Z</time>
      </trkpt>
      <trkpt lat="42.82936" lon="0.56954">
        <ele>1688.639</ele>
        <time>2021-03-21T12:07:05Z</time>
      </trkpt>
      <trkpt lat="42.82936" lon="0.56954">
        <ele>1688.64</ele>
        <time>2021-03-21T12:07:07Z</time>
      </trkpt>
      <trkpt lat="42.82936" lon="0.56954">
        <ele>1688.642</ele>
        <time>2021-03-21T12:07:09Z</time>
      </trkpt>
      <trkpt lat="42.82937" lon="0.56954">
        <ele>1688.642</ele>
        <time>2021-03-21T12:07:11Z</time>
      </trkpt>
      <trkpt lat="42.82936" lon="0.56954">
        <ele>1688.214</ele>
        <time>2021-03-21T12:07:13Z</time>
      </trkpt>
      <trkpt lat="42.82936" lon="0.56954">
        <ele>1688.22</ele>
        <time>2021-03-21T12:07:15Z</time>
      </trkpt>
      <trkpt lat="42.82936" lon="0.56954">
        <ele>1688.217</ele>
        <time>2021-03-21T12:07:17Z</time>
      </trkpt>
      <trkpt lat="42.82936" lon="0.56954">
        <ele>1688.213</ele>
        <time>2021-03-21T12:07:19Z</time>
      </trkpt>
      <trkpt lat="42.82936" lon="0.56954">
        <ele>1688.206</ele>
        <time>2021-03-21T12:07:21Z</time>
      </trkpt>
      <trkpt lat="42.82936" lon="0.56954">
        <ele>1688.202</ele>
        <time>2021-03-21T12:07:23Z</time>
      </trkpt>
      <trkpt lat="42.82936" lon="0.56954">
        <ele>1688.192</ele>
        <time>2021-03-21T12:07:25Z</time>
      </trkpt>
      <trkpt lat="42.82936" lon="0.56953">
        <ele>1688.199</ele>
        <time>2021-03-21T12:07:27Z</time>
      </trkpt>
      <trkpt lat="42.82936" lon="0.56953">
        <ele>1688.199</ele>
        <time>2021-03-21T12:07:29Z</time>
      </trkpt>
      <trkpt lat="42.82936" lon="0.56953">
        <ele>1688.187</ele>
        <time>2021-03-21T12:07:31Z</time>
      </trkpt>
      <trkpt lat="42.82936" lon="0.56953">
        <ele>1688.179</ele>
        <time>2021-03-21T12:07:33Z</time>
      </trkpt>
      <trkpt lat="42.82936" lon="0.56953">
        <ele>1688.179</ele>
        <time>2021-03-21T12:07:35Z</time>
      </trkpt>
      <trkpt lat="42.82936" lon="0.56953">
        <ele>1688.178</ele>
        <time>2021-03-21T12:07:37Z</time>
      </trkpt>
      <trkpt lat="42.82936" lon="0.56953">
        <ele>1688.174</ele>
        <time>2021-03-21T12:07:39Z</time>
      </trkpt>
      <trkpt lat="42.82936" lon="0.56953">
        <ele>1688.173</ele>
        <time>2021-03-21T12:07:41Z</time>
      </trkpt>
      <trkpt lat="42.82936" lon="0.56953">
        <ele>1688.17</ele>
        <time>2021-03-21T12:07:43Z</time>
      </trkpt>
      <trkpt lat="42.82936" lon="0.56953">
        <ele>1688.164</ele>
        <time>2021-03-21T12:07:45Z</time>
      </trkpt>
      <trkpt lat="42.82936" lon="0.56953">
        <ele>1688.168</ele>
        <time>2021-03-21T12:07:47Z</time>
      </trkpt>
      <trkpt lat="42.82936" lon="0.56953">
        <ele>1688.164</ele>
        <time>2021-03-21T12:07:49Z</time>
      </trkpt>
      <trkpt lat="42.82936" lon="0.56953">
        <ele>1688.175</ele>
        <time>2021-03-21T12:07:51Z</time>
      </trkpt>
      <trkpt lat="42.82936" lon="0.56953">
        <ele>1688.172</ele>
        <time>2021-03-21T12:07:53Z</time>
      </trkpt>
      <trkpt lat="42.82936" lon="0.56953">
        <ele>1688.179</ele>
        <time>2021-03-21T12:07:55Z</time>
      </trkpt>
      <trkpt lat="42.82936" lon="0.56953">
        <ele>1688.175</ele>
        <time>2021-03-21T12:07:57Z</time>
      </trkpt>
      <trkpt lat="42.82936" lon="0.56953">
        <ele>1688.175</ele>
        <time>2021-03-21T12:07:59Z</time>
      </trkpt>
      <trkpt lat="42.82936" lon="0.56953">
        <ele>1688.18</ele>
        <time>2021-03-21T12:08:01Z</time>
      </trkpt>
      <trkpt lat="42.82936" lon="0.56953">
        <ele>1688.182</ele>
        <time>2021-03-21T12:08:03Z</time>
      </trkpt>
      <trkpt lat="42.82936" lon="0.56953">
        <ele>1688.181</ele>
        <time>2021-03-21T12:08:05Z</time>
      </trkpt>
      <trkpt lat="42.82936" lon="0.56953">
        <ele>1688.175</ele>
        <time>2021-03-21T12:08:07Z</time>
      </trkpt>
      <trkpt lat="42.82936" lon="0.56953">
        <ele>1688.169</ele>
        <time>2021-03-21T12:08:09Z</time>
      </trkpt>
      <trkpt lat="42.82936" lon="0.56953">
        <ele>1688.16</ele>
        <time>2021-03-21T12:08:11Z</time>
      </trkpt>
      <trkpt lat="42.82936" lon="0.56953">
        <ele>1688.152</ele>
        <time>2021-03-21T12:08:13Z</time>
      </trkpt>
      <trkpt lat="42.82936" lon="0.56953">
        <ele>1688.154</ele>
        <time>2021-03-21T12:08:15Z</time>
      </trkpt>
      <trkpt lat="42.82936" lon="0.56953">
        <ele>1688.158</ele>
        <time>2021-03-21T12:08:17Z</time>
      </trkpt>
      <trkpt lat="42.82937" lon="0.56954">
        <ele>1688.406</ele>
        <time>2021-03-21T12:08:19Z</time>
      </trkpt>
      <trkpt lat="42.82937" lon="0.56954">
        <ele>1688.485</ele>
        <time>2021-03-21T12:08:21Z</time>
      </trkpt>
      <trkpt lat="42.82937" lon="0.56954">
        <ele>1688.481</ele>
        <time>2021-03-21T12:08:23Z</time>
      </trkpt>
      <trkpt lat="42.82937" lon="0.56954">
        <ele>1688.481</ele>
        <time>2021-03-21T12:08:25Z</time>
      </trkpt>
      <trkpt lat="42.82937" lon="0.56954">
        <ele>1688.481</ele>
        <time>2021-03-21T12:08:27Z</time>
      </trkpt>
      <trkpt lat="42.82937" lon="0.56954">
        <ele>1688.461</ele>
        <time>2021-03-21T12:08:29Z</time>
      </trkpt>
      <trkpt lat="42.82937" lon="0.56954">
        <ele>1688.448</ele>
        <time>2021-03-21T12:08:31Z</time>
      </trkpt>
      <trkpt lat="42.82937" lon="0.56954">
        <ele>1688.448</ele>
        <time>2021-03-21T12:08:33Z</time>
      </trkpt>
      <trkpt lat="42.82937" lon="0.56954">
        <ele>1688.445</ele>
        <time>2021-03-21T12:08:35Z</time>
      </trkpt>
      <trkpt lat="42.82937" lon="0.56954">
        <ele>1688.441</ele>
        <time>2021-03-21T12:08:37Z</time>
      </trkpt>
      <trkpt lat="42.82937" lon="0.56954">
        <ele>1688.44</ele>
        <time>2021-03-21T12:08:39Z</time>
      </trkpt>
      <trkpt lat="42.82937" lon="0.56954">
        <ele>1688.433</ele>
        <time>2021-03-21T12:08:41Z</time>
      </trkpt>
      <trkpt lat="42.82937" lon="0.56954">
        <ele>1688.425</ele>
        <time>2021-03-21T12:08:43Z</time>
      </trkpt>
      <trkpt lat="42.82937" lon="0.56954">
        <ele>1688.416</ele>
        <time>2021-03-21T12:08:45Z</time>
      </trkpt>
      <trkpt lat="42.82937" lon="0.56954">
        <ele>1688.4</ele>
        <time>2021-03-21T12:08:47Z</time>
      </trkpt>
      <trkpt lat="42.82937" lon="0.56954">
        <ele>1688.387</ele>
        <time>2021-03-21T12:08:49Z</time>
      </trkpt>
      <trkpt lat="42.82937" lon="0.56954">
        <ele>1688.381</ele>
        <time>2021-03-21T12:08:51Z</time>
      </trkpt>
      <trkpt lat="42.82937" lon="0.56954">
        <ele>1688.376</ele>
        <time>2021-03-21T12:08:53Z</time>
      </trkpt>
      <trkpt lat="42.82937" lon="0.56954">
        <ele>1688.366</ele>
        <time>2021-03-21T12:08:55Z</time>
      </trkpt>
      <trkpt lat="42.82937" lon="0.56954">
        <ele>1688.36</ele>
        <time>2021-03-21T12:08:57Z</time>
      </trkpt>
      <trkpt lat="42.82937" lon="0.56954">
        <ele>1688.347</ele>
        <time>2021-03-21T12:08:59Z</time>
      </trkpt>
      <trkpt lat="42.82937" lon="0.56954">
        <ele>1688.345</ele>
        <time>2021-03-21T12:09:01Z</time>
      </trkpt>
      <trkpt lat="42.82937" lon="0.56954">
        <ele>1688.342</ele>
        <time>2021-03-21T12:09:03Z</time>
      </trkpt>
      <trkpt lat="42.82937" lon="0.56954">
        <ele>1688.328</ele>
        <time>2021-03-21T12:09:05Z</time>
      </trkpt>
      <trkpt lat="42.82937" lon="0.56954">
        <ele>1688.325</ele>
        <time>2021-03-21T12:09:07Z</time>
      </trkpt>
      <trkpt lat="42.82937" lon="0.56954">
        <ele>1688.319</ele>
        <time>2021-03-21T12:09:09Z</time>
      </trkpt>
      <trkpt lat="42.82937" lon="0.56954">
        <ele>1688.311</ele>
        <time>2021-03-21T12:09:11Z</time>
      </trkpt>
      <trkpt lat="42.82937" lon="0.56954">
        <ele>1688.309</ele>
        <time>2021-03-21T12:09:13Z</time>
      </trkpt>
      <trkpt lat="42.82937" lon="0.56954">
        <ele>1688.307</ele>
        <time>2021-03-21T12:09:15Z</time>
      </trkpt>
      <trkpt lat="42.82937" lon="0.56954">
        <ele>1688.304</ele>
        <time>2021-03-21T12:09:17Z</time>
      </trkpt>
      <trkpt lat="42.82937" lon="0.56954">
        <ele>1688.299</ele>
        <time>2021-03-21T12:09:19Z</time>
      </trkpt>
      <trkpt lat="42.82937" lon="0.56954">
        <ele>1688.296</ele>
        <time>2021-03-21T12:09:21Z</time>
      </trkpt>
      <trkpt lat="42.82937" lon="0.56954">
        <ele>1688.293</ele>
        <time>2021-03-21T12:09:23Z</time>
      </trkpt>
      <trkpt lat="42.82937" lon="0.56954">
        <ele>1688.288</ele>
        <time>2021-03-21T12:09:25Z</time>
      </trkpt>
      <trkpt lat="42.82937" lon="0.56954">
        <ele>1688.285</ele>
        <time>2021-03-21T12:09:27Z</time>
      </trkpt>
      <trkpt lat="42.82937" lon="0.56954">
        <ele>1688.284</ele>
        <time>2021-03-21T12:09:29Z</time>
      </trkpt>
      <trkpt lat="42.82937" lon="0.56954">
        <ele>1688.281</ele>
        <time>2021-03-21T12:09:31Z</time>
      </trkpt>
      <trkpt lat="42.82936" lon="0.56954">
        <ele>1688.099</ele>
        <time>2021-03-21T12:09:33Z</time>
      </trkpt>
      <trkpt lat="42.82933" lon="0.56953">
        <ele>1687.203</ele>
        <time>2021-03-21T12:09:35Z</time>
      </trkpt>
      <trkpt lat="42.82932" lon="0.56953">
        <ele>1687.169</ele>
        <time>2021-03-21T12:09:37Z</time>
      </trkpt>
      <trkpt lat="42.82932" lon="0.56953">
        <ele>1687.181</ele>
        <time>2021-03-21T12:09:39Z</time>
      </trkpt>
      <trkpt lat="42.82932" lon="0.56953">
        <ele>1687.191</ele>
        <time>2021-03-21T12:09:41Z</time>
      </trkpt>
      <trkpt lat="42.82932" lon="0.56953">
        <ele>1687.186</ele>
        <time>2021-03-21T12:09:43Z</time>
      </trkpt>
      <trkpt lat="42.82932" lon="0.56953">
        <ele>1687.181</ele>
        <time>2021-03-21T12:09:45Z</time>
      </trkpt>
      <trkpt lat="42.82932" lon="0.56953">
        <ele>1687.177</ele>
        <time>2021-03-21T12:09:47Z</time>
      </trkpt>
      <trkpt lat="42.82932" lon="0.56953">
        <ele>1687.174</ele>
        <time>2021-03-21T12:09:49Z</time>
      </trkpt>
      <trkpt lat="42.82932" lon="0.56953">
        <ele>1687.172</ele>
        <time>2021-03-21T12:09:51Z</time>
      </trkpt>
      <trkpt lat="42.82932" lon="0.56953">
        <ele>1687.171</ele>
        <time>2021-03-21T12:09:53Z</time>
      </trkpt>
      <trkpt lat="42.82932" lon="0.56953">
        <ele>1687.168</ele>
        <time>2021-03-21T12:09:55Z</time>
      </trkpt>
      <trkpt lat="42.82932" lon="0.56953">
        <ele>1687.164</ele>
        <time>2021-03-21T12:09:57Z</time>
      </trkpt>
      <trkpt lat="42.82932" lon="0.56953">
        <ele>1687.16</ele>
        <time>2021-03-21T12:09:59Z</time>
      </trkpt>
      <trkpt lat="42.82932" lon="0.56953">
        <ele>1687.149</ele>
        <time>2021-03-21T12:10:01Z</time>
      </trkpt>
      <trkpt lat="42.82932" lon="0.56953">
        <ele>1687.131</ele>
        <time>2021-03-21T12:10:03Z</time>
      </trkpt>
      <trkpt lat="42.82932" lon="0.56953">
        <ele>1687.139</ele>
        <time>2021-03-21T12:10:05Z</time>
      </trkpt>
      <trkpt lat="42.82932" lon="0.56953">
        <ele>1687.142</ele>
        <time>2021-03-21T12:10:07Z</time>
      </trkpt>
      <trkpt lat="42.82932" lon="0.56953">
        <ele>1687.142</ele>
        <time>2021-03-21T12:10:09Z</time>
      </trkpt>
      <trkpt lat="42.82932" lon="0.56953">
        <ele>1687.148</ele>
        <time>2021-03-21T12:10:11Z</time>
      </trkpt>
      <trkpt lat="42.82932" lon="0.56953">
        <ele>1687.145</ele>
        <time>2021-03-21T12:10:13Z</time>
      </trkpt>
      <trkpt lat="42.82932" lon="0.56953">
        <ele>1687.173</ele>
        <time>2021-03-21T12:10:15Z</time>
      </trkpt>
      <trkpt lat="42.82932" lon="0.56953">
        <ele>1687.164</ele>
        <time>2021-03-21T12:10:17Z</time>
      </trkpt>
      <trkpt lat="42.82932" lon="0.56953">
        <ele>1687.148</ele>
        <time>2021-03-21T12:10:19Z</time>
      </trkpt>
      <trkpt lat="42.82932" lon="0.56953">
        <ele>1687.142</ele>
        <time>2021-03-21T12:10:21Z</time>
      </trkpt>
      <trkpt lat="42.82932" lon="0.56953">
        <ele>1687.137</ele>
        <time>2021-03-21T12:10:23Z</time>
      </trkpt>
      <trkpt lat="42.82932" lon="0.56953">
        <ele>1687.132</ele>
        <time>2021-03-21T12:10:25Z</time>
      </trkpt>
      <trkpt lat="42.82932" lon="0.56953">
        <ele>1687.13</ele>
        <time>2021-03-21T12:10:27Z</time>
      </trkpt>
      <trkpt lat="42.82933" lon="0.56953">
        <ele>1686.574</ele>
        <time>2021-03-21T12:10:29Z</time>
      </trkpt>
      <trkpt lat="42.82933" lon="0.56953">
        <ele>1686.859</ele>
        <time>2021-03-21T12:10:31Z</time>
      </trkpt>
      <trkpt lat="42.82933" lon="0.56953">
        <ele>1686.875</ele>
        <time>2021-03-21T12:10:33Z</time>
      </trkpt>
      <trkpt lat="42.82934" lon="0.56953">
        <ele>1686.896</ele>
        <time>2021-03-21T12:10:35Z</time>
      </trkpt>
      <trkpt lat="42.82933" lon="0.56953">
        <ele>1686.934</ele>
        <time>2021-03-21T12:10:37Z</time>
      </trkpt>
      <trkpt lat="42.82933" lon="0.56953">
        <ele>1686.933</ele>
        <time>2021-03-21T12:10:39Z</time>
      </trkpt>
      <trkpt lat="42.82933" lon="0.56953">
        <ele>1686.929</ele>
        <time>2021-03-21T12:10:41Z</time>
      </trkpt>
      <trkpt lat="42.82933" lon="0.56953">
        <ele>1686.927</ele>
        <time>2021-03-21T12:10:43Z</time>
      </trkpt>
      <trkpt lat="42.82933" lon="0.56953">
        <ele>1686.922</ele>
        <time>2021-03-21T12:10:45Z</time>
      </trkpt>
      <trkpt lat="42.82933" lon="0.56953">
        <ele>1686.928</ele>
        <time>2021-03-21T12:10:47Z</time>
      </trkpt>
      <trkpt lat="42.82933" lon="0.56953">
        <ele>1686.929</ele>
        <time>2021-03-21T12:10:49Z</time>
      </trkpt>
      <trkpt lat="42.82933" lon="0.56953">
        <ele>1686.938</ele>
        <time>2021-03-21T12:10:51Z</time>
      </trkpt>
      <trkpt lat="42.82933" lon="0.56953">
        <ele>1686.931</ele>
        <time>2021-03-21T12:10:53Z</time>
      </trkpt>
      <trkpt lat="42.82933" lon="0.56953">
        <ele>1686.925</ele>
        <time>2021-03-21T12:10:55Z</time>
      </trkpt>
      <trkpt lat="42.82933" lon="0.56953">
        <ele>1686.925</ele>
        <time>2021-03-21T12:10:57Z</time>
      </trkpt>
      <trkpt lat="42.82933" lon="0.56953">
        <ele>1686.916</ele>
        <time>2021-03-21T12:10:59Z</time>
      </trkpt>
      <trkpt lat="42.82933" lon="0.56953">
        <ele>1686.902</ele>
        <time>2021-03-21T12:11:01Z</time>
      </trkpt>
      <trkpt lat="42.82933" lon="0.56953">
        <ele>1686.639</ele>
        <time>2021-03-21T12:11:03Z</time>
      </trkpt>
      <trkpt lat="42.82934" lon="0.5695">
        <ele>1682.641</ele>
        <time>2021-03-21T12:11:05Z</time>
      </trkpt>
      <trkpt lat="42.82937" lon="0.56947">
        <ele>1678.444</ele>
        <time>2021-03-21T12:11:07Z</time>
      </trkpt>
      <trkpt lat="42.82936" lon="0.56949">
        <ele>1680.072</ele>
        <time>2021-03-21T12:11:09Z</time>
      </trkpt>
      <trkpt lat="42.82936" lon="0.56953">
        <ele>1679.661</ele>
        <time>2021-03-21T12:11:11Z</time>
      </trkpt>
      <trkpt lat="42.82936" lon="0.56953">
        <ele>1679.658</ele>
        <time>2021-03-21T12:11:13Z</time>
      </trkpt>
      <trkpt lat="42.82936" lon="0.56953">
        <ele>1679.651</ele>
        <time>2021-03-21T12:11:15Z</time>
      </trkpt>
      <trkpt lat="42.82936" lon="0.56953">
        <ele>1679.649</ele>
        <time>2021-03-21T12:11:17Z</time>
      </trkpt>
      <trkpt lat="42.82936" lon="0.56953">
        <ele>1679.699</ele>
        <time>2021-03-21T12:11:19Z</time>
      </trkpt>
      <trkpt lat="42.82936" lon="0.56952">
        <ele>1679.294</ele>
        <time>2021-03-21T12:11:21Z</time>
      </trkpt>
      <trkpt lat="42.82936" lon="0.56952">
        <ele>1679.419</ele>
        <time>2021-03-21T12:11:23Z</time>
      </trkpt>
      <trkpt lat="42.82939" lon="0.56953">
        <ele>1679.016</ele>
        <time>2021-03-21T12:11:25Z</time>
      </trkpt>
      <trkpt lat="42.8294" lon="0.56953">
        <ele>1679.014</ele>
        <time>2021-03-21T12:11:27Z</time>
      </trkpt>
      <trkpt lat="42.8294" lon="0.56953">
        <ele>1679.027</ele>
        <time>2021-03-21T12:11:29Z</time>
      </trkpt>
      <trkpt lat="42.8294" lon="0.56953">
        <ele>1679.027</ele>
        <time>2021-03-21T12:11:31Z</time>
      </trkpt>
      <trkpt lat="42.8294" lon="0.56953">
        <ele>1679.018</ele>
        <time>2021-03-21T12:11:33Z</time>
      </trkpt>
      <trkpt lat="42.8294" lon="0.56953">
        <ele>1679.01</ele>
        <time>2021-03-21T12:11:35Z</time>
      </trkpt>
      <trkpt lat="42.8294" lon="0.56953">
        <ele>1679.013</ele>
        <time>2021-03-21T12:11:37Z</time>
      </trkpt>
      <trkpt lat="42.8294" lon="0.56953">
        <ele>1679.016</ele>
        <time>2021-03-21T12:11:39Z</time>
      </trkpt>
      <trkpt lat="42.8294" lon="0.56953">
        <ele>1679.015</ele>
        <time>2021-03-21T12:11:41Z</time>
      </trkpt>
      <trkpt lat="42.8294" lon="0.56953">
        <ele>1679.024</ele>
        <time>2021-03-21T12:11:43Z</time>
      </trkpt>
      <trkpt lat="42.8294" lon="0.56953">
        <ele>1679.021</ele>
        <time>2021-03-21T12:11:45Z</time>
      </trkpt>
      <trkpt lat="42.8294" lon="0.56953">
        <ele>1679.022</ele>
        <time>2021-03-21T12:11:47Z</time>
      </trkpt>
      <trkpt lat="42.8294" lon="0.56953">
        <ele>1679.043</ele>
        <time>2021-03-21T12:11:49Z</time>
      </trkpt>
      <trkpt lat="42.82939" lon="0.56953">
        <ele>1678.166</ele>
        <time>2021-03-21T12:11:51Z</time>
      </trkpt>
      <trkpt lat="42.82939" lon="0.56953">
        <ele>1677.97</ele>
        <time>2021-03-21T12:11:53Z</time>
      </trkpt>
      <trkpt lat="42.8294" lon="0.56954">
        <ele>1678.867</ele>
        <time>2021-03-21T12:11:55Z</time>
      </trkpt>
      <trkpt lat="42.82939" lon="0.56954">
        <ele>1678.578</ele>
        <time>2021-03-21T12:11:57Z</time>
      </trkpt>
      <trkpt lat="42.82939" lon="0.56954">
        <ele>1678.578</ele>
        <time>2021-03-21T12:11:58Z</time>
      </trkpt>
      <trkpt lat="42.82939" lon="0.56954">
        <ele>1678.576</ele>
        <time>2021-03-21T12:12:01Z</time>
      </trkpt>
      <trkpt lat="42.82939" lon="0.56954">
        <ele>1678.574</ele>
        <time>2021-03-21T12:12:03Z</time>
      </trkpt>
      <trkpt lat="42.82939" lon="0.56954">
        <ele>1678.559</ele>
        <time>2021-03-21T12:12:05Z</time>
      </trkpt>
      <trkpt lat="42.82939" lon="0.56954">
        <ele>1678.56</ele>
        <time>2021-03-21T12:12:07Z</time>
      </trkpt>
      <trkpt lat="42.82939" lon="0.56954">
        <ele>1678.56</ele>
        <time>2021-03-21T12:12:09Z</time>
      </trkpt>
      <trkpt lat="42.82939" lon="0.56954">
        <ele>1678.561</ele>
        <time>2021-03-21T12:12:11Z</time>
      </trkpt>
      <trkpt lat="42.82939" lon="0.56954">
        <ele>1678.561</ele>
        <time>2021-03-21T12:12:13Z</time>
      </trkpt>
      <trkpt lat="42.82939" lon="0.56954">
        <ele>1678.568</ele>
        <time>2021-03-21T12:12:15Z</time>
      </trkpt>
      <trkpt lat="42.82939" lon="0.56954">
        <ele>1678.574</ele>
        <time>2021-03-21T12:12:17Z</time>
      </trkpt>
      <trkpt lat="42.82939" lon="0.56954">
        <ele>1678.567</ele>
        <time>2021-03-21T12:12:19Z</time>
      </trkpt>
      <trkpt lat="42.82939" lon="0.56954">
        <ele>1678.563</ele>
        <time>2021-03-21T12:12:21Z</time>
      </trkpt>
      <trkpt lat="42.82939" lon="0.56954">
        <ele>1678.559</ele>
        <time>2021-03-21T12:12:23Z</time>
      </trkpt>
      <trkpt lat="42.82939" lon="0.56954">
        <ele>1678.563</ele>
        <time>2021-03-21T12:12:25Z</time>
      </trkpt>
      <trkpt lat="42.82939" lon="0.56954">
        <ele>1678.561</ele>
        <time>2021-03-21T12:12:27Z</time>
      </trkpt>
      <trkpt lat="42.82939" lon="0.56954">
        <ele>1678.567</ele>
        <time>2021-03-21T12:12:29Z</time>
      </trkpt>
      <trkpt lat="42.82939" lon="0.56954">
        <ele>1678.566</ele>
        <time>2021-03-21T12:12:31Z</time>
      </trkpt>
      <trkpt lat="42.82939" lon="0.56954">
        <ele>1678.558</ele>
        <time>2021-03-21T12:12:33Z</time>
      </trkpt>
      <trkpt lat="42.82939" lon="0.56954">
        <ele>1678.552</ele>
        <time>2021-03-21T12:12:35Z</time>
      </trkpt>
      <trkpt lat="42.82939" lon="0.56954">
        <ele>1678.553</ele>
        <time>2021-03-21T12:12:37Z</time>
      </trkpt>
      <trkpt lat="42.82939" lon="0.56954">
        <ele>1678.557</ele>
        <time>2021-03-21T12:12:39Z</time>
      </trkpt>
      <trkpt lat="42.82939" lon="0.56954">
        <ele>1678.563</ele>
        <time>2021-03-21T12:12:41Z</time>
      </trkpt>
      <trkpt lat="42.82939" lon="0.56954">
        <ele>1678.555</ele>
        <time>2021-03-21T12:12:43Z</time>
      </trkpt>
      <trkpt lat="42.8294" lon="0.56954">
        <ele>1678.721</ele>
        <time>2021-03-21T12:12:45Z</time>
      </trkpt>
      <trkpt lat="42.8294" lon="0.56954">
        <ele>1678.72</ele>
        <time>2021-03-21T12:12:47Z</time>
      </trkpt>
      <trkpt lat="42.8294" lon="0.56954">
        <ele>1678.72</ele>
        <time>2021-03-21T12:12:49Z</time>
      </trkpt>
      <trkpt lat="42.8294" lon="0.56954">
        <ele>1678.719</ele>
        <time>2021-03-21T12:12:51Z</time>
      </trkpt>
      <trkpt lat="42.8294" lon="0.56954">
        <ele>1678.721</ele>
        <time>2021-03-21T12:12:53Z</time>
      </trkpt>
      <trkpt lat="42.8294" lon="0.56954">
        <ele>1678.712</ele>
        <time>2021-03-21T12:12:55Z</time>
      </trkpt>
      <trkpt lat="42.8294" lon="0.56954">
        <ele>1678.714</ele>
        <time>2021-03-21T12:12:57Z</time>
      </trkpt>
      <trkpt lat="42.8294" lon="0.56954">
        <ele>1678.715</ele>
        <time>2021-03-21T12:12:59Z</time>
      </trkpt>
      <trkpt lat="42.8294" lon="0.56954">
        <ele>1678.711</ele>
        <time>2021-03-21T12:13:01Z</time>
      </trkpt>
      <trkpt lat="42.8294" lon="0.56954">
        <ele>1678.712</ele>
        <time>2021-03-21T12:13:03Z</time>
      </trkpt>
      <trkpt lat="42.8294" lon="0.56954">
        <ele>1678.712</ele>
        <time>2021-03-21T12:13:05Z</time>
      </trkpt>
      <trkpt lat="42.8294" lon="0.56954">
        <ele>1678.712</ele>
        <time>2021-03-21T12:13:07Z</time>
      </trkpt>
      <trkpt lat="42.8294" lon="0.56954">
        <ele>1678.706</ele>
        <time>2021-03-21T12:13:09Z</time>
      </trkpt>
      <trkpt lat="42.8294" lon="0.56954">
        <ele>1678.71</ele>
        <time>2021-03-21T12:13:11Z</time>
      </trkpt>
      <trkpt lat="42.8294" lon="0.56954">
        <ele>1678.713</ele>
        <time>2021-03-21T12:13:13Z</time>
      </trkpt>
      <trkpt lat="42.8294" lon="0.56954">
        <ele>1679.102</ele>
        <time>2021-03-21T12:13:15Z</time>
      </trkpt>
      <trkpt lat="42.8294" lon="0.56953">
        <ele>1679.425</ele>
        <time>2021-03-21T12:13:17Z</time>
      </trkpt>
      <trkpt lat="42.8294" lon="0.56953">
        <ele>1679.425</ele>
        <time>2021-03-21T12:13:19Z</time>
      </trkpt>
      <trkpt lat="42.8294" lon="0.56953">
        <ele>1679.427</ele>
        <time>2021-03-21T12:13:21Z</time>
      </trkpt>
      <trkpt lat="42.8294" lon="0.56953">
        <ele>1679.563</ele>
        <time>2021-03-21T12:13:23Z</time>
      </trkpt>
      <trkpt lat="42.82939" lon="0.56953">
        <ele>1679.135</ele>
        <time>2021-03-21T12:13:25Z</time>
      </trkpt>
      <trkpt lat="42.82939" lon="0.56953">
        <ele>1679.13</ele>
        <time>2021-03-21T12:13:27Z</time>
      </trkpt>
      <trkpt lat="42.82939" lon="0.56953">
        <ele>1679.13</ele>
        <time>2021-03-21T12:13:29Z</time>
      </trkpt>
      <trkpt lat="42.82939" lon="0.56953">
        <ele>1679.131</ele>
        <time>2021-03-21T12:13:31Z</time>
      </trkpt>
      <trkpt lat="42.82939" lon="0.56953">
        <ele>1679.125</ele>
        <time>2021-03-21T12:13:33Z</time>
      </trkpt>
      <trkpt lat="42.82939" lon="0.56953">
        <ele>1679.126</ele>
        <time>2021-03-21T12:13:35Z</time>
      </trkpt>
      <trkpt lat="42.82939" lon="0.56953">
        <ele>1679.127</ele>
        <time>2021-03-21T12:13:37Z</time>
      </trkpt>
      <trkpt lat="42.82939" lon="0.56953">
        <ele>1679.134</ele>
        <time>2021-03-21T12:13:39Z</time>
      </trkpt>
      <trkpt lat="42.82939" lon="0.56953">
        <ele>1679.136</ele>
        <time>2021-03-21T12:13:41Z</time>
      </trkpt>
      <trkpt lat="42.82939" lon="0.56953">
        <ele>1679.141</ele>
        <time>2021-03-21T12:13:43Z</time>
      </trkpt>
      <trkpt lat="42.82939" lon="0.56953">
        <ele>1679.142</ele>
        <time>2021-03-21T12:13:45Z</time>
      </trkpt>
      <trkpt lat="42.82939" lon="0.56953">
        <ele>1679.137</ele>
        <time>2021-03-21T12:13:47Z</time>
      </trkpt>
      <trkpt lat="42.82939" lon="0.56953">
        <ele>1679.134</ele>
        <time>2021-03-21T12:13:49Z</time>
      </trkpt>
      <trkpt lat="42.82939" lon="0.56953">
        <ele>1679.127</ele>
        <time>2021-03-21T12:13:51Z</time>
      </trkpt>
      <trkpt lat="42.82939" lon="0.56953">
        <ele>1679.12</ele>
        <time>2021-03-21T12:13:53Z</time>
      </trkpt>
      <trkpt lat="42.82939" lon="0.56953">
        <ele>1679.123</ele>
        <time>2021-03-21T12:13:55Z</time>
      </trkpt>
      <trkpt lat="42.82939" lon="0.56953">
        <ele>1679.124</ele>
        <time>2021-03-21T12:13:57Z</time>
      </trkpt>
      <trkpt lat="42.82939" lon="0.56953">
        <ele>1679.122</ele>
        <time>2021-03-21T12:13:59Z</time>
      </trkpt>
      <trkpt lat="42.82939" lon="0.56953">
        <ele>1679.127</ele>
        <time>2021-03-21T12:14:01Z</time>
      </trkpt>
      <trkpt lat="42.82939" lon="0.56953">
        <ele>1679.127</ele>
        <time>2021-03-21T12:14:03Z</time>
      </trkpt>
      <trkpt lat="42.82939" lon="0.56953">
        <ele>1679.127</ele>
        <time>2021-03-21T12:14:05Z</time>
      </trkpt>
      <trkpt lat="42.82939" lon="0.56953">
        <ele>1679.128</ele>
        <time>2021-03-21T12:14:07Z</time>
      </trkpt>
      <trkpt lat="42.82939" lon="0.56953">
        <ele>1679.128</ele>
        <time>2021-03-21T12:14:09Z</time>
      </trkpt>
      <trkpt lat="42.82939" lon="0.56953">
        <ele>1679.13</ele>
        <time>2021-03-21T12:14:11Z</time>
      </trkpt>
      <trkpt lat="42.82939" lon="0.56953">
        <ele>1679.133</ele>
        <time>2021-03-21T12:14:13Z</time>
      </trkpt>
      <trkpt lat="42.82939" lon="0.56953">
        <ele>1679.131</ele>
        <time>2021-03-21T12:14:15Z</time>
      </trkpt>
      <trkpt lat="42.82939" lon="0.56953">
        <ele>1679.13</ele>
        <time>2021-03-21T12:14:17Z</time>
      </trkpt>
      <trkpt lat="42.82939" lon="0.56953">
        <ele>1679.119</ele>
        <time>2021-03-21T12:14:19Z</time>
      </trkpt>
      <trkpt lat="42.8294" lon="0.56953">
        <ele>1679.44</ele>
        <time>2021-03-21T12:14:21Z</time>
      </trkpt>
      <trkpt lat="42.82941" lon="0.56953">
        <ele>1679.478</ele>
        <time>2021-03-21T12:14:23Z</time>
      </trkpt>
      <trkpt lat="42.82941" lon="0.56953">
        <ele>1679.475</ele>
        <time>2021-03-21T12:14:25Z</time>
      </trkpt>
      <trkpt lat="42.82941" lon="0.56953">
        <ele>1679.482</ele>
        <time>2021-03-21T12:14:27Z</time>
      </trkpt>
      <trkpt lat="42.82941" lon="0.56953">
        <ele>1679.476</ele>
        <time>2021-03-21T12:14:29Z</time>
      </trkpt>
      <trkpt lat="42.82941" lon="0.56953">
        <ele>1679.472</ele>
        <time>2021-03-21T12:14:31Z</time>
      </trkpt>
      <trkpt lat="42.82941" lon="0.56953">
        <ele>1679.459</ele>
        <time>2021-03-21T12:14:33Z</time>
      </trkpt>
      <trkpt lat="42.82941" lon="0.56953">
        <ele>1679.458</ele>
        <time>2021-03-21T12:14:35Z</time>
      </trkpt>
      <trkpt lat="42.82941" lon="0.56953">
        <ele>1679.454</ele>
        <time>2021-03-21T12:14:37Z</time>
      </trkpt>
      <trkpt lat="42.82941" lon="0.56953">
        <ele>1679.456</ele>
        <time>2021-03-21T12:14:39Z</time>
      </trkpt>
      <trkpt lat="42.82941" lon="0.56953">
        <ele>1679.452</ele>
        <time>2021-03-21T12:14:41Z</time>
      </trkpt>
      <trkpt lat="42.82941" lon="0.56953">
        <ele>1679.443</ele>
        <time>2021-03-21T12:14:43Z</time>
      </trkpt>
      <trkpt lat="42.82941" lon="0.56953">
        <ele>1679.444</ele>
        <time>2021-03-21T12:14:45Z</time>
      </trkpt>
      <trkpt lat="42.82941" lon="0.56953">
        <ele>1679.45</ele>
        <time>2021-03-21T12:14:47Z</time>
      </trkpt>
      <trkpt lat="42.82941" lon="0.56953">
        <ele>1679.452</ele>
        <time>2021-03-21T12:14:49Z</time>
      </trkpt>
      <trkpt lat="42.82941" lon="0.56953">
        <ele>1679.443</ele>
        <time>2021-03-21T12:14:51Z</time>
      </trkpt>
      <trkpt lat="42.82941" lon="0.56953">
        <ele>1679.444</ele>
        <time>2021-03-21T12:14:53Z</time>
      </trkpt>
      <trkpt lat="42.82941" lon="0.56953">
        <ele>1679.44</ele>
        <time>2021-03-21T12:14:55Z</time>
      </trkpt>
      <trkpt lat="42.82941" lon="0.56953">
        <ele>1679.446</ele>
        <time>2021-03-21T12:14:57Z</time>
      </trkpt>
      <trkpt lat="42.8294" lon="0.56953">
        <ele>1679.087</ele>
        <time>2021-03-21T12:14:59Z</time>
      </trkpt>
      <trkpt lat="42.8294" lon="0.56953">
        <ele>1679.074</ele>
        <time>2021-03-21T12:15:01Z</time>
      </trkpt>
      <trkpt lat="42.8294" lon="0.56953">
        <ele>1679.07</ele>
        <time>2021-03-21T12:15:03Z</time>
      </trkpt>
      <trkpt lat="42.8294" lon="0.56953">
        <ele>1679.073</ele>
        <time>2021-03-21T12:15:05Z</time>
      </trkpt>
      <trkpt lat="42.8294" lon="0.56953">
        <ele>1679.072</ele>
        <time>2021-03-21T12:15:07Z</time>
      </trkpt>
      <trkpt lat="42.8294" lon="0.56953">
        <ele>1679.073</ele>
        <time>2021-03-21T12:15:09Z</time>
      </trkpt>
      <trkpt lat="42.8294" lon="0.56953">
        <ele>1679.071</ele>
        <time>2021-03-21T12:15:11Z</time>
      </trkpt>
      <trkpt lat="42.8294" lon="0.56953">
        <ele>1679.07</ele>
        <time>2021-03-21T12:15:13Z</time>
      </trkpt>
      <trkpt lat="42.8294" lon="0.56953">
        <ele>1679.07</ele>
        <time>2021-03-21T12:15:15Z</time>
      </trkpt>
      <trkpt lat="42.8294" lon="0.56953">
        <ele>1679.076</ele>
        <time>2021-03-21T12:15:17Z</time>
      </trkpt>
      <trkpt lat="42.8294" lon="0.56953">
        <ele>1679.075</ele>
        <time>2021-03-21T12:15:19Z</time>
      </trkpt>
      <trkpt lat="42.8294" lon="0.56953">
        <ele>1679.069</ele>
        <time>2021-03-21T12:15:21Z</time>
      </trkpt>
      <trkpt lat="42.8294" lon="0.56953">
        <ele>1679.069</ele>
        <time>2021-03-21T12:15:23Z</time>
      </trkpt>
      <trkpt lat="42.8294" lon="0.56953">
        <ele>1679.069</ele>
        <time>2021-03-21T12:15:25Z</time>
      </trkpt>
      <trkpt lat="42.8294" lon="0.56953">
        <ele>1679.072</ele>
        <time>2021-03-21T12:15:27Z</time>
      </trkpt>
      <trkpt lat="42.8294" lon="0.56953">
        <ele>1679.075</ele>
        <time>2021-03-21T12:15:29Z</time>
      </trkpt>
      <trkpt lat="42.8294" lon="0.56953">
        <ele>1679.069</ele>
        <time>2021-03-21T12:15:31Z</time>
      </trkpt>
      <trkpt lat="42.8294" lon="0.56953">
        <ele>1679.064</ele>
        <time>2021-03-21T12:15:33Z</time>
      </trkpt>
      <trkpt lat="42.82939" lon="0.56953">
        <ele>1678.862</ele>
        <time>2021-03-21T12:15:35Z</time>
      </trkpt>
      <trkpt lat="42.82941" lon="0.56953">
        <ele>1678.034</ele>
        <time>2021-03-21T12:15:37Z</time>
      </trkpt>
      <trkpt lat="42.8294" lon="0.56951">
        <ele>1678.259</ele>
        <time>2021-03-21T12:15:39Z</time>
      </trkpt>
      <trkpt lat="42.82939" lon="0.56949">
        <ele>1677.252</ele>
        <time>2021-03-21T12:15:41Z</time>
      </trkpt>
      <trkpt lat="42.82939" lon="0.56949">
        <ele>1677.367</ele>
        <time>2021-03-21T12:15:43Z</time>
      </trkpt>
      <trkpt lat="42.82939" lon="0.56949">
        <ele>1677.548</ele>
        <time>2021-03-21T12:15:45Z</time>
      </trkpt>
      <trkpt lat="42.82939" lon="0.56949">
        <ele>1677.256</ele>
        <time>2021-03-21T12:15:47Z</time>
      </trkpt>
      <trkpt lat="42.82939" lon="0.56949">
        <ele>1677.257</ele>
        <time>2021-03-21T12:15:49Z</time>
      </trkpt>
      <trkpt lat="42.82939" lon="0.56949">
        <ele>1677.256</ele>
        <time>2021-03-21T12:15:51Z</time>
      </trkpt>
      <trkpt lat="42.82939" lon="0.56949">
        <ele>1677.255</ele>
        <time>2021-03-21T12:15:53Z</time>
      </trkpt>
      <trkpt lat="42.82939" lon="0.56949">
        <ele>1677.256</ele>
        <time>2021-03-21T12:15:55Z</time>
      </trkpt>
      <trkpt lat="42.82939" lon="0.56949">
        <ele>1677.345</ele>
        <time>2021-03-21T12:15:57Z</time>
      </trkpt>
      <trkpt lat="42.82939" lon="0.56949">
        <ele>1677.306</ele>
        <time>2021-03-21T12:15:59Z</time>
      </trkpt>
      <trkpt lat="42.82939" lon="0.56949">
        <ele>1677.309</ele>
        <time>2021-03-21T12:16:01Z</time>
      </trkpt>
      <trkpt lat="42.82939" lon="0.56949">
        <ele>1677.307</ele>
        <time>2021-03-21T12:16:03Z</time>
      </trkpt>
      <trkpt lat="42.82939" lon="0.56949">
        <ele>1677.307</ele>
        <time>2021-03-21T12:16:05Z</time>
      </trkpt>
      <trkpt lat="42.82939" lon="0.56949">
        <ele>1677.306</ele>
        <time>2021-03-21T12:16:07Z</time>
      </trkpt>
      <trkpt lat="42.82939" lon="0.56949">
        <ele>1677.299</ele>
        <time>2021-03-21T12:16:09Z</time>
      </trkpt>
      <trkpt lat="42.82939" lon="0.56949">
        <ele>1677.302</ele>
        <time>2021-03-21T12:16:11Z</time>
      </trkpt>
      <trkpt lat="42.82939" lon="0.56949">
        <ele>1677.302</ele>
        <time>2021-03-21T12:16:13Z</time>
      </trkpt>
      <trkpt lat="42.82939" lon="0.56949">
        <ele>1677.312</ele>
        <time>2021-03-21T12:16:15Z</time>
      </trkpt>
      <trkpt lat="42.82939" lon="0.56949">
        <ele>1677.308</ele>
        <time>2021-03-21T12:16:17Z</time>
      </trkpt>
      <trkpt lat="42.82939" lon="0.56949">
        <ele>1677.31</ele>
        <time>2021-03-21T12:16:19Z</time>
      </trkpt>
      <trkpt lat="42.82939" lon="0.56949">
        <ele>1677.309</ele>
        <time>2021-03-21T12:16:21Z</time>
      </trkpt>
      <trkpt lat="42.82939" lon="0.56949">
        <ele>1677.311</ele>
        <time>2021-03-21T12:16:23Z</time>
      </trkpt>
      <trkpt lat="42.82939" lon="0.56949">
        <ele>1677.313</ele>
        <time>2021-03-21T12:16:25Z</time>
      </trkpt>
      <trkpt lat="42.82939" lon="0.56949">
        <ele>1677.311</ele>
        <time>2021-03-21T12:16:27Z</time>
      </trkpt>
      <trkpt lat="42.82939" lon="0.56949">
        <ele>1677.311</ele>
        <time>2021-03-21T12:16:29Z</time>
      </trkpt>
      <trkpt lat="42.82939" lon="0.56949">
        <ele>1677.307</ele>
        <time>2021-03-21T12:16:31Z</time>
      </trkpt>
      <trkpt lat="42.82939" lon="0.56949">
        <ele>1677.306</ele>
        <time>2021-03-21T12:16:33Z</time>
      </trkpt>
      <trkpt lat="42.82939" lon="0.56949">
        <ele>1677.31</ele>
        <time>2021-03-21T12:16:35Z</time>
      </trkpt>
      <trkpt lat="42.82939" lon="0.56949">
        <ele>1677.309</ele>
        <time>2021-03-21T12:16:37Z</time>
      </trkpt>
      <trkpt lat="42.82939" lon="0.56949">
        <ele>1677.311</ele>
        <time>2021-03-21T12:16:39Z</time>
      </trkpt>
      <trkpt lat="42.82939" lon="0.56949">
        <ele>1677.312</ele>
        <time>2021-03-21T12:16:41Z</time>
      </trkpt>
      <trkpt lat="42.82939" lon="0.56949">
        <ele>1677.315</ele>
        <time>2021-03-21T12:16:43Z</time>
      </trkpt>
      <trkpt lat="42.82939" lon="0.56949">
        <ele>1677.317</ele>
        <time>2021-03-21T12:16:45Z</time>
      </trkpt>
      <trkpt lat="42.82939" lon="0.56949">
        <ele>1677.319</ele>
        <time>2021-03-21T12:16:47Z</time>
      </trkpt>
      <trkpt lat="42.82939" lon="0.56949">
        <ele>1677.32</ele>
        <time>2021-03-21T12:16:49Z</time>
      </trkpt>
      <trkpt lat="42.82939" lon="0.56949">
        <ele>1677.319</ele>
        <time>2021-03-21T12:16:51Z</time>
      </trkpt>
      <trkpt lat="42.82939" lon="0.56949">
        <ele>1677.319</ele>
        <time>2021-03-21T12:16:53Z</time>
      </trkpt>
      <trkpt lat="42.82939" lon="0.56949">
        <ele>1677.321</ele>
        <time>2021-03-21T12:16:55Z</time>
      </trkpt>
      <trkpt lat="42.82939" lon="0.56949">
        <ele>1677.322</ele>
        <time>2021-03-21T12:16:57Z</time>
      </trkpt>
      <trkpt lat="42.82939" lon="0.56949">
        <ele>1677.324</ele>
        <time>2021-03-21T12:16:59Z</time>
      </trkpt>
      <trkpt lat="42.82939" lon="0.56949">
        <ele>1677.323</ele>
        <time>2021-03-21T12:17:01Z</time>
      </trkpt>
      <trkpt lat="42.82939" lon="0.56949">
        <ele>1677.322</ele>
        <time>2021-03-21T12:17:03Z</time>
      </trkpt>
      <trkpt lat="42.82939" lon="0.56949">
        <ele>1677.323</ele>
        <time>2021-03-21T12:17:06Z</time>
      </trkpt>
      <trkpt lat="42.82939" lon="0.56949">
        <ele>1677.323</ele>
        <time>2021-03-21T12:17:08Z</time>
      </trkpt>
      <trkpt lat="42.82939" lon="0.56949">
        <ele>1677.323</ele>
        <time>2021-03-21T12:17:10Z</time>
      </trkpt>
      <trkpt lat="42.82939" lon="0.56949">
        <ele>1677.325</ele>
        <time>2021-03-21T12:17:12Z</time>
      </trkpt>
      <trkpt lat="42.82939" lon="0.56949">
        <ele>1677.32</ele>
        <time>2021-03-21T12:17:14Z</time>
      </trkpt>
      <trkpt lat="42.82939" lon="0.56949">
        <ele>1677.315</ele>
        <time>2021-03-21T12:17:16Z</time>
      </trkpt>
      <trkpt lat="42.82939" lon="0.56949">
        <ele>1677.315</ele>
        <time>2021-03-21T12:17:18Z</time>
      </trkpt>
      <trkpt lat="42.82939" lon="0.56949">
        <ele>1677.314</ele>
        <time>2021-03-21T12:17:20Z</time>
      </trkpt>
      <trkpt lat="42.82939" lon="0.56949">
        <ele>1677.315</ele>
        <time>2021-03-21T12:17:22Z</time>
      </trkpt>
      <trkpt lat="42.82939" lon="0.56949">
        <ele>1677.316</ele>
        <time>2021-03-21T12:17:24Z</time>
      </trkpt>
      <trkpt lat="42.82939" lon="0.56949">
        <ele>1677.312</ele>
        <time>2021-03-21T12:17:26Z</time>
      </trkpt>
      <trkpt lat="42.82939" lon="0.56949">
        <ele>1677.31</ele>
        <time>2021-03-21T12:17:28Z</time>
      </trkpt>
      <trkpt lat="42.82939" lon="0.56949">
        <ele>1677.31</ele>
        <time>2021-03-21T12:17:30Z</time>
      </trkpt>
      <trkpt lat="42.82939" lon="0.56949">
        <ele>1677.305</ele>
        <time>2021-03-21T12:17:32Z</time>
      </trkpt>
      <trkpt lat="42.82939" lon="0.56949">
        <ele>1677.31</ele>
        <time>2021-03-21T12:17:34Z</time>
      </trkpt>
      <trkpt lat="42.82939" lon="0.56949">
        <ele>1677.309</ele>
        <time>2021-03-21T12:17:36Z</time>
      </trkpt>
      <trkpt lat="42.82939" lon="0.56949">
        <ele>1677.305</ele>
        <time>2021-03-21T12:17:38Z</time>
      </trkpt>
      <trkpt lat="42.82939" lon="0.56949">
        <ele>1677.307</ele>
        <time>2021-03-21T12:17:40Z</time>
      </trkpt>
      <trkpt lat="42.82939" lon="0.56949">
        <ele>1677.308</ele>
        <time>2021-03-21T12:17:42Z</time>
      </trkpt>
      <trkpt lat="42.82939" lon="0.56949">
        <ele>1677.309</ele>
        <time>2021-03-21T12:17:44Z</time>
      </trkpt>
      <trkpt lat="42.82939" lon="0.56949">
        <ele>1677.305</ele>
        <time>2021-03-21T12:17:46Z</time>
      </trkpt>
      <trkpt lat="42.82939" lon="0.56949">
        <ele>1677.305</ele>
        <time>2021-03-21T12:17:48Z</time>
      </trkpt>
      <trkpt lat="42.82939" lon="0.56949">
        <ele>1677.303</ele>
        <time>2021-03-21T12:17:50Z</time>
      </trkpt>
      <trkpt lat="42.82939" lon="0.56949">
        <ele>1677.295</ele>
        <time>2021-03-21T12:17:52Z</time>
      </trkpt>
      <trkpt lat="42.82939" lon="0.56949">
        <ele>1677.296</ele>
        <time>2021-03-21T12:17:54Z</time>
      </trkpt>
      <trkpt lat="42.82939" lon="0.56949">
        <ele>1677.299</ele>
        <time>2021-03-21T12:17:56Z</time>
      </trkpt>
      <trkpt lat="42.82939" lon="0.56949">
        <ele>1677.295</ele>
        <time>2021-03-21T12:17:58Z</time>
      </trkpt>
      <trkpt lat="42.82939" lon="0.56949">
        <ele>1677.3</ele>
        <time>2021-03-21T12:18:00Z</time>
      </trkpt>
      <trkpt lat="42.82939" lon="0.56949">
        <ele>1677.302</ele>
        <time>2021-03-21T12:18:02Z</time>
      </trkpt>
      <trkpt lat="42.82939" lon="0.56949">
        <ele>1677.302</ele>
        <time>2021-03-21T12:18:04Z</time>
      </trkpt>
      <trkpt lat="42.82939" lon="0.56949">
        <ele>1677.303</ele>
        <time>2021-03-21T12:18:06Z</time>
      </trkpt>
      <trkpt lat="42.82939" lon="0.56949">
        <ele>1677.3</ele>
        <time>2021-03-21T12:18:08Z</time>
      </trkpt>
      <trkpt lat="42.82939" lon="0.56949">
        <ele>1677.297</ele>
        <time>2021-03-21T12:18:10Z</time>
      </trkpt>
      <trkpt lat="42.82939" lon="0.56949">
        <ele>1677.297</ele>
        <time>2021-03-21T12:18:12Z</time>
      </trkpt>
      <trkpt lat="42.82939" lon="0.56949">
        <ele>1677.294</ele>
        <time>2021-03-21T12:18:14Z</time>
      </trkpt>
      <trkpt lat="42.82939" lon="0.56949">
        <ele>1677.292</ele>
        <time>2021-03-21T12:18:16Z</time>
      </trkpt>
      <trkpt lat="42.82939" lon="0.56949">
        <ele>1677.291</ele>
        <time>2021-03-21T12:18:18Z</time>
      </trkpt>
      <trkpt lat="42.82939" lon="0.56949">
        <ele>1677.036</ele>
        <time>2021-03-21T12:18:20Z</time>
      </trkpt>
      <trkpt lat="42.8294" lon="0.56948">
        <ele>1676.549</ele>
        <time>2021-03-21T12:18:22Z</time>
      </trkpt>
      <trkpt lat="42.82941" lon="0.56948">
        <ele>1676.545</ele>
        <time>2021-03-21T12:18:24Z</time>
      </trkpt>
      <trkpt lat="42.82941" lon="0.56948">
        <ele>1676.542</ele>
        <time>2021-03-21T12:18:26Z</time>
      </trkpt>
      <trkpt lat="42.8294" lon="0.56948">
        <ele>1676.544</ele>
        <time>2021-03-21T12:18:28Z</time>
      </trkpt>
      <trkpt lat="42.8294" lon="0.56948">
        <ele>1676.527</ele>
        <time>2021-03-21T12:18:30Z</time>
      </trkpt>
      <trkpt lat="42.8294" lon="0.56948">
        <ele>1676.528</ele>
        <time>2021-03-21T12:18:32Z</time>
      </trkpt>
      <trkpt lat="42.8294" lon="0.56948">
        <ele>1676.519</ele>
        <time>2021-03-21T12:18:34Z</time>
      </trkpt>
      <trkpt lat="42.8294" lon="0.56948">
        <ele>1676.52</ele>
        <time>2021-03-21T12:18:36Z</time>
      </trkpt>
      <trkpt lat="42.8294" lon="0.56948">
        <ele>1676.518</ele>
        <time>2021-03-21T12:18:38Z</time>
      </trkpt>
      <trkpt lat="42.8294" lon="0.56948">
        <ele>1676.512</ele>
        <time>2021-03-21T12:18:40Z</time>
      </trkpt>
      <trkpt lat="42.8294" lon="0.56948">
        <ele>1676.513</ele>
        <time>2021-03-21T12:18:42Z</time>
      </trkpt>
      <trkpt lat="42.8294" lon="0.56948">
        <ele>1676.526</ele>
        <time>2021-03-21T12:18:44Z</time>
      </trkpt>
      <trkpt lat="42.8294" lon="0.56948">
        <ele>1676.525</ele>
        <time>2021-03-21T12:18:46Z</time>
      </trkpt>
      <trkpt lat="42.8294" lon="0.56948">
        <ele>1676.524</ele>
        <time>2021-03-21T12:18:48Z</time>
      </trkpt>
      <trkpt lat="42.8294" lon="0.56948">
        <ele>1676.521</ele>
        <time>2021-03-21T12:18:50Z</time>
      </trkpt>
      <trkpt lat="42.8294" lon="0.56948">
        <ele>1676.521</ele>
        <time>2021-03-21T12:18:52Z</time>
      </trkpt>
      <trkpt lat="42.8294" lon="0.56948">
        <ele>1676.524</ele>
        <time>2021-03-21T12:18:54Z</time>
      </trkpt>
      <trkpt lat="42.8294" lon="0.56948">
        <ele>1676.519</ele>
        <time>2021-03-21T12:18:56Z</time>
      </trkpt>
      <trkpt lat="42.8294" lon="0.56948">
        <ele>1676.517</ele>
        <time>2021-03-21T12:18:58Z</time>
      </trkpt>
      <trkpt lat="42.8294" lon="0.56948">
        <ele>1676.509</ele>
        <time>2021-03-21T12:19:00Z</time>
      </trkpt>
      <trkpt lat="42.8294" lon="0.56948">
        <ele>1676.51</ele>
        <time>2021-03-21T12:19:02Z</time>
      </trkpt>
      <trkpt lat="42.8294" lon="0.56948">
        <ele>1676.508</ele>
        <time>2021-03-21T12:19:04Z</time>
      </trkpt>
      <trkpt lat="42.8294" lon="0.56948">
        <ele>1676.503</ele>
        <time>2021-03-21T12:19:06Z</time>
      </trkpt>
      <trkpt lat="42.8294" lon="0.56948">
        <ele>1676.493</ele>
        <time>2021-03-21T12:19:08Z</time>
      </trkpt>
      <trkpt lat="42.8294" lon="0.56948">
        <ele>1676.5</ele>
        <time>2021-03-21T12:19:10Z</time>
      </trkpt>
      <trkpt lat="42.8294" lon="0.56948">
        <ele>1676.496</ele>
        <time>2021-03-21T12:19:12Z</time>
      </trkpt>
      <trkpt lat="42.8294" lon="0.56948">
        <ele>1676.489</ele>
        <time>2021-03-21T12:19:14Z</time>
      </trkpt>
      <trkpt lat="42.8294" lon="0.56948">
        <ele>1676.482</ele>
        <time>2021-03-21T12:19:16Z</time>
      </trkpt>
      <trkpt lat="42.8294" lon="0.56948">
        <ele>1676.482</ele>
        <time>2021-03-21T12:19:18Z</time>
      </trkpt>
      <trkpt lat="42.8294" lon="0.56948">
        <ele>1676.473</ele>
        <time>2021-03-21T12:19:20Z</time>
      </trkpt>
      <trkpt lat="42.8294" lon="0.56948">
        <ele>1676.471</ele>
        <time>2021-03-21T12:19:22Z</time>
      </trkpt>
      <trkpt lat="42.8294" lon="0.56948">
        <ele>1676.476</ele>
        <time>2021-03-21T12:19:24Z</time>
      </trkpt>
      <trkpt lat="42.8294" lon="0.56948">
        <ele>1676.471</ele>
        <time>2021-03-21T12:19:26Z</time>
      </trkpt>
      <trkpt lat="42.8294" lon="0.56948">
        <ele>1676.456</ele>
        <time>2021-03-21T12:19:28Z</time>
      </trkpt>
      <trkpt lat="42.8294" lon="0.56948">
        <ele>1676.46</ele>
        <time>2021-03-21T12:19:30Z</time>
      </trkpt>
      <trkpt lat="42.8294" lon="0.5695">
        <ele>1676.578</ele>
        <time>2021-03-21T12:19:32Z</time>
      </trkpt>
      <trkpt lat="42.8294" lon="0.5695">
        <ele>1676.565</ele>
        <time>2021-03-21T12:19:34Z</time>
      </trkpt>
      <trkpt lat="42.8294" lon="0.5695">
        <ele>1676.564</ele>
        <time>2021-03-21T12:19:36Z</time>
      </trkpt>
      <trkpt lat="42.8294" lon="0.5695">
        <ele>1676.554</ele>
        <time>2021-03-21T12:19:38Z</time>
      </trkpt>
      <trkpt lat="42.8294" lon="0.5695">
        <ele>1676.55</ele>
        <time>2021-03-21T12:19:40Z</time>
      </trkpt>
      <trkpt lat="42.8294" lon="0.5695">
        <ele>1676.544</ele>
        <time>2021-03-21T12:19:42Z</time>
      </trkpt>
      <trkpt lat="42.8294" lon="0.5695">
        <ele>1676.54</ele>
        <time>2021-03-21T12:19:44Z</time>
      </trkpt>
      <trkpt lat="42.8294" lon="0.5695">
        <ele>1676.544</ele>
        <time>2021-03-21T12:19:46Z</time>
      </trkpt>
      <trkpt lat="42.8294" lon="0.5695">
        <ele>1676.539</ele>
        <time>2021-03-21T12:19:48Z</time>
      </trkpt>
      <trkpt lat="42.8294" lon="0.5695">
        <ele>1676.539</ele>
        <time>2021-03-21T12:19:50Z</time>
      </trkpt>
      <trkpt lat="42.8294" lon="0.5695">
        <ele>1676.538</ele>
        <time>2021-03-21T12:19:52Z</time>
      </trkpt>
      <trkpt lat="42.8294" lon="0.5695">
        <ele>1676.541</ele>
        <time>2021-03-21T12:19:54Z</time>
      </trkpt>
      <trkpt lat="42.8294" lon="0.5695">
        <ele>1676.543</ele>
        <time>2021-03-21T12:19:56Z</time>
      </trkpt>
      <trkpt lat="42.8294" lon="0.5695">
        <ele>1676.544</ele>
        <time>2021-03-21T12:19:58Z</time>
      </trkpt>
      <trkpt lat="42.8294" lon="0.5695">
        <ele>1676.544</ele>
        <time>2021-03-21T12:20:00Z</time>
      </trkpt>
      <trkpt lat="42.8294" lon="0.5695">
        <ele>1676.543</ele>
        <time>2021-03-21T12:20:02Z</time>
      </trkpt>
      <trkpt lat="42.8294" lon="0.5695">
        <ele>1676.542</ele>
        <time>2021-03-21T12:20:04Z</time>
      </trkpt>
      <trkpt lat="42.8294" lon="0.5695">
        <ele>1676.544</ele>
        <time>2021-03-21T12:20:06Z</time>
      </trkpt>
      <trkpt lat="42.8294" lon="0.5695">
        <ele>1676.54</ele>
        <time>2021-03-21T12:20:08Z</time>
      </trkpt>
      <trkpt lat="42.8294" lon="0.5695">
        <ele>1676.541</ele>
        <time>2021-03-21T12:20:10Z</time>
      </trkpt>
      <trkpt lat="42.8294" lon="0.5695">
        <ele>1676.544</ele>
        <time>2021-03-21T12:20:12Z</time>
      </trkpt>
      <trkpt lat="42.8294" lon="0.5695">
        <ele>1676.543</ele>
        <time>2021-03-21T12:20:14Z</time>
      </trkpt>
      <trkpt lat="42.8294" lon="0.5695">
        <ele>1676.543</ele>
        <time>2021-03-21T12:20:16Z</time>
      </trkpt>
      <trkpt lat="42.8294" lon="0.5695">
        <ele>1676.54</ele>
        <time>2021-03-21T12:20:18Z</time>
      </trkpt>
      <trkpt lat="42.8294" lon="0.5695">
        <ele>1676.54</ele>
        <time>2021-03-21T12:20:20Z</time>
      </trkpt>
      <trkpt lat="42.8294" lon="0.5695">
        <ele>1676.543</ele>
        <time>2021-03-21T12:20:22Z</time>
      </trkpt>
      <trkpt lat="42.8294" lon="0.5695">
        <ele>1676.542</ele>
        <time>2021-03-21T12:20:24Z</time>
      </trkpt>
      <trkpt lat="42.8294" lon="0.5695">
        <ele>1676.539</ele>
        <time>2021-03-21T12:20:26Z</time>
      </trkpt>
      <trkpt lat="42.8294" lon="0.5695">
        <ele>1676.537</ele>
        <time>2021-03-21T12:20:28Z</time>
      </trkpt>
      <trkpt lat="42.8294" lon="0.5695">
        <ele>1676.535</ele>
        <time>2021-03-21T12:20:30Z</time>
      </trkpt>
      <trkpt lat="42.8294" lon="0.5695">
        <ele>1676.525</ele>
        <time>2021-03-21T12:20:32Z</time>
      </trkpt>
      <trkpt lat="42.8294" lon="0.5695">
        <ele>1676.525</ele>
        <time>2021-03-21T12:20:34Z</time>
      </trkpt>
      <trkpt lat="42.8294" lon="0.5695">
        <ele>1676.529</ele>
        <time>2021-03-21T12:20:36Z</time>
      </trkpt>
      <trkpt lat="42.8294" lon="0.5695">
        <ele>1676.524</ele>
        <time>2021-03-21T12:20:38Z</time>
      </trkpt>
      <trkpt lat="42.8294" lon="0.5695">
        <ele>1676.522</ele>
        <time>2021-03-21T12:20:40Z</time>
      </trkpt>
      <trkpt lat="42.8294" lon="0.5695">
        <ele>1676.52</ele>
        <time>2021-03-21T12:20:42Z</time>
      </trkpt>
      <trkpt lat="42.8294" lon="0.5695">
        <ele>1676.514</ele>
        <time>2021-03-21T12:20:44Z</time>
      </trkpt>
      <trkpt lat="42.8294" lon="0.5695">
        <ele>1676.503</ele>
        <time>2021-03-21T12:20:46Z</time>
      </trkpt>
      <trkpt lat="42.8294" lon="0.5695">
        <ele>1676.5</ele>
        <time>2021-03-21T12:20:48Z</time>
      </trkpt>
      <trkpt lat="42.8294" lon="0.5695">
        <ele>1676.498</ele>
        <time>2021-03-21T12:20:50Z</time>
      </trkpt>
      <trkpt lat="42.8294" lon="0.5695">
        <ele>1676.501</ele>
        <time>2021-03-21T12:20:52Z</time>
      </trkpt>
      <trkpt lat="42.8294" lon="0.5695">
        <ele>1676.503</ele>
        <time>2021-03-21T12:20:54Z</time>
      </trkpt>
      <trkpt lat="42.8294" lon="0.5695">
        <ele>1676.502</ele>
        <time>2021-03-21T12:20:56Z</time>
      </trkpt>
      <trkpt lat="42.8294" lon="0.5695">
        <ele>1676.496</ele>
        <time>2021-03-21T12:20:58Z</time>
      </trkpt>
      <trkpt lat="42.8294" lon="0.5695">
        <ele>1676.5</ele>
        <time>2021-03-21T12:21:00Z</time>
      </trkpt>
      <trkpt lat="42.8294" lon="0.5695">
        <ele>1676.505</ele>
        <time>2021-03-21T12:21:02Z</time>
      </trkpt>
      <trkpt lat="42.8294" lon="0.5695">
        <ele>1676.503</ele>
        <time>2021-03-21T12:21:04Z</time>
      </trkpt>
      <trkpt lat="42.8294" lon="0.5695">
        <ele>1676.518</ele>
        <time>2021-03-21T12:21:06Z</time>
      </trkpt>
      <trkpt lat="42.8294" lon="0.5695">
        <ele>1676.522</ele>
        <time>2021-03-21T12:21:08Z</time>
      </trkpt>
      <trkpt lat="42.8294" lon="0.5695">
        <ele>1676.519</ele>
        <time>2021-03-21T12:21:10Z</time>
      </trkpt>
      <trkpt lat="42.8294" lon="0.5695">
        <ele>1676.518</ele>
        <time>2021-03-21T12:21:12Z</time>
      </trkpt>
      <trkpt lat="42.8294" lon="0.5695">
        <ele>1676.515</ele>
        <time>2021-03-21T12:21:14Z</time>
      </trkpt>
      <trkpt lat="42.8294" lon="0.5695">
        <ele>1676.517</ele>
        <time>2021-03-21T12:21:16Z</time>
      </trkpt>
      <trkpt lat="42.8294" lon="0.5695">
        <ele>1676.513</ele>
        <time>2021-03-21T12:21:18Z</time>
      </trkpt>
      <trkpt lat="42.82939" lon="0.56952">
        <ele>1676.441</ele>
        <time>2021-03-21T12:21:20Z</time>
      </trkpt>
      <trkpt lat="42.82938" lon="0.56952">
        <ele>1673.805</ele>
        <time>2021-03-21T12:21:22Z</time>
      </trkpt>
      <trkpt lat="42.8294" lon="0.56951">
        <ele>1675.826</ele>
        <time>2021-03-21T12:21:24Z</time>
      </trkpt>
      <trkpt lat="42.8294" lon="0.5695">
        <ele>1676.094</ele>
        <time>2021-03-21T12:21:26Z</time>
      </trkpt>
      <trkpt lat="42.82942" lon="0.56949">
        <ele>1677.025</ele>
        <time>2021-03-21T12:21:28Z</time>
      </trkpt>
      <trkpt lat="42.82942" lon="0.56952">
        <ele>1676.7</ele>
        <time>2021-03-21T12:21:30Z</time>
      </trkpt>
      <trkpt lat="42.82942" lon="0.56953">
        <ele>1677.604</ele>
        <time>2021-03-21T12:21:32Z</time>
      </trkpt>
      <trkpt lat="42.82942" lon="0.56953">
        <ele>1677.58</ele>
        <time>2021-03-21T12:21:34Z</time>
      </trkpt>
      <trkpt lat="42.82942" lon="0.56953">
        <ele>1677.591</ele>
        <time>2021-03-21T12:21:36Z</time>
      </trkpt>
      <trkpt lat="42.82942" lon="0.56953">
        <ele>1677.613</ele>
        <time>2021-03-21T12:21:38Z</time>
      </trkpt>
      <trkpt lat="42.82942" lon="0.56953">
        <ele>1677.613</ele>
        <time>2021-03-21T12:21:40Z</time>
      </trkpt>
      <trkpt lat="42.82942" lon="0.56953">
        <ele>1677.623</ele>
        <time>2021-03-21T12:21:42Z</time>
      </trkpt>
      <trkpt lat="42.82942" lon="0.56953">
        <ele>1677.634</ele>
        <time>2021-03-21T12:21:44Z</time>
      </trkpt>
      <trkpt lat="42.82942" lon="0.56953">
        <ele>1677.641</ele>
        <time>2021-03-21T12:21:46Z</time>
      </trkpt>
      <trkpt lat="42.82942" lon="0.56953">
        <ele>1677.651</ele>
        <time>2021-03-21T12:21:48Z</time>
      </trkpt>
      <trkpt lat="42.82942" lon="0.56953">
        <ele>1676.794</ele>
        <time>2021-03-21T12:21:50Z</time>
      </trkpt>
      <trkpt lat="42.82942" lon="0.56952">
        <ele>1677.929</ele>
        <time>2021-03-21T12:21:52Z</time>
      </trkpt>
      <trkpt lat="42.82941" lon="0.56951">
        <ele>1677.631</ele>
        <time>2021-03-21T12:21:54Z</time>
      </trkpt>
      <trkpt lat="42.82941" lon="0.56951">
        <ele>1677.652</ele>
        <time>2021-03-21T12:21:56Z</time>
      </trkpt>
      <trkpt lat="42.82941" lon="0.56951">
        <ele>1677.665</ele>
        <time>2021-03-21T12:21:58Z</time>
      </trkpt>
      <trkpt lat="42.82941" lon="0.56951">
        <ele>1677.669</ele>
        <time>2021-03-21T12:22:00Z</time>
      </trkpt>
      <trkpt lat="42.82941" lon="0.56951">
        <ele>1677.687</ele>
        <time>2021-03-21T12:22:02Z</time>
      </trkpt>
      <trkpt lat="42.82941" lon="0.56951">
        <ele>1677.688</ele>
        <time>2021-03-21T12:22:04Z</time>
      </trkpt>
      <trkpt lat="42.82941" lon="0.56951">
        <ele>1677.691</ele>
        <time>2021-03-21T12:22:06Z</time>
      </trkpt>
      <trkpt lat="42.82941" lon="0.56951">
        <ele>1677.698</ele>
        <time>2021-03-21T12:22:08Z</time>
      </trkpt>
      <trkpt lat="42.82941" lon="0.56951">
        <ele>1677.69</ele>
        <time>2021-03-21T12:22:10Z</time>
      </trkpt>
      <trkpt lat="42.82941" lon="0.56951">
        <ele>1677.687</ele>
        <time>2021-03-21T12:22:12Z</time>
      </trkpt>
      <trkpt lat="42.82941" lon="0.56951">
        <ele>1677.681</ele>
        <time>2021-03-21T12:22:13Z</time>
      </trkpt>
      <trkpt lat="42.82941" lon="0.56951">
        <ele>1677.662</ele>
        <time>2021-03-21T12:22:16Z</time>
      </trkpt>
      <trkpt lat="42.82941" lon="0.56952">
        <ele>1676.314</ele>
        <time>2021-03-21T12:22:18Z</time>
      </trkpt>
      <trkpt lat="42.82941" lon="0.56952">
        <ele>1674.956</ele>
        <time>2021-03-21T12:22:20Z</time>
      </trkpt>
      <trkpt lat="42.82941" lon="0.56952">
        <ele>1674.985</ele>
        <time>2021-03-21T12:22:22Z</time>
      </trkpt>
      <trkpt lat="42.82941" lon="0.56952">
        <ele>1674.996</ele>
        <time>2021-03-21T12:22:24Z</time>
      </trkpt>
      <trkpt lat="42.82941" lon="0.56952">
        <ele>1675.005</ele>
        <time>2021-03-21T12:22:26Z</time>
      </trkpt>
      <trkpt lat="42.82941" lon="0.56952">
        <ele>1675.006</ele>
        <time>2021-03-21T12:22:28Z</time>
      </trkpt>
      <trkpt lat="42.82941" lon="0.56952">
        <ele>1675</ele>
        <time>2021-03-21T12:22:30Z</time>
      </trkpt>
      <trkpt lat="42.82941" lon="0.56952">
        <ele>1675.012</ele>
        <time>2021-03-21T12:22:32Z</time>
      </trkpt>
      <trkpt lat="42.82941" lon="0.56952">
        <ele>1675.013</ele>
        <time>2021-03-21T12:22:34Z</time>
      </trkpt>
      <trkpt lat="42.82941" lon="0.56952">
        <ele>1675.015</ele>
        <time>2021-03-21T12:22:36Z</time>
      </trkpt>
      <trkpt lat="42.82941" lon="0.56952">
        <ele>1675.037</ele>
        <time>2021-03-21T12:22:38Z</time>
      </trkpt>
      <trkpt lat="42.82941" lon="0.56952">
        <ele>1675.044</ele>
        <time>2021-03-21T12:22:40Z</time>
      </trkpt>
      <trkpt lat="42.82941" lon="0.56952">
        <ele>1675.032</ele>
        <time>2021-03-21T12:22:42Z</time>
      </trkpt>
      <trkpt lat="42.82941" lon="0.56952">
        <ele>1675.044</ele>
        <time>2021-03-21T12:22:44Z</time>
      </trkpt>
      <trkpt lat="42.82941" lon="0.56952">
        <ele>1675.049</ele>
        <time>2021-03-21T12:22:46Z</time>
      </trkpt>
      <trkpt lat="42.82941" lon="0.56952">
        <ele>1675.067</ele>
        <time>2021-03-21T12:22:48Z</time>
      </trkpt>
      <trkpt lat="42.82941" lon="0.56952">
        <ele>1675.088</ele>
        <time>2021-03-21T12:22:50Z</time>
      </trkpt>
      <trkpt lat="42.8294" lon="0.5695">
        <ele>1676.426</ele>
        <time>2021-03-21T12:22:52Z</time>
      </trkpt>
      <trkpt lat="42.8294" lon="0.56949">
        <ele>1676.11</ele>
        <time>2021-03-21T12:22:54Z</time>
      </trkpt>
      <trkpt lat="42.8294" lon="0.56949">
        <ele>1676.11</ele>
        <time>2021-03-21T12:22:56Z</time>
      </trkpt>
      <trkpt lat="42.8294" lon="0.56949">
        <ele>1676.111</ele>
        <time>2021-03-21T12:22:58Z</time>
      </trkpt>
      <trkpt lat="42.8294" lon="0.56949">
        <ele>1676.12</ele>
        <time>2021-03-21T12:23:00Z</time>
      </trkpt>
      <trkpt lat="42.8294" lon="0.56949">
        <ele>1676.133</ele>
        <time>2021-03-21T12:23:02Z</time>
      </trkpt>
      <trkpt lat="42.8294" lon="0.56949">
        <ele>1676.137</ele>
        <time>2021-03-21T12:23:04Z</time>
      </trkpt>
      <trkpt lat="42.8294" lon="0.56949">
        <ele>1676.138</ele>
        <time>2021-03-21T12:23:06Z</time>
      </trkpt>
      <trkpt lat="42.8294" lon="0.56949">
        <ele>1676.143</ele>
        <time>2021-03-21T12:23:08Z</time>
      </trkpt>
      <trkpt lat="42.8294" lon="0.56949">
        <ele>1676.145</ele>
        <time>2021-03-21T12:23:10Z</time>
      </trkpt>
      <trkpt lat="42.8294" lon="0.56949">
        <ele>1676.143</ele>
        <time>2021-03-21T12:23:12Z</time>
      </trkpt>
      <trkpt lat="42.8294" lon="0.56949">
        <ele>1676.147</ele>
        <time>2021-03-21T12:23:14Z</time>
      </trkpt>
      <trkpt lat="42.8294" lon="0.56949">
        <ele>1676.148</ele>
        <time>2021-03-21T12:23:16Z</time>
      </trkpt>
      <trkpt lat="42.8294" lon="0.56949">
        <ele>1676.162</ele>
        <time>2021-03-21T12:23:18Z</time>
      </trkpt>
      <trkpt lat="42.8294" lon="0.56949">
        <ele>1676.171</ele>
        <time>2021-03-21T12:23:20Z</time>
      </trkpt>
      <trkpt lat="42.8294" lon="0.56949">
        <ele>1676.167</ele>
        <time>2021-03-21T12:23:22Z</time>
      </trkpt>
      <trkpt lat="42.8294" lon="0.56949">
        <ele>1676.173</ele>
        <time>2021-03-21T12:23:24Z</time>
      </trkpt>
      <trkpt lat="42.8294" lon="0.56949">
        <ele>1676.183</ele>
        <time>2021-03-21T12:23:26Z</time>
      </trkpt>
      <trkpt lat="42.8294" lon="0.5695">
        <ele>1676.731</ele>
        <time>2021-03-21T12:23:28Z</time>
      </trkpt>
      <trkpt lat="42.8294" lon="0.56951">
        <ele>1675.061</ele>
        <time>2021-03-21T12:23:30Z</time>
      </trkpt>
      <trkpt lat="42.8294" lon="0.56953">
        <ele>1676.702</ele>
        <time>2021-03-21T12:23:32Z</time>
      </trkpt>
      <trkpt lat="42.8294" lon="0.56954">
        <ele>1677.2</ele>
        <time>2021-03-21T12:23:34Z</time>
      </trkpt>
      <trkpt lat="42.8294" lon="0.56955">
        <ele>1677.752</ele>
        <time>2021-03-21T12:23:36Z</time>
      </trkpt>
      <trkpt lat="42.82941" lon="0.56955">
        <ele>1677.697</ele>
        <time>2021-03-21T12:23:38Z</time>
      </trkpt>
      <trkpt lat="42.82941" lon="0.56955">
        <ele>1677.705</ele>
        <time>2021-03-21T12:23:40Z</time>
      </trkpt>
      <trkpt lat="42.82941" lon="0.56955">
        <ele>1677.712</ele>
        <time>2021-03-21T12:23:42Z</time>
      </trkpt>
      <trkpt lat="42.82941" lon="0.56955">
        <ele>1677.844</ele>
        <time>2021-03-21T12:23:44Z</time>
      </trkpt>
      <trkpt lat="42.82941" lon="0.56955">
        <ele>1677.834</ele>
        <time>2021-03-21T12:23:46Z</time>
      </trkpt>
      <trkpt lat="42.82941" lon="0.56955">
        <ele>1677.831</ele>
        <time>2021-03-21T12:23:48Z</time>
      </trkpt>
      <trkpt lat="42.82941" lon="0.56955">
        <ele>1677.832</ele>
        <time>2021-03-21T12:23:50Z</time>
      </trkpt>
      <trkpt lat="42.82941" lon="0.56955">
        <ele>1677.831</ele>
        <time>2021-03-21T12:23:52Z</time>
      </trkpt>
      <trkpt lat="42.82941" lon="0.56955">
        <ele>1677.836</ele>
        <time>2021-03-21T12:23:54Z</time>
      </trkpt>
      <trkpt lat="42.8294" lon="0.56955">
        <ele>1678.599</ele>
        <time>2021-03-21T12:23:56Z</time>
      </trkpt>
      <trkpt lat="42.8294" lon="0.56954">
        <ele>1678.361</ele>
        <time>2021-03-21T12:23:58Z</time>
      </trkpt>
      <trkpt lat="42.8294" lon="0.56953">
        <ele>1678.43</ele>
        <time>2021-03-21T12:24:00Z</time>
      </trkpt>
      <trkpt lat="42.82939" lon="0.56952">
        <ele>1678.948</ele>
        <time>2021-03-21T12:24:02Z</time>
      </trkpt>
      <trkpt lat="42.8294" lon="0.56954">
        <ele>1678.435</ele>
        <time>2021-03-21T12:24:04Z</time>
      </trkpt>
      <trkpt lat="42.82941" lon="0.56953">
        <ele>1678.254</ele>
        <time>2021-03-21T12:24:06Z</time>
      </trkpt>
      <trkpt lat="42.8294" lon="0.5695">
        <ele>1676.914</ele>
        <time>2021-03-21T12:24:08Z</time>
      </trkpt>
      <trkpt lat="42.8294" lon="0.56949">
        <ele>1676.899</ele>
        <time>2021-03-21T12:24:10Z</time>
      </trkpt>
      <trkpt lat="42.8294" lon="0.56949">
        <ele>1676.951</ele>
        <time>2021-03-21T12:24:12Z</time>
      </trkpt>
      <trkpt lat="42.8294" lon="0.56949">
        <ele>1676.956</ele>
        <time>2021-03-21T12:24:14Z</time>
      </trkpt>
      <trkpt lat="42.8294" lon="0.5695">
        <ele>1677.339</ele>
        <time>2021-03-21T12:24:16Z</time>
      </trkpt>
      <trkpt lat="42.82939" lon="0.5695">
        <ele>1677.185</ele>
        <time>2021-03-21T12:24:18Z</time>
      </trkpt>
      <trkpt lat="42.82939" lon="0.56951">
        <ele>1677.041</ele>
        <time>2021-03-21T12:24:20Z</time>
      </trkpt>
      <trkpt lat="42.82939" lon="0.56951">
        <ele>1677.039</ele>
        <time>2021-03-21T12:24:22Z</time>
      </trkpt>
      <trkpt lat="42.82939" lon="0.56951">
        <ele>1677.036</ele>
        <time>2021-03-21T12:24:24Z</time>
      </trkpt>
      <trkpt lat="42.82939" lon="0.56951">
        <ele>1677.035</ele>
        <time>2021-03-21T12:24:26Z</time>
      </trkpt>
      <trkpt lat="42.82939" lon="0.56951">
        <ele>1677.037</ele>
        <time>2021-03-21T12:24:28Z</time>
      </trkpt>
      <trkpt lat="42.82939" lon="0.56951">
        <ele>1677.033</ele>
        <time>2021-03-21T12:24:30Z</time>
      </trkpt>
      <trkpt lat="42.82939" lon="0.56951">
        <ele>1677.034</ele>
        <time>2021-03-21T12:24:32Z</time>
      </trkpt>
      <trkpt lat="42.8294" lon="0.56951">
        <ele>1677.204</ele>
        <time>2021-03-21T12:24:34Z</time>
      </trkpt>
      <trkpt lat="42.82939" lon="0.56951">
        <ele>1677.289</ele>
        <time>2021-03-21T12:24:36Z</time>
      </trkpt>
      <trkpt lat="42.82938" lon="0.56952">
        <ele>1677.636</ele>
        <time>2021-03-21T12:24:38Z</time>
      </trkpt>
      <trkpt lat="42.82938" lon="0.56952">
        <ele>1677.624</ele>
        <time>2021-03-21T12:24:40Z</time>
      </trkpt>
      <trkpt lat="42.82938" lon="0.56952">
        <ele>1677.65</ele>
        <time>2021-03-21T12:24:42Z</time>
      </trkpt>
      <trkpt lat="42.82938" lon="0.56952">
        <ele>1677.658</ele>
        <time>2021-03-21T12:24:44Z</time>
      </trkpt>
      <trkpt lat="42.82938" lon="0.56952">
        <ele>1677.653</ele>
        <time>2021-03-21T12:24:46Z</time>
      </trkpt>
      <trkpt lat="42.82938" lon="0.56952">
        <ele>1677.655</ele>
        <time>2021-03-21T12:24:48Z</time>
      </trkpt>
      <trkpt lat="42.82938" lon="0.56952">
        <ele>1677.661</ele>
        <time>2021-03-21T12:24:50Z</time>
      </trkpt>
      <trkpt lat="42.82938" lon="0.56952">
        <ele>1677.664</ele>
        <time>2021-03-21T12:24:52Z</time>
      </trkpt>
      <trkpt lat="42.82938" lon="0.56952">
        <ele>1677.673</ele>
        <time>2021-03-21T12:24:54Z</time>
      </trkpt>
      <trkpt lat="42.82938" lon="0.56952">
        <ele>1677.685</ele>
        <time>2021-03-21T12:24:56Z</time>
      </trkpt>
      <trkpt lat="42.82938" lon="0.56952">
        <ele>1677.692</ele>
        <time>2021-03-21T12:24:58Z</time>
      </trkpt>
      <trkpt lat="42.82938" lon="0.56952">
        <ele>1677.698</ele>
        <time>2021-03-21T12:25:00Z</time>
      </trkpt>
      <trkpt lat="42.82938" lon="0.56952">
        <ele>1677.696</ele>
        <time>2021-03-21T12:25:02Z</time>
      </trkpt>
      <trkpt lat="42.82938" lon="0.56952">
        <ele>1677.692</ele>
        <time>2021-03-21T12:25:04Z</time>
      </trkpt>
      <trkpt lat="42.82938" lon="0.56952">
        <ele>1677.689</ele>
        <time>2021-03-21T12:25:06Z</time>
      </trkpt>
      <trkpt lat="42.82938" lon="0.56952">
        <ele>1677.699</ele>
        <time>2021-03-21T12:25:08Z</time>
      </trkpt>
      <trkpt lat="42.82938" lon="0.56952">
        <ele>1677.712</ele>
        <time>2021-03-21T12:25:10Z</time>
      </trkpt>
      <trkpt lat="42.82938" lon="0.56952">
        <ele>1677.32</ele>
        <time>2021-03-21T12:25:12Z</time>
      </trkpt>
      <trkpt lat="42.82938" lon="0.56952">
        <ele>1677.343</ele>
        <time>2021-03-21T12:25:14Z</time>
      </trkpt>
      <trkpt lat="42.82938" lon="0.56952">
        <ele>1677.377</ele>
        <time>2021-03-21T12:25:16Z</time>
      </trkpt>
      <trkpt lat="42.82938" lon="0.56952">
        <ele>1677.406</ele>
        <time>2021-03-21T12:25:18Z</time>
      </trkpt>
      <trkpt lat="42.82938" lon="0.56952">
        <ele>1677.422</ele>
        <time>2021-03-21T12:25:20Z</time>
      </trkpt>
      <trkpt lat="42.82938" lon="0.56952">
        <ele>1677.43</ele>
        <time>2021-03-21T12:25:22Z</time>
      </trkpt>
      <trkpt lat="42.82938" lon="0.56952">
        <ele>1677.431</ele>
        <time>2021-03-21T12:25:24Z</time>
      </trkpt>
      <trkpt lat="42.82938" lon="0.56952">
        <ele>1677.44</ele>
        <time>2021-03-21T12:25:26Z</time>
      </trkpt>
      <trkpt lat="42.82938" lon="0.56952">
        <ele>1677.448</ele>
        <time>2021-03-21T12:25:28Z</time>
      </trkpt>
      <trkpt lat="42.82938" lon="0.56952">
        <ele>1677.45</ele>
        <time>2021-03-21T12:25:30Z</time>
      </trkpt>
      <trkpt lat="42.82938" lon="0.56952">
        <ele>1677.448</ele>
        <time>2021-03-21T12:25:32Z</time>
      </trkpt>
      <trkpt lat="42.82938" lon="0.56952">
        <ele>1677.456</ele>
        <time>2021-03-21T12:25:34Z</time>
      </trkpt>
      <trkpt lat="42.82938" lon="0.56953">
        <ele>1677.629</ele>
        <time>2021-03-21T12:25:36Z</time>
      </trkpt>
      <trkpt lat="42.82938" lon="0.56953">
        <ele>1677.865</ele>
        <time>2021-03-21T12:25:38Z</time>
      </trkpt>
      <trkpt lat="42.82938" lon="0.56953">
        <ele>1677.643</ele>
        <time>2021-03-21T12:25:40Z</time>
      </trkpt>
      <trkpt lat="42.82938" lon="0.56953">
        <ele>1677.689</ele>
        <time>2021-03-21T12:25:42Z</time>
      </trkpt>
      <trkpt lat="42.82938" lon="0.56953">
        <ele>1677.69</ele>
        <time>2021-03-21T12:25:44Z</time>
      </trkpt>
      <trkpt lat="42.82938" lon="0.56953">
        <ele>1677.69</ele>
        <time>2021-03-21T12:25:46Z</time>
      </trkpt>
      <trkpt lat="42.82938" lon="0.56953">
        <ele>1677.69</ele>
        <time>2021-03-21T12:25:48Z</time>
      </trkpt>
      <trkpt lat="42.82938" lon="0.56953">
        <ele>1677.688</ele>
        <time>2021-03-21T12:25:50Z</time>
      </trkpt>
      <trkpt lat="42.82938" lon="0.56953">
        <ele>1677.19</ele>
        <time>2021-03-21T12:25:52Z</time>
      </trkpt>
      <trkpt lat="42.82938" lon="0.56953">
        <ele>1677.166</ele>
        <time>2021-03-21T12:25:54Z</time>
      </trkpt>
      <trkpt lat="42.82938" lon="0.56953">
        <ele>1677.162</ele>
        <time>2021-03-21T12:25:56Z</time>
      </trkpt>
      <trkpt lat="42.82938" lon="0.56953">
        <ele>1677.155</ele>
        <time>2021-03-21T12:25:58Z</time>
      </trkpt>
      <trkpt lat="42.82938" lon="0.56953">
        <ele>1677.161</ele>
        <time>2021-03-21T12:26:00Z</time>
      </trkpt>
      <trkpt lat="42.82938" lon="0.56953">
        <ele>1677.154</ele>
        <time>2021-03-21T12:26:02Z</time>
      </trkpt>
      <trkpt lat="42.82938" lon="0.56953">
        <ele>1677.154</ele>
        <time>2021-03-21T12:26:04Z</time>
      </trkpt>
      <trkpt lat="42.82938" lon="0.56953">
        <ele>1677.148</ele>
        <time>2021-03-21T12:26:06Z</time>
      </trkpt>
      <trkpt lat="42.82938" lon="0.56953">
        <ele>1677.155</ele>
        <time>2021-03-21T12:26:08Z</time>
      </trkpt>
      <trkpt lat="42.82938" lon="0.56953">
        <ele>1677.157</ele>
        <time>2021-03-21T12:26:10Z</time>
      </trkpt>
      <trkpt lat="42.82938" lon="0.56953">
        <ele>1677.156</ele>
        <time>2021-03-21T12:26:12Z</time>
      </trkpt>
      <trkpt lat="42.82938" lon="0.56953">
        <ele>1677.157</ele>
        <time>2021-03-21T12:26:14Z</time>
      </trkpt>
      <trkpt lat="42.82938" lon="0.56953">
        <ele>1677.164</ele>
        <time>2021-03-21T12:26:16Z</time>
      </trkpt>
      <trkpt lat="42.82938" lon="0.56953">
        <ele>1677.165</ele>
        <time>2021-03-21T12:26:18Z</time>
      </trkpt>
      <trkpt lat="42.82938" lon="0.56953">
        <ele>1677.166</ele>
        <time>2021-03-21T12:26:20Z</time>
      </trkpt>
      <trkpt lat="42.82937" lon="0.56953">
        <ele>1677.939</ele>
        <time>2021-03-21T12:26:22Z</time>
      </trkpt>
      <trkpt lat="42.82937" lon="0.56953">
        <ele>1677.866</ele>
        <time>2021-03-21T12:26:24Z</time>
      </trkpt>
      <trkpt lat="42.82937" lon="0.56953">
        <ele>1677.863</ele>
        <time>2021-03-21T12:26:26Z</time>
      </trkpt>
      <trkpt lat="42.82937" lon="0.56953">
        <ele>1677.861</ele>
        <time>2021-03-21T12:26:28Z</time>
      </trkpt>
      <trkpt lat="42.82937" lon="0.56953">
        <ele>1677.862</ele>
        <time>2021-03-21T12:26:30Z</time>
      </trkpt>
      <trkpt lat="42.82937" lon="0.56953">
        <ele>1677.865</ele>
        <time>2021-03-21T12:26:32Z</time>
      </trkpt>
      <trkpt lat="42.82937" lon="0.56953">
        <ele>1677.87</ele>
        <time>2021-03-21T12:26:35Z</time>
      </trkpt>
      <trkpt lat="42.82937" lon="0.56953">
        <ele>1677.879</ele>
        <time>2021-03-21T12:26:37Z</time>
      </trkpt>
      <trkpt lat="42.82937" lon="0.56953">
        <ele>1677.872</ele>
        <time>2021-03-21T12:26:39Z</time>
      </trkpt>
      <trkpt lat="42.82937" lon="0.56953">
        <ele>1677.869</ele>
        <time>2021-03-21T12:26:41Z</time>
      </trkpt>
      <trkpt lat="42.82937" lon="0.56953">
        <ele>1677.884</ele>
        <time>2021-03-21T12:26:43Z</time>
      </trkpt>
      <trkpt lat="42.82937" lon="0.56953">
        <ele>1677.888</ele>
        <time>2021-03-21T12:26:45Z</time>
      </trkpt>
      <trkpt lat="42.82937" lon="0.56953">
        <ele>1677.889</ele>
        <time>2021-03-21T12:26:47Z</time>
      </trkpt>
      <trkpt lat="42.82937" lon="0.56953">
        <ele>1677.9</ele>
        <time>2021-03-21T12:26:49Z</time>
      </trkpt>
      <trkpt lat="42.82937" lon="0.56953">
        <ele>1677.905</ele>
        <time>2021-03-21T12:26:51Z</time>
      </trkpt>
      <trkpt lat="42.82937" lon="0.56953">
        <ele>1677.907</ele>
        <time>2021-03-21T12:26:53Z</time>
      </trkpt>
      <trkpt lat="42.82937" lon="0.56953">
        <ele>1677.908</ele>
        <time>2021-03-21T12:26:55Z</time>
      </trkpt>
      <trkpt lat="42.82937" lon="0.56953">
        <ele>1677.912</ele>
        <time>2021-03-21T12:26:57Z</time>
      </trkpt>
      <trkpt lat="42.82937" lon="0.56953">
        <ele>1677.917</ele>
        <time>2021-03-21T12:26:58Z</time>
      </trkpt>
      <trkpt lat="42.82937" lon="0.56953">
        <ele>1677.92</ele>
        <time>2021-03-21T12:27:01Z</time>
      </trkpt>
      <trkpt lat="42.82937" lon="0.56953">
        <ele>1677.926</ele>
        <time>2021-03-21T12:27:03Z</time>
      </trkpt>
      <trkpt lat="42.82937" lon="0.56953">
        <ele>1677.93</ele>
        <time>2021-03-21T12:27:05Z</time>
      </trkpt>
      <trkpt lat="42.82937" lon="0.56953">
        <ele>1677.93</ele>
        <time>2021-03-21T12:27:07Z</time>
      </trkpt>
      <trkpt lat="42.82937" lon="0.56953">
        <ele>1677.94</ele>
        <time>2021-03-21T12:27:09Z</time>
      </trkpt>
      <trkpt lat="42.82937" lon="0.56953">
        <ele>1677.953</ele>
        <time>2021-03-21T12:27:11Z</time>
      </trkpt>
      <trkpt lat="42.82937" lon="0.56953">
        <ele>1677.958</ele>
        <time>2021-03-21T12:27:13Z</time>
      </trkpt>
      <trkpt lat="42.82937" lon="0.56953">
        <ele>1677.969</ele>
        <time>2021-03-21T12:27:15Z</time>
      </trkpt>
      <trkpt lat="42.82937" lon="0.56953">
        <ele>1677.967</ele>
        <time>2021-03-21T12:27:17Z</time>
      </trkpt>
      <trkpt lat="42.82937" lon="0.56953">
        <ele>1677.975</ele>
        <time>2021-03-21T12:27:19Z</time>
      </trkpt>
      <trkpt lat="42.82937" lon="0.56953">
        <ele>1677.983</ele>
        <time>2021-03-21T12:27:21Z</time>
      </trkpt>
      <trkpt lat="42.82937" lon="0.56953">
        <ele>1677.985</ele>
        <time>2021-03-21T12:27:23Z</time>
      </trkpt>
      <trkpt lat="42.82937" lon="0.56953">
        <ele>1677.994</ele>
        <time>2021-03-21T12:27:25Z</time>
      </trkpt>
      <trkpt lat="42.82937" lon="0.56953">
        <ele>1677.997</ele>
        <time>2021-03-21T12:27:27Z</time>
      </trkpt>
      <trkpt lat="42.82937" lon="0.56953">
        <ele>1678.002</ele>
        <time>2021-03-21T12:27:29Z</time>
      </trkpt>
      <trkpt lat="42.82937" lon="0.56953">
        <ele>1678.001</ele>
        <time>2021-03-21T12:27:31Z</time>
      </trkpt>
      <trkpt lat="42.82937" lon="0.56953">
        <ele>1678.006</ele>
        <time>2021-03-21T12:27:33Z</time>
      </trkpt>
      <trkpt lat="42.82938" lon="0.56954">
        <ele>1678.87</ele>
        <time>2021-03-21T12:27:35Z</time>
      </trkpt>
      <trkpt lat="42.82938" lon="0.56954">
        <ele>1678.948</ele>
        <time>2021-03-21T12:27:37Z</time>
      </trkpt>
      <trkpt lat="42.82938" lon="0.56954">
        <ele>1678.95</ele>
        <time>2021-03-21T12:27:39Z</time>
      </trkpt>
      <trkpt lat="42.82938" lon="0.56954">
        <ele>1678.956</ele>
        <time>2021-03-21T12:27:41Z</time>
      </trkpt>
      <trkpt lat="42.82938" lon="0.56954">
        <ele>1678.961</ele>
        <time>2021-03-21T12:27:43Z</time>
      </trkpt>
      <trkpt lat="42.82938" lon="0.56954">
        <ele>1678.974</ele>
        <time>2021-03-21T12:27:45Z</time>
      </trkpt>
      <trkpt lat="42.82938" lon="0.56954">
        <ele>1678.982</ele>
        <time>2021-03-21T12:27:47Z</time>
      </trkpt>
      <trkpt lat="42.82938" lon="0.56954">
        <ele>1678.973</ele>
        <time>2021-03-21T12:27:49Z</time>
      </trkpt>
      <trkpt lat="42.82938" lon="0.56954">
        <ele>1678.966</ele>
        <time>2021-03-21T12:27:51Z</time>
      </trkpt>
      <trkpt lat="42.82938" lon="0.56954">
        <ele>1678.969</ele>
        <time>2021-03-21T12:27:53Z</time>
      </trkpt>
      <trkpt lat="42.82938" lon="0.56953">
        <ele>1679.008</ele>
        <time>2021-03-21T12:27:55Z</time>
      </trkpt>
      <trkpt lat="42.82938" lon="0.56954">
        <ele>1678.654</ele>
        <time>2021-03-21T12:27:57Z</time>
      </trkpt>
      <trkpt lat="42.82938" lon="0.56954">
        <ele>1678.642</ele>
        <time>2021-03-21T12:27:59Z</time>
      </trkpt>
      <trkpt lat="42.82938" lon="0.56954">
        <ele>1677.767</ele>
        <time>2021-03-21T12:28:01Z</time>
      </trkpt>
      <trkpt lat="42.8294" lon="0.56954">
        <ele>1676.455</ele>
        <time>2021-03-21T12:28:03Z</time>
      </trkpt>
      <trkpt lat="42.82938" lon="0.56953">
        <ele>1675.778</ele>
        <time>2021-03-21T12:28:05Z</time>
      </trkpt>
      <trkpt lat="42.82938" lon="0.56952">
        <ele>1676.54</ele>
        <time>2021-03-21T12:28:07Z</time>
      </trkpt>
      <trkpt lat="42.82938" lon="0.56952">
        <ele>1677.283</ele>
        <time>2021-03-21T12:28:09Z</time>
      </trkpt>
      <trkpt lat="42.82938" lon="0.56953">
        <ele>1678.97</ele>
        <time>2021-03-21T12:28:11Z</time>
      </trkpt>
      <trkpt lat="42.82937" lon="0.56954">
        <ele>1678.359</ele>
        <time>2021-03-21T12:28:13Z</time>
      </trkpt>
      <trkpt lat="42.82937" lon="0.56954">
        <ele>1678.362</ele>
        <time>2021-03-21T12:28:15Z</time>
      </trkpt>
      <trkpt lat="42.82937" lon="0.56954">
        <ele>1678.828</ele>
        <time>2021-03-21T12:28:17Z</time>
      </trkpt>
      <trkpt lat="42.82937" lon="0.56954">
        <ele>1678.84</ele>
        <time>2021-03-21T12:28:19Z</time>
      </trkpt>
      <trkpt lat="42.82937" lon="0.56954">
        <ele>1678.849</ele>
        <time>2021-03-21T12:28:21Z</time>
      </trkpt>
      <trkpt lat="42.82937" lon="0.56954">
        <ele>1678.867</ele>
        <time>2021-03-21T12:28:23Z</time>
      </trkpt>
      <trkpt lat="42.82937" lon="0.56954">
        <ele>1678.898</ele>
        <time>2021-03-21T12:28:25Z</time>
      </trkpt>
      <trkpt lat="42.82937" lon="0.56954">
        <ele>1678.932</ele>
        <time>2021-03-21T12:28:27Z</time>
      </trkpt>
      <trkpt lat="42.82937" lon="0.56954">
        <ele>1679.022</ele>
        <time>2021-03-21T12:28:29Z</time>
      </trkpt>
      <trkpt lat="42.82937" lon="0.56955">
        <ele>1679.063</ele>
        <time>2021-03-21T12:28:31Z</time>
      </trkpt>
      <trkpt lat="42.82937" lon="0.56955">
        <ele>1679.085</ele>
        <time>2021-03-21T12:28:33Z</time>
      </trkpt>
      <trkpt lat="42.82937" lon="0.56955">
        <ele>1679.075</ele>
        <time>2021-03-21T12:28:35Z</time>
      </trkpt>
      <trkpt lat="42.82937" lon="0.56955">
        <ele>1679.094</ele>
        <time>2021-03-21T12:28:37Z</time>
      </trkpt>
      <trkpt lat="42.82937" lon="0.56955">
        <ele>1680.149</ele>
        <time>2021-03-21T12:28:39Z</time>
      </trkpt>
      <trkpt lat="42.82936" lon="0.56956">
        <ele>1681.202</ele>
        <time>2021-03-21T12:28:41Z</time>
      </trkpt>
      <trkpt lat="42.82936" lon="0.56956">
        <ele>1681.224</ele>
        <time>2021-03-21T12:28:43Z</time>
      </trkpt>
      <trkpt lat="42.82936" lon="0.56956">
        <ele>1681.227</ele>
        <time>2021-03-21T12:28:45Z</time>
      </trkpt>
      <trkpt lat="42.82936" lon="0.56956">
        <ele>1681.475</ele>
        <time>2021-03-21T12:28:47Z</time>
      </trkpt>
      <trkpt lat="42.82936" lon="0.56956">
        <ele>1681.476</ele>
        <time>2021-03-21T12:28:49Z</time>
      </trkpt>
      <trkpt lat="42.82935" lon="0.56956">
        <ele>1681.756</ele>
        <time>2021-03-21T12:28:51Z</time>
      </trkpt>
      <trkpt lat="42.82936" lon="0.56956">
        <ele>1681.899</ele>
        <time>2021-03-21T12:28:53Z</time>
      </trkpt>
      <trkpt lat="42.82936" lon="0.56956">
        <ele>1682.413</ele>
        <time>2021-03-21T12:28:55Z</time>
      </trkpt>
      <trkpt lat="42.82936" lon="0.56956">
        <ele>1682.415</ele>
        <time>2021-03-21T12:28:57Z</time>
      </trkpt>
      <trkpt lat="42.82936" lon="0.56956">
        <ele>1682.4</ele>
        <time>2021-03-21T12:28:59Z</time>
      </trkpt>
      <trkpt lat="42.82936" lon="0.56956">
        <ele>1682.198</ele>
        <time>2021-03-21T12:29:01Z</time>
      </trkpt>
      <trkpt lat="42.82936" lon="0.56956">
        <ele>1682.2</ele>
        <time>2021-03-21T12:29:03Z</time>
      </trkpt>
      <trkpt lat="42.82936" lon="0.56956">
        <ele>1682.024</ele>
        <time>2021-03-21T12:29:05Z</time>
      </trkpt>
      <trkpt lat="42.82936" lon="0.56956">
        <ele>1682.025</ele>
        <time>2021-03-21T12:29:07Z</time>
      </trkpt>
      <trkpt lat="42.82936" lon="0.56956">
        <ele>1682.022</ele>
        <time>2021-03-21T12:29:09Z</time>
      </trkpt>
      <trkpt lat="42.82936" lon="0.56956">
        <ele>1682.026</ele>
        <time>2021-03-21T12:29:11Z</time>
      </trkpt>
      <trkpt lat="42.82936" lon="0.56956">
        <ele>1682.032</ele>
        <time>2021-03-21T12:29:13Z</time>
      </trkpt>
      <trkpt lat="42.82936" lon="0.56956">
        <ele>1682.033</ele>
        <time>2021-03-21T12:29:15Z</time>
      </trkpt>
      <trkpt lat="42.82936" lon="0.56956">
        <ele>1682.031</ele>
        <time>2021-03-21T12:29:17Z</time>
      </trkpt>
      <trkpt lat="42.82936" lon="0.56956">
        <ele>1682.041</ele>
        <time>2021-03-21T12:29:19Z</time>
      </trkpt>
      <trkpt lat="42.82936" lon="0.56957">
        <ele>1682.153</ele>
        <time>2021-03-21T12:29:21Z</time>
      </trkpt>
      <trkpt lat="42.82935" lon="0.56958">
        <ele>1683.197</ele>
        <time>2021-03-21T12:29:23Z</time>
      </trkpt>
      <trkpt lat="42.82935" lon="0.56958">
        <ele>1683.108</ele>
        <time>2021-03-21T12:29:25Z</time>
      </trkpt>
      <trkpt lat="42.82935" lon="0.56958">
        <ele>1683.113</ele>
        <time>2021-03-21T12:29:27Z</time>
      </trkpt>
      <trkpt lat="42.82935" lon="0.56958">
        <ele>1683.117</ele>
        <time>2021-03-21T12:29:29Z</time>
      </trkpt>
      <trkpt lat="42.82935" lon="0.56958">
        <ele>1683.15</ele>
        <time>2021-03-21T12:29:31Z</time>
      </trkpt>
      <trkpt lat="42.82935" lon="0.56958">
        <ele>1683.645</ele>
        <time>2021-03-21T12:29:33Z</time>
      </trkpt>
      <trkpt lat="42.82935" lon="0.56958">
        <ele>1683.647</ele>
        <time>2021-03-21T12:29:35Z</time>
      </trkpt>
      <trkpt lat="42.82935" lon="0.56958">
        <ele>1683.648</ele>
        <time>2021-03-21T12:29:37Z</time>
      </trkpt>
      <trkpt lat="42.82935" lon="0.56958">
        <ele>1683.663</ele>
        <time>2021-03-21T12:29:39Z</time>
      </trkpt>
      <trkpt lat="42.82935" lon="0.56958">
        <ele>1683.668</ele>
        <time>2021-03-21T12:29:41Z</time>
      </trkpt>
      <trkpt lat="42.82935" lon="0.56958">
        <ele>1683.695</ele>
        <time>2021-03-21T12:29:43Z</time>
      </trkpt>
      <trkpt lat="42.82935" lon="0.56958">
        <ele>1683.693</ele>
        <time>2021-03-21T12:29:45Z</time>
      </trkpt>
      <trkpt lat="42.82935" lon="0.56958">
        <ele>1683.685</ele>
        <time>2021-03-21T12:29:47Z</time>
      </trkpt>
      <trkpt lat="42.82935" lon="0.56958">
        <ele>1683.69</ele>
        <time>2021-03-21T12:29:49Z</time>
      </trkpt>
      <trkpt lat="42.82935" lon="0.56958">
        <ele>1683.703</ele>
        <time>2021-03-21T12:29:51Z</time>
      </trkpt>
      <trkpt lat="42.82935" lon="0.56958">
        <ele>1683.715</ele>
        <time>2021-03-21T12:29:53Z</time>
      </trkpt>
      <trkpt lat="42.82935" lon="0.56958">
        <ele>1683.747</ele>
        <time>2021-03-21T12:29:55Z</time>
      </trkpt>
      <trkpt lat="42.82935" lon="0.56958">
        <ele>1683.754</ele>
        <time>2021-03-21T12:29:57Z</time>
      </trkpt>
      <trkpt lat="42.82935" lon="0.56958">
        <ele>1683.754</ele>
        <time>2021-03-21T12:29:59Z</time>
      </trkpt>
      <trkpt lat="42.82935" lon="0.56958">
        <ele>1683.75</ele>
        <time>2021-03-21T12:30:01Z</time>
      </trkpt>
      <trkpt lat="42.82935" lon="0.56958">
        <ele>1683.751</ele>
        <time>2021-03-21T12:30:03Z</time>
      </trkpt>
      <trkpt lat="42.82935" lon="0.56958">
        <ele>1683.766</ele>
        <time>2021-03-21T12:30:05Z</time>
      </trkpt>
      <trkpt lat="42.82935" lon="0.56958">
        <ele>1683.773</ele>
        <time>2021-03-21T12:30:07Z</time>
      </trkpt>
      <trkpt lat="42.82935" lon="0.56958">
        <ele>1683.772</ele>
        <time>2021-03-21T12:30:09Z</time>
      </trkpt>
      <trkpt lat="42.82935" lon="0.56958">
        <ele>1683.769</ele>
        <time>2021-03-21T12:30:11Z</time>
      </trkpt>
      <trkpt lat="42.82935" lon="0.56958">
        <ele>1683.768</ele>
        <time>2021-03-21T12:30:13Z</time>
      </trkpt>
      <trkpt lat="42.82935" lon="0.56958">
        <ele>1683.76</ele>
        <time>2021-03-21T12:30:15Z</time>
      </trkpt>
      <trkpt lat="42.82935" lon="0.56958">
        <ele>1683.755</ele>
        <time>2021-03-21T12:30:17Z</time>
      </trkpt>
      <trkpt lat="42.82935" lon="0.56958">
        <ele>1683.767</ele>
        <time>2021-03-21T12:30:19Z</time>
      </trkpt>
      <trkpt lat="42.82935" lon="0.56958">
        <ele>1683.769</ele>
        <time>2021-03-21T12:30:21Z</time>
      </trkpt>
      <trkpt lat="42.82935" lon="0.56958">
        <ele>1683.768</ele>
        <time>2021-03-21T12:30:23Z</time>
      </trkpt>
      <trkpt lat="42.82935" lon="0.56958">
        <ele>1683.765</ele>
        <time>2021-03-21T12:30:25Z</time>
      </trkpt>
      <trkpt lat="42.82935" lon="0.56958">
        <ele>1683.769</ele>
        <time>2021-03-21T12:30:27Z</time>
      </trkpt>
      <trkpt lat="42.82936" lon="0.56958">
        <ele>1683.968</ele>
        <time>2021-03-21T12:30:29Z</time>
      </trkpt>
      <trkpt lat="42.82936" lon="0.56958">
        <ele>1683.986</ele>
        <time>2021-03-21T12:30:31Z</time>
      </trkpt>
      <trkpt lat="42.82936" lon="0.56958">
        <ele>1684.001</ele>
        <time>2021-03-21T12:30:33Z</time>
      </trkpt>
      <trkpt lat="42.82936" lon="0.56958">
        <ele>1684.014</ele>
        <time>2021-03-21T12:30:35Z</time>
      </trkpt>
      <trkpt lat="42.82936" lon="0.56958">
        <ele>1684.042</ele>
        <time>2021-03-21T12:30:37Z</time>
      </trkpt>
      <trkpt lat="42.82936" lon="0.56958">
        <ele>1684.067</ele>
        <time>2021-03-21T12:30:39Z</time>
      </trkpt>
      <trkpt lat="42.82936" lon="0.56958">
        <ele>1684.082</ele>
        <time>2021-03-21T12:30:41Z</time>
      </trkpt>
      <trkpt lat="42.82936" lon="0.56958">
        <ele>1684.086</ele>
        <time>2021-03-21T12:30:43Z</time>
      </trkpt>
      <trkpt lat="42.82936" lon="0.56958">
        <ele>1684.095</ele>
        <time>2021-03-21T12:30:45Z</time>
      </trkpt>
      <trkpt lat="42.82936" lon="0.56958">
        <ele>1684.093</ele>
        <time>2021-03-21T12:30:47Z</time>
      </trkpt>
      <trkpt lat="42.82936" lon="0.56958">
        <ele>1684.088</ele>
        <time>2021-03-21T12:30:49Z</time>
      </trkpt>
      <trkpt lat="42.82936" lon="0.56958">
        <ele>1684.093</ele>
        <time>2021-03-21T12:30:51Z</time>
      </trkpt>
      <trkpt lat="42.82936" lon="0.56958">
        <ele>1684.098</ele>
        <time>2021-03-21T12:30:53Z</time>
      </trkpt>
      <trkpt lat="42.82936" lon="0.56958">
        <ele>1684.119</ele>
        <time>2021-03-21T12:30:55Z</time>
      </trkpt>
      <trkpt lat="42.82936" lon="0.56958">
        <ele>1684.123</ele>
        <time>2021-03-21T12:30:57Z</time>
      </trkpt>
      <trkpt lat="42.82936" lon="0.56958">
        <ele>1684.123</ele>
        <time>2021-03-21T12:30:59Z</time>
      </trkpt>
      <trkpt lat="42.82936" lon="0.56958">
        <ele>1684.115</ele>
        <time>2021-03-21T12:31:01Z</time>
      </trkpt>
      <trkpt lat="42.82936" lon="0.56958">
        <ele>1684.114</ele>
        <time>2021-03-21T12:31:03Z</time>
      </trkpt>
      <trkpt lat="42.82936" lon="0.56958">
        <ele>1684.117</ele>
        <time>2021-03-21T12:31:05Z</time>
      </trkpt>
      <trkpt lat="42.82936" lon="0.56958">
        <ele>1683.417</ele>
        <time>2021-03-21T12:31:07Z</time>
      </trkpt>
      <trkpt lat="42.82936" lon="0.56958">
        <ele>1683.405</ele>
        <time>2021-03-21T12:31:09Z</time>
      </trkpt>
      <trkpt lat="42.82936" lon="0.56958">
        <ele>1683.4</ele>
        <time>2021-03-21T12:31:11Z</time>
      </trkpt>
      <trkpt lat="42.82936" lon="0.56958">
        <ele>1683.398</ele>
        <time>2021-03-21T12:31:13Z</time>
      </trkpt>
      <trkpt lat="42.82936" lon="0.56958">
        <ele>1683.394</ele>
        <time>2021-03-21T12:31:15Z</time>
      </trkpt>
      <trkpt lat="42.82936" lon="0.56958">
        <ele>1683.398</ele>
        <time>2021-03-21T12:31:17Z</time>
      </trkpt>
      <trkpt lat="42.82936" lon="0.56958">
        <ele>1683.402</ele>
        <time>2021-03-21T12:31:19Z</time>
      </trkpt>
      <trkpt lat="42.82936" lon="0.56958">
        <ele>1683.418</ele>
        <time>2021-03-21T12:31:21Z</time>
      </trkpt>
      <trkpt lat="42.82936" lon="0.56958">
        <ele>1683.417</ele>
        <time>2021-03-21T12:31:23Z</time>
      </trkpt>
      <trkpt lat="42.82936" lon="0.56958">
        <ele>1683.429</ele>
        <time>2021-03-21T12:31:25Z</time>
      </trkpt>
      <trkpt lat="42.82936" lon="0.56958">
        <ele>1683.437</ele>
        <time>2021-03-21T12:31:27Z</time>
      </trkpt>
      <trkpt lat="42.82936" lon="0.56958">
        <ele>1683.443</ele>
        <time>2021-03-21T12:31:29Z</time>
      </trkpt>
      <trkpt lat="42.82936" lon="0.56958">
        <ele>1683.455</ele>
        <time>2021-03-21T12:31:31Z</time>
      </trkpt>
      <trkpt lat="42.82936" lon="0.56958">
        <ele>1683.455</ele>
        <time>2021-03-21T12:31:33Z</time>
      </trkpt>
      <trkpt lat="42.82936" lon="0.56958">
        <ele>1683.461</ele>
        <time>2021-03-21T12:31:35Z</time>
      </trkpt>
      <trkpt lat="42.82936" lon="0.56958">
        <ele>1683.469</ele>
        <time>2021-03-21T12:31:37Z</time>
      </trkpt>
      <trkpt lat="42.82936" lon="0.56958">
        <ele>1683.47</ele>
        <time>2021-03-21T12:31:39Z</time>
      </trkpt>
      <trkpt lat="42.82936" lon="0.56958">
        <ele>1683.458</ele>
        <time>2021-03-21T12:31:41Z</time>
      </trkpt>
      <trkpt lat="42.82936" lon="0.56958">
        <ele>1683.453</ele>
        <time>2021-03-21T12:31:43Z</time>
      </trkpt>
      <trkpt lat="42.82936" lon="0.56958">
        <ele>1683.442</ele>
        <time>2021-03-21T12:31:45Z</time>
      </trkpt>
      <trkpt lat="42.82936" lon="0.56958">
        <ele>1683.44</ele>
        <time>2021-03-21T12:31:47Z</time>
      </trkpt>
      <trkpt lat="42.82936" lon="0.56958">
        <ele>1683.434</ele>
        <time>2021-03-21T12:31:49Z</time>
      </trkpt>
      <trkpt lat="42.82936" lon="0.56958">
        <ele>1683.454</ele>
        <time>2021-03-21T12:31:51Z</time>
      </trkpt>
      <trkpt lat="42.82936" lon="0.56958">
        <ele>1683.453</ele>
        <time>2021-03-21T12:31:53Z</time>
      </trkpt>
      <trkpt lat="42.82936" lon="0.56958">
        <ele>1683.463</ele>
        <time>2021-03-21T12:31:55Z</time>
      </trkpt>
      <trkpt lat="42.82936" lon="0.56958">
        <ele>1683.478</ele>
        <time>2021-03-21T12:31:57Z</time>
      </trkpt>
      <trkpt lat="42.82936" lon="0.56958">
        <ele>1683.527</ele>
        <time>2021-03-21T12:31:59Z</time>
      </trkpt>
      <trkpt lat="42.82936" lon="0.56958">
        <ele>1684.246</ele>
        <time>2021-03-21T12:32:01Z</time>
      </trkpt>
      <trkpt lat="42.82935" lon="0.56959">
        <ele>1684.458</ele>
        <time>2021-03-21T12:32:03Z</time>
      </trkpt>
      <trkpt lat="42.82935" lon="0.56959">
        <ele>1684.463</ele>
        <time>2021-03-21T12:32:05Z</time>
      </trkpt>
      <trkpt lat="42.82936" lon="0.56959">
        <ele>1684.701</ele>
        <time>2021-03-21T12:32:07Z</time>
      </trkpt>
      <trkpt lat="42.82936" lon="0.56959">
        <ele>1684.698</ele>
        <time>2021-03-21T12:32:09Z</time>
      </trkpt>
      <trkpt lat="42.82936" lon="0.56959">
        <ele>1684.568</ele>
        <time>2021-03-21T12:32:11Z</time>
      </trkpt>
      <trkpt lat="42.82936" lon="0.56959">
        <ele>1684.558</ele>
        <time>2021-03-21T12:32:13Z</time>
      </trkpt>
      <trkpt lat="42.82936" lon="0.56959">
        <ele>1684.558</ele>
        <time>2021-03-21T12:32:15Z</time>
      </trkpt>
      <trkpt lat="42.82936" lon="0.56959">
        <ele>1684.556</ele>
        <time>2021-03-21T12:32:17Z</time>
      </trkpt>
      <trkpt lat="42.82936" lon="0.56959">
        <ele>1684.55</ele>
        <time>2021-03-21T12:32:19Z</time>
      </trkpt>
      <trkpt lat="42.82936" lon="0.56959">
        <ele>1684.546</ele>
        <time>2021-03-21T12:32:21Z</time>
      </trkpt>
      <trkpt lat="42.82936" lon="0.56959">
        <ele>1684.537</ele>
        <time>2021-03-21T12:32:23Z</time>
      </trkpt>
      <trkpt lat="42.82936" lon="0.56959">
        <ele>1684.536</ele>
        <time>2021-03-21T12:32:25Z</time>
      </trkpt>
      <trkpt lat="42.82936" lon="0.56959">
        <ele>1684.539</ele>
        <time>2021-03-21T12:32:27Z</time>
      </trkpt>
      <trkpt lat="42.82936" lon="0.56959">
        <ele>1684.535</ele>
        <time>2021-03-21T12:32:29Z</time>
      </trkpt>
      <trkpt lat="42.82936" lon="0.56959">
        <ele>1684.526</ele>
        <time>2021-03-21T12:32:31Z</time>
      </trkpt>
      <trkpt lat="42.82936" lon="0.56959">
        <ele>1684.526</ele>
        <time>2021-03-21T12:32:33Z</time>
      </trkpt>
      <trkpt lat="42.82936" lon="0.56959">
        <ele>1684.527</ele>
        <time>2021-03-21T12:32:35Z</time>
      </trkpt>
      <trkpt lat="42.82936" lon="0.5696">
        <ele>1684.718</ele>
        <time>2021-03-21T12:32:37Z</time>
      </trkpt>
      <trkpt lat="42.82936" lon="0.5696">
        <ele>1685.223</ele>
        <time>2021-03-21T12:32:39Z</time>
      </trkpt>
      <trkpt lat="42.82936" lon="0.56959">
        <ele>1685.24</ele>
        <time>2021-03-21T12:32:41Z</time>
      </trkpt>
      <trkpt lat="42.82936" lon="0.56959">
        <ele>1685.239</ele>
        <time>2021-03-21T12:32:43Z</time>
      </trkpt>
      <trkpt lat="42.82936" lon="0.56959">
        <ele>1685.162</ele>
        <time>2021-03-21T12:32:45Z</time>
      </trkpt>
      <trkpt lat="42.82936" lon="0.56959">
        <ele>1685.158</ele>
        <time>2021-03-21T12:32:47Z</time>
      </trkpt>
      <trkpt lat="42.82936" lon="0.56959">
        <ele>1685.158</ele>
        <time>2021-03-21T12:32:49Z</time>
      </trkpt>
      <trkpt lat="42.82936" lon="0.56959">
        <ele>1685.159</ele>
        <time>2021-03-21T12:32:51Z</time>
      </trkpt>
      <trkpt lat="42.82936" lon="0.56959">
        <ele>1685.161</ele>
        <time>2021-03-21T12:32:53Z</time>
      </trkpt>
      <trkpt lat="42.82936" lon="0.56959">
        <ele>1685.162</ele>
        <time>2021-03-21T12:32:55Z</time>
      </trkpt>
      <trkpt lat="42.82936" lon="0.5696">
        <ele>1685.109</ele>
        <time>2021-03-21T12:32:57Z</time>
      </trkpt>
      <trkpt lat="42.82936" lon="0.5696">
        <ele>1685.26</ele>
        <time>2021-03-21T12:32:59Z</time>
      </trkpt>
      <trkpt lat="42.82937" lon="0.5696">
        <ele>1685.248</ele>
        <time>2021-03-21T12:33:01Z</time>
      </trkpt>
      <trkpt lat="42.82937" lon="0.5696">
        <ele>1685.254</ele>
        <time>2021-03-21T12:33:03Z</time>
      </trkpt>
      <trkpt lat="42.82937" lon="0.5696">
        <ele>1685.257</ele>
        <time>2021-03-21T12:33:05Z</time>
      </trkpt>
      <trkpt lat="42.82937" lon="0.56961">
        <ele>1685.981</ele>
        <time>2021-03-21T12:33:07Z</time>
      </trkpt>
      <trkpt lat="42.82937" lon="0.56962">
        <ele>1685.737</ele>
        <time>2021-03-21T12:33:09Z</time>
      </trkpt>
      <trkpt lat="42.82936" lon="0.56962">
        <ele>1684.97</ele>
        <time>2021-03-21T12:33:11Z</time>
      </trkpt>
      <trkpt lat="42.82937" lon="0.56959">
        <ele>1684.496</ele>
        <time>2021-03-21T12:33:13Z</time>
      </trkpt>
      <trkpt lat="42.82938" lon="0.56957">
        <ele>1684.867</ele>
        <time>2021-03-21T12:33:15Z</time>
      </trkpt>
      <trkpt lat="42.82938" lon="0.56956">
        <ele>1684.201</ele>
        <time>2021-03-21T12:33:17Z</time>
      </trkpt>
      <trkpt lat="42.82939" lon="0.56954">
        <ele>1684.801</ele>
        <time>2021-03-21T12:33:19Z</time>
      </trkpt>
      <trkpt lat="42.8294" lon="0.56953">
        <ele>1684.285</ele>
        <time>2021-03-21T12:33:21Z</time>
      </trkpt>
      <trkpt lat="42.82941" lon="0.56951">
        <ele>1684.771</ele>
        <time>2021-03-21T12:33:23Z</time>
      </trkpt>
      <trkpt lat="42.82943" lon="0.5695">
        <ele>1685.826</ele>
        <time>2021-03-21T12:33:25Z</time>
      </trkpt>
      <trkpt lat="42.82945" lon="0.56949">
        <ele>1685.667</ele>
        <time>2021-03-21T12:33:27Z</time>
      </trkpt>
      <trkpt lat="42.82946" lon="0.56947">
        <ele>1685.872</ele>
        <time>2021-03-21T12:33:29Z</time>
      </trkpt>
      <trkpt lat="42.82948" lon="0.56946">
        <ele>1685.838</ele>
        <time>2021-03-21T12:33:31Z</time>
      </trkpt>
      <trkpt lat="42.82949" lon="0.56944">
        <ele>1685.488</ele>
        <time>2021-03-21T12:33:33Z</time>
      </trkpt>
      <trkpt lat="42.82951" lon="0.56942">
        <ele>1685.381</ele>
        <time>2021-03-21T12:33:35Z</time>
      </trkpt>
      <trkpt lat="42.82952" lon="0.56942">
        <ele>1685.105</ele>
        <time>2021-03-21T12:33:37Z</time>
      </trkpt>
      <trkpt lat="42.82954" lon="0.56941">
        <ele>1685.177</ele>
        <time>2021-03-21T12:33:39Z</time>
      </trkpt>
      <trkpt lat="42.82956" lon="0.5694">
        <ele>1684.848</ele>
        <time>2021-03-21T12:33:41Z</time>
      </trkpt>
      <trkpt lat="42.82958" lon="0.56939">
        <ele>1684.968</ele>
        <time>2021-03-21T12:33:43Z</time>
      </trkpt>
      <trkpt lat="42.8296" lon="0.56938">
        <ele>1685.122</ele>
        <time>2021-03-21T12:33:45Z</time>
      </trkpt>
      <trkpt lat="42.82961" lon="0.56937">
        <ele>1685.047</ele>
        <time>2021-03-21T12:33:47Z</time>
      </trkpt>
      <trkpt lat="42.82963" lon="0.56936">
        <ele>1685.356</ele>
        <time>2021-03-21T12:33:49Z</time>
      </trkpt>
      <trkpt lat="42.82965" lon="0.56935">
        <ele>1685.937</ele>
        <time>2021-03-21T12:33:51Z</time>
      </trkpt>
      <trkpt lat="42.82966" lon="0.56934">
        <ele>1685.99</ele>
        <time>2021-03-21T12:33:53Z</time>
      </trkpt>
      <trkpt lat="42.82967" lon="0.56932">
        <ele>1685.952</ele>
        <time>2021-03-21T12:33:55Z</time>
      </trkpt>
      <trkpt lat="42.82969" lon="0.56931">
        <ele>1685.998</ele>
        <time>2021-03-21T12:33:57Z</time>
      </trkpt>
      <trkpt lat="42.8297" lon="0.5693">
        <ele>1686.231</ele>
        <time>2021-03-21T12:33:59Z</time>
      </trkpt>
      <trkpt lat="42.82971" lon="0.5693">
        <ele>1686.602</ele>
        <time>2021-03-21T12:34:01Z</time>
      </trkpt>
      <trkpt lat="42.82973" lon="0.56929">
        <ele>1686.684</ele>
        <time>2021-03-21T12:34:03Z</time>
      </trkpt>
      <trkpt lat="42.82974" lon="0.56928">
        <ele>1686.645</ele>
        <time>2021-03-21T12:34:05Z</time>
      </trkpt>
      <trkpt lat="42.82976" lon="0.56927">
        <ele>1686.51</ele>
        <time>2021-03-21T12:34:07Z</time>
      </trkpt>
      <trkpt lat="42.82978" lon="0.56927">
        <ele>1687.015</ele>
        <time>2021-03-21T12:34:09Z</time>
      </trkpt>
      <trkpt lat="42.82979" lon="0.56926">
        <ele>1687.127</ele>
        <time>2021-03-21T12:34:11Z</time>
      </trkpt>
      <trkpt lat="42.8298" lon="0.56926">
        <ele>1687.161</ele>
        <time>2021-03-21T12:34:13Z</time>
      </trkpt>
      <trkpt lat="42.82982" lon="0.56926">
        <ele>1687.522</ele>
        <time>2021-03-21T12:34:15Z</time>
      </trkpt>
      <trkpt lat="42.82984" lon="0.56925">
        <ele>1687.593</ele>
        <time>2021-03-21T12:34:17Z</time>
      </trkpt>
      <trkpt lat="42.82985" lon="0.56925">
        <ele>1688.21</ele>
        <time>2021-03-21T12:34:19Z</time>
      </trkpt>
      <trkpt lat="42.82987" lon="0.56924">
        <ele>1688.706</ele>
        <time>2021-03-21T12:34:21Z</time>
      </trkpt>
      <trkpt lat="42.82989" lon="0.56924">
        <ele>1689.249</ele>
        <time>2021-03-21T12:34:23Z</time>
      </trkpt>
      <trkpt lat="42.8299" lon="0.56924">
        <ele>1689.805</ele>
        <time>2021-03-21T12:34:25Z</time>
      </trkpt>
      <trkpt lat="42.82992" lon="0.56924">
        <ele>1690.177</ele>
        <time>2021-03-21T12:34:27Z</time>
      </trkpt>
      <trkpt lat="42.82994" lon="0.56923">
        <ele>1690.408</ele>
        <time>2021-03-21T12:34:29Z</time>
      </trkpt>
      <trkpt lat="42.82995" lon="0.56922">
        <ele>1690.268</ele>
        <time>2021-03-21T12:34:31Z</time>
      </trkpt>
      <trkpt lat="42.82996" lon="0.56921">
        <ele>1690.394</ele>
        <time>2021-03-21T12:34:33Z</time>
      </trkpt>
      <trkpt lat="42.82998" lon="0.56921">
        <ele>1691.103</ele>
        <time>2021-03-21T12:34:35Z</time>
      </trkpt>
      <trkpt lat="42.82999" lon="0.5692">
        <ele>1691.686</ele>
        <time>2021-03-21T12:34:37Z</time>
      </trkpt>
      <trkpt lat="42.83001" lon="0.56919">
        <ele>1691.752</ele>
        <time>2021-03-21T12:34:39Z</time>
      </trkpt>
      <trkpt lat="42.83003" lon="0.56919">
        <ele>1692.747</ele>
        <time>2021-03-21T12:34:41Z</time>
      </trkpt>
      <trkpt lat="42.83005" lon="0.56919">
        <ele>1693.415</ele>
        <time>2021-03-21T12:34:43Z</time>
      </trkpt>
      <trkpt lat="42.83007" lon="0.56918">
        <ele>1694.351</ele>
        <time>2021-03-21T12:34:45Z</time>
      </trkpt>
      <trkpt lat="42.83008" lon="0.56918">
        <ele>1694.877</ele>
        <time>2021-03-21T12:34:47Z</time>
      </trkpt>
      <trkpt lat="42.8301" lon="0.56918">
        <ele>1695.669</ele>
        <time>2021-03-21T12:34:49Z</time>
      </trkpt>
      <trkpt lat="42.83012" lon="0.56918">
        <ele>1696.038</ele>
        <time>2021-03-21T12:34:51Z</time>
      </trkpt>
      <trkpt lat="42.83013" lon="0.56918">
        <ele>1696.431</ele>
        <time>2021-03-21T12:34:53Z</time>
      </trkpt>
      <trkpt lat="42.83015" lon="0.56918">
        <ele>1696.03</ele>
        <time>2021-03-21T12:34:55Z</time>
      </trkpt>
      <trkpt lat="42.83016" lon="0.56918">
        <ele>1695.927</ele>
        <time>2021-03-21T12:34:57Z</time>
      </trkpt>
      <trkpt lat="42.83018" lon="0.56919">
        <ele>1697.168</ele>
        <time>2021-03-21T12:34:59Z</time>
      </trkpt>
      <trkpt lat="42.8302" lon="0.56919">
        <ele>1698.145</ele>
        <time>2021-03-21T12:35:01Z</time>
      </trkpt>
      <trkpt lat="42.83024" lon="0.5692">
        <ele>1700.023</ele>
        <time>2021-03-21T12:35:05Z</time>
      </trkpt>
      <trkpt lat="42.83025" lon="0.5692">
        <ele>1700.552</ele>
        <time>2021-03-21T12:35:06Z</time>
      </trkpt>
      <trkpt lat="42.83027" lon="0.5692">
        <ele>1700.944</ele>
        <time>2021-03-21T12:35:10Z</time>
      </trkpt>
      <trkpt lat="42.83028" lon="0.5692">
        <ele>1700.883</ele>
        <time>2021-03-21T12:35:12Z</time>
      </trkpt>
      <trkpt lat="42.8303" lon="0.56921">
        <ele>1701.083</ele>
        <time>2021-03-21T12:35:14Z</time>
      </trkpt>
      <trkpt lat="42.8303" lon="0.56921">
        <ele>1701.03</ele>
        <time>2021-03-21T12:35:16Z</time>
      </trkpt>
      <trkpt lat="42.83031" lon="0.56921">
        <ele>1701.251</ele>
        <time>2021-03-21T12:35:18Z</time>
      </trkpt>
      <trkpt lat="42.83032" lon="0.56921">
        <ele>1700.896</ele>
        <time>2021-03-21T12:35:20Z</time>
      </trkpt>
      <trkpt lat="42.83033" lon="0.56922">
        <ele>1701.358</ele>
        <time>2021-03-21T12:35:22Z</time>
      </trkpt>
      <trkpt lat="42.83033" lon="0.56922">
        <ele>1701.235</ele>
        <time>2021-03-21T12:35:24Z</time>
      </trkpt>
      <trkpt lat="42.83034" lon="0.56922">
        <ele>1701.548</ele>
        <time>2021-03-21T12:35:26Z</time>
      </trkpt>
      <trkpt lat="42.83036" lon="0.56922">
        <ele>1701.518</ele>
        <time>2021-03-21T12:35:28Z</time>
      </trkpt>
      <trkpt lat="42.83036" lon="0.56922">
        <ele>1701.934</ele>
        <time>2021-03-21T12:35:30Z</time>
      </trkpt>
      <trkpt lat="42.83037" lon="0.56923">
        <ele>1701.575</ele>
        <time>2021-03-21T12:35:32Z</time>
      </trkpt>
      <trkpt lat="42.83038" lon="0.56923">
        <ele>1701.496</ele>
        <time>2021-03-21T12:35:34Z</time>
      </trkpt>
      <trkpt lat="42.83039" lon="0.56924">
        <ele>1701.352</ele>
        <time>2021-03-21T12:35:36Z</time>
      </trkpt>
      <trkpt lat="42.8304" lon="0.56923">
        <ele>1701.331</ele>
        <time>2021-03-21T12:35:38Z</time>
      </trkpt>
      <trkpt lat="42.8304" lon="0.56922">
        <ele>1701.465</ele>
        <time>2021-03-21T12:35:40Z</time>
      </trkpt>
      <trkpt lat="42.83041" lon="0.5692">
        <ele>1701.421</ele>
        <time>2021-03-21T12:35:43Z</time>
      </trkpt>
      <trkpt lat="42.83042" lon="0.56918">
        <ele>1701.636</ele>
        <time>2021-03-21T12:35:45Z</time>
      </trkpt>
      <trkpt lat="42.83042" lon="0.56916">
        <ele>1701.395</ele>
        <time>2021-03-21T12:35:47Z</time>
      </trkpt>
      <trkpt lat="42.83042" lon="0.56914">
        <ele>1701.193</ele>
        <time>2021-03-21T12:35:49Z</time>
      </trkpt>
      <trkpt lat="42.83042" lon="0.56913">
        <ele>1700.822</ele>
        <time>2021-03-21T12:35:51Z</time>
      </trkpt>
      <trkpt lat="42.83042" lon="0.56911">
        <ele>1701.044</ele>
        <time>2021-03-21T12:35:53Z</time>
      </trkpt>
      <trkpt lat="42.83043" lon="0.56909">
        <ele>1701.54</ele>
        <time>2021-03-21T12:35:55Z</time>
      </trkpt>
      <trkpt lat="42.83043" lon="0.56907">
        <ele>1701.297</ele>
        <time>2021-03-21T12:35:57Z</time>
      </trkpt>
      <trkpt lat="42.83042" lon="0.56905">
        <ele>1700.692</ele>
        <time>2021-03-21T12:35:59Z</time>
      </trkpt>
      <trkpt lat="42.83042" lon="0.56902">
        <ele>1700.618</ele>
        <time>2021-03-21T12:36:01Z</time>
      </trkpt>
      <trkpt lat="42.83039" lon="0.56901">
        <ele>1700.882</ele>
        <time>2021-03-21T12:36:03Z</time>
      </trkpt>
      <trkpt lat="42.83037" lon="0.569">
        <ele>1701.035</ele>
        <time>2021-03-21T12:36:05Z</time>
      </trkpt>
      <trkpt lat="42.83036" lon="0.56898">
        <ele>1701.292</ele>
        <time>2021-03-21T12:36:07Z</time>
      </trkpt>
      <trkpt lat="42.83035" lon="0.56897">
        <ele>1701.377</ele>
        <time>2021-03-21T12:36:09Z</time>
      </trkpt>
      <trkpt lat="42.83034" lon="0.56896">
        <ele>1701.822</ele>
        <time>2021-03-21T12:36:11Z</time>
      </trkpt>
      <trkpt lat="42.83032" lon="0.56894">
        <ele>1701.884</ele>
        <time>2021-03-21T12:36:13Z</time>
      </trkpt>
      <trkpt lat="42.83031" lon="0.56893">
        <ele>1701.825</ele>
        <time>2021-03-21T12:36:15Z</time>
      </trkpt>
      <trkpt lat="42.8303" lon="0.56892">
        <ele>1701.614</ele>
        <time>2021-03-21T12:36:17Z</time>
      </trkpt>
      <trkpt lat="42.83028" lon="0.56891">
        <ele>1701.292</ele>
        <time>2021-03-21T12:36:19Z</time>
      </trkpt>
      <trkpt lat="42.83027" lon="0.5689">
        <ele>1700.944</ele>
        <time>2021-03-21T12:36:21Z</time>
      </trkpt>
      <trkpt lat="42.83025" lon="0.56889">
        <ele>1701.011</ele>
        <time>2021-03-21T12:36:23Z</time>
      </trkpt>
      <trkpt lat="42.83023" lon="0.56888">
        <ele>1700.64</ele>
        <time>2021-03-21T12:36:25Z</time>
      </trkpt>
      <trkpt lat="42.83022" lon="0.56887">
        <ele>1700.444</ele>
        <time>2021-03-21T12:36:27Z</time>
      </trkpt>
      <trkpt lat="42.8302" lon="0.56886">
        <ele>1700.002</ele>
        <time>2021-03-21T12:36:29Z</time>
      </trkpt>
      <trkpt lat="42.83019" lon="0.56885">
        <ele>1699.473</ele>
        <time>2021-03-21T12:36:31Z</time>
      </trkpt>
      <trkpt lat="42.83017" lon="0.56883">
        <ele>1699.559</ele>
        <time>2021-03-21T12:36:33Z</time>
      </trkpt>
      <trkpt lat="42.83016" lon="0.56881">
        <ele>1698.74</ele>
        <time>2021-03-21T12:36:35Z</time>
      </trkpt>
      <trkpt lat="42.83015" lon="0.56879">
        <ele>1698.699</ele>
        <time>2021-03-21T12:36:37Z</time>
      </trkpt>
      <trkpt lat="42.83013" lon="0.56878">
        <ele>1698.588</ele>
        <time>2021-03-21T12:36:39Z</time>
      </trkpt>
      <trkpt lat="42.83012" lon="0.56876">
        <ele>1698.963</ele>
        <time>2021-03-21T12:36:41Z</time>
      </trkpt>
      <trkpt lat="42.83011" lon="0.56874">
        <ele>1698.751</ele>
        <time>2021-03-21T12:36:43Z</time>
      </trkpt>
      <trkpt lat="42.8301" lon="0.56872">
        <ele>1698.85</ele>
        <time>2021-03-21T12:36:45Z</time>
      </trkpt>
      <trkpt lat="42.83009" lon="0.5687">
        <ele>1698.553</ele>
        <time>2021-03-21T12:36:47Z</time>
      </trkpt>
      <trkpt lat="42.83008" lon="0.56869">
        <ele>1698.331</ele>
        <time>2021-03-21T12:36:49Z</time>
      </trkpt>
      <trkpt lat="42.83006" lon="0.56867">
        <ele>1698.194</ele>
        <time>2021-03-21T12:36:51Z</time>
      </trkpt>
      <trkpt lat="42.83005" lon="0.56867">
        <ele>1698.582</ele>
        <time>2021-03-21T12:36:53Z</time>
      </trkpt>
      <trkpt lat="42.83004" lon="0.56867">
        <ele>1698.772</ele>
        <time>2021-03-21T12:36:55Z</time>
      </trkpt>
      <trkpt lat="42.83003" lon="0.56863">
        <ele>1699.905</ele>
        <time>2021-03-21T12:36:57Z</time>
      </trkpt>
      <trkpt lat="42.83001" lon="0.56862">
        <ele>1700.083</ele>
        <time>2021-03-21T12:36:59Z</time>
      </trkpt>
      <trkpt lat="42.83" lon="0.56862">
        <ele>1699.513</ele>
        <time>2021-03-21T12:37:01Z</time>
      </trkpt>
      <trkpt lat="42.82998" lon="0.5686">
        <ele>1699.645</ele>
        <time>2021-03-21T12:37:03Z</time>
      </trkpt>
      <trkpt lat="42.82998" lon="0.56858">
        <ele>1700.021</ele>
        <time>2021-03-21T12:37:05Z</time>
      </trkpt>
      <trkpt lat="42.82999" lon="0.56857">
        <ele>1699.786</ele>
        <time>2021-03-21T12:37:07Z</time>
      </trkpt>
      <trkpt lat="42.83" lon="0.56855">
        <ele>1700.465</ele>
        <time>2021-03-21T12:37:09Z</time>
      </trkpt>
      <trkpt lat="42.83" lon="0.56854">
        <ele>1700.772</ele>
        <time>2021-03-21T12:37:11Z</time>
      </trkpt>
      <trkpt lat="42.83001" lon="0.56852">
        <ele>1700.143</ele>
        <time>2021-03-21T12:37:13Z</time>
      </trkpt>
      <trkpt lat="42.83002" lon="0.5685">
        <ele>1699.827</ele>
        <time>2021-03-21T12:37:15Z</time>
      </trkpt>
      <trkpt lat="42.83003" lon="0.56848">
        <ele>1699.527</ele>
        <time>2021-03-21T12:37:17Z</time>
      </trkpt>
      <trkpt lat="42.83004" lon="0.56847">
        <ele>1699.142</ele>
        <time>2021-03-21T12:37:19Z</time>
      </trkpt>
      <trkpt lat="42.83005" lon="0.56846">
        <ele>1699.437</ele>
        <time>2021-03-21T12:37:21Z</time>
      </trkpt>
      <trkpt lat="42.83006" lon="0.56845">
        <ele>1699.168</ele>
        <time>2021-03-21T12:37:23Z</time>
      </trkpt>
      <trkpt lat="42.83008" lon="0.56844">
        <ele>1698.95</ele>
        <time>2021-03-21T12:37:25Z</time>
      </trkpt>
      <trkpt lat="42.83009" lon="0.56843">
        <ele>1698.603</ele>
        <time>2021-03-21T12:37:27Z</time>
      </trkpt>
      <trkpt lat="42.83011" lon="0.56841">
        <ele>1698.246</ele>
        <time>2021-03-21T12:37:29Z</time>
      </trkpt>
      <trkpt lat="42.83013" lon="0.56839">
        <ele>1697.858</ele>
        <time>2021-03-21T12:37:31Z</time>
      </trkpt>
      <trkpt lat="42.83014" lon="0.56838">
        <ele>1697.671</ele>
        <time>2021-03-21T12:37:33Z</time>
      </trkpt>
      <trkpt lat="42.83016" lon="0.56836">
        <ele>1697.877</ele>
        <time>2021-03-21T12:37:35Z</time>
      </trkpt>
      <trkpt lat="42.83018" lon="0.56835">
        <ele>1697.705</ele>
        <time>2021-03-21T12:37:37Z</time>
      </trkpt>
      <trkpt lat="42.8302" lon="0.56834">
        <ele>1697.198</ele>
        <time>2021-03-21T12:37:39Z</time>
      </trkpt>
      <trkpt lat="42.83021" lon="0.56833">
        <ele>1697.169</ele>
        <time>2021-03-21T12:37:41Z</time>
      </trkpt>
      <trkpt lat="42.83023" lon="0.56832">
        <ele>1697.537</ele>
        <time>2021-03-21T12:37:43Z</time>
      </trkpt>
      <trkpt lat="42.83024" lon="0.5683">
        <ele>1697.453</ele>
        <time>2021-03-21T12:37:45Z</time>
      </trkpt>
      <trkpt lat="42.83026" lon="0.56829">
        <ele>1697.215</ele>
        <time>2021-03-21T12:37:47Z</time>
      </trkpt>
      <trkpt lat="42.83027" lon="0.56827">
        <ele>1696.953</ele>
        <time>2021-03-21T12:37:49Z</time>
      </trkpt>
      <trkpt lat="42.83029" lon="0.56826">
        <ele>1696.786</ele>
        <time>2021-03-21T12:37:51Z</time>
      </trkpt>
      <trkpt lat="42.83031" lon="0.56825">
        <ele>1696.292</ele>
        <time>2021-03-21T12:37:53Z</time>
      </trkpt>
      <trkpt lat="42.83032" lon="0.56824">
        <ele>1696.088</ele>
        <time>2021-03-21T12:37:55Z</time>
      </trkpt>
      <trkpt lat="42.83033" lon="0.56822">
        <ele>1695.913</ele>
        <time>2021-03-21T12:37:57Z</time>
      </trkpt>
      <trkpt lat="42.83035" lon="0.56821">
        <ele>1695.523</ele>
        <time>2021-03-21T12:37:59Z</time>
      </trkpt>
      <trkpt lat="42.83036" lon="0.56819">
        <ele>1695.397</ele>
        <time>2021-03-21T12:38:01Z</time>
      </trkpt>
      <trkpt lat="42.83038" lon="0.56818">
        <ele>1695.053</ele>
        <time>2021-03-21T12:38:03Z</time>
      </trkpt>
      <trkpt lat="42.83039" lon="0.56817">
        <ele>1694.583</ele>
        <time>2021-03-21T12:38:05Z</time>
      </trkpt>
      <trkpt lat="42.83041" lon="0.56815">
        <ele>1694.491</ele>
        <time>2021-03-21T12:38:07Z</time>
      </trkpt>
      <trkpt lat="42.83042" lon="0.56814">
        <ele>1694.636</ele>
        <time>2021-03-21T12:38:09Z</time>
      </trkpt>
      <trkpt lat="42.83044" lon="0.56812">
        <ele>1694.538</ele>
        <time>2021-03-21T12:38:11Z</time>
      </trkpt>
      <trkpt lat="42.83045" lon="0.56811">
        <ele>1693.955</ele>
        <time>2021-03-21T12:38:13Z</time>
      </trkpt>
      <trkpt lat="42.83047" lon="0.5681">
        <ele>1693.323</ele>
        <time>2021-03-21T12:38:15Z</time>
      </trkpt>
      <trkpt lat="42.83049" lon="0.56808">
        <ele>1693.06</ele>
        <time>2021-03-21T12:38:17Z</time>
      </trkpt>
      <trkpt lat="42.8305" lon="0.56807">
        <ele>1692.611</ele>
        <time>2021-03-21T12:38:19Z</time>
      </trkpt>
      <trkpt lat="42.83052" lon="0.56805">
        <ele>1691.824</ele>
        <time>2021-03-21T12:38:21Z</time>
      </trkpt>
      <trkpt lat="42.83053" lon="0.56803">
        <ele>1691.769</ele>
        <time>2021-03-21T12:38:23Z</time>
      </trkpt>
      <trkpt lat="42.83055" lon="0.56802">
        <ele>1691.227</ele>
        <time>2021-03-21T12:38:25Z</time>
      </trkpt>
      <trkpt lat="42.83057" lon="0.568">
        <ele>1690.814</ele>
        <time>2021-03-21T12:38:27Z</time>
      </trkpt>
      <trkpt lat="42.83058" lon="0.56798">
        <ele>1690.503</ele>
        <time>2021-03-21T12:38:29Z</time>
      </trkpt>
      <trkpt lat="42.8306" lon="0.56796">
        <ele>1689.816</ele>
        <time>2021-03-21T12:38:31Z</time>
      </trkpt>
      <trkpt lat="42.83061" lon="0.56794">
        <ele>1689.333</ele>
        <time>2021-03-21T12:38:33Z</time>
      </trkpt>
      <trkpt lat="42.83062" lon="0.56792">
        <ele>1689.186</ele>
        <time>2021-03-21T12:38:35Z</time>
      </trkpt>
      <trkpt lat="42.83063" lon="0.5679">
        <ele>1688.95</ele>
        <time>2021-03-21T12:38:37Z</time>
      </trkpt>
      <trkpt lat="42.83065" lon="0.56788">
        <ele>1688.205</ele>
        <time>2021-03-21T12:38:39Z</time>
      </trkpt>
      <trkpt lat="42.83066" lon="0.56785">
        <ele>1687.389</ele>
        <time>2021-03-21T12:38:41Z</time>
      </trkpt>
      <trkpt lat="42.83067" lon="0.56783">
        <ele>1686.828</ele>
        <time>2021-03-21T12:38:43Z</time>
      </trkpt>
      <trkpt lat="42.83069" lon="0.56781">
        <ele>1686.192</ele>
        <time>2021-03-21T12:38:45Z</time>
      </trkpt>
      <trkpt lat="42.8307" lon="0.56779">
        <ele>1685.66</ele>
        <time>2021-03-21T12:38:47Z</time>
      </trkpt>
      <trkpt lat="42.83071" lon="0.56776">
        <ele>1685.514</ele>
        <time>2021-03-21T12:38:49Z</time>
      </trkpt>
      <trkpt lat="42.83072" lon="0.56774">
        <ele>1685.103</ele>
        <time>2021-03-21T12:38:51Z</time>
      </trkpt>
      <trkpt lat="42.83073" lon="0.56772">
        <ele>1684.628</ele>
        <time>2021-03-21T12:38:53Z</time>
      </trkpt>
      <trkpt lat="42.83075" lon="0.5677">
        <ele>1684.155</ele>
        <time>2021-03-21T12:38:55Z</time>
      </trkpt>
      <trkpt lat="42.83076" lon="0.56768">
        <ele>1684.36</ele>
        <time>2021-03-21T12:38:57Z</time>
      </trkpt>
      <trkpt lat="42.83077" lon="0.56766">
        <ele>1683.582</ele>
        <time>2021-03-21T12:38:59Z</time>
      </trkpt>
      <trkpt lat="42.83078" lon="0.56764">
        <ele>1683.13</ele>
        <time>2021-03-21T12:39:01Z</time>
      </trkpt>
      <trkpt lat="42.8308" lon="0.56762">
        <ele>1682.178</ele>
        <time>2021-03-21T12:39:03Z</time>
      </trkpt>
      <trkpt lat="42.83081" lon="0.5676">
        <ele>1681.969</ele>
        <time>2021-03-21T12:39:05Z</time>
      </trkpt>
      <trkpt lat="42.83082" lon="0.56758">
        <ele>1681.819</ele>
        <time>2021-03-21T12:39:07Z</time>
      </trkpt>
      <trkpt lat="42.83083" lon="0.56756">
        <ele>1681.426</ele>
        <time>2021-03-21T12:39:09Z</time>
      </trkpt>
      <trkpt lat="42.83084" lon="0.56755">
        <ele>1681.076</ele>
        <time>2021-03-21T12:39:11Z</time>
      </trkpt>
      <trkpt lat="42.83086" lon="0.56753">
        <ele>1680.831</ele>
        <time>2021-03-21T12:39:13Z</time>
      </trkpt>
      <trkpt lat="42.83087" lon="0.56751">
        <ele>1680.514</ele>
        <time>2021-03-21T12:39:15Z</time>
      </trkpt>
      <trkpt lat="42.83088" lon="0.56749">
        <ele>1679.985</ele>
        <time>2021-03-21T12:39:17Z</time>
      </trkpt>
      <trkpt lat="42.83089" lon="0.56747">
        <ele>1679.869</ele>
        <time>2021-03-21T12:39:19Z</time>
      </trkpt>
      <trkpt lat="42.8309" lon="0.56745">
        <ele>1679.746</ele>
        <time>2021-03-21T12:39:21Z</time>
      </trkpt>
      <trkpt lat="42.83091" lon="0.56743">
        <ele>1679.933</ele>
        <time>2021-03-21T12:39:23Z</time>
      </trkpt>
      <trkpt lat="42.83093" lon="0.56741">
        <ele>1679.728</ele>
        <time>2021-03-21T12:39:25Z</time>
      </trkpt>
      <trkpt lat="42.83094" lon="0.56739">
        <ele>1679.672</ele>
        <time>2021-03-21T12:39:27Z</time>
      </trkpt>
      <trkpt lat="42.83095" lon="0.56737">
        <ele>1679.462</ele>
        <time>2021-03-21T12:39:29Z</time>
      </trkpt>
      <trkpt lat="42.83096" lon="0.56735">
        <ele>1679.486</ele>
        <time>2021-03-21T12:39:31Z</time>
      </trkpt>
      <trkpt lat="42.83097" lon="0.56732">
        <ele>1679.052</ele>
        <time>2021-03-21T12:39:33Z</time>
      </trkpt>
      <trkpt lat="42.83098" lon="0.5673">
        <ele>1678.816</ele>
        <time>2021-03-21T12:39:35Z</time>
      </trkpt>
      <trkpt lat="42.83099" lon="0.56728">
        <ele>1678.552</ele>
        <time>2021-03-21T12:39:37Z</time>
      </trkpt>
      <trkpt lat="42.83101" lon="0.56726">
        <ele>1677.874</ele>
        <time>2021-03-21T12:39:39Z</time>
      </trkpt>
      <trkpt lat="42.83102" lon="0.56724">
        <ele>1677.75</ele>
        <time>2021-03-21T12:39:41Z</time>
      </trkpt>
      <trkpt lat="42.83103" lon="0.56722">
        <ele>1677.905</ele>
        <time>2021-03-21T12:39:43Z</time>
      </trkpt>
      <trkpt lat="42.83104" lon="0.5672">
        <ele>1678.082</ele>
        <time>2021-03-21T12:39:45Z</time>
      </trkpt>
      <trkpt lat="42.83105" lon="0.56719">
        <ele>1677.611</ele>
        <time>2021-03-21T12:39:47Z</time>
      </trkpt>
      <trkpt lat="42.83107" lon="0.56717">
        <ele>1677.479</ele>
        <time>2021-03-21T12:39:49Z</time>
      </trkpt>
      <trkpt lat="42.83108" lon="0.56717">
        <ele>1677.503</ele>
        <time>2021-03-21T12:39:51Z</time>
      </trkpt>
      <trkpt lat="42.8311" lon="0.56715">
        <ele>1677.338</ele>
        <time>2021-03-21T12:39:53Z</time>
      </trkpt>
      <trkpt lat="42.83111" lon="0.56713">
        <ele>1676.95</ele>
        <time>2021-03-21T12:39:55Z</time>
      </trkpt>
      <trkpt lat="42.83112" lon="0.56711">
        <ele>1677.016</ele>
        <time>2021-03-21T12:39:57Z</time>
      </trkpt>
      <trkpt lat="42.83113" lon="0.56709">
        <ele>1676.865</ele>
        <time>2021-03-21T12:39:59Z</time>
      </trkpt>
      <trkpt lat="42.83114" lon="0.56707">
        <ele>1676.6</ele>
        <time>2021-03-21T12:40:01Z</time>
      </trkpt>
      <trkpt lat="42.83115" lon="0.56705">
        <ele>1676.554</ele>
        <time>2021-03-21T12:40:03Z</time>
      </trkpt>
      <trkpt lat="42.83116" lon="0.56703">
        <ele>1676.554</ele>
        <time>2021-03-21T12:40:05Z</time>
      </trkpt>
      <trkpt lat="42.83117" lon="0.56701">
        <ele>1676.202</ele>
        <time>2021-03-21T12:40:07Z</time>
      </trkpt>
      <trkpt lat="42.83119" lon="0.56699">
        <ele>1675.736</ele>
        <time>2021-03-21T12:40:09Z</time>
      </trkpt>
      <trkpt lat="42.8312" lon="0.56697">
        <ele>1675.32</ele>
        <time>2021-03-21T12:40:11Z</time>
      </trkpt>
      <trkpt lat="42.83121" lon="0.56695">
        <ele>1674.718</ele>
        <time>2021-03-21T12:40:13Z</time>
      </trkpt>
      <trkpt lat="42.83122" lon="0.56693">
        <ele>1674.175</ele>
        <time>2021-03-21T12:40:15Z</time>
      </trkpt>
      <trkpt lat="42.83123" lon="0.56691">
        <ele>1674.098</ele>
        <time>2021-03-21T12:40:17Z</time>
      </trkpt>
      <trkpt lat="42.83125" lon="0.56689">
        <ele>1673.9</ele>
        <time>2021-03-21T12:40:19Z</time>
      </trkpt>
      <trkpt lat="42.83126" lon="0.56687">
        <ele>1673.654</ele>
        <time>2021-03-21T12:40:21Z</time>
      </trkpt>
      <trkpt lat="42.83127" lon="0.56685">
        <ele>1673.428</ele>
        <time>2021-03-21T12:40:23Z</time>
      </trkpt>
      <trkpt lat="42.83128" lon="0.56683">
        <ele>1673.355</ele>
        <time>2021-03-21T12:40:25Z</time>
      </trkpt>
      <trkpt lat="42.83129" lon="0.56681">
        <ele>1673.496</ele>
        <time>2021-03-21T12:40:27Z</time>
      </trkpt>
      <trkpt lat="42.8313" lon="0.56679">
        <ele>1673.245</ele>
        <time>2021-03-21T12:40:29Z</time>
      </trkpt>
      <trkpt lat="42.83131" lon="0.56677">
        <ele>1673.175</ele>
        <time>2021-03-21T12:40:31Z</time>
      </trkpt>
      <trkpt lat="42.83132" lon="0.56675">
        <ele>1673.146</ele>
        <time>2021-03-21T12:40:33Z</time>
      </trkpt>
      <trkpt lat="42.83133" lon="0.56673">
        <ele>1672.822</ele>
        <time>2021-03-21T12:40:35Z</time>
      </trkpt>
      <trkpt lat="42.83134" lon="0.56671">
        <ele>1672.564</ele>
        <time>2021-03-21T12:40:37Z</time>
      </trkpt>
      <trkpt lat="42.83134" lon="0.56671">
        <ele>1672.633</ele>
        <time>2021-03-21T12:40:38Z</time>
      </trkpt>
      <trkpt lat="42.83136" lon="0.56667">
        <ele>1672.609</ele>
        <time>2021-03-21T12:40:41Z</time>
      </trkpt>
      <trkpt lat="42.83137" lon="0.56666">
        <ele>1672.16</ele>
        <time>2021-03-21T12:40:43Z</time>
      </trkpt>
      <trkpt lat="42.83138" lon="0.56664">
        <ele>1671.812</ele>
        <time>2021-03-21T12:40:45Z</time>
      </trkpt>
      <trkpt lat="42.83139" lon="0.56662">
        <ele>1671.468</ele>
        <time>2021-03-21T12:40:47Z</time>
      </trkpt>
      <trkpt lat="42.8314" lon="0.5666">
        <ele>1671.31</ele>
        <time>2021-03-21T12:40:49Z</time>
      </trkpt>
      <trkpt lat="42.83141" lon="0.56659">
        <ele>1671.097</ele>
        <time>2021-03-21T12:40:51Z</time>
      </trkpt>
      <trkpt lat="42.83142" lon="0.56658">
        <ele>1670.759</ele>
        <time>2021-03-21T12:40:53Z</time>
      </trkpt>
      <trkpt lat="42.83143" lon="0.56656">
        <ele>1670.33</ele>
        <time>2021-03-21T12:40:55Z</time>
      </trkpt>
      <trkpt lat="42.83145" lon="0.56655">
        <ele>1669.639</ele>
        <time>2021-03-21T12:40:57Z</time>
      </trkpt>
      <trkpt lat="42.83147" lon="0.56654">
        <ele>1669.282</ele>
        <time>2021-03-21T12:40:59Z</time>
      </trkpt>
      <trkpt lat="42.83149" lon="0.56652">
        <ele>1668.592</ele>
        <time>2021-03-21T12:41:01Z</time>
      </trkpt>
      <trkpt lat="42.8315" lon="0.56651">
        <ele>1668.329</ele>
        <time>2021-03-21T12:41:03Z</time>
      </trkpt>
      <trkpt lat="42.83152" lon="0.56649">
        <ele>1668.086</ele>
        <time>2021-03-21T12:41:05Z</time>
      </trkpt>
      <trkpt lat="42.83153" lon="0.56648">
        <ele>1667.535</ele>
        <time>2021-03-21T12:41:07Z</time>
      </trkpt>
      <trkpt lat="42.83155" lon="0.56647">
        <ele>1667.284</ele>
        <time>2021-03-21T12:41:09Z</time>
      </trkpt>
      <trkpt lat="42.83157" lon="0.56646">
        <ele>1666.876</ele>
        <time>2021-03-21T12:41:11Z</time>
      </trkpt>
      <trkpt lat="42.83158" lon="0.56644">
        <ele>1666.52</ele>
        <time>2021-03-21T12:41:13Z</time>
      </trkpt>
      <trkpt lat="42.83159" lon="0.56642">
        <ele>1666.645</ele>
        <time>2021-03-21T12:41:15Z</time>
      </trkpt>
      <trkpt lat="42.83161" lon="0.56641">
        <ele>1666.306</ele>
        <time>2021-03-21T12:41:17Z</time>
      </trkpt>
      <trkpt lat="42.83163" lon="0.56639">
        <ele>1665.524</ele>
        <time>2021-03-21T12:41:19Z</time>
      </trkpt>
      <trkpt lat="42.83164" lon="0.56638">
        <ele>1665.45</ele>
        <time>2021-03-21T12:41:21Z</time>
      </trkpt>
      <trkpt lat="42.83166" lon="0.56637">
        <ele>1665.205</ele>
        <time>2021-03-21T12:41:23Z</time>
      </trkpt>
      <trkpt lat="42.83168" lon="0.56635">
        <ele>1664.833</ele>
        <time>2021-03-21T12:41:25Z</time>
      </trkpt>
      <trkpt lat="42.83169" lon="0.56634">
        <ele>1664.636</ele>
        <time>2021-03-21T12:41:27Z</time>
      </trkpt>
      <trkpt lat="42.83171" lon="0.56633">
        <ele>1664.099</ele>
        <time>2021-03-21T12:41:29Z</time>
      </trkpt>
      <trkpt lat="42.83172" lon="0.56632">
        <ele>1664.049</ele>
        <time>2021-03-21T12:41:31Z</time>
      </trkpt>
      <trkpt lat="42.83174" lon="0.56631">
        <ele>1663.966</ele>
        <time>2021-03-21T12:41:33Z</time>
      </trkpt>
      <trkpt lat="42.83176" lon="0.5663">
        <ele>1663.68</ele>
        <time>2021-03-21T12:41:35Z</time>
      </trkpt>
      <trkpt lat="42.83177" lon="0.56629">
        <ele>1663.502</ele>
        <time>2021-03-21T12:41:37Z</time>
      </trkpt>
      <trkpt lat="42.83178" lon="0.56628">
        <ele>1662.938</ele>
        <time>2021-03-21T12:41:39Z</time>
      </trkpt>
      <trkpt lat="42.8318" lon="0.56628">
        <ele>1663.614</ele>
        <time>2021-03-21T12:41:41Z</time>
      </trkpt>
      <trkpt lat="42.8318" lon="0.56628">
        <ele>1663.567</ele>
        <time>2021-03-21T12:41:43Z</time>
      </trkpt>
      <trkpt lat="42.8318" lon="0.56628">
        <ele>1663.565</ele>
        <time>2021-03-21T12:41:45Z</time>
      </trkpt>
      <trkpt lat="42.8318" lon="0.56628">
        <ele>1663.567</ele>
        <time>2021-03-21T12:41:47Z</time>
      </trkpt>
      <trkpt lat="42.8318" lon="0.56628">
        <ele>1663.571</ele>
        <time>2021-03-21T12:41:49Z</time>
      </trkpt>
      <trkpt lat="42.8318" lon="0.56628">
        <ele>1663.225</ele>
        <time>2021-03-21T12:41:51Z</time>
      </trkpt>
      <trkpt lat="42.83182" lon="0.56626">
        <ele>1662.949</ele>
        <time>2021-03-21T12:41:53Z</time>
      </trkpt>
      <trkpt lat="42.83183" lon="0.56625">
        <ele>1662.655</ele>
        <time>2021-03-21T12:41:55Z</time>
      </trkpt>
      <trkpt lat="42.83185" lon="0.56624">
        <ele>1662.376</ele>
        <time>2021-03-21T12:41:57Z</time>
      </trkpt>
      <trkpt lat="42.83186" lon="0.56624">
        <ele>1662.576</ele>
        <time>2021-03-21T12:41:59Z</time>
      </trkpt>
      <trkpt lat="42.83186" lon="0.56623">
        <ele>1662.492</ele>
        <time>2021-03-21T12:42:01Z</time>
      </trkpt>
      <trkpt lat="42.83186" lon="0.56623">
        <ele>1662.481</ele>
        <time>2021-03-21T12:42:03Z</time>
      </trkpt>
      <trkpt lat="42.83186" lon="0.56623">
        <ele>1662.47</ele>
        <time>2021-03-21T12:42:05Z</time>
      </trkpt>
      <trkpt lat="42.83186" lon="0.56623">
        <ele>1662.254</ele>
        <time>2021-03-21T12:42:07Z</time>
      </trkpt>
      <trkpt lat="42.83188" lon="0.56622">
        <ele>1661.847</ele>
        <time>2021-03-21T12:42:09Z</time>
      </trkpt>
      <trkpt lat="42.83189" lon="0.56621">
        <ele>1661.911</ele>
        <time>2021-03-21T12:42:11Z</time>
      </trkpt>
      <trkpt lat="42.8319" lon="0.56621">
        <ele>1661.981</ele>
        <time>2021-03-21T12:42:13Z</time>
      </trkpt>
      <trkpt lat="42.8319" lon="0.56621">
        <ele>1662</ele>
        <time>2021-03-21T12:42:15Z</time>
      </trkpt>
      <trkpt lat="42.8319" lon="0.56621">
        <ele>1662.003</ele>
        <time>2021-03-21T12:42:17Z</time>
      </trkpt>
      <trkpt lat="42.8319" lon="0.56621">
        <ele>1662.003</ele>
        <time>2021-03-21T12:42:19Z</time>
      </trkpt>
      <trkpt lat="42.83191" lon="0.5662">
        <ele>1661.727</ele>
        <time>2021-03-21T12:42:21Z</time>
      </trkpt>
      <trkpt lat="42.83192" lon="0.56619">
        <ele>1661.787</ele>
        <time>2021-03-21T12:42:23Z</time>
      </trkpt>
      <trkpt lat="42.83193" lon="0.56618">
        <ele>1661.489</ele>
        <time>2021-03-21T12:42:25Z</time>
      </trkpt>
      <trkpt lat="42.83195" lon="0.56617">
        <ele>1661.014</ele>
        <time>2021-03-21T12:42:27Z</time>
      </trkpt>
      <trkpt lat="42.83197" lon="0.56617">
        <ele>1660.614</ele>
        <time>2021-03-21T12:42:29Z</time>
      </trkpt>
      <trkpt lat="42.83198" lon="0.56616">
        <ele>1659.939</ele>
        <time>2021-03-21T12:42:31Z</time>
      </trkpt>
      <trkpt lat="42.83199" lon="0.56615">
        <ele>1659.324</ele>
        <time>2021-03-21T12:42:33Z</time>
      </trkpt>
      <trkpt lat="42.83201" lon="0.56614">
        <ele>1658.706</ele>
        <time>2021-03-21T12:42:35Z</time>
      </trkpt>
      <trkpt lat="42.83202" lon="0.56613">
        <ele>1658.592</ele>
        <time>2021-03-21T12:42:37Z</time>
      </trkpt>
      <trkpt lat="42.83204" lon="0.56612">
        <ele>1657.817</ele>
        <time>2021-03-21T12:42:39Z</time>
      </trkpt>
      <trkpt lat="42.83206" lon="0.56611">
        <ele>1657.748</ele>
        <time>2021-03-21T12:42:41Z</time>
      </trkpt>
      <trkpt lat="42.83207" lon="0.5661">
        <ele>1657.132</ele>
        <time>2021-03-21T12:42:43Z</time>
      </trkpt>
      <trkpt lat="42.83209" lon="0.5661">
        <ele>1656.725</ele>
        <time>2021-03-21T12:42:45Z</time>
      </trkpt>
      <trkpt lat="42.8321" lon="0.56608">
        <ele>1656.334</ele>
        <time>2021-03-21T12:42:47Z</time>
      </trkpt>
      <trkpt lat="42.83212" lon="0.56607">
        <ele>1655.925</ele>
        <time>2021-03-21T12:42:49Z</time>
      </trkpt>
      <trkpt lat="42.83213" lon="0.56607">
        <ele>1655.592</ele>
        <time>2021-03-21T12:42:51Z</time>
      </trkpt>
      <trkpt lat="42.83215" lon="0.56605">
        <ele>1655.287</ele>
        <time>2021-03-21T12:42:53Z</time>
      </trkpt>
      <trkpt lat="42.83217" lon="0.56605">
        <ele>1655.241</ele>
        <time>2021-03-21T12:42:55Z</time>
      </trkpt>
      <trkpt lat="42.83219" lon="0.56603">
        <ele>1654.766</ele>
        <time>2021-03-21T12:42:57Z</time>
      </trkpt>
      <trkpt lat="42.83221" lon="0.56603">
        <ele>1654.768</ele>
        <time>2021-03-21T12:42:59Z</time>
      </trkpt>
      <trkpt lat="42.83223" lon="0.56602">
        <ele>1654.222</ele>
        <time>2021-03-21T12:43:01Z</time>
      </trkpt>
      <trkpt lat="42.83225" lon="0.56601">
        <ele>1654.164</ele>
        <time>2021-03-21T12:43:03Z</time>
      </trkpt>
      <trkpt lat="42.83227" lon="0.56601">
        <ele>1653.984</ele>
        <time>2021-03-21T12:43:05Z</time>
      </trkpt>
      <trkpt lat="42.83228" lon="0.56601">
        <ele>1653.811</ele>
        <time>2021-03-21T12:43:07Z</time>
      </trkpt>
      <trkpt lat="42.8323" lon="0.56602">
        <ele>1653.732</ele>
        <time>2021-03-21T12:43:09Z</time>
      </trkpt>
      <trkpt lat="42.83232" lon="0.56602">
        <ele>1653.408</ele>
        <time>2021-03-21T12:43:11Z</time>
      </trkpt>
      <trkpt lat="42.83233" lon="0.56603">
        <ele>1653.258</ele>
        <time>2021-03-21T12:43:13Z</time>
      </trkpt>
      <trkpt lat="42.83235" lon="0.56604">
        <ele>1653.414</ele>
        <time>2021-03-21T12:43:15Z</time>
      </trkpt>
      <trkpt lat="42.83237" lon="0.56604">
        <ele>1652.801</ele>
        <time>2021-03-21T12:43:17Z</time>
      </trkpt>
      <trkpt lat="42.83239" lon="0.56605">
        <ele>1652.791</ele>
        <time>2021-03-21T12:43:19Z</time>
      </trkpt>
      <trkpt lat="42.8324" lon="0.56607">
        <ele>1652.621</ele>
        <time>2021-03-21T12:43:21Z</time>
      </trkpt>
      <trkpt lat="42.83242" lon="0.56609">
        <ele>1652.113</ele>
        <time>2021-03-21T12:43:23Z</time>
      </trkpt>
      <trkpt lat="42.83243" lon="0.56611">
        <ele>1651.689</ele>
        <time>2021-03-21T12:43:25Z</time>
      </trkpt>
      <trkpt lat="42.83244" lon="0.56614">
        <ele>1650.425</ele>
        <time>2021-03-21T12:43:27Z</time>
      </trkpt>
      <trkpt lat="42.83246" lon="0.56615">
        <ele>1650.039</ele>
        <time>2021-03-21T12:43:29Z</time>
      </trkpt>
      <trkpt lat="42.83247" lon="0.56617">
        <ele>1649.656</ele>
        <time>2021-03-21T12:43:31Z</time>
      </trkpt>
      <trkpt lat="42.83248" lon="0.5662">
        <ele>1650.018</ele>
        <time>2021-03-21T12:43:33Z</time>
      </trkpt>
      <trkpt lat="42.8325" lon="0.56622">
        <ele>1650.323</ele>
        <time>2021-03-21T12:43:35Z</time>
      </trkpt>
      <trkpt lat="42.83252" lon="0.56624">
        <ele>1650.456</ele>
        <time>2021-03-21T12:43:37Z</time>
      </trkpt>
      <trkpt lat="42.83253" lon="0.56627">
        <ele>1649.803</ele>
        <time>2021-03-21T12:43:39Z</time>
      </trkpt>
      <trkpt lat="42.83255" lon="0.56628">
        <ele>1649.046</ele>
        <time>2021-03-21T12:43:41Z</time>
      </trkpt>
      <trkpt lat="42.83257" lon="0.56629">
        <ele>1648.381</ele>
        <time>2021-03-21T12:43:43Z</time>
      </trkpt>
      <trkpt lat="42.83258" lon="0.56631">
        <ele>1647.645</ele>
        <time>2021-03-21T12:43:45Z</time>
      </trkpt>
      <trkpt lat="42.8326" lon="0.56632">
        <ele>1647.723</ele>
        <time>2021-03-21T12:43:47Z</time>
      </trkpt>
      <trkpt lat="42.83262" lon="0.56633">
        <ele>1647.857</ele>
        <time>2021-03-21T12:43:49Z</time>
      </trkpt>
      <trkpt lat="42.83264" lon="0.56634">
        <ele>1647.098</ele>
        <time>2021-03-21T12:43:51Z</time>
      </trkpt>
      <trkpt lat="42.83265" lon="0.56635">
        <ele>1645.471</ele>
        <time>2021-03-21T12:43:53Z</time>
      </trkpt>
      <trkpt lat="42.83267" lon="0.56636">
        <ele>1644.011</ele>
        <time>2021-03-21T12:43:55Z</time>
      </trkpt>
      <trkpt lat="42.83269" lon="0.56637">
        <ele>1644.435</ele>
        <time>2021-03-21T12:43:57Z</time>
      </trkpt>
      <trkpt lat="42.8327" lon="0.56636">
        <ele>1643.145</ele>
        <time>2021-03-21T12:43:59Z</time>
      </trkpt>
      <trkpt lat="42.83272" lon="0.56637">
        <ele>1641.818</ele>
        <time>2021-03-21T12:44:01Z</time>
      </trkpt>
      <trkpt lat="42.83274" lon="0.56638">
        <ele>1641.427</ele>
        <time>2021-03-21T12:44:03Z</time>
      </trkpt>
      <trkpt lat="42.83275" lon="0.56639">
        <ele>1640.996</ele>
        <time>2021-03-21T12:44:05Z</time>
      </trkpt>
      <trkpt lat="42.83276" lon="0.5664">
        <ele>1640.893</ele>
        <time>2021-03-21T12:44:07Z</time>
      </trkpt>
      <trkpt lat="42.83278" lon="0.56641">
        <ele>1640.212</ele>
        <time>2021-03-21T12:44:09Z</time>
      </trkpt>
      <trkpt lat="42.8328" lon="0.56642">
        <ele>1639.62</ele>
        <time>2021-03-21T12:44:11Z</time>
      </trkpt>
      <trkpt lat="42.83281" lon="0.56642">
        <ele>1639.348</ele>
        <time>2021-03-21T12:44:13Z</time>
      </trkpt>
      <trkpt lat="42.83284" lon="0.56643">
        <ele>1640.409</ele>
        <time>2021-03-21T12:44:15Z</time>
      </trkpt>
      <trkpt lat="42.83285" lon="0.56644">
        <ele>1640.457</ele>
        <time>2021-03-21T12:44:17Z</time>
      </trkpt>
      <trkpt lat="42.83287" lon="0.56644">
        <ele>1641.515</ele>
        <time>2021-03-21T12:44:19Z</time>
      </trkpt>
      <trkpt lat="42.83289" lon="0.56644">
        <ele>1640.607</ele>
        <time>2021-03-21T12:44:21Z</time>
      </trkpt>
      <trkpt lat="42.83291" lon="0.56645">
        <ele>1640.601</ele>
        <time>2021-03-21T12:44:23Z</time>
      </trkpt>
      <trkpt lat="42.83293" lon="0.56646">
        <ele>1639.935</ele>
        <time>2021-03-21T12:44:25Z</time>
      </trkpt>
      <trkpt lat="42.83295" lon="0.56646">
        <ele>1640.128</ele>
        <time>2021-03-21T12:44:27Z</time>
      </trkpt>
      <trkpt lat="42.83297" lon="0.56647">
        <ele>1639.176</ele>
        <time>2021-03-21T12:44:29Z</time>
      </trkpt>
      <trkpt lat="42.83299" lon="0.56647">
        <ele>1639.131</ele>
        <time>2021-03-21T12:44:31Z</time>
      </trkpt>
      <trkpt lat="42.83301" lon="0.56647">
        <ele>1638.785</ele>
        <time>2021-03-21T12:44:33Z</time>
      </trkpt>
      <trkpt lat="42.83303" lon="0.56647">
        <ele>1638.786</ele>
        <time>2021-03-21T12:44:35Z</time>
      </trkpt>
      <trkpt lat="42.83305" lon="0.56648">
        <ele>1639.242</ele>
        <time>2021-03-21T12:44:37Z</time>
      </trkpt>
      <trkpt lat="42.83306" lon="0.56647">
        <ele>1640.094</ele>
        <time>2021-03-21T12:44:39Z</time>
      </trkpt>
      <trkpt lat="42.83308" lon="0.56647">
        <ele>1640.883</ele>
        <time>2021-03-21T12:44:41Z</time>
      </trkpt>
      <trkpt lat="42.8331" lon="0.56648">
        <ele>1640.661</ele>
        <time>2021-03-21T12:44:43Z</time>
      </trkpt>
      <trkpt lat="42.83311" lon="0.56648">
        <ele>1640.23</ele>
        <time>2021-03-21T12:44:45Z</time>
      </trkpt>
      <trkpt lat="42.83313" lon="0.56648">
        <ele>1639.97</ele>
        <time>2021-03-21T12:44:47Z</time>
      </trkpt>
      <trkpt lat="42.83315" lon="0.56648">
        <ele>1639.135</ele>
        <time>2021-03-21T12:44:49Z</time>
      </trkpt>
      <trkpt lat="42.83317" lon="0.56648">
        <ele>1638.44</ele>
        <time>2021-03-21T12:44:51Z</time>
      </trkpt>
      <trkpt lat="42.83319" lon="0.56648">
        <ele>1638.563</ele>
        <time>2021-03-21T12:44:53Z</time>
      </trkpt>
      <trkpt lat="42.83321" lon="0.56648">
        <ele>1637.734</ele>
        <time>2021-03-21T12:44:55Z</time>
      </trkpt>
      <trkpt lat="42.83323" lon="0.56648">
        <ele>1636.763</ele>
        <time>2021-03-21T12:44:57Z</time>
      </trkpt>
      <trkpt lat="42.83325" lon="0.56647">
        <ele>1636.75</ele>
        <time>2021-03-21T12:44:59Z</time>
      </trkpt>
      <trkpt lat="42.83327" lon="0.56646">
        <ele>1635.996</ele>
        <time>2021-03-21T12:45:01Z</time>
      </trkpt>
      <trkpt lat="42.83329" lon="0.56646">
        <ele>1635.966</ele>
        <time>2021-03-21T12:45:03Z</time>
      </trkpt>
      <trkpt lat="42.83331" lon="0.56645">
        <ele>1635.097</ele>
        <time>2021-03-21T12:45:05Z</time>
      </trkpt>
      <trkpt lat="42.83333" lon="0.56644">
        <ele>1634.877</ele>
        <time>2021-03-21T12:45:07Z</time>
      </trkpt>
      <trkpt lat="42.83335" lon="0.56643">
        <ele>1634.224</ele>
        <time>2021-03-21T12:45:09Z</time>
      </trkpt>
      <trkpt lat="42.83336" lon="0.56641">
        <ele>1633.636</ele>
        <time>2021-03-21T12:45:11Z</time>
      </trkpt>
      <trkpt lat="42.83338" lon="0.56639">
        <ele>1633.156</ele>
        <time>2021-03-21T12:45:13Z</time>
      </trkpt>
      <trkpt lat="42.83339" lon="0.56637">
        <ele>1632.437</ele>
        <time>2021-03-21T12:45:15Z</time>
      </trkpt>
      <trkpt lat="42.8334" lon="0.56635">
        <ele>1632.946</ele>
        <time>2021-03-21T12:45:17Z</time>
      </trkpt>
      <trkpt lat="42.83342" lon="0.56634">
        <ele>1633.225</ele>
        <time>2021-03-21T12:45:19Z</time>
      </trkpt>
      <trkpt lat="42.83343" lon="0.56632">
        <ele>1633.108</ele>
        <time>2021-03-21T12:45:21Z</time>
      </trkpt>
      <trkpt lat="42.83344" lon="0.5663">
        <ele>1633.318</ele>
        <time>2021-03-21T12:45:23Z</time>
      </trkpt>
      <trkpt lat="42.83345" lon="0.56628">
        <ele>1633.038</ele>
        <time>2021-03-21T12:45:25Z</time>
      </trkpt>
      <trkpt lat="42.83346" lon="0.56625">
        <ele>1632.45</ele>
        <time>2021-03-21T12:45:27Z</time>
      </trkpt>
      <trkpt lat="42.83347" lon="0.56623">
        <ele>1631.99</ele>
        <time>2021-03-21T12:45:29Z</time>
      </trkpt>
      <trkpt lat="42.83348" lon="0.56621">
        <ele>1632.108</ele>
        <time>2021-03-21T12:45:31Z</time>
      </trkpt>
      <trkpt lat="42.83349" lon="0.56619">
        <ele>1631.922</ele>
        <time>2021-03-21T12:45:33Z</time>
      </trkpt>
      <trkpt lat="42.8335" lon="0.56616">
        <ele>1631.734</ele>
        <time>2021-03-21T12:45:35Z</time>
      </trkpt>
      <trkpt lat="42.83351" lon="0.56614">
        <ele>1631.488</ele>
        <time>2021-03-21T12:45:37Z</time>
      </trkpt>
      <trkpt lat="42.83352" lon="0.56612">
        <ele>1631.182</ele>
        <time>2021-03-21T12:45:39Z</time>
      </trkpt>
      <trkpt lat="42.83353" lon="0.5661">
        <ele>1630.539</ele>
        <time>2021-03-21T12:45:41Z</time>
      </trkpt>
      <trkpt lat="42.83355" lon="0.56608">
        <ele>1629.925</ele>
        <time>2021-03-21T12:45:43Z</time>
      </trkpt>
      <trkpt lat="42.83356" lon="0.56606">
        <ele>1629.33</ele>
        <time>2021-03-21T12:45:45Z</time>
      </trkpt>
      <trkpt lat="42.83357" lon="0.56604">
        <ele>1628.783</ele>
        <time>2021-03-21T12:45:47Z</time>
      </trkpt>
      <trkpt lat="42.83358" lon="0.56602">
        <ele>1628.263</ele>
        <time>2021-03-21T12:45:49Z</time>
      </trkpt>
      <trkpt lat="42.83359" lon="0.566">
        <ele>1628.024</ele>
        <time>2021-03-21T12:45:51Z</time>
      </trkpt>
      <trkpt lat="42.83361" lon="0.56598">
        <ele>1627.635</ele>
        <time>2021-03-21T12:45:53Z</time>
      </trkpt>
      <trkpt lat="42.83362" lon="0.56595">
        <ele>1626.986</ele>
        <time>2021-03-21T12:45:55Z</time>
      </trkpt>
      <trkpt lat="42.83363" lon="0.56593">
        <ele>1626.655</ele>
        <time>2021-03-21T12:45:57Z</time>
      </trkpt>
      <trkpt lat="42.83365" lon="0.56591">
        <ele>1625.778</ele>
        <time>2021-03-21T12:45:59Z</time>
      </trkpt>
      <trkpt lat="42.83366" lon="0.56589">
        <ele>1624.809</ele>
        <time>2021-03-21T12:46:01Z</time>
      </trkpt>
      <trkpt lat="42.83367" lon="0.56587">
        <ele>1624.273</ele>
        <time>2021-03-21T12:46:03Z</time>
      </trkpt>
      <trkpt lat="42.83369" lon="0.56585">
        <ele>1623.821</ele>
        <time>2021-03-21T12:46:05Z</time>
      </trkpt>
      <trkpt lat="42.8337" lon="0.56583">
        <ele>1623.284</ele>
        <time>2021-03-21T12:46:07Z</time>
      </trkpt>
      <trkpt lat="42.83371" lon="0.56581">
        <ele>1622.839</ele>
        <time>2021-03-21T12:46:09Z</time>
      </trkpt>
      <trkpt lat="42.83372" lon="0.56578">
        <ele>1622.593</ele>
        <time>2021-03-21T12:46:11Z</time>
      </trkpt>
      <trkpt lat="42.83373" lon="0.56576">
        <ele>1621.894</ele>
        <time>2021-03-21T12:46:13Z</time>
      </trkpt>
      <trkpt lat="42.83375" lon="0.56574">
        <ele>1621.399</ele>
        <time>2021-03-21T12:46:15Z</time>
      </trkpt>
      <trkpt lat="42.83376" lon="0.56572">
        <ele>1620.947</ele>
        <time>2021-03-21T12:46:17Z</time>
      </trkpt>
      <trkpt lat="42.83378" lon="0.5657">
        <ele>1620.438</ele>
        <time>2021-03-21T12:46:19Z</time>
      </trkpt>
      <trkpt lat="42.83379" lon="0.56568">
        <ele>1620.05</ele>
        <time>2021-03-21T12:46:21Z</time>
      </trkpt>
      <trkpt lat="42.8338" lon="0.56566">
        <ele>1619.78</ele>
        <time>2021-03-21T12:46:23Z</time>
      </trkpt>
      <trkpt lat="42.83381" lon="0.56564">
        <ele>1619.225</ele>
        <time>2021-03-21T12:46:25Z</time>
      </trkpt>
      <trkpt lat="42.83383" lon="0.56561">
        <ele>1618.972</ele>
        <time>2021-03-21T12:46:27Z</time>
      </trkpt>
      <trkpt lat="42.83384" lon="0.56558">
        <ele>1618.437</ele>
        <time>2021-03-21T12:46:29Z</time>
      </trkpt>
      <trkpt lat="42.83386" lon="0.56556">
        <ele>1618.128</ele>
        <time>2021-03-21T12:46:31Z</time>
      </trkpt>
      <trkpt lat="42.83387" lon="0.56554">
        <ele>1617.725</ele>
        <time>2021-03-21T12:46:33Z</time>
      </trkpt>
      <trkpt lat="42.83388" lon="0.56552">
        <ele>1617.534</ele>
        <time>2021-03-21T12:46:35Z</time>
      </trkpt>
      <trkpt lat="42.8339" lon="0.5655">
        <ele>1617.035</ele>
        <time>2021-03-21T12:46:37Z</time>
      </trkpt>
      <trkpt lat="42.83391" lon="0.56548">
        <ele>1616.389</ele>
        <time>2021-03-21T12:46:39Z</time>
      </trkpt>
      <trkpt lat="42.83392" lon="0.56546">
        <ele>1615.983</ele>
        <time>2021-03-21T12:46:41Z</time>
      </trkpt>
      <trkpt lat="42.83394" lon="0.56544">
        <ele>1615.842</ele>
        <time>2021-03-21T12:46:43Z</time>
      </trkpt>
      <trkpt lat="42.83395" lon="0.56542">
        <ele>1615.452</ele>
        <time>2021-03-21T12:46:45Z</time>
      </trkpt>
      <trkpt lat="42.83396" lon="0.5654">
        <ele>1615.599</ele>
        <time>2021-03-21T12:46:47Z</time>
      </trkpt>
      <trkpt lat="42.83398" lon="0.56538">
        <ele>1615.206</ele>
        <time>2021-03-21T12:46:49Z</time>
      </trkpt>
      <trkpt lat="42.83399" lon="0.56535">
        <ele>1614.694</ele>
        <time>2021-03-21T12:46:51Z</time>
      </trkpt>
      <trkpt lat="42.834" lon="0.56533">
        <ele>1614.321</ele>
        <time>2021-03-21T12:46:53Z</time>
      </trkpt>
      <trkpt lat="42.83402" lon="0.56531">
        <ele>1614.193</ele>
        <time>2021-03-21T12:46:55Z</time>
      </trkpt>
      <trkpt lat="42.83403" lon="0.56529">
        <ele>1613.846</ele>
        <time>2021-03-21T12:46:57Z</time>
      </trkpt>
      <trkpt lat="42.83404" lon="0.56527">
        <ele>1613.351</ele>
        <time>2021-03-21T12:46:59Z</time>
      </trkpt>
      <trkpt lat="42.83405" lon="0.56525">
        <ele>1613.15</ele>
        <time>2021-03-21T12:47:01Z</time>
      </trkpt>
      <trkpt lat="42.83407" lon="0.56523">
        <ele>1613.134</ele>
        <time>2021-03-21T12:47:03Z</time>
      </trkpt>
      <trkpt lat="42.83408" lon="0.56521">
        <ele>1612.561</ele>
        <time>2021-03-21T12:47:05Z</time>
      </trkpt>
      <trkpt lat="42.83409" lon="0.56518">
        <ele>1612.14</ele>
        <time>2021-03-21T12:47:07Z</time>
      </trkpt>
      <trkpt lat="42.83411" lon="0.56516">
        <ele>1611.885</ele>
        <time>2021-03-21T12:47:09Z</time>
      </trkpt>
      <trkpt lat="42.83413" lon="0.56514">
        <ele>1611.43</ele>
        <time>2021-03-21T12:47:11Z</time>
      </trkpt>
      <trkpt lat="42.83414" lon="0.56512">
        <ele>1610.961</ele>
        <time>2021-03-21T12:47:13Z</time>
      </trkpt>
      <trkpt lat="42.83415" lon="0.5651">
        <ele>1610.6</ele>
        <time>2021-03-21T12:47:15Z</time>
      </trkpt>
      <trkpt lat="42.83416" lon="0.56507">
        <ele>1610.077</ele>
        <time>2021-03-21T12:47:17Z</time>
      </trkpt>
      <trkpt lat="42.83418" lon="0.56505">
        <ele>1610.225</ele>
        <time>2021-03-21T12:47:19Z</time>
      </trkpt>
      <trkpt lat="42.83419" lon="0.56502">
        <ele>1609.909</ele>
        <time>2021-03-21T12:47:21Z</time>
      </trkpt>
      <trkpt lat="42.8342" lon="0.56499">
        <ele>1609.636</ele>
        <time>2021-03-21T12:47:23Z</time>
      </trkpt>
      <trkpt lat="42.83421" lon="0.56496">
        <ele>1609.358</ele>
        <time>2021-03-21T12:47:25Z</time>
      </trkpt>
      <trkpt lat="42.83422" lon="0.56494">
        <ele>1608.709</ele>
        <time>2021-03-21T12:47:27Z</time>
      </trkpt>
      <trkpt lat="42.83423" lon="0.56491">
        <ele>1608.257</ele>
        <time>2021-03-21T12:47:29Z</time>
      </trkpt>
      <trkpt lat="42.83424" lon="0.56488">
        <ele>1608.106</ele>
        <time>2021-03-21T12:47:31Z</time>
      </trkpt>
      <trkpt lat="42.83426" lon="0.56486">
        <ele>1607.999</ele>
        <time>2021-03-21T12:47:33Z</time>
      </trkpt>
      <trkpt lat="42.83427" lon="0.56484">
        <ele>1607.525</ele>
        <time>2021-03-21T12:47:35Z</time>
      </trkpt>
      <trkpt lat="42.83428" lon="0.56481">
        <ele>1607.001</ele>
        <time>2021-03-21T12:47:37Z</time>
      </trkpt>
      <trkpt lat="42.8343" lon="0.56479">
        <ele>1606.618</ele>
        <time>2021-03-21T12:47:39Z</time>
      </trkpt>
      <trkpt lat="42.83431" lon="0.56477">
        <ele>1606.571</ele>
        <time>2021-03-21T12:47:41Z</time>
      </trkpt>
      <trkpt lat="42.83432" lon="0.56474">
        <ele>1606.026</ele>
        <time>2021-03-21T12:47:43Z</time>
      </trkpt>
      <trkpt lat="42.83434" lon="0.56472">
        <ele>1605.331</ele>
        <time>2021-03-21T12:47:45Z</time>
      </trkpt>
      <trkpt lat="42.83435" lon="0.56469">
        <ele>1605.135</ele>
        <time>2021-03-21T12:47:47Z</time>
      </trkpt>
      <trkpt lat="42.83436" lon="0.56466">
        <ele>1604.87</ele>
        <time>2021-03-21T12:47:49Z</time>
      </trkpt>
      <trkpt lat="42.83437" lon="0.56463">
        <ele>1604.914</ele>
        <time>2021-03-21T12:47:51Z</time>
      </trkpt>
      <trkpt lat="42.83438" lon="0.56461">
        <ele>1604.198</ele>
        <time>2021-03-21T12:47:53Z</time>
      </trkpt>
      <trkpt lat="42.83439" lon="0.56458">
        <ele>1604.121</ele>
        <time>2021-03-21T12:47:55Z</time>
      </trkpt>
      <trkpt lat="42.83439" lon="0.56456">
        <ele>1603.96</ele>
        <time>2021-03-21T12:47:56Z</time>
      </trkpt>
      <trkpt lat="42.8344" lon="0.56452">
        <ele>1603.616</ele>
        <time>2021-03-21T12:47:59Z</time>
      </trkpt>
      <trkpt lat="42.83441" lon="0.5645">
        <ele>1603.272</ele>
        <time>2021-03-21T12:48:01Z</time>
      </trkpt>
      <trkpt lat="42.83441" lon="0.56447">
        <ele>1602.866</ele>
        <time>2021-03-21T12:48:03Z</time>
      </trkpt>
      <trkpt lat="42.83442" lon="0.56443">
        <ele>1602.709</ele>
        <time>2021-03-21T12:48:05Z</time>
      </trkpt>
      <trkpt lat="42.83442" lon="0.56441">
        <ele>1602.288</ele>
        <time>2021-03-21T12:48:07Z</time>
      </trkpt>
      <trkpt lat="42.83443" lon="0.56438">
        <ele>1601.749</ele>
        <time>2021-03-21T12:48:09Z</time>
      </trkpt>
      <trkpt lat="42.83444" lon="0.56435">
        <ele>1601.129</ele>
        <time>2021-03-21T12:48:11Z</time>
      </trkpt>
      <trkpt lat="42.83444" lon="0.56432">
        <ele>1600.777</ele>
        <time>2021-03-21T12:48:13Z</time>
      </trkpt>
      <trkpt lat="42.83445" lon="0.56429">
        <ele>1600.596</ele>
        <time>2021-03-21T12:48:15Z</time>
      </trkpt>
      <trkpt lat="42.83446" lon="0.56426">
        <ele>1600.669</ele>
        <time>2021-03-21T12:48:17Z</time>
      </trkpt>
      <trkpt lat="42.83446" lon="0.56424">
        <ele>1600.375</ele>
        <time>2021-03-21T12:48:19Z</time>
      </trkpt>
      <trkpt lat="42.83447" lon="0.56421">
        <ele>1599.933</ele>
        <time>2021-03-21T12:48:21Z</time>
      </trkpt>
      <trkpt lat="42.83448" lon="0.56418">
        <ele>1599.345</ele>
        <time>2021-03-21T12:48:23Z</time>
      </trkpt>
      <trkpt lat="42.83448" lon="0.56416">
        <ele>1599.014</ele>
        <time>2021-03-21T12:48:25Z</time>
      </trkpt>
      <trkpt lat="42.83449" lon="0.56413">
        <ele>1598.311</ele>
        <time>2021-03-21T12:48:27Z</time>
      </trkpt>
      <trkpt lat="42.8345" lon="0.56411">
        <ele>1597.596</ele>
        <time>2021-03-21T12:48:29Z</time>
      </trkpt>
      <trkpt lat="42.8345" lon="0.56408">
        <ele>1597.566</ele>
        <time>2021-03-21T12:48:31Z</time>
      </trkpt>
      <trkpt lat="42.8345" lon="0.56404">
        <ele>1597.153</ele>
        <time>2021-03-21T12:48:33Z</time>
      </trkpt>
      <trkpt lat="42.83451" lon="0.56402">
        <ele>1596.429</ele>
        <time>2021-03-21T12:48:35Z</time>
      </trkpt>
      <trkpt lat="42.83451" lon="0.56399">
        <ele>1595.893</ele>
        <time>2021-03-21T12:48:37Z</time>
      </trkpt>
      <trkpt lat="42.83451" lon="0.56396">
        <ele>1595.744</ele>
        <time>2021-03-21T12:48:39Z</time>
      </trkpt>
      <trkpt lat="42.83452" lon="0.56393">
        <ele>1595.522</ele>
        <time>2021-03-21T12:48:41Z</time>
      </trkpt>
      <trkpt lat="42.83452" lon="0.5639">
        <ele>1595.118</ele>
        <time>2021-03-21T12:48:43Z</time>
      </trkpt>
      <trkpt lat="42.83452" lon="0.56387">
        <ele>1594.868</ele>
        <time>2021-03-21T12:48:45Z</time>
      </trkpt>
      <trkpt lat="42.83452" lon="0.56384">
        <ele>1594.752</ele>
        <time>2021-03-21T12:48:47Z</time>
      </trkpt>
      <trkpt lat="42.83452" lon="0.56381">
        <ele>1594.649</ele>
        <time>2021-03-21T12:48:49Z</time>
      </trkpt>
      <trkpt lat="42.83452" lon="0.56378">
        <ele>1594.333</ele>
        <time>2021-03-21T12:48:51Z</time>
      </trkpt>
      <trkpt lat="42.83453" lon="0.56375">
        <ele>1594.178</ele>
        <time>2021-03-21T12:48:53Z</time>
      </trkpt>
      <trkpt lat="42.83453" lon="0.56371">
        <ele>1594.084</ele>
        <time>2021-03-21T12:48:55Z</time>
      </trkpt>
      <trkpt lat="42.83453" lon="0.56368">
        <ele>1593.582</ele>
        <time>2021-03-21T12:48:57Z</time>
      </trkpt>
      <trkpt lat="42.83453" lon="0.56365">
        <ele>1593.001</ele>
        <time>2021-03-21T12:48:59Z</time>
      </trkpt>
      <trkpt lat="42.83453" lon="0.56362">
        <ele>1592.419</ele>
        <time>2021-03-21T12:49:01Z</time>
      </trkpt>
      <trkpt lat="42.83453" lon="0.56359">
        <ele>1592.368</ele>
        <time>2021-03-21T12:49:03Z</time>
      </trkpt>
      <trkpt lat="42.83453" lon="0.56355">
        <ele>1592.255</ele>
        <time>2021-03-21T12:49:05Z</time>
      </trkpt>
      <trkpt lat="42.83453" lon="0.56352">
        <ele>1592.836</ele>
        <time>2021-03-21T12:49:07Z</time>
      </trkpt>
      <trkpt lat="42.83453" lon="0.56349">
        <ele>1593.042</ele>
        <time>2021-03-21T12:49:09Z</time>
      </trkpt>
      <trkpt lat="42.83454" lon="0.56346">
        <ele>1592.755</ele>
        <time>2021-03-21T12:49:11Z</time>
      </trkpt>
      <trkpt lat="42.83454" lon="0.56343">
        <ele>1592.473</ele>
        <time>2021-03-21T12:49:13Z</time>
      </trkpt>
      <trkpt lat="42.83454" lon="0.5634">
        <ele>1592.138</ele>
        <time>2021-03-21T12:49:15Z</time>
      </trkpt>
      <trkpt lat="42.83454" lon="0.56337">
        <ele>1591.874</ele>
        <time>2021-03-21T12:49:17Z</time>
      </trkpt>
      <trkpt lat="42.83454" lon="0.56334">
        <ele>1591.739</ele>
        <time>2021-03-21T12:49:19Z</time>
      </trkpt>
      <trkpt lat="42.83455" lon="0.56331">
        <ele>1591.695</ele>
        <time>2021-03-21T12:49:21Z</time>
      </trkpt>
      <trkpt lat="42.83455" lon="0.56329">
        <ele>1591.495</ele>
        <time>2021-03-21T12:49:23Z</time>
      </trkpt>
      <trkpt lat="42.83455" lon="0.56326">
        <ele>1590.834</ele>
        <time>2021-03-21T12:49:25Z</time>
      </trkpt>
      <trkpt lat="42.83456" lon="0.56323">
        <ele>1590.722</ele>
        <time>2021-03-21T12:49:27Z</time>
      </trkpt>
      <trkpt lat="42.83456" lon="0.5632">
        <ele>1590.463</ele>
        <time>2021-03-21T12:49:29Z</time>
      </trkpt>
      <trkpt lat="42.83456" lon="0.56318">
        <ele>1590.073</ele>
        <time>2021-03-21T12:49:31Z</time>
      </trkpt>
      <trkpt lat="42.83456" lon="0.56315">
        <ele>1590.048</ele>
        <time>2021-03-21T12:49:33Z</time>
      </trkpt>
      <trkpt lat="42.83456" lon="0.56312">
        <ele>1589.569</ele>
        <time>2021-03-21T12:49:35Z</time>
      </trkpt>
      <trkpt lat="42.83456" lon="0.56309">
        <ele>1589.476</ele>
        <time>2021-03-21T12:49:37Z</time>
      </trkpt>
      <trkpt lat="42.83456" lon="0.56306">
        <ele>1589.027</ele>
        <time>2021-03-21T12:49:39Z</time>
      </trkpt>
      <trkpt lat="42.83456" lon="0.56303">
        <ele>1588.771</ele>
        <time>2021-03-21T12:49:41Z</time>
      </trkpt>
      <trkpt lat="42.83456" lon="0.56299">
        <ele>1588.658</ele>
        <time>2021-03-21T12:49:43Z</time>
      </trkpt>
      <trkpt lat="42.83455" lon="0.56296">
        <ele>1588.257</ele>
        <time>2021-03-21T12:49:45Z</time>
      </trkpt>
      <trkpt lat="42.83455" lon="0.56293">
        <ele>1588.261</ele>
        <time>2021-03-21T12:49:47Z</time>
      </trkpt>
      <trkpt lat="42.83454" lon="0.5629">
        <ele>1587.818</ele>
        <time>2021-03-21T12:49:49Z</time>
      </trkpt>
      <trkpt lat="42.83454" lon="0.56287">
        <ele>1587.835</ele>
        <time>2021-03-21T12:49:51Z</time>
      </trkpt>
      <trkpt lat="42.83454" lon="0.56284">
        <ele>1587.88</ele>
        <time>2021-03-21T12:49:53Z</time>
      </trkpt>
      <trkpt lat="42.83454" lon="0.56281">
        <ele>1587.515</ele>
        <time>2021-03-21T12:49:55Z</time>
      </trkpt>
      <trkpt lat="42.83453" lon="0.56278">
        <ele>1587.458</ele>
        <time>2021-03-21T12:49:57Z</time>
      </trkpt>
      <trkpt lat="42.83452" lon="0.56275">
        <ele>1587.573</ele>
        <time>2021-03-21T12:49:59Z</time>
      </trkpt>
      <trkpt lat="42.83452" lon="0.56272">
        <ele>1587.359</ele>
        <time>2021-03-21T12:50:01Z</time>
      </trkpt>
      <trkpt lat="42.83451" lon="0.56269">
        <ele>1586.511</ele>
        <time>2021-03-21T12:50:03Z</time>
      </trkpt>
      <trkpt lat="42.8345" lon="0.56267">
        <ele>1586.254</ele>
        <time>2021-03-21T12:50:05Z</time>
      </trkpt>
      <trkpt lat="42.8345" lon="0.56263">
        <ele>1586.11</ele>
        <time>2021-03-21T12:50:07Z</time>
      </trkpt>
      <trkpt lat="42.83449" lon="0.5626">
        <ele>1585.719</ele>
        <time>2021-03-21T12:50:09Z</time>
      </trkpt>
      <trkpt lat="42.83448" lon="0.56258">
        <ele>1585.936</ele>
        <time>2021-03-21T12:50:11Z</time>
      </trkpt>
      <trkpt lat="42.83447" lon="0.56255">
        <ele>1585.707</ele>
        <time>2021-03-21T12:50:13Z</time>
      </trkpt>
      <trkpt lat="42.83446" lon="0.56252">
        <ele>1585.099</ele>
        <time>2021-03-21T12:50:15Z</time>
      </trkpt>
      <trkpt lat="42.83445" lon="0.56249">
        <ele>1584.564</ele>
        <time>2021-03-21T12:50:17Z</time>
      </trkpt>
      <trkpt lat="42.83445" lon="0.56246">
        <ele>1584.357</ele>
        <time>2021-03-21T12:50:19Z</time>
      </trkpt>
      <trkpt lat="42.83444" lon="0.56243">
        <ele>1584.372</ele>
        <time>2021-03-21T12:50:21Z</time>
      </trkpt>
      <trkpt lat="42.83444" lon="0.5624">
        <ele>1584.156</ele>
        <time>2021-03-21T12:50:23Z</time>
      </trkpt>
      <trkpt lat="42.83444" lon="0.56237">
        <ele>1583.72</ele>
        <time>2021-03-21T12:50:25Z</time>
      </trkpt>
      <trkpt lat="42.83444" lon="0.56234">
        <ele>1583.534</ele>
        <time>2021-03-21T12:50:27Z</time>
      </trkpt>
      <trkpt lat="42.83444" lon="0.56232">
        <ele>1583.046</ele>
        <time>2021-03-21T12:50:29Z</time>
      </trkpt>
      <trkpt lat="42.83444" lon="0.56229">
        <ele>1582.432</ele>
        <time>2021-03-21T12:50:31Z</time>
      </trkpt>
      <trkpt lat="42.83444" lon="0.56226">
        <ele>1582.337</ele>
        <time>2021-03-21T12:50:33Z</time>
      </trkpt>
      <trkpt lat="42.83444" lon="0.56223">
        <ele>1582.544</ele>
        <time>2021-03-21T12:50:35Z</time>
      </trkpt>
      <trkpt lat="42.83444" lon="0.5622">
        <ele>1582.248</ele>
        <time>2021-03-21T12:50:37Z</time>
      </trkpt>
      <trkpt lat="42.83444" lon="0.56217">
        <ele>1581.59</ele>
        <time>2021-03-21T12:50:39Z</time>
      </trkpt>
      <trkpt lat="42.83444" lon="0.56215">
        <ele>1581.39</ele>
        <time>2021-03-21T12:50:41Z</time>
      </trkpt>
      <trkpt lat="42.83444" lon="0.56212">
        <ele>1580.735</ele>
        <time>2021-03-21T12:50:43Z</time>
      </trkpt>
      <trkpt lat="42.83445" lon="0.56209">
        <ele>1580.544</ele>
        <time>2021-03-21T12:50:45Z</time>
      </trkpt>
      <trkpt lat="42.83445" lon="0.56207">
        <ele>1580.246</ele>
        <time>2021-03-21T12:50:47Z</time>
      </trkpt>
      <trkpt lat="42.83446" lon="0.56204">
        <ele>1579.7</ele>
        <time>2021-03-21T12:50:49Z</time>
      </trkpt>
      <trkpt lat="42.83446" lon="0.56201">
        <ele>1579.472</ele>
        <time>2021-03-21T12:50:51Z</time>
      </trkpt>
      <trkpt lat="42.83446" lon="0.56198">
        <ele>1579.254</ele>
        <time>2021-03-21T12:50:53Z</time>
      </trkpt>
      <trkpt lat="42.83447" lon="0.56196">
        <ele>1578.889</ele>
        <time>2021-03-21T12:50:55Z</time>
      </trkpt>
      <trkpt lat="42.83448" lon="0.56193">
        <ele>1578.238</ele>
        <time>2021-03-21T12:50:57Z</time>
      </trkpt>
      <trkpt lat="42.83448" lon="0.56191">
        <ele>1578.638</ele>
        <time>2021-03-21T12:50:59Z</time>
      </trkpt>
      <trkpt lat="42.83449" lon="0.56189">
        <ele>1579.2</ele>
        <time>2021-03-21T12:51:01Z</time>
      </trkpt>
      <trkpt lat="42.8345" lon="0.56188">
        <ele>1579.756</ele>
        <time>2021-03-21T12:51:03Z</time>
      </trkpt>
      <trkpt lat="42.83451" lon="0.56186">
        <ele>1580.216</ele>
        <time>2021-03-21T12:51:05Z</time>
      </trkpt>
      <trkpt lat="42.83452" lon="0.56185">
        <ele>1580.015</ele>
        <time>2021-03-21T12:51:07Z</time>
      </trkpt>
      <trkpt lat="42.83453" lon="0.56183">
        <ele>1580.059</ele>
        <time>2021-03-21T12:51:09Z</time>
      </trkpt>
      <trkpt lat="42.83455" lon="0.56182">
        <ele>1580.357</ele>
        <time>2021-03-21T12:51:11Z</time>
      </trkpt>
      <trkpt lat="42.83457" lon="0.5618">
        <ele>1580.142</ele>
        <time>2021-03-21T12:51:13Z</time>
      </trkpt>
      <trkpt lat="42.83458" lon="0.56179">
        <ele>1580.186</ele>
        <time>2021-03-21T12:51:15Z</time>
      </trkpt>
      <trkpt lat="42.83461" lon="0.56179">
        <ele>1580.499</ele>
        <time>2021-03-21T12:51:18Z</time>
      </trkpt>
      <trkpt lat="42.83462" lon="0.56178">
        <ele>1580.405</ele>
        <time>2021-03-21T12:51:20Z</time>
      </trkpt>
      <trkpt lat="42.83464" lon="0.56176">
        <ele>1580.471</ele>
        <time>2021-03-21T12:51:22Z</time>
      </trkpt>
      <trkpt lat="42.83465" lon="0.56175">
        <ele>1580.315</ele>
        <time>2021-03-21T12:51:24Z</time>
      </trkpt>
      <trkpt lat="42.83466" lon="0.56173">
        <ele>1580.511</ele>
        <time>2021-03-21T12:51:26Z</time>
      </trkpt>
      <trkpt lat="42.83467" lon="0.56171">
        <ele>1580.909</ele>
        <time>2021-03-21T12:51:28Z</time>
      </trkpt>
      <trkpt lat="42.83469" lon="0.5617">
        <ele>1581.386</ele>
        <time>2021-03-21T12:51:30Z</time>
      </trkpt>
      <trkpt lat="42.8347" lon="0.56168">
        <ele>1581.522</ele>
        <time>2021-03-21T12:51:32Z</time>
      </trkpt>
      <trkpt lat="42.83471" lon="0.56166">
        <ele>1581.997</ele>
        <time>2021-03-21T12:51:34Z</time>
      </trkpt>
      <trkpt lat="42.83472" lon="0.56164">
        <ele>1582.664</ele>
        <time>2021-03-21T12:51:36Z</time>
      </trkpt>
      <trkpt lat="42.83474" lon="0.56163">
        <ele>1582.403</ele>
        <time>2021-03-21T12:51:38Z</time>
      </trkpt>
      <trkpt lat="42.83475" lon="0.56161">
        <ele>1582.523</ele>
        <time>2021-03-21T12:51:40Z</time>
      </trkpt>
      <trkpt lat="42.83476" lon="0.5616">
        <ele>1582.726</ele>
        <time>2021-03-21T12:51:41Z</time>
      </trkpt>
      <trkpt lat="42.83479" lon="0.56158">
        <ele>1582.368</ele>
        <time>2021-03-21T12:51:44Z</time>
      </trkpt>
      <trkpt lat="42.8348" lon="0.56157">
        <ele>1582.463</ele>
        <time>2021-03-21T12:51:46Z</time>
      </trkpt>
      <trkpt lat="42.83482" lon="0.56157">
        <ele>1582.344</ele>
        <time>2021-03-21T12:51:48Z</time>
      </trkpt>
      <trkpt lat="42.83484" lon="0.56156">
        <ele>1582.163</ele>
        <time>2021-03-21T12:51:50Z</time>
      </trkpt>
      <trkpt lat="42.83486" lon="0.56155">
        <ele>1582.17</ele>
        <time>2021-03-21T12:51:52Z</time>
      </trkpt>
      <trkpt lat="42.83488" lon="0.56155">
        <ele>1581.862</ele>
        <time>2021-03-21T12:51:54Z</time>
      </trkpt>
      <trkpt lat="42.8349" lon="0.56155">
        <ele>1582.198</ele>
        <time>2021-03-21T12:51:56Z</time>
      </trkpt>
      <trkpt lat="42.83492" lon="0.56154">
        <ele>1582.105</ele>
        <time>2021-03-21T12:51:58Z</time>
      </trkpt>
      <trkpt lat="42.83494" lon="0.56154">
        <ele>1582.619</ele>
        <time>2021-03-21T12:52:00Z</time>
      </trkpt>
      <trkpt lat="42.83496" lon="0.56153">
        <ele>1582.85</ele>
        <time>2021-03-21T12:52:02Z</time>
      </trkpt>
      <trkpt lat="42.83498" lon="0.56153">
        <ele>1582.499</ele>
        <time>2021-03-21T12:52:04Z</time>
      </trkpt>
      <trkpt lat="42.835" lon="0.56152">
        <ele>1582.766</ele>
        <time>2021-03-21T12:52:06Z</time>
      </trkpt>
      <trkpt lat="42.83502" lon="0.56151">
        <ele>1582.812</ele>
        <time>2021-03-21T12:52:08Z</time>
      </trkpt>
      <trkpt lat="42.83504" lon="0.56151">
        <ele>1582.901</ele>
        <time>2021-03-21T12:52:10Z</time>
      </trkpt>
      <trkpt lat="42.83506" lon="0.5615">
        <ele>1582.338</ele>
        <time>2021-03-21T12:52:12Z</time>
      </trkpt>
      <trkpt lat="42.83509" lon="0.5615">
        <ele>1582.257</ele>
        <time>2021-03-21T12:52:14Z</time>
      </trkpt>
      <trkpt lat="42.83511" lon="0.5615">
        <ele>1582.302</ele>
        <time>2021-03-21T12:52:16Z</time>
      </trkpt>
      <trkpt lat="42.83513" lon="0.5615">
        <ele>1581.907</ele>
        <time>2021-03-21T12:52:18Z</time>
      </trkpt>
      <trkpt lat="42.83515" lon="0.56149">
        <ele>1581.881</ele>
        <time>2021-03-21T12:52:20Z</time>
      </trkpt>
      <trkpt lat="42.83517" lon="0.56149">
        <ele>1581.974</ele>
        <time>2021-03-21T12:52:22Z</time>
      </trkpt>
      <trkpt lat="42.83519" lon="0.56149">
        <ele>1581.987</ele>
        <time>2021-03-21T12:52:24Z</time>
      </trkpt>
      <trkpt lat="42.8352" lon="0.56149">
        <ele>1582.15</ele>
        <time>2021-03-21T12:52:26Z</time>
      </trkpt>
      <trkpt lat="42.83523" lon="0.5615">
        <ele>1581.949</ele>
        <time>2021-03-21T12:52:28Z</time>
      </trkpt>
      <trkpt lat="42.83525" lon="0.5615">
        <ele>1582.41</ele>
        <time>2021-03-21T12:52:30Z</time>
      </trkpt>
      <trkpt lat="42.83527" lon="0.5615">
        <ele>1582.505</ele>
        <time>2021-03-21T12:52:32Z</time>
      </trkpt>
      <trkpt lat="42.83529" lon="0.5615">
        <ele>1582.501</ele>
        <time>2021-03-21T12:52:34Z</time>
      </trkpt>
      <trkpt lat="42.83532" lon="0.5615">
        <ele>1582.76</ele>
        <time>2021-03-21T12:52:36Z</time>
      </trkpt>
      <trkpt lat="42.83534" lon="0.5615">
        <ele>1582.603</ele>
        <time>2021-03-21T12:52:38Z</time>
      </trkpt>
      <trkpt lat="42.83536" lon="0.56151">
        <ele>1582.468</ele>
        <time>2021-03-21T12:52:40Z</time>
      </trkpt>
      <trkpt lat="42.83538" lon="0.56151">
        <ele>1582.507</ele>
        <time>2021-03-21T12:52:42Z</time>
      </trkpt>
      <trkpt lat="42.8354" lon="0.56151">
        <ele>1582.404</ele>
        <time>2021-03-21T12:52:44Z</time>
      </trkpt>
      <trkpt lat="42.83542" lon="0.56151">
        <ele>1582.564</ele>
        <time>2021-03-21T12:52:46Z</time>
      </trkpt>
      <trkpt lat="42.83544" lon="0.56151">
        <ele>1582.768</ele>
        <time>2021-03-21T12:52:48Z</time>
      </trkpt>
      <trkpt lat="42.83546" lon="0.56152">
        <ele>1583.248</ele>
        <time>2021-03-21T12:52:50Z</time>
      </trkpt>
      <trkpt lat="42.83548" lon="0.56152">
        <ele>1583.249</ele>
        <time>2021-03-21T12:52:52Z</time>
      </trkpt>
      <trkpt lat="42.8355" lon="0.56152">
        <ele>1582.589</ele>
        <time>2021-03-21T12:52:54Z</time>
      </trkpt>
      <trkpt lat="42.83553" lon="0.56152">
        <ele>1582.846</ele>
        <time>2021-03-21T12:52:56Z</time>
      </trkpt>
      <trkpt lat="42.83555" lon="0.56152">
        <ele>1582.444</ele>
        <time>2021-03-21T12:52:58Z</time>
      </trkpt>
      <trkpt lat="42.83557" lon="0.56153">
        <ele>1582.696</ele>
        <time>2021-03-21T12:53:00Z</time>
      </trkpt>
      <trkpt lat="42.83559" lon="0.56153">
        <ele>1582.626</ele>
        <time>2021-03-21T12:53:02Z</time>
      </trkpt>
      <trkpt lat="42.83561" lon="0.56154">
        <ele>1582.383</ele>
        <time>2021-03-21T12:53:04Z</time>
      </trkpt>
      <trkpt lat="42.83563" lon="0.56154">
        <ele>1582.144</ele>
        <time>2021-03-21T12:53:06Z</time>
      </trkpt>
      <trkpt lat="42.83565" lon="0.56155">
        <ele>1582.206</ele>
        <time>2021-03-21T12:53:08Z</time>
      </trkpt>
      <trkpt lat="42.83567" lon="0.56156">
        <ele>1581.798</ele>
        <time>2021-03-21T12:53:10Z</time>
      </trkpt>
      <trkpt lat="42.83569" lon="0.56157">
        <ele>1582.144</ele>
        <time>2021-03-21T12:53:12Z</time>
      </trkpt>
      <trkpt lat="42.83571" lon="0.56158">
        <ele>1582.284</ele>
        <time>2021-03-21T12:53:14Z</time>
      </trkpt>
      <trkpt lat="42.83574" lon="0.56158">
        <ele>1581.725</ele>
        <time>2021-03-21T12:53:16Z</time>
      </trkpt>
      <trkpt lat="42.83576" lon="0.5616">
        <ele>1582.241</ele>
        <time>2021-03-21T12:53:18Z</time>
      </trkpt>
      <trkpt lat="42.83578" lon="0.56161">
        <ele>1582.441</ele>
        <time>2021-03-21T12:53:20Z</time>
      </trkpt>
      <trkpt lat="42.8358" lon="0.56162">
        <ele>1582.732</ele>
        <time>2021-03-21T12:53:22Z</time>
      </trkpt>
      <trkpt lat="42.83581" lon="0.56163">
        <ele>1582.345</ele>
        <time>2021-03-21T12:53:24Z</time>
      </trkpt>
      <trkpt lat="42.83583" lon="0.56164">
        <ele>1582.246</ele>
        <time>2021-03-21T12:53:26Z</time>
      </trkpt>
      <trkpt lat="42.83585" lon="0.56165">
        <ele>1582.124</ele>
        <time>2021-03-21T12:53:28Z</time>
      </trkpt>
      <trkpt lat="42.83587" lon="0.56166">
        <ele>1582.243</ele>
        <time>2021-03-21T12:53:30Z</time>
      </trkpt>
      <trkpt lat="42.83589" lon="0.56167">
        <ele>1582.156</ele>
        <time>2021-03-21T12:53:32Z</time>
      </trkpt>
      <trkpt lat="42.83591" lon="0.56167">
        <ele>1581.891</ele>
        <time>2021-03-21T12:53:34Z</time>
      </trkpt>
      <trkpt lat="42.83593" lon="0.56169">
        <ele>1581.833</ele>
        <time>2021-03-21T12:53:36Z</time>
      </trkpt>
      <trkpt lat="42.83595" lon="0.56169">
        <ele>1581.989</ele>
        <time>2021-03-21T12:53:38Z</time>
      </trkpt>
      <trkpt lat="42.83596" lon="0.56171">
        <ele>1581.895</ele>
        <time>2021-03-21T12:53:40Z</time>
      </trkpt>
      <trkpt lat="42.83598" lon="0.56172">
        <ele>1581.835</ele>
        <time>2021-03-21T12:53:42Z</time>
      </trkpt>
      <trkpt lat="42.836" lon="0.56175">
        <ele>1582.449</ele>
        <time>2021-03-21T12:53:44Z</time>
      </trkpt>
      <trkpt lat="42.83602" lon="0.56176">
        <ele>1582.232</ele>
        <time>2021-03-21T12:53:46Z</time>
      </trkpt>
      <trkpt lat="42.83603" lon="0.56178">
        <ele>1582.943</ele>
        <time>2021-03-21T12:53:48Z</time>
      </trkpt>
      <trkpt lat="42.83605" lon="0.5618">
        <ele>1583.069</ele>
        <time>2021-03-21T12:53:50Z</time>
      </trkpt>
      <trkpt lat="42.83607" lon="0.56182">
        <ele>1582.54</ele>
        <time>2021-03-21T12:53:52Z</time>
      </trkpt>
      <trkpt lat="42.83609" lon="0.56184">
        <ele>1582.154</ele>
        <time>2021-03-21T12:53:54Z</time>
      </trkpt>
      <trkpt lat="42.8361" lon="0.56186">
        <ele>1582.25</ele>
        <time>2021-03-21T12:53:56Z</time>
      </trkpt>
      <trkpt lat="42.83612" lon="0.56189">
        <ele>1582.35</ele>
        <time>2021-03-21T12:53:58Z</time>
      </trkpt>
      <trkpt lat="42.83613" lon="0.56192">
        <ele>1582.234</ele>
        <time>2021-03-21T12:54:00Z</time>
      </trkpt>
      <trkpt lat="42.83615" lon="0.56194">
        <ele>1582.581</ele>
        <time>2021-03-21T12:54:02Z</time>
      </trkpt>
      <trkpt lat="42.83617" lon="0.56196">
        <ele>1582.761</ele>
        <time>2021-03-21T12:54:04Z</time>
      </trkpt>
      <trkpt lat="42.83618" lon="0.56199">
        <ele>1582.675</ele>
        <time>2021-03-21T12:54:06Z</time>
      </trkpt>
      <trkpt lat="42.8362" lon="0.562">
        <ele>1582.923</ele>
        <time>2021-03-21T12:54:08Z</time>
      </trkpt>
      <trkpt lat="42.83622" lon="0.56202">
        <ele>1583.482</ele>
        <time>2021-03-21T12:54:10Z</time>
      </trkpt>
      <trkpt lat="42.83624" lon="0.56203">
        <ele>1583.882</ele>
        <time>2021-03-21T12:54:12Z</time>
      </trkpt>
      <trkpt lat="42.83626" lon="0.56203">
        <ele>1584.355</ele>
        <time>2021-03-21T12:54:14Z</time>
      </trkpt>
      <trkpt lat="42.83628" lon="0.56203">
        <ele>1584.612</ele>
        <time>2021-03-21T12:54:16Z</time>
      </trkpt>
      <trkpt lat="42.83631" lon="0.56204">
        <ele>1584.683</ele>
        <time>2021-03-21T12:54:18Z</time>
      </trkpt>
      <trkpt lat="42.83633" lon="0.56203">
        <ele>1585.738</ele>
        <time>2021-03-21T12:54:20Z</time>
      </trkpt>
      <trkpt lat="42.83636" lon="0.56202">
        <ele>1586.342</ele>
        <time>2021-03-21T12:54:22Z</time>
      </trkpt>
      <trkpt lat="42.83638" lon="0.56202">
        <ele>1586.809</ele>
        <time>2021-03-21T12:54:24Z</time>
      </trkpt>
      <trkpt lat="42.8364" lon="0.56201">
        <ele>1587.082</ele>
        <time>2021-03-21T12:54:26Z</time>
      </trkpt>
      <trkpt lat="42.83642" lon="0.56201">
        <ele>1587.549</ele>
        <time>2021-03-21T12:54:28Z</time>
      </trkpt>
      <trkpt lat="42.83645" lon="0.562">
        <ele>1587.63</ele>
        <time>2021-03-21T12:54:30Z</time>
      </trkpt>
      <trkpt lat="42.83647" lon="0.562">
        <ele>1588.324</ele>
        <time>2021-03-21T12:54:32Z</time>
      </trkpt>
      <trkpt lat="42.83649" lon="0.56199">
        <ele>1588.772</ele>
        <time>2021-03-21T12:54:34Z</time>
      </trkpt>
      <trkpt lat="42.83651" lon="0.56198">
        <ele>1588.428</ele>
        <time>2021-03-21T12:54:36Z</time>
      </trkpt>
      <trkpt lat="42.83653" lon="0.56198">
        <ele>1589.038</ele>
        <time>2021-03-21T12:54:38Z</time>
      </trkpt>
      <trkpt lat="42.83655" lon="0.56198">
        <ele>1589.472</ele>
        <time>2021-03-21T12:54:40Z</time>
      </trkpt>
      <trkpt lat="42.83657" lon="0.56199">
        <ele>1589.035</ele>
        <time>2021-03-21T12:54:42Z</time>
      </trkpt>
      <trkpt lat="42.83659" lon="0.562">
        <ele>1589.02</ele>
        <time>2021-03-21T12:54:44Z</time>
      </trkpt>
      <trkpt lat="42.83661" lon="0.562">
        <ele>1588.799</ele>
        <time>2021-03-21T12:54:46Z</time>
      </trkpt>
      <trkpt lat="42.83663" lon="0.56201">
        <ele>1589.139</ele>
        <time>2021-03-21T12:54:48Z</time>
      </trkpt>
      <trkpt lat="42.83665" lon="0.56203">
        <ele>1589.448</ele>
        <time>2021-03-21T12:54:50Z</time>
      </trkpt>
      <trkpt lat="42.83667" lon="0.56204">
        <ele>1589.868</ele>
        <time>2021-03-21T12:54:52Z</time>
      </trkpt>
      <trkpt lat="42.83669" lon="0.56204">
        <ele>1589.745</ele>
        <time>2021-03-21T12:54:54Z</time>
      </trkpt>
      <trkpt lat="42.83671" lon="0.56205">
        <ele>1590.082</ele>
        <time>2021-03-21T12:54:56Z</time>
      </trkpt>
      <trkpt lat="42.83673" lon="0.56206">
        <ele>1589.737</ele>
        <time>2021-03-21T12:54:58Z</time>
      </trkpt>
      <trkpt lat="42.83675" lon="0.56207">
        <ele>1590.071</ele>
        <time>2021-03-21T12:55:00Z</time>
      </trkpt>
      <trkpt lat="42.83677" lon="0.56209">
        <ele>1590.853</ele>
        <time>2021-03-21T12:55:02Z</time>
      </trkpt>
      <trkpt lat="42.83679" lon="0.5621">
        <ele>1591.128</ele>
        <time>2021-03-21T12:55:04Z</time>
      </trkpt>
      <trkpt lat="42.8368" lon="0.56211">
        <ele>1591.082</ele>
        <time>2021-03-21T12:55:06Z</time>
      </trkpt>
      <trkpt lat="42.83682" lon="0.56213">
        <ele>1591.012</ele>
        <time>2021-03-21T12:55:08Z</time>
      </trkpt>
      <trkpt lat="42.83684" lon="0.56214">
        <ele>1590.957</ele>
        <time>2021-03-21T12:55:10Z</time>
      </trkpt>
      <trkpt lat="42.83686" lon="0.56214">
        <ele>1590.055</ele>
        <time>2021-03-21T12:55:12Z</time>
      </trkpt>
      <trkpt lat="42.83688" lon="0.56215">
        <ele>1589.946</ele>
        <time>2021-03-21T12:55:14Z</time>
      </trkpt>
      <trkpt lat="42.8369" lon="0.56217">
        <ele>1589.656</ele>
        <time>2021-03-21T12:55:16Z</time>
      </trkpt>
      <trkpt lat="42.83692" lon="0.56218">
        <ele>1590.201</ele>
        <time>2021-03-21T12:55:18Z</time>
      </trkpt>
      <trkpt lat="42.83693" lon="0.56219">
        <ele>1590.353</ele>
        <time>2021-03-21T12:55:20Z</time>
      </trkpt>
      <trkpt lat="42.83695" lon="0.5622">
        <ele>1591.154</ele>
        <time>2021-03-21T12:55:22Z</time>
      </trkpt>
      <trkpt lat="42.83697" lon="0.56221">
        <ele>1591.07</ele>
        <time>2021-03-21T12:55:24Z</time>
      </trkpt>
      <trkpt lat="42.83699" lon="0.56222">
        <ele>1591.404</ele>
        <time>2021-03-21T12:55:26Z</time>
      </trkpt>
      <trkpt lat="42.83701" lon="0.56223">
        <ele>1591.067</ele>
        <time>2021-03-21T12:55:28Z</time>
      </trkpt>
      <trkpt lat="42.83703" lon="0.56224">
        <ele>1591.269</ele>
        <time>2021-03-21T12:55:30Z</time>
      </trkpt>
      <trkpt lat="42.83705" lon="0.56225">
        <ele>1591.368</ele>
        <time>2021-03-21T12:55:32Z</time>
      </trkpt>
      <trkpt lat="42.83707" lon="0.56226">
        <ele>1591.419</ele>
        <time>2021-03-21T12:55:34Z</time>
      </trkpt>
      <trkpt lat="42.83709" lon="0.56226">
        <ele>1591.809</ele>
        <time>2021-03-21T12:55:36Z</time>
      </trkpt>
      <trkpt lat="42.83711" lon="0.56226">
        <ele>1591.953</ele>
        <time>2021-03-21T12:55:38Z</time>
      </trkpt>
      <trkpt lat="42.83713" lon="0.56227">
        <ele>1592.486</ele>
        <time>2021-03-21T12:55:40Z</time>
      </trkpt>
      <trkpt lat="42.83715" lon="0.56227">
        <ele>1592.55</ele>
        <time>2021-03-21T12:55:42Z</time>
      </trkpt>
      <trkpt lat="42.83717" lon="0.56227">
        <ele>1591.969</ele>
        <time>2021-03-21T12:55:44Z</time>
      </trkpt>
      <trkpt lat="42.83719" lon="0.56227">
        <ele>1592.155</ele>
        <time>2021-03-21T12:55:46Z</time>
      </trkpt>
      <trkpt lat="42.83721" lon="0.56227">
        <ele>1593.072</ele>
        <time>2021-03-21T12:55:48Z</time>
      </trkpt>
      <trkpt lat="42.83723" lon="0.56227">
        <ele>1594.007</ele>
        <time>2021-03-21T12:55:50Z</time>
      </trkpt>
      <trkpt lat="42.83725" lon="0.56227">
        <ele>1594.997</ele>
        <time>2021-03-21T12:55:52Z</time>
      </trkpt>
      <trkpt lat="42.83728" lon="0.56227">
        <ele>1596.003</ele>
        <time>2021-03-21T12:55:54Z</time>
      </trkpt>
      <trkpt lat="42.8373" lon="0.56226">
        <ele>1596.619</ele>
        <time>2021-03-21T12:55:56Z</time>
      </trkpt>
      <trkpt lat="42.83732" lon="0.56225">
        <ele>1597.189</ele>
        <time>2021-03-21T12:55:58Z</time>
      </trkpt>
      <trkpt lat="42.83734" lon="0.56225">
        <ele>1597.808</ele>
        <time>2021-03-21T12:56:00Z</time>
      </trkpt>
      <trkpt lat="42.83736" lon="0.56225">
        <ele>1598.153</ele>
        <time>2021-03-21T12:56:02Z</time>
      </trkpt>
      <trkpt lat="42.83738" lon="0.56224">
        <ele>1598.749</ele>
        <time>2021-03-21T12:56:04Z</time>
      </trkpt>
      <trkpt lat="42.8374" lon="0.56223">
        <ele>1598.786</ele>
        <time>2021-03-21T12:56:06Z</time>
      </trkpt>
      <trkpt lat="42.83741" lon="0.56222">
        <ele>1599.276</ele>
        <time>2021-03-21T12:56:08Z</time>
      </trkpt>
      <trkpt lat="42.83743" lon="0.56221">
        <ele>1598.503</ele>
        <time>2021-03-21T12:56:10Z</time>
      </trkpt>
      <trkpt lat="42.83745" lon="0.56221">
        <ele>1599.075</ele>
        <time>2021-03-21T12:56:12Z</time>
      </trkpt>
      <trkpt lat="42.83747" lon="0.5622">
        <ele>1600.114</ele>
        <time>2021-03-21T12:56:14Z</time>
      </trkpt>
      <trkpt lat="42.83749" lon="0.56219">
        <ele>1600.474</ele>
        <time>2021-03-21T12:56:16Z</time>
      </trkpt>
      <trkpt lat="42.83751" lon="0.56219">
        <ele>1601.23</ele>
        <time>2021-03-21T12:56:18Z</time>
      </trkpt>
      <trkpt lat="42.83752" lon="0.56218">
        <ele>1601.878</ele>
        <time>2021-03-21T12:56:20Z</time>
      </trkpt>
      <trkpt lat="42.83754" lon="0.56217">
        <ele>1602.408</ele>
        <time>2021-03-21T12:56:22Z</time>
      </trkpt>
      <trkpt lat="42.83756" lon="0.56216">
        <ele>1602.913</ele>
        <time>2021-03-21T12:56:24Z</time>
      </trkpt>
      <trkpt lat="42.83757" lon="0.56214">
        <ele>1603.418</ele>
        <time>2021-03-21T12:56:26Z</time>
      </trkpt>
      <trkpt lat="42.83758" lon="0.56213">
        <ele>1603.894</ele>
        <time>2021-03-21T12:56:28Z</time>
      </trkpt>
      <trkpt lat="42.8376" lon="0.56211">
        <ele>1603.921</ele>
        <time>2021-03-21T12:56:30Z</time>
      </trkpt>
      <trkpt lat="42.83762" lon="0.5621">
        <ele>1603.881</ele>
        <time>2021-03-21T12:56:32Z</time>
      </trkpt>
      <trkpt lat="42.83763" lon="0.56208">
        <ele>1604.02</ele>
        <time>2021-03-21T12:56:34Z</time>
      </trkpt>
      <trkpt lat="42.83765" lon="0.56207">
        <ele>1604.237</ele>
        <time>2021-03-21T12:56:36Z</time>
      </trkpt>
      <trkpt lat="42.83767" lon="0.56206">
        <ele>1604.61</ele>
        <time>2021-03-21T12:56:38Z</time>
      </trkpt>
      <trkpt lat="42.83768" lon="0.56205">
        <ele>1604.939</ele>
        <time>2021-03-21T12:56:40Z</time>
      </trkpt>
      <trkpt lat="42.83769" lon="0.56203">
        <ele>1604.955</ele>
        <time>2021-03-21T12:56:42Z</time>
      </trkpt>
      <trkpt lat="42.83771" lon="0.56202">
        <ele>1605.57</ele>
        <time>2021-03-21T12:56:44Z</time>
      </trkpt>
      <trkpt lat="42.83773" lon="0.562">
        <ele>1605.593</ele>
        <time>2021-03-21T12:56:46Z</time>
      </trkpt>
      <trkpt lat="42.83775" lon="0.56198">
        <ele>1605.463</ele>
        <time>2021-03-21T12:56:48Z</time>
      </trkpt>
      <trkpt lat="42.83776" lon="0.56196">
        <ele>1605.879</ele>
        <time>2021-03-21T12:56:50Z</time>
      </trkpt>
      <trkpt lat="42.83778" lon="0.56194">
        <ele>1606.047</ele>
        <time>2021-03-21T12:56:52Z</time>
      </trkpt>
      <trkpt lat="42.83779" lon="0.56192">
        <ele>1607.084</ele>
        <time>2021-03-21T12:56:54Z</time>
      </trkpt>
      <trkpt lat="42.8378" lon="0.56191">
        <ele>1607.153</ele>
        <time>2021-03-21T12:56:56Z</time>
      </trkpt>
      <trkpt lat="42.83782" lon="0.56189">
        <ele>1607.514</ele>
        <time>2021-03-21T12:56:58Z</time>
      </trkpt>
      <trkpt lat="42.83784" lon="0.56186">
        <ele>1606.9</ele>
        <time>2021-03-21T12:57:01Z</time>
      </trkpt>
      <trkpt lat="42.83786" lon="0.56185">
        <ele>1606.605</ele>
        <time>2021-03-21T12:57:03Z</time>
      </trkpt>
      <trkpt lat="42.83788" lon="0.56183">
        <ele>1606.33</ele>
        <time>2021-03-21T12:57:05Z</time>
      </trkpt>
      <trkpt lat="42.83789" lon="0.56182">
        <ele>1606.725</ele>
        <time>2021-03-21T12:57:07Z</time>
      </trkpt>
      <trkpt lat="42.83791" lon="0.56181">
        <ele>1606.944</ele>
        <time>2021-03-21T12:57:09Z</time>
      </trkpt>
      <trkpt lat="42.83792" lon="0.5618">
        <ele>1607.413</ele>
        <time>2021-03-21T12:57:11Z</time>
      </trkpt>
      <trkpt lat="42.83794" lon="0.56178">
        <ele>1607.042</ele>
        <time>2021-03-21T12:57:13Z</time>
      </trkpt>
      <trkpt lat="42.83796" lon="0.56176">
        <ele>1606.669</ele>
        <time>2021-03-21T12:57:15Z</time>
      </trkpt>
      <trkpt lat="42.83798" lon="0.56175">
        <ele>1607.113</ele>
        <time>2021-03-21T12:57:17Z</time>
      </trkpt>
      <trkpt lat="42.83799" lon="0.56174">
        <ele>1606.672</ele>
        <time>2021-03-21T12:57:19Z</time>
      </trkpt>
      <trkpt lat="42.83801" lon="0.56173">
        <ele>1606.562</ele>
        <time>2021-03-21T12:57:21Z</time>
      </trkpt>
      <trkpt lat="42.83803" lon="0.56171">
        <ele>1606.089</ele>
        <time>2021-03-21T12:57:23Z</time>
      </trkpt>
      <trkpt lat="42.83804" lon="0.5617">
        <ele>1607.567</ele>
        <time>2021-03-21T12:57:25Z</time>
      </trkpt>
      <trkpt lat="42.83806" lon="0.56169">
        <ele>1608.254</ele>
        <time>2021-03-21T12:57:27Z</time>
      </trkpt>
      <trkpt lat="42.83808" lon="0.56168">
        <ele>1608.973</ele>
        <time>2021-03-21T12:57:29Z</time>
      </trkpt>
      <trkpt lat="42.83809" lon="0.56168">
        <ele>1609.309</ele>
        <time>2021-03-21T12:57:31Z</time>
      </trkpt>
      <trkpt lat="42.83811" lon="0.56167">
        <ele>1609.015</ele>
        <time>2021-03-21T12:57:33Z</time>
      </trkpt>
      <trkpt lat="42.83813" lon="0.56167">
        <ele>1609.638</ele>
        <time>2021-03-21T12:57:35Z</time>
      </trkpt>
      <trkpt lat="42.83815" lon="0.56166">
        <ele>1609.909</ele>
        <time>2021-03-21T12:57:37Z</time>
      </trkpt>
      <trkpt lat="42.83817" lon="0.56165">
        <ele>1610.229</ele>
        <time>2021-03-21T12:57:39Z</time>
      </trkpt>
      <trkpt lat="42.83819" lon="0.56164">
        <ele>1610.177</ele>
        <time>2021-03-21T12:57:41Z</time>
      </trkpt>
      <trkpt lat="42.83821" lon="0.56163">
        <ele>1610.758</ele>
        <time>2021-03-21T12:57:43Z</time>
      </trkpt>
      <trkpt lat="42.83823" lon="0.56163">
        <ele>1610.754</ele>
        <time>2021-03-21T12:57:45Z</time>
      </trkpt>
      <trkpt lat="42.83825" lon="0.56162">
        <ele>1611.271</ele>
        <time>2021-03-21T12:57:47Z</time>
      </trkpt>
      <trkpt lat="42.83827" lon="0.56161">
        <ele>1611.69</ele>
        <time>2021-03-21T12:57:49Z</time>
      </trkpt>
      <trkpt lat="42.83829" lon="0.56161">
        <ele>1612.176</ele>
        <time>2021-03-21T12:57:51Z</time>
      </trkpt>
      <trkpt lat="42.83831" lon="0.5616">
        <ele>1612.304</ele>
        <time>2021-03-21T12:57:53Z</time>
      </trkpt>
      <trkpt lat="42.83833" lon="0.5616">
        <ele>1612.486</ele>
        <time>2021-03-21T12:57:55Z</time>
      </trkpt>
      <trkpt lat="42.83835" lon="0.56159">
        <ele>1612.655</ele>
        <time>2021-03-21T12:57:57Z</time>
      </trkpt>
      <trkpt lat="42.83836" lon="0.56159">
        <ele>1612.332</ele>
        <time>2021-03-21T12:57:59Z</time>
      </trkpt>
      <trkpt lat="42.83838" lon="0.56159">
        <ele>1612.597</ele>
        <time>2021-03-21T12:58:01Z</time>
      </trkpt>
      <trkpt lat="42.8384" lon="0.56159">
        <ele>1612.771</ele>
        <time>2021-03-21T12:58:03Z</time>
      </trkpt>
      <trkpt lat="42.83842" lon="0.56159">
        <ele>1613.102</ele>
        <time>2021-03-21T12:58:05Z</time>
      </trkpt>
      <trkpt lat="42.83843" lon="0.56159">
        <ele>1613.096</ele>
        <time>2021-03-21T12:58:07Z</time>
      </trkpt>
      <trkpt lat="42.83845" lon="0.56159">
        <ele>1613.881</ele>
        <time>2021-03-21T12:58:09Z</time>
      </trkpt>
      <trkpt lat="42.83847" lon="0.56158">
        <ele>1613.8</ele>
        <time>2021-03-21T12:58:11Z</time>
      </trkpt>
      <trkpt lat="42.83849" lon="0.56158">
        <ele>1613.974</ele>
        <time>2021-03-21T12:58:13Z</time>
      </trkpt>
      <trkpt lat="42.83851" lon="0.56158">
        <ele>1614.087</ele>
        <time>2021-03-21T12:58:15Z</time>
      </trkpt>
      <trkpt lat="42.83853" lon="0.56158">
        <ele>1613.891</ele>
        <time>2021-03-21T12:58:17Z</time>
      </trkpt>
      <trkpt lat="42.83855" lon="0.56158">
        <ele>1614.031</ele>
        <time>2021-03-21T12:58:19Z</time>
      </trkpt>
      <trkpt lat="42.83857" lon="0.56158">
        <ele>1614.521</ele>
        <time>2021-03-21T12:58:21Z</time>
      </trkpt>
      <trkpt lat="42.83859" lon="0.56158">
        <ele>1615.049</ele>
        <time>2021-03-21T12:58:23Z</time>
      </trkpt>
      <trkpt lat="42.83861" lon="0.56158">
        <ele>1615.394</ele>
        <time>2021-03-21T12:58:25Z</time>
      </trkpt>
      <trkpt lat="42.83863" lon="0.56158">
        <ele>1615.932</ele>
        <time>2021-03-21T12:58:27Z</time>
      </trkpt>
      <trkpt lat="42.83864" lon="0.56158">
        <ele>1616.36</ele>
        <time>2021-03-21T12:58:29Z</time>
      </trkpt>
      <trkpt lat="42.83866" lon="0.56158">
        <ele>1616.479</ele>
        <time>2021-03-21T12:58:31Z</time>
      </trkpt>
      <trkpt lat="42.83868" lon="0.56158">
        <ele>1617.354</ele>
        <time>2021-03-21T12:58:33Z</time>
      </trkpt>
      <trkpt lat="42.8387" lon="0.56157">
        <ele>1616.782</ele>
        <time>2021-03-21T12:58:35Z</time>
      </trkpt>
      <trkpt lat="42.83872" lon="0.56157">
        <ele>1616.85</ele>
        <time>2021-03-21T12:58:37Z</time>
      </trkpt>
      <trkpt lat="42.83874" lon="0.56157">
        <ele>1616.749</ele>
        <time>2021-03-21T12:58:39Z</time>
      </trkpt>
      <trkpt lat="42.83876" lon="0.56157">
        <ele>1616.01</ele>
        <time>2021-03-21T12:58:41Z</time>
      </trkpt>
      <trkpt lat="42.83878" lon="0.56156">
        <ele>1616.883</ele>
        <time>2021-03-21T12:58:43Z</time>
      </trkpt>
      <trkpt lat="42.8388" lon="0.56156">
        <ele>1616.807</ele>
        <time>2021-03-21T12:58:45Z</time>
      </trkpt>
      <trkpt lat="42.83882" lon="0.56156">
        <ele>1616.574</ele>
        <time>2021-03-21T12:58:47Z</time>
      </trkpt>
      <trkpt lat="42.83883" lon="0.56156">
        <ele>1616.854</ele>
        <time>2021-03-21T12:58:49Z</time>
      </trkpt>
      <trkpt lat="42.83885" lon="0.56156">
        <ele>1617.054</ele>
        <time>2021-03-21T12:58:51Z</time>
      </trkpt>
      <trkpt lat="42.83887" lon="0.56156">
        <ele>1618.08</ele>
        <time>2021-03-21T12:58:53Z</time>
      </trkpt>
      <trkpt lat="42.83888" lon="0.56155">
        <ele>1618.322</ele>
        <time>2021-03-21T12:58:55Z</time>
      </trkpt>
      <trkpt lat="42.83888" lon="0.56156">
        <ele>1618.326</ele>
        <time>2021-03-21T12:58:57Z</time>
      </trkpt>
      <trkpt lat="42.83889" lon="0.56156">
        <ele>1618.333</ele>
        <time>2021-03-21T12:58:59Z</time>
      </trkpt>
      <trkpt lat="42.83889" lon="0.56156">
        <ele>1618.335</ele>
        <time>2021-03-21T12:59:01Z</time>
      </trkpt>
      <trkpt lat="42.83889" lon="0.56156">
        <ele>1618.34</ele>
        <time>2021-03-21T12:59:03Z</time>
      </trkpt>
      <trkpt lat="42.83889" lon="0.56156">
        <ele>1618.356</ele>
        <time>2021-03-21T12:59:05Z</time>
      </trkpt>
      <trkpt lat="42.83889" lon="0.56156">
        <ele>1618.366</ele>
        <time>2021-03-21T12:59:07Z</time>
      </trkpt>
      <trkpt lat="42.83889" lon="0.56156">
        <ele>1618.36</ele>
        <time>2021-03-21T12:59:09Z</time>
      </trkpt>
      <trkpt lat="42.83889" lon="0.56156">
        <ele>1618.356</ele>
        <time>2021-03-21T12:59:11Z</time>
      </trkpt>
      <trkpt lat="42.83889" lon="0.56156">
        <ele>1618.357</ele>
        <time>2021-03-21T12:59:13Z</time>
      </trkpt>
      <trkpt lat="42.83889" lon="0.56156">
        <ele>1618.364</ele>
        <time>2021-03-21T12:59:15Z</time>
      </trkpt>
      <trkpt lat="42.83889" lon="0.56156">
        <ele>1618.369</ele>
        <time>2021-03-21T12:59:17Z</time>
      </trkpt>
      <trkpt lat="42.83889" lon="0.56156">
        <ele>1618.362</ele>
        <time>2021-03-21T12:59:19Z</time>
      </trkpt>
      <trkpt lat="42.83889" lon="0.56156">
        <ele>1618.355</ele>
        <time>2021-03-21T12:59:21Z</time>
      </trkpt>
      <trkpt lat="42.83888" lon="0.56156">
        <ele>1618.16</ele>
        <time>2021-03-21T12:59:23Z</time>
      </trkpt>
      <trkpt lat="42.83888" lon="0.56156">
        <ele>1618.137</ele>
        <time>2021-03-21T12:59:25Z</time>
      </trkpt>
      <trkpt lat="42.83889" lon="0.56156">
        <ele>1618.435</ele>
        <time>2021-03-21T12:59:27Z</time>
      </trkpt>
      <trkpt lat="42.83891" lon="0.56156">
        <ele>1618.846</ele>
        <time>2021-03-21T12:59:29Z</time>
      </trkpt>
      <trkpt lat="42.83893" lon="0.56156">
        <ele>1619.037</ele>
        <time>2021-03-21T12:59:31Z</time>
      </trkpt>
      <trkpt lat="42.83895" lon="0.56157">
        <ele>1619.218</ele>
        <time>2021-03-21T12:59:33Z</time>
      </trkpt>
      <trkpt lat="42.83897" lon="0.56157">
        <ele>1618.907</ele>
        <time>2021-03-21T12:59:35Z</time>
      </trkpt>
      <trkpt lat="42.83899" lon="0.56156">
        <ele>1619.223</ele>
        <time>2021-03-21T12:59:37Z</time>
      </trkpt>
      <trkpt lat="42.83902" lon="0.56156">
        <ele>1620.041</ele>
        <time>2021-03-21T12:59:39Z</time>
      </trkpt>
      <trkpt lat="42.83904" lon="0.56156">
        <ele>1619.916</ele>
        <time>2021-03-21T12:59:41Z</time>
      </trkpt>
      <trkpt lat="42.83906" lon="0.56156">
        <ele>1619.328</ele>
        <time>2021-03-21T12:59:43Z</time>
      </trkpt>
      <trkpt lat="42.83908" lon="0.56156">
        <ele>1618.609</ele>
        <time>2021-03-21T12:59:45Z</time>
      </trkpt>
      <trkpt lat="42.8391" lon="0.56156">
        <ele>1618.35</ele>
        <time>2021-03-21T12:59:47Z</time>
      </trkpt>
      <trkpt lat="42.83912" lon="0.56157">
        <ele>1618.355</ele>
        <time>2021-03-21T12:59:49Z</time>
      </trkpt>
      <trkpt lat="42.83914" lon="0.56157">
        <ele>1618.337</ele>
        <time>2021-03-21T12:59:51Z</time>
      </trkpt>
      <trkpt lat="42.83916" lon="0.56157">
        <ele>1618.837</ele>
        <time>2021-03-21T12:59:53Z</time>
      </trkpt>
      <trkpt lat="42.83918" lon="0.56157">
        <ele>1618.729</ele>
        <time>2021-03-21T12:59:55Z</time>
      </trkpt>
      <trkpt lat="42.8392" lon="0.56157">
        <ele>1618.734</ele>
        <time>2021-03-21T12:59:57Z</time>
      </trkpt>
      <trkpt lat="42.83922" lon="0.56158">
        <ele>1619.278</ele>
        <time>2021-03-21T12:59:59Z</time>
      </trkpt>
      <trkpt lat="42.83924" lon="0.56158">
        <ele>1619.209</ele>
        <time>2021-03-21T13:00:01Z</time>
      </trkpt>
      <trkpt lat="42.83926" lon="0.56159">
        <ele>1619.696</ele>
        <time>2021-03-21T13:00:03Z</time>
      </trkpt>
      <trkpt lat="42.83928" lon="0.5616">
        <ele>1620.062</ele>
        <time>2021-03-21T13:00:05Z</time>
      </trkpt>
      <trkpt lat="42.8393" lon="0.56161">
        <ele>1620.148</ele>
        <time>2021-03-21T13:00:07Z</time>
      </trkpt>
      <trkpt lat="42.83931" lon="0.56161">
        <ele>1620.179</ele>
        <time>2021-03-21T13:00:09Z</time>
      </trkpt>
      <trkpt lat="42.83933" lon="0.56162">
        <ele>1620.538</ele>
        <time>2021-03-21T13:00:11Z</time>
      </trkpt>
      <trkpt lat="42.83935" lon="0.56163">
        <ele>1620.545</ele>
        <time>2021-03-21T13:00:13Z</time>
      </trkpt>
      <trkpt lat="42.83937" lon="0.56164">
        <ele>1620.823</ele>
        <time>2021-03-21T13:00:15Z</time>
      </trkpt>
      <trkpt lat="42.83939" lon="0.56165">
        <ele>1620.683</ele>
        <time>2021-03-21T13:00:17Z</time>
      </trkpt>
      <trkpt lat="42.83941" lon="0.56166">
        <ele>1620.52</ele>
        <time>2021-03-21T13:00:19Z</time>
      </trkpt>
      <trkpt lat="42.83942" lon="0.56167">
        <ele>1620.973</ele>
        <time>2021-03-21T13:00:21Z</time>
      </trkpt>
      <trkpt lat="42.83944" lon="0.56168">
        <ele>1620.333</ele>
        <time>2021-03-21T13:00:23Z</time>
      </trkpt>
      <trkpt lat="42.83946" lon="0.5617">
        <ele>1620.586</ele>
        <time>2021-03-21T13:00:25Z</time>
      </trkpt>
      <trkpt lat="42.83948" lon="0.56171">
        <ele>1620.851</ele>
        <time>2021-03-21T13:00:27Z</time>
      </trkpt>
      <trkpt lat="42.8395" lon="0.56173">
        <ele>1621.4</ele>
        <time>2021-03-21T13:00:29Z</time>
      </trkpt>
      <trkpt lat="42.83951" lon="0.56174">
        <ele>1621.099</ele>
        <time>2021-03-21T13:00:31Z</time>
      </trkpt>
      <trkpt lat="42.83953" lon="0.56176">
        <ele>1620.943</ele>
        <time>2021-03-21T13:00:33Z</time>
      </trkpt>
      <trkpt lat="42.83954" lon="0.56178">
        <ele>1621.074</ele>
        <time>2021-03-21T13:00:35Z</time>
      </trkpt>
      <trkpt lat="42.83956" lon="0.56179">
        <ele>1621.458</ele>
        <time>2021-03-21T13:00:37Z</time>
      </trkpt>
      <trkpt lat="42.83957" lon="0.56181">
        <ele>1621.467</ele>
        <time>2021-03-21T13:00:39Z</time>
      </trkpt>
      <trkpt lat="42.83959" lon="0.56183">
        <ele>1621.646</ele>
        <time>2021-03-21T13:00:41Z</time>
      </trkpt>
      <trkpt lat="42.8396" lon="0.56184">
        <ele>1622.112</ele>
        <time>2021-03-21T13:00:43Z</time>
      </trkpt>
      <trkpt lat="42.83962" lon="0.56187">
        <ele>1622.434</ele>
        <time>2021-03-21T13:00:45Z</time>
      </trkpt>
      <trkpt lat="42.83964" lon="0.56189">
        <ele>1622.792</ele>
        <time>2021-03-21T13:00:47Z</time>
      </trkpt>
      <trkpt lat="42.83966" lon="0.56191">
        <ele>1622.89</ele>
        <time>2021-03-21T13:00:49Z</time>
      </trkpt>
      <trkpt lat="42.83968" lon="0.56192">
        <ele>1623.069</ele>
        <time>2021-03-21T13:00:51Z</time>
      </trkpt>
      <trkpt lat="42.83969" lon="0.56194">
        <ele>1623.544</ele>
        <time>2021-03-21T13:00:53Z</time>
      </trkpt>
      <trkpt lat="42.8397" lon="0.56196">
        <ele>1623.179</ele>
        <time>2021-03-21T13:00:55Z</time>
      </trkpt>
      <trkpt lat="42.83972" lon="0.56198">
        <ele>1623.625</ele>
        <time>2021-03-21T13:00:57Z</time>
      </trkpt>
      <trkpt lat="42.83974" lon="0.56199">
        <ele>1623.418</ele>
        <time>2021-03-21T13:00:59Z</time>
      </trkpt>
      <trkpt lat="42.83976" lon="0.56201">
        <ele>1623.168</ele>
        <time>2021-03-21T13:01:01Z</time>
      </trkpt>
      <trkpt lat="42.83977" lon="0.56203">
        <ele>1623.173</ele>
        <time>2021-03-21T13:01:03Z</time>
      </trkpt>
      <trkpt lat="42.83978" lon="0.56205">
        <ele>1623.377</ele>
        <time>2021-03-21T13:01:05Z</time>
      </trkpt>
      <trkpt lat="42.8398" lon="0.56207">
        <ele>1623.403</ele>
        <time>2021-03-21T13:01:07Z</time>
      </trkpt>
      <trkpt lat="42.83982" lon="0.56209">
        <ele>1623.275</ele>
        <time>2021-03-21T13:01:09Z</time>
      </trkpt>
      <trkpt lat="42.83982" lon="0.5621">
        <ele>1623.348</ele>
        <time>2021-03-21T13:01:10Z</time>
      </trkpt>
      <trkpt lat="42.83985" lon="0.56213">
        <ele>1623.518</ele>
        <time>2021-03-21T13:01:13Z</time>
      </trkpt>
      <trkpt lat="42.83986" lon="0.56215">
        <ele>1623.664</ele>
        <time>2021-03-21T13:01:15Z</time>
      </trkpt>
      <trkpt lat="42.83988" lon="0.56218">
        <ele>1624.139</ele>
        <time>2021-03-21T13:01:17Z</time>
      </trkpt>
      <trkpt lat="42.83989" lon="0.5622">
        <ele>1623.88</ele>
        <time>2021-03-21T13:01:19Z</time>
      </trkpt>
      <trkpt lat="42.83991" lon="0.56222">
        <ele>1624.017</ele>
        <time>2021-03-21T13:01:21Z</time>
      </trkpt>
      <trkpt lat="42.83993" lon="0.56224">
        <ele>1624.373</ele>
        <time>2021-03-21T13:01:23Z</time>
      </trkpt>
      <trkpt lat="42.83994" lon="0.56227">
        <ele>1624.314</ele>
        <time>2021-03-21T13:01:25Z</time>
      </trkpt>
      <trkpt lat="42.83996" lon="0.56229">
        <ele>1624.492</ele>
        <time>2021-03-21T13:01:27Z</time>
      </trkpt>
      <trkpt lat="42.83997" lon="0.56231">
        <ele>1623.711</ele>
        <time>2021-03-21T13:01:29Z</time>
      </trkpt>
      <trkpt lat="42.83999" lon="0.56233">
        <ele>1623.52</ele>
        <time>2021-03-21T13:01:31Z</time>
      </trkpt>
      <trkpt lat="42.84001" lon="0.56235">
        <ele>1623.49</ele>
        <time>2021-03-21T13:01:33Z</time>
      </trkpt>
      <trkpt lat="42.84002" lon="0.56236">
        <ele>1623.223</ele>
        <time>2021-03-21T13:01:35Z</time>
      </trkpt>
      <trkpt lat="42.84003" lon="0.56239">
        <ele>1623.746</ele>
        <time>2021-03-21T13:01:37Z</time>
      </trkpt>
      <trkpt lat="42.84005" lon="0.5624">
        <ele>1623.649</ele>
        <time>2021-03-21T13:01:39Z</time>
      </trkpt>
      <trkpt lat="42.84007" lon="0.56241">
        <ele>1623.391</ele>
        <time>2021-03-21T13:01:41Z</time>
      </trkpt>
      <trkpt lat="42.84008" lon="0.56244">
        <ele>1623.659</ele>
        <time>2021-03-21T13:01:43Z</time>
      </trkpt>
      <trkpt lat="42.84009" lon="0.56245">
        <ele>1623.742</ele>
        <time>2021-03-21T13:01:45Z</time>
      </trkpt>
      <trkpt lat="42.84011" lon="0.56247">
        <ele>1623.668</ele>
        <time>2021-03-21T13:01:47Z</time>
      </trkpt>
      <trkpt lat="42.84013" lon="0.56249">
        <ele>1623.953</ele>
        <time>2021-03-21T13:01:49Z</time>
      </trkpt>
      <trkpt lat="42.84014" lon="0.56251">
        <ele>1623.954</ele>
        <time>2021-03-21T13:01:51Z</time>
      </trkpt>
      <trkpt lat="42.84016" lon="0.56252">
        <ele>1623.356</ele>
        <time>2021-03-21T13:01:53Z</time>
      </trkpt>
      <trkpt lat="42.84018" lon="0.56254">
        <ele>1623.442</ele>
        <time>2021-03-21T13:01:55Z</time>
      </trkpt>
      <trkpt lat="42.8402" lon="0.56256">
        <ele>1623.756</ele>
        <time>2021-03-21T13:01:57Z</time>
      </trkpt>
      <trkpt lat="42.84022" lon="0.56258">
        <ele>1623.495</ele>
        <time>2021-03-21T13:01:59Z</time>
      </trkpt>
      <trkpt lat="42.84024" lon="0.56259">
        <ele>1623.664</ele>
        <time>2021-03-21T13:02:01Z</time>
      </trkpt>
      <trkpt lat="42.84026" lon="0.56261">
        <ele>1623.468</ele>
        <time>2021-03-21T13:02:03Z</time>
      </trkpt>
      <trkpt lat="42.84028" lon="0.56263">
        <ele>1623.228</ele>
        <time>2021-03-21T13:02:05Z</time>
      </trkpt>
      <trkpt lat="42.84029" lon="0.56265">
        <ele>1623.697</ele>
        <time>2021-03-21T13:02:07Z</time>
      </trkpt>
      <trkpt lat="42.84031" lon="0.56267">
        <ele>1623.728</ele>
        <time>2021-03-21T13:02:09Z</time>
      </trkpt>
      <trkpt lat="42.84033" lon="0.56269">
        <ele>1624.081</ele>
        <time>2021-03-21T13:02:11Z</time>
      </trkpt>
      <trkpt lat="42.84034" lon="0.5627">
        <ele>1624.335</ele>
        <time>2021-03-21T13:02:13Z</time>
      </trkpt>
      <trkpt lat="42.84036" lon="0.56272">
        <ele>1624.277</ele>
        <time>2021-03-21T13:02:15Z</time>
      </trkpt>
      <trkpt lat="42.84038" lon="0.56273">
        <ele>1624.092</ele>
        <time>2021-03-21T13:02:17Z</time>
      </trkpt>
      <trkpt lat="42.84039" lon="0.56275">
        <ele>1623.904</ele>
        <time>2021-03-21T13:02:19Z</time>
      </trkpt>
      <trkpt lat="42.84041" lon="0.56277">
        <ele>1624.637</ele>
        <time>2021-03-21T13:02:21Z</time>
      </trkpt>
      <trkpt lat="42.84042" lon="0.56279">
        <ele>1624.931</ele>
        <time>2021-03-21T13:02:23Z</time>
      </trkpt>
      <trkpt lat="42.84044" lon="0.56281">
        <ele>1625.195</ele>
        <time>2021-03-21T13:02:25Z</time>
      </trkpt>
      <trkpt lat="42.84046" lon="0.56282">
        <ele>1625.251</ele>
        <time>2021-03-21T13:02:27Z</time>
      </trkpt>
      <trkpt lat="42.84049" lon="0.56284">
        <ele>1625.591</ele>
        <time>2021-03-21T13:02:29Z</time>
      </trkpt>
      <trkpt lat="42.8405" lon="0.56286">
        <ele>1626</ele>
        <time>2021-03-21T13:02:31Z</time>
      </trkpt>
      <trkpt lat="42.84052" lon="0.56288">
        <ele>1626.045</ele>
        <time>2021-03-21T13:02:33Z</time>
      </trkpt>
      <trkpt lat="42.84054" lon="0.5629">
        <ele>1626.129</ele>
        <time>2021-03-21T13:02:35Z</time>
      </trkpt>
      <trkpt lat="42.84056" lon="0.56291">
        <ele>1626.069</ele>
        <time>2021-03-21T13:02:37Z</time>
      </trkpt>
      <trkpt lat="42.84058" lon="0.56293">
        <ele>1626.114</ele>
        <time>2021-03-21T13:02:39Z</time>
      </trkpt>
      <trkpt lat="42.8406" lon="0.56295">
        <ele>1625.994</ele>
        <time>2021-03-21T13:02:41Z</time>
      </trkpt>
      <trkpt lat="42.84062" lon="0.56297">
        <ele>1626.184</ele>
        <time>2021-03-21T13:02:43Z</time>
      </trkpt>
      <trkpt lat="42.84064" lon="0.56299">
        <ele>1626.155</ele>
        <time>2021-03-21T13:02:45Z</time>
      </trkpt>
      <trkpt lat="42.84066" lon="0.56301">
        <ele>1626.38</ele>
        <time>2021-03-21T13:02:47Z</time>
      </trkpt>
      <trkpt lat="42.84067" lon="0.56303">
        <ele>1625.889</ele>
        <time>2021-03-21T13:02:49Z</time>
      </trkpt>
      <trkpt lat="42.84069" lon="0.56305">
        <ele>1625.577</ele>
        <time>2021-03-21T13:02:51Z</time>
      </trkpt>
      <trkpt lat="42.8407" lon="0.56307">
        <ele>1626.128</ele>
        <time>2021-03-21T13:02:53Z</time>
      </trkpt>
      <trkpt lat="42.84072" lon="0.5631">
        <ele>1625.989</ele>
        <time>2021-03-21T13:02:55Z</time>
      </trkpt>
      <trkpt lat="42.84074" lon="0.56312">
        <ele>1625.949</ele>
        <time>2021-03-21T13:02:57Z</time>
      </trkpt>
      <trkpt lat="42.84076" lon="0.56314">
        <ele>1626.355</ele>
        <time>2021-03-21T13:02:59Z</time>
      </trkpt>
      <trkpt lat="42.84078" lon="0.56316">
        <ele>1626.496</ele>
        <time>2021-03-21T13:03:01Z</time>
      </trkpt>
      <trkpt lat="42.8408" lon="0.56318">
        <ele>1626.622</ele>
        <time>2021-03-21T13:03:03Z</time>
      </trkpt>
      <trkpt lat="42.84082" lon="0.5632">
        <ele>1626.221</ele>
        <time>2021-03-21T13:03:05Z</time>
      </trkpt>
      <trkpt lat="42.84084" lon="0.56321">
        <ele>1626.484</ele>
        <time>2021-03-21T13:03:07Z</time>
      </trkpt>
      <trkpt lat="42.84086" lon="0.56323">
        <ele>1626.322</ele>
        <time>2021-03-21T13:03:09Z</time>
      </trkpt>
      <trkpt lat="42.84088" lon="0.56325">
        <ele>1626.275</ele>
        <time>2021-03-21T13:03:11Z</time>
      </trkpt>
      <trkpt lat="42.8409" lon="0.56326">
        <ele>1626.432</ele>
        <time>2021-03-21T13:03:13Z</time>
      </trkpt>
      <trkpt lat="42.84092" lon="0.56328">
        <ele>1626.749</ele>
        <time>2021-03-21T13:03:15Z</time>
      </trkpt>
      <trkpt lat="42.84094" lon="0.5633">
        <ele>1626.331</ele>
        <time>2021-03-21T13:03:17Z</time>
      </trkpt>
      <trkpt lat="42.84096" lon="0.56332">
        <ele>1626.271</ele>
        <time>2021-03-21T13:03:19Z</time>
      </trkpt>
      <trkpt lat="42.84097" lon="0.56335">
        <ele>1626.747</ele>
        <time>2021-03-21T13:03:21Z</time>
      </trkpt>
      <trkpt lat="42.84099" lon="0.56337">
        <ele>1627.183</ele>
        <time>2021-03-21T13:03:23Z</time>
      </trkpt>
      <trkpt lat="42.841" lon="0.5634">
        <ele>1627.326</ele>
        <time>2021-03-21T13:03:25Z</time>
      </trkpt>
      <trkpt lat="42.84102" lon="0.56344">
        <ele>1627.421</ele>
        <time>2021-03-21T13:03:28Z</time>
      </trkpt>
      <trkpt lat="42.84104" lon="0.56346">
        <ele>1626.715</ele>
        <time>2021-03-21T13:03:30Z</time>
      </trkpt>
      <trkpt lat="42.84106" lon="0.56348">
        <ele>1626.408</ele>
        <time>2021-03-21T13:03:32Z</time>
      </trkpt>
      <trkpt lat="42.84107" lon="0.5635">
        <ele>1626.374</ele>
        <time>2021-03-21T13:03:34Z</time>
      </trkpt>
      <trkpt lat="42.8411" lon="0.56351">
        <ele>1626.878</ele>
        <time>2021-03-21T13:03:36Z</time>
      </trkpt>
      <trkpt lat="42.84112" lon="0.56352">
        <ele>1626.605</ele>
        <time>2021-03-21T13:03:38Z</time>
      </trkpt>
      <trkpt lat="42.84114" lon="0.56353">
        <ele>1626.658</ele>
        <time>2021-03-21T13:03:40Z</time>
      </trkpt>
      <trkpt lat="42.84117" lon="0.56354">
        <ele>1626.248</ele>
        <time>2021-03-21T13:03:42Z</time>
      </trkpt>
      <trkpt lat="42.84119" lon="0.56354">
        <ele>1627.561</ele>
        <time>2021-03-21T13:03:44Z</time>
      </trkpt>
      <trkpt lat="42.84121" lon="0.56354">
        <ele>1627.351</ele>
        <time>2021-03-21T13:03:46Z</time>
      </trkpt>
      <trkpt lat="42.84123" lon="0.56353">
        <ele>1628.281</ele>
        <time>2021-03-21T13:03:48Z</time>
      </trkpt>
      <trkpt lat="42.84125" lon="0.56353">
        <ele>1628.642</ele>
        <time>2021-03-21T13:03:50Z</time>
      </trkpt>
      <trkpt lat="42.84127" lon="0.56352">
        <ele>1629.633</ele>
        <time>2021-03-21T13:03:52Z</time>
      </trkpt>
      <trkpt lat="42.84128" lon="0.56351">
        <ele>1630.411</ele>
        <time>2021-03-21T13:03:54Z</time>
      </trkpt>
      <trkpt lat="42.84128" lon="0.56351">
        <ele>1630.411</ele>
        <time>2021-03-21T13:03:56Z</time>
      </trkpt>
      <trkpt lat="42.84128" lon="0.56351">
        <ele>1630.403</ele>
        <time>2021-03-21T13:03:58Z</time>
      </trkpt>
      <trkpt lat="42.84128" lon="0.56351">
        <ele>1630.405</ele>
        <time>2021-03-21T13:04:00Z</time>
      </trkpt>
      <trkpt lat="42.84128" lon="0.56351">
        <ele>1630.408</ele>
        <time>2021-03-21T13:04:02Z</time>
      </trkpt>
      <trkpt lat="42.84128" lon="0.56351">
        <ele>1630.402</ele>
        <time>2021-03-21T13:04:04Z</time>
      </trkpt>
      <trkpt lat="42.84128" lon="0.56351">
        <ele>1630.404</ele>
        <time>2021-03-21T13:04:06Z</time>
      </trkpt>
      <trkpt lat="42.84128" lon="0.56352">
        <ele>1630.942</ele>
        <time>2021-03-21T13:04:08Z</time>
      </trkpt>
      <trkpt lat="42.84129" lon="0.56351">
        <ele>1630.739</ele>
        <time>2021-03-21T13:04:10Z</time>
      </trkpt>
      <trkpt lat="42.84129" lon="0.56351">
        <ele>1630.739</ele>
        <time>2021-03-21T13:04:12Z</time>
      </trkpt>
      <trkpt lat="42.84129" lon="0.56351">
        <ele>1630.739</ele>
        <time>2021-03-21T13:04:14Z</time>
      </trkpt>
      <trkpt lat="42.84129" lon="0.56351">
        <ele>1630.741</ele>
        <time>2021-03-21T13:04:16Z</time>
      </trkpt>
      <trkpt lat="42.84129" lon="0.56351">
        <ele>1630.736</ele>
        <time>2021-03-21T13:04:18Z</time>
      </trkpt>
      <trkpt lat="42.84129" lon="0.56351">
        <ele>1630.737</ele>
        <time>2021-03-21T13:04:20Z</time>
      </trkpt>
      <trkpt lat="42.84129" lon="0.56351">
        <ele>1630.722</ele>
        <time>2021-03-21T13:04:22Z</time>
      </trkpt>
      <trkpt lat="42.84129" lon="0.56351">
        <ele>1630.71</ele>
        <time>2021-03-21T13:04:24Z</time>
      </trkpt>
      <trkpt lat="42.84129" lon="0.56351">
        <ele>1630.71</ele>
        <time>2021-03-21T13:04:26Z</time>
      </trkpt>
      <trkpt lat="42.84129" lon="0.56351">
        <ele>1630.718</ele>
        <time>2021-03-21T13:04:28Z</time>
      </trkpt>
      <trkpt lat="42.84129" lon="0.56351">
        <ele>1630.72</ele>
        <time>2021-03-21T13:04:30Z</time>
      </trkpt>
      <trkpt lat="42.84129" lon="0.5635">
        <ele>1630.49</ele>
        <time>2021-03-21T13:04:32Z</time>
      </trkpt>
      <trkpt lat="42.84131" lon="0.56349">
        <ele>1630.24</ele>
        <time>2021-03-21T13:04:34Z</time>
      </trkpt>
      <trkpt lat="42.84133" lon="0.56347">
        <ele>1630.205</ele>
        <time>2021-03-21T13:04:36Z</time>
      </trkpt>
      <trkpt lat="42.84133" lon="0.56347">
        <ele>1630.566</ele>
        <time>2021-03-21T13:04:38Z</time>
      </trkpt>
      <trkpt lat="42.84133" lon="0.56347">
        <ele>1630.223</ele>
        <time>2021-03-21T13:04:40Z</time>
      </trkpt>
      <trkpt lat="42.84133" lon="0.56347">
        <ele>1630.222</ele>
        <time>2021-03-21T13:04:42Z</time>
      </trkpt>
      <trkpt lat="42.84133" lon="0.56347">
        <ele>1630.224</ele>
        <time>2021-03-21T13:04:44Z</time>
      </trkpt>
      <trkpt lat="42.84133" lon="0.56347">
        <ele>1630.222</ele>
        <time>2021-03-21T13:04:46Z</time>
      </trkpt>
      <trkpt lat="42.84133" lon="0.56347">
        <ele>1630.222</ele>
        <time>2021-03-21T13:04:48Z</time>
      </trkpt>
      <trkpt lat="42.84133" lon="0.56347">
        <ele>1630.219</ele>
        <time>2021-03-21T13:04:50Z</time>
      </trkpt>
      <trkpt lat="42.84133" lon="0.56347">
        <ele>1630.22</ele>
        <time>2021-03-21T13:04:52Z</time>
      </trkpt>
      <trkpt lat="42.84133" lon="0.56347">
        <ele>1630.22</ele>
        <time>2021-03-21T13:04:54Z</time>
      </trkpt>
      <trkpt lat="42.84133" lon="0.56347">
        <ele>1630.219</ele>
        <time>2021-03-21T13:04:56Z</time>
      </trkpt>
      <trkpt lat="42.84133" lon="0.56347">
        <ele>1630.217</ele>
        <time>2021-03-21T13:04:58Z</time>
      </trkpt>
      <trkpt lat="42.84133" lon="0.56347">
        <ele>1630.662</ele>
        <time>2021-03-21T13:05:00Z</time>
      </trkpt>
      <trkpt lat="42.84133" lon="0.56347">
        <ele>1630.675</ele>
        <time>2021-03-21T13:05:02Z</time>
      </trkpt>
      <trkpt lat="42.84133" lon="0.56347">
        <ele>1630.681</ele>
        <time>2021-03-21T13:05:04Z</time>
      </trkpt>
      <trkpt lat="42.84133" lon="0.56347">
        <ele>1630.682</ele>
        <time>2021-03-21T13:05:06Z</time>
      </trkpt>
      <trkpt lat="42.84133" lon="0.56347">
        <ele>1630.68</ele>
        <time>2021-03-21T13:05:08Z</time>
      </trkpt>
      <trkpt lat="42.84133" lon="0.56346">
        <ele>1630.741</ele>
        <time>2021-03-21T13:05:10Z</time>
      </trkpt>
      <trkpt lat="42.84133" lon="0.56346">
        <ele>1630.732</ele>
        <time>2021-03-21T13:05:12Z</time>
      </trkpt>
      <trkpt lat="42.84133" lon="0.56346">
        <ele>1630.73</ele>
        <time>2021-03-21T13:05:14Z</time>
      </trkpt>
      <trkpt lat="42.84133" lon="0.56346">
        <ele>1630.734</ele>
        <time>2021-03-21T13:05:16Z</time>
      </trkpt>
      <trkpt lat="42.84133" lon="0.56346">
        <ele>1631.335</ele>
        <time>2021-03-21T13:05:18Z</time>
      </trkpt>
      <trkpt lat="42.84133" lon="0.56346">
        <ele>1631.331</ele>
        <time>2021-03-21T13:05:20Z</time>
      </trkpt>
      <trkpt lat="42.84134" lon="0.56345">
        <ele>1630.674</ele>
        <time>2021-03-21T13:05:22Z</time>
      </trkpt>
      <trkpt lat="42.84135" lon="0.56343">
        <ele>1629.876</ele>
        <time>2021-03-21T13:05:24Z</time>
      </trkpt>
      <trkpt lat="42.84136" lon="0.5634">
        <ele>1629.398</ele>
        <time>2021-03-21T13:05:26Z</time>
      </trkpt>
      <trkpt lat="42.84137" lon="0.56337">
        <ele>1628.772</ele>
        <time>2021-03-21T13:05:28Z</time>
      </trkpt>
      <trkpt lat="42.84138" lon="0.56335">
        <ele>1628.334</ele>
        <time>2021-03-21T13:05:30Z</time>
      </trkpt>
      <trkpt lat="42.84138" lon="0.56332">
        <ele>1627.947</ele>
        <time>2021-03-21T13:05:32Z</time>
      </trkpt>
      <trkpt lat="42.84138" lon="0.56329">
        <ele>1628.189</ele>
        <time>2021-03-21T13:05:34Z</time>
      </trkpt>
      <trkpt lat="42.84137" lon="0.56326">
        <ele>1628.137</ele>
        <time>2021-03-21T13:05:36Z</time>
      </trkpt>
      <trkpt lat="42.84137" lon="0.56324">
        <ele>1627.587</ele>
        <time>2021-03-21T13:05:38Z</time>
      </trkpt>
      <trkpt lat="42.84138" lon="0.56321">
        <ele>1627.641</ele>
        <time>2021-03-21T13:05:40Z</time>
      </trkpt>
      <trkpt lat="42.84138" lon="0.56319">
        <ele>1627.614</ele>
        <time>2021-03-21T13:05:42Z</time>
      </trkpt>
      <trkpt lat="42.84139" lon="0.56316">
        <ele>1628.208</ele>
        <time>2021-03-21T13:05:44Z</time>
      </trkpt>
      <trkpt lat="42.8414" lon="0.56313">
        <ele>1629.137</ele>
        <time>2021-03-21T13:05:46Z</time>
      </trkpt>
      <trkpt lat="42.84141" lon="0.5631">
        <ele>1628.934</ele>
        <time>2021-03-21T13:05:48Z</time>
      </trkpt>
      <trkpt lat="42.84142" lon="0.56307">
        <ele>1629.549</ele>
        <time>2021-03-21T13:05:50Z</time>
      </trkpt>
      <trkpt lat="42.84143" lon="0.56305">
        <ele>1629.428</ele>
        <time>2021-03-21T13:05:52Z</time>
      </trkpt>
      <trkpt lat="42.84143" lon="0.56303">
        <ele>1628.994</ele>
        <time>2021-03-21T13:05:54Z</time>
      </trkpt>
      <trkpt lat="42.84143" lon="0.56301">
        <ele>1628.985</ele>
        <time>2021-03-21T13:05:56Z</time>
      </trkpt>
      <trkpt lat="42.84143" lon="0.56299">
        <ele>1628.494</ele>
        <time>2021-03-21T13:05:58Z</time>
      </trkpt>
      <trkpt lat="42.84143" lon="0.56297">
        <ele>1628.384</ele>
        <time>2021-03-21T13:06:00Z</time>
      </trkpt>
      <trkpt lat="42.8414" lon="0.56295">
        <ele>1627.625</ele>
        <time>2021-03-21T13:06:02Z</time>
      </trkpt>
      <trkpt lat="42.84139" lon="0.56294">
        <ele>1628.131</ele>
        <time>2021-03-21T13:06:04Z</time>
      </trkpt>
      <trkpt lat="42.8414" lon="0.56294">
        <ele>1626.629</ele>
        <time>2021-03-21T13:06:06Z</time>
      </trkpt>
      <trkpt lat="42.8414" lon="0.56294">
        <ele>1626.956</ele>
        <time>2021-03-21T13:06:08Z</time>
      </trkpt>
      <trkpt lat="42.8414" lon="0.56294">
        <ele>1626.98</ele>
        <time>2021-03-21T13:06:10Z</time>
      </trkpt>
      <trkpt lat="42.8414" lon="0.56294">
        <ele>1627.466</ele>
        <time>2021-03-21T13:06:12Z</time>
      </trkpt>
      <trkpt lat="42.8414" lon="0.56294">
        <ele>1627.487</ele>
        <time>2021-03-21T13:06:14Z</time>
      </trkpt>
      <trkpt lat="42.8414" lon="0.56295">
        <ele>1628.361</ele>
        <time>2021-03-21T13:06:16Z</time>
      </trkpt>
      <trkpt lat="42.84141" lon="0.56296">
        <ele>1628.675</ele>
        <time>2021-03-21T13:06:18Z</time>
      </trkpt>
      <trkpt lat="42.84141" lon="0.56297">
        <ele>1628.675</ele>
        <time>2021-03-21T13:06:20Z</time>
      </trkpt>
      <trkpt lat="42.84141" lon="0.56297">
        <ele>1628.667</ele>
        <time>2021-03-21T13:06:22Z</time>
      </trkpt>
      <trkpt lat="42.84141" lon="0.56297">
        <ele>1628.431</ele>
        <time>2021-03-21T13:06:24Z</time>
      </trkpt>
      <trkpt lat="42.84141" lon="0.56298">
        <ele>1629.168</ele>
        <time>2021-03-21T13:06:26Z</time>
      </trkpt>
      <trkpt lat="42.84141" lon="0.56298">
        <ele>1628.625</ele>
        <time>2021-03-21T13:06:28Z</time>
      </trkpt>
      <trkpt lat="42.84141" lon="0.56298">
        <ele>1628.617</ele>
        <time>2021-03-21T13:06:30Z</time>
      </trkpt>
      <trkpt lat="42.84141" lon="0.56298">
        <ele>1628.617</ele>
        <time>2021-03-21T13:06:32Z</time>
      </trkpt>
      <trkpt lat="42.84141" lon="0.56298">
        <ele>1628.619</ele>
        <time>2021-03-21T13:06:34Z</time>
      </trkpt>
      <trkpt lat="42.84141" lon="0.56298">
        <ele>1628.624</ele>
        <time>2021-03-21T13:06:36Z</time>
      </trkpt>
      <trkpt lat="42.84141" lon="0.56298">
        <ele>1628.948</ele>
        <time>2021-03-21T13:06:38Z</time>
      </trkpt>
      <trkpt lat="42.84141" lon="0.56298">
        <ele>1628.966</ele>
        <time>2021-03-21T13:06:40Z</time>
      </trkpt>
      <trkpt lat="42.84141" lon="0.56298">
        <ele>1628.976</ele>
        <time>2021-03-21T13:06:42Z</time>
      </trkpt>
      <trkpt lat="42.84142" lon="0.56299">
        <ele>1628.399</ele>
        <time>2021-03-21T13:06:44Z</time>
      </trkpt>
      <trkpt lat="42.84142" lon="0.56298">
        <ele>1628.395</ele>
        <time>2021-03-21T13:06:46Z</time>
      </trkpt>
      <trkpt lat="42.84142" lon="0.56298">
        <ele>1628.402</ele>
        <time>2021-03-21T13:06:48Z</time>
      </trkpt>
      <trkpt lat="42.84143" lon="0.56299">
        <ele>1628.024</ele>
        <time>2021-03-21T13:06:50Z</time>
      </trkpt>
      <trkpt lat="42.84144" lon="0.56299">
        <ele>1628.532</ele>
        <time>2021-03-21T13:06:52Z</time>
      </trkpt>
      <trkpt lat="42.84146" lon="0.563">
        <ele>1628.092</ele>
        <time>2021-03-21T13:06:54Z</time>
      </trkpt>
      <trkpt lat="42.84146" lon="0.563">
        <ele>1628.107</ele>
        <time>2021-03-21T13:06:56Z</time>
      </trkpt>
      <trkpt lat="42.84146" lon="0.563">
        <ele>1627.799</ele>
        <time>2021-03-21T13:06:58Z</time>
      </trkpt>
      <trkpt lat="42.84145" lon="0.563">
        <ele>1627.668</ele>
        <time>2021-03-21T13:07:00Z</time>
      </trkpt>
      <trkpt lat="42.84145" lon="0.563">
        <ele>1627.669</ele>
        <time>2021-03-21T13:07:02Z</time>
      </trkpt>
      <trkpt lat="42.84145" lon="0.563">
        <ele>1627.67</ele>
        <time>2021-03-21T13:07:04Z</time>
      </trkpt>
      <trkpt lat="42.84145" lon="0.56299">
        <ele>1627.729</ele>
        <time>2021-03-21T13:07:06Z</time>
      </trkpt>
      <trkpt lat="42.84145" lon="0.56299">
        <ele>1627.732</ele>
        <time>2021-03-21T13:07:08Z</time>
      </trkpt>
      <trkpt lat="42.84146" lon="0.563">
        <ele>1627.358</ele>
        <time>2021-03-21T13:07:10Z</time>
      </trkpt>
      <trkpt lat="42.84146" lon="0.563">
        <ele>1627.654</ele>
        <time>2021-03-21T13:07:12Z</time>
      </trkpt>
      <trkpt lat="42.84145" lon="0.563">
        <ele>1627.559</ele>
        <time>2021-03-21T13:07:14Z</time>
      </trkpt>
      <trkpt lat="42.84145" lon="0.563">
        <ele>1627.571</ele>
        <time>2021-03-21T13:07:16Z</time>
      </trkpt>
      <trkpt lat="42.84145" lon="0.563">
        <ele>1627.568</ele>
        <time>2021-03-21T13:07:18Z</time>
      </trkpt>
      <trkpt lat="42.84145" lon="0.563">
        <ele>1627.296</ele>
        <time>2021-03-21T13:07:20Z</time>
      </trkpt>
      <trkpt lat="42.84145" lon="0.563">
        <ele>1627.249</ele>
        <time>2021-03-21T13:07:22Z</time>
      </trkpt>
      <trkpt lat="42.84145" lon="0.563">
        <ele>1627.246</ele>
        <time>2021-03-21T13:07:24Z</time>
      </trkpt>
      <trkpt lat="42.84145" lon="0.563">
        <ele>1627.159</ele>
        <time>2021-03-21T13:07:26Z</time>
      </trkpt>
      <trkpt lat="42.84145" lon="0.563">
        <ele>1627.165</ele>
        <time>2021-03-21T13:07:28Z</time>
      </trkpt>
      <trkpt lat="42.84145" lon="0.563">
        <ele>1626.785</ele>
        <time>2021-03-21T13:07:30Z</time>
      </trkpt>
      <trkpt lat="42.84145" lon="0.563">
        <ele>1626.798</ele>
        <time>2021-03-21T13:07:32Z</time>
      </trkpt>
      <trkpt lat="42.84145" lon="0.563">
        <ele>1626.805</ele>
        <time>2021-03-21T13:07:34Z</time>
      </trkpt>
      <trkpt lat="42.84145" lon="0.563">
        <ele>1626.807</ele>
        <time>2021-03-21T13:07:36Z</time>
      </trkpt>
      <trkpt lat="42.84145" lon="0.563">
        <ele>1626.827</ele>
        <time>2021-03-21T13:07:38Z</time>
      </trkpt>
      <trkpt lat="42.84145" lon="0.563">
        <ele>1626.846</ele>
        <time>2021-03-21T13:07:40Z</time>
      </trkpt>
      <trkpt lat="42.84145" lon="0.563">
        <ele>1626.864</ele>
        <time>2021-03-21T13:07:42Z</time>
      </trkpt>
      <trkpt lat="42.84145" lon="0.563">
        <ele>1626.863</ele>
        <time>2021-03-21T13:07:44Z</time>
      </trkpt>
      <trkpt lat="42.84145" lon="0.563">
        <ele>1626.867</ele>
        <time>2021-03-21T13:07:46Z</time>
      </trkpt>
      <trkpt lat="42.84145" lon="0.563">
        <ele>1626.879</ele>
        <time>2021-03-21T13:07:48Z</time>
      </trkpt>
      <trkpt lat="42.84145" lon="0.563">
        <ele>1626.887</ele>
        <time>2021-03-21T13:07:50Z</time>
      </trkpt>
      <trkpt lat="42.84145" lon="0.563">
        <ele>1626.89</ele>
        <time>2021-03-21T13:07:52Z</time>
      </trkpt>
      <trkpt lat="42.84145" lon="0.563">
        <ele>1626.895</ele>
        <time>2021-03-21T13:07:54Z</time>
      </trkpt>
      <trkpt lat="42.84145" lon="0.563">
        <ele>1626.792</ele>
        <time>2021-03-21T13:07:56Z</time>
      </trkpt>
      <trkpt lat="42.84145" lon="0.563">
        <ele>1626.771</ele>
        <time>2021-03-21T13:07:58Z</time>
      </trkpt>
      <trkpt lat="42.84145" lon="0.56301">
        <ele>1627.114</ele>
        <time>2021-03-21T13:08:00Z</time>
      </trkpt>
      <trkpt lat="42.84146" lon="0.56301">
        <ele>1627.264</ele>
        <time>2021-03-21T13:08:02Z</time>
      </trkpt>
      <trkpt lat="42.84146" lon="0.56301">
        <ele>1627.639</ele>
        <time>2021-03-21T13:08:04Z</time>
      </trkpt>
      <trkpt lat="42.84146" lon="0.563">
        <ele>1627.993</ele>
        <time>2021-03-21T13:08:06Z</time>
      </trkpt>
      <trkpt lat="42.84146" lon="0.563">
        <ele>1627.88</ele>
        <time>2021-03-21T13:08:08Z</time>
      </trkpt>
      <trkpt lat="42.84146" lon="0.563">
        <ele>1628.15</ele>
        <time>2021-03-21T13:08:10Z</time>
      </trkpt>
      <trkpt lat="42.84146" lon="0.56301">
        <ele>1628.69</ele>
        <time>2021-03-21T13:08:12Z</time>
      </trkpt>
      <trkpt lat="42.84146" lon="0.56301">
        <ele>1628.697</ele>
        <time>2021-03-21T13:08:14Z</time>
      </trkpt>
      <trkpt lat="42.84146" lon="0.56301">
        <ele>1628.706</ele>
        <time>2021-03-21T13:08:16Z</time>
      </trkpt>
      <trkpt lat="42.84146" lon="0.56301">
        <ele>1628.708</ele>
        <time>2021-03-21T13:08:18Z</time>
      </trkpt>
      <trkpt lat="42.84147" lon="0.56301">
        <ele>1628.822</ele>
        <time>2021-03-21T13:08:20Z</time>
      </trkpt>
      <trkpt lat="42.84147" lon="0.56301">
        <ele>1628.926</ele>
        <time>2021-03-21T13:08:22Z</time>
      </trkpt>
      <trkpt lat="42.84147" lon="0.56301">
        <ele>1628.932</ele>
        <time>2021-03-21T13:08:24Z</time>
      </trkpt>
      <trkpt lat="42.84147" lon="0.56301">
        <ele>1628.934</ele>
        <time>2021-03-21T13:08:26Z</time>
      </trkpt>
      <trkpt lat="42.84147" lon="0.56301">
        <ele>1628.936</ele>
        <time>2021-03-21T13:08:28Z</time>
      </trkpt>
      <trkpt lat="42.84147" lon="0.56301">
        <ele>1628.934</ele>
        <time>2021-03-21T13:08:30Z</time>
      </trkpt>
      <trkpt lat="42.84147" lon="0.56301">
        <ele>1628.94</ele>
        <time>2021-03-21T13:08:32Z</time>
      </trkpt>
      <trkpt lat="42.84147" lon="0.56301">
        <ele>1628.939</ele>
        <time>2021-03-21T13:08:34Z</time>
      </trkpt>
      <trkpt lat="42.84147" lon="0.56301">
        <ele>1628.94</ele>
        <time>2021-03-21T13:08:36Z</time>
      </trkpt>
      <trkpt lat="42.84147" lon="0.563">
        <ele>1628.877</ele>
        <time>2021-03-21T13:08:38Z</time>
      </trkpt>
      <trkpt lat="42.84147" lon="0.56299">
        <ele>1628.759</ele>
        <time>2021-03-21T13:08:40Z</time>
      </trkpt>
      <trkpt lat="42.84147" lon="0.56299">
        <ele>1628.703</ele>
        <time>2021-03-21T13:08:42Z</time>
      </trkpt>
      <trkpt lat="42.84147" lon="0.56299">
        <ele>1628.695</ele>
        <time>2021-03-21T13:08:44Z</time>
      </trkpt>
      <trkpt lat="42.84147" lon="0.56299">
        <ele>1628.689</ele>
        <time>2021-03-21T13:08:46Z</time>
      </trkpt>
      <trkpt lat="42.84147" lon="0.56299">
        <ele>1628.683</ele>
        <time>2021-03-21T13:08:48Z</time>
      </trkpt>
      <trkpt lat="42.84147" lon="0.56299">
        <ele>1628.682</ele>
        <time>2021-03-21T13:08:50Z</time>
      </trkpt>
      <trkpt lat="42.84147" lon="0.56299">
        <ele>1628.685</ele>
        <time>2021-03-21T13:08:52Z</time>
      </trkpt>
      <trkpt lat="42.84147" lon="0.56299">
        <ele>1628.683</ele>
        <time>2021-03-21T13:08:54Z</time>
      </trkpt>
      <trkpt lat="42.84147" lon="0.56299">
        <ele>1628.682</ele>
        <time>2021-03-21T13:08:56Z</time>
      </trkpt>
      <trkpt lat="42.84147" lon="0.56299">
        <ele>1628.683</ele>
        <time>2021-03-21T13:08:58Z</time>
      </trkpt>
      <trkpt lat="42.84147" lon="0.56299">
        <ele>1628.669</ele>
        <time>2021-03-21T13:09:00Z</time>
      </trkpt>
      <trkpt lat="42.84147" lon="0.563">
        <ele>1628.877</ele>
        <time>2021-03-21T13:09:02Z</time>
      </trkpt>
      <trkpt lat="42.84147" lon="0.563">
        <ele>1628.873</ele>
        <time>2021-03-21T13:09:04Z</time>
      </trkpt>
      <trkpt lat="42.84147" lon="0.563">
        <ele>1628.872</ele>
        <time>2021-03-21T13:09:06Z</time>
      </trkpt>
      <trkpt lat="42.84147" lon="0.563">
        <ele>1628.869</ele>
        <time>2021-03-21T13:09:08Z</time>
      </trkpt>
      <trkpt lat="42.84147" lon="0.563">
        <ele>1628.862</ele>
        <time>2021-03-21T13:09:10Z</time>
      </trkpt>
      <trkpt lat="42.84147" lon="0.563">
        <ele>1629.182</ele>
        <time>2021-03-21T13:09:12Z</time>
      </trkpt>
      <trkpt lat="42.84147" lon="0.563">
        <ele>1629.186</ele>
        <time>2021-03-21T13:09:14Z</time>
      </trkpt>
      <trkpt lat="42.84147" lon="0.563">
        <ele>1629.181</ele>
        <time>2021-03-21T13:09:16Z</time>
      </trkpt>
      <trkpt lat="42.84147" lon="0.563">
        <ele>1629.179</ele>
        <time>2021-03-21T13:09:18Z</time>
      </trkpt>
      <trkpt lat="42.84147" lon="0.563">
        <ele>1629.178</ele>
        <time>2021-03-21T13:09:20Z</time>
      </trkpt>
      <trkpt lat="42.84147" lon="0.563">
        <ele>1629.178</ele>
        <time>2021-03-21T13:09:22Z</time>
      </trkpt>
      <trkpt lat="42.84147" lon="0.563">
        <ele>1629.175</ele>
        <time>2021-03-21T13:09:24Z</time>
      </trkpt>
      <trkpt lat="42.84147" lon="0.563">
        <ele>1629.171</ele>
        <time>2021-03-21T13:09:26Z</time>
      </trkpt>
      <trkpt lat="42.84147" lon="0.563">
        <ele>1629.165</ele>
        <time>2021-03-21T13:09:28Z</time>
      </trkpt>
      <trkpt lat="42.84147" lon="0.56301">
        <ele>1629.117</ele>
        <time>2021-03-21T13:09:30Z</time>
      </trkpt>
      <trkpt lat="42.84147" lon="0.56301">
        <ele>1628.954</ele>
        <time>2021-03-21T13:09:32Z</time>
      </trkpt>
      <trkpt lat="42.84147" lon="0.56301">
        <ele>1628.936</ele>
        <time>2021-03-21T13:09:34Z</time>
      </trkpt>
      <trkpt lat="42.84147" lon="0.56302">
        <ele>1628.739</ele>
        <time>2021-03-21T13:09:36Z</time>
      </trkpt>
      <trkpt lat="42.84146" lon="0.56302">
        <ele>1628.74</ele>
        <time>2021-03-21T13:09:38Z</time>
      </trkpt>
      <trkpt lat="42.84146" lon="0.56304">
        <ele>1628.916</ele>
        <time>2021-03-21T13:09:40Z</time>
      </trkpt>
      <trkpt lat="42.84145" lon="0.56306">
        <ele>1628.785</ele>
        <time>2021-03-21T13:09:42Z</time>
      </trkpt>
      <trkpt lat="42.84144" lon="0.56307">
        <ele>1629.008</ele>
        <time>2021-03-21T13:09:44Z</time>
      </trkpt>
      <trkpt lat="42.84144" lon="0.56307">
        <ele>1628.945</ele>
        <time>2021-03-21T13:09:46Z</time>
      </trkpt>
      <trkpt lat="42.84144" lon="0.56307">
        <ele>1628.938</ele>
        <time>2021-03-21T13:09:48Z</time>
      </trkpt>
      <trkpt lat="42.84144" lon="0.56307">
        <ele>1628.934</ele>
        <time>2021-03-21T13:09:50Z</time>
      </trkpt>
      <trkpt lat="42.84144" lon="0.56307">
        <ele>1628.933</ele>
        <time>2021-03-21T13:09:52Z</time>
      </trkpt>
      <trkpt lat="42.84144" lon="0.56308">
        <ele>1628.675</ele>
        <time>2021-03-21T13:09:54Z</time>
      </trkpt>
      <trkpt lat="42.84144" lon="0.56309">
        <ele>1628.355</ele>
        <time>2021-03-21T13:09:56Z</time>
      </trkpt>
      <trkpt lat="42.84144" lon="0.56311">
        <ele>1628.344</ele>
        <time>2021-03-21T13:09:58Z</time>
      </trkpt>
      <trkpt lat="42.84144" lon="0.56312">
        <ele>1628.404</ele>
        <time>2021-03-21T13:10:00Z</time>
      </trkpt>
      <trkpt lat="42.84143" lon="0.56313">
        <ele>1628.563</ele>
        <time>2021-03-21T13:10:02Z</time>
      </trkpt>
      <trkpt lat="42.84143" lon="0.56315">
        <ele>1629.342</ele>
        <time>2021-03-21T13:10:04Z</time>
      </trkpt>
      <trkpt lat="42.84142" lon="0.56316">
        <ele>1629.245</ele>
        <time>2021-03-21T13:10:06Z</time>
      </trkpt>
      <trkpt lat="42.84141" lon="0.56318">
        <ele>1629.772</ele>
        <time>2021-03-21T13:10:08Z</time>
      </trkpt>
      <trkpt lat="42.84141" lon="0.56319">
        <ele>1630.569</ele>
        <time>2021-03-21T13:10:10Z</time>
      </trkpt>
      <trkpt lat="42.84141" lon="0.56322">
        <ele>1630.179</ele>
        <time>2021-03-21T13:10:12Z</time>
      </trkpt>
      <trkpt lat="42.84139" lon="0.56323">
        <ele>1629.917</ele>
        <time>2021-03-21T13:10:14Z</time>
      </trkpt>
      <trkpt lat="42.84139" lon="0.56323">
        <ele>1629.243</ele>
        <time>2021-03-21T13:10:16Z</time>
      </trkpt>
      <trkpt lat="42.84138" lon="0.56323">
        <ele>1628.157</ele>
        <time>2021-03-21T13:10:18Z</time>
      </trkpt>
      <trkpt lat="42.84138" lon="0.56323">
        <ele>1628.145</ele>
        <time>2021-03-21T13:10:20Z</time>
      </trkpt>
      <trkpt lat="42.84138" lon="0.56323">
        <ele>1628.142</ele>
        <time>2021-03-21T13:10:22Z</time>
      </trkpt>
      <trkpt lat="42.84138" lon="0.56323">
        <ele>1628.145</ele>
        <time>2021-03-21T13:10:24Z</time>
      </trkpt>
      <trkpt lat="42.84138" lon="0.56323">
        <ele>1628.144</ele>
        <time>2021-03-21T13:10:26Z</time>
      </trkpt>
      <trkpt lat="42.84138" lon="0.56323">
        <ele>1627.741</ele>
        <time>2021-03-21T13:10:28Z</time>
      </trkpt>
      <trkpt lat="42.84138" lon="0.56323">
        <ele>1627.733</ele>
        <time>2021-03-21T13:10:30Z</time>
      </trkpt>
      <trkpt lat="42.84138" lon="0.56323">
        <ele>1627.515</ele>
        <time>2021-03-21T13:10:32Z</time>
      </trkpt>
      <trkpt lat="42.84138" lon="0.56323">
        <ele>1627.52</ele>
        <time>2021-03-21T13:10:34Z</time>
      </trkpt>
      <trkpt lat="42.84138" lon="0.56323">
        <ele>1627.522</ele>
        <time>2021-03-21T13:10:35Z</time>
      </trkpt>
      <trkpt lat="42.84138" lon="0.56323">
        <ele>1627.526</ele>
        <time>2021-03-21T13:10:38Z</time>
      </trkpt>
      <trkpt lat="42.84138" lon="0.56323">
        <ele>1627.526</ele>
        <time>2021-03-21T13:10:40Z</time>
      </trkpt>
      <trkpt lat="42.84138" lon="0.56323">
        <ele>1627.529</ele>
        <time>2021-03-21T13:10:42Z</time>
      </trkpt>
      <trkpt lat="42.84138" lon="0.56323">
        <ele>1627.534</ele>
        <time>2021-03-21T13:10:44Z</time>
      </trkpt>
      <trkpt lat="42.84138" lon="0.56323">
        <ele>1627.539</ele>
        <time>2021-03-21T13:10:46Z</time>
      </trkpt>
      <trkpt lat="42.84138" lon="0.56322">
        <ele>1627.589</ele>
        <time>2021-03-21T13:10:48Z</time>
      </trkpt>
      <trkpt lat="42.84138" lon="0.56322">
        <ele>1627.598</ele>
        <time>2021-03-21T13:10:50Z</time>
      </trkpt>
      <trkpt lat="42.84138" lon="0.56322">
        <ele>1627.6</ele>
        <time>2021-03-21T13:10:52Z</time>
      </trkpt>
      <trkpt lat="42.84138" lon="0.56322">
        <ele>1627.6</ele>
        <time>2021-03-21T13:10:54Z</time>
      </trkpt>
      <trkpt lat="42.84138" lon="0.56322">
        <ele>1627.602</ele>
        <time>2021-03-21T13:10:56Z</time>
      </trkpt>
      <trkpt lat="42.84138" lon="0.56322">
        <ele>1627.793</ele>
        <time>2021-03-21T13:10:57Z</time>
      </trkpt>
      <trkpt lat="42.84138" lon="0.56322">
        <ele>1627.79</ele>
        <time>2021-03-21T13:11:00Z</time>
      </trkpt>
      <trkpt lat="42.84139" lon="0.56321">
        <ele>1627.705</ele>
        <time>2021-03-21T13:11:02Z</time>
      </trkpt>
      <trkpt lat="42.8414" lon="0.56319">
        <ele>1627.859</ele>
        <time>2021-03-21T13:11:04Z</time>
      </trkpt>
      <trkpt lat="42.84141" lon="0.56318">
        <ele>1628.33</ele>
        <time>2021-03-21T13:11:06Z</time>
      </trkpt>
      <trkpt lat="42.84142" lon="0.56317">
        <ele>1628.275</ele>
        <time>2021-03-21T13:11:08Z</time>
      </trkpt>
      <trkpt lat="42.84142" lon="0.56317">
        <ele>1628.22</ele>
        <time>2021-03-21T13:11:10Z</time>
      </trkpt>
      <trkpt lat="42.84142" lon="0.56317">
        <ele>1628.212</ele>
        <time>2021-03-21T13:11:12Z</time>
      </trkpt>
      <trkpt lat="42.84142" lon="0.56317">
        <ele>1628.207</ele>
        <time>2021-03-21T13:11:14Z</time>
      </trkpt>
      <trkpt lat="42.84142" lon="0.56317">
        <ele>1628.208</ele>
        <time>2021-03-21T13:11:16Z</time>
      </trkpt>
      <trkpt lat="42.84142" lon="0.56317">
        <ele>1628.209</ele>
        <time>2021-03-21T13:11:18Z</time>
      </trkpt>
      <trkpt lat="42.84142" lon="0.56317">
        <ele>1628.144</ele>
        <time>2021-03-21T13:11:20Z</time>
      </trkpt>
      <trkpt lat="42.84142" lon="0.56317">
        <ele>1628.119</ele>
        <time>2021-03-21T13:11:22Z</time>
      </trkpt>
      <trkpt lat="42.84142" lon="0.56317">
        <ele>1628.125</ele>
        <time>2021-03-21T13:11:24Z</time>
      </trkpt>
      <trkpt lat="42.84142" lon="0.56317">
        <ele>1628.129</ele>
        <time>2021-03-21T13:11:26Z</time>
      </trkpt>
      <trkpt lat="42.84142" lon="0.56317">
        <ele>1628.139</ele>
        <time>2021-03-21T13:11:28Z</time>
      </trkpt>
      <trkpt lat="42.84142" lon="0.56317">
        <ele>1628.146</ele>
        <time>2021-03-21T13:11:30Z</time>
      </trkpt>
      <trkpt lat="42.84142" lon="0.56317">
        <ele>1628.15</ele>
        <time>2021-03-21T13:11:32Z</time>
      </trkpt>
      <trkpt lat="42.84142" lon="0.56317">
        <ele>1628.152</ele>
        <time>2021-03-21T13:11:34Z</time>
      </trkpt>
      <trkpt lat="42.84142" lon="0.56317">
        <ele>1628.16</ele>
        <time>2021-03-21T13:11:36Z</time>
      </trkpt>
      <trkpt lat="42.84142" lon="0.56317">
        <ele>1628.161</ele>
        <time>2021-03-21T13:11:38Z</time>
      </trkpt>
      <trkpt lat="42.84142" lon="0.56317">
        <ele>1628.164</ele>
        <time>2021-03-21T13:11:40Z</time>
      </trkpt>
      <trkpt lat="42.84142" lon="0.56317">
        <ele>1628.164</ele>
        <time>2021-03-21T13:11:42Z</time>
      </trkpt>
      <trkpt lat="42.84142" lon="0.56317">
        <ele>1628.162</ele>
        <time>2021-03-21T13:11:44Z</time>
      </trkpt>
      <trkpt lat="42.84142" lon="0.56317">
        <ele>1628.161</ele>
        <time>2021-03-21T13:11:46Z</time>
      </trkpt>
      <trkpt lat="42.84142" lon="0.56317">
        <ele>1628.159</ele>
        <time>2021-03-21T13:11:48Z</time>
      </trkpt>
      <trkpt lat="42.84142" lon="0.56317">
        <ele>1628.161</ele>
        <time>2021-03-21T13:11:50Z</time>
      </trkpt>
      <trkpt lat="42.84142" lon="0.56317">
        <ele>1628.158</ele>
        <time>2021-03-21T13:11:52Z</time>
      </trkpt>
      <trkpt lat="42.84142" lon="0.56317">
        <ele>1628.158</ele>
        <time>2021-03-21T13:11:54Z</time>
      </trkpt>
      <trkpt lat="42.84142" lon="0.56317">
        <ele>1628.159</ele>
        <time>2021-03-21T13:11:56Z</time>
      </trkpt>
      <trkpt lat="42.84142" lon="0.56317">
        <ele>1628.156</ele>
        <time>2021-03-21T13:11:58Z</time>
      </trkpt>
      <trkpt lat="42.84142" lon="0.56317">
        <ele>1628.155</ele>
        <time>2021-03-21T13:12:00Z</time>
      </trkpt>
      <trkpt lat="42.84142" lon="0.56317">
        <ele>1628.16</ele>
        <time>2021-03-21T13:12:02Z</time>
      </trkpt>
      <trkpt lat="42.84142" lon="0.56317">
        <ele>1628.165</ele>
        <time>2021-03-21T13:12:04Z</time>
      </trkpt>
      <trkpt lat="42.84142" lon="0.56317">
        <ele>1628.165</ele>
        <time>2021-03-21T13:12:06Z</time>
      </trkpt>
      <trkpt lat="42.84142" lon="0.56317">
        <ele>1628.166</ele>
        <time>2021-03-21T13:12:08Z</time>
      </trkpt>
      <trkpt lat="42.84142" lon="0.56317">
        <ele>1628.166</ele>
        <time>2021-03-21T13:12:10Z</time>
      </trkpt>
      <trkpt lat="42.84142" lon="0.56317">
        <ele>1628.163</ele>
        <time>2021-03-21T13:12:12Z</time>
      </trkpt>
      <trkpt lat="42.84142" lon="0.56317">
        <ele>1628.162</ele>
        <time>2021-03-21T13:12:14Z</time>
      </trkpt>
      <trkpt lat="42.84142" lon="0.56317">
        <ele>1628.161</ele>
        <time>2021-03-21T13:12:16Z</time>
      </trkpt>
      <trkpt lat="42.84142" lon="0.56317">
        <ele>1628.162</ele>
        <time>2021-03-21T13:12:18Z</time>
      </trkpt>
      <trkpt lat="42.84142" lon="0.56317">
        <ele>1628.17</ele>
        <time>2021-03-21T13:12:20Z</time>
      </trkpt>
      <trkpt lat="42.84141" lon="0.56318">
        <ele>1627.352</ele>
        <time>2021-03-21T13:12:22Z</time>
      </trkpt>
      <trkpt lat="42.84141" lon="0.56319">
        <ele>1627.572</ele>
        <time>2021-03-21T13:12:24Z</time>
      </trkpt>
      <trkpt lat="42.8414" lon="0.56321">
        <ele>1627.536</ele>
        <time>2021-03-21T13:12:26Z</time>
      </trkpt>
      <trkpt lat="42.84139" lon="0.56323">
        <ele>1627.837</ele>
        <time>2021-03-21T13:12:28Z</time>
      </trkpt>
      <trkpt lat="42.84138" lon="0.56324">
        <ele>1627.794</ele>
        <time>2021-03-21T13:12:30Z</time>
      </trkpt>
      <trkpt lat="42.84137" lon="0.56326">
        <ele>1627.923</ele>
        <time>2021-03-21T13:12:32Z</time>
      </trkpt>
      <trkpt lat="42.84136" lon="0.56328">
        <ele>1628.456</ele>
        <time>2021-03-21T13:12:34Z</time>
      </trkpt>
      <trkpt lat="42.84136" lon="0.5633">
        <ele>1628.201</ele>
        <time>2021-03-21T13:12:36Z</time>
      </trkpt>
      <trkpt lat="42.84136" lon="0.56332">
        <ele>1627.99</ele>
        <time>2021-03-21T13:12:38Z</time>
      </trkpt>
      <trkpt lat="42.84136" lon="0.56334">
        <ele>1627.726</ele>
        <time>2021-03-21T13:12:40Z</time>
      </trkpt>
      <trkpt lat="42.84136" lon="0.56336">
        <ele>1627.544</ele>
        <time>2021-03-21T13:12:42Z</time>
      </trkpt>
      <trkpt lat="42.84136" lon="0.56338">
        <ele>1627.38</ele>
        <time>2021-03-21T13:12:44Z</time>
      </trkpt>
      <trkpt lat="42.84136" lon="0.56341">
        <ele>1627.593</ele>
        <time>2021-03-21T13:12:46Z</time>
      </trkpt>
      <trkpt lat="42.84136" lon="0.56343">
        <ele>1627.557</ele>
        <time>2021-03-21T13:12:48Z</time>
      </trkpt>
      <trkpt lat="42.84135" lon="0.56345">
        <ele>1627.852</ele>
        <time>2021-03-21T13:12:50Z</time>
      </trkpt>
      <trkpt lat="42.84134" lon="0.56346">
        <ele>1628.481</ele>
        <time>2021-03-21T13:12:52Z</time>
      </trkpt>
      <trkpt lat="42.84133" lon="0.56348">
        <ele>1628.35</ele>
        <time>2021-03-21T13:12:54Z</time>
      </trkpt>
      <trkpt lat="42.84133" lon="0.5635">
        <ele>1628.697</ele>
        <time>2021-03-21T13:12:56Z</time>
      </trkpt>
      <trkpt lat="42.84132" lon="0.56352">
        <ele>1629.204</ele>
        <time>2021-03-21T13:12:58Z</time>
      </trkpt>
      <trkpt lat="42.84131" lon="0.56353">
        <ele>1629.18</ele>
        <time>2021-03-21T13:13:00Z</time>
      </trkpt>
      <trkpt lat="42.8413" lon="0.56355">
        <ele>1630.073</ele>
        <time>2021-03-21T13:13:02Z</time>
      </trkpt>
      <trkpt lat="42.84128" lon="0.56356">
        <ele>1630.115</ele>
        <time>2021-03-21T13:13:04Z</time>
      </trkpt>
      <trkpt lat="42.84127" lon="0.56357">
        <ele>1630.478</ele>
        <time>2021-03-21T13:13:06Z</time>
      </trkpt>
      <trkpt lat="42.84126" lon="0.56358">
        <ele>1630.555</ele>
        <time>2021-03-21T13:13:08Z</time>
      </trkpt>
      <trkpt lat="42.84124" lon="0.56357">
        <ele>1629.793</ele>
        <time>2021-03-21T13:13:10Z</time>
      </trkpt>
      <trkpt lat="42.84124" lon="0.56355">
        <ele>1630.511</ele>
        <time>2021-03-21T13:13:12Z</time>
      </trkpt>
      <trkpt lat="42.84123" lon="0.56356">
        <ele>1630.799</ele>
        <time>2021-03-21T13:13:14Z</time>
      </trkpt>
      <trkpt lat="42.84123" lon="0.56355">
        <ele>1630.243</ele>
        <time>2021-03-21T13:13:16Z</time>
      </trkpt>
      <trkpt lat="42.84122" lon="0.56356">
        <ele>1630.674</ele>
        <time>2021-03-21T13:13:18Z</time>
      </trkpt>
      <trkpt lat="42.84121" lon="0.56356">
        <ele>1631.492</ele>
        <time>2021-03-21T13:13:20Z</time>
      </trkpt>
      <trkpt lat="42.84119" lon="0.56357">
        <ele>1631.462</ele>
        <time>2021-03-21T13:13:22Z</time>
      </trkpt>
      <trkpt lat="42.84118" lon="0.56356">
        <ele>1631.93</ele>
        <time>2021-03-21T13:13:24Z</time>
      </trkpt>
      <trkpt lat="42.84116" lon="0.56356">
        <ele>1632.244</ele>
        <time>2021-03-21T13:13:26Z</time>
      </trkpt>
      <trkpt lat="42.84116" lon="0.56356">
        <ele>1632.743</ele>
        <time>2021-03-21T13:13:28Z</time>
      </trkpt>
      <trkpt lat="42.84116" lon="0.56356">
        <ele>1633.18</ele>
        <time>2021-03-21T13:13:30Z</time>
      </trkpt>
      <trkpt lat="42.84116" lon="0.56355">
        <ele>1633.395</ele>
        <time>2021-03-21T13:13:32Z</time>
      </trkpt>
      <trkpt lat="42.84116" lon="0.56355">
        <ele>1633.393</ele>
        <time>2021-03-21T13:13:34Z</time>
      </trkpt>
      <trkpt lat="42.84115" lon="0.56355">
        <ele>1633.222</ele>
        <time>2021-03-21T13:13:36Z</time>
      </trkpt>
      <trkpt lat="42.84113" lon="0.56354">
        <ele>1633.384</ele>
        <time>2021-03-21T13:13:38Z</time>
      </trkpt>
      <trkpt lat="42.84111" lon="0.56353">
        <ele>1633.417</ele>
        <time>2021-03-21T13:13:40Z</time>
      </trkpt>
      <trkpt lat="42.8411" lon="0.56352">
        <ele>1632.97</ele>
        <time>2021-03-21T13:13:42Z</time>
      </trkpt>
      <trkpt lat="42.84108" lon="0.5635">
        <ele>1633.067</ele>
        <time>2021-03-21T13:13:44Z</time>
      </trkpt>
      <trkpt lat="42.84107" lon="0.56348">
        <ele>1633.863</ele>
        <time>2021-03-21T13:13:46Z</time>
      </trkpt>
      <trkpt lat="42.84105" lon="0.56346">
        <ele>1634.12</ele>
        <time>2021-03-21T13:13:48Z</time>
      </trkpt>
      <trkpt lat="42.84104" lon="0.56344">
        <ele>1633.782</ele>
        <time>2021-03-21T13:13:50Z</time>
      </trkpt>
      <trkpt lat="42.84103" lon="0.56342">
        <ele>1633.551</ele>
        <time>2021-03-21T13:13:52Z</time>
      </trkpt>
      <trkpt lat="42.84101" lon="0.56339">
        <ele>1633.132</ele>
        <time>2021-03-21T13:13:55Z</time>
      </trkpt>
      <trkpt lat="42.841" lon="0.56337">
        <ele>1633.058</ele>
        <time>2021-03-21T13:13:57Z</time>
      </trkpt>
      <trkpt lat="42.84099" lon="0.56335">
        <ele>1633.034</ele>
        <time>2021-03-21T13:13:59Z</time>
      </trkpt>
      <trkpt lat="42.84098" lon="0.56334">
        <ele>1632.646</ele>
        <time>2021-03-21T13:14:01Z</time>
      </trkpt>
      <trkpt lat="42.84096" lon="0.56332">
        <ele>1632.689</ele>
        <time>2021-03-21T13:14:03Z</time>
      </trkpt>
      <trkpt lat="42.84095" lon="0.5633">
        <ele>1632.41</ele>
        <time>2021-03-21T13:14:05Z</time>
      </trkpt>
      <trkpt lat="42.84094" lon="0.56329">
        <ele>1632.497</ele>
        <time>2021-03-21T13:14:07Z</time>
      </trkpt>
      <trkpt lat="42.84093" lon="0.56328">
        <ele>1632.493</ele>
        <time>2021-03-21T13:14:09Z</time>
      </trkpt>
      <trkpt lat="42.84092" lon="0.56328">
        <ele>1631.925</ele>
        <time>2021-03-21T13:14:11Z</time>
      </trkpt>
      <trkpt lat="42.84091" lon="0.56328">
        <ele>1632.151</ele>
        <time>2021-03-21T13:14:13Z</time>
      </trkpt>
      <trkpt lat="42.84091" lon="0.56328">
        <ele>1632.153</ele>
        <time>2021-03-21T13:14:15Z</time>
      </trkpt>
      <trkpt lat="42.84091" lon="0.56328">
        <ele>1632.044</ele>
        <time>2021-03-21T13:14:17Z</time>
      </trkpt>
      <trkpt lat="42.84089" lon="0.56326">
        <ele>1632.298</ele>
        <time>2021-03-21T13:14:19Z</time>
      </trkpt>
      <trkpt lat="42.84088" lon="0.56325">
        <ele>1632.465</ele>
        <time>2021-03-21T13:14:21Z</time>
      </trkpt>
      <trkpt lat="42.84086" lon="0.56324">
        <ele>1632.903</ele>
        <time>2021-03-21T13:14:23Z</time>
      </trkpt>
      <trkpt lat="42.84084" lon="0.56323">
        <ele>1632.841</ele>
        <time>2021-03-21T13:14:25Z</time>
      </trkpt>
      <trkpt lat="42.84082" lon="0.56321">
        <ele>1632.631</ele>
        <time>2021-03-21T13:14:27Z</time>
      </trkpt>
      <trkpt lat="42.8408" lon="0.56319">
        <ele>1632.369</ele>
        <time>2021-03-21T13:14:29Z</time>
      </trkpt>
      <trkpt lat="42.84078" lon="0.56317">
        <ele>1631.894</ele>
        <time>2021-03-21T13:14:31Z</time>
      </trkpt>
      <trkpt lat="42.84077" lon="0.56315">
        <ele>1631.742</ele>
        <time>2021-03-21T13:14:33Z</time>
      </trkpt>
      <trkpt lat="42.84075" lon="0.56313">
        <ele>1631.826</ele>
        <time>2021-03-21T13:14:35Z</time>
      </trkpt>
      <trkpt lat="42.84073" lon="0.5631">
        <ele>1631.439</ele>
        <time>2021-03-21T13:14:37Z</time>
      </trkpt>
      <trkpt lat="42.84072" lon="0.56308">
        <ele>1631.256</ele>
        <time>2021-03-21T13:14:39Z</time>
      </trkpt>
      <trkpt lat="42.8407" lon="0.56306">
        <ele>1631.096</ele>
        <time>2021-03-21T13:14:41Z</time>
      </trkpt>
      <trkpt lat="42.84068" lon="0.56304">
        <ele>1630.999</ele>
        <time>2021-03-21T13:14:43Z</time>
      </trkpt>
      <trkpt lat="42.84066" lon="0.56302">
        <ele>1630.76</ele>
        <time>2021-03-21T13:14:45Z</time>
      </trkpt>
      <trkpt lat="42.84064" lon="0.563">
        <ele>1630.88</ele>
        <time>2021-03-21T13:14:47Z</time>
      </trkpt>
      <trkpt lat="42.84062" lon="0.56298">
        <ele>1630.87</ele>
        <time>2021-03-21T13:14:49Z</time>
      </trkpt>
      <trkpt lat="42.8406" lon="0.56296">
        <ele>1631.108</ele>
        <time>2021-03-21T13:14:51Z</time>
      </trkpt>
      <trkpt lat="42.84058" lon="0.56294">
        <ele>1630.901</ele>
        <time>2021-03-21T13:14:53Z</time>
      </trkpt>
      <trkpt lat="42.84056" lon="0.56293">
        <ele>1630.932</ele>
        <time>2021-03-21T13:14:55Z</time>
      </trkpt>
      <trkpt lat="42.84054" lon="0.56291">
        <ele>1631.229</ele>
        <time>2021-03-21T13:14:57Z</time>
      </trkpt>
      <trkpt lat="42.84052" lon="0.56289">
        <ele>1631.307</ele>
        <time>2021-03-21T13:14:59Z</time>
      </trkpt>
      <trkpt lat="42.8405" lon="0.56287">
        <ele>1631.392</ele>
        <time>2021-03-21T13:15:01Z</time>
      </trkpt>
      <trkpt lat="42.84048" lon="0.56286">
        <ele>1631.571</ele>
        <time>2021-03-21T13:15:03Z</time>
      </trkpt>
      <trkpt lat="42.84046" lon="0.56284">
        <ele>1631.52</ele>
        <time>2021-03-21T13:15:05Z</time>
      </trkpt>
      <trkpt lat="42.84045" lon="0.56282">
        <ele>1631.549</ele>
        <time>2021-03-21T13:15:07Z</time>
      </trkpt>
      <trkpt lat="42.84043" lon="0.5628">
        <ele>1631.356</ele>
        <time>2021-03-21T13:15:09Z</time>
      </trkpt>
      <trkpt lat="42.84041" lon="0.56279">
        <ele>1631.067</ele>
        <time>2021-03-21T13:15:11Z</time>
      </trkpt>
      <trkpt lat="42.84039" lon="0.56277">
        <ele>1631.022</ele>
        <time>2021-03-21T13:15:13Z</time>
      </trkpt>
      <trkpt lat="42.84037" lon="0.56275">
        <ele>1630.745</ele>
        <time>2021-03-21T13:15:15Z</time>
      </trkpt>
      <trkpt lat="42.84036" lon="0.56273">
        <ele>1630.679</ele>
        <time>2021-03-21T13:15:17Z</time>
      </trkpt>
      <trkpt lat="42.84034" lon="0.56271">
        <ele>1630.45</ele>
        <time>2021-03-21T13:15:19Z</time>
      </trkpt>
      <trkpt lat="42.84032" lon="0.56269">
        <ele>1630.514</ele>
        <time>2021-03-21T13:15:21Z</time>
      </trkpt>
      <trkpt lat="42.8403" lon="0.56268">
        <ele>1630.814</ele>
        <time>2021-03-21T13:15:23Z</time>
      </trkpt>
      <trkpt lat="42.84029" lon="0.56266">
        <ele>1630.797</ele>
        <time>2021-03-21T13:15:25Z</time>
      </trkpt>
      <trkpt lat="42.84027" lon="0.56264">
        <ele>1631.139</ele>
        <time>2021-03-21T13:15:27Z</time>
      </trkpt>
      <trkpt lat="42.84025" lon="0.56263">
        <ele>1631.075</ele>
        <time>2021-03-21T13:15:29Z</time>
      </trkpt>
      <trkpt lat="42.84023" lon="0.56261">
        <ele>1631.286</ele>
        <time>2021-03-21T13:15:31Z</time>
      </trkpt>
      <trkpt lat="42.84022" lon="0.5626">
        <ele>1631.329</ele>
        <time>2021-03-21T13:15:33Z</time>
      </trkpt>
      <trkpt lat="42.8402" lon="0.56258">
        <ele>1632.029</ele>
        <time>2021-03-21T13:15:35Z</time>
      </trkpt>
      <trkpt lat="42.84018" lon="0.56256">
        <ele>1632.574</ele>
        <time>2021-03-21T13:15:37Z</time>
      </trkpt>
      <trkpt lat="42.84016" lon="0.56254">
        <ele>1632.507</ele>
        <time>2021-03-21T13:15:39Z</time>
      </trkpt>
      <trkpt lat="42.84014" lon="0.56252">
        <ele>1632.682</ele>
        <time>2021-03-21T13:15:41Z</time>
      </trkpt>
      <trkpt lat="42.84012" lon="0.5625">
        <ele>1632.465</ele>
        <time>2021-03-21T13:15:43Z</time>
      </trkpt>
      <trkpt lat="42.8401" lon="0.56248">
        <ele>1632.954</ele>
        <time>2021-03-21T13:15:45Z</time>
      </trkpt>
      <trkpt lat="42.84008" lon="0.56247">
        <ele>1632.381</ele>
        <time>2021-03-21T13:15:47Z</time>
      </trkpt>
      <trkpt lat="42.84006" lon="0.56245">
        <ele>1632.331</ele>
        <time>2021-03-21T13:15:49Z</time>
      </trkpt>
      <trkpt lat="42.84005" lon="0.56243">
        <ele>1632.511</ele>
        <time>2021-03-21T13:15:51Z</time>
      </trkpt>
      <trkpt lat="42.84003" lon="0.5624">
        <ele>1632.259</ele>
        <time>2021-03-21T13:15:53Z</time>
      </trkpt>
      <trkpt lat="42.84001" lon="0.56238">
        <ele>1632.162</ele>
        <time>2021-03-21T13:15:55Z</time>
      </trkpt>
      <trkpt lat="42.83999" lon="0.56236">
        <ele>1631.852</ele>
        <time>2021-03-21T13:15:57Z</time>
      </trkpt>
      <trkpt lat="42.83998" lon="0.56234">
        <ele>1631.55</ele>
        <time>2021-03-21T13:15:59Z</time>
      </trkpt>
      <trkpt lat="42.83996" lon="0.56232">
        <ele>1631.307</ele>
        <time>2021-03-21T13:16:01Z</time>
      </trkpt>
      <trkpt lat="42.83994" lon="0.5623">
        <ele>1631.698</ele>
        <time>2021-03-21T13:16:03Z</time>
      </trkpt>
      <trkpt lat="42.83992" lon="0.56228">
        <ele>1631.761</ele>
        <time>2021-03-21T13:16:05Z</time>
      </trkpt>
      <trkpt lat="42.83991" lon="0.56225">
        <ele>1631.838</ele>
        <time>2021-03-21T13:16:07Z</time>
      </trkpt>
      <trkpt lat="42.83989" lon="0.56222">
        <ele>1631.692</ele>
        <time>2021-03-21T13:16:09Z</time>
      </trkpt>
      <trkpt lat="42.83987" lon="0.5622">
        <ele>1631.046</ele>
        <time>2021-03-21T13:16:11Z</time>
      </trkpt>
      <trkpt lat="42.83986" lon="0.56217">
        <ele>1631.145</ele>
        <time>2021-03-21T13:16:13Z</time>
      </trkpt>
      <trkpt lat="42.83984" lon="0.56214">
        <ele>1631.375</ele>
        <time>2021-03-21T13:16:15Z</time>
      </trkpt>
      <trkpt lat="42.83982" lon="0.56212">
        <ele>1630.865</ele>
        <time>2021-03-21T13:16:17Z</time>
      </trkpt>
      <trkpt lat="42.8398" lon="0.5621">
        <ele>1630.506</ele>
        <time>2021-03-21T13:16:19Z</time>
      </trkpt>
      <trkpt lat="42.83978" lon="0.56208">
        <ele>1630.345</ele>
        <time>2021-03-21T13:16:21Z</time>
      </trkpt>
      <trkpt lat="42.83977" lon="0.56206">
        <ele>1629.495</ele>
        <time>2021-03-21T13:16:23Z</time>
      </trkpt>
      <trkpt lat="42.83975" lon="0.56203">
        <ele>1629.793</ele>
        <time>2021-03-21T13:16:25Z</time>
      </trkpt>
      <trkpt lat="42.83973" lon="0.56201">
        <ele>1629.653</ele>
        <time>2021-03-21T13:16:27Z</time>
      </trkpt>
      <trkpt lat="42.83971" lon="0.56199">
        <ele>1629.561</ele>
        <time>2021-03-21T13:16:29Z</time>
      </trkpt>
      <trkpt lat="42.83969" lon="0.56196">
        <ele>1629.344</ele>
        <time>2021-03-21T13:16:31Z</time>
      </trkpt>
      <trkpt lat="42.83967" lon="0.56194">
        <ele>1628.61</ele>
        <time>2021-03-21T13:16:33Z</time>
      </trkpt>
      <trkpt lat="42.83965" lon="0.56192">
        <ele>1628.19</ele>
        <time>2021-03-21T13:16:35Z</time>
      </trkpt>
      <trkpt lat="42.83963" lon="0.56189">
        <ele>1627.881</ele>
        <time>2021-03-21T13:16:37Z</time>
      </trkpt>
      <trkpt lat="42.83961" lon="0.56186">
        <ele>1627.492</ele>
        <time>2021-03-21T13:16:39Z</time>
      </trkpt>
      <trkpt lat="42.83959" lon="0.56184">
        <ele>1627.138</ele>
        <time>2021-03-21T13:16:41Z</time>
      </trkpt>
      <trkpt lat="42.83957" lon="0.56182">
        <ele>1626.86</ele>
        <time>2021-03-21T13:16:43Z</time>
      </trkpt>
      <trkpt lat="42.83955" lon="0.56179">
        <ele>1627.021</ele>
        <time>2021-03-21T13:16:45Z</time>
      </trkpt>
      <trkpt lat="42.83952" lon="0.56177">
        <ele>1626.833</ele>
        <time>2021-03-21T13:16:47Z</time>
      </trkpt>
      <trkpt lat="42.8395" lon="0.56176">
        <ele>1626.602</ele>
        <time>2021-03-21T13:16:49Z</time>
      </trkpt>
      <trkpt lat="42.83947" lon="0.56173">
        <ele>1626.031</ele>
        <time>2021-03-21T13:16:51Z</time>
      </trkpt>
      <trkpt lat="42.83945" lon="0.56171">
        <ele>1625.015</ele>
        <time>2021-03-21T13:16:53Z</time>
      </trkpt>
      <trkpt lat="42.83943" lon="0.56169">
        <ele>1624.026</ele>
        <time>2021-03-21T13:16:55Z</time>
      </trkpt>
      <trkpt lat="42.83941" lon="0.56168">
        <ele>1623.841</ele>
        <time>2021-03-21T13:16:57Z</time>
      </trkpt>
      <trkpt lat="42.83938" lon="0.56167">
        <ele>1623.952</ele>
        <time>2021-03-21T13:16:59Z</time>
      </trkpt>
      <trkpt lat="42.83935" lon="0.56166">
        <ele>1623.28</ele>
        <time>2021-03-21T13:17:01Z</time>
      </trkpt>
      <trkpt lat="42.83933" lon="0.56165">
        <ele>1623.393</ele>
        <time>2021-03-21T13:17:03Z</time>
      </trkpt>
      <trkpt lat="42.8393" lon="0.56165">
        <ele>1622.382</ele>
        <time>2021-03-21T13:17:05Z</time>
      </trkpt>
      <trkpt lat="42.83928" lon="0.56164">
        <ele>1622.644</ele>
        <time>2021-03-21T13:17:07Z</time>
      </trkpt>
      <trkpt lat="42.83925" lon="0.56163">
        <ele>1623.098</ele>
        <time>2021-03-21T13:17:09Z</time>
      </trkpt>
      <trkpt lat="42.83922" lon="0.56162">
        <ele>1622.964</ele>
        <time>2021-03-21T13:17:11Z</time>
      </trkpt>
      <trkpt lat="42.83919" lon="0.56163">
        <ele>1622.592</ele>
        <time>2021-03-21T13:17:13Z</time>
      </trkpt>
      <trkpt lat="42.83916" lon="0.56161">
        <ele>1623.579</ele>
        <time>2021-03-21T13:17:15Z</time>
      </trkpt>
      <trkpt lat="42.83913" lon="0.5616">
        <ele>1623.365</ele>
        <time>2021-03-21T13:17:17Z</time>
      </trkpt>
      <trkpt lat="42.83911" lon="0.56159">
        <ele>1623.268</ele>
        <time>2021-03-21T13:17:19Z</time>
      </trkpt>
      <trkpt lat="42.83908" lon="0.56159">
        <ele>1622.541</ele>
        <time>2021-03-21T13:17:21Z</time>
      </trkpt>
      <trkpt lat="42.83905" lon="0.56157">
        <ele>1624.346</ele>
        <time>2021-03-21T13:17:23Z</time>
      </trkpt>
      <trkpt lat="42.83902" lon="0.56156">
        <ele>1623.537</ele>
        <time>2021-03-21T13:17:25Z</time>
      </trkpt>
      <trkpt lat="42.839" lon="0.56156">
        <ele>1624.396</ele>
        <time>2021-03-21T13:17:27Z</time>
      </trkpt>
      <trkpt lat="42.83897" lon="0.56156">
        <ele>1624.137</ele>
        <time>2021-03-21T13:17:29Z</time>
      </trkpt>
      <trkpt lat="42.83894" lon="0.56155">
        <ele>1624.128</ele>
        <time>2021-03-21T13:17:31Z</time>
      </trkpt>
      <trkpt lat="42.83892" lon="0.56155">
        <ele>1623.829</ele>
        <time>2021-03-21T13:17:33Z</time>
      </trkpt>
      <trkpt lat="42.83889" lon="0.56154">
        <ele>1624.419</ele>
        <time>2021-03-21T13:17:35Z</time>
      </trkpt>
      <trkpt lat="42.83887" lon="0.56154">
        <ele>1623.391</ele>
        <time>2021-03-21T13:17:37Z</time>
      </trkpt>
      <trkpt lat="42.83884" lon="0.56154">
        <ele>1623.502</ele>
        <time>2021-03-21T13:17:39Z</time>
      </trkpt>
      <trkpt lat="42.83882" lon="0.56155">
        <ele>1623.144</ele>
        <time>2021-03-21T13:17:41Z</time>
      </trkpt>
      <trkpt lat="42.83879" lon="0.56155">
        <ele>1622.278</ele>
        <time>2021-03-21T13:17:43Z</time>
      </trkpt>
      <trkpt lat="42.83876" lon="0.56155">
        <ele>1621.943</ele>
        <time>2021-03-21T13:17:45Z</time>
      </trkpt>
      <trkpt lat="42.83874" lon="0.56155">
        <ele>1621.474</ele>
        <time>2021-03-21T13:17:47Z</time>
      </trkpt>
      <trkpt lat="42.83871" lon="0.56155">
        <ele>1621.948</ele>
        <time>2021-03-21T13:17:49Z</time>
      </trkpt>
      <trkpt lat="42.83869" lon="0.56156">
        <ele>1620.87</ele>
        <time>2021-03-21T13:17:51Z</time>
      </trkpt>
      <trkpt lat="42.83866" lon="0.56156">
        <ele>1619.405</ele>
        <time>2021-03-21T13:17:53Z</time>
      </trkpt>
      <trkpt lat="42.83864" lon="0.56156">
        <ele>1620.594</ele>
        <time>2021-03-21T13:17:55Z</time>
      </trkpt>
      <trkpt lat="42.83861" lon="0.56157">
        <ele>1620.02</ele>
        <time>2021-03-21T13:17:57Z</time>
      </trkpt>
      <trkpt lat="42.83859" lon="0.56158">
        <ele>1619.496</ele>
        <time>2021-03-21T13:17:59Z</time>
      </trkpt>
      <trkpt lat="42.83856" lon="0.56158">
        <ele>1618.519</ele>
        <time>2021-03-21T13:18:01Z</time>
      </trkpt>
      <trkpt lat="42.83854" lon="0.56158">
        <ele>1618.441</ele>
        <time>2021-03-21T13:18:03Z</time>
      </trkpt>
      <trkpt lat="42.83851" lon="0.56158">
        <ele>1618.166</ele>
        <time>2021-03-21T13:18:05Z</time>
      </trkpt>
      <trkpt lat="42.83849" lon="0.56158">
        <ele>1619.014</ele>
        <time>2021-03-21T13:18:07Z</time>
      </trkpt>
      <trkpt lat="42.83846" lon="0.56158">
        <ele>1619.388</ele>
        <time>2021-03-21T13:18:09Z</time>
      </trkpt>
      <trkpt lat="42.83843" lon="0.56157">
        <ele>1619.749</ele>
        <time>2021-03-21T13:18:11Z</time>
      </trkpt>
      <trkpt lat="42.83841" lon="0.56157">
        <ele>1619.264</ele>
        <time>2021-03-21T13:18:13Z</time>
      </trkpt>
      <trkpt lat="42.83838" lon="0.56157">
        <ele>1619.695</ele>
        <time>2021-03-21T13:18:15Z</time>
      </trkpt>
      <trkpt lat="42.83836" lon="0.56157">
        <ele>1619.74</ele>
        <time>2021-03-21T13:18:17Z</time>
      </trkpt>
      <trkpt lat="42.83833" lon="0.56157">
        <ele>1618.661</ele>
        <time>2021-03-21T13:18:19Z</time>
      </trkpt>
      <trkpt lat="42.83831" lon="0.56157">
        <ele>1618.725</ele>
        <time>2021-03-21T13:18:21Z</time>
      </trkpt>
      <trkpt lat="42.83829" lon="0.56157">
        <ele>1619.324</ele>
        <time>2021-03-21T13:18:23Z</time>
      </trkpt>
      <trkpt lat="42.83826" lon="0.56158">
        <ele>1618.698</ele>
        <time>2021-03-21T13:18:25Z</time>
      </trkpt>
      <trkpt lat="42.83824" lon="0.56159">
        <ele>1616.67</ele>
        <time>2021-03-21T13:18:27Z</time>
      </trkpt>
      <trkpt lat="42.83821" lon="0.5616">
        <ele>1616.547</ele>
        <time>2021-03-21T13:18:29Z</time>
      </trkpt>
      <trkpt lat="42.83819" lon="0.56161">
        <ele>1616.332</ele>
        <time>2021-03-21T13:18:31Z</time>
      </trkpt>
      <trkpt lat="42.83816" lon="0.56162">
        <ele>1616.098</ele>
        <time>2021-03-21T13:18:33Z</time>
      </trkpt>
      <trkpt lat="42.83814" lon="0.56163">
        <ele>1615.816</ele>
        <time>2021-03-21T13:18:35Z</time>
      </trkpt>
      <trkpt lat="42.83811" lon="0.56164">
        <ele>1616.469</ele>
        <time>2021-03-21T13:18:37Z</time>
      </trkpt>
      <trkpt lat="42.83809" lon="0.56165">
        <ele>1616.444</ele>
        <time>2021-03-21T13:18:39Z</time>
      </trkpt>
      <trkpt lat="42.83806" lon="0.56166">
        <ele>1615.188</ele>
        <time>2021-03-21T13:18:41Z</time>
      </trkpt>
      <trkpt lat="42.83804" lon="0.56167">
        <ele>1614.169</ele>
        <time>2021-03-21T13:18:43Z</time>
      </trkpt>
      <trkpt lat="42.83802" lon="0.56168">
        <ele>1613.948</ele>
        <time>2021-03-21T13:18:45Z</time>
      </trkpt>
      <trkpt lat="42.83799" lon="0.5617">
        <ele>1613.596</ele>
        <time>2021-03-21T13:18:47Z</time>
      </trkpt>
      <trkpt lat="42.83797" lon="0.56171">
        <ele>1613.693</ele>
        <time>2021-03-21T13:18:49Z</time>
      </trkpt>
      <trkpt lat="42.83795" lon="0.56172">
        <ele>1614.523</ele>
        <time>2021-03-21T13:18:51Z</time>
      </trkpt>
      <trkpt lat="42.83793" lon="0.56173">
        <ele>1614.643</ele>
        <time>2021-03-21T13:18:53Z</time>
      </trkpt>
      <trkpt lat="42.83791" lon="0.56175">
        <ele>1614.124</ele>
        <time>2021-03-21T13:18:55Z</time>
      </trkpt>
      <trkpt lat="42.83789" lon="0.56177">
        <ele>1613.909</ele>
        <time>2021-03-21T13:18:57Z</time>
      </trkpt>
      <trkpt lat="42.83787" lon="0.56178">
        <ele>1613.567</ele>
        <time>2021-03-21T13:18:59Z</time>
      </trkpt>
      <trkpt lat="42.83785" lon="0.5618">
        <ele>1613.297</ele>
        <time>2021-03-21T13:19:01Z</time>
      </trkpt>
      <trkpt lat="42.83784" lon="0.56183">
        <ele>1612.65</ele>
        <time>2021-03-21T13:19:03Z</time>
      </trkpt>
      <trkpt lat="42.83782" lon="0.56185">
        <ele>1612.56</ele>
        <time>2021-03-21T13:19:05Z</time>
      </trkpt>
      <trkpt lat="42.8378" lon="0.56187">
        <ele>1612.208</ele>
        <time>2021-03-21T13:19:07Z</time>
      </trkpt>
      <trkpt lat="42.83778" lon="0.56189">
        <ele>1611.807</ele>
        <time>2021-03-21T13:19:09Z</time>
      </trkpt>
      <trkpt lat="42.83776" lon="0.56191">
        <ele>1611.885</ele>
        <time>2021-03-21T13:19:11Z</time>
      </trkpt>
      <trkpt lat="42.83774" lon="0.56193">
        <ele>1612.077</ele>
        <time>2021-03-21T13:19:13Z</time>
      </trkpt>
      <trkpt lat="42.83771" lon="0.56195">
        <ele>1612.495</ele>
        <time>2021-03-21T13:19:15Z</time>
      </trkpt>
      <trkpt lat="42.8377" lon="0.56197">
        <ele>1612.557</ele>
        <time>2021-03-21T13:19:17Z</time>
      </trkpt>
      <trkpt lat="42.83767" lon="0.56199">
        <ele>1611.33</ele>
        <time>2021-03-21T13:19:19Z</time>
      </trkpt>
      <trkpt lat="42.83766" lon="0.56201">
        <ele>1610.546</ele>
        <time>2021-03-21T13:19:21Z</time>
      </trkpt>
      <trkpt lat="42.83763" lon="0.56203">
        <ele>1610.563</ele>
        <time>2021-03-21T13:19:23Z</time>
      </trkpt>
      <trkpt lat="42.83761" lon="0.56204">
        <ele>1610.425</ele>
        <time>2021-03-21T13:19:25Z</time>
      </trkpt>
      <trkpt lat="42.83759" lon="0.56205">
        <ele>1610.394</ele>
        <time>2021-03-21T13:19:27Z</time>
      </trkpt>
      <trkpt lat="42.83757" lon="0.56207">
        <ele>1610.88</ele>
        <time>2021-03-21T13:19:29Z</time>
      </trkpt>
      <trkpt lat="42.83754" lon="0.56209">
        <ele>1609.957</ele>
        <time>2021-03-21T13:19:31Z</time>
      </trkpt>
      <trkpt lat="42.83752" lon="0.5621">
        <ele>1611.227</ele>
        <time>2021-03-21T13:19:33Z</time>
      </trkpt>
      <trkpt lat="42.8375" lon="0.56212">
        <ele>1610.681</ele>
        <time>2021-03-21T13:19:35Z</time>
      </trkpt>
      <trkpt lat="42.83748" lon="0.56214">
        <ele>1610.812</ele>
        <time>2021-03-21T13:19:37Z</time>
      </trkpt>
      <trkpt lat="42.83745" lon="0.56216">
        <ele>1609.848</ele>
        <time>2021-03-21T13:19:39Z</time>
      </trkpt>
      <trkpt lat="42.83743" lon="0.56217">
        <ele>1609.718</ele>
        <time>2021-03-21T13:19:41Z</time>
      </trkpt>
      <trkpt lat="42.8374" lon="0.56219">
        <ele>1608.782</ele>
        <time>2021-03-21T13:19:43Z</time>
      </trkpt>
      <trkpt lat="42.83738" lon="0.5622">
        <ele>1608.006</ele>
        <time>2021-03-21T13:19:45Z</time>
      </trkpt>
      <trkpt lat="42.83736" lon="0.56221">
        <ele>1608.269</ele>
        <time>2021-03-21T13:19:47Z</time>
      </trkpt>
      <trkpt lat="42.83733" lon="0.56223">
        <ele>1608.167</ele>
        <time>2021-03-21T13:19:49Z</time>
      </trkpt>
      <trkpt lat="42.8373" lon="0.56224">
        <ele>1608.221</ele>
        <time>2021-03-21T13:19:51Z</time>
      </trkpt>
      <trkpt lat="42.83728" lon="0.56225">
        <ele>1607.249</ele>
        <time>2021-03-21T13:19:53Z</time>
      </trkpt>
      <trkpt lat="42.83726" lon="0.56225">
        <ele>1606.185</ele>
        <time>2021-03-21T13:19:55Z</time>
      </trkpt>
      <trkpt lat="42.83723" lon="0.56226">
        <ele>1605.41</ele>
        <time>2021-03-21T13:19:57Z</time>
      </trkpt>
      <trkpt lat="42.83721" lon="0.56228">
        <ele>1604.779</ele>
        <time>2021-03-21T13:19:59Z</time>
      </trkpt>
      <trkpt lat="42.83718" lon="0.56228">
        <ele>1604.49</ele>
        <time>2021-03-21T13:20:01Z</time>
      </trkpt>
      <trkpt lat="42.83716" lon="0.56228">
        <ele>1604.232</ele>
        <time>2021-03-21T13:20:03Z</time>
      </trkpt>
      <trkpt lat="42.83713" lon="0.56227">
        <ele>1604.137</ele>
        <time>2021-03-21T13:20:05Z</time>
      </trkpt>
      <trkpt lat="42.83711" lon="0.56227">
        <ele>1603.446</ele>
        <time>2021-03-21T13:20:07Z</time>
      </trkpt>
      <trkpt lat="42.83708" lon="0.56226">
        <ele>1603.012</ele>
        <time>2021-03-21T13:20:09Z</time>
      </trkpt>
      <trkpt lat="42.83705" lon="0.56225">
        <ele>1602.401</ele>
        <time>2021-03-21T13:20:11Z</time>
      </trkpt>
      <trkpt lat="42.83703" lon="0.56224">
        <ele>1602.261</ele>
        <time>2021-03-21T13:20:13Z</time>
      </trkpt>
      <trkpt lat="42.837" lon="0.56223">
        <ele>1602.797</ele>
        <time>2021-03-21T13:20:15Z</time>
      </trkpt>
      <trkpt lat="42.83698" lon="0.56222">
        <ele>1602.144</ele>
        <time>2021-03-21T13:20:17Z</time>
      </trkpt>
      <trkpt lat="42.83696" lon="0.5622">
        <ele>1602.567</ele>
        <time>2021-03-21T13:20:19Z</time>
      </trkpt>
      <trkpt lat="42.83693" lon="0.56219">
        <ele>1602.07</ele>
        <time>2021-03-21T13:20:21Z</time>
      </trkpt>
      <trkpt lat="42.83691" lon="0.56218">
        <ele>1601.571</ele>
        <time>2021-03-21T13:20:23Z</time>
      </trkpt>
      <trkpt lat="42.83689" lon="0.56217">
        <ele>1600.997</ele>
        <time>2021-03-21T13:20:25Z</time>
      </trkpt>
      <trkpt lat="42.83687" lon="0.56215">
        <ele>1600.431</ele>
        <time>2021-03-21T13:20:27Z</time>
      </trkpt>
      <trkpt lat="42.83685" lon="0.56213">
        <ele>1600.211</ele>
        <time>2021-03-21T13:20:29Z</time>
      </trkpt>
      <trkpt lat="42.83683" lon="0.56212">
        <ele>1599.807</ele>
        <time>2021-03-21T13:20:31Z</time>
      </trkpt>
      <trkpt lat="42.83681" lon="0.5621">
        <ele>1599.361</ele>
        <time>2021-03-21T13:20:33Z</time>
      </trkpt>
      <trkpt lat="42.83679" lon="0.56209">
        <ele>1598.94</ele>
        <time>2021-03-21T13:20:35Z</time>
      </trkpt>
      <trkpt lat="42.83676" lon="0.56206">
        <ele>1598.543</ele>
        <time>2021-03-21T13:20:38Z</time>
      </trkpt>
      <trkpt lat="42.83673" lon="0.56205">
        <ele>1598.307</ele>
        <time>2021-03-21T13:20:40Z</time>
      </trkpt>
      <trkpt lat="42.83671" lon="0.56203">
        <ele>1598.267</ele>
        <time>2021-03-21T13:20:42Z</time>
      </trkpt>
      <trkpt lat="42.83669" lon="0.56202">
        <ele>1597.866</ele>
        <time>2021-03-21T13:20:44Z</time>
      </trkpt>
      <trkpt lat="42.83667" lon="0.56201">
        <ele>1597.734</ele>
        <time>2021-03-21T13:20:46Z</time>
      </trkpt>
      <trkpt lat="42.83665" lon="0.562">
        <ele>1597.197</ele>
        <time>2021-03-21T13:20:48Z</time>
      </trkpt>
      <trkpt lat="42.83662" lon="0.56199">
        <ele>1597.282</ele>
        <time>2021-03-21T13:20:50Z</time>
      </trkpt>
      <trkpt lat="42.8366" lon="0.56198">
        <ele>1597.135</ele>
        <time>2021-03-21T13:20:52Z</time>
      </trkpt>
      <trkpt lat="42.83657" lon="0.56197">
        <ele>1597.17</ele>
        <time>2021-03-21T13:20:54Z</time>
      </trkpt>
      <trkpt lat="42.83655" lon="0.56197">
        <ele>1596.875</ele>
        <time>2021-03-21T13:20:56Z</time>
      </trkpt>
      <trkpt lat="42.83652" lon="0.56197">
        <ele>1596.482</ele>
        <time>2021-03-21T13:20:58Z</time>
      </trkpt>
      <trkpt lat="42.8365" lon="0.56197">
        <ele>1596.314</ele>
        <time>2021-03-21T13:21:00Z</time>
      </trkpt>
      <trkpt lat="42.83647" lon="0.56198">
        <ele>1596.319</ele>
        <time>2021-03-21T13:21:02Z</time>
      </trkpt>
      <trkpt lat="42.83645" lon="0.56198">
        <ele>1595.919</ele>
        <time>2021-03-21T13:21:04Z</time>
      </trkpt>
      <trkpt lat="42.83642" lon="0.56199">
        <ele>1594.804</ele>
        <time>2021-03-21T13:21:06Z</time>
      </trkpt>
      <trkpt lat="42.8364" lon="0.562">
        <ele>1594.385</ele>
        <time>2021-03-21T13:21:08Z</time>
      </trkpt>
      <trkpt lat="42.83638" lon="0.56202">
        <ele>1593.613</ele>
        <time>2021-03-21T13:21:10Z</time>
      </trkpt>
      <trkpt lat="42.83635" lon="0.56203">
        <ele>1593.87</ele>
        <time>2021-03-21T13:21:12Z</time>
      </trkpt>
      <trkpt lat="42.83632" lon="0.56203">
        <ele>1594.244</ele>
        <time>2021-03-21T13:21:14Z</time>
      </trkpt>
      <trkpt lat="42.8363" lon="0.56202">
        <ele>1594.04</ele>
        <time>2021-03-21T13:21:16Z</time>
      </trkpt>
      <trkpt lat="42.83628" lon="0.56202">
        <ele>1593.824</ele>
        <time>2021-03-21T13:21:18Z</time>
      </trkpt>
      <trkpt lat="42.83626" lon="0.56201">
        <ele>1594.264</ele>
        <time>2021-03-21T13:21:20Z</time>
      </trkpt>
      <trkpt lat="42.83624" lon="0.56199">
        <ele>1594.54</ele>
        <time>2021-03-21T13:21:22Z</time>
      </trkpt>
      <trkpt lat="42.83623" lon="0.56197">
        <ele>1594.283</ele>
        <time>2021-03-21T13:21:24Z</time>
      </trkpt>
      <trkpt lat="42.83622" lon="0.56195">
        <ele>1593.641</ele>
        <time>2021-03-21T13:21:26Z</time>
      </trkpt>
      <trkpt lat="42.8362" lon="0.56193">
        <ele>1593.641</ele>
        <time>2021-03-21T13:21:28Z</time>
      </trkpt>
      <trkpt lat="42.83619" lon="0.56191">
        <ele>1593.427</ele>
        <time>2021-03-21T13:21:30Z</time>
      </trkpt>
      <trkpt lat="42.83618" lon="0.56188">
        <ele>1593.116</ele>
        <time>2021-03-21T13:21:32Z</time>
      </trkpt>
      <trkpt lat="42.83616" lon="0.56186">
        <ele>1592.986</ele>
        <time>2021-03-21T13:21:34Z</time>
      </trkpt>
      <trkpt lat="42.83615" lon="0.56184">
        <ele>1592.381</ele>
        <time>2021-03-21T13:21:36Z</time>
      </trkpt>
      <trkpt lat="42.83613" lon="0.56182">
        <ele>1592.483</ele>
        <time>2021-03-21T13:21:38Z</time>
      </trkpt>
      <trkpt lat="42.83612" lon="0.5618">
        <ele>1592.347</ele>
        <time>2021-03-21T13:21:40Z</time>
      </trkpt>
      <trkpt lat="42.8361" lon="0.56179">
        <ele>1591.638</ele>
        <time>2021-03-21T13:21:42Z</time>
      </trkpt>
      <trkpt lat="42.83608" lon="0.56177">
        <ele>1591.032</ele>
        <time>2021-03-21T13:21:44Z</time>
      </trkpt>
      <trkpt lat="42.83606" lon="0.56176">
        <ele>1590.4</ele>
        <time>2021-03-21T13:21:46Z</time>
      </trkpt>
      <trkpt lat="42.83604" lon="0.56174">
        <ele>1590.321</ele>
        <time>2021-03-21T13:21:48Z</time>
      </trkpt>
      <trkpt lat="42.83602" lon="0.56173">
        <ele>1590.436</ele>
        <time>2021-03-21T13:21:50Z</time>
      </trkpt>
      <trkpt lat="42.83599" lon="0.56171">
        <ele>1590.001</ele>
        <time>2021-03-21T13:21:52Z</time>
      </trkpt>
      <trkpt lat="42.83597" lon="0.5617">
        <ele>1590.27</ele>
        <time>2021-03-21T13:21:54Z</time>
      </trkpt>
      <trkpt lat="42.83595" lon="0.56169">
        <ele>1590.31</ele>
        <time>2021-03-21T13:21:56Z</time>
      </trkpt>
      <trkpt lat="42.83593" lon="0.56167">
        <ele>1590.198</ele>
        <time>2021-03-21T13:21:58Z</time>
      </trkpt>
      <trkpt lat="42.8359" lon="0.56166">
        <ele>1590.09</ele>
        <time>2021-03-21T13:22:00Z</time>
      </trkpt>
      <trkpt lat="42.83588" lon="0.56165">
        <ele>1590.148</ele>
        <time>2021-03-21T13:22:02Z</time>
      </trkpt>
      <trkpt lat="42.83586" lon="0.56164">
        <ele>1589.949</ele>
        <time>2021-03-21T13:22:04Z</time>
      </trkpt>
      <trkpt lat="42.83583" lon="0.56163">
        <ele>1589.99</ele>
        <time>2021-03-21T13:22:06Z</time>
      </trkpt>
      <trkpt lat="42.83581" lon="0.56162">
        <ele>1589.947</ele>
        <time>2021-03-21T13:22:08Z</time>
      </trkpt>
      <trkpt lat="42.83579" lon="0.5616">
        <ele>1589.895</ele>
        <time>2021-03-21T13:22:10Z</time>
      </trkpt>
      <trkpt lat="42.83576" lon="0.56159">
        <ele>1589.947</ele>
        <time>2021-03-21T13:22:12Z</time>
      </trkpt>
      <trkpt lat="42.83574" lon="0.56158">
        <ele>1589.866</ele>
        <time>2021-03-21T13:22:14Z</time>
      </trkpt>
      <trkpt lat="42.83571" lon="0.56158">
        <ele>1589.427</ele>
        <time>2021-03-21T13:22:16Z</time>
      </trkpt>
      <trkpt lat="42.83569" lon="0.56157">
        <ele>1589.317</ele>
        <time>2021-03-21T13:22:18Z</time>
      </trkpt>
      <trkpt lat="42.83567" lon="0.56156">
        <ele>1589.556</ele>
        <time>2021-03-21T13:22:20Z</time>
      </trkpt>
      <trkpt lat="42.83564" lon="0.56155">
        <ele>1589.199</ele>
        <time>2021-03-21T13:22:22Z</time>
      </trkpt>
      <trkpt lat="42.83562" lon="0.56154">
        <ele>1589.045</ele>
        <time>2021-03-21T13:22:24Z</time>
      </trkpt>
      <trkpt lat="42.83559" lon="0.56154">
        <ele>1589.612</ele>
        <time>2021-03-21T13:22:26Z</time>
      </trkpt>
      <trkpt lat="42.83557" lon="0.56153">
        <ele>1589.617</ele>
        <time>2021-03-21T13:22:28Z</time>
      </trkpt>
      <trkpt lat="42.83554" lon="0.56153">
        <ele>1590.066</ele>
        <time>2021-03-21T13:22:30Z</time>
      </trkpt>
      <trkpt lat="42.83551" lon="0.56152">
        <ele>1589.984</ele>
        <time>2021-03-21T13:22:32Z</time>
      </trkpt>
      <trkpt lat="42.83549" lon="0.56152">
        <ele>1589.647</ele>
        <time>2021-03-21T13:22:34Z</time>
      </trkpt>
      <trkpt lat="42.83546" lon="0.56151">
        <ele>1589.574</ele>
        <time>2021-03-21T13:22:36Z</time>
      </trkpt>
      <trkpt lat="42.83544" lon="0.56151">
        <ele>1589.318</ele>
        <time>2021-03-21T13:22:38Z</time>
      </trkpt>
      <trkpt lat="42.83541" lon="0.56151">
        <ele>1589.389</ele>
        <time>2021-03-21T13:22:40Z</time>
      </trkpt>
      <trkpt lat="42.83538" lon="0.56151">
        <ele>1589.217</ele>
        <time>2021-03-21T13:22:42Z</time>
      </trkpt>
      <trkpt lat="42.83536" lon="0.5615">
        <ele>1589.53</ele>
        <time>2021-03-21T13:22:44Z</time>
      </trkpt>
      <trkpt lat="42.83533" lon="0.5615">
        <ele>1589.363</ele>
        <time>2021-03-21T13:22:46Z</time>
      </trkpt>
      <trkpt lat="42.83531" lon="0.5615">
        <ele>1589.694</ele>
        <time>2021-03-21T13:22:48Z</time>
      </trkpt>
      <trkpt lat="42.83528" lon="0.5615">
        <ele>1589.82</ele>
        <time>2021-03-21T13:22:50Z</time>
      </trkpt>
      <trkpt lat="42.83526" lon="0.56149">
        <ele>1589.854</ele>
        <time>2021-03-21T13:22:52Z</time>
      </trkpt>
      <trkpt lat="42.83524" lon="0.5615">
        <ele>1589.643</ele>
        <time>2021-03-21T13:22:54Z</time>
      </trkpt>
      <trkpt lat="42.83521" lon="0.56149">
        <ele>1589.965</ele>
        <time>2021-03-21T13:22:56Z</time>
      </trkpt>
      <trkpt lat="42.83519" lon="0.56148">
        <ele>1589.952</ele>
        <time>2021-03-21T13:22:58Z</time>
      </trkpt>
      <trkpt lat="42.83517" lon="0.56148">
        <ele>1590.107</ele>
        <time>2021-03-21T13:23:00Z</time>
      </trkpt>
      <trkpt lat="42.83514" lon="0.56148">
        <ele>1590.872</ele>
        <time>2021-03-21T13:23:02Z</time>
      </trkpt>
      <trkpt lat="42.83512" lon="0.56148">
        <ele>1591.643</ele>
        <time>2021-03-21T13:23:04Z</time>
      </trkpt>
      <trkpt lat="42.8351" lon="0.56149">
        <ele>1591.313</ele>
        <time>2021-03-21T13:23:06Z</time>
      </trkpt>
      <trkpt lat="42.83508" lon="0.56149">
        <ele>1590.968</ele>
        <time>2021-03-21T13:23:08Z</time>
      </trkpt>
      <trkpt lat="42.83505" lon="0.56149">
        <ele>1590.485</ele>
        <time>2021-03-21T13:23:10Z</time>
      </trkpt>
      <trkpt lat="42.83503" lon="0.5615">
        <ele>1589.963</ele>
        <time>2021-03-21T13:23:12Z</time>
      </trkpt>
      <trkpt lat="42.83501" lon="0.5615">
        <ele>1589.264</ele>
        <time>2021-03-21T13:23:14Z</time>
      </trkpt>
      <trkpt lat="42.83499" lon="0.56151">
        <ele>1588.761</ele>
        <time>2021-03-21T13:23:16Z</time>
      </trkpt>
      <trkpt lat="42.83496" lon="0.56151">
        <ele>1588.547</ele>
        <time>2021-03-21T13:23:18Z</time>
      </trkpt>
      <trkpt lat="42.83494" lon="0.56152">
        <ele>1587.841</ele>
        <time>2021-03-21T13:23:20Z</time>
      </trkpt>
      <trkpt lat="42.83492" lon="0.56152">
        <ele>1587.888</ele>
        <time>2021-03-21T13:23:22Z</time>
      </trkpt>
      <trkpt lat="42.83489" lon="0.56153">
        <ele>1587.192</ele>
        <time>2021-03-21T13:23:24Z</time>
      </trkpt>
      <trkpt lat="42.83487" lon="0.56154">
        <ele>1587.001</ele>
        <time>2021-03-21T13:23:26Z</time>
      </trkpt>
      <trkpt lat="42.83485" lon="0.56155">
        <ele>1586.87</ele>
        <time>2021-03-21T13:23:28Z</time>
      </trkpt>
      <trkpt lat="42.83482" lon="0.56155">
        <ele>1586.727</ele>
        <time>2021-03-21T13:23:30Z</time>
      </trkpt>
      <trkpt lat="42.8348" lon="0.56156">
        <ele>1586.237</ele>
        <time>2021-03-21T13:23:32Z</time>
      </trkpt>
      <trkpt lat="42.83478" lon="0.56157">
        <ele>1586.027</ele>
        <time>2021-03-21T13:23:34Z</time>
      </trkpt>
      <trkpt lat="42.83476" lon="0.56159">
        <ele>1585.488</ele>
        <time>2021-03-21T13:23:36Z</time>
      </trkpt>
      <trkpt lat="42.83474" lon="0.56161">
        <ele>1585.01</ele>
        <time>2021-03-21T13:23:38Z</time>
      </trkpt>
      <trkpt lat="42.83472" lon="0.56162">
        <ele>1584.694</ele>
        <time>2021-03-21T13:23:40Z</time>
      </trkpt>
      <trkpt lat="42.8347" lon="0.56164">
        <ele>1584.618</ele>
        <time>2021-03-21T13:23:42Z</time>
      </trkpt>
      <trkpt lat="42.83469" lon="0.56166">
        <ele>1584.659</ele>
        <time>2021-03-21T13:23:44Z</time>
      </trkpt>
      <trkpt lat="42.83467" lon="0.56169">
        <ele>1584.01</ele>
        <time>2021-03-21T13:23:46Z</time>
      </trkpt>
      <trkpt lat="42.83465" lon="0.56171">
        <ele>1583.566</ele>
        <time>2021-03-21T13:23:48Z</time>
      </trkpt>
      <trkpt lat="42.83464" lon="0.56173">
        <ele>1583.613</ele>
        <time>2021-03-21T13:23:50Z</time>
      </trkpt>
      <trkpt lat="42.83462" lon="0.56176">
        <ele>1583.361</ele>
        <time>2021-03-21T13:23:52Z</time>
      </trkpt>
      <trkpt lat="42.8346" lon="0.56178">
        <ele>1582.801</ele>
        <time>2021-03-21T13:23:54Z</time>
      </trkpt>
      <trkpt lat="42.83458" lon="0.56179">
        <ele>1582.67</ele>
        <time>2021-03-21T13:23:56Z</time>
      </trkpt>
      <trkpt lat="42.83456" lon="0.5618">
        <ele>1582.752</ele>
        <time>2021-03-21T13:23:58Z</time>
      </trkpt>
      <trkpt lat="42.83454" lon="0.56178">
        <ele>1582.232</ele>
        <time>2021-03-21T13:24:00Z</time>
      </trkpt>
      <trkpt lat="42.83452" lon="0.56176">
        <ele>1581.982</ele>
        <time>2021-03-21T13:24:02Z</time>
      </trkpt>
      <trkpt lat="42.83451" lon="0.56173">
        <ele>1581.266</ele>
        <time>2021-03-21T13:24:04Z</time>
      </trkpt>
      <trkpt lat="42.83451" lon="0.56169">
        <ele>1580.942</ele>
        <time>2021-03-21T13:24:06Z</time>
      </trkpt>
      <trkpt lat="42.83453" lon="0.56166">
        <ele>1581.069</ele>
        <time>2021-03-21T13:24:08Z</time>
      </trkpt>
      <trkpt lat="42.83454" lon="0.56163">
        <ele>1580.571</ele>
        <time>2021-03-21T13:24:10Z</time>
      </trkpt>
      <trkpt lat="42.83455" lon="0.56161">
        <ele>1579.851</ele>
        <time>2021-03-21T13:24:12Z</time>
      </trkpt>
      <trkpt lat="42.83456" lon="0.56158">
        <ele>1579.529</ele>
        <time>2021-03-21T13:24:14Z</time>
      </trkpt>
      <trkpt lat="42.83458" lon="0.56155">
        <ele>1578.696</ele>
        <time>2021-03-21T13:24:16Z</time>
      </trkpt>
      <trkpt lat="42.83459" lon="0.56152">
        <ele>1578.365</ele>
        <time>2021-03-21T13:24:18Z</time>
      </trkpt>
      <trkpt lat="42.8346" lon="0.5615">
        <ele>1578.106</ele>
        <time>2021-03-21T13:24:20Z</time>
      </trkpt>
      <trkpt lat="42.83461" lon="0.56147">
        <ele>1577.79</ele>
        <time>2021-03-21T13:24:22Z</time>
      </trkpt>
      <trkpt lat="42.83462" lon="0.56145">
        <ele>1577.323</ele>
        <time>2021-03-21T13:24:24Z</time>
      </trkpt>
      <trkpt lat="42.83463" lon="0.56142">
        <ele>1577</ele>
        <time>2021-03-21T13:24:26Z</time>
      </trkpt>
      <trkpt lat="42.83464" lon="0.56139">
        <ele>1576.995</ele>
        <time>2021-03-21T13:24:28Z</time>
      </trkpt>
      <trkpt lat="42.83465" lon="0.56136">
        <ele>1576.664</ele>
        <time>2021-03-21T13:24:30Z</time>
      </trkpt>
      <trkpt lat="42.83465" lon="0.56133">
        <ele>1576.853</ele>
        <time>2021-03-21T13:24:32Z</time>
      </trkpt>
      <trkpt lat="42.83465" lon="0.5613">
        <ele>1577.02</ele>
        <time>2021-03-21T13:24:34Z</time>
      </trkpt>
      <trkpt lat="42.83465" lon="0.56127">
        <ele>1576.503</ele>
        <time>2021-03-21T13:24:36Z</time>
      </trkpt>
      <trkpt lat="42.83464" lon="0.56124">
        <ele>1575.956</ele>
        <time>2021-03-21T13:24:38Z</time>
      </trkpt>
      <trkpt lat="42.83461" lon="0.56122">
        <ele>1575.416</ele>
        <time>2021-03-21T13:24:40Z</time>
      </trkpt>
      <trkpt lat="42.83459" lon="0.56122">
        <ele>1574.613</ele>
        <time>2021-03-21T13:24:42Z</time>
      </trkpt>
      <trkpt lat="42.83456" lon="0.56122">
        <ele>1574.445</ele>
        <time>2021-03-21T13:24:44Z</time>
      </trkpt>
      <trkpt lat="42.83454" lon="0.56122">
        <ele>1574.663</ele>
        <time>2021-03-21T13:24:46Z</time>
      </trkpt>
      <trkpt lat="42.83451" lon="0.56124">
        <ele>1574.324</ele>
        <time>2021-03-21T13:24:48Z</time>
      </trkpt>
      <trkpt lat="42.83449" lon="0.56126">
        <ele>1574.251</ele>
        <time>2021-03-21T13:24:50Z</time>
      </trkpt>
      <trkpt lat="42.83448" lon="0.56128">
        <ele>1573.503</ele>
        <time>2021-03-21T13:24:52Z</time>
      </trkpt>
      <trkpt lat="42.83446" lon="0.5613">
        <ele>1574.13</ele>
        <time>2021-03-21T13:24:54Z</time>
      </trkpt>
      <trkpt lat="42.83445" lon="0.56132">
        <ele>1574.441</ele>
        <time>2021-03-21T13:24:56Z</time>
      </trkpt>
      <trkpt lat="42.83443" lon="0.56135">
        <ele>1574.273</ele>
        <time>2021-03-21T13:24:58Z</time>
      </trkpt>
      <trkpt lat="42.83441" lon="0.56138">
        <ele>1574.461</ele>
        <time>2021-03-21T13:25:00Z</time>
      </trkpt>
      <trkpt lat="42.8344" lon="0.56141">
        <ele>1574.12</ele>
        <time>2021-03-21T13:25:02Z</time>
      </trkpt>
      <trkpt lat="42.83438" lon="0.56143">
        <ele>1573.088</ele>
        <time>2021-03-21T13:25:04Z</time>
      </trkpt>
      <trkpt lat="42.83437" lon="0.56145">
        <ele>1573.133</ele>
        <time>2021-03-21T13:25:06Z</time>
      </trkpt>
      <trkpt lat="42.83435" lon="0.56147">
        <ele>1573.559</ele>
        <time>2021-03-21T13:25:08Z</time>
      </trkpt>
      <trkpt lat="42.83434" lon="0.56149">
        <ele>1573.18</ele>
        <time>2021-03-21T13:25:10Z</time>
      </trkpt>
      <trkpt lat="42.83433" lon="0.56151">
        <ele>1572.989</ele>
        <time>2021-03-21T13:25:12Z</time>
      </trkpt>
      <trkpt lat="42.83431" lon="0.56153">
        <ele>1573.084</ele>
        <time>2021-03-21T13:25:14Z</time>
      </trkpt>
      <trkpt lat="42.8343" lon="0.56156">
        <ele>1572.646</ele>
        <time>2021-03-21T13:25:16Z</time>
      </trkpt>
      <trkpt lat="42.83428" lon="0.56158">
        <ele>1572.572</ele>
        <time>2021-03-21T13:25:18Z</time>
      </trkpt>
      <trkpt lat="42.83427" lon="0.56161">
        <ele>1572.546</ele>
        <time>2021-03-21T13:25:20Z</time>
      </trkpt>
      <trkpt lat="42.83426" lon="0.56164">
        <ele>1572.354</ele>
        <time>2021-03-21T13:25:22Z</time>
      </trkpt>
      <trkpt lat="42.83424" lon="0.56166">
        <ele>1572.473</ele>
        <time>2021-03-21T13:25:24Z</time>
      </trkpt>
      <trkpt lat="42.83422" lon="0.56168">
        <ele>1571.978</ele>
        <time>2021-03-21T13:25:26Z</time>
      </trkpt>
      <trkpt lat="42.83421" lon="0.56171">
        <ele>1571.22</ele>
        <time>2021-03-21T13:25:28Z</time>
      </trkpt>
      <trkpt lat="42.8342" lon="0.56173">
        <ele>1570.919</ele>
        <time>2021-03-21T13:25:30Z</time>
      </trkpt>
      <trkpt lat="42.83419" lon="0.56175">
        <ele>1570.007</ele>
        <time>2021-03-21T13:25:32Z</time>
      </trkpt>
      <trkpt lat="42.83419" lon="0.56177">
        <ele>1568.845</ele>
        <time>2021-03-21T13:25:34Z</time>
      </trkpt>
      <trkpt lat="42.83418" lon="0.5618">
        <ele>1568.872</ele>
        <time>2021-03-21T13:25:36Z</time>
      </trkpt>
      <trkpt lat="42.83417" lon="0.56183">
        <ele>1568.047</ele>
        <time>2021-03-21T13:25:38Z</time>
      </trkpt>
      <trkpt lat="42.83416" lon="0.56185">
        <ele>1567.663</ele>
        <time>2021-03-21T13:25:40Z</time>
      </trkpt>
      <trkpt lat="42.83415" lon="0.56188">
        <ele>1567.213</ele>
        <time>2021-03-21T13:25:42Z</time>
      </trkpt>
      <trkpt lat="42.83414" lon="0.56189">
        <ele>1566.901</ele>
        <time>2021-03-21T13:25:43Z</time>
      </trkpt>
      <trkpt lat="42.83413" lon="0.56193">
        <ele>1565.994</ele>
        <time>2021-03-21T13:25:46Z</time>
      </trkpt>
      <trkpt lat="42.83412" lon="0.56196">
        <ele>1565.27</ele>
        <time>2021-03-21T13:25:48Z</time>
      </trkpt>
      <trkpt lat="42.83412" lon="0.56199">
        <ele>1564.188</ele>
        <time>2021-03-21T13:25:50Z</time>
      </trkpt>
      <trkpt lat="42.8341" lon="0.56201">
        <ele>1563.888</ele>
        <time>2021-03-21T13:25:52Z</time>
      </trkpt>
      <trkpt lat="42.83409" lon="0.56204">
        <ele>1563.788</ele>
        <time>2021-03-21T13:25:54Z</time>
      </trkpt>
      <trkpt lat="42.83408" lon="0.56206">
        <ele>1563.739</ele>
        <time>2021-03-21T13:25:56Z</time>
      </trkpt>
      <trkpt lat="42.83407" lon="0.56209">
        <ele>1563.27</ele>
        <time>2021-03-21T13:25:58Z</time>
      </trkpt>
      <trkpt lat="42.83406" lon="0.56212">
        <ele>1563.485</ele>
        <time>2021-03-21T13:26:00Z</time>
      </trkpt>
      <trkpt lat="42.83405" lon="0.56214">
        <ele>1563.134</ele>
        <time>2021-03-21T13:26:02Z</time>
      </trkpt>
      <trkpt lat="42.83404" lon="0.56217">
        <ele>1562.319</ele>
        <time>2021-03-21T13:26:04Z</time>
      </trkpt>
      <trkpt lat="42.83404" lon="0.5622">
        <ele>1561.874</ele>
        <time>2021-03-21T13:26:06Z</time>
      </trkpt>
      <trkpt lat="42.83404" lon="0.56223">
        <ele>1561.613</ele>
        <time>2021-03-21T13:26:08Z</time>
      </trkpt>
      <trkpt lat="42.83404" lon="0.56225">
        <ele>1560.782</ele>
        <time>2021-03-21T13:26:10Z</time>
      </trkpt>
      <trkpt lat="42.83404" lon="0.56228">
        <ele>1559.908</ele>
        <time>2021-03-21T13:26:12Z</time>
      </trkpt>
      <trkpt lat="42.83404" lon="0.56231">
        <ele>1559.567</ele>
        <time>2021-03-21T13:26:14Z</time>
      </trkpt>
      <trkpt lat="42.83403" lon="0.56234">
        <ele>1559.236</ele>
        <time>2021-03-21T13:26:16Z</time>
      </trkpt>
      <trkpt lat="42.83403" lon="0.56238">
        <ele>1558.625</ele>
        <time>2021-03-21T13:26:18Z</time>
      </trkpt>
      <trkpt lat="42.83403" lon="0.56241">
        <ele>1558.183</ele>
        <time>2021-03-21T13:26:20Z</time>
      </trkpt>
      <trkpt lat="42.83403" lon="0.56244">
        <ele>1558.081</ele>
        <time>2021-03-21T13:26:22Z</time>
      </trkpt>
      <trkpt lat="42.83403" lon="0.56247">
        <ele>1557.375</ele>
        <time>2021-03-21T13:26:24Z</time>
      </trkpt>
      <trkpt lat="42.83402" lon="0.5625">
        <ele>1557.026</ele>
        <time>2021-03-21T13:26:26Z</time>
      </trkpt>
      <trkpt lat="42.83402" lon="0.56251">
        <ele>1557.599</ele>
        <time>2021-03-21T13:26:27Z</time>
      </trkpt>
      <trkpt lat="42.83402" lon="0.56256">
        <ele>1557.176</ele>
        <time>2021-03-21T13:26:30Z</time>
      </trkpt>
      <trkpt lat="42.83401" lon="0.56259">
        <ele>1556.68</ele>
        <time>2021-03-21T13:26:32Z</time>
      </trkpt>
      <trkpt lat="42.83401" lon="0.56262">
        <ele>1556.287</ele>
        <time>2021-03-21T13:26:34Z</time>
      </trkpt>
      <trkpt lat="42.834" lon="0.56265">
        <ele>1556.539</ele>
        <time>2021-03-21T13:26:36Z</time>
      </trkpt>
      <trkpt lat="42.834" lon="0.56268">
        <ele>1555.999</ele>
        <time>2021-03-21T13:26:38Z</time>
      </trkpt>
      <trkpt lat="42.83399" lon="0.56272">
        <ele>1555.544</ele>
        <time>2021-03-21T13:26:40Z</time>
      </trkpt>
      <trkpt lat="42.83398" lon="0.56275">
        <ele>1554.93</ele>
        <time>2021-03-21T13:26:42Z</time>
      </trkpt>
      <trkpt lat="42.83398" lon="0.56278">
        <ele>1554.762</ele>
        <time>2021-03-21T13:26:44Z</time>
      </trkpt>
      <trkpt lat="42.83397" lon="0.56281">
        <ele>1554.573</ele>
        <time>2021-03-21T13:26:46Z</time>
      </trkpt>
      <trkpt lat="42.83397" lon="0.56285">
        <ele>1554.408</ele>
        <time>2021-03-21T13:26:48Z</time>
      </trkpt>
      <trkpt lat="42.83396" lon="0.56288">
        <ele>1554.471</ele>
        <time>2021-03-21T13:26:50Z</time>
      </trkpt>
      <trkpt lat="42.83395" lon="0.56291">
        <ele>1553.981</ele>
        <time>2021-03-21T13:26:52Z</time>
      </trkpt>
      <trkpt lat="42.83394" lon="0.56293">
        <ele>1553.681</ele>
        <time>2021-03-21T13:26:54Z</time>
      </trkpt>
      <trkpt lat="42.83393" lon="0.56297">
        <ele>1553.267</ele>
        <time>2021-03-21T13:26:56Z</time>
      </trkpt>
      <trkpt lat="42.83391" lon="0.563">
        <ele>1553.068</ele>
        <time>2021-03-21T13:26:58Z</time>
      </trkpt>
      <trkpt lat="42.8339" lon="0.56303">
        <ele>1552.622</ele>
        <time>2021-03-21T13:27:00Z</time>
      </trkpt>
      <trkpt lat="42.83389" lon="0.56306">
        <ele>1552.339</ele>
        <time>2021-03-21T13:27:02Z</time>
      </trkpt>
      <trkpt lat="42.83388" lon="0.5631">
        <ele>1552.039</ele>
        <time>2021-03-21T13:27:05Z</time>
      </trkpt>
      <trkpt lat="42.83386" lon="0.56313">
        <ele>1552.2</ele>
        <time>2021-03-21T13:27:07Z</time>
      </trkpt>
      <trkpt lat="42.83385" lon="0.56316">
        <ele>1551.687</ele>
        <time>2021-03-21T13:27:09Z</time>
      </trkpt>
      <trkpt lat="42.83384" lon="0.56319">
        <ele>1550.953</ele>
        <time>2021-03-21T13:27:11Z</time>
      </trkpt>
      <trkpt lat="42.83383" lon="0.56322">
        <ele>1550.828</ele>
        <time>2021-03-21T13:27:13Z</time>
      </trkpt>
      <trkpt lat="42.83381" lon="0.56325">
        <ele>1551.001</ele>
        <time>2021-03-21T13:27:15Z</time>
      </trkpt>
      <trkpt lat="42.8338" lon="0.56328">
        <ele>1550.234</ele>
        <time>2021-03-21T13:27:17Z</time>
      </trkpt>
      <trkpt lat="42.83379" lon="0.56331">
        <ele>1549.815</ele>
        <time>2021-03-21T13:27:19Z</time>
      </trkpt>
      <trkpt lat="42.83378" lon="0.56334">
        <ele>1549.226</ele>
        <time>2021-03-21T13:27:21Z</time>
      </trkpt>
      <trkpt lat="42.83377" lon="0.56337">
        <ele>1549.032</ele>
        <time>2021-03-21T13:27:23Z</time>
      </trkpt>
      <trkpt lat="42.83375" lon="0.5634">
        <ele>1549.387</ele>
        <time>2021-03-21T13:27:25Z</time>
      </trkpt>
      <trkpt lat="42.83374" lon="0.56343">
        <ele>1549.164</ele>
        <time>2021-03-21T13:27:27Z</time>
      </trkpt>
      <trkpt lat="42.83373" lon="0.56346">
        <ele>1548.086</ele>
        <time>2021-03-21T13:27:29Z</time>
      </trkpt>
      <trkpt lat="42.83372" lon="0.56349">
        <ele>1547.856</ele>
        <time>2021-03-21T13:27:31Z</time>
      </trkpt>
      <trkpt lat="42.83371" lon="0.56351">
        <ele>1548.031</ele>
        <time>2021-03-21T13:27:32Z</time>
      </trkpt>
      <trkpt lat="42.83369" lon="0.56355">
        <ele>1548.252</ele>
        <time>2021-03-21T13:27:35Z</time>
      </trkpt>
      <trkpt lat="42.83367" lon="0.56358">
        <ele>1548.072</ele>
        <time>2021-03-21T13:27:37Z</time>
      </trkpt>
      <trkpt lat="42.83366" lon="0.56362">
        <ele>1547.578</ele>
        <time>2021-03-21T13:27:39Z</time>
      </trkpt>
      <trkpt lat="42.83365" lon="0.56365">
        <ele>1547.825</ele>
        <time>2021-03-21T13:27:41Z</time>
      </trkpt>
      <trkpt lat="42.83363" lon="0.56368">
        <ele>1547.391</ele>
        <time>2021-03-21T13:27:43Z</time>
      </trkpt>
      <trkpt lat="42.83362" lon="0.56371">
        <ele>1547.01</ele>
        <time>2021-03-21T13:27:45Z</time>
      </trkpt>
      <trkpt lat="42.8336" lon="0.56374">
        <ele>1546.449</ele>
        <time>2021-03-21T13:27:47Z</time>
      </trkpt>
      <trkpt lat="42.83359" lon="0.56376">
        <ele>1546.073</ele>
        <time>2021-03-21T13:27:49Z</time>
      </trkpt>
      <trkpt lat="42.83357" lon="0.56378">
        <ele>1545.514</ele>
        <time>2021-03-21T13:27:51Z</time>
      </trkpt>
      <trkpt lat="42.83355" lon="0.56381">
        <ele>1544.928</ele>
        <time>2021-03-21T13:27:53Z</time>
      </trkpt>
      <trkpt lat="42.83354" lon="0.56383">
        <ele>1544.893</ele>
        <time>2021-03-21T13:27:55Z</time>
      </trkpt>
      <trkpt lat="42.83351" lon="0.56383">
        <ele>1544.997</ele>
        <time>2021-03-21T13:27:57Z</time>
      </trkpt>
      <trkpt lat="42.83349" lon="0.56383">
        <ele>1545.117</ele>
        <time>2021-03-21T13:27:59Z</time>
      </trkpt>
      <trkpt lat="42.83348" lon="0.5638">
        <ele>1543.956</ele>
        <time>2021-03-21T13:28:01Z</time>
      </trkpt>
      <trkpt lat="42.83348" lon="0.56377">
        <ele>1542.688</ele>
        <time>2021-03-21T13:28:03Z</time>
      </trkpt>
      <trkpt lat="42.83348" lon="0.56373">
        <ele>1542.33</ele>
        <time>2021-03-21T13:28:05Z</time>
      </trkpt>
      <trkpt lat="42.83349" lon="0.56369">
        <ele>1542.652</ele>
        <time>2021-03-21T13:28:07Z</time>
      </trkpt>
      <trkpt lat="42.83351" lon="0.56366">
        <ele>1541.278</ele>
        <time>2021-03-21T13:28:09Z</time>
      </trkpt>
      <trkpt lat="42.83352" lon="0.56363">
        <ele>1540.26</ele>
        <time>2021-03-21T13:28:11Z</time>
      </trkpt>
      <trkpt lat="42.83354" lon="0.5636">
        <ele>1539.148</ele>
        <time>2021-03-21T13:28:13Z</time>
      </trkpt>
      <trkpt lat="42.83355" lon="0.56357">
        <ele>1538.647</ele>
        <time>2021-03-21T13:28:15Z</time>
      </trkpt>
      <trkpt lat="42.83357" lon="0.56354">
        <ele>1537.74</ele>
        <time>2021-03-21T13:28:17Z</time>
      </trkpt>
      <trkpt lat="42.83359" lon="0.56352">
        <ele>1537.177</ele>
        <time>2021-03-21T13:28:19Z</time>
      </trkpt>
      <trkpt lat="42.8336" lon="0.56349">
        <ele>1536.44</ele>
        <time>2021-03-21T13:28:21Z</time>
      </trkpt>
      <trkpt lat="42.83361" lon="0.56346">
        <ele>1536.014</ele>
        <time>2021-03-21T13:28:23Z</time>
      </trkpt>
      <trkpt lat="42.83362" lon="0.56343">
        <ele>1536.208</ele>
        <time>2021-03-21T13:28:25Z</time>
      </trkpt>
      <trkpt lat="42.83363" lon="0.5634">
        <ele>1535.523</ele>
        <time>2021-03-21T13:28:27Z</time>
      </trkpt>
      <trkpt lat="42.83364" lon="0.56337">
        <ele>1534.595</ele>
        <time>2021-03-21T13:28:29Z</time>
      </trkpt>
      <trkpt lat="42.83365" lon="0.56333">
        <ele>1534.433</ele>
        <time>2021-03-21T13:28:31Z</time>
      </trkpt>
      <trkpt lat="42.83365" lon="0.5633">
        <ele>1534.419</ele>
        <time>2021-03-21T13:28:33Z</time>
      </trkpt>
      <trkpt lat="42.83366" lon="0.56327">
        <ele>1534.964</ele>
        <time>2021-03-21T13:28:35Z</time>
      </trkpt>
      <trkpt lat="42.83366" lon="0.56324">
        <ele>1534.257</ele>
        <time>2021-03-21T13:28:37Z</time>
      </trkpt>
      <trkpt lat="42.83365" lon="0.56319">
        <ele>1533.968</ele>
        <time>2021-03-21T13:28:40Z</time>
      </trkpt>
      <trkpt lat="42.83365" lon="0.56316">
        <ele>1533.689</ele>
        <time>2021-03-21T13:28:42Z</time>
      </trkpt>
      <trkpt lat="42.83365" lon="0.56312">
        <ele>1533.675</ele>
        <time>2021-03-21T13:28:44Z</time>
      </trkpt>
      <trkpt lat="42.83365" lon="0.56309">
        <ele>1533.354</ele>
        <time>2021-03-21T13:28:46Z</time>
      </trkpt>
      <trkpt lat="42.83365" lon="0.56306">
        <ele>1533.323</ele>
        <time>2021-03-21T13:28:48Z</time>
      </trkpt>
      <trkpt lat="42.83365" lon="0.56303">
        <ele>1533.117</ele>
        <time>2021-03-21T13:28:50Z</time>
      </trkpt>
      <trkpt lat="42.83365" lon="0.563">
        <ele>1532.368</ele>
        <time>2021-03-21T13:28:52Z</time>
      </trkpt>
      <trkpt lat="42.83365" lon="0.56297">
        <ele>1531.921</ele>
        <time>2021-03-21T13:28:54Z</time>
      </trkpt>
      <trkpt lat="42.83365" lon="0.56293">
        <ele>1531.716</ele>
        <time>2021-03-21T13:28:56Z</time>
      </trkpt>
      <trkpt lat="42.83365" lon="0.5629">
        <ele>1531.638</ele>
        <time>2021-03-21T13:28:58Z</time>
      </trkpt>
      <trkpt lat="42.83365" lon="0.56287">
        <ele>1531.639</ele>
        <time>2021-03-21T13:29:00Z</time>
      </trkpt>
      <trkpt lat="42.83364" lon="0.56284">
        <ele>1531.678</ele>
        <time>2021-03-21T13:29:02Z</time>
      </trkpt>
      <trkpt lat="42.83364" lon="0.5628">
        <ele>1532.693</ele>
        <time>2021-03-21T13:29:04Z</time>
      </trkpt>
      <trkpt lat="42.83363" lon="0.56277">
        <ele>1532.074</ele>
        <time>2021-03-21T13:29:06Z</time>
      </trkpt>
      <trkpt lat="42.83363" lon="0.56273">
        <ele>1531.982</ele>
        <time>2021-03-21T13:29:08Z</time>
      </trkpt>
      <trkpt lat="42.83362" lon="0.5627">
        <ele>1531.565</ele>
        <time>2021-03-21T13:29:10Z</time>
      </trkpt>
      <trkpt lat="42.83362" lon="0.56266">
        <ele>1531.688</ele>
        <time>2021-03-21T13:29:12Z</time>
      </trkpt>
      <trkpt lat="42.83361" lon="0.56263">
        <ele>1531.174</ele>
        <time>2021-03-21T13:29:14Z</time>
      </trkpt>
      <trkpt lat="42.83361" lon="0.5626">
        <ele>1530.418</ele>
        <time>2021-03-21T13:29:16Z</time>
      </trkpt>
      <trkpt lat="42.83361" lon="0.56256">
        <ele>1529.869</ele>
        <time>2021-03-21T13:29:18Z</time>
      </trkpt>
      <trkpt lat="42.83361" lon="0.56253">
        <ele>1529.669</ele>
        <time>2021-03-21T13:29:20Z</time>
      </trkpt>
      <trkpt lat="42.8336" lon="0.56249">
        <ele>1529.437</ele>
        <time>2021-03-21T13:29:22Z</time>
      </trkpt>
      <trkpt lat="42.8336" lon="0.56245">
        <ele>1529.072</ele>
        <time>2021-03-21T13:29:24Z</time>
      </trkpt>
      <trkpt lat="42.8336" lon="0.56242">
        <ele>1528.944</ele>
        <time>2021-03-21T13:29:26Z</time>
      </trkpt>
      <trkpt lat="42.8336" lon="0.56239">
        <ele>1529.423</ele>
        <time>2021-03-21T13:29:28Z</time>
      </trkpt>
      <trkpt lat="42.83359" lon="0.56235">
        <ele>1529.457</ele>
        <time>2021-03-21T13:29:30Z</time>
      </trkpt>
      <trkpt lat="42.83359" lon="0.56232">
        <ele>1528.928</ele>
        <time>2021-03-21T13:29:32Z</time>
      </trkpt>
      <trkpt lat="42.83359" lon="0.56228">
        <ele>1528.584</ele>
        <time>2021-03-21T13:29:34Z</time>
      </trkpt>
      <trkpt lat="42.83358" lon="0.56225">
        <ele>1527.335</ele>
        <time>2021-03-21T13:29:36Z</time>
      </trkpt>
      <trkpt lat="42.83358" lon="0.56222">
        <ele>1527.118</ele>
        <time>2021-03-21T13:29:38Z</time>
      </trkpt>
      <trkpt lat="42.83358" lon="0.56218">
        <ele>1526.964</ele>
        <time>2021-03-21T13:29:40Z</time>
      </trkpt>
      <trkpt lat="42.83357" lon="0.56214">
        <ele>1526.793</ele>
        <time>2021-03-21T13:29:42Z</time>
      </trkpt>
      <trkpt lat="42.83357" lon="0.56211">
        <ele>1526.412</ele>
        <time>2021-03-21T13:29:44Z</time>
      </trkpt>
      <trkpt lat="42.83357" lon="0.56207">
        <ele>1525.82</ele>
        <time>2021-03-21T13:29:46Z</time>
      </trkpt>
      <trkpt lat="42.83356" lon="0.56204">
        <ele>1525.961</ele>
        <time>2021-03-21T13:29:48Z</time>
      </trkpt>
      <trkpt lat="42.83356" lon="0.562">
        <ele>1526.651</ele>
        <time>2021-03-21T13:29:50Z</time>
      </trkpt>
      <trkpt lat="42.83355" lon="0.56197">
        <ele>1526.708</ele>
        <time>2021-03-21T13:29:52Z</time>
      </trkpt>
      <trkpt lat="42.83356" lon="0.56194">
        <ele>1526.364</ele>
        <time>2021-03-21T13:29:54Z</time>
      </trkpt>
      <trkpt lat="42.83356" lon="0.5619">
        <ele>1525.975</ele>
        <time>2021-03-21T13:29:56Z</time>
      </trkpt>
      <trkpt lat="42.83356" lon="0.56187">
        <ele>1525.57</ele>
        <time>2021-03-21T13:29:58Z</time>
      </trkpt>
      <trkpt lat="42.83355" lon="0.56184">
        <ele>1525.51</ele>
        <time>2021-03-21T13:30:00Z</time>
      </trkpt>
      <trkpt lat="42.83355" lon="0.56181">
        <ele>1525.451</ele>
        <time>2021-03-21T13:30:02Z</time>
      </trkpt>
      <trkpt lat="42.83356" lon="0.56177">
        <ele>1524.624</ele>
        <time>2021-03-21T13:30:04Z</time>
      </trkpt>
      <trkpt lat="42.83356" lon="0.56174">
        <ele>1523.633</ele>
        <time>2021-03-21T13:30:06Z</time>
      </trkpt>
      <trkpt lat="42.83356" lon="0.56171">
        <ele>1523.039</ele>
        <time>2021-03-21T13:30:08Z</time>
      </trkpt>
      <trkpt lat="42.83356" lon="0.56168">
        <ele>1523.027</ele>
        <time>2021-03-21T13:30:10Z</time>
      </trkpt>
      <trkpt lat="42.83356" lon="0.56164">
        <ele>1522.57</ele>
        <time>2021-03-21T13:30:12Z</time>
      </trkpt>
      <trkpt lat="42.83356" lon="0.56161">
        <ele>1522.551</ele>
        <time>2021-03-21T13:30:14Z</time>
      </trkpt>
      <trkpt lat="42.83356" lon="0.56158">
        <ele>1522.147</ele>
        <time>2021-03-21T13:30:16Z</time>
      </trkpt>
      <trkpt lat="42.83357" lon="0.56155">
        <ele>1521.935</ele>
        <time>2021-03-21T13:30:18Z</time>
      </trkpt>
      <trkpt lat="42.83356" lon="0.56152">
        <ele>1520.789</ele>
        <time>2021-03-21T13:30:20Z</time>
      </trkpt>
      <trkpt lat="42.83356" lon="0.56149">
        <ele>1520.339</ele>
        <time>2021-03-21T13:30:22Z</time>
      </trkpt>
      <trkpt lat="42.83357" lon="0.56146">
        <ele>1519.778</ele>
        <time>2021-03-21T13:30:24Z</time>
      </trkpt>
      <trkpt lat="42.83357" lon="0.56142">
        <ele>1519.558</ele>
        <time>2021-03-21T13:30:26Z</time>
      </trkpt>
      <trkpt lat="42.83358" lon="0.56139">
        <ele>1519.259</ele>
        <time>2021-03-21T13:30:28Z</time>
      </trkpt>
      <trkpt lat="42.83358" lon="0.56136">
        <ele>1518.664</ele>
        <time>2021-03-21T13:30:30Z</time>
      </trkpt>
      <trkpt lat="42.83358" lon="0.56133">
        <ele>1518.497</ele>
        <time>2021-03-21T13:30:32Z</time>
      </trkpt>
      <trkpt lat="42.83358" lon="0.5613">
        <ele>1518.217</ele>
        <time>2021-03-21T13:30:34Z</time>
      </trkpt>
      <trkpt lat="42.83358" lon="0.56127">
        <ele>1517.795</ele>
        <time>2021-03-21T13:30:36Z</time>
      </trkpt>
      <trkpt lat="42.83359" lon="0.56124">
        <ele>1517.52</ele>
        <time>2021-03-21T13:30:38Z</time>
      </trkpt>
      <trkpt lat="42.83359" lon="0.56121">
        <ele>1517.186</ele>
        <time>2021-03-21T13:30:40Z</time>
      </trkpt>
      <trkpt lat="42.8336" lon="0.56118">
        <ele>1516.989</ele>
        <time>2021-03-21T13:30:42Z</time>
      </trkpt>
      <trkpt lat="42.8336" lon="0.56115">
        <ele>1516.528</ele>
        <time>2021-03-21T13:30:44Z</time>
      </trkpt>
      <trkpt lat="42.83361" lon="0.56112">
        <ele>1516.173</ele>
        <time>2021-03-21T13:30:46Z</time>
      </trkpt>
      <trkpt lat="42.83361" lon="0.56109">
        <ele>1515.741</ele>
        <time>2021-03-21T13:30:48Z</time>
      </trkpt>
      <trkpt lat="42.83362" lon="0.56105">
        <ele>1515.173</ele>
        <time>2021-03-21T13:30:50Z</time>
      </trkpt>
      <trkpt lat="42.83363" lon="0.56102">
        <ele>1514.989</ele>
        <time>2021-03-21T13:30:52Z</time>
      </trkpt>
      <trkpt lat="42.83363" lon="0.56099">
        <ele>1514.002</ele>
        <time>2021-03-21T13:30:54Z</time>
      </trkpt>
      <trkpt lat="42.83364" lon="0.56096">
        <ele>1513.762</ele>
        <time>2021-03-21T13:30:56Z</time>
      </trkpt>
      <trkpt lat="42.83365" lon="0.56093">
        <ele>1513.364</ele>
        <time>2021-03-21T13:30:58Z</time>
      </trkpt>
      <trkpt lat="42.83365" lon="0.5609">
        <ele>1512.963</ele>
        <time>2021-03-21T13:31:00Z</time>
      </trkpt>
      <trkpt lat="42.83366" lon="0.56087">
        <ele>1512.788</ele>
        <time>2021-03-21T13:31:02Z</time>
      </trkpt>
      <trkpt lat="42.83366" lon="0.56084">
        <ele>1512.363</ele>
        <time>2021-03-21T13:31:04Z</time>
      </trkpt>
      <trkpt lat="42.83367" lon="0.56081">
        <ele>1512.051</ele>
        <time>2021-03-21T13:31:06Z</time>
      </trkpt>
      <trkpt lat="42.83367" lon="0.56078">
        <ele>1511.667</ele>
        <time>2021-03-21T13:31:08Z</time>
      </trkpt>
      <trkpt lat="42.83368" lon="0.56075">
        <ele>1511.446</ele>
        <time>2021-03-21T13:31:10Z</time>
      </trkpt>
      <trkpt lat="42.83367" lon="0.56072">
        <ele>1511.724</ele>
        <time>2021-03-21T13:31:12Z</time>
      </trkpt>
      <trkpt lat="42.83365" lon="0.56069">
        <ele>1511.898</ele>
        <time>2021-03-21T13:31:14Z</time>
      </trkpt>
      <trkpt lat="42.83363" lon="0.56067">
        <ele>1511.585</ele>
        <time>2021-03-21T13:31:16Z</time>
      </trkpt>
      <trkpt lat="42.83361" lon="0.56066">
        <ele>1511.287</ele>
        <time>2021-03-21T13:31:18Z</time>
      </trkpt>
      <trkpt lat="42.83359" lon="0.56066">
        <ele>1510.826</ele>
        <time>2021-03-21T13:31:20Z</time>
      </trkpt>
      <trkpt lat="42.83357" lon="0.56068">
        <ele>1510.584</ele>
        <time>2021-03-21T13:31:22Z</time>
      </trkpt>
      <trkpt lat="42.83355" lon="0.5607">
        <ele>1510.878</ele>
        <time>2021-03-21T13:31:24Z</time>
      </trkpt>
      <trkpt lat="42.83354" lon="0.56073">
        <ele>1510.857</ele>
        <time>2021-03-21T13:31:26Z</time>
      </trkpt>
      <trkpt lat="42.83353" lon="0.56076">
        <ele>1510.358</ele>
        <time>2021-03-21T13:31:28Z</time>
      </trkpt>
      <trkpt lat="42.83353" lon="0.5608">
        <ele>1509.951</ele>
        <time>2021-03-21T13:31:30Z</time>
      </trkpt>
      <trkpt lat="42.83352" lon="0.56083">
        <ele>1510.404</ele>
        <time>2021-03-21T13:31:32Z</time>
      </trkpt>
      <trkpt lat="42.83351" lon="0.56086">
        <ele>1510.416</ele>
        <time>2021-03-21T13:31:34Z</time>
      </trkpt>
      <trkpt lat="42.8335" lon="0.56089">
        <ele>1509.986</ele>
        <time>2021-03-21T13:31:36Z</time>
      </trkpt>
      <trkpt lat="42.83349" lon="0.56091">
        <ele>1509.442</ele>
        <time>2021-03-21T13:31:38Z</time>
      </trkpt>
      <trkpt lat="42.83348" lon="0.56094">
        <ele>1509.39</ele>
        <time>2021-03-21T13:31:40Z</time>
      </trkpt>
      <trkpt lat="42.83346" lon="0.56097">
        <ele>1509.158</ele>
        <time>2021-03-21T13:31:42Z</time>
      </trkpt>
      <trkpt lat="42.83345" lon="0.561">
        <ele>1509.214</ele>
        <time>2021-03-21T13:31:44Z</time>
      </trkpt>
      <trkpt lat="42.83344" lon="0.56103">
        <ele>1509.038</ele>
        <time>2021-03-21T13:31:46Z</time>
      </trkpt>
      <trkpt lat="42.83343" lon="0.56106">
        <ele>1508.429</ele>
        <time>2021-03-21T13:31:48Z</time>
      </trkpt>
      <trkpt lat="42.83342" lon="0.56109">
        <ele>1507.529</ele>
        <time>2021-03-21T13:31:50Z</time>
      </trkpt>
      <trkpt lat="42.83341" lon="0.56112">
        <ele>1507.301</ele>
        <time>2021-03-21T13:31:52Z</time>
      </trkpt>
      <trkpt lat="42.8334" lon="0.56115">
        <ele>1507.29</ele>
        <time>2021-03-21T13:31:54Z</time>
      </trkpt>
      <trkpt lat="42.83338" lon="0.56118">
        <ele>1507.014</ele>
        <time>2021-03-21T13:31:56Z</time>
      </trkpt>
      <trkpt lat="42.83336" lon="0.5612">
        <ele>1506.517</ele>
        <time>2021-03-21T13:31:58Z</time>
      </trkpt>
      <trkpt lat="42.83335" lon="0.56123">
        <ele>1506.21</ele>
        <time>2021-03-21T13:32:00Z</time>
      </trkpt>
      <trkpt lat="42.83333" lon="0.56126">
        <ele>1506.065</ele>
        <time>2021-03-21T13:32:02Z</time>
      </trkpt>
      <trkpt lat="42.83332" lon="0.56128">
        <ele>1505.853</ele>
        <time>2021-03-21T13:32:04Z</time>
      </trkpt>
      <trkpt lat="42.8333" lon="0.56131">
        <ele>1505.26</ele>
        <time>2021-03-21T13:32:06Z</time>
      </trkpt>
      <trkpt lat="42.83329" lon="0.56133">
        <ele>1504.624</ele>
        <time>2021-03-21T13:32:08Z</time>
      </trkpt>
      <trkpt lat="42.83329" lon="0.56137">
        <ele>1504.164</ele>
        <time>2021-03-21T13:32:10Z</time>
      </trkpt>
      <trkpt lat="42.83328" lon="0.5614">
        <ele>1503.721</ele>
        <time>2021-03-21T13:32:12Z</time>
      </trkpt>
      <trkpt lat="42.83327" lon="0.56143">
        <ele>1503.294</ele>
        <time>2021-03-21T13:32:14Z</time>
      </trkpt>
      <trkpt lat="42.83326" lon="0.56146">
        <ele>1502.799</ele>
        <time>2021-03-21T13:32:16Z</time>
      </trkpt>
      <trkpt lat="42.83325" lon="0.56149">
        <ele>1502.683</ele>
        <time>2021-03-21T13:32:18Z</time>
      </trkpt>
      <trkpt lat="42.83324" lon="0.56152">
        <ele>1502.508</ele>
        <time>2021-03-21T13:32:20Z</time>
      </trkpt>
      <trkpt lat="42.83324" lon="0.56155">
        <ele>1502.472</ele>
        <time>2021-03-21T13:32:22Z</time>
      </trkpt>
      <trkpt lat="42.83323" lon="0.56159">
        <ele>1501.991</ele>
        <time>2021-03-21T13:32:24Z</time>
      </trkpt>
      <trkpt lat="42.83323" lon="0.56162">
        <ele>1501.62</ele>
        <time>2021-03-21T13:32:26Z</time>
      </trkpt>
      <trkpt lat="42.83322" lon="0.56165">
        <ele>1501.575</ele>
        <time>2021-03-21T13:32:28Z</time>
      </trkpt>
      <trkpt lat="42.83322" lon="0.56168">
        <ele>1501.022</ele>
        <time>2021-03-21T13:32:30Z</time>
      </trkpt>
      <trkpt lat="42.83321" lon="0.5617">
        <ele>1500.431</ele>
        <time>2021-03-21T13:32:32Z</time>
      </trkpt>
      <trkpt lat="42.83319" lon="0.56171">
        <ele>1499.801</ele>
        <time>2021-03-21T13:32:34Z</time>
      </trkpt>
      <trkpt lat="42.83317" lon="0.56171">
        <ele>1499.367</ele>
        <time>2021-03-21T13:32:36Z</time>
      </trkpt>
      <trkpt lat="42.83314" lon="0.5617">
        <ele>1498.926</ele>
        <time>2021-03-21T13:32:38Z</time>
      </trkpt>
      <trkpt lat="42.83314" lon="0.56167">
        <ele>1498.15</ele>
        <time>2021-03-21T13:32:40Z</time>
      </trkpt>
      <trkpt lat="42.83314" lon="0.56163">
        <ele>1497.849</ele>
        <time>2021-03-21T13:32:42Z</time>
      </trkpt>
      <trkpt lat="42.83314" lon="0.56159">
        <ele>1497.203</ele>
        <time>2021-03-21T13:32:44Z</time>
      </trkpt>
      <trkpt lat="42.83316" lon="0.56156">
        <ele>1495.83</ele>
        <time>2021-03-21T13:32:46Z</time>
      </trkpt>
      <trkpt lat="42.83316" lon="0.56152">
        <ele>1494.996</ele>
        <time>2021-03-21T13:32:48Z</time>
      </trkpt>
      <trkpt lat="42.83316" lon="0.56149">
        <ele>1494.12</ele>
        <time>2021-03-21T13:32:50Z</time>
      </trkpt>
      <trkpt lat="42.83317" lon="0.56145">
        <ele>1493.329</ele>
        <time>2021-03-21T13:32:52Z</time>
      </trkpt>
      <trkpt lat="42.83317" lon="0.56142">
        <ele>1493.059</ele>
        <time>2021-03-21T13:32:54Z</time>
      </trkpt>
      <trkpt lat="42.83317" lon="0.56139">
        <ele>1493.318</ele>
        <time>2021-03-21T13:32:56Z</time>
      </trkpt>
      <trkpt lat="42.83317" lon="0.56135">
        <ele>1494.413</ele>
        <time>2021-03-21T13:32:58Z</time>
      </trkpt>
      <trkpt lat="42.83317" lon="0.56131">
        <ele>1493.904</ele>
        <time>2021-03-21T13:33:00Z</time>
      </trkpt>
      <trkpt lat="42.83317" lon="0.56128">
        <ele>1493.93</ele>
        <time>2021-03-21T13:33:02Z</time>
      </trkpt>
      <trkpt lat="42.83317" lon="0.56125">
        <ele>1493.235</ele>
        <time>2021-03-21T13:33:04Z</time>
      </trkpt>
      <trkpt lat="42.83316" lon="0.56121">
        <ele>1492.697</ele>
        <time>2021-03-21T13:33:06Z</time>
      </trkpt>
      <trkpt lat="42.83316" lon="0.56118">
        <ele>1492.298</ele>
        <time>2021-03-21T13:33:08Z</time>
      </trkpt>
      <trkpt lat="42.83316" lon="0.56114">
        <ele>1491.801</ele>
        <time>2021-03-21T13:33:10Z</time>
      </trkpt>
      <trkpt lat="42.83316" lon="0.56111">
        <ele>1491.384</ele>
        <time>2021-03-21T13:33:12Z</time>
      </trkpt>
      <trkpt lat="42.83316" lon="0.56108">
        <ele>1490.658</ele>
        <time>2021-03-21T13:33:14Z</time>
      </trkpt>
      <trkpt lat="42.83316" lon="0.56104">
        <ele>1490.195</ele>
        <time>2021-03-21T13:33:16Z</time>
      </trkpt>
      <trkpt lat="42.83316" lon="0.56101">
        <ele>1489.707</ele>
        <time>2021-03-21T13:33:18Z</time>
      </trkpt>
      <trkpt lat="42.83316" lon="0.56097">
        <ele>1490.115</ele>
        <time>2021-03-21T13:33:20Z</time>
      </trkpt>
      <trkpt lat="42.83316" lon="0.56094">
        <ele>1489.977</ele>
        <time>2021-03-21T13:33:22Z</time>
      </trkpt>
      <trkpt lat="42.83316" lon="0.56091">
        <ele>1489.376</ele>
        <time>2021-03-21T13:33:24Z</time>
      </trkpt>
      <trkpt lat="42.83316" lon="0.56087">
        <ele>1489.039</ele>
        <time>2021-03-21T13:33:26Z</time>
      </trkpt>
      <trkpt lat="42.83317" lon="0.56084">
        <ele>1488.323</ele>
        <time>2021-03-21T13:33:28Z</time>
      </trkpt>
      <trkpt lat="42.83317" lon="0.56081">
        <ele>1487.685</ele>
        <time>2021-03-21T13:33:30Z</time>
      </trkpt>
      <trkpt lat="42.83317" lon="0.56077">
        <ele>1487.028</ele>
        <time>2021-03-21T13:33:32Z</time>
      </trkpt>
      <trkpt lat="42.83317" lon="0.56073">
        <ele>1485.687</ele>
        <time>2021-03-21T13:33:34Z</time>
      </trkpt>
      <trkpt lat="42.83317" lon="0.5607">
        <ele>1485.047</ele>
        <time>2021-03-21T13:33:36Z</time>
      </trkpt>
      <trkpt lat="42.83318" lon="0.56067">
        <ele>1484.306</ele>
        <time>2021-03-21T13:33:38Z</time>
      </trkpt>
      <trkpt lat="42.83319" lon="0.56063">
        <ele>1483.24</ele>
        <time>2021-03-21T13:33:40Z</time>
      </trkpt>
      <trkpt lat="42.83319" lon="0.5606">
        <ele>1482.16</ele>
        <time>2021-03-21T13:33:42Z</time>
      </trkpt>
      <trkpt lat="42.83319" lon="0.56056">
        <ele>1481.25</ele>
        <time>2021-03-21T13:33:44Z</time>
      </trkpt>
      <trkpt lat="42.8332" lon="0.56053">
        <ele>1480.375</ele>
        <time>2021-03-21T13:33:46Z</time>
      </trkpt>
      <trkpt lat="42.83321" lon="0.5605">
        <ele>1480.003</ele>
        <time>2021-03-21T13:33:48Z</time>
      </trkpt>
      <trkpt lat="42.83321" lon="0.56046">
        <ele>1479.231</ele>
        <time>2021-03-21T13:33:50Z</time>
      </trkpt>
      <trkpt lat="42.83321" lon="0.56043">
        <ele>1478.389</ele>
        <time>2021-03-21T13:33:52Z</time>
      </trkpt>
      <trkpt lat="42.83322" lon="0.56039">
        <ele>1477.981</ele>
        <time>2021-03-21T13:33:54Z</time>
      </trkpt>
      <trkpt lat="42.83322" lon="0.56036">
        <ele>1477.428</ele>
        <time>2021-03-21T13:33:56Z</time>
      </trkpt>
      <trkpt lat="42.83322" lon="0.56032">
        <ele>1476.943</ele>
        <time>2021-03-21T13:33:58Z</time>
      </trkpt>
      <trkpt lat="42.83322" lon="0.56029">
        <ele>1476.616</ele>
        <time>2021-03-21T13:34:00Z</time>
      </trkpt>
      <trkpt lat="42.83323" lon="0.56026">
        <ele>1476.421</ele>
        <time>2021-03-21T13:34:02Z</time>
      </trkpt>
      <trkpt lat="42.83323" lon="0.56023">
        <ele>1475.844</ele>
        <time>2021-03-21T13:34:04Z</time>
      </trkpt>
      <trkpt lat="42.83324" lon="0.5602">
        <ele>1475.402</ele>
        <time>2021-03-21T13:34:06Z</time>
      </trkpt>
      <trkpt lat="42.83324" lon="0.56016">
        <ele>1474.478</ele>
        <time>2021-03-21T13:34:08Z</time>
      </trkpt>
      <trkpt lat="42.83325" lon="0.56012">
        <ele>1474.352</ele>
        <time>2021-03-21T13:34:10Z</time>
      </trkpt>
      <trkpt lat="42.83325" lon="0.56009">
        <ele>1473.928</ele>
        <time>2021-03-21T13:34:12Z</time>
      </trkpt>
      <trkpt lat="42.83326" lon="0.56005">
        <ele>1473.525</ele>
        <time>2021-03-21T13:34:14Z</time>
      </trkpt>
      <trkpt lat="42.83327" lon="0.56002">
        <ele>1473.36</ele>
        <time>2021-03-21T13:34:16Z</time>
      </trkpt>
      <trkpt lat="42.83327" lon="0.55999">
        <ele>1473.114</ele>
        <time>2021-03-21T13:34:18Z</time>
      </trkpt>
      <trkpt lat="42.83327" lon="0.55996">
        <ele>1473.13</ele>
        <time>2021-03-21T13:34:20Z</time>
      </trkpt>
      <trkpt lat="42.83327" lon="0.55992">
        <ele>1472.344</ele>
        <time>2021-03-21T13:34:22Z</time>
      </trkpt>
      <trkpt lat="42.83327" lon="0.55989">
        <ele>1471.873</ele>
        <time>2021-03-21T13:34:24Z</time>
      </trkpt>
      <trkpt lat="42.83327" lon="0.55985">
        <ele>1471.702</ele>
        <time>2021-03-21T13:34:26Z</time>
      </trkpt>
      <trkpt lat="42.83328" lon="0.55981">
        <ele>1472.137</ele>
        <time>2021-03-21T13:34:28Z</time>
      </trkpt>
      <trkpt lat="42.83328" lon="0.55978">
        <ele>1472.215</ele>
        <time>2021-03-21T13:34:30Z</time>
      </trkpt>
      <trkpt lat="42.83328" lon="0.55974">
        <ele>1472.019</ele>
        <time>2021-03-21T13:34:32Z</time>
      </trkpt>
      <trkpt lat="42.83328" lon="0.55971">
        <ele>1471.415</ele>
        <time>2021-03-21T13:34:34Z</time>
      </trkpt>
      <trkpt lat="42.83328" lon="0.55968">
        <ele>1470.556</ele>
        <time>2021-03-21T13:34:36Z</time>
      </trkpt>
      <trkpt lat="42.83328" lon="0.55964">
        <ele>1470.975</ele>
        <time>2021-03-21T13:34:38Z</time>
      </trkpt>
      <trkpt lat="42.83328" lon="0.55961">
        <ele>1470.508</ele>
        <time>2021-03-21T13:34:40Z</time>
      </trkpt>
      <trkpt lat="42.83329" lon="0.55958">
        <ele>1470.352</ele>
        <time>2021-03-21T13:34:42Z</time>
      </trkpt>
      <trkpt lat="42.83329" lon="0.55954">
        <ele>1469.627</ele>
        <time>2021-03-21T13:34:44Z</time>
      </trkpt>
      <trkpt lat="42.8333" lon="0.55951">
        <ele>1469.487</ele>
        <time>2021-03-21T13:34:46Z</time>
      </trkpt>
      <trkpt lat="42.8333" lon="0.55947">
        <ele>1469.04</ele>
        <time>2021-03-21T13:34:48Z</time>
      </trkpt>
      <trkpt lat="42.8333" lon="0.55944">
        <ele>1468.218</ele>
        <time>2021-03-21T13:34:50Z</time>
      </trkpt>
      <trkpt lat="42.8333" lon="0.55941">
        <ele>1467.855</ele>
        <time>2021-03-21T13:34:52Z</time>
      </trkpt>
      <trkpt lat="42.8333" lon="0.55938">
        <ele>1467.329</ele>
        <time>2021-03-21T13:34:54Z</time>
      </trkpt>
      <trkpt lat="42.8333" lon="0.55935">
        <ele>1467.748</ele>
        <time>2021-03-21T13:34:56Z</time>
      </trkpt>
      <trkpt lat="42.8333" lon="0.55932">
        <ele>1467.335</ele>
        <time>2021-03-21T13:34:58Z</time>
      </trkpt>
      <trkpt lat="42.8333" lon="0.55929">
        <ele>1466.062</ele>
        <time>2021-03-21T13:35:00Z</time>
      </trkpt>
      <trkpt lat="42.83329" lon="0.55924">
        <ele>1465.773</ele>
        <time>2021-03-21T13:35:02Z</time>
      </trkpt>
      <trkpt lat="42.83329" lon="0.55921">
        <ele>1465.18</ele>
        <time>2021-03-21T13:35:04Z</time>
      </trkpt>
      <trkpt lat="42.83329" lon="0.55917">
        <ele>1464.806</ele>
        <time>2021-03-21T13:35:06Z</time>
      </trkpt>
      <trkpt lat="42.83329" lon="0.55914">
        <ele>1464.389</ele>
        <time>2021-03-21T13:35:08Z</time>
      </trkpt>
      <trkpt lat="42.83329" lon="0.5591">
        <ele>1464.861</ele>
        <time>2021-03-21T13:35:10Z</time>
      </trkpt>
      <trkpt lat="42.8333" lon="0.55906">
        <ele>1465.35</ele>
        <time>2021-03-21T13:35:12Z</time>
      </trkpt>
      <trkpt lat="42.83331" lon="0.55902">
        <ele>1465.313</ele>
        <time>2021-03-21T13:35:14Z</time>
      </trkpt>
      <trkpt lat="42.83332" lon="0.559">
        <ele>1464.577</ele>
        <time>2021-03-21T13:35:16Z</time>
      </trkpt>
      <trkpt lat="42.83333" lon="0.55897">
        <ele>1464.14</ele>
        <time>2021-03-21T13:35:18Z</time>
      </trkpt>
      <trkpt lat="42.83335" lon="0.55895">
        <ele>1463.641</ele>
        <time>2021-03-21T13:35:20Z</time>
      </trkpt>
      <trkpt lat="42.83337" lon="0.55893">
        <ele>1463.327</ele>
        <time>2021-03-21T13:35:22Z</time>
      </trkpt>
      <trkpt lat="42.83339" lon="0.55892">
        <ele>1462.96</ele>
        <time>2021-03-21T13:35:24Z</time>
      </trkpt>
      <trkpt lat="42.83341" lon="0.5589">
        <ele>1462.342</ele>
        <time>2021-03-21T13:35:26Z</time>
      </trkpt>
      <trkpt lat="42.83344" lon="0.55889">
        <ele>1462.146</ele>
        <time>2021-03-21T13:35:28Z</time>
      </trkpt>
      <trkpt lat="42.83346" lon="0.55888">
        <ele>1461.403</ele>
        <time>2021-03-21T13:35:30Z</time>
      </trkpt>
      <trkpt lat="42.83349" lon="0.55888">
        <ele>1460.627</ele>
        <time>2021-03-21T13:35:32Z</time>
      </trkpt>
      <trkpt lat="42.83351" lon="0.55886">
        <ele>1460.508</ele>
        <time>2021-03-21T13:35:34Z</time>
      </trkpt>
      <trkpt lat="42.83353" lon="0.55884">
        <ele>1459.902</ele>
        <time>2021-03-21T13:35:36Z</time>
      </trkpt>
      <trkpt lat="42.83355" lon="0.55882">
        <ele>1460.156</ele>
        <time>2021-03-21T13:35:38Z</time>
      </trkpt>
      <trkpt lat="42.83357" lon="0.55881">
        <ele>1460.767</ele>
        <time>2021-03-21T13:35:40Z</time>
      </trkpt>
      <trkpt lat="42.8336" lon="0.55879">
        <ele>1461.142</ele>
        <time>2021-03-21T13:35:42Z</time>
      </trkpt>
      <trkpt lat="42.83362" lon="0.55878">
        <ele>1461.609</ele>
        <time>2021-03-21T13:35:44Z</time>
      </trkpt>
      <trkpt lat="42.83364" lon="0.55876">
        <ele>1460.886</ele>
        <time>2021-03-21T13:35:46Z</time>
      </trkpt>
      <trkpt lat="42.83367" lon="0.55875">
        <ele>1460.273</ele>
        <time>2021-03-21T13:35:48Z</time>
      </trkpt>
      <trkpt lat="42.83369" lon="0.55873">
        <ele>1459.236</ele>
        <time>2021-03-21T13:35:50Z</time>
      </trkpt>
      <trkpt lat="42.83372" lon="0.55872">
        <ele>1459.149</ele>
        <time>2021-03-21T13:35:52Z</time>
      </trkpt>
      <trkpt lat="42.83374" lon="0.55871">
        <ele>1459</ele>
        <time>2021-03-21T13:35:54Z</time>
      </trkpt>
      <trkpt lat="42.83376" lon="0.55869">
        <ele>1458.564</ele>
        <time>2021-03-21T13:35:56Z</time>
      </trkpt>
      <trkpt lat="42.83379" lon="0.55869">
        <ele>1458.07</ele>
        <time>2021-03-21T13:35:58Z</time>
      </trkpt>
      <trkpt lat="42.83382" lon="0.55867">
        <ele>1458.029</ele>
        <time>2021-03-21T13:36:00Z</time>
      </trkpt>
      <trkpt lat="42.83384" lon="0.55867">
        <ele>1457.777</ele>
        <time>2021-03-21T13:36:02Z</time>
      </trkpt>
      <trkpt lat="42.83387" lon="0.55866">
        <ele>1457.191</ele>
        <time>2021-03-21T13:36:04Z</time>
      </trkpt>
      <trkpt lat="42.83389" lon="0.55866">
        <ele>1455.094</ele>
        <time>2021-03-21T13:36:06Z</time>
      </trkpt>
      <trkpt lat="42.83392" lon="0.55866">
        <ele>1455.045</ele>
        <time>2021-03-21T13:36:08Z</time>
      </trkpt>
      <trkpt lat="42.83394" lon="0.55866">
        <ele>1453.121</ele>
        <time>2021-03-21T13:36:10Z</time>
      </trkpt>
      <trkpt lat="42.83397" lon="0.55864">
        <ele>1453.149</ele>
        <time>2021-03-21T13:36:12Z</time>
      </trkpt>
      <trkpt lat="42.83399" lon="0.55863">
        <ele>1453.133</ele>
        <time>2021-03-21T13:36:14Z</time>
      </trkpt>
      <trkpt lat="42.83401" lon="0.55861">
        <ele>1453.07</ele>
        <time>2021-03-21T13:36:16Z</time>
      </trkpt>
      <trkpt lat="42.83404" lon="0.5586">
        <ele>1453.39</ele>
        <time>2021-03-21T13:36:18Z</time>
      </trkpt>
      <trkpt lat="42.83406" lon="0.55859">
        <ele>1453.968</ele>
        <time>2021-03-21T13:36:20Z</time>
      </trkpt>
      <trkpt lat="42.83408" lon="0.55857">
        <ele>1454.615</ele>
        <time>2021-03-21T13:36:22Z</time>
      </trkpt>
      <trkpt lat="42.83411" lon="0.55857">
        <ele>1452.829</ele>
        <time>2021-03-21T13:36:24Z</time>
      </trkpt>
      <trkpt lat="42.83413" lon="0.55856">
        <ele>1451.161</ele>
        <time>2021-03-21T13:36:26Z</time>
      </trkpt>
      <trkpt lat="42.83416" lon="0.55855">
        <ele>1450.543</ele>
        <time>2021-03-21T13:36:28Z</time>
      </trkpt>
      <trkpt lat="42.83418" lon="0.55855">
        <ele>1450.753</ele>
        <time>2021-03-21T13:36:30Z</time>
      </trkpt>
      <trkpt lat="42.83421" lon="0.55854">
        <ele>1450.885</ele>
        <time>2021-03-21T13:36:32Z</time>
      </trkpt>
      <trkpt lat="42.83423" lon="0.55853">
        <ele>1450.311</ele>
        <time>2021-03-21T13:36:34Z</time>
      </trkpt>
      <trkpt lat="42.83426" lon="0.55851">
        <ele>1450.722</ele>
        <time>2021-03-21T13:36:36Z</time>
      </trkpt>
      <trkpt lat="42.83428" lon="0.5585">
        <ele>1450.819</ele>
        <time>2021-03-21T13:36:38Z</time>
      </trkpt>
      <trkpt lat="42.8343" lon="0.55848">
        <ele>1449.966</ele>
        <time>2021-03-21T13:36:40Z</time>
      </trkpt>
      <trkpt lat="42.83432" lon="0.55847">
        <ele>1449.404</ele>
        <time>2021-03-21T13:36:42Z</time>
      </trkpt>
      <trkpt lat="42.83435" lon="0.55845">
        <ele>1449.629</ele>
        <time>2021-03-21T13:36:44Z</time>
      </trkpt>
      <trkpt lat="42.83437" lon="0.55845">
        <ele>1448.929</ele>
        <time>2021-03-21T13:36:46Z</time>
      </trkpt>
      <trkpt lat="42.83439" lon="0.55843">
        <ele>1448.976</ele>
        <time>2021-03-21T13:36:48Z</time>
      </trkpt>
      <trkpt lat="42.83442" lon="0.55843">
        <ele>1448.342</ele>
        <time>2021-03-21T13:36:50Z</time>
      </trkpt>
      <trkpt lat="42.83444" lon="0.55841">
        <ele>1448.156</ele>
        <time>2021-03-21T13:36:52Z</time>
      </trkpt>
      <trkpt lat="42.83446" lon="0.55841">
        <ele>1447.971</ele>
        <time>2021-03-21T13:36:54Z</time>
      </trkpt>
      <trkpt lat="42.83448" lon="0.5584">
        <ele>1447.725</ele>
        <time>2021-03-21T13:36:56Z</time>
      </trkpt>
      <trkpt lat="42.8345" lon="0.55838">
        <ele>1447.538</ele>
        <time>2021-03-21T13:36:58Z</time>
      </trkpt>
      <trkpt lat="42.83452" lon="0.55837">
        <ele>1446.813</ele>
        <time>2021-03-21T13:37:00Z</time>
      </trkpt>
      <trkpt lat="42.83454" lon="0.55834">
        <ele>1446.902</ele>
        <time>2021-03-21T13:37:02Z</time>
      </trkpt>
      <trkpt lat="42.83456" lon="0.55832">
        <ele>1446.832</ele>
        <time>2021-03-21T13:37:04Z</time>
      </trkpt>
      <trkpt lat="42.83458" lon="0.55831">
        <ele>1446.776</ele>
        <time>2021-03-21T13:37:06Z</time>
      </trkpt>
      <trkpt lat="42.83461" lon="0.55831">
        <ele>1445.945</ele>
        <time>2021-03-21T13:37:08Z</time>
      </trkpt>
      <trkpt lat="42.83463" lon="0.5583">
        <ele>1445.494</ele>
        <time>2021-03-21T13:37:10Z</time>
      </trkpt>
      <trkpt lat="42.83465" lon="0.55828">
        <ele>1446.057</ele>
        <time>2021-03-21T13:37:12Z</time>
      </trkpt>
      <trkpt lat="42.83467" lon="0.55827">
        <ele>1446.006</ele>
        <time>2021-03-21T13:37:14Z</time>
      </trkpt>
      <trkpt lat="42.8347" lon="0.55826">
        <ele>1445.573</ele>
        <time>2021-03-21T13:37:16Z</time>
      </trkpt>
      <trkpt lat="42.83472" lon="0.55824">
        <ele>1445.213</ele>
        <time>2021-03-21T13:37:18Z</time>
      </trkpt>
      <trkpt lat="42.83475" lon="0.55823">
        <ele>1444.975</ele>
        <time>2021-03-21T13:37:20Z</time>
      </trkpt>
      <trkpt lat="42.83477" lon="0.55822">
        <ele>1444.567</ele>
        <time>2021-03-21T13:37:22Z</time>
      </trkpt>
      <trkpt lat="42.8348" lon="0.55821">
        <ele>1443.798</ele>
        <time>2021-03-21T13:37:24Z</time>
      </trkpt>
      <trkpt lat="42.83483" lon="0.5582">
        <ele>1443.291</ele>
        <time>2021-03-21T13:37:26Z</time>
      </trkpt>
      <trkpt lat="42.83485" lon="0.55818">
        <ele>1443.091</ele>
        <time>2021-03-21T13:37:28Z</time>
      </trkpt>
      <trkpt lat="42.83488" lon="0.55818">
        <ele>1442.267</ele>
        <time>2021-03-21T13:37:30Z</time>
      </trkpt>
      <trkpt lat="42.83491" lon="0.55818">
        <ele>1441.634</ele>
        <time>2021-03-21T13:37:32Z</time>
      </trkpt>
      <trkpt lat="42.83493" lon="0.55817">
        <ele>1441.141</ele>
        <time>2021-03-21T13:37:34Z</time>
      </trkpt>
      <trkpt lat="42.83496" lon="0.55817">
        <ele>1440.503</ele>
        <time>2021-03-21T13:37:36Z</time>
      </trkpt>
      <trkpt lat="42.83498" lon="0.55816">
        <ele>1440.451</ele>
        <time>2021-03-21T13:37:38Z</time>
      </trkpt>
      <trkpt lat="42.83501" lon="0.55816">
        <ele>1439.868</ele>
        <time>2021-03-21T13:37:40Z</time>
      </trkpt>
      <trkpt lat="42.83504" lon="0.55815">
        <ele>1439.392</ele>
        <time>2021-03-21T13:37:42Z</time>
      </trkpt>
      <trkpt lat="42.83506" lon="0.55815">
        <ele>1438.823</ele>
        <time>2021-03-21T13:37:44Z</time>
      </trkpt>
      <trkpt lat="42.83509" lon="0.55816">
        <ele>1437.925</ele>
        <time>2021-03-21T13:37:46Z</time>
      </trkpt>
      <trkpt lat="42.83511" lon="0.55816">
        <ele>1438.025</ele>
        <time>2021-03-21T13:37:48Z</time>
      </trkpt>
      <trkpt lat="42.83514" lon="0.55815">
        <ele>1438.025</ele>
        <time>2021-03-21T13:37:50Z</time>
      </trkpt>
      <trkpt lat="42.83514" lon="0.55813">
        <ele>1436.394</ele>
        <time>2021-03-21T13:37:52Z</time>
      </trkpt>
      <trkpt lat="42.83515" lon="0.5581">
        <ele>1435.374</ele>
        <time>2021-03-21T13:37:54Z</time>
      </trkpt>
      <trkpt lat="42.83514" lon="0.55806">
        <ele>1434.729</ele>
        <time>2021-03-21T13:37:56Z</time>
      </trkpt>
      <trkpt lat="42.83514" lon="0.55802">
        <ele>1434.126</ele>
        <time>2021-03-21T13:37:58Z</time>
      </trkpt>
      <trkpt lat="42.83512" lon="0.558">
        <ele>1432.729</ele>
        <time>2021-03-21T13:38:00Z</time>
      </trkpt>
      <trkpt lat="42.83509" lon="0.55799">
        <ele>1431.478</ele>
        <time>2021-03-21T13:38:02Z</time>
      </trkpt>
      <trkpt lat="42.83506" lon="0.55798">
        <ele>1430.83</ele>
        <time>2021-03-21T13:38:04Z</time>
      </trkpt>
      <trkpt lat="42.83503" lon="0.55798">
        <ele>1429.825</ele>
        <time>2021-03-21T13:38:06Z</time>
      </trkpt>
      <trkpt lat="42.835" lon="0.55798">
        <ele>1429.372</ele>
        <time>2021-03-21T13:38:08Z</time>
      </trkpt>
      <trkpt lat="42.83497" lon="0.55798">
        <ele>1429.708</ele>
        <time>2021-03-21T13:38:10Z</time>
      </trkpt>
      <trkpt lat="42.83495" lon="0.55798">
        <ele>1429.808</ele>
        <time>2021-03-21T13:38:12Z</time>
      </trkpt>
      <trkpt lat="42.83492" lon="0.55798">
        <ele>1430.163</ele>
        <time>2021-03-21T13:38:14Z</time>
      </trkpt>
      <trkpt lat="42.8349" lon="0.55797">
        <ele>1430.693</ele>
        <time>2021-03-21T13:38:16Z</time>
      </trkpt>
      <trkpt lat="42.83487" lon="0.55797">
        <ele>1430.859</ele>
        <time>2021-03-21T13:38:18Z</time>
      </trkpt>
      <trkpt lat="42.83484" lon="0.55797">
        <ele>1430.414</ele>
        <time>2021-03-21T13:38:20Z</time>
      </trkpt>
      <trkpt lat="42.83482" lon="0.55797">
        <ele>1430.211</ele>
        <time>2021-03-21T13:38:22Z</time>
      </trkpt>
      <trkpt lat="42.83479" lon="0.55796">
        <ele>1430.331</ele>
        <time>2021-03-21T13:38:24Z</time>
      </trkpt>
      <trkpt lat="42.83477" lon="0.55796">
        <ele>1431.106</ele>
        <time>2021-03-21T13:38:26Z</time>
      </trkpt>
      <trkpt lat="42.83474" lon="0.55795">
        <ele>1432.04</ele>
        <time>2021-03-21T13:38:28Z</time>
      </trkpt>
      <trkpt lat="42.83472" lon="0.55795">
        <ele>1432.616</ele>
        <time>2021-03-21T13:38:30Z</time>
      </trkpt>
      <trkpt lat="42.8347" lon="0.55794">
        <ele>1432.182</ele>
        <time>2021-03-21T13:38:32Z</time>
      </trkpt>
      <trkpt lat="42.83467" lon="0.55795">
        <ele>1431.512</ele>
        <time>2021-03-21T13:38:34Z</time>
      </trkpt>
      <trkpt lat="42.83465" lon="0.55794">
        <ele>1431.232</ele>
        <time>2021-03-21T13:38:36Z</time>
      </trkpt>
      <trkpt lat="42.83463" lon="0.55793">
        <ele>1431.254</ele>
        <time>2021-03-21T13:38:38Z</time>
      </trkpt>
      <trkpt lat="42.8346" lon="0.55793">
        <ele>1430.962</ele>
        <time>2021-03-21T13:38:40Z</time>
      </trkpt>
      <trkpt lat="42.83458" lon="0.55792">
        <ele>1430.555</ele>
        <time>2021-03-21T13:38:42Z</time>
      </trkpt>
      <trkpt lat="42.83455" lon="0.55792">
        <ele>1429.289</ele>
        <time>2021-03-21T13:38:44Z</time>
      </trkpt>
      <trkpt lat="42.83453" lon="0.55793">
        <ele>1429.156</ele>
        <time>2021-03-21T13:38:46Z</time>
      </trkpt>
      <trkpt lat="42.8345" lon="0.55793">
        <ele>1429.392</ele>
        <time>2021-03-21T13:38:48Z</time>
      </trkpt>
      <trkpt lat="42.83448" lon="0.55792">
        <ele>1428.784</ele>
        <time>2021-03-21T13:38:50Z</time>
      </trkpt>
      <trkpt lat="42.83445" lon="0.55793">
        <ele>1427.683</ele>
        <time>2021-03-21T13:38:52Z</time>
      </trkpt>
      <trkpt lat="42.83443" lon="0.55792">
        <ele>1426.764</ele>
        <time>2021-03-21T13:38:54Z</time>
      </trkpt>
      <trkpt lat="42.83441" lon="0.55792">
        <ele>1426.892</ele>
        <time>2021-03-21T13:38:56Z</time>
      </trkpt>
      <trkpt lat="42.83438" lon="0.55791">
        <ele>1426.651</ele>
        <time>2021-03-21T13:38:58Z</time>
      </trkpt>
      <trkpt lat="42.83436" lon="0.5579">
        <ele>1426.936</ele>
        <time>2021-03-21T13:39:00Z</time>
      </trkpt>
      <trkpt lat="42.83434" lon="0.55789">
        <ele>1426.18</ele>
        <time>2021-03-21T13:39:02Z</time>
      </trkpt>
      <trkpt lat="42.83431" lon="0.55788">
        <ele>1424.691</ele>
        <time>2021-03-21T13:39:04Z</time>
      </trkpt>
      <trkpt lat="42.83429" lon="0.55788">
        <ele>1424.949</ele>
        <time>2021-03-21T13:39:06Z</time>
      </trkpt>
      <trkpt lat="42.83427" lon="0.55787">
        <ele>1424.241</ele>
        <time>2021-03-21T13:39:08Z</time>
      </trkpt>
      <trkpt lat="42.83425" lon="0.55787">
        <ele>1423.153</ele>
        <time>2021-03-21T13:39:10Z</time>
      </trkpt>
      <trkpt lat="42.83422" lon="0.55786">
        <ele>1423.006</ele>
        <time>2021-03-21T13:39:12Z</time>
      </trkpt>
      <trkpt lat="42.8342" lon="0.55787">
        <ele>1422.421</ele>
        <time>2021-03-21T13:39:14Z</time>
      </trkpt>
      <trkpt lat="42.83417" lon="0.55786">
        <ele>1422.615</ele>
        <time>2021-03-21T13:39:16Z</time>
      </trkpt>
      <trkpt lat="42.83415" lon="0.55785">
        <ele>1420.722</ele>
        <time>2021-03-21T13:39:18Z</time>
      </trkpt>
      <trkpt lat="42.83413" lon="0.55785">
        <ele>1419.89</ele>
        <time>2021-03-21T13:39:20Z</time>
      </trkpt>
      <trkpt lat="42.83411" lon="0.55784">
        <ele>1419.233</ele>
        <time>2021-03-21T13:39:22Z</time>
      </trkpt>
      <trkpt lat="42.83408" lon="0.55784">
        <ele>1418.89</ele>
        <time>2021-03-21T13:39:24Z</time>
      </trkpt>
      <trkpt lat="42.83405" lon="0.55784">
        <ele>1417.803</ele>
        <time>2021-03-21T13:39:26Z</time>
      </trkpt>
      <trkpt lat="42.83403" lon="0.55783">
        <ele>1417.93</ele>
        <time>2021-03-21T13:39:28Z</time>
      </trkpt>
      <trkpt lat="42.83401" lon="0.55782">
        <ele>1417.182</ele>
        <time>2021-03-21T13:39:30Z</time>
      </trkpt>
      <trkpt lat="42.83398" lon="0.55782">
        <ele>1416.845</ele>
        <time>2021-03-21T13:39:32Z</time>
      </trkpt>
      <trkpt lat="42.83395" lon="0.55781">
        <ele>1417.127</ele>
        <time>2021-03-21T13:39:34Z</time>
      </trkpt>
      <trkpt lat="42.83393" lon="0.5578">
        <ele>1417.416</ele>
        <time>2021-03-21T13:39:36Z</time>
      </trkpt>
      <trkpt lat="42.8339" lon="0.55779">
        <ele>1415.984</ele>
        <time>2021-03-21T13:39:38Z</time>
      </trkpt>
      <trkpt lat="42.83387" lon="0.55778">
        <ele>1415.54</ele>
        <time>2021-03-21T13:39:40Z</time>
      </trkpt>
      <trkpt lat="42.83385" lon="0.55777">
        <ele>1415.602</ele>
        <time>2021-03-21T13:39:42Z</time>
      </trkpt>
      <trkpt lat="42.83382" lon="0.55777">
        <ele>1415.338</ele>
        <time>2021-03-21T13:39:44Z</time>
      </trkpt>
      <trkpt lat="42.8338" lon="0.55776">
        <ele>1415.09</ele>
        <time>2021-03-21T13:39:46Z</time>
      </trkpt>
      <trkpt lat="42.83378" lon="0.55775">
        <ele>1414.821</ele>
        <time>2021-03-21T13:39:48Z</time>
      </trkpt>
      <trkpt lat="42.83375" lon="0.55774">
        <ele>1414.219</ele>
        <time>2021-03-21T13:39:50Z</time>
      </trkpt>
      <trkpt lat="42.83373" lon="0.55773">
        <ele>1413.489</ele>
        <time>2021-03-21T13:39:52Z</time>
      </trkpt>
      <trkpt lat="42.83371" lon="0.55773">
        <ele>1412.315</ele>
        <time>2021-03-21T13:39:54Z</time>
      </trkpt>
      <trkpt lat="42.83368" lon="0.55772">
        <ele>1411.878</ele>
        <time>2021-03-21T13:39:56Z</time>
      </trkpt>
      <trkpt lat="42.83366" lon="0.55771">
        <ele>1411.968</ele>
        <time>2021-03-21T13:39:58Z</time>
      </trkpt>
      <trkpt lat="42.83363" lon="0.55771">
        <ele>1411.314</ele>
        <time>2021-03-21T13:40:00Z</time>
      </trkpt>
      <trkpt lat="42.8336" lon="0.5577">
        <ele>1411.025</ele>
        <time>2021-03-21T13:40:02Z</time>
      </trkpt>
      <trkpt lat="42.83358" lon="0.55769">
        <ele>1411.619</ele>
        <time>2021-03-21T13:40:04Z</time>
      </trkpt>
      <trkpt lat="42.83355" lon="0.55768">
        <ele>1411.319</ele>
        <time>2021-03-21T13:40:06Z</time>
      </trkpt>
      <trkpt lat="42.83352" lon="0.55768">
        <ele>1411.405</ele>
        <time>2021-03-21T13:40:08Z</time>
      </trkpt>
      <trkpt lat="42.8335" lon="0.55767">
        <ele>1411.405</ele>
        <time>2021-03-21T13:40:10Z</time>
      </trkpt>
      <trkpt lat="42.83347" lon="0.55767">
        <ele>1411.468</ele>
        <time>2021-03-21T13:40:12Z</time>
      </trkpt>
      <trkpt lat="42.83344" lon="0.55767">
        <ele>1410.677</ele>
        <time>2021-03-21T13:40:14Z</time>
      </trkpt>
      <trkpt lat="42.83342" lon="0.55766">
        <ele>1410.239</ele>
        <time>2021-03-21T13:40:16Z</time>
      </trkpt>
      <trkpt lat="42.8334" lon="0.55765">
        <ele>1409.385</ele>
        <time>2021-03-21T13:40:18Z</time>
      </trkpt>
      <trkpt lat="42.83338" lon="0.55765">
        <ele>1408.559</ele>
        <time>2021-03-21T13:40:20Z</time>
      </trkpt>
      <trkpt lat="42.83335" lon="0.55764">
        <ele>1408.807</ele>
        <time>2021-03-21T13:40:22Z</time>
      </trkpt>
      <trkpt lat="42.83333" lon="0.55764">
        <ele>1408.088</ele>
        <time>2021-03-21T13:40:24Z</time>
      </trkpt>
      <trkpt lat="42.8333" lon="0.55763">
        <ele>1408.506</ele>
        <time>2021-03-21T13:40:26Z</time>
      </trkpt>
      <trkpt lat="42.83328" lon="0.55763">
        <ele>1407.666</ele>
        <time>2021-03-21T13:40:28Z</time>
      </trkpt>
      <trkpt lat="42.83325" lon="0.55763">
        <ele>1406.808</ele>
        <time>2021-03-21T13:40:30Z</time>
      </trkpt>
      <trkpt lat="42.83322" lon="0.55762">
        <ele>1406.479</ele>
        <time>2021-03-21T13:40:32Z</time>
      </trkpt>
      <trkpt lat="42.8332" lon="0.55762">
        <ele>1405.93</ele>
        <time>2021-03-21T13:40:34Z</time>
      </trkpt>
      <trkpt lat="42.83318" lon="0.55761">
        <ele>1404.639</ele>
        <time>2021-03-21T13:40:36Z</time>
      </trkpt>
      <trkpt lat="42.83315" lon="0.55761">
        <ele>1403.537</ele>
        <time>2021-03-21T13:40:38Z</time>
      </trkpt>
      <trkpt lat="42.83313" lon="0.5576">
        <ele>1402.576</ele>
        <time>2021-03-21T13:40:40Z</time>
      </trkpt>
      <trkpt lat="42.83311" lon="0.55759">
        <ele>1402.695</ele>
        <time>2021-03-21T13:40:42Z</time>
      </trkpt>
      <trkpt lat="42.83308" lon="0.55758">
        <ele>1401.966</ele>
        <time>2021-03-21T13:40:44Z</time>
      </trkpt>
      <trkpt lat="42.83306" lon="0.55758">
        <ele>1401.239</ele>
        <time>2021-03-21T13:40:46Z</time>
      </trkpt>
      <trkpt lat="42.83304" lon="0.55757">
        <ele>1401.311</ele>
        <time>2021-03-21T13:40:48Z</time>
      </trkpt>
      <trkpt lat="42.83301" lon="0.55757">
        <ele>1401.11</ele>
        <time>2021-03-21T13:40:50Z</time>
      </trkpt>
      <trkpt lat="42.83298" lon="0.55757">
        <ele>1400.534</ele>
        <time>2021-03-21T13:40:52Z</time>
      </trkpt>
      <trkpt lat="42.83296" lon="0.55756">
        <ele>1400.548</ele>
        <time>2021-03-21T13:40:54Z</time>
      </trkpt>
      <trkpt lat="42.83293" lon="0.55757">
        <ele>1400.11</ele>
        <time>2021-03-21T13:40:56Z</time>
      </trkpt>
      <trkpt lat="42.83291" lon="0.55758">
        <ele>1399.664</ele>
        <time>2021-03-21T13:40:58Z</time>
      </trkpt>
      <trkpt lat="42.83289" lon="0.55759">
        <ele>1399.132</ele>
        <time>2021-03-21T13:41:00Z</time>
      </trkpt>
      <trkpt lat="42.83287" lon="0.55759">
        <ele>1399.263</ele>
        <time>2021-03-21T13:41:02Z</time>
      </trkpt>
      <trkpt lat="42.83284" lon="0.5576">
        <ele>1398.833</ele>
        <time>2021-03-21T13:41:04Z</time>
      </trkpt>
      <trkpt lat="42.83282" lon="0.5576">
        <ele>1398.704</ele>
        <time>2021-03-21T13:41:06Z</time>
      </trkpt>
      <trkpt lat="42.83279" lon="0.5576">
        <ele>1399.538</ele>
        <time>2021-03-21T13:41:08Z</time>
      </trkpt>
      <trkpt lat="42.83277" lon="0.55759">
        <ele>1398.932</ele>
        <time>2021-03-21T13:41:10Z</time>
      </trkpt>
      <trkpt lat="42.83274" lon="0.55758">
        <ele>1399.83</ele>
        <time>2021-03-21T13:41:12Z</time>
      </trkpt>
      <trkpt lat="42.83273" lon="0.55755">
        <ele>1399.523</ele>
        <time>2021-03-21T13:41:14Z</time>
      </trkpt>
      <trkpt lat="42.83273" lon="0.55752">
        <ele>1399.258</ele>
        <time>2021-03-21T13:41:16Z</time>
      </trkpt>
      <trkpt lat="42.83274" lon="0.55749">
        <ele>1398.284</ele>
        <time>2021-03-21T13:41:18Z</time>
      </trkpt>
      <trkpt lat="42.83275" lon="0.55747">
        <ele>1398.259</ele>
        <time>2021-03-21T13:41:20Z</time>
      </trkpt>
      <trkpt lat="42.83277" lon="0.55745">
        <ele>1398.302</ele>
        <time>2021-03-21T13:41:22Z</time>
      </trkpt>
      <trkpt lat="42.83279" lon="0.55744">
        <ele>1397.818</ele>
        <time>2021-03-21T13:41:24Z</time>
      </trkpt>
      <trkpt lat="42.83281" lon="0.55742">
        <ele>1397.498</ele>
        <time>2021-03-21T13:41:26Z</time>
      </trkpt>
      <trkpt lat="42.83283" lon="0.55742">
        <ele>1397.342</ele>
        <time>2021-03-21T13:41:28Z</time>
      </trkpt>
      <trkpt lat="42.83285" lon="0.55741">
        <ele>1396.76</ele>
        <time>2021-03-21T13:41:30Z</time>
      </trkpt>
      <trkpt lat="42.83287" lon="0.5574">
        <ele>1396.441</ele>
        <time>2021-03-21T13:41:32Z</time>
      </trkpt>
      <trkpt lat="42.8329" lon="0.55739">
        <ele>1396.313</ele>
        <time>2021-03-21T13:41:34Z</time>
      </trkpt>
      <trkpt lat="42.83292" lon="0.55738">
        <ele>1396.017</ele>
        <time>2021-03-21T13:41:36Z</time>
      </trkpt>
      <trkpt lat="42.83294" lon="0.55736">
        <ele>1396.218</ele>
        <time>2021-03-21T13:41:38Z</time>
      </trkpt>
      <trkpt lat="42.83297" lon="0.55735">
        <ele>1395.93</ele>
        <time>2021-03-21T13:41:40Z</time>
      </trkpt>
      <trkpt lat="42.83299" lon="0.55733">
        <ele>1396.76</ele>
        <time>2021-03-21T13:41:42Z</time>
      </trkpt>
      <trkpt lat="42.83301" lon="0.55731">
        <ele>1396.783</ele>
        <time>2021-03-21T13:41:44Z</time>
      </trkpt>
      <trkpt lat="42.83303" lon="0.5573">
        <ele>1396.769</ele>
        <time>2021-03-21T13:41:46Z</time>
      </trkpt>
      <trkpt lat="42.83305" lon="0.55729">
        <ele>1397.137</ele>
        <time>2021-03-21T13:41:48Z</time>
      </trkpt>
      <trkpt lat="42.83308" lon="0.55728">
        <ele>1396.793</ele>
        <time>2021-03-21T13:41:50Z</time>
      </trkpt>
      <trkpt lat="42.8331" lon="0.55727">
        <ele>1395.885</ele>
        <time>2021-03-21T13:41:52Z</time>
      </trkpt>
      <trkpt lat="42.83313" lon="0.55727">
        <ele>1395.546</ele>
        <time>2021-03-21T13:41:54Z</time>
      </trkpt>
      <trkpt lat="42.83315" lon="0.55726">
        <ele>1396.352</ele>
        <time>2021-03-21T13:41:56Z</time>
      </trkpt>
      <trkpt lat="42.83317" lon="0.55725">
        <ele>1396.7</ele>
        <time>2021-03-21T13:41:58Z</time>
      </trkpt>
      <trkpt lat="42.8332" lon="0.55725">
        <ele>1396.842</ele>
        <time>2021-03-21T13:42:00Z</time>
      </trkpt>
      <trkpt lat="42.83322" lon="0.55724">
        <ele>1396.859</ele>
        <time>2021-03-21T13:42:02Z</time>
      </trkpt>
      <trkpt lat="42.83325" lon="0.55723">
        <ele>1396.286</ele>
        <time>2021-03-21T13:42:04Z</time>
      </trkpt>
      <trkpt lat="42.83327" lon="0.55723">
        <ele>1395.892</ele>
        <time>2021-03-21T13:42:06Z</time>
      </trkpt>
      <trkpt lat="42.83329" lon="0.55722">
        <ele>1395.092</ele>
        <time>2021-03-21T13:42:08Z</time>
      </trkpt>
      <trkpt lat="42.83332" lon="0.55722">
        <ele>1394.728</ele>
        <time>2021-03-21T13:42:10Z</time>
      </trkpt>
      <trkpt lat="42.83334" lon="0.55722">
        <ele>1394.453</ele>
        <time>2021-03-21T13:42:12Z</time>
      </trkpt>
      <trkpt lat="42.83336" lon="0.55721">
        <ele>1394.605</ele>
        <time>2021-03-21T13:42:14Z</time>
      </trkpt>
      <trkpt lat="42.83338" lon="0.55721">
        <ele>1394.499</ele>
        <time>2021-03-21T13:42:16Z</time>
      </trkpt>
      <trkpt lat="42.8334" lon="0.55719">
        <ele>1394.986</ele>
        <time>2021-03-21T13:42:18Z</time>
      </trkpt>
      <trkpt lat="42.83342" lon="0.55717">
        <ele>1394.368</ele>
        <time>2021-03-21T13:42:20Z</time>
      </trkpt>
      <trkpt lat="42.83342" lon="0.55714">
        <ele>1393.298</ele>
        <time>2021-03-21T13:42:22Z</time>
      </trkpt>
      <trkpt lat="42.83341" lon="0.5571">
        <ele>1392.6</ele>
        <time>2021-03-21T13:42:24Z</time>
      </trkpt>
      <trkpt lat="42.83339" lon="0.55708">
        <ele>1391.638</ele>
        <time>2021-03-21T13:42:26Z</time>
      </trkpt>
      <trkpt lat="42.83336" lon="0.55706">
        <ele>1390.666</ele>
        <time>2021-03-21T13:42:28Z</time>
      </trkpt>
      <trkpt lat="42.83334" lon="0.55704">
        <ele>1390.247</ele>
        <time>2021-03-21T13:42:30Z</time>
      </trkpt>
      <trkpt lat="42.83332" lon="0.55702">
        <ele>1390.373</ele>
        <time>2021-03-21T13:42:32Z</time>
      </trkpt>
      <trkpt lat="42.8333" lon="0.55701">
        <ele>1390.485</ele>
        <time>2021-03-21T13:42:34Z</time>
      </trkpt>
      <trkpt lat="42.83328" lon="0.557">
        <ele>1389.983</ele>
        <time>2021-03-21T13:42:36Z</time>
      </trkpt>
      <trkpt lat="42.83326" lon="0.55699">
        <ele>1389.387</ele>
        <time>2021-03-21T13:42:38Z</time>
      </trkpt>
      <trkpt lat="42.83323" lon="0.55698">
        <ele>1389.201</ele>
        <time>2021-03-21T13:42:40Z</time>
      </trkpt>
      <trkpt lat="42.83321" lon="0.55697">
        <ele>1388.894</ele>
        <time>2021-03-21T13:42:42Z</time>
      </trkpt>
      <trkpt lat="42.83319" lon="0.55696">
        <ele>1388.667</ele>
        <time>2021-03-21T13:42:44Z</time>
      </trkpt>
      <trkpt lat="42.83317" lon="0.55695">
        <ele>1387.909</ele>
        <time>2021-03-21T13:42:46Z</time>
      </trkpt>
      <trkpt lat="42.83315" lon="0.55694">
        <ele>1388.057</ele>
        <time>2021-03-21T13:42:48Z</time>
      </trkpt>
      <trkpt lat="42.83313" lon="0.55692">
        <ele>1387.995</ele>
        <time>2021-03-21T13:42:50Z</time>
      </trkpt>
      <trkpt lat="42.83311" lon="0.55692">
        <ele>1387.854</ele>
        <time>2021-03-21T13:42:52Z</time>
      </trkpt>
      <trkpt lat="42.83309" lon="0.5569">
        <ele>1387.363</ele>
        <time>2021-03-21T13:42:54Z</time>
      </trkpt>
      <trkpt lat="42.83306" lon="0.55689">
        <ele>1387.016</ele>
        <time>2021-03-21T13:42:56Z</time>
      </trkpt>
      <trkpt lat="42.83304" lon="0.55689">
        <ele>1386.205</ele>
        <time>2021-03-21T13:42:58Z</time>
      </trkpt>
      <trkpt lat="42.83302" lon="0.55688">
        <ele>1385.814</ele>
        <time>2021-03-21T13:43:00Z</time>
      </trkpt>
      <trkpt lat="42.833" lon="0.55688">
        <ele>1384.842</ele>
        <time>2021-03-21T13:43:02Z</time>
      </trkpt>
      <trkpt lat="42.83298" lon="0.55688">
        <ele>1384.157</ele>
        <time>2021-03-21T13:43:04Z</time>
      </trkpt>
      <trkpt lat="42.83296" lon="0.55688">
        <ele>1383.757</ele>
        <time>2021-03-21T13:43:06Z</time>
      </trkpt>
      <trkpt lat="42.83294" lon="0.55689">
        <ele>1383.507</ele>
        <time>2021-03-21T13:43:08Z</time>
      </trkpt>
      <trkpt lat="42.83292" lon="0.55689">
        <ele>1383.475</ele>
        <time>2021-03-21T13:43:10Z</time>
      </trkpt>
      <trkpt lat="42.8329" lon="0.55689">
        <ele>1383.419</ele>
        <time>2021-03-21T13:43:12Z</time>
      </trkpt>
      <trkpt lat="42.8329" lon="0.55689">
        <ele>1383.229</ele>
        <time>2021-03-21T13:43:14Z</time>
      </trkpt>
      <trkpt lat="42.83287" lon="0.55689">
        <ele>1382.568</ele>
        <time>2021-03-21T13:43:16Z</time>
      </trkpt>
      <trkpt lat="42.83285" lon="0.5569">
        <ele>1381.811</ele>
        <time>2021-03-21T13:43:18Z</time>
      </trkpt>
      <trkpt lat="42.83284" lon="0.55691">
        <ele>1381.385</ele>
        <time>2021-03-21T13:43:20Z</time>
      </trkpt>
      <trkpt lat="42.83282" lon="0.55691">
        <ele>1381.38</ele>
        <time>2021-03-21T13:43:22Z</time>
      </trkpt>
      <trkpt lat="42.83279" lon="0.55691">
        <ele>1381.537</ele>
        <time>2021-03-21T13:43:24Z</time>
      </trkpt>
      <trkpt lat="42.83278" lon="0.5569">
        <ele>1380.991</ele>
        <time>2021-03-21T13:43:26Z</time>
      </trkpt>
      <trkpt lat="42.83277" lon="0.55687">
        <ele>1380.424</ele>
        <time>2021-03-21T13:43:28Z</time>
      </trkpt>
      <trkpt lat="42.83276" lon="0.55685">
        <ele>1379.543</ele>
        <time>2021-03-21T13:43:30Z</time>
      </trkpt>
      <trkpt lat="42.83277" lon="0.55681">
        <ele>1379.154</ele>
        <time>2021-03-21T13:43:32Z</time>
      </trkpt>
      <trkpt lat="42.83278" lon="0.55678">
        <ele>1378.524</ele>
        <time>2021-03-21T13:43:34Z</time>
      </trkpt>
      <trkpt lat="42.83279" lon="0.55676">
        <ele>1377.486</ele>
        <time>2021-03-21T13:43:36Z</time>
      </trkpt>
      <trkpt lat="42.83281" lon="0.55674">
        <ele>1376.818</ele>
        <time>2021-03-21T13:43:38Z</time>
      </trkpt>
      <trkpt lat="42.83283" lon="0.55672">
        <ele>1376.289</ele>
        <time>2021-03-21T13:43:40Z</time>
      </trkpt>
      <trkpt lat="42.83285" lon="0.55671">
        <ele>1376.002</ele>
        <time>2021-03-21T13:43:42Z</time>
      </trkpt>
      <trkpt lat="42.83288" lon="0.5567">
        <ele>1375.517</ele>
        <time>2021-03-21T13:43:44Z</time>
      </trkpt>
      <trkpt lat="42.8329" lon="0.5567">
        <ele>1375.12</ele>
        <time>2021-03-21T13:43:46Z</time>
      </trkpt>
      <trkpt lat="42.83292" lon="0.55668">
        <ele>1374.566</ele>
        <time>2021-03-21T13:43:48Z</time>
      </trkpt>
      <trkpt lat="42.83295" lon="0.55667">
        <ele>1374.289</ele>
        <time>2021-03-21T13:43:50Z</time>
      </trkpt>
      <trkpt lat="42.83297" lon="0.55667">
        <ele>1373.113</ele>
        <time>2021-03-21T13:43:52Z</time>
      </trkpt>
      <trkpt lat="42.833" lon="0.55665">
        <ele>1372.526</ele>
        <time>2021-03-21T13:43:55Z</time>
      </trkpt>
      <trkpt lat="42.83303" lon="0.55663">
        <ele>1372.594</ele>
        <time>2021-03-21T13:43:57Z</time>
      </trkpt>
      <trkpt lat="42.83305" lon="0.55661">
        <ele>1372.538</ele>
        <time>2021-03-21T13:43:59Z</time>
      </trkpt>
      <trkpt lat="42.83307" lon="0.5566">
        <ele>1372.493</ele>
        <time>2021-03-21T13:44:01Z</time>
      </trkpt>
      <trkpt lat="42.8331" lon="0.55658">
        <ele>1372.576</ele>
        <time>2021-03-21T13:44:03Z</time>
      </trkpt>
      <trkpt lat="42.83312" lon="0.55657">
        <ele>1371.803</ele>
        <time>2021-03-21T13:44:05Z</time>
      </trkpt>
      <trkpt lat="42.83314" lon="0.55657">
        <ele>1372.36</ele>
        <time>2021-03-21T13:44:07Z</time>
      </trkpt>
      <trkpt lat="42.83317" lon="0.55656">
        <ele>1372.31</ele>
        <time>2021-03-21T13:44:09Z</time>
      </trkpt>
      <trkpt lat="42.83319" lon="0.55657">
        <ele>1371.456</ele>
        <time>2021-03-21T13:44:11Z</time>
      </trkpt>
      <trkpt lat="42.83321" lon="0.55656">
        <ele>1370.401</ele>
        <time>2021-03-21T13:44:13Z</time>
      </trkpt>
      <trkpt lat="42.83323" lon="0.55656">
        <ele>1370.093</ele>
        <time>2021-03-21T13:44:15Z</time>
      </trkpt>
      <trkpt lat="42.83326" lon="0.55655">
        <ele>1370.181</ele>
        <time>2021-03-21T13:44:17Z</time>
      </trkpt>
      <trkpt lat="42.83328" lon="0.55654">
        <ele>1370.884</ele>
        <time>2021-03-21T13:44:19Z</time>
      </trkpt>
      <trkpt lat="42.83331" lon="0.55654">
        <ele>1370.361</ele>
        <time>2021-03-21T13:44:21Z</time>
      </trkpt>
      <trkpt lat="42.83333" lon="0.55653">
        <ele>1370.083</ele>
        <time>2021-03-21T13:44:23Z</time>
      </trkpt>
      <trkpt lat="42.83336" lon="0.55653">
        <ele>1369.471</ele>
        <time>2021-03-21T13:44:25Z</time>
      </trkpt>
      <trkpt lat="42.83338" lon="0.55653">
        <ele>1369.184</ele>
        <time>2021-03-21T13:44:27Z</time>
      </trkpt>
      <trkpt lat="42.8334" lon="0.55653">
        <ele>1368.288</ele>
        <time>2021-03-21T13:44:29Z</time>
      </trkpt>
      <trkpt lat="42.83343" lon="0.55652">
        <ele>1368.018</ele>
        <time>2021-03-21T13:44:31Z</time>
      </trkpt>
      <trkpt lat="42.83345" lon="0.55652">
        <ele>1367.801</ele>
        <time>2021-03-21T13:44:33Z</time>
      </trkpt>
      <trkpt lat="42.83348" lon="0.55651">
        <ele>1367.642</ele>
        <time>2021-03-21T13:44:35Z</time>
      </trkpt>
      <trkpt lat="42.8335" lon="0.55651">
        <ele>1367.366</ele>
        <time>2021-03-21T13:44:37Z</time>
      </trkpt>
      <trkpt lat="42.83353" lon="0.55651">
        <ele>1367.183</ele>
        <time>2021-03-21T13:44:39Z</time>
      </trkpt>
      <trkpt lat="42.83355" lon="0.55651">
        <ele>1366.825</ele>
        <time>2021-03-21T13:44:41Z</time>
      </trkpt>
      <trkpt lat="42.83358" lon="0.55652">
        <ele>1365.178</ele>
        <time>2021-03-21T13:44:43Z</time>
      </trkpt>
      <trkpt lat="42.8336" lon="0.55653">
        <ele>1364.228</ele>
        <time>2021-03-21T13:44:45Z</time>
      </trkpt>
      <trkpt lat="42.83363" lon="0.55653">
        <ele>1363.701</ele>
        <time>2021-03-21T13:44:47Z</time>
      </trkpt>
      <trkpt lat="42.83365" lon="0.55652">
        <ele>1363.259</ele>
        <time>2021-03-21T13:44:49Z</time>
      </trkpt>
      <trkpt lat="42.83367" lon="0.55652">
        <ele>1362.9</ele>
        <time>2021-03-21T13:44:51Z</time>
      </trkpt>
      <trkpt lat="42.8337" lon="0.55651">
        <ele>1362.896</ele>
        <time>2021-03-21T13:44:53Z</time>
      </trkpt>
      <trkpt lat="42.83372" lon="0.55651">
        <ele>1363.229</ele>
        <time>2021-03-21T13:44:55Z</time>
      </trkpt>
      <trkpt lat="42.83375" lon="0.55651">
        <ele>1362.907</ele>
        <time>2021-03-21T13:44:57Z</time>
      </trkpt>
      <trkpt lat="42.83378" lon="0.5565">
        <ele>1362.45</ele>
        <time>2021-03-21T13:44:59Z</time>
      </trkpt>
      <trkpt lat="42.83381" lon="0.5565">
        <ele>1362.031</ele>
        <time>2021-03-21T13:45:01Z</time>
      </trkpt>
      <trkpt lat="42.83383" lon="0.5565">
        <ele>1362.037</ele>
        <time>2021-03-21T13:45:03Z</time>
      </trkpt>
      <trkpt lat="42.83386" lon="0.5565">
        <ele>1361.163</ele>
        <time>2021-03-21T13:45:05Z</time>
      </trkpt>
      <trkpt lat="42.83389" lon="0.55651">
        <ele>1360.069</ele>
        <time>2021-03-21T13:45:07Z</time>
      </trkpt>
      <trkpt lat="42.83391" lon="0.55651">
        <ele>1359.088</ele>
        <time>2021-03-21T13:45:09Z</time>
      </trkpt>
      <trkpt lat="42.83393" lon="0.5565">
        <ele>1359.142</ele>
        <time>2021-03-21T13:45:11Z</time>
      </trkpt>
      <trkpt lat="42.83396" lon="0.5565">
        <ele>1358.631</ele>
        <time>2021-03-21T13:45:13Z</time>
      </trkpt>
      <trkpt lat="42.83398" lon="0.55649">
        <ele>1358.342</ele>
        <time>2021-03-21T13:45:15Z</time>
      </trkpt>
      <trkpt lat="42.834" lon="0.55648">
        <ele>1358.547</ele>
        <time>2021-03-21T13:45:17Z</time>
      </trkpt>
      <trkpt lat="42.83403" lon="0.55648">
        <ele>1358.584</ele>
        <time>2021-03-21T13:45:19Z</time>
      </trkpt>
      <trkpt lat="42.83405" lon="0.55648">
        <ele>1359.074</ele>
        <time>2021-03-21T13:45:21Z</time>
      </trkpt>
      <trkpt lat="42.83407" lon="0.55648">
        <ele>1358.765</ele>
        <time>2021-03-21T13:45:23Z</time>
      </trkpt>
      <trkpt lat="42.8341" lon="0.55647">
        <ele>1358.667</ele>
        <time>2021-03-21T13:45:25Z</time>
      </trkpt>
      <trkpt lat="42.83412" lon="0.55647">
        <ele>1358.647</ele>
        <time>2021-03-21T13:45:27Z</time>
      </trkpt>
      <trkpt lat="42.83414" lon="0.55647">
        <ele>1357.896</ele>
        <time>2021-03-21T13:45:29Z</time>
      </trkpt>
      <trkpt lat="42.83417" lon="0.55647">
        <ele>1357.317</ele>
        <time>2021-03-21T13:45:31Z</time>
      </trkpt>
      <trkpt lat="42.83419" lon="0.55647">
        <ele>1357.194</ele>
        <time>2021-03-21T13:45:33Z</time>
      </trkpt>
      <trkpt lat="42.8342" lon="0.55646">
        <ele>1356.166</ele>
        <time>2021-03-21T13:45:35Z</time>
      </trkpt>
      <trkpt lat="42.83423" lon="0.55645">
        <ele>1356.274</ele>
        <time>2021-03-21T13:45:37Z</time>
      </trkpt>
      <trkpt lat="42.83425" lon="0.55644">
        <ele>1355.98</ele>
        <time>2021-03-21T13:45:39Z</time>
      </trkpt>
      <trkpt lat="42.83427" lon="0.55643">
        <ele>1356.686</ele>
        <time>2021-03-21T13:45:41Z</time>
      </trkpt>
      <trkpt lat="42.83429" lon="0.55642">
        <ele>1357.07</ele>
        <time>2021-03-21T13:45:43Z</time>
      </trkpt>
      <trkpt lat="42.83432" lon="0.55642">
        <ele>1356.456</ele>
        <time>2021-03-21T13:45:45Z</time>
      </trkpt>
      <trkpt lat="42.83434" lon="0.55641">
        <ele>1356.236</ele>
        <time>2021-03-21T13:45:47Z</time>
      </trkpt>
      <trkpt lat="42.83437" lon="0.55641">
        <ele>1355.453</ele>
        <time>2021-03-21T13:45:49Z</time>
      </trkpt>
      <trkpt lat="42.83439" lon="0.5564">
        <ele>1355.851</ele>
        <time>2021-03-21T13:45:51Z</time>
      </trkpt>
      <trkpt lat="42.83441" lon="0.55639">
        <ele>1354.947</ele>
        <time>2021-03-21T13:45:53Z</time>
      </trkpt>
      <trkpt lat="42.83443" lon="0.55638">
        <ele>1354.311</ele>
        <time>2021-03-21T13:45:55Z</time>
      </trkpt>
      <trkpt lat="42.83445" lon="0.55637">
        <ele>1354.236</ele>
        <time>2021-03-21T13:45:57Z</time>
      </trkpt>
      <trkpt lat="42.83448" lon="0.55636">
        <ele>1354.467</ele>
        <time>2021-03-21T13:45:59Z</time>
      </trkpt>
      <trkpt lat="42.8345" lon="0.55635">
        <ele>1354.573</ele>
        <time>2021-03-21T13:46:01Z</time>
      </trkpt>
      <trkpt lat="42.83452" lon="0.55634">
        <ele>1354.549</ele>
        <time>2021-03-21T13:46:03Z</time>
      </trkpt>
      <trkpt lat="42.83455" lon="0.55634">
        <ele>1354.528</ele>
        <time>2021-03-21T13:46:05Z</time>
      </trkpt>
      <trkpt lat="42.83457" lon="0.55633">
        <ele>1354.05</ele>
        <time>2021-03-21T13:46:07Z</time>
      </trkpt>
      <trkpt lat="42.83459" lon="0.55633">
        <ele>1353.72</ele>
        <time>2021-03-21T13:46:09Z</time>
      </trkpt>
      <trkpt lat="42.83462" lon="0.55633">
        <ele>1353.423</ele>
        <time>2021-03-21T13:46:11Z</time>
      </trkpt>
      <trkpt lat="42.83464" lon="0.55632">
        <ele>1353.295</ele>
        <time>2021-03-21T13:46:13Z</time>
      </trkpt>
      <trkpt lat="42.83466" lon="0.55632">
        <ele>1353.018</ele>
        <time>2021-03-21T13:46:15Z</time>
      </trkpt>
      <trkpt lat="42.83468" lon="0.55632">
        <ele>1352.444</ele>
        <time>2021-03-21T13:46:17Z</time>
      </trkpt>
      <trkpt lat="42.8347" lon="0.55631">
        <ele>1352.704</ele>
        <time>2021-03-21T13:46:19Z</time>
      </trkpt>
      <trkpt lat="42.83472" lon="0.5563">
        <ele>1352.292</ele>
        <time>2021-03-21T13:46:21Z</time>
      </trkpt>
      <trkpt lat="42.83475" lon="0.5563">
        <ele>1351.873</ele>
        <time>2021-03-21T13:46:23Z</time>
      </trkpt>
      <trkpt lat="42.83477" lon="0.55629">
        <ele>1351.887</ele>
        <time>2021-03-21T13:46:25Z</time>
      </trkpt>
      <trkpt lat="42.8348" lon="0.55628">
        <ele>1351.714</ele>
        <time>2021-03-21T13:46:27Z</time>
      </trkpt>
      <trkpt lat="42.83482" lon="0.55628">
        <ele>1350.879</ele>
        <time>2021-03-21T13:46:29Z</time>
      </trkpt>
      <trkpt lat="42.83484" lon="0.55629">
        <ele>1350.014</ele>
        <time>2021-03-21T13:46:31Z</time>
      </trkpt>
      <trkpt lat="42.83487" lon="0.55629">
        <ele>1349.594</ele>
        <time>2021-03-21T13:46:33Z</time>
      </trkpt>
      <trkpt lat="42.83489" lon="0.55628">
        <ele>1349.243</ele>
        <time>2021-03-21T13:46:35Z</time>
      </trkpt>
      <trkpt lat="42.83491" lon="0.55628">
        <ele>1349.33</ele>
        <time>2021-03-21T13:46:37Z</time>
      </trkpt>
      <trkpt lat="42.83493" lon="0.55628">
        <ele>1349.485</ele>
        <time>2021-03-21T13:46:39Z</time>
      </trkpt>
      <trkpt lat="42.83495" lon="0.55628">
        <ele>1348.616</ele>
        <time>2021-03-21T13:46:41Z</time>
      </trkpt>
      <trkpt lat="42.83497" lon="0.55628">
        <ele>1348.073</ele>
        <time>2021-03-21T13:46:43Z</time>
      </trkpt>
      <trkpt lat="42.83499" lon="0.55628">
        <ele>1347.079</ele>
        <time>2021-03-21T13:46:45Z</time>
      </trkpt>
      <trkpt lat="42.83501" lon="0.55629">
        <ele>1346.321</ele>
        <time>2021-03-21T13:46:47Z</time>
      </trkpt>
      <trkpt lat="42.83504" lon="0.55629">
        <ele>1345.316</ele>
        <time>2021-03-21T13:46:49Z</time>
      </trkpt>
      <trkpt lat="42.83506" lon="0.55629">
        <ele>1345.688</ele>
        <time>2021-03-21T13:46:51Z</time>
      </trkpt>
      <trkpt lat="42.83508" lon="0.55629">
        <ele>1345.757</ele>
        <time>2021-03-21T13:46:53Z</time>
      </trkpt>
      <trkpt lat="42.8351" lon="0.55628">
        <ele>1345.172</ele>
        <time>2021-03-21T13:46:55Z</time>
      </trkpt>
      <trkpt lat="42.83512" lon="0.55628">
        <ele>1345.256</ele>
        <time>2021-03-21T13:46:57Z</time>
      </trkpt>
      <trkpt lat="42.83515" lon="0.55627">
        <ele>1345.324</ele>
        <time>2021-03-21T13:46:59Z</time>
      </trkpt>
      <trkpt lat="42.83517" lon="0.55626">
        <ele>1345.359</ele>
        <time>2021-03-21T13:47:01Z</time>
      </trkpt>
      <trkpt lat="42.83519" lon="0.55627">
        <ele>1344.189</ele>
        <time>2021-03-21T13:47:03Z</time>
      </trkpt>
      <trkpt lat="42.83521" lon="0.55626">
        <ele>1343.321</ele>
        <time>2021-03-21T13:47:05Z</time>
      </trkpt>
      <trkpt lat="42.83524" lon="0.55626">
        <ele>1342.341</ele>
        <time>2021-03-21T13:47:07Z</time>
      </trkpt>
      <trkpt lat="42.83526" lon="0.55625">
        <ele>1342.06</ele>
        <time>2021-03-21T13:47:09Z</time>
      </trkpt>
      <trkpt lat="42.83528" lon="0.55624">
        <ele>1341.718</ele>
        <time>2021-03-21T13:47:11Z</time>
      </trkpt>
      <trkpt lat="42.8353" lon="0.55623">
        <ele>1341.063</ele>
        <time>2021-03-21T13:47:13Z</time>
      </trkpt>
      <trkpt lat="42.83533" lon="0.55621">
        <ele>1340.657</ele>
        <time>2021-03-21T13:47:15Z</time>
      </trkpt>
      <trkpt lat="42.83534" lon="0.5562">
        <ele>1339.799</ele>
        <time>2021-03-21T13:47:17Z</time>
      </trkpt>
      <trkpt lat="42.83535" lon="0.55618">
        <ele>1338.869</ele>
        <time>2021-03-21T13:47:19Z</time>
      </trkpt>
      <trkpt lat="42.83537" lon="0.55617">
        <ele>1338.54</ele>
        <time>2021-03-21T13:47:21Z</time>
      </trkpt>
      <trkpt lat="42.83538" lon="0.55615">
        <ele>1337.667</ele>
        <time>2021-03-21T13:47:23Z</time>
      </trkpt>
      <trkpt lat="42.8354" lon="0.55613">
        <ele>1337.014</ele>
        <time>2021-03-21T13:47:25Z</time>
      </trkpt>
      <trkpt lat="42.83541" lon="0.55611">
        <ele>1336.528</ele>
        <time>2021-03-21T13:47:27Z</time>
      </trkpt>
      <trkpt lat="42.83543" lon="0.5561">
        <ele>1335.976</ele>
        <time>2021-03-21T13:47:29Z</time>
      </trkpt>
      <trkpt lat="42.83545" lon="0.55608">
        <ele>1335.855</ele>
        <time>2021-03-21T13:47:31Z</time>
      </trkpt>
      <trkpt lat="42.83547" lon="0.55606">
        <ele>1334.884</ele>
        <time>2021-03-21T13:47:33Z</time>
      </trkpt>
      <trkpt lat="42.83549" lon="0.55605">
        <ele>1334.238</ele>
        <time>2021-03-21T13:47:35Z</time>
      </trkpt>
      <trkpt lat="42.83551" lon="0.55603">
        <ele>1333.814</ele>
        <time>2021-03-21T13:47:37Z</time>
      </trkpt>
      <trkpt lat="42.83553" lon="0.55602">
        <ele>1333.295</ele>
        <time>2021-03-21T13:47:39Z</time>
      </trkpt>
      <trkpt lat="42.83554" lon="0.556">
        <ele>1332.748</ele>
        <time>2021-03-21T13:47:41Z</time>
      </trkpt>
      <trkpt lat="42.83556" lon="0.55598">
        <ele>1332.543</ele>
        <time>2021-03-21T13:47:43Z</time>
      </trkpt>
      <trkpt lat="42.83558" lon="0.55596">
        <ele>1332.416</ele>
        <time>2021-03-21T13:47:45Z</time>
      </trkpt>
      <trkpt lat="42.8356" lon="0.55594">
        <ele>1332.049</ele>
        <time>2021-03-21T13:47:47Z</time>
      </trkpt>
      <trkpt lat="42.83562" lon="0.55593">
        <ele>1331.575</ele>
        <time>2021-03-21T13:47:49Z</time>
      </trkpt>
      <trkpt lat="42.83565" lon="0.55591">
        <ele>1331.238</ele>
        <time>2021-03-21T13:47:51Z</time>
      </trkpt>
      <trkpt lat="42.83567" lon="0.5559">
        <ele>1330.86</ele>
        <time>2021-03-21T13:47:53Z</time>
      </trkpt>
      <trkpt lat="42.83569" lon="0.55589">
        <ele>1330.454</ele>
        <time>2021-03-21T13:47:55Z</time>
      </trkpt>
      <trkpt lat="42.83571" lon="0.55587">
        <ele>1330.269</ele>
        <time>2021-03-21T13:47:57Z</time>
      </trkpt>
      <trkpt lat="42.83573" lon="0.55586">
        <ele>1329.821</ele>
        <time>2021-03-21T13:47:59Z</time>
      </trkpt>
      <trkpt lat="42.83575" lon="0.55585">
        <ele>1329.563</ele>
        <time>2021-03-21T13:48:01Z</time>
      </trkpt>
      <trkpt lat="42.83577" lon="0.55583">
        <ele>1329.066</ele>
        <time>2021-03-21T13:48:03Z</time>
      </trkpt>
      <trkpt lat="42.83579" lon="0.55581">
        <ele>1328.411</ele>
        <time>2021-03-21T13:48:05Z</time>
      </trkpt>
      <trkpt lat="42.83581" lon="0.55579">
        <ele>1327.845</ele>
        <time>2021-03-21T13:48:07Z</time>
      </trkpt>
      <trkpt lat="42.83584" lon="0.55578">
        <ele>1327.791</ele>
        <time>2021-03-21T13:48:09Z</time>
      </trkpt>
      <trkpt lat="42.83586" lon="0.55576">
        <ele>1327.062</ele>
        <time>2021-03-21T13:48:11Z</time>
      </trkpt>
      <trkpt lat="42.83588" lon="0.55575">
        <ele>1326.606</ele>
        <time>2021-03-21T13:48:13Z</time>
      </trkpt>
      <trkpt lat="42.83589" lon="0.55573">
        <ele>1326.532</ele>
        <time>2021-03-21T13:48:15Z</time>
      </trkpt>
      <trkpt lat="42.83591" lon="0.5557">
        <ele>1325.854</ele>
        <time>2021-03-21T13:48:17Z</time>
      </trkpt>
      <trkpt lat="42.83593" lon="0.55568">
        <ele>1325.375</ele>
        <time>2021-03-21T13:48:19Z</time>
      </trkpt>
      <trkpt lat="42.83595" lon="0.55566">
        <ele>1324.94</ele>
        <time>2021-03-21T13:48:21Z</time>
      </trkpt>
      <trkpt lat="42.83597" lon="0.55564">
        <ele>1324.901</ele>
        <time>2021-03-21T13:48:23Z</time>
      </trkpt>
      <trkpt lat="42.83598" lon="0.55562">
        <ele>1325.046</ele>
        <time>2021-03-21T13:48:25Z</time>
      </trkpt>
      <trkpt lat="42.836" lon="0.55559">
        <ele>1324.982</ele>
        <time>2021-03-21T13:48:27Z</time>
      </trkpt>
      <trkpt lat="42.83602" lon="0.55557">
        <ele>1324.644</ele>
        <time>2021-03-21T13:48:29Z</time>
      </trkpt>
      <trkpt lat="42.83604" lon="0.55555">
        <ele>1323.927</ele>
        <time>2021-03-21T13:48:31Z</time>
      </trkpt>
      <trkpt lat="42.83606" lon="0.55554">
        <ele>1323.262</ele>
        <time>2021-03-21T13:48:33Z</time>
      </trkpt>
      <trkpt lat="42.83608" lon="0.55552">
        <ele>1323.31</ele>
        <time>2021-03-21T13:48:35Z</time>
      </trkpt>
      <trkpt lat="42.8361" lon="0.55551">
        <ele>1323.096</ele>
        <time>2021-03-21T13:48:37Z</time>
      </trkpt>
      <trkpt lat="42.83613" lon="0.5555">
        <ele>1322.261</ele>
        <time>2021-03-21T13:48:39Z</time>
      </trkpt>
      <trkpt lat="42.83615" lon="0.55548">
        <ele>1321.472</ele>
        <time>2021-03-21T13:48:41Z</time>
      </trkpt>
      <trkpt lat="42.83617" lon="0.55547">
        <ele>1321.146</ele>
        <time>2021-03-21T13:48:43Z</time>
      </trkpt>
      <trkpt lat="42.83619" lon="0.55545">
        <ele>1320.697</ele>
        <time>2021-03-21T13:48:45Z</time>
      </trkpt>
      <trkpt lat="42.8362" lon="0.55544">
        <ele>1320.918</ele>
        <time>2021-03-21T13:48:47Z</time>
      </trkpt>
      <trkpt lat="42.83622" lon="0.55542">
        <ele>1320.265</ele>
        <time>2021-03-21T13:48:49Z</time>
      </trkpt>
      <trkpt lat="42.83624" lon="0.55541">
        <ele>1320.251</ele>
        <time>2021-03-21T13:48:51Z</time>
      </trkpt>
      <trkpt lat="42.83627" lon="0.55539">
        <ele>1320.181</ele>
        <time>2021-03-21T13:48:53Z</time>
      </trkpt>
      <trkpt lat="42.83629" lon="0.55538">
        <ele>1320.394</ele>
        <time>2021-03-21T13:48:55Z</time>
      </trkpt>
      <trkpt lat="42.83631" lon="0.55537">
        <ele>1319.833</ele>
        <time>2021-03-21T13:48:57Z</time>
      </trkpt>
      <trkpt lat="42.83633" lon="0.55536">
        <ele>1318.962</ele>
        <time>2021-03-21T13:48:59Z</time>
      </trkpt>
      <trkpt lat="42.83635" lon="0.55534">
        <ele>1318.888</ele>
        <time>2021-03-21T13:49:01Z</time>
      </trkpt>
      <trkpt lat="42.83637" lon="0.55532">
        <ele>1318.366</ele>
        <time>2021-03-21T13:49:03Z</time>
      </trkpt>
      <trkpt lat="42.8364" lon="0.5553">
        <ele>1317.945</ele>
        <time>2021-03-21T13:49:05Z</time>
      </trkpt>
      <trkpt lat="42.83642" lon="0.55529">
        <ele>1317.257</ele>
        <time>2021-03-21T13:49:07Z</time>
      </trkpt>
      <trkpt lat="42.83644" lon="0.55527">
        <ele>1316.55</ele>
        <time>2021-03-21T13:49:09Z</time>
      </trkpt>
      <trkpt lat="42.83646" lon="0.55526">
        <ele>1315.838</ele>
        <time>2021-03-21T13:49:11Z</time>
      </trkpt>
      <trkpt lat="42.83648" lon="0.55524">
        <ele>1315.484</ele>
        <time>2021-03-21T13:49:13Z</time>
      </trkpt>
      <trkpt lat="42.8365" lon="0.55524">
        <ele>1315.464</ele>
        <time>2021-03-21T13:49:15Z</time>
      </trkpt>
      <trkpt lat="42.83653" lon="0.55522">
        <ele>1315.092</ele>
        <time>2021-03-21T13:49:17Z</time>
      </trkpt>
      <trkpt lat="42.83655" lon="0.55521">
        <ele>1314.67</ele>
        <time>2021-03-21T13:49:19Z</time>
      </trkpt>
      <trkpt lat="42.83656" lon="0.55519">
        <ele>1314.638</ele>
        <time>2021-03-21T13:49:21Z</time>
      </trkpt>
      <trkpt lat="42.83658" lon="0.55517">
        <ele>1314.213</ele>
        <time>2021-03-21T13:49:23Z</time>
      </trkpt>
      <trkpt lat="42.8366" lon="0.55516">
        <ele>1313.551</ele>
        <time>2021-03-21T13:49:25Z</time>
      </trkpt>
      <trkpt lat="42.83662" lon="0.55515">
        <ele>1313.289</ele>
        <time>2021-03-21T13:49:27Z</time>
      </trkpt>
      <trkpt lat="42.83665" lon="0.55514">
        <ele>1312.884</ele>
        <time>2021-03-21T13:49:29Z</time>
      </trkpt>
      <trkpt lat="42.83667" lon="0.55513">
        <ele>1312.952</ele>
        <time>2021-03-21T13:49:31Z</time>
      </trkpt>
      <trkpt lat="42.83669" lon="0.55512">
        <ele>1312.693</ele>
        <time>2021-03-21T13:49:33Z</time>
      </trkpt>
      <trkpt lat="42.83671" lon="0.5551">
        <ele>1312.267</ele>
        <time>2021-03-21T13:49:35Z</time>
      </trkpt>
      <trkpt lat="42.83674" lon="0.55509">
        <ele>1311.916</ele>
        <time>2021-03-21T13:49:37Z</time>
      </trkpt>
      <trkpt lat="42.83676" lon="0.55507">
        <ele>1311.841</ele>
        <time>2021-03-21T13:49:39Z</time>
      </trkpt>
      <trkpt lat="42.83678" lon="0.55506">
        <ele>1311.516</ele>
        <time>2021-03-21T13:49:41Z</time>
      </trkpt>
      <trkpt lat="42.8368" lon="0.55505">
        <ele>1311.355</ele>
        <time>2021-03-21T13:49:43Z</time>
      </trkpt>
      <trkpt lat="42.83682" lon="0.55505">
        <ele>1310.563</ele>
        <time>2021-03-21T13:49:45Z</time>
      </trkpt>
      <trkpt lat="42.83684" lon="0.55504">
        <ele>1309.831</ele>
        <time>2021-03-21T13:49:47Z</time>
      </trkpt>
      <trkpt lat="42.83686" lon="0.55503">
        <ele>1309.255</ele>
        <time>2021-03-21T13:49:49Z</time>
      </trkpt>
      <trkpt lat="42.83688" lon="0.55502">
        <ele>1308.84</ele>
        <time>2021-03-21T13:49:51Z</time>
      </trkpt>
      <trkpt lat="42.8369" lon="0.55501">
        <ele>1308.633</ele>
        <time>2021-03-21T13:49:53Z</time>
      </trkpt>
      <trkpt lat="42.83693" lon="0.555">
        <ele>1308.25</ele>
        <time>2021-03-21T13:49:55Z</time>
      </trkpt>
      <trkpt lat="42.83695" lon="0.555">
        <ele>1307.528</ele>
        <time>2021-03-21T13:49:57Z</time>
      </trkpt>
      <trkpt lat="42.83697" lon="0.55498">
        <ele>1306.995</ele>
        <time>2021-03-21T13:49:59Z</time>
      </trkpt>
      <trkpt lat="42.83699" lon="0.55497">
        <ele>1306.69</ele>
        <time>2021-03-21T13:50:01Z</time>
      </trkpt>
      <trkpt lat="42.83702" lon="0.55497">
        <ele>1306.446</ele>
        <time>2021-03-21T13:50:03Z</time>
      </trkpt>
      <trkpt lat="42.83704" lon="0.55495">
        <ele>1306.677</ele>
        <time>2021-03-21T13:50:05Z</time>
      </trkpt>
      <trkpt lat="42.83706" lon="0.55494">
        <ele>1305.556</ele>
        <time>2021-03-21T13:50:07Z</time>
      </trkpt>
      <trkpt lat="42.83708" lon="0.55493">
        <ele>1305.879</ele>
        <time>2021-03-21T13:50:09Z</time>
      </trkpt>
      <trkpt lat="42.83711" lon="0.55492">
        <ele>1305.944</ele>
        <time>2021-03-21T13:50:11Z</time>
      </trkpt>
      <trkpt lat="42.83713" lon="0.55491">
        <ele>1305.69</ele>
        <time>2021-03-21T13:50:13Z</time>
      </trkpt>
      <trkpt lat="42.83715" lon="0.55489">
        <ele>1305.608</ele>
        <time>2021-03-21T13:50:15Z</time>
      </trkpt>
      <trkpt lat="42.83717" lon="0.55487">
        <ele>1305.229</ele>
        <time>2021-03-21T13:50:17Z</time>
      </trkpt>
      <trkpt lat="42.83719" lon="0.55486">
        <ele>1305.043</ele>
        <time>2021-03-21T13:50:19Z</time>
      </trkpt>
      <trkpt lat="42.83721" lon="0.55484">
        <ele>1304.596</ele>
        <time>2021-03-21T13:50:21Z</time>
      </trkpt>
      <trkpt lat="42.83723" lon="0.55483">
        <ele>1303.935</ele>
        <time>2021-03-21T13:50:23Z</time>
      </trkpt>
      <trkpt lat="42.83725" lon="0.55482">
        <ele>1304.341</ele>
        <time>2021-03-21T13:50:25Z</time>
      </trkpt>
      <trkpt lat="42.83727" lon="0.5548">
        <ele>1304.686</ele>
        <time>2021-03-21T13:50:27Z</time>
      </trkpt>
      <trkpt lat="42.83729" lon="0.55478">
        <ele>1304.536</ele>
        <time>2021-03-21T13:50:29Z</time>
      </trkpt>
      <trkpt lat="42.83731" lon="0.55477">
        <ele>1304.213</ele>
        <time>2021-03-21T13:50:31Z</time>
      </trkpt>
      <trkpt lat="42.83733" lon="0.55476">
        <ele>1303.604</ele>
        <time>2021-03-21T13:50:33Z</time>
      </trkpt>
      <trkpt lat="42.83735" lon="0.55475">
        <ele>1302.439</ele>
        <time>2021-03-21T13:50:35Z</time>
      </trkpt>
      <trkpt lat="42.83738" lon="0.55474">
        <ele>1301.146</ele>
        <time>2021-03-21T13:50:37Z</time>
      </trkpt>
      <trkpt lat="42.8374" lon="0.55473">
        <ele>1300.901</ele>
        <time>2021-03-21T13:50:39Z</time>
      </trkpt>
      <trkpt lat="42.83742" lon="0.55472">
        <ele>1300.319</ele>
        <time>2021-03-21T13:50:41Z</time>
      </trkpt>
      <trkpt lat="42.83744" lon="0.5547">
        <ele>1299.796</ele>
        <time>2021-03-21T13:50:43Z</time>
      </trkpt>
      <trkpt lat="42.83746" lon="0.5547">
        <ele>1299.606</ele>
        <time>2021-03-21T13:50:45Z</time>
      </trkpt>
      <trkpt lat="42.83748" lon="0.55469">
        <ele>1299.487</ele>
        <time>2021-03-21T13:50:47Z</time>
      </trkpt>
      <trkpt lat="42.8375" lon="0.55468">
        <ele>1299.035</ele>
        <time>2021-03-21T13:50:49Z</time>
      </trkpt>
      <trkpt lat="42.83752" lon="0.55467">
        <ele>1298.075</ele>
        <time>2021-03-21T13:50:51Z</time>
      </trkpt>
      <trkpt lat="42.83754" lon="0.55466">
        <ele>1297.631</ele>
        <time>2021-03-21T13:50:53Z</time>
      </trkpt>
      <trkpt lat="42.83756" lon="0.55465">
        <ele>1296.823</ele>
        <time>2021-03-21T13:50:55Z</time>
      </trkpt>
      <trkpt lat="42.83759" lon="0.55465">
        <ele>1296.846</ele>
        <time>2021-03-21T13:50:57Z</time>
      </trkpt>
      <trkpt lat="42.83761" lon="0.55464">
        <ele>1296.701</ele>
        <time>2021-03-21T13:50:59Z</time>
      </trkpt>
      <trkpt lat="42.83763" lon="0.55463">
        <ele>1296.032</ele>
        <time>2021-03-21T13:51:01Z</time>
      </trkpt>
      <trkpt lat="42.83765" lon="0.55463">
        <ele>1295.28</ele>
        <time>2021-03-21T13:51:03Z</time>
      </trkpt>
      <trkpt lat="42.83768" lon="0.55462">
        <ele>1294.906</ele>
        <time>2021-03-21T13:51:05Z</time>
      </trkpt>
      <trkpt lat="42.8377" lon="0.55463">
        <ele>1294.188</ele>
        <time>2021-03-21T13:51:07Z</time>
      </trkpt>
      <trkpt lat="42.83772" lon="0.55463">
        <ele>1293.211</ele>
        <time>2021-03-21T13:51:09Z</time>
      </trkpt>
      <trkpt lat="42.83773" lon="0.55463">
        <ele>1292.728</ele>
        <time>2021-03-21T13:51:10Z</time>
      </trkpt>
      <trkpt lat="42.83777" lon="0.55463">
        <ele>1292.382</ele>
        <time>2021-03-21T13:51:13Z</time>
      </trkpt>
      <trkpt lat="42.83779" lon="0.55464">
        <ele>1292.836</ele>
        <time>2021-03-21T13:51:15Z</time>
      </trkpt>
      <trkpt lat="42.83781" lon="0.55464">
        <ele>1292.838</ele>
        <time>2021-03-21T13:51:17Z</time>
      </trkpt>
      <trkpt lat="42.83784" lon="0.55465">
        <ele>1292.482</ele>
        <time>2021-03-21T13:51:19Z</time>
      </trkpt>
      <trkpt lat="42.83786" lon="0.55466">
        <ele>1292.481</ele>
        <time>2021-03-21T13:51:21Z</time>
      </trkpt>
      <trkpt lat="42.83788" lon="0.55466">
        <ele>1292.825</ele>
        <time>2021-03-21T13:51:23Z</time>
      </trkpt>
      <trkpt lat="42.8379" lon="0.55466">
        <ele>1293.228</ele>
        <time>2021-03-21T13:51:25Z</time>
      </trkpt>
      <trkpt lat="42.83792" lon="0.55466">
        <ele>1293.018</ele>
        <time>2021-03-21T13:51:27Z</time>
      </trkpt>
      <trkpt lat="42.83794" lon="0.55465">
        <ele>1292.799</ele>
        <time>2021-03-21T13:51:29Z</time>
      </trkpt>
      <trkpt lat="42.83796" lon="0.55464">
        <ele>1292.839</ele>
        <time>2021-03-21T13:51:31Z</time>
      </trkpt>
      <trkpt lat="42.83798" lon="0.55462">
        <ele>1292.797</ele>
        <time>2021-03-21T13:51:33Z</time>
      </trkpt>
      <trkpt lat="42.838" lon="0.55461">
        <ele>1292.495</ele>
        <time>2021-03-21T13:51:35Z</time>
      </trkpt>
      <trkpt lat="42.83802" lon="0.55459">
        <ele>1293.36</ele>
        <time>2021-03-21T13:51:37Z</time>
      </trkpt>
      <trkpt lat="42.83802" lon="0.55457">
        <ele>1293.665</ele>
        <time>2021-03-21T13:51:39Z</time>
      </trkpt>
      <trkpt lat="42.83803" lon="0.55456">
        <ele>1293.606</ele>
        <time>2021-03-21T13:51:41Z</time>
      </trkpt>
      <trkpt lat="42.83804" lon="0.55455">
        <ele>1293.121</ele>
        <time>2021-03-21T13:51:43Z</time>
      </trkpt>
      <trkpt lat="42.83804" lon="0.55455">
        <ele>1293.408</ele>
        <time>2021-03-21T13:51:45Z</time>
      </trkpt>
      <trkpt lat="42.83804" lon="0.55455">
        <ele>1293.408</ele>
        <time>2021-03-21T13:51:47Z</time>
      </trkpt>
      <trkpt lat="42.83804" lon="0.55455">
        <ele>1293.405</ele>
        <time>2021-03-21T13:51:49Z</time>
      </trkpt>
      <trkpt lat="42.83804" lon="0.55455">
        <ele>1293.406</ele>
        <time>2021-03-21T13:51:51Z</time>
      </trkpt>
      <trkpt lat="42.83804" lon="0.55455">
        <ele>1293.409</ele>
        <time>2021-03-21T13:51:53Z</time>
      </trkpt>
      <trkpt lat="42.83804" lon="0.55455">
        <ele>1293.406</ele>
        <time>2021-03-21T13:51:55Z</time>
      </trkpt>
      <trkpt lat="42.83804" lon="0.55454">
        <ele>1293.323</ele>
        <time>2021-03-21T13:51:57Z</time>
      </trkpt>
      <trkpt lat="42.83804" lon="0.55453">
        <ele>1292.593</ele>
        <time>2021-03-21T13:51:59Z</time>
      </trkpt>
      <trkpt lat="42.83804" lon="0.55453">
        <ele>1292.564</ele>
        <time>2021-03-21T13:52:01Z</time>
      </trkpt>
      <trkpt lat="42.83804" lon="0.55453">
        <ele>1292.55</ele>
        <time>2021-03-21T13:52:03Z</time>
      </trkpt>
      <trkpt lat="42.83803" lon="0.55453">
        <ele>1291.669</ele>
        <time>2021-03-21T13:52:05Z</time>
      </trkpt>
      <trkpt lat="42.83801" lon="0.55453">
        <ele>1290.778</ele>
        <time>2021-03-21T13:52:07Z</time>
      </trkpt>
      <trkpt lat="42.838" lon="0.55453">
        <ele>1290.126</ele>
        <time>2021-03-21T13:52:09Z</time>
      </trkpt>
      <trkpt lat="42.83799" lon="0.55451">
        <ele>1290.34</ele>
        <time>2021-03-21T13:52:11Z</time>
      </trkpt>
      <trkpt lat="42.83799" lon="0.55451">
        <ele>1290.318</ele>
        <time>2021-03-21T13:52:13Z</time>
      </trkpt>
      <trkpt lat="42.83798" lon="0.5545">
        <ele>1290.034</ele>
        <time>2021-03-21T13:52:15Z</time>
      </trkpt>
      <trkpt lat="42.83796" lon="0.55449">
        <ele>1289.859</ele>
        <time>2021-03-21T13:52:17Z</time>
      </trkpt>
      <trkpt lat="42.83794" lon="0.55448">
        <ele>1289.685</ele>
        <time>2021-03-21T13:52:19Z</time>
      </trkpt>
      <trkpt lat="42.83792" lon="0.55447">
        <ele>1289.302</ele>
        <time>2021-03-21T13:52:21Z</time>
      </trkpt>
      <trkpt lat="42.83791" lon="0.55446">
        <ele>1288.883</ele>
        <time>2021-03-21T13:52:23Z</time>
      </trkpt>
      <trkpt lat="42.83789" lon="0.55445">
        <ele>1288.941</ele>
        <time>2021-03-21T13:52:25Z</time>
      </trkpt>
      <trkpt lat="42.83787" lon="0.55444">
        <ele>1288.607</ele>
        <time>2021-03-21T13:52:27Z</time>
      </trkpt>
      <trkpt lat="42.83785" lon="0.55444">
        <ele>1288.522</ele>
        <time>2021-03-21T13:52:29Z</time>
      </trkpt>
      <trkpt lat="42.83782" lon="0.55443">
        <ele>1288.644</ele>
        <time>2021-03-21T13:52:31Z</time>
      </trkpt>
      <trkpt lat="42.8378" lon="0.55442">
        <ele>1288.755</ele>
        <time>2021-03-21T13:52:33Z</time>
      </trkpt>
      <trkpt lat="42.83778" lon="0.55441">
        <ele>1288.87</ele>
        <time>2021-03-21T13:52:35Z</time>
      </trkpt>
      <trkpt lat="42.83777" lon="0.5544">
        <ele>1289.078</ele>
        <time>2021-03-21T13:52:37Z</time>
      </trkpt>
      <trkpt lat="42.83775" lon="0.55439">
        <ele>1288.698</ele>
        <time>2021-03-21T13:52:39Z</time>
      </trkpt>
      <trkpt lat="42.83773" lon="0.55438">
        <ele>1288.76</ele>
        <time>2021-03-21T13:52:41Z</time>
      </trkpt>
      <trkpt lat="42.8377" lon="0.55438">
        <ele>1288.314</ele>
        <time>2021-03-21T13:52:43Z</time>
      </trkpt>
      <trkpt lat="42.83769" lon="0.55437">
        <ele>1287.235</ele>
        <time>2021-03-21T13:52:45Z</time>
      </trkpt>
      <trkpt lat="42.83767" lon="0.55436">
        <ele>1286.222</ele>
        <time>2021-03-21T13:52:47Z</time>
      </trkpt>
      <trkpt lat="42.83765" lon="0.55435">
        <ele>1286.232</ele>
        <time>2021-03-21T13:52:49Z</time>
      </trkpt>
      <trkpt lat="42.83763" lon="0.55435">
        <ele>1285.185</ele>
        <time>2021-03-21T13:52:51Z</time>
      </trkpt>
      <trkpt lat="42.83761" lon="0.55433">
        <ele>1284.54</ele>
        <time>2021-03-21T13:52:53Z</time>
      </trkpt>
      <trkpt lat="42.83759" lon="0.55433">
        <ele>1284.01</ele>
        <time>2021-03-21T13:52:55Z</time>
      </trkpt>
      <trkpt lat="42.83756" lon="0.55433">
        <ele>1283.239</ele>
        <time>2021-03-21T13:52:57Z</time>
      </trkpt>
      <trkpt lat="42.83754" lon="0.55432">
        <ele>1283.051</ele>
        <time>2021-03-21T13:52:59Z</time>
      </trkpt>
      <trkpt lat="42.83752" lon="0.55431">
        <ele>1283.427</ele>
        <time>2021-03-21T13:53:01Z</time>
      </trkpt>
      <trkpt lat="42.8375" lon="0.55431">
        <ele>1282.694</ele>
        <time>2021-03-21T13:53:03Z</time>
      </trkpt>
      <trkpt lat="42.83747" lon="0.5543">
        <ele>1282.983</ele>
        <time>2021-03-21T13:53:05Z</time>
      </trkpt>
      <trkpt lat="42.83745" lon="0.55429">
        <ele>1282.113</ele>
        <time>2021-03-21T13:53:07Z</time>
      </trkpt>
      <trkpt lat="42.83743" lon="0.55428">
        <ele>1281.568</ele>
        <time>2021-03-21T13:53:09Z</time>
      </trkpt>
      <trkpt lat="42.83741" lon="0.55428">
        <ele>1280.762</ele>
        <time>2021-03-21T13:53:11Z</time>
      </trkpt>
      <trkpt lat="42.83739" lon="0.55427">
        <ele>1279.665</ele>
        <time>2021-03-21T13:53:13Z</time>
      </trkpt>
      <trkpt lat="42.83737" lon="0.55427">
        <ele>1279.788</ele>
        <time>2021-03-21T13:53:15Z</time>
      </trkpt>
      <trkpt lat="42.83735" lon="0.55426">
        <ele>1278.61</ele>
        <time>2021-03-21T13:53:17Z</time>
      </trkpt>
      <trkpt lat="42.83733" lon="0.55425">
        <ele>1278.645</ele>
        <time>2021-03-21T13:53:19Z</time>
      </trkpt>
      <trkpt lat="42.83731" lon="0.55425">
        <ele>1277.469</ele>
        <time>2021-03-21T13:53:21Z</time>
      </trkpt>
      <trkpt lat="42.83729" lon="0.55424">
        <ele>1277.701</ele>
        <time>2021-03-21T13:53:23Z</time>
      </trkpt>
      <trkpt lat="42.83726" lon="0.55424">
        <ele>1277.392</ele>
        <time>2021-03-21T13:53:25Z</time>
      </trkpt>
      <trkpt lat="42.83724" lon="0.55423">
        <ele>1277.311</ele>
        <time>2021-03-21T13:53:27Z</time>
      </trkpt>
      <trkpt lat="42.83722" lon="0.55423">
        <ele>1277.599</ele>
        <time>2021-03-21T13:53:29Z</time>
      </trkpt>
      <trkpt lat="42.8372" lon="0.55423">
        <ele>1276.361</ele>
        <time>2021-03-21T13:53:31Z</time>
      </trkpt>
      <trkpt lat="42.83718" lon="0.55423">
        <ele>1275.313</ele>
        <time>2021-03-21T13:53:33Z</time>
      </trkpt>
      <trkpt lat="42.83715" lon="0.55423">
        <ele>1275.144</ele>
        <time>2021-03-21T13:53:35Z</time>
      </trkpt>
      <trkpt lat="42.83713" lon="0.55422">
        <ele>1275.504</ele>
        <time>2021-03-21T13:53:37Z</time>
      </trkpt>
      <trkpt lat="42.83711" lon="0.55422">
        <ele>1276.303</ele>
        <time>2021-03-21T13:53:39Z</time>
      </trkpt>
      <trkpt lat="42.83708" lon="0.55421">
        <ele>1276.528</ele>
        <time>2021-03-21T13:53:41Z</time>
      </trkpt>
      <trkpt lat="42.83706" lon="0.5542">
        <ele>1276.285</ele>
        <time>2021-03-21T13:53:43Z</time>
      </trkpt>
      <trkpt lat="42.83704" lon="0.5542">
        <ele>1275.843</ele>
        <time>2021-03-21T13:53:45Z</time>
      </trkpt>
      <trkpt lat="42.83701" lon="0.5542">
        <ele>1275.8</ele>
        <time>2021-03-21T13:53:47Z</time>
      </trkpt>
      <trkpt lat="42.83699" lon="0.55419">
        <ele>1274.891</ele>
        <time>2021-03-21T13:53:49Z</time>
      </trkpt>
      <trkpt lat="42.83696" lon="0.55419">
        <ele>1274.796</ele>
        <time>2021-03-21T13:53:51Z</time>
      </trkpt>
      <trkpt lat="42.83694" lon="0.55419">
        <ele>1274.237</ele>
        <time>2021-03-21T13:53:53Z</time>
      </trkpt>
      <trkpt lat="42.83691" lon="0.5542">
        <ele>1274.732</ele>
        <time>2021-03-21T13:53:55Z</time>
      </trkpt>
      <trkpt lat="42.83689" lon="0.5542">
        <ele>1275.594</ele>
        <time>2021-03-21T13:53:57Z</time>
      </trkpt>
      <trkpt lat="42.83686" lon="0.5542">
        <ele>1275.264</ele>
        <time>2021-03-21T13:53:59Z</time>
      </trkpt>
      <trkpt lat="42.83684" lon="0.55419">
        <ele>1274.933</ele>
        <time>2021-03-21T13:54:01Z</time>
      </trkpt>
      <trkpt lat="42.83681" lon="0.55419">
        <ele>1275.313</ele>
        <time>2021-03-21T13:54:03Z</time>
      </trkpt>
      <trkpt lat="42.83679" lon="0.55419">
        <ele>1274.543</ele>
        <time>2021-03-21T13:54:05Z</time>
      </trkpt>
      <trkpt lat="42.83677" lon="0.55419">
        <ele>1273.791</ele>
        <time>2021-03-21T13:54:07Z</time>
      </trkpt>
      <trkpt lat="42.83674" lon="0.55418">
        <ele>1273.896</ele>
        <time>2021-03-21T13:54:09Z</time>
      </trkpt>
      <trkpt lat="42.83672" lon="0.55418">
        <ele>1274.104</ele>
        <time>2021-03-21T13:54:11Z</time>
      </trkpt>
      <trkpt lat="42.83669" lon="0.55417">
        <ele>1273.324</ele>
        <time>2021-03-21T13:54:13Z</time>
      </trkpt>
      <trkpt lat="42.83667" lon="0.55416">
        <ele>1273.776</ele>
        <time>2021-03-21T13:54:15Z</time>
      </trkpt>
      <trkpt lat="42.83665" lon="0.55416">
        <ele>1273.572</ele>
        <time>2021-03-21T13:54:17Z</time>
      </trkpt>
      <trkpt lat="42.83662" lon="0.55416">
        <ele>1273.168</ele>
        <time>2021-03-21T13:54:19Z</time>
      </trkpt>
      <trkpt lat="42.8366" lon="0.55416">
        <ele>1271.559</ele>
        <time>2021-03-21T13:54:21Z</time>
      </trkpt>
      <trkpt lat="42.83657" lon="0.55416">
        <ele>1271.267</ele>
        <time>2021-03-21T13:54:23Z</time>
      </trkpt>
      <trkpt lat="42.83655" lon="0.55416">
        <ele>1270.348</ele>
        <time>2021-03-21T13:54:25Z</time>
      </trkpt>
      <trkpt lat="42.83652" lon="0.55416">
        <ele>1270.044</ele>
        <time>2021-03-21T13:54:27Z</time>
      </trkpt>
      <trkpt lat="42.8365" lon="0.55416">
        <ele>1269.317</ele>
        <time>2021-03-21T13:54:29Z</time>
      </trkpt>
      <trkpt lat="42.83648" lon="0.55416">
        <ele>1268.955</ele>
        <time>2021-03-21T13:54:31Z</time>
      </trkpt>
      <trkpt lat="42.83645" lon="0.55416">
        <ele>1268.612</ele>
        <time>2021-03-21T13:54:33Z</time>
      </trkpt>
      <trkpt lat="42.83642" lon="0.55417">
        <ele>1268.666</ele>
        <time>2021-03-21T13:54:35Z</time>
      </trkpt>
      <trkpt lat="42.8364" lon="0.55417">
        <ele>1268.193</ele>
        <time>2021-03-21T13:54:37Z</time>
      </trkpt>
      <trkpt lat="42.83637" lon="0.55417">
        <ele>1267.471</ele>
        <time>2021-03-21T13:54:39Z</time>
      </trkpt>
      <trkpt lat="42.83635" lon="0.55417">
        <ele>1267.339</ele>
        <time>2021-03-21T13:54:41Z</time>
      </trkpt>
      <trkpt lat="42.83632" lon="0.55417">
        <ele>1266.671</ele>
        <time>2021-03-21T13:54:43Z</time>
      </trkpt>
      <trkpt lat="42.8363" lon="0.55418">
        <ele>1266.377</ele>
        <time>2021-03-21T13:54:45Z</time>
      </trkpt>
      <trkpt lat="42.83627" lon="0.55418">
        <ele>1264.879</ele>
        <time>2021-03-21T13:54:47Z</time>
      </trkpt>
      <trkpt lat="42.83625" lon="0.55418">
        <ele>1264.13</ele>
        <time>2021-03-21T13:54:49Z</time>
      </trkpt>
      <trkpt lat="42.83622" lon="0.55417">
        <ele>1263.714</ele>
        <time>2021-03-21T13:54:51Z</time>
      </trkpt>
      <trkpt lat="42.8362" lon="0.55417">
        <ele>1263.763</ele>
        <time>2021-03-21T13:54:53Z</time>
      </trkpt>
      <trkpt lat="42.83617" lon="0.55416">
        <ele>1262.929</ele>
        <time>2021-03-21T13:54:55Z</time>
      </trkpt>
      <trkpt lat="42.83615" lon="0.55415">
        <ele>1262.887</ele>
        <time>2021-03-21T13:54:57Z</time>
      </trkpt>
      <trkpt lat="42.83613" lon="0.55414">
        <ele>1262.295</ele>
        <time>2021-03-21T13:54:59Z</time>
      </trkpt>
      <trkpt lat="42.8361" lon="0.55413">
        <ele>1261.791</ele>
        <time>2021-03-21T13:55:01Z</time>
      </trkpt>
      <trkpt lat="42.83608" lon="0.55413">
        <ele>1261.035</ele>
        <time>2021-03-21T13:55:03Z</time>
      </trkpt>
      <trkpt lat="42.83605" lon="0.55412">
        <ele>1260.555</ele>
        <time>2021-03-21T13:55:05Z</time>
      </trkpt>
      <trkpt lat="42.83603" lon="0.55412">
        <ele>1260.303</ele>
        <time>2021-03-21T13:55:07Z</time>
      </trkpt>
      <trkpt lat="42.83601" lon="0.55412">
        <ele>1259.974</ele>
        <time>2021-03-21T13:55:09Z</time>
      </trkpt>
      <trkpt lat="42.83598" lon="0.55412">
        <ele>1259.148</ele>
        <time>2021-03-21T13:55:11Z</time>
      </trkpt>
      <trkpt lat="42.83596" lon="0.55412">
        <ele>1258.839</ele>
        <time>2021-03-21T13:55:13Z</time>
      </trkpt>
      <trkpt lat="42.83594" lon="0.55411">
        <ele>1258.41</ele>
        <time>2021-03-21T13:55:15Z</time>
      </trkpt>
      <trkpt lat="42.83591" lon="0.55411">
        <ele>1257.737</ele>
        <time>2021-03-21T13:55:17Z</time>
      </trkpt>
      <trkpt lat="42.83589" lon="0.55411">
        <ele>1256.661</ele>
        <time>2021-03-21T13:55:19Z</time>
      </trkpt>
      <trkpt lat="42.83587" lon="0.55411">
        <ele>1256.187</ele>
        <time>2021-03-21T13:55:21Z</time>
      </trkpt>
      <trkpt lat="42.83585" lon="0.5541">
        <ele>1256.301</ele>
        <time>2021-03-21T13:55:23Z</time>
      </trkpt>
      <trkpt lat="42.83583" lon="0.5541">
        <ele>1256.247</ele>
        <time>2021-03-21T13:55:25Z</time>
      </trkpt>
      <trkpt lat="42.8358" lon="0.55409">
        <ele>1255.482</ele>
        <time>2021-03-21T13:55:27Z</time>
      </trkpt>
      <trkpt lat="42.83578" lon="0.55408">
        <ele>1255.804</ele>
        <time>2021-03-21T13:55:29Z</time>
      </trkpt>
      <trkpt lat="42.83576" lon="0.55408">
        <ele>1255.257</ele>
        <time>2021-03-21T13:55:31Z</time>
      </trkpt>
      <trkpt lat="42.83574" lon="0.55407">
        <ele>1254.4</ele>
        <time>2021-03-21T13:55:33Z</time>
      </trkpt>
      <trkpt lat="42.83571" lon="0.55407">
        <ele>1253.72</ele>
        <time>2021-03-21T13:55:35Z</time>
      </trkpt>
      <trkpt lat="42.83569" lon="0.55407">
        <ele>1253.812</ele>
        <time>2021-03-21T13:55:37Z</time>
      </trkpt>
      <trkpt lat="42.83566" lon="0.55406">
        <ele>1253.704</ele>
        <time>2021-03-21T13:55:39Z</time>
      </trkpt>
      <trkpt lat="42.83564" lon="0.55406">
        <ele>1252.639</ele>
        <time>2021-03-21T13:55:41Z</time>
      </trkpt>
      <trkpt lat="42.83562" lon="0.55405">
        <ele>1252.449</ele>
        <time>2021-03-21T13:55:43Z</time>
      </trkpt>
      <trkpt lat="42.83559" lon="0.55404">
        <ele>1253.394</ele>
        <time>2021-03-21T13:55:45Z</time>
      </trkpt>
      <trkpt lat="42.83557" lon="0.55403">
        <ele>1253.135</ele>
        <time>2021-03-21T13:55:47Z</time>
      </trkpt>
      <trkpt lat="42.83554" lon="0.55403">
        <ele>1252.953</ele>
        <time>2021-03-21T13:55:49Z</time>
      </trkpt>
      <trkpt lat="42.83552" lon="0.55402">
        <ele>1251.864</ele>
        <time>2021-03-21T13:55:51Z</time>
      </trkpt>
      <trkpt lat="42.8355" lon="0.55401">
        <ele>1251.889</ele>
        <time>2021-03-21T13:55:53Z</time>
      </trkpt>
      <trkpt lat="42.83548" lon="0.55401">
        <ele>1250.877</ele>
        <time>2021-03-21T13:55:55Z</time>
      </trkpt>
      <trkpt lat="42.83546" lon="0.554">
        <ele>1249.678</ele>
        <time>2021-03-21T13:55:57Z</time>
      </trkpt>
      <trkpt lat="42.83544" lon="0.55399">
        <ele>1249.972</ele>
        <time>2021-03-21T13:55:59Z</time>
      </trkpt>
      <trkpt lat="42.83542" lon="0.55398">
        <ele>1249.997</ele>
        <time>2021-03-21T13:56:01Z</time>
      </trkpt>
      <trkpt lat="42.8354" lon="0.55397">
        <ele>1249.591</ele>
        <time>2021-03-21T13:56:03Z</time>
      </trkpt>
      <trkpt lat="42.83538" lon="0.55396">
        <ele>1248.655</ele>
        <time>2021-03-21T13:56:05Z</time>
      </trkpt>
      <trkpt lat="42.83536" lon="0.55395">
        <ele>1248.156</ele>
        <time>2021-03-21T13:56:07Z</time>
      </trkpt>
      <trkpt lat="42.83534" lon="0.55395">
        <ele>1247.983</ele>
        <time>2021-03-21T13:56:09Z</time>
      </trkpt>
      <trkpt lat="42.83531" lon="0.55395">
        <ele>1247.226</ele>
        <time>2021-03-21T13:56:11Z</time>
      </trkpt>
      <trkpt lat="42.83529" lon="0.55395">
        <ele>1246.889</ele>
        <time>2021-03-21T13:56:13Z</time>
      </trkpt>
      <trkpt lat="42.83527" lon="0.55394">
        <ele>1247.037</ele>
        <time>2021-03-21T13:56:15Z</time>
      </trkpt>
      <trkpt lat="42.83524" lon="0.55393">
        <ele>1246.639</ele>
        <time>2021-03-21T13:56:17Z</time>
      </trkpt>
      <trkpt lat="42.83522" lon="0.55393">
        <ele>1246.277</ele>
        <time>2021-03-21T13:56:19Z</time>
      </trkpt>
      <trkpt lat="42.8352" lon="0.55393">
        <ele>1245.897</ele>
        <time>2021-03-21T13:56:21Z</time>
      </trkpt>
      <trkpt lat="42.83517" lon="0.55393">
        <ele>1245.235</ele>
        <time>2021-03-21T13:56:23Z</time>
      </trkpt>
      <trkpt lat="42.83515" lon="0.55394">
        <ele>1244.914</ele>
        <time>2021-03-21T13:56:25Z</time>
      </trkpt>
      <trkpt lat="42.83513" lon="0.55394">
        <ele>1243.971</ele>
        <time>2021-03-21T13:56:27Z</time>
      </trkpt>
      <trkpt lat="42.83511" lon="0.55395">
        <ele>1243.127</ele>
        <time>2021-03-21T13:56:29Z</time>
      </trkpt>
      <trkpt lat="42.83509" lon="0.55396">
        <ele>1243.487</ele>
        <time>2021-03-21T13:56:31Z</time>
      </trkpt>
      <trkpt lat="42.83507" lon="0.55397">
        <ele>1243.059</ele>
        <time>2021-03-21T13:56:33Z</time>
      </trkpt>
      <trkpt lat="42.83505" lon="0.55398">
        <ele>1243.308</ele>
        <time>2021-03-21T13:56:35Z</time>
      </trkpt>
      <trkpt lat="42.83503" lon="0.55398">
        <ele>1243.535</ele>
        <time>2021-03-21T13:56:37Z</time>
      </trkpt>
      <trkpt lat="42.835" lon="0.55398">
        <ele>1243.161</ele>
        <time>2021-03-21T13:56:39Z</time>
      </trkpt>
      <trkpt lat="42.83498" lon="0.55398">
        <ele>1242.608</ele>
        <time>2021-03-21T13:56:41Z</time>
      </trkpt>
      <trkpt lat="42.83496" lon="0.55398">
        <ele>1242.93</ele>
        <time>2021-03-21T13:56:43Z</time>
      </trkpt>
      <trkpt lat="42.83494" lon="0.55397">
        <ele>1242.486</ele>
        <time>2021-03-21T13:56:45Z</time>
      </trkpt>
      <trkpt lat="42.83492" lon="0.55397">
        <ele>1242.402</ele>
        <time>2021-03-21T13:56:47Z</time>
      </trkpt>
      <trkpt lat="42.83489" lon="0.55396">
        <ele>1242.068</ele>
        <time>2021-03-21T13:56:49Z</time>
      </trkpt>
      <trkpt lat="42.83487" lon="0.55394">
        <ele>1241.409</ele>
        <time>2021-03-21T13:56:51Z</time>
      </trkpt>
      <trkpt lat="42.83485" lon="0.55393">
        <ele>1240.86</ele>
        <time>2021-03-21T13:56:53Z</time>
      </trkpt>
      <trkpt lat="42.83483" lon="0.55392">
        <ele>1240.849</ele>
        <time>2021-03-21T13:56:55Z</time>
      </trkpt>
      <trkpt lat="42.83481" lon="0.55391">
        <ele>1240.585</ele>
        <time>2021-03-21T13:56:57Z</time>
      </trkpt>
      <trkpt lat="42.83479" lon="0.55389">
        <ele>1241.254</ele>
        <time>2021-03-21T13:56:59Z</time>
      </trkpt>
      <trkpt lat="42.83477" lon="0.55387">
        <ele>1241.125</ele>
        <time>2021-03-21T13:57:01Z</time>
      </trkpt>
      <trkpt lat="42.83475" lon="0.55385">
        <ele>1241.026</ele>
        <time>2021-03-21T13:57:03Z</time>
      </trkpt>
      <trkpt lat="42.83474" lon="0.55382">
        <ele>1240.688</ele>
        <time>2021-03-21T13:57:05Z</time>
      </trkpt>
      <trkpt lat="42.83473" lon="0.5538">
        <ele>1239.036</ele>
        <time>2021-03-21T13:57:07Z</time>
      </trkpt>
      <trkpt lat="42.83472" lon="0.55377">
        <ele>1238.27</ele>
        <time>2021-03-21T13:57:09Z</time>
      </trkpt>
      <trkpt lat="42.8347" lon="0.55374">
        <ele>1237.667</ele>
        <time>2021-03-21T13:57:11Z</time>
      </trkpt>
      <trkpt lat="42.83469" lon="0.55371">
        <ele>1237.962</ele>
        <time>2021-03-21T13:57:13Z</time>
      </trkpt>
      <trkpt lat="42.83468" lon="0.55368">
        <ele>1237.358</ele>
        <time>2021-03-21T13:57:15Z</time>
      </trkpt>
      <trkpt lat="42.83467" lon="0.55367">
        <ele>1236.521</ele>
        <time>2021-03-21T13:57:17Z</time>
      </trkpt>
      <trkpt lat="42.83465" lon="0.55366">
        <ele>1236.345</ele>
        <time>2021-03-21T13:57:19Z</time>
      </trkpt>
      <trkpt lat="42.83463" lon="0.55364">
        <ele>1234.732</ele>
        <time>2021-03-21T13:57:21Z</time>
      </trkpt>
      <trkpt lat="42.83461" lon="0.55363">
        <ele>1234.007</ele>
        <time>2021-03-21T13:57:23Z</time>
      </trkpt>
      <trkpt lat="42.83459" lon="0.55361">
        <ele>1233.716</ele>
        <time>2021-03-21T13:57:25Z</time>
      </trkpt>
      <trkpt lat="42.83457" lon="0.5536">
        <ele>1233.651</ele>
        <time>2021-03-21T13:57:27Z</time>
      </trkpt>
      <trkpt lat="42.83454" lon="0.55359">
        <ele>1233.647</ele>
        <time>2021-03-21T13:57:29Z</time>
      </trkpt>
      <trkpt lat="42.83452" lon="0.55358">
        <ele>1233.922</ele>
        <time>2021-03-21T13:57:31Z</time>
      </trkpt>
      <trkpt lat="42.8345" lon="0.55357">
        <ele>1233.197</ele>
        <time>2021-03-21T13:57:33Z</time>
      </trkpt>
      <trkpt lat="42.83448" lon="0.55356">
        <ele>1232.842</ele>
        <time>2021-03-21T13:57:35Z</time>
      </trkpt>
      <trkpt lat="42.83446" lon="0.55355">
        <ele>1232.307</ele>
        <time>2021-03-21T13:57:37Z</time>
      </trkpt>
      <trkpt lat="42.83444" lon="0.55354">
        <ele>1232.727</ele>
        <time>2021-03-21T13:57:39Z</time>
      </trkpt>
      <trkpt lat="42.83442" lon="0.55353">
        <ele>1232.196</ele>
        <time>2021-03-21T13:57:41Z</time>
      </trkpt>
      <trkpt lat="42.83439" lon="0.55352">
        <ele>1231.36</ele>
        <time>2021-03-21T13:57:43Z</time>
      </trkpt>
      <trkpt lat="42.83437" lon="0.55351">
        <ele>1230.524</ele>
        <time>2021-03-21T13:57:45Z</time>
      </trkpt>
      <trkpt lat="42.83435" lon="0.55351">
        <ele>1230.519</ele>
        <time>2021-03-21T13:57:47Z</time>
      </trkpt>
      <trkpt lat="42.83432" lon="0.5535">
        <ele>1229.915</ele>
        <time>2021-03-21T13:57:49Z</time>
      </trkpt>
      <trkpt lat="42.8343" lon="0.55349">
        <ele>1229.403</ele>
        <time>2021-03-21T13:57:51Z</time>
      </trkpt>
      <trkpt lat="42.83428" lon="0.55349">
        <ele>1229.427</ele>
        <time>2021-03-21T13:57:53Z</time>
      </trkpt>
      <trkpt lat="42.83426" lon="0.55348">
        <ele>1229.766</ele>
        <time>2021-03-21T13:57:55Z</time>
      </trkpt>
      <trkpt lat="42.83424" lon="0.55347">
        <ele>1229.377</ele>
        <time>2021-03-21T13:57:57Z</time>
      </trkpt>
      <trkpt lat="42.83421" lon="0.55346">
        <ele>1229.536</ele>
        <time>2021-03-21T13:57:59Z</time>
      </trkpt>
      <trkpt lat="42.83419" lon="0.55345">
        <ele>1228.824</ele>
        <time>2021-03-21T13:58:01Z</time>
      </trkpt>
      <trkpt lat="42.83417" lon="0.55344">
        <ele>1228.89</ele>
        <time>2021-03-21T13:58:03Z</time>
      </trkpt>
      <trkpt lat="42.83414" lon="0.55343">
        <ele>1228.32</ele>
        <time>2021-03-21T13:58:05Z</time>
      </trkpt>
      <trkpt lat="42.83411" lon="0.55342">
        <ele>1227.73</ele>
        <time>2021-03-21T13:58:07Z</time>
      </trkpt>
      <trkpt lat="42.83409" lon="0.55341">
        <ele>1227.324</ele>
        <time>2021-03-21T13:58:09Z</time>
      </trkpt>
      <trkpt lat="42.83406" lon="0.55341">
        <ele>1226.811</ele>
        <time>2021-03-21T13:58:11Z</time>
      </trkpt>
      <trkpt lat="42.83404" lon="0.5534">
        <ele>1225.836</ele>
        <time>2021-03-21T13:58:13Z</time>
      </trkpt>
      <trkpt lat="42.83402" lon="0.5534">
        <ele>1225.194</ele>
        <time>2021-03-21T13:58:15Z</time>
      </trkpt>
      <trkpt lat="42.83399" lon="0.55339">
        <ele>1224.233</ele>
        <time>2021-03-21T13:58:17Z</time>
      </trkpt>
      <trkpt lat="42.83397" lon="0.55338">
        <ele>1223.56</ele>
        <time>2021-03-21T13:58:19Z</time>
      </trkpt>
      <trkpt lat="42.83395" lon="0.55337">
        <ele>1223.086</ele>
        <time>2021-03-21T13:58:21Z</time>
      </trkpt>
      <trkpt lat="42.83392" lon="0.55336">
        <ele>1222.648</ele>
        <time>2021-03-21T13:58:23Z</time>
      </trkpt>
      <trkpt lat="42.8339" lon="0.55335">
        <ele>1222.786</ele>
        <time>2021-03-21T13:58:25Z</time>
      </trkpt>
      <trkpt lat="42.83388" lon="0.55334">
        <ele>1221.875</ele>
        <time>2021-03-21T13:58:27Z</time>
      </trkpt>
      <trkpt lat="42.83386" lon="0.55334">
        <ele>1221.881</ele>
        <time>2021-03-21T13:58:29Z</time>
      </trkpt>
      <trkpt lat="42.83383" lon="0.55333">
        <ele>1222.377</ele>
        <time>2021-03-21T13:58:31Z</time>
      </trkpt>
      <trkpt lat="42.8338" lon="0.55332">
        <ele>1222.175</ele>
        <time>2021-03-21T13:58:33Z</time>
      </trkpt>
      <trkpt lat="42.83378" lon="0.55332">
        <ele>1220.37</ele>
        <time>2021-03-21T13:58:35Z</time>
      </trkpt>
      <trkpt lat="42.83376" lon="0.55332">
        <ele>1220.655</ele>
        <time>2021-03-21T13:58:37Z</time>
      </trkpt>
      <trkpt lat="42.83374" lon="0.55332">
        <ele>1219.784</ele>
        <time>2021-03-21T13:58:39Z</time>
      </trkpt>
      <trkpt lat="42.83371" lon="0.55331">
        <ele>1219.223</ele>
        <time>2021-03-21T13:58:41Z</time>
      </trkpt>
      <trkpt lat="42.83369" lon="0.5533">
        <ele>1218.727</ele>
        <time>2021-03-21T13:58:43Z</time>
      </trkpt>
      <trkpt lat="42.83367" lon="0.5533">
        <ele>1218.28</ele>
        <time>2021-03-21T13:58:45Z</time>
      </trkpt>
      <trkpt lat="42.83364" lon="0.55329">
        <ele>1218.004</ele>
        <time>2021-03-21T13:58:47Z</time>
      </trkpt>
      <trkpt lat="42.83362" lon="0.55328">
        <ele>1216.861</ele>
        <time>2021-03-21T13:58:49Z</time>
      </trkpt>
      <trkpt lat="42.8336" lon="0.55328">
        <ele>1215.958</ele>
        <time>2021-03-21T13:58:51Z</time>
      </trkpt>
      <trkpt lat="42.83358" lon="0.55327">
        <ele>1216.104</ele>
        <time>2021-03-21T13:58:53Z</time>
      </trkpt>
      <trkpt lat="42.83355" lon="0.55326">
        <ele>1215.626</ele>
        <time>2021-03-21T13:58:55Z</time>
      </trkpt>
      <trkpt lat="42.83353" lon="0.55325">
        <ele>1215.409</ele>
        <time>2021-03-21T13:58:57Z</time>
      </trkpt>
      <trkpt lat="42.83351" lon="0.55324">
        <ele>1216.034</ele>
        <time>2021-03-21T13:58:59Z</time>
      </trkpt>
      <trkpt lat="42.83348" lon="0.55322">
        <ele>1216.578</ele>
        <time>2021-03-21T13:59:01Z</time>
      </trkpt>
      <trkpt lat="42.83346" lon="0.5532">
        <ele>1216.266</ele>
        <time>2021-03-21T13:59:03Z</time>
      </trkpt>
      <trkpt lat="42.83344" lon="0.55319">
        <ele>1215.301</ele>
        <time>2021-03-21T13:59:05Z</time>
      </trkpt>
      <trkpt lat="42.83341" lon="0.55318">
        <ele>1214.417</ele>
        <time>2021-03-21T13:59:07Z</time>
      </trkpt>
      <trkpt lat="42.83339" lon="0.55318">
        <ele>1213.465</ele>
        <time>2021-03-21T13:59:09Z</time>
      </trkpt>
      <trkpt lat="42.83337" lon="0.55317">
        <ele>1212.223</ele>
        <time>2021-03-21T13:59:11Z</time>
      </trkpt>
      <trkpt lat="42.83335" lon="0.55317">
        <ele>1211.833</ele>
        <time>2021-03-21T13:59:13Z</time>
      </trkpt>
      <trkpt lat="42.83333" lon="0.55317">
        <ele>1211.964</ele>
        <time>2021-03-21T13:59:15Z</time>
      </trkpt>
      <trkpt lat="42.8333" lon="0.55316">
        <ele>1211.044</ele>
        <time>2021-03-21T13:59:17Z</time>
      </trkpt>
      <trkpt lat="42.83328" lon="0.55316">
        <ele>1211.002</ele>
        <time>2021-03-21T13:59:19Z</time>
      </trkpt>
      <trkpt lat="42.83325" lon="0.55315">
        <ele>1210.733</ele>
        <time>2021-03-21T13:59:21Z</time>
      </trkpt>
      <trkpt lat="42.83323" lon="0.55314">
        <ele>1210.459</ele>
        <time>2021-03-21T13:59:23Z</time>
      </trkpt>
      <trkpt lat="42.83321" lon="0.55313">
        <ele>1209.788</ele>
        <time>2021-03-21T13:59:25Z</time>
      </trkpt>
      <trkpt lat="42.83319" lon="0.55312">
        <ele>1209.585</ele>
        <time>2021-03-21T13:59:27Z</time>
      </trkpt>
      <trkpt lat="42.83316" lon="0.55311">
        <ele>1209.599</ele>
        <time>2021-03-21T13:59:29Z</time>
      </trkpt>
      <trkpt lat="42.83314" lon="0.55311">
        <ele>1209.906</ele>
        <time>2021-03-21T13:59:31Z</time>
      </trkpt>
      <trkpt lat="42.83312" lon="0.5531">
        <ele>1209.241</ele>
        <time>2021-03-21T13:59:33Z</time>
      </trkpt>
      <trkpt lat="42.83309" lon="0.55309">
        <ele>1208.649</ele>
        <time>2021-03-21T13:59:35Z</time>
      </trkpt>
      <trkpt lat="42.83307" lon="0.55308">
        <ele>1207.994</ele>
        <time>2021-03-21T13:59:37Z</time>
      </trkpt>
      <trkpt lat="42.83304" lon="0.55307">
        <ele>1207.83</ele>
        <time>2021-03-21T13:59:39Z</time>
      </trkpt>
      <trkpt lat="42.83302" lon="0.55306">
        <ele>1208.098</ele>
        <time>2021-03-21T13:59:41Z</time>
      </trkpt>
      <trkpt lat="42.833" lon="0.55305">
        <ele>1207.765</ele>
        <time>2021-03-21T13:59:43Z</time>
      </trkpt>
      <trkpt lat="42.83297" lon="0.55304">
        <ele>1207.007</ele>
        <time>2021-03-21T13:59:45Z</time>
      </trkpt>
      <trkpt lat="42.83295" lon="0.55303">
        <ele>1206.186</ele>
        <time>2021-03-21T13:59:47Z</time>
      </trkpt>
      <trkpt lat="42.83293" lon="0.55303">
        <ele>1206.045</ele>
        <time>2021-03-21T13:59:49Z</time>
      </trkpt>
      <trkpt lat="42.83291" lon="0.55301">
        <ele>1204.59</ele>
        <time>2021-03-21T13:59:51Z</time>
      </trkpt>
      <trkpt lat="42.83289" lon="0.55301">
        <ele>1203.961</ele>
        <time>2021-03-21T13:59:53Z</time>
      </trkpt>
      <trkpt lat="42.83286" lon="0.553">
        <ele>1203.498</ele>
        <time>2021-03-21T13:59:55Z</time>
      </trkpt>
      <trkpt lat="42.83284" lon="0.55299">
        <ele>1203.484</ele>
        <time>2021-03-21T13:59:57Z</time>
      </trkpt>
      <trkpt lat="42.83282" lon="0.55298">
        <ele>1203.152</ele>
        <time>2021-03-21T13:59:59Z</time>
      </trkpt>
      <trkpt lat="42.83279" lon="0.55298">
        <ele>1203.298</ele>
        <time>2021-03-21T14:00:01Z</time>
      </trkpt>
      <trkpt lat="42.83277" lon="0.55297">
        <ele>1202.685</ele>
        <time>2021-03-21T14:00:03Z</time>
      </trkpt>
      <trkpt lat="42.83275" lon="0.55296">
        <ele>1202.195</ele>
        <time>2021-03-21T14:00:05Z</time>
      </trkpt>
      <trkpt lat="42.83273" lon="0.55295">
        <ele>1202.366</ele>
        <time>2021-03-21T14:00:07Z</time>
      </trkpt>
      <trkpt lat="42.83272" lon="0.55292">
        <ele>1201.675</ele>
        <time>2021-03-21T14:00:09Z</time>
      </trkpt>
      <trkpt lat="42.8327" lon="0.5529">
        <ele>1202.103</ele>
        <time>2021-03-21T14:00:11Z</time>
      </trkpt>
      <trkpt lat="42.83268" lon="0.55289">
        <ele>1200.96</ele>
        <time>2021-03-21T14:00:13Z</time>
      </trkpt>
      <trkpt lat="42.83266" lon="0.55288">
        <ele>1200.664</ele>
        <time>2021-03-21T14:00:15Z</time>
      </trkpt>
      <trkpt lat="42.83264" lon="0.55288">
        <ele>1199.845</ele>
        <time>2021-03-21T14:00:17Z</time>
      </trkpt>
      <trkpt lat="42.83262" lon="0.55288">
        <ele>1199.079</ele>
        <time>2021-03-21T14:00:19Z</time>
      </trkpt>
      <trkpt lat="42.8326" lon="0.55288">
        <ele>1199.024</ele>
        <time>2021-03-21T14:00:21Z</time>
      </trkpt>
      <trkpt lat="42.83258" lon="0.55287">
        <ele>1198.898</ele>
        <time>2021-03-21T14:00:23Z</time>
      </trkpt>
      <trkpt lat="42.83256" lon="0.55287">
        <ele>1198.58</ele>
        <time>2021-03-21T14:00:25Z</time>
      </trkpt>
      <trkpt lat="42.83253" lon="0.55286">
        <ele>1198.328</ele>
        <time>2021-03-21T14:00:27Z</time>
      </trkpt>
      <trkpt lat="42.83251" lon="0.55286">
        <ele>1197.661</ele>
        <time>2021-03-21T14:00:29Z</time>
      </trkpt>
      <trkpt lat="42.83249" lon="0.55286">
        <ele>1197.155</ele>
        <time>2021-03-21T14:00:31Z</time>
      </trkpt>
      <trkpt lat="42.83246" lon="0.55285">
        <ele>1197.002</ele>
        <time>2021-03-21T14:00:33Z</time>
      </trkpt>
      <trkpt lat="42.83244" lon="0.55284">
        <ele>1196.661</ele>
        <time>2021-03-21T14:00:35Z</time>
      </trkpt>
      <trkpt lat="42.83241" lon="0.55283">
        <ele>1196.073</ele>
        <time>2021-03-21T14:00:37Z</time>
      </trkpt>
      <trkpt lat="42.83239" lon="0.55282">
        <ele>1196.337</ele>
        <time>2021-03-21T14:00:39Z</time>
      </trkpt>
      <trkpt lat="42.83237" lon="0.55281">
        <ele>1195.322</ele>
        <time>2021-03-21T14:00:41Z</time>
      </trkpt>
      <trkpt lat="42.83235" lon="0.5528">
        <ele>1194.424</ele>
        <time>2021-03-21T14:00:43Z</time>
      </trkpt>
      <trkpt lat="42.83233" lon="0.55279">
        <ele>1193.485</ele>
        <time>2021-03-21T14:00:45Z</time>
      </trkpt>
      <trkpt lat="42.8323" lon="0.55279">
        <ele>1193.5</ele>
        <time>2021-03-21T14:00:47Z</time>
      </trkpt>
      <trkpt lat="42.83228" lon="0.55278">
        <ele>1191.864</ele>
        <time>2021-03-21T14:00:49Z</time>
      </trkpt>
      <trkpt lat="42.83226" lon="0.55277">
        <ele>1191.371</ele>
        <time>2021-03-21T14:00:51Z</time>
      </trkpt>
      <trkpt lat="42.83224" lon="0.55277">
        <ele>1190.987</ele>
        <time>2021-03-21T14:00:53Z</time>
      </trkpt>
      <trkpt lat="42.83221" lon="0.55276">
        <ele>1189.854</ele>
        <time>2021-03-21T14:00:55Z</time>
      </trkpt>
      <trkpt lat="42.83219" lon="0.55276">
        <ele>1189.038</ele>
        <time>2021-03-21T14:00:57Z</time>
      </trkpt>
      <trkpt lat="42.83217" lon="0.55276">
        <ele>1188.634</ele>
        <time>2021-03-21T14:00:59Z</time>
      </trkpt>
      <trkpt lat="42.83215" lon="0.55275">
        <ele>1187.583</ele>
        <time>2021-03-21T14:01:01Z</time>
      </trkpt>
      <trkpt lat="42.83212" lon="0.55275">
        <ele>1187.57</ele>
        <time>2021-03-21T14:01:03Z</time>
      </trkpt>
      <trkpt lat="42.8321" lon="0.55274">
        <ele>1187.302</ele>
        <time>2021-03-21T14:01:05Z</time>
      </trkpt>
      <trkpt lat="42.83208" lon="0.55273">
        <ele>1186.369</ele>
        <time>2021-03-21T14:01:07Z</time>
      </trkpt>
      <trkpt lat="42.83205" lon="0.55272">
        <ele>1185.981</ele>
        <time>2021-03-21T14:01:09Z</time>
      </trkpt>
      <trkpt lat="42.83203" lon="0.55272">
        <ele>1185.554</ele>
        <time>2021-03-21T14:01:11Z</time>
      </trkpt>
      <trkpt lat="42.832" lon="0.5527">
        <ele>1185.1</ele>
        <time>2021-03-21T14:01:13Z</time>
      </trkpt>
      <trkpt lat="42.83198" lon="0.55269">
        <ele>1184.997</ele>
        <time>2021-03-21T14:01:15Z</time>
      </trkpt>
      <trkpt lat="42.83196" lon="0.55268">
        <ele>1184.414</ele>
        <time>2021-03-21T14:01:17Z</time>
      </trkpt>
      <trkpt lat="42.83194" lon="0.55267">
        <ele>1184.075</ele>
        <time>2021-03-21T14:01:19Z</time>
      </trkpt>
      <trkpt lat="42.83192" lon="0.55265">
        <ele>1184.329</ele>
        <time>2021-03-21T14:01:21Z</time>
      </trkpt>
      <trkpt lat="42.83189" lon="0.55264">
        <ele>1184.253</ele>
        <time>2021-03-21T14:01:23Z</time>
      </trkpt>
      <trkpt lat="42.83187" lon="0.55263">
        <ele>1183.149</ele>
        <time>2021-03-21T14:01:25Z</time>
      </trkpt>
      <trkpt lat="42.83185" lon="0.55262">
        <ele>1182.988</ele>
        <time>2021-03-21T14:01:27Z</time>
      </trkpt>
      <trkpt lat="42.83183" lon="0.5526">
        <ele>1182.315</ele>
        <time>2021-03-21T14:01:29Z</time>
      </trkpt>
      <trkpt lat="42.8318" lon="0.55259">
        <ele>1182.303</ele>
        <time>2021-03-21T14:01:31Z</time>
      </trkpt>
      <trkpt lat="42.83178" lon="0.55257">
        <ele>1182.34</ele>
        <time>2021-03-21T14:01:33Z</time>
      </trkpt>
      <trkpt lat="42.83176" lon="0.55256">
        <ele>1181.652</ele>
        <time>2021-03-21T14:01:35Z</time>
      </trkpt>
      <trkpt lat="42.83174" lon="0.55254">
        <ele>1180.862</ele>
        <time>2021-03-21T14:01:37Z</time>
      </trkpt>
      <trkpt lat="42.83172" lon="0.55254">
        <ele>1180.543</ele>
        <time>2021-03-21T14:01:39Z</time>
      </trkpt>
      <trkpt lat="42.83169" lon="0.55252">
        <ele>1180.367</ele>
        <time>2021-03-21T14:01:41Z</time>
      </trkpt>
      <trkpt lat="42.83167" lon="0.55251">
        <ele>1178.975</ele>
        <time>2021-03-21T14:01:43Z</time>
      </trkpt>
      <trkpt lat="42.83165" lon="0.55249">
        <ele>1178.171</ele>
        <time>2021-03-21T14:01:45Z</time>
      </trkpt>
      <trkpt lat="42.83163" lon="0.55248">
        <ele>1177.418</ele>
        <time>2021-03-21T14:01:47Z</time>
      </trkpt>
      <trkpt lat="42.83161" lon="0.55247">
        <ele>1177.12</ele>
        <time>2021-03-21T14:01:49Z</time>
      </trkpt>
      <trkpt lat="42.83159" lon="0.55246">
        <ele>1176.61</ele>
        <time>2021-03-21T14:01:51Z</time>
      </trkpt>
      <trkpt lat="42.83157" lon="0.55244">
        <ele>1175.999</ele>
        <time>2021-03-21T14:01:53Z</time>
      </trkpt>
      <trkpt lat="42.83155" lon="0.55243">
        <ele>1175.979</ele>
        <time>2021-03-21T14:01:55Z</time>
      </trkpt>
      <trkpt lat="42.83153" lon="0.55241">
        <ele>1175.321</ele>
        <time>2021-03-21T14:01:57Z</time>
      </trkpt>
      <trkpt lat="42.83151" lon="0.55239">
        <ele>1174.473</ele>
        <time>2021-03-21T14:01:59Z</time>
      </trkpt>
      <trkpt lat="42.8315" lon="0.55238">
        <ele>1173.911</ele>
        <time>2021-03-21T14:02:01Z</time>
      </trkpt>
      <trkpt lat="42.83148" lon="0.55237">
        <ele>1174.012</ele>
        <time>2021-03-21T14:02:03Z</time>
      </trkpt>
      <trkpt lat="42.83146" lon="0.55235">
        <ele>1173.274</ele>
        <time>2021-03-21T14:02:05Z</time>
      </trkpt>
      <trkpt lat="42.83144" lon="0.55234">
        <ele>1172.959</ele>
        <time>2021-03-21T14:02:07Z</time>
      </trkpt>
      <trkpt lat="42.83143" lon="0.55232">
        <ele>1172.254</ele>
        <time>2021-03-21T14:02:09Z</time>
      </trkpt>
      <trkpt lat="42.83141" lon="0.5523">
        <ele>1172.113</ele>
        <time>2021-03-21T14:02:11Z</time>
      </trkpt>
      <trkpt lat="42.8314" lon="0.55229">
        <ele>1171.68</ele>
        <time>2021-03-21T14:02:13Z</time>
      </trkpt>
      <trkpt lat="42.83138" lon="0.55227">
        <ele>1171.281</ele>
        <time>2021-03-21T14:02:15Z</time>
      </trkpt>
      <trkpt lat="42.83136" lon="0.55225">
        <ele>1171.292</ele>
        <time>2021-03-21T14:02:17Z</time>
      </trkpt>
      <trkpt lat="42.83135" lon="0.55223">
        <ele>1171.065</ele>
        <time>2021-03-21T14:02:19Z</time>
      </trkpt>
      <trkpt lat="42.83133" lon="0.55222">
        <ele>1171.897</ele>
        <time>2021-03-21T14:02:21Z</time>
      </trkpt>
      <trkpt lat="42.83132" lon="0.55221">
        <ele>1171.815</ele>
        <time>2021-03-21T14:02:22Z</time>
      </trkpt>
      <trkpt lat="42.83129" lon="0.55218">
        <ele>1171.341</ele>
        <time>2021-03-21T14:02:25Z</time>
      </trkpt>
      <trkpt lat="42.83127" lon="0.55217">
        <ele>1171.137</ele>
        <time>2021-03-21T14:02:27Z</time>
      </trkpt>
      <trkpt lat="42.83125" lon="0.55215">
        <ele>1170.015</ele>
        <time>2021-03-21T14:02:29Z</time>
      </trkpt>
      <trkpt lat="42.83124" lon="0.55214">
        <ele>1169.59</ele>
        <time>2021-03-21T14:02:31Z</time>
      </trkpt>
      <trkpt lat="42.83122" lon="0.55212">
        <ele>1170.336</ele>
        <time>2021-03-21T14:02:33Z</time>
      </trkpt>
      <trkpt lat="42.8312" lon="0.55211">
        <ele>1170.61</ele>
        <time>2021-03-21T14:02:35Z</time>
      </trkpt>
      <trkpt lat="42.83119" lon="0.55209">
        <ele>1170.09</ele>
        <time>2021-03-21T14:02:37Z</time>
      </trkpt>
      <trkpt lat="42.83117" lon="0.55207">
        <ele>1168.43</ele>
        <time>2021-03-21T14:02:39Z</time>
      </trkpt>
      <trkpt lat="42.83115" lon="0.55206">
        <ele>1167.617</ele>
        <time>2021-03-21T14:02:41Z</time>
      </trkpt>
      <trkpt lat="42.83114" lon="0.55205">
        <ele>1166.965</ele>
        <time>2021-03-21T14:02:43Z</time>
      </trkpt>
      <trkpt lat="42.83111" lon="0.55204">
        <ele>1166.659</ele>
        <time>2021-03-21T14:02:45Z</time>
      </trkpt>
      <trkpt lat="42.83109" lon="0.55201">
        <ele>1166.943</ele>
        <time>2021-03-21T14:02:47Z</time>
      </trkpt>
      <trkpt lat="42.83108" lon="0.55199">
        <ele>1166.944</ele>
        <time>2021-03-21T14:02:49Z</time>
      </trkpt>
      <trkpt lat="42.83106" lon="0.55196">
        <ele>1167.195</ele>
        <time>2021-03-21T14:02:51Z</time>
      </trkpt>
      <trkpt lat="42.83104" lon="0.55195">
        <ele>1167.779</ele>
        <time>2021-03-21T14:02:53Z</time>
      </trkpt>
      <trkpt lat="42.83103" lon="0.55194">
        <ele>1168.924</ele>
        <time>2021-03-21T14:02:55Z</time>
      </trkpt>
      <trkpt lat="42.83102" lon="0.55192">
        <ele>1169.404</ele>
        <time>2021-03-21T14:02:57Z</time>
      </trkpt>
      <trkpt lat="42.83101" lon="0.5519">
        <ele>1168.577</ele>
        <time>2021-03-21T14:02:59Z</time>
      </trkpt>
      <trkpt lat="42.83099" lon="0.55189">
        <ele>1167.132</ele>
        <time>2021-03-21T14:03:01Z</time>
      </trkpt>
      <trkpt lat="42.83098" lon="0.55187">
        <ele>1166.123</ele>
        <time>2021-03-21T14:03:03Z</time>
      </trkpt>
      <trkpt lat="42.83097" lon="0.55186">
        <ele>1166.005</ele>
        <time>2021-03-21T14:03:05Z</time>
      </trkpt>
      <trkpt lat="42.83095" lon="0.55184">
        <ele>1165.614</ele>
        <time>2021-03-21T14:03:07Z</time>
      </trkpt>
      <trkpt lat="42.83094" lon="0.55183">
        <ele>1165.665</ele>
        <time>2021-03-21T14:03:09Z</time>
      </trkpt>
      <trkpt lat="42.83093" lon="0.55181">
        <ele>1164.779</ele>
        <time>2021-03-21T14:03:11Z</time>
      </trkpt>
      <trkpt lat="42.83092" lon="0.55179">
        <ele>1164.281</ele>
        <time>2021-03-21T14:03:13Z</time>
      </trkpt>
      <trkpt lat="42.83091" lon="0.55177">
        <ele>1163.572</ele>
        <time>2021-03-21T14:03:15Z</time>
      </trkpt>
      <trkpt lat="42.8309" lon="0.55175">
        <ele>1162.661</ele>
        <time>2021-03-21T14:03:17Z</time>
      </trkpt>
      <trkpt lat="42.83089" lon="0.55174">
        <ele>1161.976</ele>
        <time>2021-03-21T14:03:19Z</time>
      </trkpt>
      <trkpt lat="42.83088" lon="0.55172">
        <ele>1161.665</ele>
        <time>2021-03-21T14:03:21Z</time>
      </trkpt>
      <trkpt lat="42.83086" lon="0.55171">
        <ele>1160.885</ele>
        <time>2021-03-21T14:03:23Z</time>
      </trkpt>
      <trkpt lat="42.83085" lon="0.5517">
        <ele>1159.896</ele>
        <time>2021-03-21T14:03:25Z</time>
      </trkpt>
      <trkpt lat="42.83084" lon="0.55168">
        <ele>1158.994</ele>
        <time>2021-03-21T14:03:27Z</time>
      </trkpt>
      <trkpt lat="42.83082" lon="0.55166">
        <ele>1157.682</ele>
        <time>2021-03-21T14:03:29Z</time>
      </trkpt>
      <trkpt lat="42.83081" lon="0.55165">
        <ele>1157.345</ele>
        <time>2021-03-21T14:03:31Z</time>
      </trkpt>
      <trkpt lat="42.83079" lon="0.55163">
        <ele>1156.76</ele>
        <time>2021-03-21T14:03:33Z</time>
      </trkpt>
      <trkpt lat="42.83078" lon="0.55161">
        <ele>1156.024</ele>
        <time>2021-03-21T14:03:35Z</time>
      </trkpt>
      <trkpt lat="42.83077" lon="0.55159">
        <ele>1155.522</ele>
        <time>2021-03-21T14:03:37Z</time>
      </trkpt>
      <trkpt lat="42.83076" lon="0.55157">
        <ele>1155.671</ele>
        <time>2021-03-21T14:03:39Z</time>
      </trkpt>
      <trkpt lat="42.83075" lon="0.55155">
        <ele>1155.39</ele>
        <time>2021-03-21T14:03:41Z</time>
      </trkpt>
      <trkpt lat="42.83074" lon="0.55152">
        <ele>1155.127</ele>
        <time>2021-03-21T14:03:43Z</time>
      </trkpt>
      <trkpt lat="42.83073" lon="0.5515">
        <ele>1154.765</ele>
        <time>2021-03-21T14:03:45Z</time>
      </trkpt>
      <trkpt lat="42.83071" lon="0.55148">
        <ele>1153.761</ele>
        <time>2021-03-21T14:03:47Z</time>
      </trkpt>
      <trkpt lat="42.83069" lon="0.55145">
        <ele>1154.185</ele>
        <time>2021-03-21T14:03:49Z</time>
      </trkpt>
      <trkpt lat="42.83068" lon="0.55143">
        <ele>1154.469</ele>
        <time>2021-03-21T14:03:51Z</time>
      </trkpt>
      <trkpt lat="42.83067" lon="0.55141">
        <ele>1153.831</ele>
        <time>2021-03-21T14:03:53Z</time>
      </trkpt>
      <trkpt lat="42.83066" lon="0.55138">
        <ele>1153.142</ele>
        <time>2021-03-21T14:03:55Z</time>
      </trkpt>
      <trkpt lat="42.83064" lon="0.55137">
        <ele>1153.272</ele>
        <time>2021-03-21T14:03:57Z</time>
      </trkpt>
      <trkpt lat="42.83062" lon="0.55136">
        <ele>1153.404</ele>
        <time>2021-03-21T14:03:59Z</time>
      </trkpt>
      <trkpt lat="42.8306" lon="0.55134">
        <ele>1152.091</ele>
        <time>2021-03-21T14:04:01Z</time>
      </trkpt>
      <trkpt lat="42.83058" lon="0.55132">
        <ele>1150.888</ele>
        <time>2021-03-21T14:04:03Z</time>
      </trkpt>
      <trkpt lat="42.83057" lon="0.55131">
        <ele>1150.279</ele>
        <time>2021-03-21T14:04:05Z</time>
      </trkpt>
      <trkpt lat="42.83055" lon="0.5513">
        <ele>1149.311</ele>
        <time>2021-03-21T14:04:07Z</time>
      </trkpt>
      <trkpt lat="42.83053" lon="0.55128">
        <ele>1149.207</ele>
        <time>2021-03-21T14:04:09Z</time>
      </trkpt>
      <trkpt lat="42.83052" lon="0.55126">
        <ele>1149.318</ele>
        <time>2021-03-21T14:04:11Z</time>
      </trkpt>
      <trkpt lat="42.8305" lon="0.55125">
        <ele>1149.86</ele>
        <time>2021-03-21T14:04:13Z</time>
      </trkpt>
      <trkpt lat="42.83049" lon="0.55124">
        <ele>1149.491</ele>
        <time>2021-03-21T14:04:15Z</time>
      </trkpt>
      <trkpt lat="42.83048" lon="0.55123">
        <ele>1148.512</ele>
        <time>2021-03-21T14:04:17Z</time>
      </trkpt>
      <trkpt lat="42.83047" lon="0.55121">
        <ele>1146.692</ele>
        <time>2021-03-21T14:04:19Z</time>
      </trkpt>
      <trkpt lat="42.83046" lon="0.55121">
        <ele>1145.986</ele>
        <time>2021-03-21T14:04:21Z</time>
      </trkpt>
      <trkpt lat="42.83044" lon="0.5512">
        <ele>1144.667</ele>
        <time>2021-03-21T14:04:23Z</time>
      </trkpt>
      <trkpt lat="42.83043" lon="0.55118">
        <ele>1144.505</ele>
        <time>2021-03-21T14:04:25Z</time>
      </trkpt>
      <trkpt lat="42.83042" lon="0.55118">
        <ele>1142.925</ele>
        <time>2021-03-21T14:04:27Z</time>
      </trkpt>
      <trkpt lat="42.8304" lon="0.55116">
        <ele>1142.525</ele>
        <time>2021-03-21T14:04:29Z</time>
      </trkpt>
      <trkpt lat="42.83039" lon="0.55115">
        <ele>1142.087</ele>
        <time>2021-03-21T14:04:31Z</time>
      </trkpt>
      <trkpt lat="42.83037" lon="0.55114">
        <ele>1141.257</ele>
        <time>2021-03-21T14:04:33Z</time>
      </trkpt>
      <trkpt lat="42.83035" lon="0.55113">
        <ele>1141.052</ele>
        <time>2021-03-21T14:04:35Z</time>
      </trkpt>
      <trkpt lat="42.83034" lon="0.55112">
        <ele>1140.847</ele>
        <time>2021-03-21T14:04:37Z</time>
      </trkpt>
      <trkpt lat="42.83032" lon="0.55111">
        <ele>1140.391</ele>
        <time>2021-03-21T14:04:39Z</time>
      </trkpt>
      <trkpt lat="42.8303" lon="0.5511">
        <ele>1140.386</ele>
        <time>2021-03-21T14:04:41Z</time>
      </trkpt>
      <trkpt lat="42.83029" lon="0.55108">
        <ele>1141.251</ele>
        <time>2021-03-21T14:04:43Z</time>
      </trkpt>
      <trkpt lat="42.83029" lon="0.55107">
        <ele>1141.93</ele>
        <time>2021-03-21T14:04:45Z</time>
      </trkpt>
      <trkpt lat="42.83029" lon="0.55107">
        <ele>1141.928</ele>
        <time>2021-03-21T14:04:47Z</time>
      </trkpt>
      <trkpt lat="42.83027" lon="0.55107">
        <ele>1143.458</ele>
        <time>2021-03-21T14:04:49Z</time>
      </trkpt>
      <trkpt lat="42.83027" lon="0.55107">
        <ele>1143.24</ele>
        <time>2021-03-21T14:04:51Z</time>
      </trkpt>
      <trkpt lat="42.83027" lon="0.55107">
        <ele>1143.24</ele>
        <time>2021-03-21T14:04:53Z</time>
      </trkpt>
      <trkpt lat="42.83027" lon="0.55107">
        <ele>1143.248</ele>
        <time>2021-03-21T14:04:55Z</time>
      </trkpt>
      <trkpt lat="42.83027" lon="0.55107">
        <ele>1143.244</ele>
        <time>2021-03-21T14:04:57Z</time>
      </trkpt>
      <trkpt lat="42.83027" lon="0.55107">
        <ele>1143.218</ele>
        <time>2021-03-21T14:04:59Z</time>
      </trkpt>
      <trkpt lat="42.83027" lon="0.55107">
        <ele>1143.205</ele>
        <time>2021-03-21T14:05:01Z</time>
      </trkpt>
      <trkpt lat="42.83027" lon="0.55107">
        <ele>1143.217</ele>
        <time>2021-03-21T14:05:03Z</time>
      </trkpt>
      <trkpt lat="42.83027" lon="0.55107">
        <ele>1143.226</ele>
        <time>2021-03-21T14:05:05Z</time>
      </trkpt>
      <trkpt lat="42.83027" lon="0.55107">
        <ele>1143.218</ele>
        <time>2021-03-21T14:05:07Z</time>
      </trkpt>
      <trkpt lat="42.83027" lon="0.55107">
        <ele>1143.197</ele>
        <time>2021-03-21T14:05:09Z</time>
      </trkpt>
      <trkpt lat="42.83027" lon="0.55107">
        <ele>1143.192</ele>
        <time>2021-03-21T14:05:11Z</time>
      </trkpt>
      <trkpt lat="42.83027" lon="0.55107">
        <ele>1143.188</ele>
        <time>2021-03-21T14:05:13Z</time>
      </trkpt>
      <trkpt lat="42.83027" lon="0.55107">
        <ele>1143.184</ele>
        <time>2021-03-21T14:05:15Z</time>
      </trkpt>
      <trkpt lat="42.83027" lon="0.55107">
        <ele>1143.176</ele>
        <time>2021-03-21T14:05:17Z</time>
      </trkpt>
      <trkpt lat="42.83027" lon="0.55107">
        <ele>1143.171</ele>
        <time>2021-03-21T14:05:19Z</time>
      </trkpt>
      <trkpt lat="42.83027" lon="0.55107">
        <ele>1143.178</ele>
        <time>2021-03-21T14:05:21Z</time>
      </trkpt>
      <trkpt lat="42.83027" lon="0.55107">
        <ele>1143.17</ele>
        <time>2021-03-21T14:05:23Z</time>
      </trkpt>
      <trkpt lat="42.83026" lon="0.55106">
        <ele>1142.976</ele>
        <time>2021-03-21T14:05:25Z</time>
      </trkpt>
      <trkpt lat="42.83026" lon="0.55106">
        <ele>1142.978</ele>
        <time>2021-03-21T14:05:27Z</time>
      </trkpt>
      <trkpt lat="42.83026" lon="0.55106">
        <ele>1142.968</ele>
        <time>2021-03-21T14:05:29Z</time>
      </trkpt>
      <trkpt lat="42.83026" lon="0.55106">
        <ele>1142.972</ele>
        <time>2021-03-21T14:05:31Z</time>
      </trkpt>
      <trkpt lat="42.83025" lon="0.55106">
        <ele>1142.973</ele>
        <time>2021-03-21T14:05:33Z</time>
      </trkpt>
      <trkpt lat="42.83025" lon="0.55105">
        <ele>1142.669</ele>
        <time>2021-03-21T14:05:35Z</time>
      </trkpt>
      <trkpt lat="42.83024" lon="0.55106">
        <ele>1142.765</ele>
        <time>2021-03-21T14:05:37Z</time>
      </trkpt>
      <trkpt lat="42.83024" lon="0.55106">
        <ele>1142.78</ele>
        <time>2021-03-21T14:05:39Z</time>
      </trkpt>
      <trkpt lat="42.83024" lon="0.55106">
        <ele>1142.796</ele>
        <time>2021-03-21T14:05:41Z</time>
      </trkpt>
      <trkpt lat="42.83024" lon="0.55106">
        <ele>1142.753</ele>
        <time>2021-03-21T14:05:43Z</time>
      </trkpt>
      <trkpt lat="42.83023" lon="0.55106">
        <ele>1141.878</ele>
        <time>2021-03-21T14:05:45Z</time>
      </trkpt>
      <trkpt lat="42.83023" lon="0.55105">
        <ele>1141.831</ele>
        <time>2021-03-21T14:05:47Z</time>
      </trkpt>
      <trkpt lat="42.83024" lon="0.55105">
        <ele>1141.374</ele>
        <time>2021-03-21T14:05:49Z</time>
      </trkpt>
      <trkpt lat="42.83024" lon="0.55105">
        <ele>1141.378</ele>
        <time>2021-03-21T14:05:51Z</time>
      </trkpt>
      <trkpt lat="42.83024" lon="0.55105">
        <ele>1141.394</ele>
        <time>2021-03-21T14:05:53Z</time>
      </trkpt>
      <trkpt lat="42.83024" lon="0.55105">
        <ele>1141.39</ele>
        <time>2021-03-21T14:05:55Z</time>
      </trkpt>
      <trkpt lat="42.83024" lon="0.55105">
        <ele>1141.395</ele>
        <time>2021-03-21T14:05:57Z</time>
      </trkpt>
      <trkpt lat="42.83025" lon="0.55104">
        <ele>1139.861</ele>
        <time>2021-03-21T14:05:59Z</time>
      </trkpt>
      <trkpt lat="42.83026" lon="0.55103">
        <ele>1139.567</ele>
        <time>2021-03-21T14:06:01Z</time>
      </trkpt>
      <trkpt lat="42.83028" lon="0.55101">
        <ele>1138.724</ele>
        <time>2021-03-21T14:06:03Z</time>
      </trkpt>
      <trkpt lat="42.8303" lon="0.551">
        <ele>1137.971</ele>
        <time>2021-03-21T14:06:05Z</time>
      </trkpt>
      <trkpt lat="42.83032" lon="0.55099">
        <ele>1139.269</ele>
        <time>2021-03-21T14:06:07Z</time>
      </trkpt>
      <trkpt lat="42.83034" lon="0.55098">
        <ele>1137.869</ele>
        <time>2021-03-21T14:06:09Z</time>
      </trkpt>
      <trkpt lat="42.83034" lon="0.55099">
        <ele>1138.111</ele>
        <time>2021-03-21T14:06:11Z</time>
      </trkpt>
      <trkpt lat="42.83034" lon="0.55099">
        <ele>1138.118</ele>
        <time>2021-03-21T14:06:13Z</time>
      </trkpt>
      <trkpt lat="42.83034" lon="0.55099">
        <ele>1138.114</ele>
        <time>2021-03-21T14:06:15Z</time>
      </trkpt>
      <trkpt lat="42.83034" lon="0.55099">
        <ele>1138.106</ele>
        <time>2021-03-21T14:06:17Z</time>
      </trkpt>
      <trkpt lat="42.83034" lon="0.55099">
        <ele>1138.095</ele>
        <time>2021-03-21T14:06:19Z</time>
      </trkpt>
      <trkpt lat="42.83034" lon="0.55099">
        <ele>1138.092</ele>
        <time>2021-03-21T14:06:21Z</time>
      </trkpt>
      <trkpt lat="42.83034" lon="0.55099">
        <ele>1138.095</ele>
        <time>2021-03-21T14:06:23Z</time>
      </trkpt>
      <trkpt lat="42.83034" lon="0.55099">
        <ele>1138.093</ele>
        <time>2021-03-21T14:06:25Z</time>
      </trkpt>
      <trkpt lat="42.83034" lon="0.55099">
        <ele>1138.091</ele>
        <time>2021-03-21T14:06:27Z</time>
      </trkpt>
      <trkpt lat="42.83034" lon="0.55099">
        <ele>1138.07</ele>
        <time>2021-03-21T14:06:29Z</time>
      </trkpt>
      <trkpt lat="42.83034" lon="0.55099">
        <ele>1138.056</ele>
        <time>2021-03-21T14:06:31Z</time>
      </trkpt>
      <trkpt lat="42.83034" lon="0.55099">
        <ele>1138.055</ele>
        <time>2021-03-21T14:06:33Z</time>
      </trkpt>
      <trkpt lat="42.83034" lon="0.55099">
        <ele>1138.052</ele>
        <time>2021-03-21T14:06:35Z</time>
      </trkpt>
      <trkpt lat="42.83034" lon="0.55099">
        <ele>1138.053</ele>
        <time>2021-03-21T14:06:37Z</time>
      </trkpt>
      <trkpt lat="42.83034" lon="0.55099">
        <ele>1138.053</ele>
        <time>2021-03-21T14:06:39Z</time>
      </trkpt>
      <trkpt lat="42.83034" lon="0.55099">
        <ele>1138.05</ele>
        <time>2021-03-21T14:06:41Z</time>
      </trkpt>
      <trkpt lat="42.83034" lon="0.55099">
        <ele>1138.047</ele>
        <time>2021-03-21T14:06:43Z</time>
      </trkpt>
      <trkpt lat="42.83034" lon="0.55099">
        <ele>1138.046</ele>
        <time>2021-03-21T14:06:45Z</time>
      </trkpt>
      <trkpt lat="42.83035" lon="0.55099">
        <ele>1138.041</ele>
        <time>2021-03-21T14:06:47Z</time>
      </trkpt>
      <trkpt lat="42.83035" lon="0.55099">
        <ele>1138.023</ele>
        <time>2021-03-21T14:06:49Z</time>
      </trkpt>
      <trkpt lat="42.83035" lon="0.55099">
        <ele>1138.009</ele>
        <time>2021-03-21T14:06:51Z</time>
      </trkpt>
      <trkpt lat="42.83035" lon="0.55099">
        <ele>1138.006</ele>
        <time>2021-03-21T14:06:53Z</time>
      </trkpt>
      <trkpt lat="42.83035" lon="0.55099">
        <ele>1138.012</ele>
        <time>2021-03-21T14:06:55Z</time>
      </trkpt>
      <trkpt lat="42.83035" lon="0.55099">
        <ele>1138.023</ele>
        <time>2021-03-21T14:06:57Z</time>
      </trkpt>
      <trkpt lat="42.83035" lon="0.55099">
        <ele>1138.005</ele>
        <time>2021-03-21T14:06:59Z</time>
      </trkpt>
      <trkpt lat="42.83035" lon="0.55099">
        <ele>1138.008</ele>
        <time>2021-03-21T14:07:01Z</time>
      </trkpt>
      <trkpt lat="42.83035" lon="0.55099">
        <ele>1137.989</ele>
        <time>2021-03-21T14:07:03Z</time>
      </trkpt>
      <trkpt lat="42.83035" lon="0.55099">
        <ele>1137.989</ele>
        <time>2021-03-21T14:07:05Z</time>
      </trkpt>
      <trkpt lat="42.83035" lon="0.55099">
        <ele>1137.999</ele>
        <time>2021-03-21T14:07:07Z</time>
      </trkpt>
      <trkpt lat="42.83035" lon="0.55099">
        <ele>1138.008</ele>
        <time>2021-03-21T14:07:09Z</time>
      </trkpt>
      <trkpt lat="42.83035" lon="0.55099">
        <ele>1138.017</ele>
        <time>2021-03-21T14:07:11Z</time>
      </trkpt>
      <trkpt lat="42.83035" lon="0.55099">
        <ele>1138.024</ele>
        <time>2021-03-21T14:07:13Z</time>
      </trkpt>
      <trkpt lat="42.83035" lon="0.55099">
        <ele>1137.773</ele>
        <time>2021-03-21T14:07:15Z</time>
      </trkpt>
      <trkpt lat="42.83034" lon="0.55099">
        <ele>1137.831</ele>
        <time>2021-03-21T14:07:17Z</time>
      </trkpt>
      <trkpt lat="42.83034" lon="0.55099">
        <ele>1138.054</ele>
        <time>2021-03-21T14:07:19Z</time>
      </trkpt>
      <trkpt lat="42.83033" lon="0.551">
        <ele>1138.012</ele>
        <time>2021-03-21T14:07:21Z</time>
      </trkpt>
      <trkpt lat="42.83032" lon="0.55101">
        <ele>1137.754</ele>
        <time>2021-03-21T14:07:23Z</time>
      </trkpt>
      <trkpt lat="42.8303" lon="0.55102">
        <ele>1138.453</ele>
        <time>2021-03-21T14:07:25Z</time>
      </trkpt>
      <trkpt lat="42.83028" lon="0.55102">
        <ele>1138.166</ele>
        <time>2021-03-21T14:07:27Z</time>
      </trkpt>
      <trkpt lat="42.83025" lon="0.55102">
        <ele>1138.732</ele>
        <time>2021-03-21T14:07:29Z</time>
      </trkpt>
      <trkpt lat="42.83023" lon="0.55103">
        <ele>1137.873</ele>
        <time>2021-03-21T14:07:31Z</time>
      </trkpt>
      <trkpt lat="42.8302" lon="0.55104">
        <ele>1136.989</ele>
        <time>2021-03-21T14:07:33Z</time>
      </trkpt>
      <trkpt lat="42.83018" lon="0.55103">
        <ele>1136.23</ele>
        <time>2021-03-21T14:07:35Z</time>
      </trkpt>
      <trkpt lat="42.83016" lon="0.55103">
        <ele>1136.116</ele>
        <time>2021-03-21T14:07:37Z</time>
      </trkpt>
      <trkpt lat="42.83013" lon="0.55102">
        <ele>1134.878</ele>
        <time>2021-03-21T14:07:39Z</time>
      </trkpt>
      <trkpt lat="42.8301" lon="0.55102">
        <ele>1134.504</ele>
        <time>2021-03-21T14:07:41Z</time>
      </trkpt>
      <trkpt lat="42.83008" lon="0.55101">
        <ele>1134.021</ele>
        <time>2021-03-21T14:07:43Z</time>
      </trkpt>
      <trkpt lat="42.83006" lon="0.55101">
        <ele>1133.322</ele>
        <time>2021-03-21T14:07:45Z</time>
      </trkpt>
      <trkpt lat="42.83003" lon="0.55101">
        <ele>1134.227</ele>
        <time>2021-03-21T14:07:47Z</time>
      </trkpt>
      <trkpt lat="42.83001" lon="0.55101">
        <ele>1134.049</ele>
        <time>2021-03-21T14:07:49Z</time>
      </trkpt>
      <trkpt lat="42.82999" lon="0.55101">
        <ele>1134.857</ele>
        <time>2021-03-21T14:07:51Z</time>
      </trkpt>
      <trkpt lat="42.82997" lon="0.55102">
        <ele>1135.47</ele>
        <time>2021-03-21T14:07:53Z</time>
      </trkpt>
      <trkpt lat="42.82997" lon="0.55104">
        <ele>1135.041</ele>
        <time>2021-03-21T14:07:55Z</time>
      </trkpt>
      <trkpt lat="42.82999" lon="0.55105">
        <ele>1132.367</ele>
        <time>2021-03-21T14:07:57Z</time>
      </trkpt>
      <trkpt lat="42.82999" lon="0.55105">
        <ele>1132.652</ele>
        <time>2021-03-21T14:07:59Z</time>
      </trkpt>
      <trkpt lat="42.82999" lon="0.55105">
        <ele>1132.663</ele>
        <time>2021-03-21T14:08:01Z</time>
      </trkpt>
      <trkpt lat="42.82998" lon="0.55105">
        <ele>1132.991</ele>
        <time>2021-03-21T14:08:03Z</time>
      </trkpt>
      <trkpt lat="42.82997" lon="0.55107">
        <ele>1130.94</ele>
        <time>2021-03-21T14:08:05Z</time>
      </trkpt>
      <trkpt lat="42.82995" lon="0.55104">
        <ele>1129.667</ele>
        <time>2021-03-21T14:08:07Z</time>
      </trkpt>
      <trkpt lat="42.82993" lon="0.55101">
        <ele>1129.536</ele>
        <time>2021-03-21T14:08:09Z</time>
      </trkpt>
      <trkpt lat="42.82991" lon="0.55099">
        <ele>1129.575</ele>
        <time>2021-03-21T14:08:11Z</time>
      </trkpt>
      <trkpt lat="42.82989" lon="0.55098">
        <ele>1129.058</ele>
        <time>2021-03-21T14:08:13Z</time>
      </trkpt>
      <trkpt lat="42.82987" lon="0.55097">
        <ele>1128.667</ele>
        <time>2021-03-21T14:08:15Z</time>
      </trkpt>
      <trkpt lat="42.82984" lon="0.55095">
        <ele>1128.357</ele>
        <time>2021-03-21T14:08:17Z</time>
      </trkpt>
      <trkpt lat="42.82982" lon="0.55095">
        <ele>1127.631</ele>
        <time>2021-03-21T14:08:19Z</time>
      </trkpt>
      <trkpt lat="42.82979" lon="0.55093">
        <ele>1126.857</ele>
        <time>2021-03-21T14:08:21Z</time>
      </trkpt>
      <trkpt lat="42.82977" lon="0.55092">
        <ele>1126.444</ele>
        <time>2021-03-21T14:08:23Z</time>
      </trkpt>
      <trkpt lat="42.82974" lon="0.55091">
        <ele>1126.536</ele>
        <time>2021-03-21T14:08:25Z</time>
      </trkpt>
      <trkpt lat="42.82972" lon="0.55088">
        <ele>1126.942</ele>
        <time>2021-03-21T14:08:27Z</time>
      </trkpt>
      <trkpt lat="42.8297" lon="0.55086">
        <ele>1126.618</ele>
        <time>2021-03-21T14:08:29Z</time>
      </trkpt>
      <trkpt lat="42.82968" lon="0.55084">
        <ele>1126.327</ele>
        <time>2021-03-21T14:08:31Z</time>
      </trkpt>
      <trkpt lat="42.82966" lon="0.55083">
        <ele>1126.184</ele>
        <time>2021-03-21T14:08:33Z</time>
      </trkpt>
      <trkpt lat="42.82963" lon="0.5508">
        <ele>1126.342</ele>
        <time>2021-03-21T14:08:35Z</time>
      </trkpt>
      <trkpt lat="42.82961" lon="0.55079">
        <ele>1126.453</ele>
        <time>2021-03-21T14:08:37Z</time>
      </trkpt>
      <trkpt lat="42.82959" lon="0.55078">
        <ele>1125.816</ele>
        <time>2021-03-21T14:08:39Z</time>
      </trkpt>
      <trkpt lat="42.82956" lon="0.55077">
        <ele>1125.391</ele>
        <time>2021-03-21T14:08:41Z</time>
      </trkpt>
      <trkpt lat="42.82954" lon="0.55076">
        <ele>1124.93</ele>
        <time>2021-03-21T14:08:43Z</time>
      </trkpt>
      <trkpt lat="42.82952" lon="0.55076">
        <ele>1124.523</ele>
        <time>2021-03-21T14:08:45Z</time>
      </trkpt>
      <trkpt lat="42.8295" lon="0.55075">
        <ele>1123.653</ele>
        <time>2021-03-21T14:08:47Z</time>
      </trkpt>
      <trkpt lat="42.82947" lon="0.55074">
        <ele>1123.117</ele>
        <time>2021-03-21T14:08:49Z</time>
      </trkpt>
      <trkpt lat="42.82945" lon="0.55073">
        <ele>1123.232</ele>
        <time>2021-03-21T14:08:51Z</time>
      </trkpt>
      <trkpt lat="42.82942" lon="0.55071">
        <ele>1123.663</ele>
        <time>2021-03-21T14:08:53Z</time>
      </trkpt>
      <trkpt lat="42.8294" lon="0.55072">
        <ele>1124.37</ele>
        <time>2021-03-21T14:08:55Z</time>
      </trkpt>
      <trkpt lat="42.82939" lon="0.55075">
        <ele>1123.891</ele>
        <time>2021-03-21T14:08:57Z</time>
      </trkpt>
      <trkpt lat="42.82939" lon="0.55079">
        <ele>1123.843</ele>
        <time>2021-03-21T14:08:59Z</time>
      </trkpt>
      <trkpt lat="42.82941" lon="0.55081">
        <ele>1123.532</ele>
        <time>2021-03-21T14:09:01Z</time>
      </trkpt>
      <trkpt lat="42.82943" lon="0.55082">
        <ele>1122.935</ele>
        <time>2021-03-21T14:09:03Z</time>
      </trkpt>
      <trkpt lat="42.82945" lon="0.55083">
        <ele>1122.096</ele>
        <time>2021-03-21T14:09:05Z</time>
      </trkpt>
      <trkpt lat="42.82947" lon="0.55085">
        <ele>1121.493</ele>
        <time>2021-03-21T14:09:07Z</time>
      </trkpt>
      <trkpt lat="42.82948" lon="0.55087">
        <ele>1122.137</ele>
        <time>2021-03-21T14:09:09Z</time>
      </trkpt>
      <trkpt lat="42.8295" lon="0.55089">
        <ele>1121.381</ele>
        <time>2021-03-21T14:09:11Z</time>
      </trkpt>
      <trkpt lat="42.82951" lon="0.55091">
        <ele>1121.186</ele>
        <time>2021-03-21T14:09:13Z</time>
      </trkpt>
      <trkpt lat="42.82952" lon="0.55093">
        <ele>1121.347</ele>
        <time>2021-03-21T14:09:15Z</time>
      </trkpt>
      <trkpt lat="42.82953" lon="0.55095">
        <ele>1122.459</ele>
        <time>2021-03-21T14:09:17Z</time>
      </trkpt>
      <trkpt lat="42.82954" lon="0.55097">
        <ele>1122.919</ele>
        <time>2021-03-21T14:09:19Z</time>
      </trkpt>
      <trkpt lat="42.82954" lon="0.55098">
        <ele>1123.203</ele>
        <time>2021-03-21T14:09:21Z</time>
      </trkpt>
      <trkpt lat="42.82955" lon="0.55099">
        <ele>1123.12</ele>
        <time>2021-03-21T14:09:23Z</time>
      </trkpt>
      <trkpt lat="42.82954" lon="0.55098">
        <ele>1123.415</ele>
        <time>2021-03-21T14:09:25Z</time>
      </trkpt>
      <trkpt lat="42.82954" lon="0.55098">
        <ele>1123.421</ele>
        <time>2021-03-21T14:09:27Z</time>
      </trkpt>
      <trkpt lat="42.82954" lon="0.55098">
        <ele>1123.436</ele>
        <time>2021-03-21T14:09:29Z</time>
      </trkpt>
      <trkpt lat="42.82954" lon="0.55098">
        <ele>1123.451</ele>
        <time>2021-03-21T14:09:31Z</time>
      </trkpt>
      <trkpt lat="42.82954" lon="0.55098">
        <ele>1123.455</ele>
        <time>2021-03-21T14:09:33Z</time>
      </trkpt>
      <trkpt lat="42.82954" lon="0.55098">
        <ele>1123.86</ele>
        <time>2021-03-21T14:09:35Z</time>
      </trkpt>
      <trkpt lat="42.82954" lon="0.55098">
        <ele>1124.087</ele>
        <time>2021-03-21T14:09:37Z</time>
      </trkpt>
      <trkpt lat="42.82954" lon="0.55097">
        <ele>1123.702</ele>
        <time>2021-03-21T14:09:39Z</time>
      </trkpt>
      <trkpt lat="42.82954" lon="0.55097">
        <ele>1123.708</ele>
        <time>2021-03-21T14:09:41Z</time>
      </trkpt>
      <trkpt lat="42.82954" lon="0.55097">
        <ele>1123.713</ele>
        <time>2021-03-21T14:09:43Z</time>
      </trkpt>
      <trkpt lat="42.82954" lon="0.55097">
        <ele>1123.703</ele>
        <time>2021-03-21T14:09:45Z</time>
      </trkpt>
      <trkpt lat="42.82954" lon="0.55098">
        <ele>1123.429</ele>
        <time>2021-03-21T14:09:47Z</time>
      </trkpt>
      <trkpt lat="42.82954" lon="0.55098">
        <ele>1123.43</ele>
        <time>2021-03-21T14:09:49Z</time>
      </trkpt>
      <trkpt lat="42.82954" lon="0.55098">
        <ele>1123.142</ele>
        <time>2021-03-21T14:09:51Z</time>
      </trkpt>
      <trkpt lat="42.82954" lon="0.55098">
        <ele>1123.543</ele>
        <time>2021-03-21T14:09:53Z</time>
      </trkpt>
      <trkpt lat="42.82954" lon="0.55098">
        <ele>1123.493</ele>
        <time>2021-03-21T14:09:55Z</time>
      </trkpt>
      <trkpt lat="42.82954" lon="0.55098">
        <ele>1123.486</ele>
        <time>2021-03-21T14:09:57Z</time>
      </trkpt>
      <trkpt lat="42.82954" lon="0.55098">
        <ele>1123.465</ele>
        <time>2021-03-21T14:09:59Z</time>
      </trkpt>
      <trkpt lat="42.82954" lon="0.55098">
        <ele>1123.465</ele>
        <time>2021-03-21T14:10:01Z</time>
      </trkpt>
      <trkpt lat="42.82954" lon="0.55098">
        <ele>1123.467</ele>
        <time>2021-03-21T14:10:03Z</time>
      </trkpt>
      <trkpt lat="42.82954" lon="0.55098">
        <ele>1123.463</ele>
        <time>2021-03-21T14:10:05Z</time>
      </trkpt>
      <trkpt lat="42.82954" lon="0.55098">
        <ele>1123.455</ele>
        <time>2021-03-21T14:10:07Z</time>
      </trkpt>
      <trkpt lat="42.82954" lon="0.55098">
        <ele>1123.452</ele>
        <time>2021-03-21T14:10:09Z</time>
      </trkpt>
      <trkpt lat="42.82954" lon="0.55098">
        <ele>1123.148</ele>
        <time>2021-03-21T14:10:11Z</time>
      </trkpt>
      <trkpt lat="42.82954" lon="0.55098">
        <ele>1123.153</ele>
        <time>2021-03-21T14:10:13Z</time>
      </trkpt>
      <trkpt lat="42.82954" lon="0.55098">
        <ele>1123.155</ele>
        <time>2021-03-21T14:10:15Z</time>
      </trkpt>
      <trkpt lat="42.82954" lon="0.55098">
        <ele>1122.582</ele>
        <time>2021-03-21T14:10:17Z</time>
      </trkpt>
      <trkpt lat="42.82955" lon="0.55097">
        <ele>1123.004</ele>
        <time>2021-03-21T14:10:19Z</time>
      </trkpt>
      <trkpt lat="42.82955" lon="0.55097">
        <ele>1123.012</ele>
        <time>2021-03-21T14:10:21Z</time>
      </trkpt>
      <trkpt lat="42.82955" lon="0.55097">
        <ele>1123.027</ele>
        <time>2021-03-21T14:10:23Z</time>
      </trkpt>
      <trkpt lat="42.82955" lon="0.55097">
        <ele>1123.023</ele>
        <time>2021-03-21T14:10:25Z</time>
      </trkpt>
      <trkpt lat="42.82955" lon="0.55097">
        <ele>1123.02</ele>
        <time>2021-03-21T14:10:27Z</time>
      </trkpt>
      <trkpt lat="42.82955" lon="0.55097">
        <ele>1123.021</ele>
        <time>2021-03-21T14:10:29Z</time>
      </trkpt>
      <trkpt lat="42.82955" lon="0.55097">
        <ele>1123.035</ele>
        <time>2021-03-21T14:10:31Z</time>
      </trkpt>
      <trkpt lat="42.82955" lon="0.55097">
        <ele>1123.151</ele>
        <time>2021-03-21T14:10:33Z</time>
      </trkpt>
      <trkpt lat="42.82955" lon="0.55097">
        <ele>1123.124</ele>
        <time>2021-03-21T14:10:35Z</time>
      </trkpt>
      <trkpt lat="42.82955" lon="0.55097">
        <ele>1123.13</ele>
        <time>2021-03-21T14:10:37Z</time>
      </trkpt>
      <trkpt lat="42.82955" lon="0.55097">
        <ele>1123.214</ele>
        <time>2021-03-21T14:10:39Z</time>
      </trkpt>
      <trkpt lat="42.82955" lon="0.55097">
        <ele>1123.98</ele>
        <time>2021-03-21T14:10:41Z</time>
      </trkpt>
      <trkpt lat="42.82955" lon="0.55097">
        <ele>1123.983</ele>
        <time>2021-03-21T14:10:43Z</time>
      </trkpt>
      <trkpt lat="42.82955" lon="0.55097">
        <ele>1123.794</ele>
        <time>2021-03-21T14:10:45Z</time>
      </trkpt>
      <trkpt lat="42.82955" lon="0.55097">
        <ele>1123.779</ele>
        <time>2021-03-21T14:10:47Z</time>
      </trkpt>
      <trkpt lat="42.82956" lon="0.55097">
        <ele>1123.393</ele>
        <time>2021-03-21T14:10:49Z</time>
      </trkpt>
      <trkpt lat="42.82956" lon="0.55097">
        <ele>1123.618</ele>
        <time>2021-03-21T14:10:51Z</time>
      </trkpt>
      <trkpt lat="42.82956" lon="0.55097">
        <ele>1123.625</ele>
        <time>2021-03-21T14:10:53Z</time>
      </trkpt>
      <trkpt lat="42.82956" lon="0.55097">
        <ele>1123.626</ele>
        <time>2021-03-21T14:10:55Z</time>
      </trkpt>
      <trkpt lat="42.82956" lon="0.55097">
        <ele>1123.614</ele>
        <time>2021-03-21T14:10:57Z</time>
      </trkpt>
      <trkpt lat="42.82956" lon="0.55097">
        <ele>1123.608</ele>
        <time>2021-03-21T14:10:59Z</time>
      </trkpt>
      <trkpt lat="42.82956" lon="0.55097">
        <ele>1123.614</ele>
        <time>2021-03-21T14:11:01Z</time>
      </trkpt>
      <trkpt lat="42.82956" lon="0.55097">
        <ele>1123.617</ele>
        <time>2021-03-21T14:11:03Z</time>
      </trkpt>
      <trkpt lat="42.82956" lon="0.55097">
        <ele>1123.622</ele>
        <time>2021-03-21T14:11:05Z</time>
      </trkpt>
      <trkpt lat="42.82956" lon="0.55097">
        <ele>1123.625</ele>
        <time>2021-03-21T14:11:07Z</time>
      </trkpt>
      <trkpt lat="42.82956" lon="0.55097">
        <ele>1124.252</ele>
        <time>2021-03-21T14:11:09Z</time>
      </trkpt>
      <trkpt lat="42.82956" lon="0.55097">
        <ele>1124.249</ele>
        <time>2021-03-21T14:11:11Z</time>
      </trkpt>
      <trkpt lat="42.82956" lon="0.55097">
        <ele>1124.25</ele>
        <time>2021-03-21T14:11:13Z</time>
      </trkpt>
      <trkpt lat="42.82956" lon="0.55097">
        <ele>1124.251</ele>
        <time>2021-03-21T14:11:15Z</time>
      </trkpt>
      <trkpt lat="42.82955" lon="0.55096">
        <ele>1124.786</ele>
        <time>2021-03-21T14:11:17Z</time>
      </trkpt>
      <trkpt lat="42.82956" lon="0.55095">
        <ele>1124.613</ele>
        <time>2021-03-21T14:11:19Z</time>
      </trkpt>
      <trkpt lat="42.82957" lon="0.55095">
        <ele>1124.609</ele>
        <time>2021-03-21T14:11:21Z</time>
      </trkpt>
      <trkpt lat="42.82956" lon="0.55095">
        <ele>1123.813</ele>
        <time>2021-03-21T14:11:23Z</time>
      </trkpt>
      <trkpt lat="42.82956" lon="0.55096">
        <ele>1123.366</ele>
        <time>2021-03-21T14:11:25Z</time>
      </trkpt>
      <trkpt lat="42.82955" lon="0.55096">
        <ele>1123.362</ele>
        <time>2021-03-21T14:11:27Z</time>
      </trkpt>
      <trkpt lat="42.82955" lon="0.55096">
        <ele>1123.352</ele>
        <time>2021-03-21T14:11:29Z</time>
      </trkpt>
      <trkpt lat="42.82955" lon="0.55097">
        <ele>1123.423</ele>
        <time>2021-03-21T14:11:31Z</time>
      </trkpt>
      <trkpt lat="42.82955" lon="0.55098">
        <ele>1123.188</ele>
        <time>2021-03-21T14:11:33Z</time>
      </trkpt>
      <trkpt lat="42.82956" lon="0.55098">
        <ele>1121.911</ele>
        <time>2021-03-21T14:11:35Z</time>
      </trkpt>
      <trkpt lat="42.82956" lon="0.55099">
        <ele>1122.601</ele>
        <time>2021-03-21T14:11:37Z</time>
      </trkpt>
      <trkpt lat="42.82956" lon="0.55099">
        <ele>1122.78</ele>
        <time>2021-03-21T14:11:39Z</time>
      </trkpt>
      <trkpt lat="42.82955" lon="0.55099">
        <ele>1122.731</ele>
        <time>2021-03-21T14:11:41Z</time>
      </trkpt>
      <trkpt lat="42.82955" lon="0.55099">
        <ele>1122.742</ele>
        <time>2021-03-21T14:11:43Z</time>
      </trkpt>
      <trkpt lat="42.82955" lon="0.55099">
        <ele>1122.745</ele>
        <time>2021-03-21T14:11:45Z</time>
      </trkpt>
      <trkpt lat="42.82955" lon="0.55099">
        <ele>1122.749</ele>
        <time>2021-03-21T14:11:47Z</time>
      </trkpt>
      <trkpt lat="42.82954" lon="0.55099">
        <ele>1123.209</ele>
        <time>2021-03-21T14:11:49Z</time>
      </trkpt>
      <trkpt lat="42.82953" lon="0.55097">
        <ele>1122.377</ele>
        <time>2021-03-21T14:11:51Z</time>
      </trkpt>
      <trkpt lat="42.82954" lon="0.55095">
        <ele>1122.385</ele>
        <time>2021-03-21T14:11:53Z</time>
      </trkpt>
      <trkpt lat="42.82955" lon="0.55095">
        <ele>1122.415</ele>
        <time>2021-03-21T14:11:55Z</time>
      </trkpt>
      <trkpt lat="42.82955" lon="0.55095">
        <ele>1122.413</ele>
        <time>2021-03-21T14:11:57Z</time>
      </trkpt>
      <trkpt lat="42.82955" lon="0.55095">
        <ele>1122.419</ele>
        <time>2021-03-21T14:11:59Z</time>
      </trkpt>
      <trkpt lat="42.82955" lon="0.55095">
        <ele>1122.426</ele>
        <time>2021-03-21T14:12:01Z</time>
      </trkpt>
      <trkpt lat="42.82955" lon="0.55095">
        <ele>1122.637</ele>
        <time>2021-03-21T14:12:03Z</time>
      </trkpt>
      <trkpt lat="42.82955" lon="0.55095">
        <ele>1122.638</ele>
        <time>2021-03-21T14:12:05Z</time>
      </trkpt>
      <trkpt lat="42.82955" lon="0.55095">
        <ele>1122.649</ele>
        <time>2021-03-21T14:12:07Z</time>
      </trkpt>
      <trkpt lat="42.82955" lon="0.55095">
        <ele>1122.738</ele>
        <time>2021-03-21T14:12:09Z</time>
      </trkpt>
      <trkpt lat="42.82955" lon="0.55095">
        <ele>1122.736</ele>
        <time>2021-03-21T14:12:11Z</time>
      </trkpt>
      <trkpt lat="42.82955" lon="0.55095">
        <ele>1122.748</ele>
        <time>2021-03-21T14:12:13Z</time>
      </trkpt>
      <trkpt lat="42.82955" lon="0.55095">
        <ele>1122.395</ele>
        <time>2021-03-21T14:12:15Z</time>
      </trkpt>
      <trkpt lat="42.82955" lon="0.55095">
        <ele>1122.388</ele>
        <time>2021-03-21T14:12:17Z</time>
      </trkpt>
      <trkpt lat="42.82955" lon="0.55096">
        <ele>1121.879</ele>
        <time>2021-03-21T14:12:19Z</time>
      </trkpt>
      <trkpt lat="42.82955" lon="0.55096">
        <ele>1121.824</ele>
        <time>2021-03-21T14:12:21Z</time>
      </trkpt>
      <trkpt lat="42.82955" lon="0.55096">
        <ele>1121.831</ele>
        <time>2021-03-21T14:12:23Z</time>
      </trkpt>
      <trkpt lat="42.82955" lon="0.55096">
        <ele>1121.831</ele>
        <time>2021-03-21T14:12:25Z</time>
      </trkpt>
      <trkpt lat="42.82955" lon="0.55096">
        <ele>1121.835</ele>
        <time>2021-03-21T14:12:27Z</time>
      </trkpt>
      <trkpt lat="42.82955" lon="0.55096">
        <ele>1121.837</ele>
        <time>2021-03-21T14:12:29Z</time>
      </trkpt>
      <trkpt lat="42.82955" lon="0.55096">
        <ele>1121.836</ele>
        <time>2021-03-21T14:12:31Z</time>
      </trkpt>
      <trkpt lat="42.82955" lon="0.55096">
        <ele>1121.832</ele>
        <time>2021-03-21T14:12:33Z</time>
      </trkpt>
      <trkpt lat="42.82955" lon="0.55096">
        <ele>1122.061</ele>
        <time>2021-03-21T14:12:35Z</time>
      </trkpt>
      <trkpt lat="42.82955" lon="0.55096">
        <ele>1122.535</ele>
        <time>2021-03-21T14:12:37Z</time>
      </trkpt>
      <trkpt lat="42.82955" lon="0.55096">
        <ele>1122.528</ele>
        <time>2021-03-21T14:12:39Z</time>
      </trkpt>
      <trkpt lat="42.82955" lon="0.55096">
        <ele>1122.52</ele>
        <time>2021-03-21T14:12:41Z</time>
      </trkpt>
      <trkpt lat="42.82955" lon="0.55096">
        <ele>1122.786</ele>
        <time>2021-03-21T14:12:43Z</time>
      </trkpt>
      <trkpt lat="42.82954" lon="0.55097">
        <ele>1123.242</ele>
        <time>2021-03-21T14:12:45Z</time>
      </trkpt>
      <trkpt lat="42.82954" lon="0.55097">
        <ele>1123.267</ele>
        <time>2021-03-21T14:12:47Z</time>
      </trkpt>
    </trkseg>
  </trk>
</gpx>